<?xml version="1.0" encoding="UTF-8" standalone="no" ?>
<gpx xmlns="http://www.topografix.com/GPX/1/1" xmlns:xsi="http://www.w3.org/2001/XMLSchema-instance" xsi:schemaLocation="http://www.topografix.com/GPX/1/1 http://www.topografix.com/GPX/1/1/gpx.xsd" version="1.1" creator="VisuGPX - https://www.visugpx.com">
  <metadata>
    <name>Les sources du Tarn 01</name>
  </metadata>
  <trk>
    <name><![CDATA[Florac - Mont Lozère - Refuge de l'Aigle]]></name>
    <trkseg>
      <trkpt lat="44.32043" lon="3.59697">
        <ele>556.8</ele>
        <time>2022-10-28T08:06:45Z</time>
      </trkpt>
      <trkpt lat="44.32043" lon="3.59697">
        <ele>556.8</ele>
        <time>2022-10-28T08:06:46Z</time>
      </trkpt>
      <trkpt lat="44.32043" lon="3.59697">
        <ele>556.8</ele>
        <time>2022-10-28T08:06:47Z</time>
      </trkpt>
      <trkpt lat="44.32043" lon="3.59697">
        <ele>556.8</ele>
        <time>2022-10-28T08:06:48Z</time>
      </trkpt>
      <trkpt lat="44.32043" lon="3.59696">
        <ele>556.8</ele>
        <time>2022-10-28T08:06:49Z</time>
      </trkpt>
      <trkpt lat="44.32043" lon="3.59696">
        <ele>556.8</ele>
        <time>2022-10-28T08:06:50Z</time>
      </trkpt>
      <trkpt lat="44.32044" lon="3.59696">
        <ele>556.8</ele>
        <time>2022-10-28T08:06:51Z</time>
      </trkpt>
      <trkpt lat="44.32044" lon="3.59696">
        <ele>556.8</ele>
        <time>2022-10-28T08:06:52Z</time>
      </trkpt>
      <trkpt lat="44.32044" lon="3.59696">
        <ele>556.8</ele>
        <time>2022-10-28T08:06:53Z</time>
      </trkpt>
      <trkpt lat="44.32044" lon="3.59695">
        <ele>556.8</ele>
        <time>2022-10-28T08:06:54Z</time>
      </trkpt>
      <trkpt lat="44.32044" lon="3.59695">
        <ele>556.8</ele>
        <time>2022-10-28T08:06:55Z</time>
      </trkpt>
      <trkpt lat="44.32044" lon="3.59695">
        <ele>556.8</ele>
        <time>2022-10-28T08:06:56Z</time>
      </trkpt>
      <trkpt lat="44.32044" lon="3.59695">
        <ele>556.8</ele>
        <time>2022-10-28T08:06:57Z</time>
      </trkpt>
      <trkpt lat="44.32044" lon="3.59695">
        <ele>556.8</ele>
        <time>2022-10-28T08:06:58Z</time>
      </trkpt>
      <trkpt lat="44.32044" lon="3.59695">
        <ele>556.8</ele>
        <time>2022-10-28T08:06:59Z</time>
      </trkpt>
      <trkpt lat="44.32044" lon="3.59695">
        <ele>556.8</ele>
        <time>2022-10-28T08:07:00Z</time>
      </trkpt>
      <trkpt lat="44.32043" lon="3.59696">
        <ele>556.8</ele>
        <time>2022-10-28T08:07:01Z</time>
      </trkpt>
      <trkpt lat="44.32042" lon="3.59696">
        <ele>556.8</ele>
        <time>2022-10-28T08:07:02Z</time>
      </trkpt>
      <trkpt lat="44.32042" lon="3.59697">
        <ele>556.8</ele>
        <time>2022-10-28T08:07:03Z</time>
      </trkpt>
      <trkpt lat="44.32042" lon="3.59698">
        <ele>556.8</ele>
        <time>2022-10-28T08:07:04Z</time>
      </trkpt>
      <trkpt lat="44.32042" lon="3.59699">
        <ele>556.8</ele>
        <time>2022-10-28T08:07:05Z</time>
      </trkpt>
      <trkpt lat="44.32042" lon="3.597">
        <ele>556.8</ele>
        <time>2022-10-28T08:07:06Z</time>
      </trkpt>
      <trkpt lat="44.32042" lon="3.59702">
        <ele>556.8</ele>
        <time>2022-10-28T08:07:07Z</time>
      </trkpt>
      <trkpt lat="44.32042" lon="3.59703">
        <ele>556.8</ele>
        <time>2022-10-28T08:07:08Z</time>
      </trkpt>
      <trkpt lat="44.32043" lon="3.59704">
        <ele>556.8</ele>
        <time>2022-10-28T08:07:09Z</time>
      </trkpt>
      <trkpt lat="44.32045" lon="3.59705">
        <ele>556.8</ele>
        <time>2022-10-28T08:07:10Z</time>
      </trkpt>
      <trkpt lat="44.32047" lon="3.59704">
        <ele>556.8</ele>
        <time>2022-10-28T08:07:11Z</time>
      </trkpt>
      <trkpt lat="44.32049" lon="3.59703">
        <ele>556.8</ele>
        <time>2022-10-28T08:07:12Z</time>
      </trkpt>
      <trkpt lat="44.32052" lon="3.59701">
        <ele>556.8</ele>
        <time>2022-10-28T08:07:13Z</time>
      </trkpt>
      <trkpt lat="44.32054" lon="3.597">
        <ele>556.8</ele>
        <time>2022-10-28T08:07:14Z</time>
      </trkpt>
      <trkpt lat="44.32057" lon="3.59698">
        <ele>556.8</ele>
        <time>2022-10-28T08:07:15Z</time>
      </trkpt>
      <trkpt lat="44.3206" lon="3.59696">
        <ele>556.8</ele>
        <time>2022-10-28T08:07:16Z</time>
      </trkpt>
      <trkpt lat="44.32063" lon="3.59695">
        <ele>556.8</ele>
        <time>2022-10-28T08:07:17Z</time>
      </trkpt>
      <trkpt lat="44.32066" lon="3.59693">
        <ele>556.8</ele>
        <time>2022-10-28T08:07:18Z</time>
      </trkpt>
      <trkpt lat="44.32069" lon="3.59691">
        <ele>556.8</ele>
        <time>2022-10-28T08:07:19Z</time>
      </trkpt>
      <trkpt lat="44.32072" lon="3.59689">
        <ele>556.8</ele>
        <time>2022-10-28T08:07:20Z</time>
      </trkpt>
      <trkpt lat="44.32075" lon="3.59687">
        <ele>556.8</ele>
        <time>2022-10-28T08:07:21Z</time>
      </trkpt>
      <trkpt lat="44.32078" lon="3.59685">
        <ele>556.8</ele>
        <time>2022-10-28T08:07:22Z</time>
      </trkpt>
      <trkpt lat="44.32082" lon="3.59683">
        <ele>556.8</ele>
        <time>2022-10-28T08:07:23Z</time>
      </trkpt>
      <trkpt lat="44.32085" lon="3.59681">
        <ele>556.8</ele>
        <time>2022-10-28T08:07:24Z</time>
      </trkpt>
      <trkpt lat="44.32089" lon="3.59679">
        <ele>556.8</ele>
        <time>2022-10-28T08:07:25Z</time>
      </trkpt>
      <trkpt lat="44.32092" lon="3.59677">
        <ele>556.8</ele>
        <time>2022-10-28T08:07:26Z</time>
      </trkpt>
      <trkpt lat="44.32096" lon="3.59675">
        <ele>556.8</ele>
        <time>2022-10-28T08:07:27Z</time>
      </trkpt>
      <trkpt lat="44.321" lon="3.59673">
        <ele>556.8</ele>
        <time>2022-10-28T08:07:28Z</time>
      </trkpt>
      <trkpt lat="44.32103" lon="3.59671">
        <ele>556.8</ele>
        <time>2022-10-28T08:07:29Z</time>
      </trkpt>
      <trkpt lat="44.32107" lon="3.59669">
        <ele>556.8</ele>
        <time>2022-10-28T08:07:30Z</time>
      </trkpt>
      <trkpt lat="44.32111" lon="3.59667">
        <ele>556.8</ele>
        <time>2022-10-28T08:07:31Z</time>
      </trkpt>
      <trkpt lat="44.32115" lon="3.59665">
        <ele>556.8</ele>
        <time>2022-10-28T08:07:32Z</time>
      </trkpt>
      <trkpt lat="44.32119" lon="3.59663">
        <ele>556.8</ele>
        <time>2022-10-28T08:07:33Z</time>
      </trkpt>
      <trkpt lat="44.32123" lon="3.59662">
        <ele>556.8</ele>
        <time>2022-10-28T08:07:34Z</time>
      </trkpt>
      <trkpt lat="44.32127" lon="3.5966">
        <ele>556.8</ele>
        <time>2022-10-28T08:07:35Z</time>
      </trkpt>
      <trkpt lat="44.32131" lon="3.59659">
        <ele>556.8</ele>
        <time>2022-10-28T08:07:36Z</time>
      </trkpt>
      <trkpt lat="44.32136" lon="3.59658">
        <ele>556.8</ele>
        <time>2022-10-28T08:07:37Z</time>
      </trkpt>
      <trkpt lat="44.3214" lon="3.59657">
        <ele>556.8</ele>
        <time>2022-10-28T08:07:38Z</time>
      </trkpt>
      <trkpt lat="44.32145" lon="3.59657">
        <ele>556.8</ele>
        <time>2022-10-28T08:07:39Z</time>
      </trkpt>
      <trkpt lat="44.32149" lon="3.59656">
        <ele>556.8</ele>
        <time>2022-10-28T08:07:40Z</time>
      </trkpt>
      <trkpt lat="44.32153" lon="3.59655">
        <ele>556.8</ele>
        <time>2022-10-28T08:07:41Z</time>
      </trkpt>
      <trkpt lat="44.32158" lon="3.59654">
        <ele>556.8</ele>
        <time>2022-10-28T08:07:42Z</time>
      </trkpt>
      <trkpt lat="44.32163" lon="3.59654">
        <ele>556.8</ele>
        <time>2022-10-28T08:07:43Z</time>
      </trkpt>
      <trkpt lat="44.32167" lon="3.59653">
        <ele>556.8</ele>
        <time>2022-10-28T08:07:44Z</time>
      </trkpt>
      <trkpt lat="44.3217" lon="3.59653">
        <ele>556.8</ele>
        <time>2022-10-28T08:07:45Z</time>
      </trkpt>
      <trkpt lat="44.32173" lon="3.59653">
        <ele>556.8</ele>
        <time>2022-10-28T08:07:46Z</time>
      </trkpt>
      <trkpt lat="44.32174" lon="3.59653">
        <ele>556.8</ele>
        <time>2022-10-28T08:07:47Z</time>
      </trkpt>
      <trkpt lat="44.32174" lon="3.59653">
        <ele>556.8</ele>
        <time>2022-10-28T08:07:48Z</time>
      </trkpt>
      <trkpt lat="44.32174" lon="3.59653">
        <ele>556.8</ele>
        <time>2022-10-28T08:07:49Z</time>
      </trkpt>
      <trkpt lat="44.32174" lon="3.59653">
        <ele>556.8</ele>
        <time>2022-10-28T08:07:50Z</time>
      </trkpt>
      <trkpt lat="44.32173" lon="3.59653">
        <ele>556.8</ele>
        <time>2022-10-28T08:07:51Z</time>
      </trkpt>
      <trkpt lat="44.32173" lon="3.59653">
        <ele>556.8</ele>
        <time>2022-10-28T08:07:52Z</time>
      </trkpt>
      <trkpt lat="44.32174" lon="3.59653">
        <ele>556.8</ele>
        <time>2022-10-28T08:07:53Z</time>
      </trkpt>
      <trkpt lat="44.32176" lon="3.59654">
        <ele>556.8</ele>
        <time>2022-10-28T08:08:06Z</time>
      </trkpt>
      <trkpt lat="44.32177" lon="3.59653">
        <ele>556.8</ele>
        <time>2022-10-28T08:08:07Z</time>
      </trkpt>
      <trkpt lat="44.3218" lon="3.59651">
        <ele>556.8</ele>
        <time>2022-10-28T08:08:08Z</time>
      </trkpt>
      <trkpt lat="44.32183" lon="3.5965">
        <ele>556.8</ele>
        <time>2022-10-28T08:08:09Z</time>
      </trkpt>
      <trkpt lat="44.32185" lon="3.5965">
        <ele>556.8</ele>
        <time>2022-10-28T08:08:10Z</time>
      </trkpt>
      <trkpt lat="44.32189" lon="3.59649">
        <ele>556.8</ele>
        <time>2022-10-28T08:08:11Z</time>
      </trkpt>
      <trkpt lat="44.32192" lon="3.59648">
        <ele>556.8</ele>
        <time>2022-10-28T08:08:12Z</time>
      </trkpt>
      <trkpt lat="44.32196" lon="3.59648">
        <ele>556.8</ele>
        <time>2022-10-28T08:08:13Z</time>
      </trkpt>
      <trkpt lat="44.322" lon="3.59647">
        <ele>556.8</ele>
        <time>2022-10-28T08:08:14Z</time>
      </trkpt>
      <trkpt lat="44.32204" lon="3.59646">
        <ele>556.8</ele>
        <time>2022-10-28T08:08:15Z</time>
      </trkpt>
      <trkpt lat="44.32208" lon="3.59645">
        <ele>556.8</ele>
        <time>2022-10-28T08:08:16Z</time>
      </trkpt>
      <trkpt lat="44.32212" lon="3.59644">
        <ele>556.8</ele>
        <time>2022-10-28T08:08:17Z</time>
      </trkpt>
      <trkpt lat="44.32216" lon="3.59644">
        <ele>556.8</ele>
        <time>2022-10-28T08:08:18Z</time>
      </trkpt>
      <trkpt lat="44.32221" lon="3.59643">
        <ele>556.8</ele>
        <time>2022-10-28T08:08:19Z</time>
      </trkpt>
      <trkpt lat="44.32225" lon="3.59642">
        <ele>556.8</ele>
        <time>2022-10-28T08:08:20Z</time>
      </trkpt>
      <trkpt lat="44.32229" lon="3.59641">
        <ele>556.8</ele>
        <time>2022-10-28T08:08:21Z</time>
      </trkpt>
      <trkpt lat="44.32233" lon="3.5964">
        <ele>556.8</ele>
        <time>2022-10-28T08:08:22Z</time>
      </trkpt>
      <trkpt lat="44.32237" lon="3.59639">
        <ele>556.8</ele>
        <time>2022-10-28T08:08:23Z</time>
      </trkpt>
      <trkpt lat="44.32242" lon="3.59639">
        <ele>556.8</ele>
        <time>2022-10-28T08:08:24Z</time>
      </trkpt>
      <trkpt lat="44.32246" lon="3.59638">
        <ele>556.8</ele>
        <time>2022-10-28T08:08:25Z</time>
      </trkpt>
      <trkpt lat="44.3225" lon="3.59637">
        <ele>556.8</ele>
        <time>2022-10-28T08:08:26Z</time>
      </trkpt>
      <trkpt lat="44.32255" lon="3.59636">
        <ele>556.8</ele>
        <time>2022-10-28T08:08:27Z</time>
      </trkpt>
      <trkpt lat="44.32259" lon="3.59635">
        <ele>556.6</ele>
        <time>2022-10-28T08:08:28Z</time>
      </trkpt>
      <trkpt lat="44.32264" lon="3.59634">
        <ele>556.6</ele>
        <time>2022-10-28T08:08:29Z</time>
      </trkpt>
      <trkpt lat="44.32269" lon="3.59633">
        <ele>556.6</ele>
        <time>2022-10-28T08:08:30Z</time>
      </trkpt>
      <trkpt lat="44.32274" lon="3.59632">
        <ele>556.6</ele>
        <time>2022-10-28T08:08:31Z</time>
      </trkpt>
      <trkpt lat="44.32278" lon="3.59632">
        <ele>556.6</ele>
        <time>2022-10-28T08:08:32Z</time>
      </trkpt>
      <trkpt lat="44.32283" lon="3.59631">
        <ele>556.6</ele>
        <time>2022-10-28T08:08:33Z</time>
      </trkpt>
      <trkpt lat="44.32288" lon="3.59629">
        <ele>556.6</ele>
        <time>2022-10-28T08:08:34Z</time>
      </trkpt>
      <trkpt lat="44.32292" lon="3.59628">
        <ele>556.6</ele>
        <time>2022-10-28T08:08:35Z</time>
      </trkpt>
      <trkpt lat="44.32296" lon="3.59627">
        <ele>556.6</ele>
        <time>2022-10-28T08:08:36Z</time>
      </trkpt>
      <trkpt lat="44.323" lon="3.59625">
        <ele>556.6</ele>
        <time>2022-10-28T08:08:37Z</time>
      </trkpt>
      <trkpt lat="44.32305" lon="3.59624">
        <ele>556.6</ele>
        <time>2022-10-28T08:08:38Z</time>
      </trkpt>
      <trkpt lat="44.32309" lon="3.59623">
        <ele>556.6</ele>
        <time>2022-10-28T08:08:39Z</time>
      </trkpt>
      <trkpt lat="44.32313" lon="3.59622">
        <ele>556.6</ele>
        <time>2022-10-28T08:08:40Z</time>
      </trkpt>
      <trkpt lat="44.32318" lon="3.59621">
        <ele>556.6</ele>
        <time>2022-10-28T08:08:41Z</time>
      </trkpt>
      <trkpt lat="44.32322" lon="3.5962">
        <ele>556.6</ele>
        <time>2022-10-28T08:08:42Z</time>
      </trkpt>
      <trkpt lat="44.32326" lon="3.59619">
        <ele>556.6</ele>
        <time>2022-10-28T08:08:43Z</time>
      </trkpt>
      <trkpt lat="44.3233" lon="3.59617">
        <ele>556.6</ele>
        <time>2022-10-28T08:08:44Z</time>
      </trkpt>
      <trkpt lat="44.32335" lon="3.59615">
        <ele>556.6</ele>
        <time>2022-10-28T08:08:45Z</time>
      </trkpt>
      <trkpt lat="44.32339" lon="3.59612">
        <ele>556.6</ele>
        <time>2022-10-28T08:08:46Z</time>
      </trkpt>
      <trkpt lat="44.32343" lon="3.5961">
        <ele>556.4</ele>
        <time>2022-10-28T08:08:47Z</time>
      </trkpt>
      <trkpt lat="44.32347" lon="3.59607">
        <ele>556.4</ele>
        <time>2022-10-28T08:08:48Z</time>
      </trkpt>
      <trkpt lat="44.32351" lon="3.59604">
        <ele>556.4</ele>
        <time>2022-10-28T08:08:49Z</time>
      </trkpt>
      <trkpt lat="44.32354" lon="3.59601">
        <ele>556.4</ele>
        <time>2022-10-28T08:08:50Z</time>
      </trkpt>
      <trkpt lat="44.32358" lon="3.59598">
        <ele>556.4</ele>
        <time>2022-10-28T08:08:51Z</time>
      </trkpt>
      <trkpt lat="44.32362" lon="3.59595">
        <ele>556.4</ele>
        <time>2022-10-28T08:08:52Z</time>
      </trkpt>
      <trkpt lat="44.32366" lon="3.59592">
        <ele>556.4</ele>
        <time>2022-10-28T08:08:53Z</time>
      </trkpt>
      <trkpt lat="44.3237" lon="3.59589">
        <ele>556.2</ele>
        <time>2022-10-28T08:08:54Z</time>
      </trkpt>
      <trkpt lat="44.32374" lon="3.59586">
        <ele>556.4</ele>
        <time>2022-10-28T08:08:55Z</time>
      </trkpt>
      <trkpt lat="44.32377" lon="3.59583">
        <ele>556.2</ele>
        <time>2022-10-28T08:08:56Z</time>
      </trkpt>
      <trkpt lat="44.32381" lon="3.5958">
        <ele>556.2</ele>
        <time>2022-10-28T08:08:57Z</time>
      </trkpt>
      <trkpt lat="44.32386" lon="3.59577">
        <ele>556.2</ele>
        <time>2022-10-28T08:08:58Z</time>
      </trkpt>
      <trkpt lat="44.32389" lon="3.59574">
        <ele>556.2</ele>
        <time>2022-10-28T08:08:59Z</time>
      </trkpt>
      <trkpt lat="44.32394" lon="3.5957">
        <ele>556.2</ele>
        <time>2022-10-28T08:09:00Z</time>
      </trkpt>
      <trkpt lat="44.32398" lon="3.59567">
        <ele>556.2</ele>
        <time>2022-10-28T08:09:01Z</time>
      </trkpt>
      <trkpt lat="44.32401" lon="3.59564">
        <ele>556</ele>
        <time>2022-10-28T08:09:02Z</time>
      </trkpt>
      <trkpt lat="44.32405" lon="3.59561">
        <ele>556</ele>
        <time>2022-10-28T08:09:03Z</time>
      </trkpt>
      <trkpt lat="44.32408" lon="3.59557">
        <ele>556</ele>
        <time>2022-10-28T08:09:04Z</time>
      </trkpt>
      <trkpt lat="44.32412" lon="3.59554">
        <ele>556</ele>
        <time>2022-10-28T08:09:05Z</time>
      </trkpt>
      <trkpt lat="44.32415" lon="3.59551">
        <ele>556</ele>
        <time>2022-10-28T08:09:06Z</time>
      </trkpt>
      <trkpt lat="44.32418" lon="3.59548">
        <ele>556</ele>
        <time>2022-10-28T08:09:07Z</time>
      </trkpt>
      <trkpt lat="44.32422" lon="3.59546">
        <ele>556</ele>
        <time>2022-10-28T08:09:08Z</time>
      </trkpt>
      <trkpt lat="44.32425" lon="3.59543">
        <ele>556</ele>
        <time>2022-10-28T08:09:09Z</time>
      </trkpt>
      <trkpt lat="44.32429" lon="3.59541">
        <ele>555.8</ele>
        <time>2022-10-28T08:09:10Z</time>
      </trkpt>
      <trkpt lat="44.32433" lon="3.59539">
        <ele>555.8</ele>
        <time>2022-10-28T08:09:11Z</time>
      </trkpt>
      <trkpt lat="44.32437" lon="3.59537">
        <ele>555.8</ele>
        <time>2022-10-28T08:09:12Z</time>
      </trkpt>
      <trkpt lat="44.32441" lon="3.59534">
        <ele>555.8</ele>
        <time>2022-10-28T08:09:13Z</time>
      </trkpt>
      <trkpt lat="44.32445" lon="3.59532">
        <ele>555.8</ele>
        <time>2022-10-28T08:09:14Z</time>
      </trkpt>
      <trkpt lat="44.32449" lon="3.59529">
        <ele>555.8</ele>
        <time>2022-10-28T08:09:15Z</time>
      </trkpt>
      <trkpt lat="44.32453" lon="3.59526">
        <ele>555.8</ele>
        <time>2022-10-28T08:09:16Z</time>
      </trkpt>
      <trkpt lat="44.32457" lon="3.59523">
        <ele>555.8</ele>
        <time>2022-10-28T08:09:17Z</time>
      </trkpt>
      <trkpt lat="44.32461" lon="3.5952">
        <ele>555.8</ele>
        <time>2022-10-28T08:09:18Z</time>
      </trkpt>
      <trkpt lat="44.32465" lon="3.59517">
        <ele>555.8</ele>
        <time>2022-10-28T08:09:19Z</time>
      </trkpt>
      <trkpt lat="44.32468" lon="3.59514">
        <ele>555.8</ele>
        <time>2022-10-28T08:09:20Z</time>
      </trkpt>
      <trkpt lat="44.32472" lon="3.59512">
        <ele>555.6</ele>
        <time>2022-10-28T08:09:21Z</time>
      </trkpt>
      <trkpt lat="44.32476" lon="3.59509">
        <ele>555.6</ele>
        <time>2022-10-28T08:09:22Z</time>
      </trkpt>
      <trkpt lat="44.32479" lon="3.59506">
        <ele>555.6</ele>
        <time>2022-10-28T08:09:23Z</time>
      </trkpt>
      <trkpt lat="44.32483" lon="3.59503">
        <ele>555.6</ele>
        <time>2022-10-28T08:09:24Z</time>
      </trkpt>
      <trkpt lat="44.32485" lon="3.59501">
        <ele>555.6</ele>
        <time>2022-10-28T08:09:25Z</time>
      </trkpt>
      <trkpt lat="44.32486" lon="3.59497">
        <ele>555.6</ele>
        <time>2022-10-28T08:09:26Z</time>
      </trkpt>
      <trkpt lat="44.32486" lon="3.59493">
        <ele>555.6</ele>
        <time>2022-10-28T08:09:27Z</time>
      </trkpt>
      <trkpt lat="44.32485" lon="3.59489">
        <ele>555.6</ele>
        <time>2022-10-28T08:09:28Z</time>
      </trkpt>
      <trkpt lat="44.32483" lon="3.59484">
        <ele>555.8</ele>
        <time>2022-10-28T08:09:29Z</time>
      </trkpt>
      <trkpt lat="44.32481" lon="3.5948">
        <ele>555.8</ele>
        <time>2022-10-28T08:09:30Z</time>
      </trkpt>
      <trkpt lat="44.32479" lon="3.59475">
        <ele>556</ele>
        <time>2022-10-28T08:09:31Z</time>
      </trkpt>
      <trkpt lat="44.32477" lon="3.59471">
        <ele>556</ele>
        <time>2022-10-28T08:09:32Z</time>
      </trkpt>
      <trkpt lat="44.32475" lon="3.59467">
        <ele>556.2</ele>
        <time>2022-10-28T08:09:33Z</time>
      </trkpt>
      <trkpt lat="44.32473" lon="3.59463">
        <ele>556.2</ele>
        <time>2022-10-28T08:09:34Z</time>
      </trkpt>
      <trkpt lat="44.32471" lon="3.59459">
        <ele>556.4</ele>
        <time>2022-10-28T08:09:35Z</time>
      </trkpt>
      <trkpt lat="44.32468" lon="3.59455">
        <ele>556.4</ele>
        <time>2022-10-28T08:09:36Z</time>
      </trkpt>
      <trkpt lat="44.32466" lon="3.5945">
        <ele>556.4</ele>
        <time>2022-10-28T08:09:37Z</time>
      </trkpt>
      <trkpt lat="44.32464" lon="3.59445">
        <ele>556.6</ele>
        <time>2022-10-28T08:09:38Z</time>
      </trkpt>
      <trkpt lat="44.32463" lon="3.59441">
        <ele>556.6</ele>
        <time>2022-10-28T08:09:39Z</time>
      </trkpt>
      <trkpt lat="44.32461" lon="3.59437">
        <ele>556.8</ele>
        <time>2022-10-28T08:09:40Z</time>
      </trkpt>
      <trkpt lat="44.32461" lon="3.59433">
        <ele>556.8</ele>
        <time>2022-10-28T08:09:41Z</time>
      </trkpt>
      <trkpt lat="44.32461" lon="3.59429">
        <ele>557</ele>
        <time>2022-10-28T08:09:42Z</time>
      </trkpt>
      <trkpt lat="44.32462" lon="3.59426">
        <ele>557.2</ele>
        <time>2022-10-28T08:09:43Z</time>
      </trkpt>
      <trkpt lat="44.32464" lon="3.59422">
        <ele>557.2</ele>
        <time>2022-10-28T08:09:44Z</time>
      </trkpt>
      <trkpt lat="44.32465" lon="3.59419">
        <ele>557.4</ele>
        <time>2022-10-28T08:09:45Z</time>
      </trkpt>
      <trkpt lat="44.32467" lon="3.59417">
        <ele>557.4</ele>
        <time>2022-10-28T08:09:46Z</time>
      </trkpt>
      <trkpt lat="44.32469" lon="3.59416">
        <ele>557.4</ele>
        <time>2022-10-28T08:09:47Z</time>
      </trkpt>
      <trkpt lat="44.32472" lon="3.59415">
        <ele>557.6</ele>
        <time>2022-10-28T08:09:48Z</time>
      </trkpt>
      <trkpt lat="44.32474" lon="3.59414">
        <ele>557.6</ele>
        <time>2022-10-28T08:09:49Z</time>
      </trkpt>
      <trkpt lat="44.32477" lon="3.59412">
        <ele>557.6</ele>
        <time>2022-10-28T08:09:50Z</time>
      </trkpt>
      <trkpt lat="44.3248" lon="3.59409">
        <ele>557.6</ele>
        <time>2022-10-28T08:09:51Z</time>
      </trkpt>
      <trkpt lat="44.32483" lon="3.59407">
        <ele>557.6</ele>
        <time>2022-10-28T08:09:52Z</time>
      </trkpt>
      <trkpt lat="44.32486" lon="3.59404">
        <ele>557.8</ele>
        <time>2022-10-28T08:09:53Z</time>
      </trkpt>
      <trkpt lat="44.32489" lon="3.59402">
        <ele>557.8</ele>
        <time>2022-10-28T08:09:54Z</time>
      </trkpt>
      <trkpt lat="44.32491" lon="3.59399">
        <ele>557.8</ele>
        <time>2022-10-28T08:09:55Z</time>
      </trkpt>
      <trkpt lat="44.32494" lon="3.59396">
        <ele>557.8</ele>
        <time>2022-10-28T08:09:56Z</time>
      </trkpt>
      <trkpt lat="44.32496" lon="3.59393">
        <ele>557.8</ele>
        <time>2022-10-28T08:09:57Z</time>
      </trkpt>
      <trkpt lat="44.32498" lon="3.5939">
        <ele>557.8</ele>
        <time>2022-10-28T08:09:58Z</time>
      </trkpt>
      <trkpt lat="44.325" lon="3.59388">
        <ele>557.8</ele>
        <time>2022-10-28T08:09:59Z</time>
      </trkpt>
      <trkpt lat="44.32501" lon="3.59387">
        <ele>557.8</ele>
        <time>2022-10-28T08:10:00Z</time>
      </trkpt>
      <trkpt lat="44.32502" lon="3.59385">
        <ele>557.8</ele>
        <time>2022-10-28T08:10:01Z</time>
      </trkpt>
      <trkpt lat="44.32504" lon="3.59383">
        <ele>557.8</ele>
        <time>2022-10-28T08:10:02Z</time>
      </trkpt>
      <trkpt lat="44.32506" lon="3.59382">
        <ele>557.8</ele>
        <time>2022-10-28T08:10:03Z</time>
      </trkpt>
      <trkpt lat="44.32508" lon="3.59379">
        <ele>557.8</ele>
        <time>2022-10-28T08:10:04Z</time>
      </trkpt>
      <trkpt lat="44.32511" lon="3.59377">
        <ele>557.8</ele>
        <time>2022-10-28T08:10:05Z</time>
      </trkpt>
      <trkpt lat="44.32513" lon="3.59374">
        <ele>558</ele>
        <time>2022-10-28T08:10:06Z</time>
      </trkpt>
      <trkpt lat="44.32516" lon="3.5937">
        <ele>558</ele>
        <time>2022-10-28T08:10:07Z</time>
      </trkpt>
      <trkpt lat="44.32518" lon="3.59368">
        <ele>558</ele>
        <time>2022-10-28T08:10:08Z</time>
      </trkpt>
      <trkpt lat="44.32521" lon="3.59365">
        <ele>558</ele>
        <time>2022-10-28T08:10:09Z</time>
      </trkpt>
      <trkpt lat="44.32523" lon="3.59362">
        <ele>558</ele>
        <time>2022-10-28T08:10:10Z</time>
      </trkpt>
      <trkpt lat="44.32526" lon="3.59359">
        <ele>558</ele>
        <time>2022-10-28T08:10:11Z</time>
      </trkpt>
      <trkpt lat="44.32528" lon="3.59356">
        <ele>558</ele>
        <time>2022-10-28T08:10:12Z</time>
      </trkpt>
      <trkpt lat="44.32531" lon="3.59353">
        <ele>558</ele>
        <time>2022-10-28T08:10:13Z</time>
      </trkpt>
      <trkpt lat="44.32533" lon="3.59351">
        <ele>557.8</ele>
        <time>2022-10-28T08:10:14Z</time>
      </trkpt>
      <trkpt lat="44.32534" lon="3.5935">
        <ele>557.8</ele>
        <time>2022-10-28T08:10:15Z</time>
      </trkpt>
      <trkpt lat="44.32536" lon="3.59351">
        <ele>557.8</ele>
        <time>2022-10-28T08:10:16Z</time>
      </trkpt>
      <trkpt lat="44.32537" lon="3.59351">
        <ele>557.8</ele>
        <time>2022-10-28T08:10:17Z</time>
      </trkpt>
      <trkpt lat="44.32539" lon="3.59352">
        <ele>557.6</ele>
        <time>2022-10-28T08:10:18Z</time>
      </trkpt>
      <trkpt lat="44.3254" lon="3.59353">
        <ele>557.6</ele>
        <time>2022-10-28T08:10:19Z</time>
      </trkpt>
      <trkpt lat="44.32542" lon="3.59356">
        <ele>557.4</ele>
        <time>2022-10-28T08:10:20Z</time>
      </trkpt>
      <trkpt lat="44.32545" lon="3.59361">
        <ele>557.2</ele>
        <time>2022-10-28T08:10:21Z</time>
      </trkpt>
      <trkpt lat="44.32547" lon="3.59367">
        <ele>557.2</ele>
        <time>2022-10-28T08:10:22Z</time>
      </trkpt>
      <trkpt lat="44.3255" lon="3.59372">
        <ele>557</ele>
        <time>2022-10-28T08:10:23Z</time>
      </trkpt>
      <trkpt lat="44.32552" lon="3.59377">
        <ele>556.8</ele>
        <time>2022-10-28T08:10:24Z</time>
      </trkpt>
      <trkpt lat="44.32554" lon="3.59382">
        <ele>556.6</ele>
        <time>2022-10-28T08:10:25Z</time>
      </trkpt>
      <trkpt lat="44.32555" lon="3.59387">
        <ele>556.4</ele>
        <time>2022-10-28T08:10:26Z</time>
      </trkpt>
      <trkpt lat="44.32557" lon="3.59392">
        <ele>556.2</ele>
        <time>2022-10-28T08:10:27Z</time>
      </trkpt>
      <trkpt lat="44.3256" lon="3.59396">
        <ele>556</ele>
        <time>2022-10-28T08:10:28Z</time>
      </trkpt>
      <trkpt lat="44.32561" lon="3.59399">
        <ele>555.8</ele>
        <time>2022-10-28T08:10:29Z</time>
      </trkpt>
      <trkpt lat="44.32563" lon="3.59401">
        <ele>555.8</ele>
        <time>2022-10-28T08:10:30Z</time>
      </trkpt>
      <trkpt lat="44.32564" lon="3.59404">
        <ele>555.6</ele>
        <time>2022-10-28T08:10:31Z</time>
      </trkpt>
      <trkpt lat="44.32565" lon="3.59406">
        <ele>555.6</ele>
        <time>2022-10-28T08:10:32Z</time>
      </trkpt>
      <trkpt lat="44.32567" lon="3.59409">
        <ele>555.4</ele>
        <time>2022-10-28T08:10:33Z</time>
      </trkpt>
      <trkpt lat="44.32568" lon="3.59412">
        <ele>555.4</ele>
        <time>2022-10-28T08:10:34Z</time>
      </trkpt>
      <trkpt lat="44.32568" lon="3.59415">
        <ele>555.2</ele>
        <time>2022-10-28T08:10:35Z</time>
      </trkpt>
      <trkpt lat="44.32568" lon="3.59418">
        <ele>555.2</ele>
        <time>2022-10-28T08:10:36Z</time>
      </trkpt>
      <trkpt lat="44.32569" lon="3.5942">
        <ele>555.2</ele>
        <time>2022-10-28T08:10:37Z</time>
      </trkpt>
      <trkpt lat="44.32569" lon="3.59423">
        <ele>555</ele>
        <time>2022-10-28T08:10:38Z</time>
      </trkpt>
      <trkpt lat="44.3257" lon="3.59424">
        <ele>555</ele>
        <time>2022-10-28T08:10:39Z</time>
      </trkpt>
      <trkpt lat="44.32571" lon="3.59424">
        <ele>555</ele>
        <time>2022-10-28T08:10:40Z</time>
      </trkpt>
      <trkpt lat="44.32573" lon="3.59425">
        <ele>555</ele>
        <time>2022-10-28T08:10:41Z</time>
      </trkpt>
      <trkpt lat="44.32574" lon="3.59425">
        <ele>555</ele>
        <time>2022-10-28T08:10:42Z</time>
      </trkpt>
      <trkpt lat="44.32576" lon="3.59424">
        <ele>555</ele>
        <time>2022-10-28T08:10:43Z</time>
      </trkpt>
      <trkpt lat="44.32576" lon="3.59423">
        <ele>554.8</ele>
        <time>2022-10-28T08:10:44Z</time>
      </trkpt>
      <trkpt lat="44.32577" lon="3.59423">
        <ele>554.8</ele>
        <time>2022-10-28T08:10:45Z</time>
      </trkpt>
      <trkpt lat="44.32578" lon="3.59422">
        <ele>554.8</ele>
        <time>2022-10-28T08:10:46Z</time>
      </trkpt>
      <trkpt lat="44.32579" lon="3.59423">
        <ele>554.8</ele>
        <time>2022-10-28T08:10:47Z</time>
      </trkpt>
      <trkpt lat="44.32579" lon="3.59424">
        <ele>554.8</ele>
        <time>2022-10-28T08:10:48Z</time>
      </trkpt>
      <trkpt lat="44.3258" lon="3.59425">
        <ele>554.8</ele>
        <time>2022-10-28T08:10:49Z</time>
      </trkpt>
      <trkpt lat="44.3258" lon="3.59427">
        <ele>554.8</ele>
        <time>2022-10-28T08:10:50Z</time>
      </trkpt>
      <trkpt lat="44.3258" lon="3.59429">
        <ele>554.8</ele>
        <time>2022-10-28T08:10:51Z</time>
      </trkpt>
      <trkpt lat="44.32581" lon="3.59431">
        <ele>554.8</ele>
        <time>2022-10-28T08:10:52Z</time>
      </trkpt>
      <trkpt lat="44.32582" lon="3.59432">
        <ele>555</ele>
        <time>2022-10-28T08:10:53Z</time>
      </trkpt>
      <trkpt lat="44.32583" lon="3.59434">
        <ele>555</ele>
        <time>2022-10-28T08:10:54Z</time>
      </trkpt>
      <trkpt lat="44.32583" lon="3.59436">
        <ele>555</ele>
        <time>2022-10-28T08:10:55Z</time>
      </trkpt>
      <trkpt lat="44.32584" lon="3.59438">
        <ele>555</ele>
        <time>2022-10-28T08:10:56Z</time>
      </trkpt>
      <trkpt lat="44.32586" lon="3.59442">
        <ele>555</ele>
        <time>2022-10-28T08:10:57Z</time>
      </trkpt>
      <trkpt lat="44.32587" lon="3.59445">
        <ele>555.2</ele>
        <time>2022-10-28T08:10:58Z</time>
      </trkpt>
      <trkpt lat="44.32589" lon="3.59448">
        <ele>555.2</ele>
        <time>2022-10-28T08:10:59Z</time>
      </trkpt>
      <trkpt lat="44.32591" lon="3.59451">
        <ele>555.2</ele>
        <time>2022-10-28T08:11:00Z</time>
      </trkpt>
      <trkpt lat="44.32594" lon="3.59455">
        <ele>555.2</ele>
        <time>2022-10-28T08:11:01Z</time>
      </trkpt>
      <trkpt lat="44.32596" lon="3.59459">
        <ele>555.4</ele>
        <time>2022-10-28T08:11:02Z</time>
      </trkpt>
      <trkpt lat="44.32598" lon="3.59463">
        <ele>555.4</ele>
        <time>2022-10-28T08:11:03Z</time>
      </trkpt>
      <trkpt lat="44.32601" lon="3.59468">
        <ele>555.4</ele>
        <time>2022-10-28T08:11:04Z</time>
      </trkpt>
      <trkpt lat="44.32604" lon="3.59472">
        <ele>555.6</ele>
        <time>2022-10-28T08:11:05Z</time>
      </trkpt>
      <trkpt lat="44.32606" lon="3.59477">
        <ele>555.6</ele>
        <time>2022-10-28T08:11:06Z</time>
      </trkpt>
      <trkpt lat="44.32609" lon="3.59481">
        <ele>555.6</ele>
        <time>2022-10-28T08:11:07Z</time>
      </trkpt>
      <trkpt lat="44.32611" lon="3.59484">
        <ele>555.6</ele>
        <time>2022-10-28T08:11:08Z</time>
      </trkpt>
      <trkpt lat="44.32613" lon="3.59487">
        <ele>555.6</ele>
        <time>2022-10-28T08:11:09Z</time>
      </trkpt>
      <trkpt lat="44.32615" lon="3.5949">
        <ele>555.8</ele>
        <time>2022-10-28T08:11:10Z</time>
      </trkpt>
      <trkpt lat="44.32617" lon="3.59493">
        <ele>555.8</ele>
        <time>2022-10-28T08:11:11Z</time>
      </trkpt>
      <trkpt lat="44.32618" lon="3.59496">
        <ele>555.8</ele>
        <time>2022-10-28T08:11:12Z</time>
      </trkpt>
      <trkpt lat="44.3262" lon="3.595">
        <ele>555.8</ele>
        <time>2022-10-28T08:11:13Z</time>
      </trkpt>
      <trkpt lat="44.32621" lon="3.59504">
        <ele>555.8</ele>
        <time>2022-10-28T08:11:14Z</time>
      </trkpt>
      <trkpt lat="44.32623" lon="3.59508">
        <ele>556</ele>
        <time>2022-10-28T08:11:15Z</time>
      </trkpt>
      <trkpt lat="44.32625" lon="3.59512">
        <ele>556</ele>
        <time>2022-10-28T08:11:16Z</time>
      </trkpt>
      <trkpt lat="44.32627" lon="3.59515">
        <ele>556</ele>
        <time>2022-10-28T08:11:17Z</time>
      </trkpt>
      <trkpt lat="44.32628" lon="3.59519">
        <ele>556</ele>
        <time>2022-10-28T08:11:18Z</time>
      </trkpt>
      <trkpt lat="44.3263" lon="3.59522">
        <ele>556</ele>
        <time>2022-10-28T08:11:19Z</time>
      </trkpt>
      <trkpt lat="44.32631" lon="3.59524">
        <ele>556.2</ele>
        <time>2022-10-28T08:11:20Z</time>
      </trkpt>
      <trkpt lat="44.32633" lon="3.59527">
        <ele>556.2</ele>
        <time>2022-10-28T08:11:21Z</time>
      </trkpt>
      <trkpt lat="44.32634" lon="3.59529">
        <ele>556.2</ele>
        <time>2022-10-28T08:11:22Z</time>
      </trkpt>
      <trkpt lat="44.32635" lon="3.59532">
        <ele>556.2</ele>
        <time>2022-10-28T08:11:23Z</time>
      </trkpt>
      <trkpt lat="44.32636" lon="3.59534">
        <ele>556.2</ele>
        <time>2022-10-28T08:11:24Z</time>
      </trkpt>
      <trkpt lat="44.32637" lon="3.59537">
        <ele>556.2</ele>
        <time>2022-10-28T08:11:25Z</time>
      </trkpt>
      <trkpt lat="44.32639" lon="3.5954">
        <ele>556.2</ele>
        <time>2022-10-28T08:11:26Z</time>
      </trkpt>
      <trkpt lat="44.32642" lon="3.59544">
        <ele>556.2</ele>
        <time>2022-10-28T08:11:27Z</time>
      </trkpt>
      <trkpt lat="44.32644" lon="3.59548">
        <ele>556.2</ele>
        <time>2022-10-28T08:11:28Z</time>
      </trkpt>
      <trkpt lat="44.32646" lon="3.59552">
        <ele>556.4</ele>
        <time>2022-10-28T08:11:29Z</time>
      </trkpt>
      <trkpt lat="44.32648" lon="3.59556">
        <ele>556.4</ele>
        <time>2022-10-28T08:11:30Z</time>
      </trkpt>
      <trkpt lat="44.32649" lon="3.59559">
        <ele>556.6</ele>
        <time>2022-10-28T08:11:31Z</time>
      </trkpt>
      <trkpt lat="44.3265" lon="3.59562">
        <ele>556.8</ele>
        <time>2022-10-28T08:11:32Z</time>
      </trkpt>
      <trkpt lat="44.32652" lon="3.59564">
        <ele>556.8</ele>
        <time>2022-10-28T08:11:33Z</time>
      </trkpt>
      <trkpt lat="44.32654" lon="3.59566">
        <ele>557</ele>
        <time>2022-10-28T08:11:34Z</time>
      </trkpt>
      <trkpt lat="44.32656" lon="3.59569">
        <ele>557.2</ele>
        <time>2022-10-28T08:11:35Z</time>
      </trkpt>
      <trkpt lat="44.32657" lon="3.59571">
        <ele>557.4</ele>
        <time>2022-10-28T08:11:36Z</time>
      </trkpt>
      <trkpt lat="44.32659" lon="3.59574">
        <ele>557.6</ele>
        <time>2022-10-28T08:11:37Z</time>
      </trkpt>
      <trkpt lat="44.32661" lon="3.59575">
        <ele>557.6</ele>
        <time>2022-10-28T08:11:38Z</time>
      </trkpt>
      <trkpt lat="44.32663" lon="3.59575">
        <ele>557.8</ele>
        <time>2022-10-28T08:11:39Z</time>
      </trkpt>
      <trkpt lat="44.32665" lon="3.59575">
        <ele>558</ele>
        <time>2022-10-28T08:11:40Z</time>
      </trkpt>
      <trkpt lat="44.32668" lon="3.59573">
        <ele>558</ele>
        <time>2022-10-28T08:11:41Z</time>
      </trkpt>
      <trkpt lat="44.3267" lon="3.59572">
        <ele>558.2</ele>
        <time>2022-10-28T08:11:42Z</time>
      </trkpt>
      <trkpt lat="44.32673" lon="3.5957">
        <ele>558.4</ele>
        <time>2022-10-28T08:11:43Z</time>
      </trkpt>
      <trkpt lat="44.32676" lon="3.59568">
        <ele>558.4</ele>
        <time>2022-10-28T08:11:44Z</time>
      </trkpt>
      <trkpt lat="44.32679" lon="3.59566">
        <ele>558.4</ele>
        <time>2022-10-28T08:11:45Z</time>
      </trkpt>
      <trkpt lat="44.32682" lon="3.59564">
        <ele>558.6</ele>
        <time>2022-10-28T08:11:46Z</time>
      </trkpt>
      <trkpt lat="44.32685" lon="3.59562">
        <ele>558.6</ele>
        <time>2022-10-28T08:11:47Z</time>
      </trkpt>
      <trkpt lat="44.32688" lon="3.59559">
        <ele>558.6</ele>
        <time>2022-10-28T08:11:48Z</time>
      </trkpt>
      <trkpt lat="44.32691" lon="3.59557">
        <ele>558.6</ele>
        <time>2022-10-28T08:11:49Z</time>
      </trkpt>
      <trkpt lat="44.32695" lon="3.59555">
        <ele>558.6</ele>
        <time>2022-10-28T08:11:50Z</time>
      </trkpt>
      <trkpt lat="44.32698" lon="3.59553">
        <ele>558.8</ele>
        <time>2022-10-28T08:11:51Z</time>
      </trkpt>
      <trkpt lat="44.32702" lon="3.5955">
        <ele>558.8</ele>
        <time>2022-10-28T08:11:52Z</time>
      </trkpt>
      <trkpt lat="44.32706" lon="3.59548">
        <ele>558.8</ele>
        <time>2022-10-28T08:11:53Z</time>
      </trkpt>
      <trkpt lat="44.32709" lon="3.59545">
        <ele>558.8</ele>
        <time>2022-10-28T08:11:54Z</time>
      </trkpt>
      <trkpt lat="44.32713" lon="3.59542">
        <ele>558.8</ele>
        <time>2022-10-28T08:11:55Z</time>
      </trkpt>
      <trkpt lat="44.32717" lon="3.59539">
        <ele>558.8</ele>
        <time>2022-10-28T08:11:56Z</time>
      </trkpt>
      <trkpt lat="44.32721" lon="3.59536">
        <ele>558.8</ele>
        <time>2022-10-28T08:11:57Z</time>
      </trkpt>
      <trkpt lat="44.32725" lon="3.59534">
        <ele>558.6</ele>
        <time>2022-10-28T08:11:58Z</time>
      </trkpt>
      <trkpt lat="44.32729" lon="3.59531">
        <ele>558.6</ele>
        <time>2022-10-28T08:11:59Z</time>
      </trkpt>
      <trkpt lat="44.32733" lon="3.59528">
        <ele>558.6</ele>
        <time>2022-10-28T08:12:00Z</time>
      </trkpt>
      <trkpt lat="44.32737" lon="3.59525">
        <ele>558.6</ele>
        <time>2022-10-28T08:12:01Z</time>
      </trkpt>
      <trkpt lat="44.3274" lon="3.59522">
        <ele>558.6</ele>
        <time>2022-10-28T08:12:02Z</time>
      </trkpt>
      <trkpt lat="44.32744" lon="3.59519">
        <ele>558.6</ele>
        <time>2022-10-28T08:12:03Z</time>
      </trkpt>
      <trkpt lat="44.32748" lon="3.59515">
        <ele>558.8</ele>
        <time>2022-10-28T08:12:04Z</time>
      </trkpt>
      <trkpt lat="44.32752" lon="3.59513">
        <ele>558.8</ele>
        <time>2022-10-28T08:12:05Z</time>
      </trkpt>
      <trkpt lat="44.32756" lon="3.5951">
        <ele>558.8</ele>
        <time>2022-10-28T08:12:06Z</time>
      </trkpt>
      <trkpt lat="44.32761" lon="3.59507">
        <ele>558.8</ele>
        <time>2022-10-28T08:12:07Z</time>
      </trkpt>
      <trkpt lat="44.32764" lon="3.59505">
        <ele>558.8</ele>
        <time>2022-10-28T08:12:08Z</time>
      </trkpt>
      <trkpt lat="44.32768" lon="3.59502">
        <ele>558.8</ele>
        <time>2022-10-28T08:12:09Z</time>
      </trkpt>
      <trkpt lat="44.32772" lon="3.595">
        <ele>558.8</ele>
        <time>2022-10-28T08:12:10Z</time>
      </trkpt>
      <trkpt lat="44.32775" lon="3.59498">
        <ele>558.6</ele>
        <time>2022-10-28T08:12:11Z</time>
      </trkpt>
      <trkpt lat="44.32778" lon="3.59498">
        <ele>558.6</ele>
        <time>2022-10-28T08:12:12Z</time>
      </trkpt>
      <trkpt lat="44.32781" lon="3.59498">
        <ele>558.4</ele>
        <time>2022-10-28T08:12:13Z</time>
      </trkpt>
      <trkpt lat="44.32784" lon="3.59499">
        <ele>558.4</ele>
        <time>2022-10-28T08:12:14Z</time>
      </trkpt>
      <trkpt lat="44.32787" lon="3.59499">
        <ele>558.4</ele>
        <time>2022-10-28T08:12:15Z</time>
      </trkpt>
      <trkpt lat="44.32791" lon="3.59498">
        <ele>558.4</ele>
        <time>2022-10-28T08:12:16Z</time>
      </trkpt>
      <trkpt lat="44.32794" lon="3.59496">
        <ele>558.4</ele>
        <time>2022-10-28T08:12:17Z</time>
      </trkpt>
      <trkpt lat="44.32798" lon="3.59494">
        <ele>558.4</ele>
        <time>2022-10-28T08:12:18Z</time>
      </trkpt>
      <trkpt lat="44.32803" lon="3.59491">
        <ele>558.2</ele>
        <time>2022-10-28T08:12:19Z</time>
      </trkpt>
      <trkpt lat="44.32807" lon="3.59488">
        <ele>558.2</ele>
        <time>2022-10-28T08:12:20Z</time>
      </trkpt>
      <trkpt lat="44.32812" lon="3.59485">
        <ele>558.2</ele>
        <time>2022-10-28T08:12:21Z</time>
      </trkpt>
      <trkpt lat="44.32816" lon="3.59482">
        <ele>558.2</ele>
        <time>2022-10-28T08:12:22Z</time>
      </trkpt>
      <trkpt lat="44.32821" lon="3.59479">
        <ele>558.2</ele>
        <time>2022-10-28T08:12:23Z</time>
      </trkpt>
      <trkpt lat="44.32825" lon="3.59476">
        <ele>558.2</ele>
        <time>2022-10-28T08:12:24Z</time>
      </trkpt>
      <trkpt lat="44.3283" lon="3.59472">
        <ele>558.2</ele>
        <time>2022-10-28T08:12:25Z</time>
      </trkpt>
      <trkpt lat="44.32835" lon="3.59469">
        <ele>558</ele>
        <time>2022-10-28T08:12:26Z</time>
      </trkpt>
      <trkpt lat="44.32839" lon="3.59466">
        <ele>558.4</ele>
        <time>2022-10-28T08:12:27Z</time>
      </trkpt>
      <trkpt lat="44.32844" lon="3.59462">
        <ele>558.2</ele>
        <time>2022-10-28T08:12:28Z</time>
      </trkpt>
      <trkpt lat="44.32848" lon="3.59459">
        <ele>558</ele>
        <time>2022-10-28T08:12:29Z</time>
      </trkpt>
      <trkpt lat="44.32853" lon="3.59455">
        <ele>557.8</ele>
        <time>2022-10-28T08:12:30Z</time>
      </trkpt>
      <trkpt lat="44.32857" lon="3.59451">
        <ele>557.8</ele>
        <time>2022-10-28T08:12:31Z</time>
      </trkpt>
      <trkpt lat="44.32861" lon="3.59447">
        <ele>557.6</ele>
        <time>2022-10-28T08:12:32Z</time>
      </trkpt>
      <trkpt lat="44.32864" lon="3.59444">
        <ele>557.4</ele>
        <time>2022-10-28T08:12:33Z</time>
      </trkpt>
      <trkpt lat="44.32867" lon="3.59441">
        <ele>557.4</ele>
        <time>2022-10-28T08:12:34Z</time>
      </trkpt>
      <trkpt lat="44.3287" lon="3.59438">
        <ele>557.2</ele>
        <time>2022-10-28T08:12:35Z</time>
      </trkpt>
      <trkpt lat="44.32873" lon="3.59435">
        <ele>557.2</ele>
        <time>2022-10-28T08:12:36Z</time>
      </trkpt>
      <trkpt lat="44.32876" lon="3.59432">
        <ele>557</ele>
        <time>2022-10-28T08:12:37Z</time>
      </trkpt>
      <trkpt lat="44.32879" lon="3.59429">
        <ele>557</ele>
        <time>2022-10-28T08:12:38Z</time>
      </trkpt>
      <trkpt lat="44.32881" lon="3.59424">
        <ele>557</ele>
        <time>2022-10-28T08:12:39Z</time>
      </trkpt>
      <trkpt lat="44.32882" lon="3.5942">
        <ele>557</ele>
        <time>2022-10-28T08:12:40Z</time>
      </trkpt>
      <trkpt lat="44.32884" lon="3.59416">
        <ele>556.8</ele>
        <time>2022-10-28T08:12:41Z</time>
      </trkpt>
      <trkpt lat="44.32887" lon="3.59413">
        <ele>556.8</ele>
        <time>2022-10-28T08:12:42Z</time>
      </trkpt>
      <trkpt lat="44.3289" lon="3.5941">
        <ele>556.8</ele>
        <time>2022-10-28T08:12:43Z</time>
      </trkpt>
      <trkpt lat="44.32894" lon="3.59406">
        <ele>556.6</ele>
        <time>2022-10-28T08:12:44Z</time>
      </trkpt>
      <trkpt lat="44.32897" lon="3.59403">
        <ele>556.6</ele>
        <time>2022-10-28T08:12:45Z</time>
      </trkpt>
      <trkpt lat="44.32901" lon="3.59399">
        <ele>556.6</ele>
        <time>2022-10-28T08:12:46Z</time>
      </trkpt>
      <trkpt lat="44.32904" lon="3.59396">
        <ele>556.8</ele>
        <time>2022-10-28T08:12:47Z</time>
      </trkpt>
      <trkpt lat="44.32908" lon="3.59392">
        <ele>556.6</ele>
        <time>2022-10-28T08:12:48Z</time>
      </trkpt>
      <trkpt lat="44.32912" lon="3.59388">
        <ele>556.6</ele>
        <time>2022-10-28T08:12:49Z</time>
      </trkpt>
      <trkpt lat="44.32915" lon="3.59384">
        <ele>556.6</ele>
        <time>2022-10-28T08:12:50Z</time>
      </trkpt>
      <trkpt lat="44.32919" lon="3.59381">
        <ele>556.8</ele>
        <time>2022-10-28T08:12:51Z</time>
      </trkpt>
      <trkpt lat="44.32923" lon="3.59377">
        <ele>556.6</ele>
        <time>2022-10-28T08:12:52Z</time>
      </trkpt>
      <trkpt lat="44.32927" lon="3.59373">
        <ele>556.8</ele>
        <time>2022-10-28T08:12:53Z</time>
      </trkpt>
      <trkpt lat="44.32931" lon="3.5937">
        <ele>556.8</ele>
        <time>2022-10-28T08:12:54Z</time>
      </trkpt>
      <trkpt lat="44.32935" lon="3.59366">
        <ele>556.8</ele>
        <time>2022-10-28T08:12:55Z</time>
      </trkpt>
      <trkpt lat="44.32939" lon="3.59362">
        <ele>556.8</ele>
        <time>2022-10-28T08:12:56Z</time>
      </trkpt>
      <trkpt lat="44.32943" lon="3.59359">
        <ele>556.8</ele>
        <time>2022-10-28T08:12:57Z</time>
      </trkpt>
      <trkpt lat="44.32947" lon="3.59354">
        <ele>556.8</ele>
        <time>2022-10-28T08:12:58Z</time>
      </trkpt>
      <trkpt lat="44.3295" lon="3.5935">
        <ele>556.8</ele>
        <time>2022-10-28T08:12:59Z</time>
      </trkpt>
      <trkpt lat="44.32954" lon="3.59346">
        <ele>556.8</ele>
        <time>2022-10-28T08:13:00Z</time>
      </trkpt>
      <trkpt lat="44.32957" lon="3.59342">
        <ele>556.8</ele>
        <time>2022-10-28T08:13:01Z</time>
      </trkpt>
      <trkpt lat="44.3296" lon="3.59338">
        <ele>556.8</ele>
        <time>2022-10-28T08:13:02Z</time>
      </trkpt>
      <trkpt lat="44.32964" lon="3.59333">
        <ele>556.8</ele>
        <time>2022-10-28T08:13:03Z</time>
      </trkpt>
      <trkpt lat="44.32967" lon="3.59329">
        <ele>557</ele>
        <time>2022-10-28T08:13:04Z</time>
      </trkpt>
      <trkpt lat="44.32971" lon="3.59325">
        <ele>557</ele>
        <time>2022-10-28T08:13:05Z</time>
      </trkpt>
      <trkpt lat="44.32975" lon="3.59321">
        <ele>557</ele>
        <time>2022-10-28T08:13:06Z</time>
      </trkpt>
      <trkpt lat="44.32978" lon="3.59317">
        <ele>557</ele>
        <time>2022-10-28T08:13:07Z</time>
      </trkpt>
      <trkpt lat="44.32982" lon="3.59313">
        <ele>557</ele>
        <time>2022-10-28T08:13:08Z</time>
      </trkpt>
      <trkpt lat="44.32985" lon="3.59309">
        <ele>557</ele>
        <time>2022-10-28T08:13:09Z</time>
      </trkpt>
      <trkpt lat="44.32989" lon="3.59305">
        <ele>557</ele>
        <time>2022-10-28T08:13:10Z</time>
      </trkpt>
      <trkpt lat="44.32992" lon="3.59301">
        <ele>557</ele>
        <time>2022-10-28T08:13:11Z</time>
      </trkpt>
      <trkpt lat="44.32996" lon="3.59297">
        <ele>557</ele>
        <time>2022-10-28T08:13:12Z</time>
      </trkpt>
      <trkpt lat="44.33" lon="3.59293">
        <ele>557.2</ele>
        <time>2022-10-28T08:13:13Z</time>
      </trkpt>
      <trkpt lat="44.33003" lon="3.59289">
        <ele>557.2</ele>
        <time>2022-10-28T08:13:14Z</time>
      </trkpt>
      <trkpt lat="44.33007" lon="3.59286">
        <ele>557.2</ele>
        <time>2022-10-28T08:13:15Z</time>
      </trkpt>
      <trkpt lat="44.3301" lon="3.59282">
        <ele>557.2</ele>
        <time>2022-10-28T08:13:16Z</time>
      </trkpt>
      <trkpt lat="44.33014" lon="3.59277">
        <ele>557.2</ele>
        <time>2022-10-28T08:13:17Z</time>
      </trkpt>
      <trkpt lat="44.33017" lon="3.59273">
        <ele>557.2</ele>
        <time>2022-10-28T08:13:18Z</time>
      </trkpt>
      <trkpt lat="44.3302" lon="3.59269">
        <ele>557.2</ele>
        <time>2022-10-28T08:13:19Z</time>
      </trkpt>
      <trkpt lat="44.33024" lon="3.59265">
        <ele>557.2</ele>
        <time>2022-10-28T08:13:20Z</time>
      </trkpt>
      <trkpt lat="44.33027" lon="3.5926">
        <ele>557.2</ele>
        <time>2022-10-28T08:13:21Z</time>
      </trkpt>
      <trkpt lat="44.33031" lon="3.59256">
        <ele>557.2</ele>
        <time>2022-10-28T08:13:22Z</time>
      </trkpt>
      <trkpt lat="44.33035" lon="3.59252">
        <ele>557.2</ele>
        <time>2022-10-28T08:13:23Z</time>
      </trkpt>
      <trkpt lat="44.33038" lon="3.59248">
        <ele>557.2</ele>
        <time>2022-10-28T08:13:24Z</time>
      </trkpt>
      <trkpt lat="44.33042" lon="3.59244">
        <ele>557.2</ele>
        <time>2022-10-28T08:13:25Z</time>
      </trkpt>
      <trkpt lat="44.33046" lon="3.59241">
        <ele>557.2</ele>
        <time>2022-10-28T08:13:26Z</time>
      </trkpt>
      <trkpt lat="44.33049" lon="3.59237">
        <ele>557.2</ele>
        <time>2022-10-28T08:13:27Z</time>
      </trkpt>
      <trkpt lat="44.33052" lon="3.59233">
        <ele>557.2</ele>
        <time>2022-10-28T08:13:28Z</time>
      </trkpt>
      <trkpt lat="44.33056" lon="3.59229">
        <ele>557.4</ele>
        <time>2022-10-28T08:13:29Z</time>
      </trkpt>
      <trkpt lat="44.33059" lon="3.59225">
        <ele>557.4</ele>
        <time>2022-10-28T08:13:30Z</time>
      </trkpt>
      <trkpt lat="44.33063" lon="3.59221">
        <ele>557.4</ele>
        <time>2022-10-28T08:13:31Z</time>
      </trkpt>
      <trkpt lat="44.33066" lon="3.59216">
        <ele>557.4</ele>
        <time>2022-10-28T08:13:32Z</time>
      </trkpt>
      <trkpt lat="44.3307" lon="3.59212">
        <ele>557.4</ele>
        <time>2022-10-28T08:13:33Z</time>
      </trkpt>
      <trkpt lat="44.33073" lon="3.59208">
        <ele>557.4</ele>
        <time>2022-10-28T08:13:34Z</time>
      </trkpt>
      <trkpt lat="44.33077" lon="3.59204">
        <ele>557.6</ele>
        <time>2022-10-28T08:13:35Z</time>
      </trkpt>
      <trkpt lat="44.3308" lon="3.592">
        <ele>557.6</ele>
        <time>2022-10-28T08:13:36Z</time>
      </trkpt>
      <trkpt lat="44.33083" lon="3.59196">
        <ele>557.6</ele>
        <time>2022-10-28T08:13:37Z</time>
      </trkpt>
      <trkpt lat="44.33087" lon="3.59192">
        <ele>557.6</ele>
        <time>2022-10-28T08:13:38Z</time>
      </trkpt>
      <trkpt lat="44.3309" lon="3.59187">
        <ele>557.6</ele>
        <time>2022-10-28T08:13:39Z</time>
      </trkpt>
      <trkpt lat="44.33094" lon="3.59183">
        <ele>557.6</ele>
        <time>2022-10-28T08:13:40Z</time>
      </trkpt>
      <trkpt lat="44.33097" lon="3.59179">
        <ele>557.6</ele>
        <time>2022-10-28T08:13:41Z</time>
      </trkpt>
      <trkpt lat="44.33101" lon="3.59174">
        <ele>557.6</ele>
        <time>2022-10-28T08:13:42Z</time>
      </trkpt>
      <trkpt lat="44.33105" lon="3.5917">
        <ele>557.8</ele>
        <time>2022-10-28T08:13:43Z</time>
      </trkpt>
      <trkpt lat="44.33108" lon="3.59166">
        <ele>557.8</ele>
        <time>2022-10-28T08:13:44Z</time>
      </trkpt>
      <trkpt lat="44.33112" lon="3.59163">
        <ele>557.8</ele>
        <time>2022-10-28T08:13:45Z</time>
      </trkpt>
      <trkpt lat="44.33116" lon="3.59158">
        <ele>557.8</ele>
        <time>2022-10-28T08:13:46Z</time>
      </trkpt>
      <trkpt lat="44.33119" lon="3.59155">
        <ele>557.8</ele>
        <time>2022-10-28T08:13:47Z</time>
      </trkpt>
      <trkpt lat="44.33122" lon="3.59151">
        <ele>557.8</ele>
        <time>2022-10-28T08:13:48Z</time>
      </trkpt>
      <trkpt lat="44.33126" lon="3.59147">
        <ele>558</ele>
        <time>2022-10-28T08:13:49Z</time>
      </trkpt>
      <trkpt lat="44.33129" lon="3.59143">
        <ele>557.8</ele>
        <time>2022-10-28T08:13:50Z</time>
      </trkpt>
      <trkpt lat="44.33132" lon="3.5914">
        <ele>558</ele>
        <time>2022-10-28T08:13:51Z</time>
      </trkpt>
      <trkpt lat="44.33135" lon="3.59137">
        <ele>558</ele>
        <time>2022-10-28T08:13:52Z</time>
      </trkpt>
      <trkpt lat="44.33138" lon="3.59134">
        <ele>558</ele>
        <time>2022-10-28T08:13:53Z</time>
      </trkpt>
      <trkpt lat="44.33141" lon="3.5913">
        <ele>558</ele>
        <time>2022-10-28T08:13:54Z</time>
      </trkpt>
      <trkpt lat="44.33142" lon="3.59127">
        <ele>558</ele>
        <time>2022-10-28T08:13:55Z</time>
      </trkpt>
      <trkpt lat="44.33143" lon="3.59124">
        <ele>558</ele>
        <time>2022-10-28T08:13:56Z</time>
      </trkpt>
      <trkpt lat="44.33143" lon="3.59121">
        <ele>558</ele>
        <time>2022-10-28T08:13:57Z</time>
      </trkpt>
      <trkpt lat="44.33144" lon="3.59118">
        <ele>558</ele>
        <time>2022-10-28T08:13:58Z</time>
      </trkpt>
      <trkpt lat="44.33145" lon="3.59116">
        <ele>558</ele>
        <time>2022-10-28T08:13:59Z</time>
      </trkpt>
      <trkpt lat="44.33146" lon="3.59114">
        <ele>558</ele>
        <time>2022-10-28T08:14:00Z</time>
      </trkpt>
      <trkpt lat="44.33147" lon="3.59112">
        <ele>558</ele>
        <time>2022-10-28T08:14:01Z</time>
      </trkpt>
      <trkpt lat="44.33149" lon="3.5911">
        <ele>558</ele>
        <time>2022-10-28T08:14:02Z</time>
      </trkpt>
      <trkpt lat="44.33153" lon="3.59109">
        <ele>558</ele>
        <time>2022-10-28T08:14:03Z</time>
      </trkpt>
      <trkpt lat="44.33156" lon="3.59108">
        <ele>558.2</ele>
        <time>2022-10-28T08:14:04Z</time>
      </trkpt>
      <trkpt lat="44.33159" lon="3.59107">
        <ele>558.2</ele>
        <time>2022-10-28T08:14:05Z</time>
      </trkpt>
      <trkpt lat="44.33163" lon="3.59105">
        <ele>558.4</ele>
        <time>2022-10-28T08:14:06Z</time>
      </trkpt>
      <trkpt lat="44.33166" lon="3.59102">
        <ele>558.4</ele>
        <time>2022-10-28T08:14:07Z</time>
      </trkpt>
      <trkpt lat="44.33169" lon="3.59099">
        <ele>558.4</ele>
        <time>2022-10-28T08:14:08Z</time>
      </trkpt>
      <trkpt lat="44.33171" lon="3.59094">
        <ele>558.6</ele>
        <time>2022-10-28T08:14:09Z</time>
      </trkpt>
      <trkpt lat="44.33174" lon="3.59089">
        <ele>558.6</ele>
        <time>2022-10-28T08:14:10Z</time>
      </trkpt>
      <trkpt lat="44.33177" lon="3.59084">
        <ele>558.6</ele>
        <time>2022-10-28T08:14:11Z</time>
      </trkpt>
      <trkpt lat="44.3318" lon="3.59078">
        <ele>558.6</ele>
        <time>2022-10-28T08:14:12Z</time>
      </trkpt>
      <trkpt lat="44.33182" lon="3.59072">
        <ele>558.8</ele>
        <time>2022-10-28T08:14:13Z</time>
      </trkpt>
      <trkpt lat="44.33184" lon="3.59067">
        <ele>558.8</ele>
        <time>2022-10-28T08:14:14Z</time>
      </trkpt>
      <trkpt lat="44.33186" lon="3.59061">
        <ele>558.8</ele>
        <time>2022-10-28T08:14:15Z</time>
      </trkpt>
      <trkpt lat="44.33188" lon="3.59056">
        <ele>558.8</ele>
        <time>2022-10-28T08:14:16Z</time>
      </trkpt>
      <trkpt lat="44.33191" lon="3.59051">
        <ele>558.8</ele>
        <time>2022-10-28T08:14:17Z</time>
      </trkpt>
      <trkpt lat="44.33193" lon="3.59046">
        <ele>558.8</ele>
        <time>2022-10-28T08:14:18Z</time>
      </trkpt>
      <trkpt lat="44.33195" lon="3.5904">
        <ele>558.8</ele>
        <time>2022-10-28T08:14:19Z</time>
      </trkpt>
      <trkpt lat="44.33198" lon="3.59034">
        <ele>558.8</ele>
        <time>2022-10-28T08:14:20Z</time>
      </trkpt>
      <trkpt lat="44.332" lon="3.59029">
        <ele>558.8</ele>
        <time>2022-10-28T08:14:21Z</time>
      </trkpt>
      <trkpt lat="44.33202" lon="3.59023">
        <ele>558.8</ele>
        <time>2022-10-28T08:14:22Z</time>
      </trkpt>
      <trkpt lat="44.33205" lon="3.59018">
        <ele>558.8</ele>
        <time>2022-10-28T08:14:23Z</time>
      </trkpt>
      <trkpt lat="44.33208" lon="3.59012">
        <ele>558.8</ele>
        <time>2022-10-28T08:14:24Z</time>
      </trkpt>
      <trkpt lat="44.3321" lon="3.59007">
        <ele>558.8</ele>
        <time>2022-10-28T08:14:25Z</time>
      </trkpt>
      <trkpt lat="44.33213" lon="3.59001">
        <ele>558.8</ele>
        <time>2022-10-28T08:14:26Z</time>
      </trkpt>
      <trkpt lat="44.33215" lon="3.58995">
        <ele>558.8</ele>
        <time>2022-10-28T08:14:27Z</time>
      </trkpt>
      <trkpt lat="44.33218" lon="3.58989">
        <ele>558.8</ele>
        <time>2022-10-28T08:14:28Z</time>
      </trkpt>
      <trkpt lat="44.3322" lon="3.58984">
        <ele>558.8</ele>
        <time>2022-10-28T08:14:29Z</time>
      </trkpt>
      <trkpt lat="44.33222" lon="3.58978">
        <ele>558.8</ele>
        <time>2022-10-28T08:14:30Z</time>
      </trkpt>
      <trkpt lat="44.33224" lon="3.58972">
        <ele>558.8</ele>
        <time>2022-10-28T08:14:31Z</time>
      </trkpt>
      <trkpt lat="44.33227" lon="3.58966">
        <ele>558.8</ele>
        <time>2022-10-28T08:14:32Z</time>
      </trkpt>
      <trkpt lat="44.33229" lon="3.5896">
        <ele>558.8</ele>
        <time>2022-10-28T08:14:33Z</time>
      </trkpt>
      <trkpt lat="44.33232" lon="3.58955">
        <ele>559</ele>
        <time>2022-10-28T08:14:34Z</time>
      </trkpt>
      <trkpt lat="44.33234" lon="3.58948">
        <ele>559</ele>
        <time>2022-10-28T08:14:35Z</time>
      </trkpt>
      <trkpt lat="44.33236" lon="3.58942">
        <ele>559</ele>
        <time>2022-10-28T08:14:36Z</time>
      </trkpt>
      <trkpt lat="44.33238" lon="3.58936">
        <ele>559</ele>
        <time>2022-10-28T08:14:37Z</time>
      </trkpt>
      <trkpt lat="44.33241" lon="3.5893">
        <ele>559</ele>
        <time>2022-10-28T08:14:38Z</time>
      </trkpt>
      <trkpt lat="44.33243" lon="3.58924">
        <ele>559</ele>
        <time>2022-10-28T08:14:39Z</time>
      </trkpt>
      <trkpt lat="44.33245" lon="3.58918">
        <ele>559.2</ele>
        <time>2022-10-28T08:14:40Z</time>
      </trkpt>
      <trkpt lat="44.33247" lon="3.58912">
        <ele>559.2</ele>
        <time>2022-10-28T08:14:41Z</time>
      </trkpt>
      <trkpt lat="44.33249" lon="3.58906">
        <ele>559.2</ele>
        <time>2022-10-28T08:14:42Z</time>
      </trkpt>
      <trkpt lat="44.33251" lon="3.589">
        <ele>559.2</ele>
        <time>2022-10-28T08:14:43Z</time>
      </trkpt>
      <trkpt lat="44.33253" lon="3.58894">
        <ele>559.2</ele>
        <time>2022-10-28T08:14:44Z</time>
      </trkpt>
      <trkpt lat="44.33255" lon="3.58888">
        <ele>559.2</ele>
        <time>2022-10-28T08:14:45Z</time>
      </trkpt>
      <trkpt lat="44.33258" lon="3.58882">
        <ele>559.2</ele>
        <time>2022-10-28T08:14:46Z</time>
      </trkpt>
      <trkpt lat="44.3326" lon="3.58876">
        <ele>559.4</ele>
        <time>2022-10-28T08:14:47Z</time>
      </trkpt>
      <trkpt lat="44.33262" lon="3.5887">
        <ele>559.4</ele>
        <time>2022-10-28T08:14:48Z</time>
      </trkpt>
      <trkpt lat="44.33264" lon="3.58864">
        <ele>559.4</ele>
        <time>2022-10-28T08:14:49Z</time>
      </trkpt>
      <trkpt lat="44.33266" lon="3.58859">
        <ele>559.4</ele>
        <time>2022-10-28T08:14:50Z</time>
      </trkpt>
      <trkpt lat="44.33268" lon="3.58853">
        <ele>559.4</ele>
        <time>2022-10-28T08:14:51Z</time>
      </trkpt>
      <trkpt lat="44.3327" lon="3.58846">
        <ele>559.4</ele>
        <time>2022-10-28T08:14:52Z</time>
      </trkpt>
      <trkpt lat="44.33272" lon="3.58841">
        <ele>559.6</ele>
        <time>2022-10-28T08:14:53Z</time>
      </trkpt>
      <trkpt lat="44.33275" lon="3.58835">
        <ele>559.6</ele>
        <time>2022-10-28T08:14:54Z</time>
      </trkpt>
      <trkpt lat="44.33278" lon="3.58829">
        <ele>559.6</ele>
        <time>2022-10-28T08:14:55Z</time>
      </trkpt>
      <trkpt lat="44.3328" lon="3.58823">
        <ele>559.6</ele>
        <time>2022-10-28T08:14:56Z</time>
      </trkpt>
      <trkpt lat="44.33283" lon="3.58818">
        <ele>559.6</ele>
        <time>2022-10-28T08:14:57Z</time>
      </trkpt>
      <trkpt lat="44.33285" lon="3.58812">
        <ele>559.8</ele>
        <time>2022-10-28T08:14:58Z</time>
      </trkpt>
      <trkpt lat="44.33287" lon="3.58806">
        <ele>559.8</ele>
        <time>2022-10-28T08:14:59Z</time>
      </trkpt>
      <trkpt lat="44.3329" lon="3.58801">
        <ele>559.8</ele>
        <time>2022-10-28T08:15:00Z</time>
      </trkpt>
      <trkpt lat="44.33292" lon="3.58795">
        <ele>559.8</ele>
        <time>2022-10-28T08:15:01Z</time>
      </trkpt>
      <trkpt lat="44.33295" lon="3.58789">
        <ele>559.8</ele>
        <time>2022-10-28T08:15:02Z</time>
      </trkpt>
      <trkpt lat="44.33298" lon="3.58783">
        <ele>559.8</ele>
        <time>2022-10-28T08:15:03Z</time>
      </trkpt>
      <trkpt lat="44.333" lon="3.58778">
        <ele>559.8</ele>
        <time>2022-10-28T08:15:04Z</time>
      </trkpt>
      <trkpt lat="44.33303" lon="3.58772">
        <ele>559.8</ele>
        <time>2022-10-28T08:15:05Z</time>
      </trkpt>
      <trkpt lat="44.33306" lon="3.58766">
        <ele>559.8</ele>
        <time>2022-10-28T08:15:06Z</time>
      </trkpt>
      <trkpt lat="44.33309" lon="3.58761">
        <ele>559.8</ele>
        <time>2022-10-28T08:15:07Z</time>
      </trkpt>
      <trkpt lat="44.33312" lon="3.58755">
        <ele>559.8</ele>
        <time>2022-10-28T08:15:08Z</time>
      </trkpt>
      <trkpt lat="44.33315" lon="3.5875">
        <ele>559.8</ele>
        <time>2022-10-28T08:15:09Z</time>
      </trkpt>
      <trkpt lat="44.33318" lon="3.58744">
        <ele>559.8</ele>
        <time>2022-10-28T08:15:10Z</time>
      </trkpt>
      <trkpt lat="44.33321" lon="3.58739">
        <ele>559.8</ele>
        <time>2022-10-28T08:15:11Z</time>
      </trkpt>
      <trkpt lat="44.33325" lon="3.58734">
        <ele>559.8</ele>
        <time>2022-10-28T08:15:12Z</time>
      </trkpt>
      <trkpt lat="44.33328" lon="3.58729">
        <ele>560</ele>
        <time>2022-10-28T08:15:13Z</time>
      </trkpt>
      <trkpt lat="44.33332" lon="3.58723">
        <ele>560</ele>
        <time>2022-10-28T08:15:14Z</time>
      </trkpt>
      <trkpt lat="44.33335" lon="3.58718">
        <ele>560</ele>
        <time>2022-10-28T08:15:15Z</time>
      </trkpt>
      <trkpt lat="44.33339" lon="3.58713">
        <ele>560</ele>
        <time>2022-10-28T08:15:16Z</time>
      </trkpt>
      <trkpt lat="44.33343" lon="3.58708">
        <ele>560</ele>
        <time>2022-10-28T08:15:17Z</time>
      </trkpt>
      <trkpt lat="44.33347" lon="3.58703">
        <ele>560</ele>
        <time>2022-10-28T08:15:18Z</time>
      </trkpt>
      <trkpt lat="44.3335" lon="3.58699">
        <ele>560</ele>
        <time>2022-10-28T08:15:19Z</time>
      </trkpt>
      <trkpt lat="44.33354" lon="3.58694">
        <ele>560</ele>
        <time>2022-10-28T08:15:20Z</time>
      </trkpt>
      <trkpt lat="44.33358" lon="3.5869">
        <ele>560</ele>
        <time>2022-10-28T08:15:21Z</time>
      </trkpt>
      <trkpt lat="44.33362" lon="3.58685">
        <ele>560</ele>
        <time>2022-10-28T08:15:22Z</time>
      </trkpt>
      <trkpt lat="44.33366" lon="3.58681">
        <ele>560</ele>
        <time>2022-10-28T08:15:23Z</time>
      </trkpt>
      <trkpt lat="44.3337" lon="3.58676">
        <ele>560</ele>
        <time>2022-10-28T08:15:24Z</time>
      </trkpt>
      <trkpt lat="44.33374" lon="3.58672">
        <ele>560</ele>
        <time>2022-10-28T08:15:25Z</time>
      </trkpt>
      <trkpt lat="44.33378" lon="3.58668">
        <ele>560</ele>
        <time>2022-10-28T08:15:26Z</time>
      </trkpt>
      <trkpt lat="44.33382" lon="3.58665">
        <ele>560</ele>
        <time>2022-10-28T08:15:27Z</time>
      </trkpt>
      <trkpt lat="44.33386" lon="3.58661">
        <ele>560</ele>
        <time>2022-10-28T08:15:28Z</time>
      </trkpt>
      <trkpt lat="44.33391" lon="3.58658">
        <ele>560</ele>
        <time>2022-10-28T08:15:29Z</time>
      </trkpt>
      <trkpt lat="44.33395" lon="3.58654">
        <ele>560</ele>
        <time>2022-10-28T08:15:30Z</time>
      </trkpt>
      <trkpt lat="44.33399" lon="3.58651">
        <ele>560</ele>
        <time>2022-10-28T08:15:31Z</time>
      </trkpt>
      <trkpt lat="44.33403" lon="3.58648">
        <ele>560</ele>
        <time>2022-10-28T08:15:32Z</time>
      </trkpt>
      <trkpt lat="44.33408" lon="3.58645">
        <ele>560</ele>
        <time>2022-10-28T08:15:33Z</time>
      </trkpt>
      <trkpt lat="44.33412" lon="3.58643">
        <ele>560</ele>
        <time>2022-10-28T08:15:34Z</time>
      </trkpt>
      <trkpt lat="44.33417" lon="3.5864">
        <ele>560</ele>
        <time>2022-10-28T08:15:35Z</time>
      </trkpt>
      <trkpt lat="44.33421" lon="3.58637">
        <ele>560</ele>
        <time>2022-10-28T08:15:36Z</time>
      </trkpt>
      <trkpt lat="44.33426" lon="3.58634">
        <ele>560</ele>
        <time>2022-10-28T08:15:37Z</time>
      </trkpt>
      <trkpt lat="44.33431" lon="3.58631">
        <ele>560</ele>
        <time>2022-10-28T08:15:38Z</time>
      </trkpt>
      <trkpt lat="44.33435" lon="3.58629">
        <ele>560</ele>
        <time>2022-10-28T08:15:39Z</time>
      </trkpt>
      <trkpt lat="44.3344" lon="3.58626">
        <ele>560</ele>
        <time>2022-10-28T08:15:40Z</time>
      </trkpt>
      <trkpt lat="44.33445" lon="3.58624">
        <ele>560</ele>
        <time>2022-10-28T08:15:41Z</time>
      </trkpt>
      <trkpt lat="44.3345" lon="3.58622">
        <ele>560</ele>
        <time>2022-10-28T08:15:42Z</time>
      </trkpt>
      <trkpt lat="44.33455" lon="3.5862">
        <ele>560</ele>
        <time>2022-10-28T08:15:43Z</time>
      </trkpt>
      <trkpt lat="44.33459" lon="3.58618">
        <ele>560</ele>
        <time>2022-10-28T08:15:44Z</time>
      </trkpt>
      <trkpt lat="44.33464" lon="3.58616">
        <ele>560</ele>
        <time>2022-10-28T08:15:45Z</time>
      </trkpt>
      <trkpt lat="44.33469" lon="3.58615">
        <ele>560</ele>
        <time>2022-10-28T08:15:46Z</time>
      </trkpt>
      <trkpt lat="44.33473" lon="3.58613">
        <ele>559.8</ele>
        <time>2022-10-28T08:15:47Z</time>
      </trkpt>
      <trkpt lat="44.33478" lon="3.58612">
        <ele>560</ele>
        <time>2022-10-28T08:15:48Z</time>
      </trkpt>
      <trkpt lat="44.33483" lon="3.5861">
        <ele>560</ele>
        <time>2022-10-28T08:15:49Z</time>
      </trkpt>
      <trkpt lat="44.33488" lon="3.58609">
        <ele>559.8</ele>
        <time>2022-10-28T08:15:50Z</time>
      </trkpt>
      <trkpt lat="44.33492" lon="3.58608">
        <ele>559.8</ele>
        <time>2022-10-28T08:15:51Z</time>
      </trkpt>
      <trkpt lat="44.33497" lon="3.58607">
        <ele>559.8</ele>
        <time>2022-10-28T08:15:52Z</time>
      </trkpt>
      <trkpt lat="44.33502" lon="3.58607">
        <ele>559.8</ele>
        <time>2022-10-28T08:15:53Z</time>
      </trkpt>
      <trkpt lat="44.33507" lon="3.58606">
        <ele>559.8</ele>
        <time>2022-10-28T08:15:54Z</time>
      </trkpt>
      <trkpt lat="44.33511" lon="3.58606">
        <ele>559.8</ele>
        <time>2022-10-28T08:15:55Z</time>
      </trkpt>
      <trkpt lat="44.33516" lon="3.58605">
        <ele>559.8</ele>
        <time>2022-10-28T08:15:56Z</time>
      </trkpt>
      <trkpt lat="44.3352" lon="3.58604">
        <ele>559.8</ele>
        <time>2022-10-28T08:15:57Z</time>
      </trkpt>
      <trkpt lat="44.33525" lon="3.58604">
        <ele>559.6</ele>
        <time>2022-10-28T08:15:58Z</time>
      </trkpt>
      <trkpt lat="44.3353" lon="3.58603">
        <ele>559.6</ele>
        <time>2022-10-28T08:15:59Z</time>
      </trkpt>
      <trkpt lat="44.33534" lon="3.58603">
        <ele>559.6</ele>
        <time>2022-10-28T08:16:00Z</time>
      </trkpt>
      <trkpt lat="44.33538" lon="3.58603">
        <ele>559.4</ele>
        <time>2022-10-28T08:16:01Z</time>
      </trkpt>
      <trkpt lat="44.33545" lon="3.58604">
        <ele>559.4</ele>
        <time>2022-10-28T08:16:02Z</time>
      </trkpt>
      <trkpt lat="44.33551" lon="3.58604">
        <ele>559.2</ele>
        <time>2022-10-28T08:16:03Z</time>
      </trkpt>
      <trkpt lat="44.33556" lon="3.58605">
        <ele>559.2</ele>
        <time>2022-10-28T08:16:04Z</time>
      </trkpt>
      <trkpt lat="44.33561" lon="3.58605">
        <ele>559</ele>
        <time>2022-10-28T08:16:05Z</time>
      </trkpt>
      <trkpt lat="44.33567" lon="3.58605">
        <ele>559</ele>
        <time>2022-10-28T08:16:06Z</time>
      </trkpt>
      <trkpt lat="44.33572" lon="3.58604">
        <ele>558.8</ele>
        <time>2022-10-28T08:16:07Z</time>
      </trkpt>
      <trkpt lat="44.33576" lon="3.586">
        <ele>558.8</ele>
        <time>2022-10-28T08:16:08Z</time>
      </trkpt>
      <trkpt lat="44.3358" lon="3.58595">
        <ele>558.8</ele>
        <time>2022-10-28T08:16:09Z</time>
      </trkpt>
      <trkpt lat="44.33584" lon="3.58591">
        <ele>558.8</ele>
        <time>2022-10-28T08:16:10Z</time>
      </trkpt>
      <trkpt lat="44.33588" lon="3.5859">
        <ele>558.8</ele>
        <time>2022-10-28T08:16:11Z</time>
      </trkpt>
      <trkpt lat="44.33591" lon="3.58591">
        <ele>558.8</ele>
        <time>2022-10-28T08:16:12Z</time>
      </trkpt>
      <trkpt lat="44.33592" lon="3.58595">
        <ele>558.8</ele>
        <time>2022-10-28T08:16:13Z</time>
      </trkpt>
      <trkpt lat="44.33591" lon="3.58599">
        <ele>559</ele>
        <time>2022-10-28T08:16:14Z</time>
      </trkpt>
      <trkpt lat="44.3359" lon="3.58604">
        <ele>559.2</ele>
        <time>2022-10-28T08:16:15Z</time>
      </trkpt>
      <trkpt lat="44.33588" lon="3.58608">
        <ele>559.2</ele>
        <time>2022-10-28T08:16:16Z</time>
      </trkpt>
      <trkpt lat="44.33586" lon="3.58613">
        <ele>559.4</ele>
        <time>2022-10-28T08:16:17Z</time>
      </trkpt>
      <trkpt lat="44.33584" lon="3.58618">
        <ele>559.4</ele>
        <time>2022-10-28T08:16:18Z</time>
      </trkpt>
      <trkpt lat="44.33585" lon="3.58625">
        <ele>559.4</ele>
        <time>2022-10-28T08:16:19Z</time>
      </trkpt>
      <trkpt lat="44.33586" lon="3.58631">
        <ele>559.4</ele>
        <time>2022-10-28T08:16:20Z</time>
      </trkpt>
      <trkpt lat="44.33588" lon="3.58637">
        <ele>559.2</ele>
        <time>2022-10-28T08:16:21Z</time>
      </trkpt>
      <trkpt lat="44.33591" lon="3.58644">
        <ele>559.2</ele>
        <time>2022-10-28T08:16:22Z</time>
      </trkpt>
      <trkpt lat="44.33593" lon="3.58651">
        <ele>559</ele>
        <time>2022-10-28T08:16:23Z</time>
      </trkpt>
      <trkpt lat="44.33594" lon="3.58659">
        <ele>559</ele>
        <time>2022-10-28T08:16:24Z</time>
      </trkpt>
      <trkpt lat="44.33595" lon="3.58667">
        <ele>558.8</ele>
        <time>2022-10-28T08:16:25Z</time>
      </trkpt>
      <trkpt lat="44.33596" lon="3.58675">
        <ele>558.4</ele>
        <time>2022-10-28T08:16:26Z</time>
      </trkpt>
      <trkpt lat="44.33598" lon="3.58684">
        <ele>558</ele>
        <time>2022-10-28T08:16:27Z</time>
      </trkpt>
      <trkpt lat="44.33601" lon="3.58693">
        <ele>557.6</ele>
        <time>2022-10-28T08:16:28Z</time>
      </trkpt>
      <trkpt lat="44.33606" lon="3.58701">
        <ele>557.4</ele>
        <time>2022-10-28T08:16:29Z</time>
      </trkpt>
      <trkpt lat="44.33611" lon="3.58708">
        <ele>557</ele>
        <time>2022-10-28T08:16:30Z</time>
      </trkpt>
      <trkpt lat="44.33616" lon="3.58714">
        <ele>556.8</ele>
        <time>2022-10-28T08:16:31Z</time>
      </trkpt>
      <trkpt lat="44.33622" lon="3.58718">
        <ele>556.8</ele>
        <time>2022-10-28T08:16:32Z</time>
      </trkpt>
      <trkpt lat="44.33628" lon="3.58723">
        <ele>556.6</ele>
        <time>2022-10-28T08:16:33Z</time>
      </trkpt>
      <trkpt lat="44.33633" lon="3.58727">
        <ele>556.6</ele>
        <time>2022-10-28T08:16:34Z</time>
      </trkpt>
      <trkpt lat="44.33638" lon="3.58731">
        <ele>556.6</ele>
        <time>2022-10-28T08:16:35Z</time>
      </trkpt>
      <trkpt lat="44.33643" lon="3.58735">
        <ele>556.6</ele>
        <time>2022-10-28T08:16:36Z</time>
      </trkpt>
      <trkpt lat="44.33647" lon="3.58739">
        <ele>556.8</ele>
        <time>2022-10-28T08:16:37Z</time>
      </trkpt>
      <trkpt lat="44.33651" lon="3.58742">
        <ele>556.8</ele>
        <time>2022-10-28T08:16:38Z</time>
      </trkpt>
      <trkpt lat="44.33655" lon="3.58744">
        <ele>557</ele>
        <time>2022-10-28T08:16:39Z</time>
      </trkpt>
      <trkpt lat="44.33659" lon="3.58746">
        <ele>557.2</ele>
        <time>2022-10-28T08:16:40Z</time>
      </trkpt>
      <trkpt lat="44.33663" lon="3.58746">
        <ele>557.4</ele>
        <time>2022-10-28T08:16:41Z</time>
      </trkpt>
      <trkpt lat="44.33666" lon="3.58746">
        <ele>557.4</ele>
        <time>2022-10-28T08:16:42Z</time>
      </trkpt>
      <trkpt lat="44.33669" lon="3.58745">
        <ele>557.6</ele>
        <time>2022-10-28T08:16:43Z</time>
      </trkpt>
      <trkpt lat="44.33672" lon="3.58744">
        <ele>557.8</ele>
        <time>2022-10-28T08:16:44Z</time>
      </trkpt>
      <trkpt lat="44.33675" lon="3.58744">
        <ele>557.8</ele>
        <time>2022-10-28T08:16:45Z</time>
      </trkpt>
      <trkpt lat="44.33678" lon="3.58743">
        <ele>558</ele>
        <time>2022-10-28T08:16:46Z</time>
      </trkpt>
      <trkpt lat="44.33681" lon="3.58743">
        <ele>558</ele>
        <time>2022-10-28T08:16:47Z</time>
      </trkpt>
      <trkpt lat="44.33683" lon="3.58742">
        <ele>558.2</ele>
        <time>2022-10-28T08:16:48Z</time>
      </trkpt>
      <trkpt lat="44.33685" lon="3.58742">
        <ele>558.2</ele>
        <time>2022-10-28T08:16:49Z</time>
      </trkpt>
      <trkpt lat="44.33686" lon="3.58742">
        <ele>558.2</ele>
        <time>2022-10-28T08:16:50Z</time>
      </trkpt>
      <trkpt lat="44.33687" lon="3.58743">
        <ele>558.2</ele>
        <time>2022-10-28T08:16:51Z</time>
      </trkpt>
      <trkpt lat="44.33687" lon="3.58744">
        <ele>558.4</ele>
        <time>2022-10-28T08:16:52Z</time>
      </trkpt>
      <trkpt lat="44.33688" lon="3.58743">
        <ele>558.4</ele>
        <time>2022-10-28T08:16:58Z</time>
      </trkpt>
      <trkpt lat="44.33689" lon="3.58742">
        <ele>558.4</ele>
        <time>2022-10-28T08:16:59Z</time>
      </trkpt>
      <trkpt lat="44.3369" lon="3.5874">
        <ele>558.4</ele>
        <time>2022-10-28T08:17:00Z</time>
      </trkpt>
      <trkpt lat="44.33692" lon="3.5874">
        <ele>558.6</ele>
        <time>2022-10-28T08:17:01Z</time>
      </trkpt>
      <trkpt lat="44.33695" lon="3.58739">
        <ele>558.6</ele>
        <time>2022-10-28T08:17:02Z</time>
      </trkpt>
      <trkpt lat="44.33699" lon="3.58739">
        <ele>558.6</ele>
        <time>2022-10-28T08:17:03Z</time>
      </trkpt>
      <trkpt lat="44.33702" lon="3.58739">
        <ele>558.6</ele>
        <time>2022-10-28T08:17:04Z</time>
      </trkpt>
      <trkpt lat="44.33705" lon="3.58738">
        <ele>558.8</ele>
        <time>2022-10-28T08:17:05Z</time>
      </trkpt>
      <trkpt lat="44.33709" lon="3.58738">
        <ele>558.8</ele>
        <time>2022-10-28T08:17:06Z</time>
      </trkpt>
      <trkpt lat="44.33712" lon="3.58737">
        <ele>559</ele>
        <time>2022-10-28T08:17:07Z</time>
      </trkpt>
      <trkpt lat="44.33716" lon="3.58737">
        <ele>559</ele>
        <time>2022-10-28T08:17:08Z</time>
      </trkpt>
      <trkpt lat="44.33719" lon="3.58736">
        <ele>559.2</ele>
        <time>2022-10-28T08:17:09Z</time>
      </trkpt>
      <trkpt lat="44.33723" lon="3.58734">
        <ele>559.2</ele>
        <time>2022-10-28T08:17:10Z</time>
      </trkpt>
      <trkpt lat="44.33727" lon="3.58733">
        <ele>559.4</ele>
        <time>2022-10-28T08:17:11Z</time>
      </trkpt>
      <trkpt lat="44.3373" lon="3.58733">
        <ele>559.6</ele>
        <time>2022-10-28T08:17:12Z</time>
      </trkpt>
      <trkpt lat="44.33734" lon="3.58732">
        <ele>559.6</ele>
        <time>2022-10-28T08:17:13Z</time>
      </trkpt>
      <trkpt lat="44.33737" lon="3.58731">
        <ele>559.8</ele>
        <time>2022-10-28T08:17:14Z</time>
      </trkpt>
      <trkpt lat="44.33741" lon="3.5873">
        <ele>560</ele>
        <time>2022-10-28T08:17:15Z</time>
      </trkpt>
      <trkpt lat="44.33744" lon="3.58729">
        <ele>560</ele>
        <time>2022-10-28T08:17:16Z</time>
      </trkpt>
      <trkpt lat="44.33748" lon="3.58729">
        <ele>560.2</ele>
        <time>2022-10-28T08:17:17Z</time>
      </trkpt>
      <trkpt lat="44.33751" lon="3.58727">
        <ele>560.4</ele>
        <time>2022-10-28T08:17:18Z</time>
      </trkpt>
      <trkpt lat="44.33754" lon="3.58726">
        <ele>560.4</ele>
        <time>2022-10-28T08:17:19Z</time>
      </trkpt>
      <trkpt lat="44.33757" lon="3.58725">
        <ele>560.6</ele>
        <time>2022-10-28T08:17:20Z</time>
      </trkpt>
      <trkpt lat="44.3376" lon="3.58724">
        <ele>560.8</ele>
        <time>2022-10-28T08:17:21Z</time>
      </trkpt>
      <trkpt lat="44.33764" lon="3.58723">
        <ele>560.8</ele>
        <time>2022-10-28T08:17:22Z</time>
      </trkpt>
      <trkpt lat="44.33767" lon="3.58721">
        <ele>561</ele>
        <time>2022-10-28T08:17:23Z</time>
      </trkpt>
      <trkpt lat="44.3377" lon="3.5872">
        <ele>561.2</ele>
        <time>2022-10-28T08:17:24Z</time>
      </trkpt>
      <trkpt lat="44.33773" lon="3.58718">
        <ele>561.2</ele>
        <time>2022-10-28T08:17:25Z</time>
      </trkpt>
      <trkpt lat="44.33776" lon="3.58717">
        <ele>561.4</ele>
        <time>2022-10-28T08:17:26Z</time>
      </trkpt>
      <trkpt lat="44.33779" lon="3.58717">
        <ele>561.6</ele>
        <time>2022-10-28T08:17:27Z</time>
      </trkpt>
      <trkpt lat="44.33783" lon="3.58718">
        <ele>561.6</ele>
        <time>2022-10-28T08:17:28Z</time>
      </trkpt>
      <trkpt lat="44.33786" lon="3.5872">
        <ele>561.8</ele>
        <time>2022-10-28T08:17:29Z</time>
      </trkpt>
      <trkpt lat="44.33789" lon="3.58723">
        <ele>562</ele>
        <time>2022-10-28T08:17:30Z</time>
      </trkpt>
      <trkpt lat="44.33792" lon="3.58725">
        <ele>562.2</ele>
        <time>2022-10-28T08:17:31Z</time>
      </trkpt>
      <trkpt lat="44.33794" lon="3.58728">
        <ele>562.4</ele>
        <time>2022-10-28T08:17:32Z</time>
      </trkpt>
      <trkpt lat="44.33797" lon="3.5873">
        <ele>562.6</ele>
        <time>2022-10-28T08:17:33Z</time>
      </trkpt>
      <trkpt lat="44.338" lon="3.58732">
        <ele>562.6</ele>
        <time>2022-10-28T08:17:34Z</time>
      </trkpt>
      <trkpt lat="44.33802" lon="3.58734">
        <ele>562.8</ele>
        <time>2022-10-28T08:17:35Z</time>
      </trkpt>
      <trkpt lat="44.33805" lon="3.58737">
        <ele>563</ele>
        <time>2022-10-28T08:17:36Z</time>
      </trkpt>
      <trkpt lat="44.33808" lon="3.58739">
        <ele>563.2</ele>
        <time>2022-10-28T08:17:37Z</time>
      </trkpt>
      <trkpt lat="44.33811" lon="3.58742">
        <ele>563.4</ele>
        <time>2022-10-28T08:17:38Z</time>
      </trkpt>
      <trkpt lat="44.33814" lon="3.58744">
        <ele>563.6</ele>
        <time>2022-10-28T08:17:39Z</time>
      </trkpt>
      <trkpt lat="44.33817" lon="3.58747">
        <ele>563.8</ele>
        <time>2022-10-28T08:17:40Z</time>
      </trkpt>
      <trkpt lat="44.3382" lon="3.58749">
        <ele>564</ele>
        <time>2022-10-28T08:17:41Z</time>
      </trkpt>
      <trkpt lat="44.33823" lon="3.58752">
        <ele>564.4</ele>
        <time>2022-10-28T08:17:42Z</time>
      </trkpt>
      <trkpt lat="44.33826" lon="3.58754">
        <ele>564.6</ele>
        <time>2022-10-28T08:17:43Z</time>
      </trkpt>
      <trkpt lat="44.33829" lon="3.58756">
        <ele>564.8</ele>
        <time>2022-10-28T08:17:44Z</time>
      </trkpt>
      <trkpt lat="44.33832" lon="3.58759">
        <ele>565</ele>
        <time>2022-10-28T08:17:45Z</time>
      </trkpt>
      <trkpt lat="44.33835" lon="3.58761">
        <ele>565</ele>
        <time>2022-10-28T08:17:46Z</time>
      </trkpt>
      <trkpt lat="44.33837" lon="3.58763">
        <ele>565.2</ele>
        <time>2022-10-28T08:17:47Z</time>
      </trkpt>
      <trkpt lat="44.3384" lon="3.58765">
        <ele>565.4</ele>
        <time>2022-10-28T08:17:48Z</time>
      </trkpt>
      <trkpt lat="44.33843" lon="3.58766">
        <ele>565.6</ele>
        <time>2022-10-28T08:17:49Z</time>
      </trkpt>
      <trkpt lat="44.33845" lon="3.58768">
        <ele>565.8</ele>
        <time>2022-10-28T08:17:50Z</time>
      </trkpt>
      <trkpt lat="44.33847" lon="3.5877">
        <ele>565.8</ele>
        <time>2022-10-28T08:17:51Z</time>
      </trkpt>
      <trkpt lat="44.3385" lon="3.58772">
        <ele>566.2</ele>
        <time>2022-10-28T08:17:52Z</time>
      </trkpt>
      <trkpt lat="44.33853" lon="3.58774">
        <ele>566.4</ele>
        <time>2022-10-28T08:17:53Z</time>
      </trkpt>
      <trkpt lat="44.33855" lon="3.58776">
        <ele>566.4</ele>
        <time>2022-10-28T08:17:54Z</time>
      </trkpt>
      <trkpt lat="44.33857" lon="3.58778">
        <ele>566.6</ele>
        <time>2022-10-28T08:17:55Z</time>
      </trkpt>
      <trkpt lat="44.3386" lon="3.5878">
        <ele>566.8</ele>
        <time>2022-10-28T08:17:56Z</time>
      </trkpt>
      <trkpt lat="44.33862" lon="3.58782">
        <ele>567</ele>
        <time>2022-10-28T08:17:57Z</time>
      </trkpt>
      <trkpt lat="44.33865" lon="3.58784">
        <ele>567.2</ele>
        <time>2022-10-28T08:17:58Z</time>
      </trkpt>
      <trkpt lat="44.33867" lon="3.58786">
        <ele>567.4</ele>
        <time>2022-10-28T08:17:59Z</time>
      </trkpt>
      <trkpt lat="44.33869" lon="3.58788">
        <ele>567.6</ele>
        <time>2022-10-28T08:18:00Z</time>
      </trkpt>
      <trkpt lat="44.33872" lon="3.5879">
        <ele>567.8</ele>
        <time>2022-10-28T08:18:01Z</time>
      </trkpt>
      <trkpt lat="44.33874" lon="3.58792">
        <ele>568</ele>
        <time>2022-10-28T08:18:02Z</time>
      </trkpt>
      <trkpt lat="44.33877" lon="3.58794">
        <ele>568.2</ele>
        <time>2022-10-28T08:18:03Z</time>
      </trkpt>
      <trkpt lat="44.3388" lon="3.58796">
        <ele>568.4</ele>
        <time>2022-10-28T08:18:04Z</time>
      </trkpt>
      <trkpt lat="44.33882" lon="3.58797">
        <ele>568.6</ele>
        <time>2022-10-28T08:18:05Z</time>
      </trkpt>
      <trkpt lat="44.33884" lon="3.58799">
        <ele>568.8</ele>
        <time>2022-10-28T08:18:06Z</time>
      </trkpt>
      <trkpt lat="44.33887" lon="3.58802">
        <ele>569</ele>
        <time>2022-10-28T08:18:07Z</time>
      </trkpt>
      <trkpt lat="44.33889" lon="3.58804">
        <ele>569.2</ele>
        <time>2022-10-28T08:18:08Z</time>
      </trkpt>
      <trkpt lat="44.33892" lon="3.58806">
        <ele>569.4</ele>
        <time>2022-10-28T08:18:09Z</time>
      </trkpt>
      <trkpt lat="44.33894" lon="3.58808">
        <ele>569.6</ele>
        <time>2022-10-28T08:18:10Z</time>
      </trkpt>
      <trkpt lat="44.33897" lon="3.5881">
        <ele>569.8</ele>
        <time>2022-10-28T08:18:11Z</time>
      </trkpt>
      <trkpt lat="44.33899" lon="3.58813">
        <ele>570</ele>
        <time>2022-10-28T08:18:12Z</time>
      </trkpt>
      <trkpt lat="44.33901" lon="3.58815">
        <ele>570.2</ele>
        <time>2022-10-28T08:18:13Z</time>
      </trkpt>
      <trkpt lat="44.33904" lon="3.58817">
        <ele>570.4</ele>
        <time>2022-10-28T08:18:14Z</time>
      </trkpt>
      <trkpt lat="44.33906" lon="3.58819">
        <ele>570.6</ele>
        <time>2022-10-28T08:18:15Z</time>
      </trkpt>
      <trkpt lat="44.33908" lon="3.58821">
        <ele>570.8</ele>
        <time>2022-10-28T08:18:16Z</time>
      </trkpt>
      <trkpt lat="44.3391" lon="3.58823">
        <ele>571</ele>
        <time>2022-10-28T08:18:17Z</time>
      </trkpt>
      <trkpt lat="44.33913" lon="3.58825">
        <ele>571.4</ele>
        <time>2022-10-28T08:18:18Z</time>
      </trkpt>
      <trkpt lat="44.33915" lon="3.58828">
        <ele>571.6</ele>
        <time>2022-10-28T08:18:19Z</time>
      </trkpt>
      <trkpt lat="44.33918" lon="3.5883">
        <ele>571.8</ele>
        <time>2022-10-28T08:18:20Z</time>
      </trkpt>
      <trkpt lat="44.3392" lon="3.58832">
        <ele>572</ele>
        <time>2022-10-28T08:18:21Z</time>
      </trkpt>
      <trkpt lat="44.33922" lon="3.58834">
        <ele>572.2</ele>
        <time>2022-10-28T08:18:22Z</time>
      </trkpt>
      <trkpt lat="44.33924" lon="3.58837">
        <ele>572.4</ele>
        <time>2022-10-28T08:18:23Z</time>
      </trkpt>
      <trkpt lat="44.33926" lon="3.58839">
        <ele>572.6</ele>
        <time>2022-10-28T08:18:24Z</time>
      </trkpt>
      <trkpt lat="44.33928" lon="3.58841">
        <ele>572.8</ele>
        <time>2022-10-28T08:18:25Z</time>
      </trkpt>
      <trkpt lat="44.3393" lon="3.58844">
        <ele>573</ele>
        <time>2022-10-28T08:18:26Z</time>
      </trkpt>
      <trkpt lat="44.33932" lon="3.58846">
        <ele>573.2</ele>
        <time>2022-10-28T08:18:27Z</time>
      </trkpt>
      <trkpt lat="44.33934" lon="3.58849">
        <ele>573.4</ele>
        <time>2022-10-28T08:18:28Z</time>
      </trkpt>
      <trkpt lat="44.33936" lon="3.58851">
        <ele>573.6</ele>
        <time>2022-10-28T08:18:29Z</time>
      </trkpt>
      <trkpt lat="44.33938" lon="3.58853">
        <ele>573.8</ele>
        <time>2022-10-28T08:18:30Z</time>
      </trkpt>
      <trkpt lat="44.33939" lon="3.58855">
        <ele>574</ele>
        <time>2022-10-28T08:18:31Z</time>
      </trkpt>
      <trkpt lat="44.33941" lon="3.58858">
        <ele>574.2</ele>
        <time>2022-10-28T08:18:32Z</time>
      </trkpt>
      <trkpt lat="44.33943" lon="3.5886">
        <ele>574.4</ele>
        <time>2022-10-28T08:18:33Z</time>
      </trkpt>
      <trkpt lat="44.33945" lon="3.58862">
        <ele>574.6</ele>
        <time>2022-10-28T08:18:34Z</time>
      </trkpt>
      <trkpt lat="44.33947" lon="3.58865">
        <ele>574.8</ele>
        <time>2022-10-28T08:18:35Z</time>
      </trkpt>
      <trkpt lat="44.33948" lon="3.58867">
        <ele>575</ele>
        <time>2022-10-28T08:18:36Z</time>
      </trkpt>
      <trkpt lat="44.3395" lon="3.58869">
        <ele>575.2</ele>
        <time>2022-10-28T08:18:37Z</time>
      </trkpt>
      <trkpt lat="44.33952" lon="3.58871">
        <ele>575.4</ele>
        <time>2022-10-28T08:18:38Z</time>
      </trkpt>
      <trkpt lat="44.33953" lon="3.58874">
        <ele>575.8</ele>
        <time>2022-10-28T08:18:39Z</time>
      </trkpt>
      <trkpt lat="44.33955" lon="3.58876">
        <ele>576</ele>
        <time>2022-10-28T08:18:40Z</time>
      </trkpt>
      <trkpt lat="44.33956" lon="3.58878">
        <ele>576.2</ele>
        <time>2022-10-28T08:18:41Z</time>
      </trkpt>
      <trkpt lat="44.33958" lon="3.58881">
        <ele>576.4</ele>
        <time>2022-10-28T08:18:42Z</time>
      </trkpt>
      <trkpt lat="44.3396" lon="3.58883">
        <ele>576.6</ele>
        <time>2022-10-28T08:18:43Z</time>
      </trkpt>
      <trkpt lat="44.33962" lon="3.58885">
        <ele>577</ele>
        <time>2022-10-28T08:18:44Z</time>
      </trkpt>
      <trkpt lat="44.33963" lon="3.58887">
        <ele>577.2</ele>
        <time>2022-10-28T08:18:45Z</time>
      </trkpt>
      <trkpt lat="44.33965" lon="3.5889">
        <ele>577.4</ele>
        <time>2022-10-28T08:18:46Z</time>
      </trkpt>
      <trkpt lat="44.33967" lon="3.58892">
        <ele>577.6</ele>
        <time>2022-10-28T08:18:47Z</time>
      </trkpt>
      <trkpt lat="44.33968" lon="3.58894">
        <ele>577.8</ele>
        <time>2022-10-28T08:18:48Z</time>
      </trkpt>
      <trkpt lat="44.3397" lon="3.58896">
        <ele>578</ele>
        <time>2022-10-28T08:18:49Z</time>
      </trkpt>
      <trkpt lat="44.33972" lon="3.58898">
        <ele>578.4</ele>
        <time>2022-10-28T08:18:50Z</time>
      </trkpt>
      <trkpt lat="44.33974" lon="3.589">
        <ele>578.6</ele>
        <time>2022-10-28T08:18:51Z</time>
      </trkpt>
      <trkpt lat="44.33975" lon="3.58903">
        <ele>578.8</ele>
        <time>2022-10-28T08:18:52Z</time>
      </trkpt>
      <trkpt lat="44.33977" lon="3.58905">
        <ele>579</ele>
        <time>2022-10-28T08:18:53Z</time>
      </trkpt>
      <trkpt lat="44.33978" lon="3.58907">
        <ele>579.4</ele>
        <time>2022-10-28T08:18:54Z</time>
      </trkpt>
      <trkpt lat="44.33979" lon="3.58909">
        <ele>579.6</ele>
        <time>2022-10-28T08:18:55Z</time>
      </trkpt>
      <trkpt lat="44.33981" lon="3.58911">
        <ele>579.8</ele>
        <time>2022-10-28T08:18:56Z</time>
      </trkpt>
      <trkpt lat="44.33983" lon="3.58913">
        <ele>580.2</ele>
        <time>2022-10-28T08:18:57Z</time>
      </trkpt>
      <trkpt lat="44.33984" lon="3.58914">
        <ele>580.4</ele>
        <time>2022-10-28T08:18:58Z</time>
      </trkpt>
      <trkpt lat="44.33986" lon="3.58916">
        <ele>580.8</ele>
        <time>2022-10-28T08:18:59Z</time>
      </trkpt>
      <trkpt lat="44.33988" lon="3.58918">
        <ele>581</ele>
        <time>2022-10-28T08:19:00Z</time>
      </trkpt>
      <trkpt lat="44.33989" lon="3.5892">
        <ele>581.2</ele>
        <time>2022-10-28T08:19:01Z</time>
      </trkpt>
      <trkpt lat="44.3399" lon="3.58922">
        <ele>581.6</ele>
        <time>2022-10-28T08:19:02Z</time>
      </trkpt>
      <trkpt lat="44.33992" lon="3.58924">
        <ele>581.8</ele>
        <time>2022-10-28T08:19:03Z</time>
      </trkpt>
      <trkpt lat="44.33993" lon="3.58925">
        <ele>582.2</ele>
        <time>2022-10-28T08:19:04Z</time>
      </trkpt>
      <trkpt lat="44.33994" lon="3.58927">
        <ele>582.4</ele>
        <time>2022-10-28T08:19:05Z</time>
      </trkpt>
      <trkpt lat="44.33995" lon="3.58929">
        <ele>582.8</ele>
        <time>2022-10-28T08:19:06Z</time>
      </trkpt>
      <trkpt lat="44.33997" lon="3.5893">
        <ele>583</ele>
        <time>2022-10-28T08:19:07Z</time>
      </trkpt>
      <trkpt lat="44.33998" lon="3.58932">
        <ele>583.2</ele>
        <time>2022-10-28T08:19:08Z</time>
      </trkpt>
      <trkpt lat="44.33999" lon="3.58934">
        <ele>583.6</ele>
        <time>2022-10-28T08:19:09Z</time>
      </trkpt>
      <trkpt lat="44.34001" lon="3.58936">
        <ele>583.8</ele>
        <time>2022-10-28T08:19:10Z</time>
      </trkpt>
      <trkpt lat="44.34002" lon="3.58938">
        <ele>584.2</ele>
        <time>2022-10-28T08:19:11Z</time>
      </trkpt>
      <trkpt lat="44.34003" lon="3.58939">
        <ele>584.4</ele>
        <time>2022-10-28T08:19:12Z</time>
      </trkpt>
      <trkpt lat="44.34004" lon="3.58941">
        <ele>584.6</ele>
        <time>2022-10-28T08:19:13Z</time>
      </trkpt>
      <trkpt lat="44.34006" lon="3.58943">
        <ele>585</ele>
        <time>2022-10-28T08:19:14Z</time>
      </trkpt>
      <trkpt lat="44.34007" lon="3.58945">
        <ele>585.2</ele>
        <time>2022-10-28T08:19:15Z</time>
      </trkpt>
      <trkpt lat="44.34008" lon="3.58947">
        <ele>585.4</ele>
        <time>2022-10-28T08:19:16Z</time>
      </trkpt>
      <trkpt lat="44.34009" lon="3.58949">
        <ele>585.8</ele>
        <time>2022-10-28T08:19:17Z</time>
      </trkpt>
      <trkpt lat="44.34011" lon="3.58951">
        <ele>586</ele>
        <time>2022-10-28T08:19:18Z</time>
      </trkpt>
      <trkpt lat="44.34012" lon="3.58953">
        <ele>586.2</ele>
        <time>2022-10-28T08:19:19Z</time>
      </trkpt>
      <trkpt lat="44.34013" lon="3.58954">
        <ele>586.4</ele>
        <time>2022-10-28T08:19:20Z</time>
      </trkpt>
      <trkpt lat="44.34015" lon="3.58956">
        <ele>586.8</ele>
        <time>2022-10-28T08:19:21Z</time>
      </trkpt>
      <trkpt lat="44.34016" lon="3.58957">
        <ele>587</ele>
        <time>2022-10-28T08:19:22Z</time>
      </trkpt>
      <trkpt lat="44.34018" lon="3.58959">
        <ele>587.2</ele>
        <time>2022-10-28T08:19:23Z</time>
      </trkpt>
      <trkpt lat="44.34019" lon="3.5896">
        <ele>587.6</ele>
        <time>2022-10-28T08:19:24Z</time>
      </trkpt>
      <trkpt lat="44.34021" lon="3.58962">
        <ele>587.8</ele>
        <time>2022-10-28T08:19:25Z</time>
      </trkpt>
      <trkpt lat="44.34022" lon="3.58963">
        <ele>588</ele>
        <time>2022-10-28T08:19:26Z</time>
      </trkpt>
      <trkpt lat="44.34024" lon="3.58964">
        <ele>588.2</ele>
        <time>2022-10-28T08:19:27Z</time>
      </trkpt>
      <trkpt lat="44.34025" lon="3.58966">
        <ele>588.6</ele>
        <time>2022-10-28T08:19:28Z</time>
      </trkpt>
      <trkpt lat="44.34027" lon="3.58967">
        <ele>588.8</ele>
        <time>2022-10-28T08:19:29Z</time>
      </trkpt>
      <trkpt lat="44.34029" lon="3.58967">
        <ele>589</ele>
        <time>2022-10-28T08:19:30Z</time>
      </trkpt>
      <trkpt lat="44.34031" lon="3.58967">
        <ele>589.4</ele>
        <time>2022-10-28T08:19:31Z</time>
      </trkpt>
      <trkpt lat="44.34033" lon="3.58967">
        <ele>589.6</ele>
        <time>2022-10-28T08:19:32Z</time>
      </trkpt>
      <trkpt lat="44.34034" lon="3.58967">
        <ele>590</ele>
        <time>2022-10-28T08:19:33Z</time>
      </trkpt>
      <trkpt lat="44.34036" lon="3.58967">
        <ele>590.2</ele>
        <time>2022-10-28T08:19:34Z</time>
      </trkpt>
      <trkpt lat="44.34038" lon="3.58966">
        <ele>590.6</ele>
        <time>2022-10-28T08:19:35Z</time>
      </trkpt>
      <trkpt lat="44.3404" lon="3.58966">
        <ele>590.8</ele>
        <time>2022-10-28T08:19:36Z</time>
      </trkpt>
      <trkpt lat="44.34041" lon="3.58965">
        <ele>591.2</ele>
        <time>2022-10-28T08:19:37Z</time>
      </trkpt>
      <trkpt lat="44.34043" lon="3.58963">
        <ele>591.4</ele>
        <time>2022-10-28T08:19:38Z</time>
      </trkpt>
      <trkpt lat="44.34044" lon="3.58962">
        <ele>591.8</ele>
        <time>2022-10-28T08:19:39Z</time>
      </trkpt>
      <trkpt lat="44.34045" lon="3.5896">
        <ele>592</ele>
        <time>2022-10-28T08:19:40Z</time>
      </trkpt>
      <trkpt lat="44.34047" lon="3.58959">
        <ele>592.2</ele>
        <time>2022-10-28T08:19:41Z</time>
      </trkpt>
      <trkpt lat="44.34048" lon="3.58957">
        <ele>592.6</ele>
        <time>2022-10-28T08:19:42Z</time>
      </trkpt>
      <trkpt lat="44.34049" lon="3.58955">
        <ele>592.8</ele>
        <time>2022-10-28T08:19:43Z</time>
      </trkpt>
      <trkpt lat="44.3405" lon="3.58954">
        <ele>593</ele>
        <time>2022-10-28T08:19:44Z</time>
      </trkpt>
      <trkpt lat="44.34051" lon="3.58952">
        <ele>593.2</ele>
        <time>2022-10-28T08:19:45Z</time>
      </trkpt>
      <trkpt lat="44.34052" lon="3.5895">
        <ele>593.6</ele>
        <time>2022-10-28T08:19:46Z</time>
      </trkpt>
      <trkpt lat="44.34053" lon="3.58948">
        <ele>593.8</ele>
        <time>2022-10-28T08:19:47Z</time>
      </trkpt>
      <trkpt lat="44.34054" lon="3.58947">
        <ele>594</ele>
        <time>2022-10-28T08:19:48Z</time>
      </trkpt>
      <trkpt lat="44.34056" lon="3.58945">
        <ele>594.2</ele>
        <time>2022-10-28T08:19:49Z</time>
      </trkpt>
      <trkpt lat="44.34057" lon="3.58943">
        <ele>594.4</ele>
        <time>2022-10-28T08:19:50Z</time>
      </trkpt>
      <trkpt lat="44.34058" lon="3.58942">
        <ele>594.6</ele>
        <time>2022-10-28T08:19:51Z</time>
      </trkpt>
      <trkpt lat="44.3406" lon="3.5894">
        <ele>594.8</ele>
        <time>2022-10-28T08:19:52Z</time>
      </trkpt>
      <trkpt lat="44.34061" lon="3.58939">
        <ele>595</ele>
        <time>2022-10-28T08:19:53Z</time>
      </trkpt>
      <trkpt lat="44.34061" lon="3.58937">
        <ele>595.4</ele>
        <time>2022-10-28T08:19:54Z</time>
      </trkpt>
      <trkpt lat="44.34062" lon="3.58935">
        <ele>595.6</ele>
        <time>2022-10-28T08:19:55Z</time>
      </trkpt>
      <trkpt lat="44.34063" lon="3.58933">
        <ele>595.8</ele>
        <time>2022-10-28T08:19:56Z</time>
      </trkpt>
      <trkpt lat="44.34064" lon="3.58931">
        <ele>596</ele>
        <time>2022-10-28T08:19:57Z</time>
      </trkpt>
      <trkpt lat="44.34065" lon="3.5893">
        <ele>596.2</ele>
        <time>2022-10-28T08:19:58Z</time>
      </trkpt>
      <trkpt lat="44.34067" lon="3.58928">
        <ele>596.6</ele>
        <time>2022-10-28T08:19:59Z</time>
      </trkpt>
      <trkpt lat="44.34068" lon="3.58927">
        <ele>596.8</ele>
        <time>2022-10-28T08:20:00Z</time>
      </trkpt>
      <trkpt lat="44.34069" lon="3.58925">
        <ele>597</ele>
        <time>2022-10-28T08:20:01Z</time>
      </trkpt>
      <trkpt lat="44.3407" lon="3.58923">
        <ele>597.2</ele>
        <time>2022-10-28T08:20:02Z</time>
      </trkpt>
      <trkpt lat="44.34071" lon="3.58922">
        <ele>597.4</ele>
        <time>2022-10-28T08:20:03Z</time>
      </trkpt>
      <trkpt lat="44.34072" lon="3.5892">
        <ele>597.8</ele>
        <time>2022-10-28T08:20:04Z</time>
      </trkpt>
      <trkpt lat="44.34073" lon="3.58918">
        <ele>598</ele>
        <time>2022-10-28T08:20:05Z</time>
      </trkpt>
      <trkpt lat="44.34074" lon="3.58917">
        <ele>598.2</ele>
        <time>2022-10-28T08:20:06Z</time>
      </trkpt>
      <trkpt lat="44.34075" lon="3.58915">
        <ele>598.6</ele>
        <time>2022-10-28T08:20:07Z</time>
      </trkpt>
      <trkpt lat="44.34076" lon="3.58913">
        <ele>598.8</ele>
        <time>2022-10-28T08:20:08Z</time>
      </trkpt>
      <trkpt lat="44.34077" lon="3.58912">
        <ele>599.2</ele>
        <time>2022-10-28T08:20:09Z</time>
      </trkpt>
      <trkpt lat="44.34078" lon="3.5891">
        <ele>599.4</ele>
        <time>2022-10-28T08:20:10Z</time>
      </trkpt>
      <trkpt lat="44.34079" lon="3.58909">
        <ele>599.8</ele>
        <time>2022-10-28T08:20:11Z</time>
      </trkpt>
      <trkpt lat="44.3408" lon="3.58907">
        <ele>600</ele>
        <time>2022-10-28T08:20:12Z</time>
      </trkpt>
      <trkpt lat="44.34081" lon="3.58905">
        <ele>600.2</ele>
        <time>2022-10-28T08:20:13Z</time>
      </trkpt>
      <trkpt lat="44.34082" lon="3.58903">
        <ele>600.6</ele>
        <time>2022-10-28T08:20:14Z</time>
      </trkpt>
      <trkpt lat="44.34083" lon="3.58902">
        <ele>600.8</ele>
        <time>2022-10-28T08:20:15Z</time>
      </trkpt>
      <trkpt lat="44.34084" lon="3.589">
        <ele>601</ele>
        <time>2022-10-28T08:20:16Z</time>
      </trkpt>
      <trkpt lat="44.34085" lon="3.58899">
        <ele>601.2</ele>
        <time>2022-10-28T08:20:17Z</time>
      </trkpt>
      <trkpt lat="44.34086" lon="3.58897">
        <ele>601.4</ele>
        <time>2022-10-28T08:20:18Z</time>
      </trkpt>
      <trkpt lat="44.34087" lon="3.58896">
        <ele>601.6</ele>
        <time>2022-10-28T08:20:19Z</time>
      </trkpt>
      <trkpt lat="44.34088" lon="3.58894">
        <ele>602</ele>
        <time>2022-10-28T08:20:20Z</time>
      </trkpt>
      <trkpt lat="44.34089" lon="3.58892">
        <ele>602.2</ele>
        <time>2022-10-28T08:20:21Z</time>
      </trkpt>
      <trkpt lat="44.3409" lon="3.58891">
        <ele>602.4</ele>
        <time>2022-10-28T08:20:22Z</time>
      </trkpt>
      <trkpt lat="44.34091" lon="3.58889">
        <ele>602.6</ele>
        <time>2022-10-28T08:20:23Z</time>
      </trkpt>
      <trkpt lat="44.34092" lon="3.58887">
        <ele>602.8</ele>
        <time>2022-10-28T08:20:24Z</time>
      </trkpt>
      <trkpt lat="44.34093" lon="3.58886">
        <ele>603</ele>
        <time>2022-10-28T08:20:25Z</time>
      </trkpt>
      <trkpt lat="44.34094" lon="3.58884">
        <ele>603.4</ele>
        <time>2022-10-28T08:20:26Z</time>
      </trkpt>
      <trkpt lat="44.34096" lon="3.58883">
        <ele>603.6</ele>
        <time>2022-10-28T08:20:27Z</time>
      </trkpt>
      <trkpt lat="44.34097" lon="3.58882">
        <ele>603.8</ele>
        <time>2022-10-28T08:20:28Z</time>
      </trkpt>
      <trkpt lat="44.34098" lon="3.5888">
        <ele>604</ele>
        <time>2022-10-28T08:20:29Z</time>
      </trkpt>
      <trkpt lat="44.34099" lon="3.58879">
        <ele>604.2</ele>
        <time>2022-10-28T08:20:30Z</time>
      </trkpt>
      <trkpt lat="44.341" lon="3.58877">
        <ele>604.4</ele>
        <time>2022-10-28T08:20:31Z</time>
      </trkpt>
      <trkpt lat="44.34101" lon="3.58875">
        <ele>604.8</ele>
        <time>2022-10-28T08:20:32Z</time>
      </trkpt>
      <trkpt lat="44.34102" lon="3.58874">
        <ele>605</ele>
        <time>2022-10-28T08:20:33Z</time>
      </trkpt>
      <trkpt lat="44.34104" lon="3.58873">
        <ele>605.2</ele>
        <time>2022-10-28T08:20:34Z</time>
      </trkpt>
      <trkpt lat="44.34105" lon="3.58871">
        <ele>605.4</ele>
        <time>2022-10-28T08:20:35Z</time>
      </trkpt>
      <trkpt lat="44.34107" lon="3.5887">
        <ele>605.6</ele>
        <time>2022-10-28T08:20:36Z</time>
      </trkpt>
      <trkpt lat="44.34108" lon="3.58869">
        <ele>605.8</ele>
        <time>2022-10-28T08:20:37Z</time>
      </trkpt>
      <trkpt lat="44.3411" lon="3.58868">
        <ele>606</ele>
        <time>2022-10-28T08:20:38Z</time>
      </trkpt>
      <trkpt lat="44.34111" lon="3.58866">
        <ele>606.2</ele>
        <time>2022-10-28T08:20:39Z</time>
      </trkpt>
      <trkpt lat="44.34112" lon="3.58865">
        <ele>606.4</ele>
        <time>2022-10-28T08:20:40Z</time>
      </trkpt>
      <trkpt lat="44.34114" lon="3.58864">
        <ele>606.6</ele>
        <time>2022-10-28T08:20:41Z</time>
      </trkpt>
      <trkpt lat="44.34115" lon="3.58863">
        <ele>607</ele>
        <time>2022-10-28T08:20:42Z</time>
      </trkpt>
      <trkpt lat="44.34117" lon="3.58862">
        <ele>607.2</ele>
        <time>2022-10-28T08:20:43Z</time>
      </trkpt>
      <trkpt lat="44.34118" lon="3.5886">
        <ele>607.4</ele>
        <time>2022-10-28T08:20:44Z</time>
      </trkpt>
      <trkpt lat="44.3412" lon="3.58859">
        <ele>607.6</ele>
        <time>2022-10-28T08:20:45Z</time>
      </trkpt>
      <trkpt lat="44.34121" lon="3.58858">
        <ele>607.8</ele>
        <time>2022-10-28T08:20:46Z</time>
      </trkpt>
      <trkpt lat="44.34123" lon="3.58857">
        <ele>608</ele>
        <time>2022-10-28T08:20:47Z</time>
      </trkpt>
      <trkpt lat="44.34124" lon="3.58856">
        <ele>608.2</ele>
        <time>2022-10-28T08:20:48Z</time>
      </trkpt>
      <trkpt lat="44.34125" lon="3.58854">
        <ele>608.6</ele>
        <time>2022-10-28T08:20:49Z</time>
      </trkpt>
      <trkpt lat="44.34127" lon="3.58853">
        <ele>608.8</ele>
        <time>2022-10-28T08:20:50Z</time>
      </trkpt>
      <trkpt lat="44.34128" lon="3.58852">
        <ele>609</ele>
        <time>2022-10-28T08:20:51Z</time>
      </trkpt>
      <trkpt lat="44.34129" lon="3.5885">
        <ele>609.2</ele>
        <time>2022-10-28T08:20:52Z</time>
      </trkpt>
      <trkpt lat="44.34131" lon="3.58849">
        <ele>609.6</ele>
        <time>2022-10-28T08:20:53Z</time>
      </trkpt>
      <trkpt lat="44.34132" lon="3.58848">
        <ele>609.8</ele>
        <time>2022-10-28T08:20:54Z</time>
      </trkpt>
      <trkpt lat="44.34133" lon="3.58847">
        <ele>610</ele>
        <time>2022-10-28T08:20:55Z</time>
      </trkpt>
      <trkpt lat="44.34135" lon="3.58845">
        <ele>610.2</ele>
        <time>2022-10-28T08:20:56Z</time>
      </trkpt>
      <trkpt lat="44.34136" lon="3.58844">
        <ele>610.4</ele>
        <time>2022-10-28T08:20:57Z</time>
      </trkpt>
      <trkpt lat="44.34138" lon="3.58843">
        <ele>610.6</ele>
        <time>2022-10-28T08:20:58Z</time>
      </trkpt>
      <trkpt lat="44.34139" lon="3.58842">
        <ele>611</ele>
        <time>2022-10-28T08:20:59Z</time>
      </trkpt>
      <trkpt lat="44.34141" lon="3.58841">
        <ele>611.2</ele>
        <time>2022-10-28T08:21:00Z</time>
      </trkpt>
      <trkpt lat="44.34142" lon="3.5884">
        <ele>611.4</ele>
        <time>2022-10-28T08:21:01Z</time>
      </trkpt>
      <trkpt lat="44.34143" lon="3.58838">
        <ele>611.6</ele>
        <time>2022-10-28T08:21:02Z</time>
      </trkpt>
      <trkpt lat="44.34144" lon="3.58837">
        <ele>611.8</ele>
        <time>2022-10-28T08:21:03Z</time>
      </trkpt>
      <trkpt lat="44.34145" lon="3.58836">
        <ele>612.2</ele>
        <time>2022-10-28T08:21:04Z</time>
      </trkpt>
      <trkpt lat="44.34147" lon="3.58835">
        <ele>612.4</ele>
        <time>2022-10-28T08:21:05Z</time>
      </trkpt>
      <trkpt lat="44.34148" lon="3.58834">
        <ele>612.6</ele>
        <time>2022-10-28T08:21:06Z</time>
      </trkpt>
      <trkpt lat="44.34149" lon="3.58833">
        <ele>612.8</ele>
        <time>2022-10-28T08:21:07Z</time>
      </trkpt>
      <trkpt lat="44.34151" lon="3.58831">
        <ele>613</ele>
        <time>2022-10-28T08:21:08Z</time>
      </trkpt>
      <trkpt lat="44.34152" lon="3.5883">
        <ele>613.2</ele>
        <time>2022-10-28T08:21:09Z</time>
      </trkpt>
      <trkpt lat="44.34154" lon="3.58829">
        <ele>613.4</ele>
        <time>2022-10-28T08:21:10Z</time>
      </trkpt>
      <trkpt lat="44.34155" lon="3.58828">
        <ele>613.6</ele>
        <time>2022-10-28T08:21:11Z</time>
      </trkpt>
      <trkpt lat="44.34156" lon="3.58826">
        <ele>613.8</ele>
        <time>2022-10-28T08:21:12Z</time>
      </trkpt>
      <trkpt lat="44.34158" lon="3.58825">
        <ele>614</ele>
        <time>2022-10-28T08:21:13Z</time>
      </trkpt>
      <trkpt lat="44.34159" lon="3.58823">
        <ele>614.2</ele>
        <time>2022-10-28T08:21:14Z</time>
      </trkpt>
      <trkpt lat="44.34161" lon="3.58822">
        <ele>614.6</ele>
        <time>2022-10-28T08:21:15Z</time>
      </trkpt>
      <trkpt lat="44.34162" lon="3.58821">
        <ele>614.8</ele>
        <time>2022-10-28T08:21:16Z</time>
      </trkpt>
      <trkpt lat="44.34164" lon="3.5882">
        <ele>615</ele>
        <time>2022-10-28T08:21:17Z</time>
      </trkpt>
      <trkpt lat="44.34165" lon="3.58818">
        <ele>615.2</ele>
        <time>2022-10-28T08:21:18Z</time>
      </trkpt>
      <trkpt lat="44.34167" lon="3.58817">
        <ele>615.4</ele>
        <time>2022-10-28T08:21:19Z</time>
      </trkpt>
      <trkpt lat="44.34168" lon="3.58816">
        <ele>615.6</ele>
        <time>2022-10-28T08:21:20Z</time>
      </trkpt>
      <trkpt lat="44.3417" lon="3.58815">
        <ele>615.8</ele>
        <time>2022-10-28T08:21:21Z</time>
      </trkpt>
      <trkpt lat="44.34171" lon="3.58813">
        <ele>616.2</ele>
        <time>2022-10-28T08:21:22Z</time>
      </trkpt>
      <trkpt lat="44.34172" lon="3.58812">
        <ele>616.4</ele>
        <time>2022-10-28T08:21:23Z</time>
      </trkpt>
      <trkpt lat="44.34173" lon="3.58811">
        <ele>616.6</ele>
        <time>2022-10-28T08:21:24Z</time>
      </trkpt>
      <trkpt lat="44.34175" lon="3.5881">
        <ele>616.8</ele>
        <time>2022-10-28T08:21:25Z</time>
      </trkpt>
      <trkpt lat="44.34177" lon="3.58808">
        <ele>617</ele>
        <time>2022-10-28T08:21:26Z</time>
      </trkpt>
      <trkpt lat="44.34178" lon="3.58807">
        <ele>617.2</ele>
        <time>2022-10-28T08:21:27Z</time>
      </trkpt>
      <trkpt lat="44.34179" lon="3.58806">
        <ele>617.4</ele>
        <time>2022-10-28T08:21:28Z</time>
      </trkpt>
      <trkpt lat="44.34181" lon="3.58804">
        <ele>617.6</ele>
        <time>2022-10-28T08:21:29Z</time>
      </trkpt>
      <trkpt lat="44.34182" lon="3.58803">
        <ele>617.8</ele>
        <time>2022-10-28T08:21:30Z</time>
      </trkpt>
      <trkpt lat="44.34183" lon="3.58801">
        <ele>618</ele>
        <time>2022-10-28T08:21:31Z</time>
      </trkpt>
      <trkpt lat="44.34185" lon="3.588">
        <ele>618</ele>
        <time>2022-10-28T08:21:32Z</time>
      </trkpt>
      <trkpt lat="44.34187" lon="3.58799">
        <ele>618.2</ele>
        <time>2022-10-28T08:21:33Z</time>
      </trkpt>
      <trkpt lat="44.34188" lon="3.58797">
        <ele>618.4</ele>
        <time>2022-10-28T08:21:34Z</time>
      </trkpt>
      <trkpt lat="44.34189" lon="3.58796">
        <ele>618.6</ele>
        <time>2022-10-28T08:21:35Z</time>
      </trkpt>
      <trkpt lat="44.34191" lon="3.58795">
        <ele>618.8</ele>
        <time>2022-10-28T08:21:36Z</time>
      </trkpt>
      <trkpt lat="44.34192" lon="3.58793">
        <ele>619</ele>
        <time>2022-10-28T08:21:37Z</time>
      </trkpt>
      <trkpt lat="44.34194" lon="3.58792">
        <ele>619.2</ele>
        <time>2022-10-28T08:21:38Z</time>
      </trkpt>
      <trkpt lat="44.34195" lon="3.58791">
        <ele>619.4</ele>
        <time>2022-10-28T08:21:39Z</time>
      </trkpt>
      <trkpt lat="44.34196" lon="3.5879">
        <ele>619.6</ele>
        <time>2022-10-28T08:21:40Z</time>
      </trkpt>
      <trkpt lat="44.34198" lon="3.58788">
        <ele>620</ele>
        <time>2022-10-28T08:21:41Z</time>
      </trkpt>
      <trkpt lat="44.34199" lon="3.58787">
        <ele>620.2</ele>
        <time>2022-10-28T08:21:42Z</time>
      </trkpt>
      <trkpt lat="44.34201" lon="3.58786">
        <ele>620.4</ele>
        <time>2022-10-28T08:21:43Z</time>
      </trkpt>
      <trkpt lat="44.34202" lon="3.58785">
        <ele>620.6</ele>
        <time>2022-10-28T08:21:44Z</time>
      </trkpt>
      <trkpt lat="44.34204" lon="3.58783">
        <ele>620.8</ele>
        <time>2022-10-28T08:21:45Z</time>
      </trkpt>
      <trkpt lat="44.34206" lon="3.58782">
        <ele>621</ele>
        <time>2022-10-28T08:21:46Z</time>
      </trkpt>
      <trkpt lat="44.34207" lon="3.58781">
        <ele>621.2</ele>
        <time>2022-10-28T08:21:47Z</time>
      </trkpt>
      <trkpt lat="44.34208" lon="3.5878">
        <ele>621.4</ele>
        <time>2022-10-28T08:21:48Z</time>
      </trkpt>
      <trkpt lat="44.3421" lon="3.58778">
        <ele>621.6</ele>
        <time>2022-10-28T08:21:49Z</time>
      </trkpt>
      <trkpt lat="44.34211" lon="3.58777">
        <ele>621.8</ele>
        <time>2022-10-28T08:21:50Z</time>
      </trkpt>
      <trkpt lat="44.34212" lon="3.58775">
        <ele>622</ele>
        <time>2022-10-28T08:21:51Z</time>
      </trkpt>
      <trkpt lat="44.34214" lon="3.58774">
        <ele>622.2</ele>
        <time>2022-10-28T08:21:52Z</time>
      </trkpt>
      <trkpt lat="44.34216" lon="3.58773">
        <ele>622.2</ele>
        <time>2022-10-28T08:21:53Z</time>
      </trkpt>
      <trkpt lat="44.34217" lon="3.58772">
        <ele>622.4</ele>
        <time>2022-10-28T08:21:54Z</time>
      </trkpt>
      <trkpt lat="44.34219" lon="3.5877">
        <ele>622.6</ele>
        <time>2022-10-28T08:21:55Z</time>
      </trkpt>
      <trkpt lat="44.3422" lon="3.58769">
        <ele>622.8</ele>
        <time>2022-10-28T08:21:56Z</time>
      </trkpt>
      <trkpt lat="44.34222" lon="3.58768">
        <ele>623</ele>
        <time>2022-10-28T08:21:57Z</time>
      </trkpt>
      <trkpt lat="44.34223" lon="3.58766">
        <ele>623.2</ele>
        <time>2022-10-28T08:21:58Z</time>
      </trkpt>
      <trkpt lat="44.34224" lon="3.58764">
        <ele>623.4</ele>
        <time>2022-10-28T08:21:59Z</time>
      </trkpt>
      <trkpt lat="44.34226" lon="3.58763">
        <ele>623.6</ele>
        <time>2022-10-28T08:22:00Z</time>
      </trkpt>
      <trkpt lat="44.34227" lon="3.58761">
        <ele>623.8</ele>
        <time>2022-10-28T08:22:01Z</time>
      </trkpt>
      <trkpt lat="44.34228" lon="3.5876">
        <ele>624</ele>
        <time>2022-10-28T08:22:02Z</time>
      </trkpt>
      <trkpt lat="44.3423" lon="3.58758">
        <ele>624.2</ele>
        <time>2022-10-28T08:22:03Z</time>
      </trkpt>
      <trkpt lat="44.34231" lon="3.58757">
        <ele>624.4</ele>
        <time>2022-10-28T08:22:04Z</time>
      </trkpt>
      <trkpt lat="44.34232" lon="3.58756">
        <ele>624.6</ele>
        <time>2022-10-28T08:22:05Z</time>
      </trkpt>
      <trkpt lat="44.34233" lon="3.58754">
        <ele>624.8</ele>
        <time>2022-10-28T08:22:06Z</time>
      </trkpt>
      <trkpt lat="44.34234" lon="3.58752">
        <ele>625</ele>
        <time>2022-10-28T08:22:07Z</time>
      </trkpt>
      <trkpt lat="44.34236" lon="3.58751">
        <ele>625.2</ele>
        <time>2022-10-28T08:22:08Z</time>
      </trkpt>
      <trkpt lat="44.34237" lon="3.58749">
        <ele>625.4</ele>
        <time>2022-10-28T08:22:09Z</time>
      </trkpt>
      <trkpt lat="44.34238" lon="3.58747">
        <ele>625.6</ele>
        <time>2022-10-28T08:22:10Z</time>
      </trkpt>
      <trkpt lat="44.3424" lon="3.58746">
        <ele>625.8</ele>
        <time>2022-10-28T08:22:11Z</time>
      </trkpt>
      <trkpt lat="44.34241" lon="3.58744">
        <ele>626</ele>
        <time>2022-10-28T08:22:12Z</time>
      </trkpt>
      <trkpt lat="44.34242" lon="3.58742">
        <ele>626.2</ele>
        <time>2022-10-28T08:22:13Z</time>
      </trkpt>
      <trkpt lat="44.34244" lon="3.5874">
        <ele>626.4</ele>
        <time>2022-10-28T08:22:14Z</time>
      </trkpt>
      <trkpt lat="44.34245" lon="3.58739">
        <ele>626.6</ele>
        <time>2022-10-28T08:22:15Z</time>
      </trkpt>
      <trkpt lat="44.34246" lon="3.58737">
        <ele>626.8</ele>
        <time>2022-10-28T08:22:16Z</time>
      </trkpt>
      <trkpt lat="44.34247" lon="3.58735">
        <ele>627</ele>
        <time>2022-10-28T08:22:17Z</time>
      </trkpt>
      <trkpt lat="44.34248" lon="3.58734">
        <ele>627.2</ele>
        <time>2022-10-28T08:22:18Z</time>
      </trkpt>
      <trkpt lat="44.34249" lon="3.58732">
        <ele>627.4</ele>
        <time>2022-10-28T08:22:19Z</time>
      </trkpt>
      <trkpt lat="44.34251" lon="3.5873">
        <ele>627.6</ele>
        <time>2022-10-28T08:22:20Z</time>
      </trkpt>
      <trkpt lat="44.34252" lon="3.58729">
        <ele>627.8</ele>
        <time>2022-10-28T08:22:21Z</time>
      </trkpt>
      <trkpt lat="44.34253" lon="3.58727">
        <ele>628</ele>
        <time>2022-10-28T08:22:22Z</time>
      </trkpt>
      <trkpt lat="44.34255" lon="3.58725">
        <ele>628.2</ele>
        <time>2022-10-28T08:22:23Z</time>
      </trkpt>
      <trkpt lat="44.34256" lon="3.58723">
        <ele>628.4</ele>
        <time>2022-10-28T08:22:24Z</time>
      </trkpt>
      <trkpt lat="44.34257" lon="3.58721">
        <ele>628.6</ele>
        <time>2022-10-28T08:22:25Z</time>
      </trkpt>
      <trkpt lat="44.34258" lon="3.58719">
        <ele>628.8</ele>
        <time>2022-10-28T08:22:26Z</time>
      </trkpt>
      <trkpt lat="44.34259" lon="3.58717">
        <ele>629</ele>
        <time>2022-10-28T08:22:27Z</time>
      </trkpt>
      <trkpt lat="44.3426" lon="3.58715">
        <ele>629.2</ele>
        <time>2022-10-28T08:22:28Z</time>
      </trkpt>
      <trkpt lat="44.34262" lon="3.58714">
        <ele>629.4</ele>
        <time>2022-10-28T08:22:29Z</time>
      </trkpt>
      <trkpt lat="44.34263" lon="3.58712">
        <ele>629.6</ele>
        <time>2022-10-28T08:22:30Z</time>
      </trkpt>
      <trkpt lat="44.34264" lon="3.5871">
        <ele>629.8</ele>
        <time>2022-10-28T08:22:31Z</time>
      </trkpt>
      <trkpt lat="44.34265" lon="3.58708">
        <ele>630</ele>
        <time>2022-10-28T08:22:32Z</time>
      </trkpt>
      <trkpt lat="44.34266" lon="3.58706">
        <ele>630.2</ele>
        <time>2022-10-28T08:22:33Z</time>
      </trkpt>
      <trkpt lat="44.34267" lon="3.58705">
        <ele>630.4</ele>
        <time>2022-10-28T08:22:34Z</time>
      </trkpt>
      <trkpt lat="44.34269" lon="3.58703">
        <ele>630.6</ele>
        <time>2022-10-28T08:22:35Z</time>
      </trkpt>
      <trkpt lat="44.3427" lon="3.58701">
        <ele>630.8</ele>
        <time>2022-10-28T08:22:36Z</time>
      </trkpt>
      <trkpt lat="44.34271" lon="3.58699">
        <ele>631</ele>
        <time>2022-10-28T08:22:37Z</time>
      </trkpt>
      <trkpt lat="44.34272" lon="3.58697">
        <ele>631.2</ele>
        <time>2022-10-28T08:22:38Z</time>
      </trkpt>
      <trkpt lat="44.34273" lon="3.58696">
        <ele>631.4</ele>
        <time>2022-10-28T08:22:39Z</time>
      </trkpt>
      <trkpt lat="44.34274" lon="3.58694">
        <ele>631.6</ele>
        <time>2022-10-28T08:22:40Z</time>
      </trkpt>
      <trkpt lat="44.34276" lon="3.58692">
        <ele>631.6</ele>
        <time>2022-10-28T08:22:41Z</time>
      </trkpt>
      <trkpt lat="44.34277" lon="3.5869">
        <ele>631.8</ele>
        <time>2022-10-28T08:22:42Z</time>
      </trkpt>
      <trkpt lat="44.34278" lon="3.58688">
        <ele>632</ele>
        <time>2022-10-28T08:22:43Z</time>
      </trkpt>
      <trkpt lat="44.34279" lon="3.58686">
        <ele>632.2</ele>
        <time>2022-10-28T08:22:44Z</time>
      </trkpt>
      <trkpt lat="44.3428" lon="3.58685">
        <ele>632.4</ele>
        <time>2022-10-28T08:22:45Z</time>
      </trkpt>
      <trkpt lat="44.34281" lon="3.58683">
        <ele>632.6</ele>
        <time>2022-10-28T08:22:46Z</time>
      </trkpt>
      <trkpt lat="44.34282" lon="3.58681">
        <ele>632.8</ele>
        <time>2022-10-28T08:22:47Z</time>
      </trkpt>
      <trkpt lat="44.34284" lon="3.58679">
        <ele>633</ele>
        <time>2022-10-28T08:22:48Z</time>
      </trkpt>
      <trkpt lat="44.34285" lon="3.58677">
        <ele>633.2</ele>
        <time>2022-10-28T08:22:49Z</time>
      </trkpt>
      <trkpt lat="44.34286" lon="3.58675">
        <ele>633.4</ele>
        <time>2022-10-28T08:22:50Z</time>
      </trkpt>
      <trkpt lat="44.34287" lon="3.58673">
        <ele>633.6</ele>
        <time>2022-10-28T08:22:51Z</time>
      </trkpt>
      <trkpt lat="44.34288" lon="3.58671">
        <ele>633.8</ele>
        <time>2022-10-28T08:22:52Z</time>
      </trkpt>
      <trkpt lat="44.3429" lon="3.5867">
        <ele>634</ele>
        <time>2022-10-28T08:22:53Z</time>
      </trkpt>
      <trkpt lat="44.34291" lon="3.58668">
        <ele>634.2</ele>
        <time>2022-10-28T08:22:54Z</time>
      </trkpt>
      <trkpt lat="44.34292" lon="3.58666">
        <ele>634.4</ele>
        <time>2022-10-28T08:22:55Z</time>
      </trkpt>
      <trkpt lat="44.34293" lon="3.58665">
        <ele>634.6</ele>
        <time>2022-10-28T08:22:56Z</time>
      </trkpt>
      <trkpt lat="44.34294" lon="3.58663">
        <ele>634.8</ele>
        <time>2022-10-28T08:22:57Z</time>
      </trkpt>
      <trkpt lat="44.34296" lon="3.58661">
        <ele>635</ele>
        <time>2022-10-28T08:22:58Z</time>
      </trkpt>
      <trkpt lat="44.34297" lon="3.58659">
        <ele>635.2</ele>
        <time>2022-10-28T08:22:59Z</time>
      </trkpt>
      <trkpt lat="44.34298" lon="3.58657">
        <ele>635.4</ele>
        <time>2022-10-28T08:23:00Z</time>
      </trkpt>
      <trkpt lat="44.34299" lon="3.58655">
        <ele>635.6</ele>
        <time>2022-10-28T08:23:01Z</time>
      </trkpt>
      <trkpt lat="44.343" lon="3.58653">
        <ele>635.8</ele>
        <time>2022-10-28T08:23:02Z</time>
      </trkpt>
      <trkpt lat="44.34302" lon="3.58651">
        <ele>636</ele>
        <time>2022-10-28T08:23:03Z</time>
      </trkpt>
      <trkpt lat="44.34303" lon="3.5865">
        <ele>636.2</ele>
        <time>2022-10-28T08:23:04Z</time>
      </trkpt>
      <trkpt lat="44.34304" lon="3.58648">
        <ele>636.4</ele>
        <time>2022-10-28T08:23:05Z</time>
      </trkpt>
      <trkpt lat="44.34306" lon="3.58646">
        <ele>636.6</ele>
        <time>2022-10-28T08:23:06Z</time>
      </trkpt>
      <trkpt lat="44.34307" lon="3.58645">
        <ele>636.8</ele>
        <time>2022-10-28T08:23:07Z</time>
      </trkpt>
      <trkpt lat="44.34308" lon="3.58643">
        <ele>637</ele>
        <time>2022-10-28T08:23:08Z</time>
      </trkpt>
      <trkpt lat="44.34309" lon="3.58642">
        <ele>637.2</ele>
        <time>2022-10-28T08:23:09Z</time>
      </trkpt>
      <trkpt lat="44.34311" lon="3.5864">
        <ele>637.4</ele>
        <time>2022-10-28T08:23:10Z</time>
      </trkpt>
      <trkpt lat="44.34312" lon="3.58638">
        <ele>637.6</ele>
        <time>2022-10-28T08:23:11Z</time>
      </trkpt>
      <trkpt lat="44.34313" lon="3.58636">
        <ele>637.8</ele>
        <time>2022-10-28T08:23:12Z</time>
      </trkpt>
      <trkpt lat="44.34314" lon="3.58635">
        <ele>638</ele>
        <time>2022-10-28T08:23:13Z</time>
      </trkpt>
      <trkpt lat="44.34315" lon="3.58633">
        <ele>638.2</ele>
        <time>2022-10-28T08:23:14Z</time>
      </trkpt>
      <trkpt lat="44.34316" lon="3.58631">
        <ele>638.4</ele>
        <time>2022-10-28T08:23:15Z</time>
      </trkpt>
      <trkpt lat="44.34317" lon="3.58629">
        <ele>638.6</ele>
        <time>2022-10-28T08:23:16Z</time>
      </trkpt>
      <trkpt lat="44.34319" lon="3.58628">
        <ele>638.8</ele>
        <time>2022-10-28T08:23:17Z</time>
      </trkpt>
      <trkpt lat="44.3432" lon="3.58626">
        <ele>639</ele>
        <time>2022-10-28T08:23:18Z</time>
      </trkpt>
      <trkpt lat="44.34321" lon="3.58624">
        <ele>639.2</ele>
        <time>2022-10-28T08:23:19Z</time>
      </trkpt>
      <trkpt lat="44.34323" lon="3.58622">
        <ele>639.4</ele>
        <time>2022-10-28T08:23:20Z</time>
      </trkpt>
      <trkpt lat="44.34324" lon="3.58621">
        <ele>639.6</ele>
        <time>2022-10-28T08:23:21Z</time>
      </trkpt>
      <trkpt lat="44.34325" lon="3.58619">
        <ele>639.8</ele>
        <time>2022-10-28T08:23:22Z</time>
      </trkpt>
      <trkpt lat="44.34327" lon="3.58617">
        <ele>640</ele>
        <time>2022-10-28T08:23:23Z</time>
      </trkpt>
      <trkpt lat="44.34328" lon="3.58616">
        <ele>640.2</ele>
        <time>2022-10-28T08:23:24Z</time>
      </trkpt>
      <trkpt lat="44.34329" lon="3.58614">
        <ele>640.4</ele>
        <time>2022-10-28T08:23:25Z</time>
      </trkpt>
      <trkpt lat="44.34331" lon="3.58612">
        <ele>640.6</ele>
        <time>2022-10-28T08:23:26Z</time>
      </trkpt>
      <trkpt lat="44.34332" lon="3.58611">
        <ele>640.8</ele>
        <time>2022-10-28T08:23:27Z</time>
      </trkpt>
      <trkpt lat="44.34333" lon="3.5861">
        <ele>641</ele>
        <time>2022-10-28T08:23:28Z</time>
      </trkpt>
      <trkpt lat="44.34334" lon="3.58608">
        <ele>641.2</ele>
        <time>2022-10-28T08:23:29Z</time>
      </trkpt>
      <trkpt lat="44.34336" lon="3.58606">
        <ele>641.4</ele>
        <time>2022-10-28T08:23:30Z</time>
      </trkpt>
      <trkpt lat="44.34337" lon="3.58604">
        <ele>641.6</ele>
        <time>2022-10-28T08:23:31Z</time>
      </trkpt>
      <trkpt lat="44.34338" lon="3.58602">
        <ele>641.8</ele>
        <time>2022-10-28T08:23:32Z</time>
      </trkpt>
      <trkpt lat="44.34339" lon="3.58601">
        <ele>642</ele>
        <time>2022-10-28T08:23:33Z</time>
      </trkpt>
      <trkpt lat="44.34341" lon="3.58599">
        <ele>642.2</ele>
        <time>2022-10-28T08:23:34Z</time>
      </trkpt>
      <trkpt lat="44.34342" lon="3.58597">
        <ele>642.4</ele>
        <time>2022-10-28T08:23:35Z</time>
      </trkpt>
      <trkpt lat="44.34343" lon="3.58596">
        <ele>642.6</ele>
        <time>2022-10-28T08:23:36Z</time>
      </trkpt>
      <trkpt lat="44.34344" lon="3.58594">
        <ele>642.8</ele>
        <time>2022-10-28T08:23:37Z</time>
      </trkpt>
      <trkpt lat="44.34346" lon="3.58592">
        <ele>643</ele>
        <time>2022-10-28T08:23:38Z</time>
      </trkpt>
      <trkpt lat="44.34347" lon="3.58591">
        <ele>643.2</ele>
        <time>2022-10-28T08:23:39Z</time>
      </trkpt>
      <trkpt lat="44.34348" lon="3.58589">
        <ele>643.4</ele>
        <time>2022-10-28T08:23:40Z</time>
      </trkpt>
      <trkpt lat="44.3435" lon="3.58588">
        <ele>643.6</ele>
        <time>2022-10-28T08:23:41Z</time>
      </trkpt>
      <trkpt lat="44.34351" lon="3.58586">
        <ele>643.8</ele>
        <time>2022-10-28T08:23:42Z</time>
      </trkpt>
      <trkpt lat="44.34353" lon="3.58584">
        <ele>644.2</ele>
        <time>2022-10-28T08:23:43Z</time>
      </trkpt>
      <trkpt lat="44.34354" lon="3.58583">
        <ele>644.4</ele>
        <time>2022-10-28T08:23:44Z</time>
      </trkpt>
      <trkpt lat="44.34355" lon="3.58581">
        <ele>644.6</ele>
        <time>2022-10-28T08:23:45Z</time>
      </trkpt>
      <trkpt lat="44.34356" lon="3.58579">
        <ele>644.8</ele>
        <time>2022-10-28T08:23:46Z</time>
      </trkpt>
      <trkpt lat="44.34357" lon="3.58578">
        <ele>645.2</ele>
        <time>2022-10-28T08:23:47Z</time>
      </trkpt>
      <trkpt lat="44.34358" lon="3.58577">
        <ele>645.4</ele>
        <time>2022-10-28T08:23:48Z</time>
      </trkpt>
      <trkpt lat="44.3436" lon="3.58576">
        <ele>645.6</ele>
        <time>2022-10-28T08:23:49Z</time>
      </trkpt>
      <trkpt lat="44.34361" lon="3.58576">
        <ele>646</ele>
        <time>2022-10-28T08:23:50Z</time>
      </trkpt>
      <trkpt lat="44.34363" lon="3.58577">
        <ele>646.2</ele>
        <time>2022-10-28T08:23:51Z</time>
      </trkpt>
      <trkpt lat="44.34364" lon="3.58578">
        <ele>646.6</ele>
        <time>2022-10-28T08:23:52Z</time>
      </trkpt>
      <trkpt lat="44.34365" lon="3.5858">
        <ele>646.8</ele>
        <time>2022-10-28T08:23:53Z</time>
      </trkpt>
      <trkpt lat="44.34365" lon="3.58581">
        <ele>647</ele>
        <time>2022-10-28T08:23:54Z</time>
      </trkpt>
      <trkpt lat="44.34364" lon="3.58584">
        <ele>647.2</ele>
        <time>2022-10-28T08:23:55Z</time>
      </trkpt>
      <trkpt lat="44.34364" lon="3.58586">
        <ele>647.4</ele>
        <time>2022-10-28T08:23:56Z</time>
      </trkpt>
      <trkpt lat="44.34363" lon="3.58588">
        <ele>647.6</ele>
        <time>2022-10-28T08:23:57Z</time>
      </trkpt>
      <trkpt lat="44.34362" lon="3.5859">
        <ele>647.8</ele>
        <time>2022-10-28T08:23:58Z</time>
      </trkpt>
      <trkpt lat="44.34361" lon="3.58593">
        <ele>648</ele>
        <time>2022-10-28T08:23:59Z</time>
      </trkpt>
      <trkpt lat="44.3436" lon="3.58594">
        <ele>648</ele>
        <time>2022-10-28T08:24:00Z</time>
      </trkpt>
      <trkpt lat="44.34359" lon="3.58596">
        <ele>648.2</ele>
        <time>2022-10-28T08:24:01Z</time>
      </trkpt>
      <trkpt lat="44.34358" lon="3.58598">
        <ele>648.4</ele>
        <time>2022-10-28T08:24:02Z</time>
      </trkpt>
      <trkpt lat="44.34357" lon="3.586">
        <ele>648.4</ele>
        <time>2022-10-28T08:24:03Z</time>
      </trkpt>
      <trkpt lat="44.34356" lon="3.58602">
        <ele>648.6</ele>
        <time>2022-10-28T08:24:04Z</time>
      </trkpt>
      <trkpt lat="44.34355" lon="3.58604">
        <ele>648.8</ele>
        <time>2022-10-28T08:24:05Z</time>
      </trkpt>
      <trkpt lat="44.34354" lon="3.58606">
        <ele>648.8</ele>
        <time>2022-10-28T08:24:06Z</time>
      </trkpt>
      <trkpt lat="44.34354" lon="3.58608">
        <ele>649</ele>
        <time>2022-10-28T08:24:07Z</time>
      </trkpt>
      <trkpt lat="44.34353" lon="3.5861">
        <ele>649.2</ele>
        <time>2022-10-28T08:24:08Z</time>
      </trkpt>
      <trkpt lat="44.34352" lon="3.58612">
        <ele>649.2</ele>
        <time>2022-10-28T08:24:09Z</time>
      </trkpt>
      <trkpt lat="44.34351" lon="3.58614">
        <ele>649.4</ele>
        <time>2022-10-28T08:24:10Z</time>
      </trkpt>
      <trkpt lat="44.34351" lon="3.58616">
        <ele>649.4</ele>
        <time>2022-10-28T08:24:11Z</time>
      </trkpt>
      <trkpt lat="44.3435" lon="3.58618">
        <ele>649.6</ele>
        <time>2022-10-28T08:24:12Z</time>
      </trkpt>
      <trkpt lat="44.34349" lon="3.5862">
        <ele>649.8</ele>
        <time>2022-10-28T08:24:13Z</time>
      </trkpt>
      <trkpt lat="44.34349" lon="3.58623">
        <ele>649.8</ele>
        <time>2022-10-28T08:24:14Z</time>
      </trkpt>
      <trkpt lat="44.34348" lon="3.58624">
        <ele>650</ele>
        <time>2022-10-28T08:24:15Z</time>
      </trkpt>
      <trkpt lat="44.34348" lon="3.58627">
        <ele>650</ele>
        <time>2022-10-28T08:24:16Z</time>
      </trkpt>
      <trkpt lat="44.34348" lon="3.5863">
        <ele>650</ele>
        <time>2022-10-28T08:24:17Z</time>
      </trkpt>
      <trkpt lat="44.34347" lon="3.58634">
        <ele>650.2</ele>
        <time>2022-10-28T08:24:18Z</time>
      </trkpt>
      <trkpt lat="44.34347" lon="3.58637">
        <ele>650.2</ele>
        <time>2022-10-28T08:24:19Z</time>
      </trkpt>
      <trkpt lat="44.34347" lon="3.58641">
        <ele>650.2</ele>
        <time>2022-10-28T08:24:20Z</time>
      </trkpt>
      <trkpt lat="44.34347" lon="3.58643">
        <ele>650.4</ele>
        <time>2022-10-28T08:24:21Z</time>
      </trkpt>
      <trkpt lat="44.34347" lon="3.58646">
        <ele>650.4</ele>
        <time>2022-10-28T08:24:22Z</time>
      </trkpt>
      <trkpt lat="44.34347" lon="3.58648">
        <ele>650.6</ele>
        <time>2022-10-28T08:24:23Z</time>
      </trkpt>
      <trkpt lat="44.34348" lon="3.58651">
        <ele>650.6</ele>
        <time>2022-10-28T08:24:24Z</time>
      </trkpt>
      <trkpt lat="44.34348" lon="3.58654">
        <ele>650.8</ele>
        <time>2022-10-28T08:24:25Z</time>
      </trkpt>
      <trkpt lat="44.34348" lon="3.58657">
        <ele>650.8</ele>
        <time>2022-10-28T08:24:26Z</time>
      </trkpt>
      <trkpt lat="44.34349" lon="3.5866">
        <ele>651</ele>
        <time>2022-10-28T08:24:27Z</time>
      </trkpt>
      <trkpt lat="44.34349" lon="3.58663">
        <ele>651.2</ele>
        <time>2022-10-28T08:24:28Z</time>
      </trkpt>
      <trkpt lat="44.3435" lon="3.58665">
        <ele>651.2</ele>
        <time>2022-10-28T08:24:29Z</time>
      </trkpt>
      <trkpt lat="44.34351" lon="3.58668">
        <ele>651.4</ele>
        <time>2022-10-28T08:24:30Z</time>
      </trkpt>
      <trkpt lat="44.34352" lon="3.58671">
        <ele>651.6</ele>
        <time>2022-10-28T08:24:31Z</time>
      </trkpt>
      <trkpt lat="44.34353" lon="3.58673">
        <ele>651.8</ele>
        <time>2022-10-28T08:24:32Z</time>
      </trkpt>
      <trkpt lat="44.34354" lon="3.58676">
        <ele>651.8</ele>
        <time>2022-10-28T08:24:33Z</time>
      </trkpt>
      <trkpt lat="44.34355" lon="3.58678">
        <ele>652</ele>
        <time>2022-10-28T08:24:34Z</time>
      </trkpt>
      <trkpt lat="44.34356" lon="3.58679">
        <ele>652</ele>
        <time>2022-10-28T08:24:35Z</time>
      </trkpt>
      <trkpt lat="44.34357" lon="3.58681">
        <ele>652.2</ele>
        <time>2022-10-28T08:24:36Z</time>
      </trkpt>
      <trkpt lat="44.34358" lon="3.58683">
        <ele>652.4</ele>
        <time>2022-10-28T08:24:37Z</time>
      </trkpt>
      <trkpt lat="44.3436" lon="3.58684">
        <ele>652.4</ele>
        <time>2022-10-28T08:24:38Z</time>
      </trkpt>
      <trkpt lat="44.34361" lon="3.58685">
        <ele>652.6</ele>
        <time>2022-10-28T08:24:39Z</time>
      </trkpt>
      <trkpt lat="44.34363" lon="3.58686">
        <ele>652.8</ele>
        <time>2022-10-28T08:24:40Z</time>
      </trkpt>
      <trkpt lat="44.34364" lon="3.58686">
        <ele>653</ele>
        <time>2022-10-28T08:24:41Z</time>
      </trkpt>
      <trkpt lat="44.34366" lon="3.58687">
        <ele>653</ele>
        <time>2022-10-28T08:24:42Z</time>
      </trkpt>
      <trkpt lat="44.34368" lon="3.58688">
        <ele>653.2</ele>
        <time>2022-10-28T08:24:43Z</time>
      </trkpt>
      <trkpt lat="44.3437" lon="3.58689">
        <ele>653.4</ele>
        <time>2022-10-28T08:24:44Z</time>
      </trkpt>
      <trkpt lat="44.34372" lon="3.5869">
        <ele>653.4</ele>
        <time>2022-10-28T08:24:45Z</time>
      </trkpt>
      <trkpt lat="44.34374" lon="3.5869">
        <ele>653.6</ele>
        <time>2022-10-28T08:24:46Z</time>
      </trkpt>
      <trkpt lat="44.34376" lon="3.5869">
        <ele>653.8</ele>
        <time>2022-10-28T08:24:47Z</time>
      </trkpt>
      <trkpt lat="44.34378" lon="3.58691">
        <ele>653.8</ele>
        <time>2022-10-28T08:24:48Z</time>
      </trkpt>
      <trkpt lat="44.3438" lon="3.58691">
        <ele>654</ele>
        <time>2022-10-28T08:24:49Z</time>
      </trkpt>
      <trkpt lat="44.34382" lon="3.58692">
        <ele>654.2</ele>
        <time>2022-10-28T08:24:50Z</time>
      </trkpt>
      <trkpt lat="44.34384" lon="3.58692">
        <ele>654.2</ele>
        <time>2022-10-28T08:24:51Z</time>
      </trkpt>
      <trkpt lat="44.34386" lon="3.58692">
        <ele>654.4</ele>
        <time>2022-10-28T08:24:52Z</time>
      </trkpt>
      <trkpt lat="44.34388" lon="3.58692">
        <ele>654.6</ele>
        <time>2022-10-28T08:24:53Z</time>
      </trkpt>
      <trkpt lat="44.34389" lon="3.58693">
        <ele>654.8</ele>
        <time>2022-10-28T08:24:54Z</time>
      </trkpt>
      <trkpt lat="44.34391" lon="3.58693">
        <ele>654.8</ele>
        <time>2022-10-28T08:24:55Z</time>
      </trkpt>
      <trkpt lat="44.34393" lon="3.58694">
        <ele>655</ele>
        <time>2022-10-28T08:24:56Z</time>
      </trkpt>
      <trkpt lat="44.34396" lon="3.58696">
        <ele>655</ele>
        <time>2022-10-28T08:24:57Z</time>
      </trkpt>
      <trkpt lat="44.34398" lon="3.58696">
        <ele>655.2</ele>
        <time>2022-10-28T08:24:58Z</time>
      </trkpt>
      <trkpt lat="44.344" lon="3.58697">
        <ele>655.4</ele>
        <time>2022-10-28T08:24:59Z</time>
      </trkpt>
      <trkpt lat="44.34402" lon="3.58699">
        <ele>655.6</ele>
        <time>2022-10-28T08:25:00Z</time>
      </trkpt>
      <trkpt lat="44.34404" lon="3.58699">
        <ele>655.8</ele>
        <time>2022-10-28T08:25:01Z</time>
      </trkpt>
      <trkpt lat="44.34405" lon="3.587">
        <ele>656</ele>
        <time>2022-10-28T08:25:02Z</time>
      </trkpt>
      <trkpt lat="44.34407" lon="3.58701">
        <ele>656.2</ele>
        <time>2022-10-28T08:25:03Z</time>
      </trkpt>
      <trkpt lat="44.34408" lon="3.58702">
        <ele>656.4</ele>
        <time>2022-10-28T08:25:04Z</time>
      </trkpt>
      <trkpt lat="44.3441" lon="3.58703">
        <ele>656.6</ele>
        <time>2022-10-28T08:25:05Z</time>
      </trkpt>
      <trkpt lat="44.34411" lon="3.58703">
        <ele>656.8</ele>
        <time>2022-10-28T08:25:06Z</time>
      </trkpt>
      <trkpt lat="44.34413" lon="3.58704">
        <ele>657</ele>
        <time>2022-10-28T08:25:07Z</time>
      </trkpt>
      <trkpt lat="44.34415" lon="3.58704">
        <ele>657.2</ele>
        <time>2022-10-28T08:25:08Z</time>
      </trkpt>
      <trkpt lat="44.34416" lon="3.58705">
        <ele>657.6</ele>
        <time>2022-10-28T08:25:09Z</time>
      </trkpt>
      <trkpt lat="44.34418" lon="3.58705">
        <ele>657.8</ele>
        <time>2022-10-28T08:25:10Z</time>
      </trkpt>
      <trkpt lat="44.34421" lon="3.58706">
        <ele>658</ele>
        <time>2022-10-28T08:25:11Z</time>
      </trkpt>
      <trkpt lat="44.34423" lon="3.58706">
        <ele>658.2</ele>
        <time>2022-10-28T08:25:12Z</time>
      </trkpt>
      <trkpt lat="44.34425" lon="3.58706">
        <ele>658.6</ele>
        <time>2022-10-28T08:25:13Z</time>
      </trkpt>
      <trkpt lat="44.34428" lon="3.58707">
        <ele>658.8</ele>
        <time>2022-10-28T08:25:14Z</time>
      </trkpt>
      <trkpt lat="44.34429" lon="3.58708">
        <ele>659</ele>
        <time>2022-10-28T08:25:15Z</time>
      </trkpt>
      <trkpt lat="44.34431" lon="3.58709">
        <ele>659.2</ele>
        <time>2022-10-28T08:25:16Z</time>
      </trkpt>
      <trkpt lat="44.34432" lon="3.5871">
        <ele>659.6</ele>
        <time>2022-10-28T08:25:17Z</time>
      </trkpt>
      <trkpt lat="44.34434" lon="3.58711">
        <ele>659.8</ele>
        <time>2022-10-28T08:25:18Z</time>
      </trkpt>
      <trkpt lat="44.34436" lon="3.58711">
        <ele>660</ele>
        <time>2022-10-28T08:25:19Z</time>
      </trkpt>
      <trkpt lat="44.34438" lon="3.58712">
        <ele>660.4</ele>
        <time>2022-10-28T08:25:20Z</time>
      </trkpt>
      <trkpt lat="44.34439" lon="3.58713">
        <ele>660.6</ele>
        <time>2022-10-28T08:25:21Z</time>
      </trkpt>
      <trkpt lat="44.34441" lon="3.58714">
        <ele>660.8</ele>
        <time>2022-10-28T08:25:22Z</time>
      </trkpt>
      <trkpt lat="44.34442" lon="3.58715">
        <ele>661.2</ele>
        <time>2022-10-28T08:25:23Z</time>
      </trkpt>
      <trkpt lat="44.34444" lon="3.58716">
        <ele>661.4</ele>
        <time>2022-10-28T08:25:24Z</time>
      </trkpt>
      <trkpt lat="44.34445" lon="3.58717">
        <ele>661.6</ele>
        <time>2022-10-28T08:25:25Z</time>
      </trkpt>
      <trkpt lat="44.34447" lon="3.58718">
        <ele>661.8</ele>
        <time>2022-10-28T08:25:26Z</time>
      </trkpt>
      <trkpt lat="44.34448" lon="3.58719">
        <ele>662.2</ele>
        <time>2022-10-28T08:25:27Z</time>
      </trkpt>
      <trkpt lat="44.3445" lon="3.58719">
        <ele>662.4</ele>
        <time>2022-10-28T08:25:28Z</time>
      </trkpt>
      <trkpt lat="44.34451" lon="3.5872">
        <ele>662.6</ele>
        <time>2022-10-28T08:25:29Z</time>
      </trkpt>
      <trkpt lat="44.34453" lon="3.5872">
        <ele>663</ele>
        <time>2022-10-28T08:25:30Z</time>
      </trkpt>
      <trkpt lat="44.34454" lon="3.5872">
        <ele>663.2</ele>
        <time>2022-10-28T08:25:31Z</time>
      </trkpt>
      <trkpt lat="44.34456" lon="3.5872">
        <ele>663.4</ele>
        <time>2022-10-28T08:25:32Z</time>
      </trkpt>
      <trkpt lat="44.34457" lon="3.58719">
        <ele>663.6</ele>
        <time>2022-10-28T08:25:33Z</time>
      </trkpt>
      <trkpt lat="44.34459" lon="3.58719">
        <ele>664</ele>
        <time>2022-10-28T08:25:34Z</time>
      </trkpt>
      <trkpt lat="44.3446" lon="3.58719">
        <ele>664.2</ele>
        <time>2022-10-28T08:25:35Z</time>
      </trkpt>
      <trkpt lat="44.34462" lon="3.5872">
        <ele>664.4</ele>
        <time>2022-10-28T08:25:36Z</time>
      </trkpt>
      <trkpt lat="44.34464" lon="3.5872">
        <ele>664.8</ele>
        <time>2022-10-28T08:25:37Z</time>
      </trkpt>
      <trkpt lat="44.34465" lon="3.5872">
        <ele>665</ele>
        <time>2022-10-28T08:25:38Z</time>
      </trkpt>
      <trkpt lat="44.34467" lon="3.5872">
        <ele>665.2</ele>
        <time>2022-10-28T08:25:39Z</time>
      </trkpt>
      <trkpt lat="44.34468" lon="3.5872">
        <ele>665.4</ele>
        <time>2022-10-28T08:25:40Z</time>
      </trkpt>
      <trkpt lat="44.34469" lon="3.5872">
        <ele>665.8</ele>
        <time>2022-10-28T08:25:41Z</time>
      </trkpt>
      <trkpt lat="44.34471" lon="3.58721">
        <ele>666</ele>
        <time>2022-10-28T08:25:42Z</time>
      </trkpt>
      <trkpt lat="44.34472" lon="3.58721">
        <ele>666.2</ele>
        <time>2022-10-28T08:25:43Z</time>
      </trkpt>
      <trkpt lat="44.34474" lon="3.58721">
        <ele>666.4</ele>
        <time>2022-10-28T08:25:44Z</time>
      </trkpt>
      <trkpt lat="44.34476" lon="3.58721">
        <ele>666.6</ele>
        <time>2022-10-28T08:25:45Z</time>
      </trkpt>
      <trkpt lat="44.34478" lon="3.58721">
        <ele>666.8</ele>
        <time>2022-10-28T08:25:46Z</time>
      </trkpt>
      <trkpt lat="44.34479" lon="3.58721">
        <ele>667</ele>
        <time>2022-10-28T08:25:47Z</time>
      </trkpt>
      <trkpt lat="44.34481" lon="3.58721">
        <ele>667.2</ele>
        <time>2022-10-28T08:25:48Z</time>
      </trkpt>
      <trkpt lat="44.34483" lon="3.58721">
        <ele>667.6</ele>
        <time>2022-10-28T08:25:49Z</time>
      </trkpt>
      <trkpt lat="44.34485" lon="3.5872">
        <ele>667.8</ele>
        <time>2022-10-28T08:25:50Z</time>
      </trkpt>
      <trkpt lat="44.34487" lon="3.5872">
        <ele>668</ele>
        <time>2022-10-28T08:25:51Z</time>
      </trkpt>
      <trkpt lat="44.34489" lon="3.5872">
        <ele>668.2</ele>
        <time>2022-10-28T08:25:52Z</time>
      </trkpt>
      <trkpt lat="44.34491" lon="3.58719">
        <ele>668.4</ele>
        <time>2022-10-28T08:25:53Z</time>
      </trkpt>
      <trkpt lat="44.34492" lon="3.58718">
        <ele>668.6</ele>
        <time>2022-10-28T08:25:54Z</time>
      </trkpt>
      <trkpt lat="44.34494" lon="3.58718">
        <ele>668.8</ele>
        <time>2022-10-28T08:25:55Z</time>
      </trkpt>
      <trkpt lat="44.34495" lon="3.58717">
        <ele>669.2</ele>
        <time>2022-10-28T08:25:56Z</time>
      </trkpt>
      <trkpt lat="44.34497" lon="3.58717">
        <ele>669.4</ele>
        <time>2022-10-28T08:25:57Z</time>
      </trkpt>
      <trkpt lat="44.34498" lon="3.58716">
        <ele>669.6</ele>
        <time>2022-10-28T08:25:58Z</time>
      </trkpt>
      <trkpt lat="44.34499" lon="3.58716">
        <ele>670</ele>
        <time>2022-10-28T08:25:59Z</time>
      </trkpt>
      <trkpt lat="44.34501" lon="3.58717">
        <ele>670.2</ele>
        <time>2022-10-28T08:26:00Z</time>
      </trkpt>
      <trkpt lat="44.34503" lon="3.58717">
        <ele>670.4</ele>
        <time>2022-10-28T08:26:01Z</time>
      </trkpt>
      <trkpt lat="44.34504" lon="3.58718">
        <ele>670.8</ele>
        <time>2022-10-28T08:26:02Z</time>
      </trkpt>
      <trkpt lat="44.34506" lon="3.58718">
        <ele>671.2</ele>
        <time>2022-10-28T08:26:03Z</time>
      </trkpt>
      <trkpt lat="44.34507" lon="3.58718">
        <ele>671.4</ele>
        <time>2022-10-28T08:26:04Z</time>
      </trkpt>
      <trkpt lat="44.34509" lon="3.58718">
        <ele>671.8</ele>
        <time>2022-10-28T08:26:05Z</time>
      </trkpt>
      <trkpt lat="44.3451" lon="3.58718">
        <ele>672</ele>
        <time>2022-10-28T08:26:06Z</time>
      </trkpt>
      <trkpt lat="44.34512" lon="3.58719">
        <ele>672.4</ele>
        <time>2022-10-28T08:26:07Z</time>
      </trkpt>
      <trkpt lat="44.34513" lon="3.5872">
        <ele>672.6</ele>
        <time>2022-10-28T08:26:08Z</time>
      </trkpt>
      <trkpt lat="44.34514" lon="3.5872">
        <ele>672.8</ele>
        <time>2022-10-28T08:26:09Z</time>
      </trkpt>
      <trkpt lat="44.34516" lon="3.58721">
        <ele>673.2</ele>
        <time>2022-10-28T08:26:10Z</time>
      </trkpt>
      <trkpt lat="44.34517" lon="3.58723">
        <ele>673.4</ele>
        <time>2022-10-28T08:26:11Z</time>
      </trkpt>
      <trkpt lat="44.34518" lon="3.58724">
        <ele>673.6</ele>
        <time>2022-10-28T08:26:12Z</time>
      </trkpt>
      <trkpt lat="44.3452" lon="3.58726">
        <ele>673.8</ele>
        <time>2022-10-28T08:26:13Z</time>
      </trkpt>
      <trkpt lat="44.34521" lon="3.58727">
        <ele>674</ele>
        <time>2022-10-28T08:26:14Z</time>
      </trkpt>
      <trkpt lat="44.34521" lon="3.58728">
        <ele>674.4</ele>
        <time>2022-10-28T08:26:15Z</time>
      </trkpt>
      <trkpt lat="44.34522" lon="3.5873">
        <ele>674.6</ele>
        <time>2022-10-28T08:26:16Z</time>
      </trkpt>
      <trkpt lat="44.34524" lon="3.58731">
        <ele>674.8</ele>
        <time>2022-10-28T08:26:17Z</time>
      </trkpt>
      <trkpt lat="44.34525" lon="3.58732">
        <ele>675</ele>
        <time>2022-10-28T08:26:18Z</time>
      </trkpt>
      <trkpt lat="44.34526" lon="3.58733">
        <ele>675.4</ele>
        <time>2022-10-28T08:26:19Z</time>
      </trkpt>
      <trkpt lat="44.34528" lon="3.58735">
        <ele>675.6</ele>
        <time>2022-10-28T08:26:20Z</time>
      </trkpt>
      <trkpt lat="44.34529" lon="3.58736">
        <ele>675.8</ele>
        <time>2022-10-28T08:26:21Z</time>
      </trkpt>
      <trkpt lat="44.3453" lon="3.58737">
        <ele>676</ele>
        <time>2022-10-28T08:26:22Z</time>
      </trkpt>
      <trkpt lat="44.34532" lon="3.58738">
        <ele>676.2</ele>
        <time>2022-10-28T08:26:23Z</time>
      </trkpt>
      <trkpt lat="44.34533" lon="3.58738">
        <ele>676.4</ele>
        <time>2022-10-28T08:26:24Z</time>
      </trkpt>
      <trkpt lat="44.34534" lon="3.58738">
        <ele>676.4</ele>
        <time>2022-10-28T08:26:25Z</time>
      </trkpt>
      <trkpt lat="44.34536" lon="3.58739">
        <ele>676.6</ele>
        <time>2022-10-28T08:26:26Z</time>
      </trkpt>
      <trkpt lat="44.34538" lon="3.58739">
        <ele>676.8</ele>
        <time>2022-10-28T08:26:27Z</time>
      </trkpt>
      <trkpt lat="44.34539" lon="3.58739">
        <ele>677</ele>
        <time>2022-10-28T08:26:28Z</time>
      </trkpt>
      <trkpt lat="44.34541" lon="3.58738">
        <ele>677.2</ele>
        <time>2022-10-28T08:26:29Z</time>
      </trkpt>
      <trkpt lat="44.34543" lon="3.58737">
        <ele>677.2</ele>
        <time>2022-10-28T08:26:30Z</time>
      </trkpt>
      <trkpt lat="44.34544" lon="3.58736">
        <ele>677.4</ele>
        <time>2022-10-28T08:26:31Z</time>
      </trkpt>
      <trkpt lat="44.34545" lon="3.58735">
        <ele>677.6</ele>
        <time>2022-10-28T08:26:32Z</time>
      </trkpt>
      <trkpt lat="44.34546" lon="3.58734">
        <ele>677.8</ele>
        <time>2022-10-28T08:26:33Z</time>
      </trkpt>
      <trkpt lat="44.34547" lon="3.58733">
        <ele>678</ele>
        <time>2022-10-28T08:26:34Z</time>
      </trkpt>
      <trkpt lat="44.34549" lon="3.58732">
        <ele>678</ele>
        <time>2022-10-28T08:26:35Z</time>
      </trkpt>
      <trkpt lat="44.34551" lon="3.58732">
        <ele>678.2</ele>
        <time>2022-10-28T08:26:36Z</time>
      </trkpt>
      <trkpt lat="44.34552" lon="3.58731">
        <ele>678.4</ele>
        <time>2022-10-28T08:26:37Z</time>
      </trkpt>
      <trkpt lat="44.34554" lon="3.58731">
        <ele>678.6</ele>
        <time>2022-10-28T08:26:38Z</time>
      </trkpt>
      <trkpt lat="44.34555" lon="3.5873">
        <ele>678.8</ele>
        <time>2022-10-28T08:26:39Z</time>
      </trkpt>
      <trkpt lat="44.34557" lon="3.5873">
        <ele>679</ele>
        <time>2022-10-28T08:26:40Z</time>
      </trkpt>
      <trkpt lat="44.34559" lon="3.58729">
        <ele>679</ele>
        <time>2022-10-28T08:26:41Z</time>
      </trkpt>
      <trkpt lat="44.34561" lon="3.58729">
        <ele>679.2</ele>
        <time>2022-10-28T08:26:42Z</time>
      </trkpt>
      <trkpt lat="44.34563" lon="3.58729">
        <ele>679.4</ele>
        <time>2022-10-28T08:26:43Z</time>
      </trkpt>
      <trkpt lat="44.34564" lon="3.58729">
        <ele>679.6</ele>
        <time>2022-10-28T08:26:44Z</time>
      </trkpt>
      <trkpt lat="44.34566" lon="3.58728">
        <ele>679.6</ele>
        <time>2022-10-28T08:26:45Z</time>
      </trkpt>
      <trkpt lat="44.34567" lon="3.58729">
        <ele>679.8</ele>
        <time>2022-10-28T08:26:46Z</time>
      </trkpt>
      <trkpt lat="44.34569" lon="3.58729">
        <ele>680</ele>
        <time>2022-10-28T08:26:47Z</time>
      </trkpt>
      <trkpt lat="44.34571" lon="3.58729">
        <ele>680</ele>
        <time>2022-10-28T08:26:48Z</time>
      </trkpt>
      <trkpt lat="44.34573" lon="3.58729">
        <ele>680.2</ele>
        <time>2022-10-28T08:26:49Z</time>
      </trkpt>
      <trkpt lat="44.34575" lon="3.58729">
        <ele>680.4</ele>
        <time>2022-10-28T08:26:50Z</time>
      </trkpt>
      <trkpt lat="44.34577" lon="3.58728">
        <ele>680.6</ele>
        <time>2022-10-28T08:26:51Z</time>
      </trkpt>
      <trkpt lat="44.34578" lon="3.58728">
        <ele>680.6</ele>
        <time>2022-10-28T08:26:52Z</time>
      </trkpt>
      <trkpt lat="44.3458" lon="3.58728">
        <ele>680.8</ele>
        <time>2022-10-28T08:26:53Z</time>
      </trkpt>
      <trkpt lat="44.34581" lon="3.58728">
        <ele>681</ele>
        <time>2022-10-28T08:26:54Z</time>
      </trkpt>
      <trkpt lat="44.34583" lon="3.58728">
        <ele>681.2</ele>
        <time>2022-10-28T08:26:55Z</time>
      </trkpt>
      <trkpt lat="44.34584" lon="3.58728">
        <ele>681.2</ele>
        <time>2022-10-28T08:26:56Z</time>
      </trkpt>
      <trkpt lat="44.34586" lon="3.58728">
        <ele>681.4</ele>
        <time>2022-10-28T08:26:57Z</time>
      </trkpt>
      <trkpt lat="44.34588" lon="3.58728">
        <ele>681.6</ele>
        <time>2022-10-28T08:26:58Z</time>
      </trkpt>
      <trkpt lat="44.3459" lon="3.58728">
        <ele>681.8</ele>
        <time>2022-10-28T08:26:59Z</time>
      </trkpt>
      <trkpt lat="44.34592" lon="3.58728">
        <ele>681.8</ele>
        <time>2022-10-28T08:27:00Z</time>
      </trkpt>
      <trkpt lat="44.34593" lon="3.58728">
        <ele>682</ele>
        <time>2022-10-28T08:27:01Z</time>
      </trkpt>
      <trkpt lat="44.34595" lon="3.58728">
        <ele>682.2</ele>
        <time>2022-10-28T08:27:02Z</time>
      </trkpt>
      <trkpt lat="44.34597" lon="3.58727">
        <ele>682.4</ele>
        <time>2022-10-28T08:27:03Z</time>
      </trkpt>
      <trkpt lat="44.34598" lon="3.58727">
        <ele>682.6</ele>
        <time>2022-10-28T08:27:04Z</time>
      </trkpt>
      <trkpt lat="44.346" lon="3.58726">
        <ele>682.6</ele>
        <time>2022-10-28T08:27:05Z</time>
      </trkpt>
      <trkpt lat="44.34601" lon="3.58726">
        <ele>682.8</ele>
        <time>2022-10-28T08:27:06Z</time>
      </trkpt>
      <trkpt lat="44.34603" lon="3.58725">
        <ele>682.8</ele>
        <time>2022-10-28T08:27:07Z</time>
      </trkpt>
      <trkpt lat="44.34604" lon="3.58725">
        <ele>683</ele>
        <time>2022-10-28T08:27:08Z</time>
      </trkpt>
      <trkpt lat="44.34607" lon="3.58724">
        <ele>683</ele>
        <time>2022-10-28T08:27:09Z</time>
      </trkpt>
      <trkpt lat="44.34609" lon="3.58723">
        <ele>683.2</ele>
        <time>2022-10-28T08:27:10Z</time>
      </trkpt>
      <trkpt lat="44.34611" lon="3.58723">
        <ele>683.2</ele>
        <time>2022-10-28T08:27:11Z</time>
      </trkpt>
      <trkpt lat="44.34612" lon="3.58722">
        <ele>683.2</ele>
        <time>2022-10-28T08:27:12Z</time>
      </trkpt>
      <trkpt lat="44.34614" lon="3.58722">
        <ele>683.4</ele>
        <time>2022-10-28T08:27:13Z</time>
      </trkpt>
      <trkpt lat="44.34617" lon="3.58721">
        <ele>683.4</ele>
        <time>2022-10-28T08:27:14Z</time>
      </trkpt>
      <trkpt lat="44.34619" lon="3.5872">
        <ele>683.4</ele>
        <time>2022-10-28T08:27:15Z</time>
      </trkpt>
      <trkpt lat="44.34621" lon="3.5872">
        <ele>683.6</ele>
        <time>2022-10-28T08:27:16Z</time>
      </trkpt>
      <trkpt lat="44.34623" lon="3.58719">
        <ele>683.6</ele>
        <time>2022-10-28T08:27:17Z</time>
      </trkpt>
      <trkpt lat="44.34625" lon="3.58718">
        <ele>683.6</ele>
        <time>2022-10-28T08:27:18Z</time>
      </trkpt>
      <trkpt lat="44.34627" lon="3.58717">
        <ele>683.8</ele>
        <time>2022-10-28T08:27:19Z</time>
      </trkpt>
      <trkpt lat="44.34629" lon="3.58717">
        <ele>684</ele>
        <time>2022-10-28T08:27:20Z</time>
      </trkpt>
      <trkpt lat="44.34631" lon="3.58716">
        <ele>684</ele>
        <time>2022-10-28T08:27:21Z</time>
      </trkpt>
      <trkpt lat="44.34633" lon="3.58715">
        <ele>684.2</ele>
        <time>2022-10-28T08:27:22Z</time>
      </trkpt>
      <trkpt lat="44.34635" lon="3.58713">
        <ele>684.2</ele>
        <time>2022-10-28T08:27:23Z</time>
      </trkpt>
      <trkpt lat="44.34637" lon="3.58712">
        <ele>684.2</ele>
        <time>2022-10-28T08:27:24Z</time>
      </trkpt>
      <trkpt lat="44.34639" lon="3.58711">
        <ele>684.2</ele>
        <time>2022-10-28T08:27:25Z</time>
      </trkpt>
      <trkpt lat="44.34642" lon="3.58711">
        <ele>684.2</ele>
        <time>2022-10-28T08:27:26Z</time>
      </trkpt>
      <trkpt lat="44.34644" lon="3.5871">
        <ele>684.4</ele>
        <time>2022-10-28T08:27:27Z</time>
      </trkpt>
      <trkpt lat="44.34647" lon="3.5871">
        <ele>684.4</ele>
        <time>2022-10-28T08:27:28Z</time>
      </trkpt>
      <trkpt lat="44.34649" lon="3.5871">
        <ele>684.4</ele>
        <time>2022-10-28T08:27:29Z</time>
      </trkpt>
      <trkpt lat="44.34652" lon="3.5871">
        <ele>684.6</ele>
        <time>2022-10-28T08:27:30Z</time>
      </trkpt>
      <trkpt lat="44.34654" lon="3.5871">
        <ele>684.6</ele>
        <time>2022-10-28T08:27:31Z</time>
      </trkpt>
      <trkpt lat="44.34656" lon="3.58709">
        <ele>684.8</ele>
        <time>2022-10-28T08:27:32Z</time>
      </trkpt>
      <trkpt lat="44.34659" lon="3.58709">
        <ele>684.8</ele>
        <time>2022-10-28T08:27:33Z</time>
      </trkpt>
      <trkpt lat="44.34661" lon="3.5871">
        <ele>685</ele>
        <time>2022-10-28T08:27:34Z</time>
      </trkpt>
      <trkpt lat="44.34663" lon="3.5871">
        <ele>685.2</ele>
        <time>2022-10-28T08:27:35Z</time>
      </trkpt>
      <trkpt lat="44.34666" lon="3.5871">
        <ele>685.2</ele>
        <time>2022-10-28T08:27:36Z</time>
      </trkpt>
      <trkpt lat="44.34668" lon="3.5871">
        <ele>685.4</ele>
        <time>2022-10-28T08:27:37Z</time>
      </trkpt>
      <trkpt lat="44.3467" lon="3.58709">
        <ele>685.6</ele>
        <time>2022-10-28T08:27:38Z</time>
      </trkpt>
      <trkpt lat="44.34672" lon="3.58709">
        <ele>685.8</ele>
        <time>2022-10-28T08:27:39Z</time>
      </trkpt>
      <trkpt lat="44.34674" lon="3.58709">
        <ele>685.8</ele>
        <time>2022-10-28T08:27:40Z</time>
      </trkpt>
      <trkpt lat="44.34676" lon="3.58709">
        <ele>686</ele>
        <time>2022-10-28T08:27:41Z</time>
      </trkpt>
      <trkpt lat="44.34679" lon="3.5871">
        <ele>686.2</ele>
        <time>2022-10-28T08:27:42Z</time>
      </trkpt>
      <trkpt lat="44.3468" lon="3.5871">
        <ele>686.4</ele>
        <time>2022-10-28T08:27:43Z</time>
      </trkpt>
      <trkpt lat="44.34682" lon="3.58711">
        <ele>686.4</ele>
        <time>2022-10-28T08:27:44Z</time>
      </trkpt>
      <trkpt lat="44.34684" lon="3.58713">
        <ele>686.6</ele>
        <time>2022-10-28T08:27:45Z</time>
      </trkpt>
      <trkpt lat="44.34686" lon="3.58714">
        <ele>686.8</ele>
        <time>2022-10-28T08:27:46Z</time>
      </trkpt>
      <trkpt lat="44.34688" lon="3.58716">
        <ele>686.8</ele>
        <time>2022-10-28T08:27:47Z</time>
      </trkpt>
      <trkpt lat="44.3469" lon="3.58717">
        <ele>687</ele>
        <time>2022-10-28T08:27:48Z</time>
      </trkpt>
      <trkpt lat="44.34692" lon="3.58719">
        <ele>687</ele>
        <time>2022-10-28T08:27:49Z</time>
      </trkpt>
      <trkpt lat="44.34694" lon="3.58721">
        <ele>687.2</ele>
        <time>2022-10-28T08:27:50Z</time>
      </trkpt>
      <trkpt lat="44.34696" lon="3.58723">
        <ele>687.4</ele>
        <time>2022-10-28T08:27:51Z</time>
      </trkpt>
      <trkpt lat="44.34698" lon="3.58725">
        <ele>687.4</ele>
        <time>2022-10-28T08:27:52Z</time>
      </trkpt>
      <trkpt lat="44.347" lon="3.58727">
        <ele>687.4</ele>
        <time>2022-10-28T08:27:53Z</time>
      </trkpt>
      <trkpt lat="44.34702" lon="3.58729">
        <ele>687.6</ele>
        <time>2022-10-28T08:27:54Z</time>
      </trkpt>
      <trkpt lat="44.34704" lon="3.58731">
        <ele>687.6</ele>
        <time>2022-10-28T08:27:55Z</time>
      </trkpt>
      <trkpt lat="44.34706" lon="3.58733">
        <ele>687.8</ele>
        <time>2022-10-28T08:27:56Z</time>
      </trkpt>
      <trkpt lat="44.34708" lon="3.58735">
        <ele>687.8</ele>
        <time>2022-10-28T08:27:57Z</time>
      </trkpt>
      <trkpt lat="44.3471" lon="3.58737">
        <ele>688</ele>
        <time>2022-10-28T08:27:58Z</time>
      </trkpt>
      <trkpt lat="44.34711" lon="3.5874">
        <ele>688.2</ele>
        <time>2022-10-28T08:27:59Z</time>
      </trkpt>
      <trkpt lat="44.34712" lon="3.58742">
        <ele>688.4</ele>
        <time>2022-10-28T08:28:00Z</time>
      </trkpt>
      <trkpt lat="44.34714" lon="3.58744">
        <ele>688.6</ele>
        <time>2022-10-28T08:28:01Z</time>
      </trkpt>
      <trkpt lat="44.34716" lon="3.58746">
        <ele>688.8</ele>
        <time>2022-10-28T08:28:02Z</time>
      </trkpt>
      <trkpt lat="44.34717" lon="3.58748">
        <ele>689</ele>
        <time>2022-10-28T08:28:03Z</time>
      </trkpt>
      <trkpt lat="44.34718" lon="3.5875">
        <ele>689.2</ele>
        <time>2022-10-28T08:28:04Z</time>
      </trkpt>
      <trkpt lat="44.3472" lon="3.58752">
        <ele>689.4</ele>
        <time>2022-10-28T08:28:05Z</time>
      </trkpt>
      <trkpt lat="44.34722" lon="3.58753">
        <ele>689.6</ele>
        <time>2022-10-28T08:28:06Z</time>
      </trkpt>
      <trkpt lat="44.34723" lon="3.58755">
        <ele>689.8</ele>
        <time>2022-10-28T08:28:07Z</time>
      </trkpt>
      <trkpt lat="44.34724" lon="3.58756">
        <ele>690</ele>
        <time>2022-10-28T08:28:08Z</time>
      </trkpt>
      <trkpt lat="44.34726" lon="3.58757">
        <ele>690.2</ele>
        <time>2022-10-28T08:28:09Z</time>
      </trkpt>
      <trkpt lat="44.34728" lon="3.58759">
        <ele>690.6</ele>
        <time>2022-10-28T08:28:10Z</time>
      </trkpt>
      <trkpt lat="44.3473" lon="3.5876">
        <ele>690.8</ele>
        <time>2022-10-28T08:28:11Z</time>
      </trkpt>
      <trkpt lat="44.34732" lon="3.58762">
        <ele>691</ele>
        <time>2022-10-28T08:28:12Z</time>
      </trkpt>
      <trkpt lat="44.34733" lon="3.58763">
        <ele>691.2</ele>
        <time>2022-10-28T08:28:13Z</time>
      </trkpt>
      <trkpt lat="44.34735" lon="3.58764">
        <ele>691.4</ele>
        <time>2022-10-28T08:28:14Z</time>
      </trkpt>
      <trkpt lat="44.34736" lon="3.58765">
        <ele>691.6</ele>
        <time>2022-10-28T08:28:15Z</time>
      </trkpt>
      <trkpt lat="44.34738" lon="3.58765">
        <ele>691.8</ele>
        <time>2022-10-28T08:28:16Z</time>
      </trkpt>
      <trkpt lat="44.34739" lon="3.58766">
        <ele>692</ele>
        <time>2022-10-28T08:28:17Z</time>
      </trkpt>
      <trkpt lat="44.34741" lon="3.58767">
        <ele>692.2</ele>
        <time>2022-10-28T08:28:18Z</time>
      </trkpt>
      <trkpt lat="44.34742" lon="3.58768">
        <ele>692.4</ele>
        <time>2022-10-28T08:28:19Z</time>
      </trkpt>
      <trkpt lat="44.34743" lon="3.5877">
        <ele>692.6</ele>
        <time>2022-10-28T08:28:20Z</time>
      </trkpt>
      <trkpt lat="44.34745" lon="3.58771">
        <ele>692.8</ele>
        <time>2022-10-28T08:28:21Z</time>
      </trkpt>
      <trkpt lat="44.34746" lon="3.58772">
        <ele>693.2</ele>
        <time>2022-10-28T08:28:22Z</time>
      </trkpt>
      <trkpt lat="44.34747" lon="3.58773">
        <ele>693.4</ele>
        <time>2022-10-28T08:28:23Z</time>
      </trkpt>
      <trkpt lat="44.34747" lon="3.58775">
        <ele>693.4</ele>
        <time>2022-10-28T08:28:24Z</time>
      </trkpt>
      <trkpt lat="44.34747" lon="3.58776">
        <ele>693.6</ele>
        <time>2022-10-28T08:28:25Z</time>
      </trkpt>
      <trkpt lat="44.34747" lon="3.58776">
        <ele>693.8</ele>
        <time>2022-10-28T08:28:28Z</time>
      </trkpt>
      <trkpt lat="44.34747" lon="3.58776">
        <ele>693.8</ele>
        <time>2022-10-28T08:28:29Z</time>
      </trkpt>
      <trkpt lat="44.34937" lon="3.58893">
        <ele>719.4</ele>
        <time>2022-10-28T08:33:48Z</time>
      </trkpt>
      <trkpt lat="44.34939" lon="3.58893">
        <ele>719.6</ele>
        <time>2022-10-28T08:33:49Z</time>
      </trkpt>
      <trkpt lat="44.34941" lon="3.58893">
        <ele>719.6</ele>
        <time>2022-10-28T08:33:50Z</time>
      </trkpt>
      <trkpt lat="44.34942" lon="3.58893">
        <ele>719.8</ele>
        <time>2022-10-28T08:33:51Z</time>
      </trkpt>
      <trkpt lat="44.34943" lon="3.58893">
        <ele>720</ele>
        <time>2022-10-28T08:33:52Z</time>
      </trkpt>
      <trkpt lat="44.34945" lon="3.58894">
        <ele>720.2</ele>
        <time>2022-10-28T08:33:53Z</time>
      </trkpt>
      <trkpt lat="44.34947" lon="3.58894">
        <ele>720.4</ele>
        <time>2022-10-28T08:33:54Z</time>
      </trkpt>
      <trkpt lat="44.34949" lon="3.58894">
        <ele>720.4</ele>
        <time>2022-10-28T08:33:55Z</time>
      </trkpt>
      <trkpt lat="44.3495" lon="3.58895">
        <ele>720.6</ele>
        <time>2022-10-28T08:33:56Z</time>
      </trkpt>
      <trkpt lat="44.34952" lon="3.58895">
        <ele>720.8</ele>
        <time>2022-10-28T08:33:57Z</time>
      </trkpt>
      <trkpt lat="44.34954" lon="3.58895">
        <ele>721</ele>
        <time>2022-10-28T08:33:58Z</time>
      </trkpt>
      <trkpt lat="44.34956" lon="3.58896">
        <ele>721.2</ele>
        <time>2022-10-28T08:33:59Z</time>
      </trkpt>
      <trkpt lat="44.34958" lon="3.58896">
        <ele>721.4</ele>
        <time>2022-10-28T08:34:00Z</time>
      </trkpt>
      <trkpt lat="44.34959" lon="3.58896">
        <ele>721.6</ele>
        <time>2022-10-28T08:34:01Z</time>
      </trkpt>
      <trkpt lat="44.34961" lon="3.58896">
        <ele>721.8</ele>
        <time>2022-10-28T08:34:02Z</time>
      </trkpt>
      <trkpt lat="44.34963" lon="3.58897">
        <ele>722</ele>
        <time>2022-10-28T08:34:03Z</time>
      </trkpt>
      <trkpt lat="44.34964" lon="3.58897">
        <ele>722.2</ele>
        <time>2022-10-28T08:34:04Z</time>
      </trkpt>
      <trkpt lat="44.34966" lon="3.58897">
        <ele>722.6</ele>
        <time>2022-10-28T08:34:05Z</time>
      </trkpt>
      <trkpt lat="44.34968" lon="3.58897">
        <ele>722.8</ele>
        <time>2022-10-28T08:34:06Z</time>
      </trkpt>
      <trkpt lat="44.3497" lon="3.58897">
        <ele>723.2</ele>
        <time>2022-10-28T08:34:07Z</time>
      </trkpt>
      <trkpt lat="44.34972" lon="3.58898">
        <ele>723.4</ele>
        <time>2022-10-28T08:34:08Z</time>
      </trkpt>
      <trkpt lat="44.34973" lon="3.58898">
        <ele>723.6</ele>
        <time>2022-10-28T08:34:09Z</time>
      </trkpt>
      <trkpt lat="44.34975" lon="3.58899">
        <ele>723.8</ele>
        <time>2022-10-28T08:34:10Z</time>
      </trkpt>
      <trkpt lat="44.34976" lon="3.589">
        <ele>724.2</ele>
        <time>2022-10-28T08:34:11Z</time>
      </trkpt>
      <trkpt lat="44.34978" lon="3.58901">
        <ele>724.4</ele>
        <time>2022-10-28T08:34:12Z</time>
      </trkpt>
      <trkpt lat="44.34979" lon="3.58903">
        <ele>724.6</ele>
        <time>2022-10-28T08:34:13Z</time>
      </trkpt>
      <trkpt lat="44.34981" lon="3.58904">
        <ele>725</ele>
        <time>2022-10-28T08:34:14Z</time>
      </trkpt>
      <trkpt lat="44.34982" lon="3.58906">
        <ele>725.2</ele>
        <time>2022-10-28T08:34:15Z</time>
      </trkpt>
      <trkpt lat="44.34983" lon="3.58908">
        <ele>725.4</ele>
        <time>2022-10-28T08:34:16Z</time>
      </trkpt>
      <trkpt lat="44.34984" lon="3.5891">
        <ele>725.6</ele>
        <time>2022-10-28T08:34:17Z</time>
      </trkpt>
      <trkpt lat="44.34985" lon="3.58912">
        <ele>725.8</ele>
        <time>2022-10-28T08:34:18Z</time>
      </trkpt>
      <trkpt lat="44.34985" lon="3.58914">
        <ele>726</ele>
        <time>2022-10-28T08:34:19Z</time>
      </trkpt>
      <trkpt lat="44.34984" lon="3.58916">
        <ele>726.2</ele>
        <time>2022-10-28T08:34:20Z</time>
      </trkpt>
      <trkpt lat="44.34984" lon="3.58919">
        <ele>726.4</ele>
        <time>2022-10-28T08:34:21Z</time>
      </trkpt>
      <trkpt lat="44.34983" lon="3.58922">
        <ele>726.6</ele>
        <time>2022-10-28T08:34:22Z</time>
      </trkpt>
      <trkpt lat="44.34983" lon="3.58924">
        <ele>726.8</ele>
        <time>2022-10-28T08:34:23Z</time>
      </trkpt>
      <trkpt lat="44.34982" lon="3.58926">
        <ele>727.2</ele>
        <time>2022-10-28T08:34:24Z</time>
      </trkpt>
      <trkpt lat="44.34982" lon="3.58929">
        <ele>727.4</ele>
        <time>2022-10-28T08:34:25Z</time>
      </trkpt>
      <trkpt lat="44.34982" lon="3.58931">
        <ele>727.6</ele>
        <time>2022-10-28T08:34:26Z</time>
      </trkpt>
      <trkpt lat="44.34983" lon="3.58933">
        <ele>727.8</ele>
        <time>2022-10-28T08:34:27Z</time>
      </trkpt>
      <trkpt lat="44.34983" lon="3.58935">
        <ele>728</ele>
        <time>2022-10-28T08:34:28Z</time>
      </trkpt>
      <trkpt lat="44.34983" lon="3.58937">
        <ele>728.2</ele>
        <time>2022-10-28T08:34:29Z</time>
      </trkpt>
      <trkpt lat="44.34983" lon="3.58939">
        <ele>728.4</ele>
        <time>2022-10-28T08:34:30Z</time>
      </trkpt>
      <trkpt lat="44.34983" lon="3.58941">
        <ele>728.6</ele>
        <time>2022-10-28T08:34:31Z</time>
      </trkpt>
      <trkpt lat="44.34983" lon="3.58943">
        <ele>728.8</ele>
        <time>2022-10-28T08:34:32Z</time>
      </trkpt>
      <trkpt lat="44.34983" lon="3.58945">
        <ele>729</ele>
        <time>2022-10-28T08:34:33Z</time>
      </trkpt>
      <trkpt lat="44.34983" lon="3.58947">
        <ele>729.2</ele>
        <time>2022-10-28T08:34:34Z</time>
      </trkpt>
      <trkpt lat="44.34984" lon="3.58949">
        <ele>729.4</ele>
        <time>2022-10-28T08:34:35Z</time>
      </trkpt>
      <trkpt lat="44.34985" lon="3.58952">
        <ele>729.6</ele>
        <time>2022-10-28T08:34:36Z</time>
      </trkpt>
      <trkpt lat="44.34985" lon="3.58954">
        <ele>730</ele>
        <time>2022-10-28T08:34:37Z</time>
      </trkpt>
      <trkpt lat="44.34986" lon="3.58956">
        <ele>730.2</ele>
        <time>2022-10-28T08:34:38Z</time>
      </trkpt>
      <trkpt lat="44.34987" lon="3.58958">
        <ele>730.4</ele>
        <time>2022-10-28T08:34:39Z</time>
      </trkpt>
      <trkpt lat="44.34987" lon="3.5896">
        <ele>730.6</ele>
        <time>2022-10-28T08:34:40Z</time>
      </trkpt>
      <trkpt lat="44.34988" lon="3.58962">
        <ele>730.8</ele>
        <time>2022-10-28T08:34:41Z</time>
      </trkpt>
      <trkpt lat="44.34989" lon="3.58964">
        <ele>731.2</ele>
        <time>2022-10-28T08:34:42Z</time>
      </trkpt>
      <trkpt lat="44.3499" lon="3.58967">
        <ele>731.4</ele>
        <time>2022-10-28T08:34:43Z</time>
      </trkpt>
      <trkpt lat="44.34991" lon="3.58969">
        <ele>731.6</ele>
        <time>2022-10-28T08:34:44Z</time>
      </trkpt>
      <trkpt lat="44.34992" lon="3.58971">
        <ele>731.8</ele>
        <time>2022-10-28T08:34:45Z</time>
      </trkpt>
      <trkpt lat="44.34992" lon="3.58973">
        <ele>732</ele>
        <time>2022-10-28T08:34:46Z</time>
      </trkpt>
      <trkpt lat="44.34994" lon="3.58974">
        <ele>732.2</ele>
        <time>2022-10-28T08:34:47Z</time>
      </trkpt>
      <trkpt lat="44.34995" lon="3.58976">
        <ele>732.4</ele>
        <time>2022-10-28T08:34:48Z</time>
      </trkpt>
      <trkpt lat="44.34995" lon="3.58977">
        <ele>732.6</ele>
        <time>2022-10-28T08:34:49Z</time>
      </trkpt>
      <trkpt lat="44.34997" lon="3.58979">
        <ele>732.8</ele>
        <time>2022-10-28T08:34:50Z</time>
      </trkpt>
      <trkpt lat="44.34998" lon="3.58981">
        <ele>733</ele>
        <time>2022-10-28T08:34:51Z</time>
      </trkpt>
      <trkpt lat="44.34999" lon="3.58982">
        <ele>733.2</ele>
        <time>2022-10-28T08:34:52Z</time>
      </trkpt>
      <trkpt lat="44.35" lon="3.58983">
        <ele>733.4</ele>
        <time>2022-10-28T08:34:53Z</time>
      </trkpt>
      <trkpt lat="44.35002" lon="3.58985">
        <ele>733.6</ele>
        <time>2022-10-28T08:34:54Z</time>
      </trkpt>
      <trkpt lat="44.35003" lon="3.58987">
        <ele>733.8</ele>
        <time>2022-10-28T08:34:55Z</time>
      </trkpt>
      <trkpt lat="44.35005" lon="3.58988">
        <ele>734</ele>
        <time>2022-10-28T08:34:56Z</time>
      </trkpt>
      <trkpt lat="44.35006" lon="3.5899">
        <ele>734.2</ele>
        <time>2022-10-28T08:34:57Z</time>
      </trkpt>
      <trkpt lat="44.35008" lon="3.58991">
        <ele>734.2</ele>
        <time>2022-10-28T08:34:58Z</time>
      </trkpt>
      <trkpt lat="44.35009" lon="3.58992">
        <ele>734.4</ele>
        <time>2022-10-28T08:34:59Z</time>
      </trkpt>
      <trkpt lat="44.35011" lon="3.58993">
        <ele>734.6</ele>
        <time>2022-10-28T08:35:00Z</time>
      </trkpt>
      <trkpt lat="44.35012" lon="3.58995">
        <ele>734.8</ele>
        <time>2022-10-28T08:35:01Z</time>
      </trkpt>
      <trkpt lat="44.35014" lon="3.58997">
        <ele>735</ele>
        <time>2022-10-28T08:35:02Z</time>
      </trkpt>
      <trkpt lat="44.35015" lon="3.58998">
        <ele>735.2</ele>
        <time>2022-10-28T08:35:03Z</time>
      </trkpt>
      <trkpt lat="44.35016" lon="3.58999">
        <ele>735.4</ele>
        <time>2022-10-28T08:35:04Z</time>
      </trkpt>
      <trkpt lat="44.35017" lon="3.59">
        <ele>735.6</ele>
        <time>2022-10-28T08:35:05Z</time>
      </trkpt>
      <trkpt lat="44.35019" lon="3.59001">
        <ele>735.8</ele>
        <time>2022-10-28T08:35:06Z</time>
      </trkpt>
      <trkpt lat="44.3502" lon="3.59002">
        <ele>736</ele>
        <time>2022-10-28T08:35:07Z</time>
      </trkpt>
      <trkpt lat="44.35021" lon="3.59003">
        <ele>736.2</ele>
        <time>2022-10-28T08:35:08Z</time>
      </trkpt>
      <trkpt lat="44.35022" lon="3.59004">
        <ele>736.4</ele>
        <time>2022-10-28T08:35:09Z</time>
      </trkpt>
      <trkpt lat="44.35024" lon="3.59004">
        <ele>736.6</ele>
        <time>2022-10-28T08:35:10Z</time>
      </trkpt>
      <trkpt lat="44.35025" lon="3.59005">
        <ele>736.8</ele>
        <time>2022-10-28T08:35:11Z</time>
      </trkpt>
      <trkpt lat="44.35027" lon="3.59006">
        <ele>737</ele>
        <time>2022-10-28T08:35:12Z</time>
      </trkpt>
      <trkpt lat="44.35028" lon="3.59006">
        <ele>737.2</ele>
        <time>2022-10-28T08:35:13Z</time>
      </trkpt>
      <trkpt lat="44.3503" lon="3.59007">
        <ele>737.4</ele>
        <time>2022-10-28T08:35:14Z</time>
      </trkpt>
      <trkpt lat="44.35031" lon="3.59008">
        <ele>737.6</ele>
        <time>2022-10-28T08:35:15Z</time>
      </trkpt>
      <trkpt lat="44.35034" lon="3.5901">
        <ele>737.8</ele>
        <time>2022-10-28T08:35:16Z</time>
      </trkpt>
      <trkpt lat="44.35035" lon="3.59011">
        <ele>737.8</ele>
        <time>2022-10-28T08:35:17Z</time>
      </trkpt>
      <trkpt lat="44.35037" lon="3.59012">
        <ele>738</ele>
        <time>2022-10-28T08:35:18Z</time>
      </trkpt>
      <trkpt lat="44.35039" lon="3.59013">
        <ele>738.2</ele>
        <time>2022-10-28T08:35:19Z</time>
      </trkpt>
      <trkpt lat="44.35041" lon="3.59014">
        <ele>738.4</ele>
        <time>2022-10-28T08:35:20Z</time>
      </trkpt>
      <trkpt lat="44.35043" lon="3.59014">
        <ele>738.6</ele>
        <time>2022-10-28T08:35:21Z</time>
      </trkpt>
      <trkpt lat="44.35044" lon="3.59015">
        <ele>738.8</ele>
        <time>2022-10-28T08:35:22Z</time>
      </trkpt>
      <trkpt lat="44.35045" lon="3.59015">
        <ele>739</ele>
        <time>2022-10-28T08:35:23Z</time>
      </trkpt>
      <trkpt lat="44.35047" lon="3.59016">
        <ele>739.2</ele>
        <time>2022-10-28T08:35:24Z</time>
      </trkpt>
      <trkpt lat="44.35055" lon="3.59017">
        <ele>739.8</ele>
        <time>2022-10-28T08:37:45Z</time>
      </trkpt>
      <trkpt lat="44.35056" lon="3.59017">
        <ele>739.8</ele>
        <time>2022-10-28T08:37:46Z</time>
      </trkpt>
      <trkpt lat="44.35057" lon="3.59017">
        <ele>739.8</ele>
        <time>2022-10-28T08:37:47Z</time>
      </trkpt>
      <trkpt lat="44.35059" lon="3.59017">
        <ele>740</ele>
        <time>2022-10-28T08:37:48Z</time>
      </trkpt>
      <trkpt lat="44.3506" lon="3.59017">
        <ele>740</ele>
        <time>2022-10-28T08:37:49Z</time>
      </trkpt>
      <trkpt lat="44.35062" lon="3.59018">
        <ele>740.2</ele>
        <time>2022-10-28T08:37:50Z</time>
      </trkpt>
      <trkpt lat="44.35063" lon="3.59018">
        <ele>740.4</ele>
        <time>2022-10-28T08:37:51Z</time>
      </trkpt>
      <trkpt lat="44.35064" lon="3.59019">
        <ele>740.6</ele>
        <time>2022-10-28T08:37:52Z</time>
      </trkpt>
      <trkpt lat="44.35066" lon="3.59019">
        <ele>741</ele>
        <time>2022-10-28T08:37:53Z</time>
      </trkpt>
      <trkpt lat="44.35067" lon="3.59019">
        <ele>741.2</ele>
        <time>2022-10-28T08:37:54Z</time>
      </trkpt>
      <trkpt lat="44.35068" lon="3.59019">
        <ele>741.4</ele>
        <time>2022-10-28T08:37:55Z</time>
      </trkpt>
      <trkpt lat="44.3507" lon="3.59019">
        <ele>741.6</ele>
        <time>2022-10-28T08:37:56Z</time>
      </trkpt>
      <trkpt lat="44.35071" lon="3.59019">
        <ele>741.8</ele>
        <time>2022-10-28T08:37:57Z</time>
      </trkpt>
      <trkpt lat="44.35073" lon="3.59018">
        <ele>741.8</ele>
        <time>2022-10-28T08:37:58Z</time>
      </trkpt>
      <trkpt lat="44.35074" lon="3.59019">
        <ele>742</ele>
        <time>2022-10-28T08:37:59Z</time>
      </trkpt>
      <trkpt lat="44.35076" lon="3.59019">
        <ele>742.2</ele>
        <time>2022-10-28T08:38:00Z</time>
      </trkpt>
      <trkpt lat="44.35077" lon="3.5902">
        <ele>742.4</ele>
        <time>2022-10-28T08:38:01Z</time>
      </trkpt>
      <trkpt lat="44.35079" lon="3.5902">
        <ele>742.6</ele>
        <time>2022-10-28T08:38:02Z</time>
      </trkpt>
      <trkpt lat="44.3508" lon="3.59021">
        <ele>742.8</ele>
        <time>2022-10-28T08:38:03Z</time>
      </trkpt>
      <trkpt lat="44.35082" lon="3.59021">
        <ele>743</ele>
        <time>2022-10-28T08:38:04Z</time>
      </trkpt>
      <trkpt lat="44.35083" lon="3.59022">
        <ele>743.4</ele>
        <time>2022-10-28T08:38:05Z</time>
      </trkpt>
      <trkpt lat="44.35085" lon="3.59022">
        <ele>743.6</ele>
        <time>2022-10-28T08:38:06Z</time>
      </trkpt>
      <trkpt lat="44.35086" lon="3.59023">
        <ele>743.8</ele>
        <time>2022-10-28T08:38:07Z</time>
      </trkpt>
      <trkpt lat="44.35088" lon="3.59023">
        <ele>744</ele>
        <time>2022-10-28T08:38:08Z</time>
      </trkpt>
      <trkpt lat="44.35089" lon="3.59024">
        <ele>744.2</ele>
        <time>2022-10-28T08:38:09Z</time>
      </trkpt>
      <trkpt lat="44.35091" lon="3.59024">
        <ele>744.4</ele>
        <time>2022-10-28T08:38:10Z</time>
      </trkpt>
      <trkpt lat="44.35092" lon="3.59024">
        <ele>744.6</ele>
        <time>2022-10-28T08:38:11Z</time>
      </trkpt>
      <trkpt lat="44.35093" lon="3.59025">
        <ele>745</ele>
        <time>2022-10-28T08:38:12Z</time>
      </trkpt>
      <trkpt lat="44.35095" lon="3.59025">
        <ele>745.2</ele>
        <time>2022-10-28T08:38:13Z</time>
      </trkpt>
      <trkpt lat="44.35096" lon="3.59026">
        <ele>745.4</ele>
        <time>2022-10-28T08:38:14Z</time>
      </trkpt>
      <trkpt lat="44.35097" lon="3.59027">
        <ele>745.8</ele>
        <time>2022-10-28T08:38:15Z</time>
      </trkpt>
      <trkpt lat="44.35098" lon="3.59028">
        <ele>746</ele>
        <time>2022-10-28T08:38:16Z</time>
      </trkpt>
      <trkpt lat="44.351" lon="3.59028">
        <ele>746.2</ele>
        <time>2022-10-28T08:38:17Z</time>
      </trkpt>
      <trkpt lat="44.35101" lon="3.59029">
        <ele>746.4</ele>
        <time>2022-10-28T08:38:18Z</time>
      </trkpt>
      <trkpt lat="44.35102" lon="3.5903">
        <ele>746.6</ele>
        <time>2022-10-28T08:38:19Z</time>
      </trkpt>
      <trkpt lat="44.35103" lon="3.5903">
        <ele>746.8</ele>
        <time>2022-10-28T08:38:20Z</time>
      </trkpt>
      <trkpt lat="44.35104" lon="3.59031">
        <ele>747</ele>
        <time>2022-10-28T08:38:21Z</time>
      </trkpt>
      <trkpt lat="44.35106" lon="3.59032">
        <ele>747.2</ele>
        <time>2022-10-28T08:38:22Z</time>
      </trkpt>
      <trkpt lat="44.35107" lon="3.59033">
        <ele>747.4</ele>
        <time>2022-10-28T08:38:23Z</time>
      </trkpt>
      <trkpt lat="44.35108" lon="3.59033">
        <ele>747.6</ele>
        <time>2022-10-28T08:38:24Z</time>
      </trkpt>
      <trkpt lat="44.35109" lon="3.59034">
        <ele>747.8</ele>
        <time>2022-10-28T08:38:25Z</time>
      </trkpt>
      <trkpt lat="44.3511" lon="3.59035">
        <ele>748</ele>
        <time>2022-10-28T08:38:26Z</time>
      </trkpt>
      <trkpt lat="44.35112" lon="3.59036">
        <ele>748.2</ele>
        <time>2022-10-28T08:38:27Z</time>
      </trkpt>
      <trkpt lat="44.35113" lon="3.59036">
        <ele>748.4</ele>
        <time>2022-10-28T08:38:28Z</time>
      </trkpt>
      <trkpt lat="44.35114" lon="3.59037">
        <ele>748.6</ele>
        <time>2022-10-28T08:38:29Z</time>
      </trkpt>
      <trkpt lat="44.35115" lon="3.59038">
        <ele>748.8</ele>
        <time>2022-10-28T08:38:30Z</time>
      </trkpt>
      <trkpt lat="44.35117" lon="3.59039">
        <ele>749.2</ele>
        <time>2022-10-28T08:38:31Z</time>
      </trkpt>
      <trkpt lat="44.35118" lon="3.59039">
        <ele>749.2</ele>
        <time>2022-10-28T08:38:32Z</time>
      </trkpt>
      <trkpt lat="44.35119" lon="3.5904">
        <ele>749.4</ele>
        <time>2022-10-28T08:38:33Z</time>
      </trkpt>
      <trkpt lat="44.3512" lon="3.59041">
        <ele>749.6</ele>
        <time>2022-10-28T08:38:34Z</time>
      </trkpt>
      <trkpt lat="44.35121" lon="3.59042">
        <ele>749.8</ele>
        <time>2022-10-28T08:38:35Z</time>
      </trkpt>
      <trkpt lat="44.35122" lon="3.59042">
        <ele>750</ele>
        <time>2022-10-28T08:38:36Z</time>
      </trkpt>
      <trkpt lat="44.35123" lon="3.59043">
        <ele>750.2</ele>
        <time>2022-10-28T08:38:37Z</time>
      </trkpt>
      <trkpt lat="44.35124" lon="3.59043">
        <ele>750.4</ele>
        <time>2022-10-28T08:38:38Z</time>
      </trkpt>
      <trkpt lat="44.35126" lon="3.59044">
        <ele>750.6</ele>
        <time>2022-10-28T08:38:39Z</time>
      </trkpt>
      <trkpt lat="44.35127" lon="3.59045">
        <ele>750.8</ele>
        <time>2022-10-28T08:38:40Z</time>
      </trkpt>
      <trkpt lat="44.35128" lon="3.59046">
        <ele>751</ele>
        <time>2022-10-28T08:38:41Z</time>
      </trkpt>
      <trkpt lat="44.35129" lon="3.59047">
        <ele>751.2</ele>
        <time>2022-10-28T08:38:42Z</time>
      </trkpt>
      <trkpt lat="44.35131" lon="3.59048">
        <ele>751.4</ele>
        <time>2022-10-28T08:38:43Z</time>
      </trkpt>
      <trkpt lat="44.35132" lon="3.59049">
        <ele>751.6</ele>
        <time>2022-10-28T08:38:44Z</time>
      </trkpt>
      <trkpt lat="44.35133" lon="3.5905">
        <ele>751.8</ele>
        <time>2022-10-28T08:38:45Z</time>
      </trkpt>
      <trkpt lat="44.35134" lon="3.5905">
        <ele>752</ele>
        <time>2022-10-28T08:38:46Z</time>
      </trkpt>
      <trkpt lat="44.35135" lon="3.59051">
        <ele>752.2</ele>
        <time>2022-10-28T08:38:47Z</time>
      </trkpt>
      <trkpt lat="44.35136" lon="3.59052">
        <ele>752.4</ele>
        <time>2022-10-28T08:38:48Z</time>
      </trkpt>
      <trkpt lat="44.35138" lon="3.59052">
        <ele>752.6</ele>
        <time>2022-10-28T08:38:49Z</time>
      </trkpt>
      <trkpt lat="44.35139" lon="3.59053">
        <ele>752.6</ele>
        <time>2022-10-28T08:38:50Z</time>
      </trkpt>
      <trkpt lat="44.3514" lon="3.59054">
        <ele>752.8</ele>
        <time>2022-10-28T08:38:51Z</time>
      </trkpt>
      <trkpt lat="44.35141" lon="3.59055">
        <ele>753</ele>
        <time>2022-10-28T08:38:52Z</time>
      </trkpt>
      <trkpt lat="44.35143" lon="3.59055">
        <ele>753.4</ele>
        <time>2022-10-28T08:38:53Z</time>
      </trkpt>
      <trkpt lat="44.35144" lon="3.59056">
        <ele>753.6</ele>
        <time>2022-10-28T08:38:54Z</time>
      </trkpt>
      <trkpt lat="44.35145" lon="3.59056">
        <ele>753.8</ele>
        <time>2022-10-28T08:38:55Z</time>
      </trkpt>
      <trkpt lat="44.35146" lon="3.59057">
        <ele>754</ele>
        <time>2022-10-28T08:38:56Z</time>
      </trkpt>
      <trkpt lat="44.35148" lon="3.59058">
        <ele>754.4</ele>
        <time>2022-10-28T08:38:57Z</time>
      </trkpt>
      <trkpt lat="44.35149" lon="3.59058">
        <ele>754.6</ele>
        <time>2022-10-28T08:38:58Z</time>
      </trkpt>
      <trkpt lat="44.3515" lon="3.59059">
        <ele>754.8</ele>
        <time>2022-10-28T08:38:59Z</time>
      </trkpt>
      <trkpt lat="44.35152" lon="3.5906">
        <ele>755</ele>
        <time>2022-10-28T08:39:00Z</time>
      </trkpt>
      <trkpt lat="44.35153" lon="3.5906">
        <ele>755.2</ele>
        <time>2022-10-28T08:39:01Z</time>
      </trkpt>
      <trkpt lat="44.35154" lon="3.59061">
        <ele>755.6</ele>
        <time>2022-10-28T08:39:02Z</time>
      </trkpt>
      <trkpt lat="44.35156" lon="3.59061">
        <ele>755.8</ele>
        <time>2022-10-28T08:39:03Z</time>
      </trkpt>
      <trkpt lat="44.35157" lon="3.59062">
        <ele>756</ele>
        <time>2022-10-28T08:39:04Z</time>
      </trkpt>
      <trkpt lat="44.35158" lon="3.59062">
        <ele>756.2</ele>
        <time>2022-10-28T08:39:05Z</time>
      </trkpt>
      <trkpt lat="44.35159" lon="3.59063">
        <ele>756.4</ele>
        <time>2022-10-28T08:39:06Z</time>
      </trkpt>
      <trkpt lat="44.3516" lon="3.59064">
        <ele>756.6</ele>
        <time>2022-10-28T08:39:07Z</time>
      </trkpt>
      <trkpt lat="44.35161" lon="3.59065">
        <ele>756.8</ele>
        <time>2022-10-28T08:39:08Z</time>
      </trkpt>
      <trkpt lat="44.35163" lon="3.59066">
        <ele>757</ele>
        <time>2022-10-28T08:39:09Z</time>
      </trkpt>
      <trkpt lat="44.35164" lon="3.59067">
        <ele>757.2</ele>
        <time>2022-10-28T08:39:10Z</time>
      </trkpt>
      <trkpt lat="44.35165" lon="3.59068">
        <ele>757.4</ele>
        <time>2022-10-28T08:39:11Z</time>
      </trkpt>
      <trkpt lat="44.35166" lon="3.5907">
        <ele>757.6</ele>
        <time>2022-10-28T08:39:12Z</time>
      </trkpt>
      <trkpt lat="44.35167" lon="3.59071">
        <ele>757.8</ele>
        <time>2022-10-28T08:39:13Z</time>
      </trkpt>
      <trkpt lat="44.35168" lon="3.59072">
        <ele>758</ele>
        <time>2022-10-28T08:39:14Z</time>
      </trkpt>
      <trkpt lat="44.35169" lon="3.59074">
        <ele>758.4</ele>
        <time>2022-10-28T08:39:15Z</time>
      </trkpt>
      <trkpt lat="44.3517" lon="3.59075">
        <ele>758.6</ele>
        <time>2022-10-28T08:39:16Z</time>
      </trkpt>
      <trkpt lat="44.3517" lon="3.59077">
        <ele>758.8</ele>
        <time>2022-10-28T08:39:17Z</time>
      </trkpt>
      <trkpt lat="44.35171" lon="3.59078">
        <ele>759</ele>
        <time>2022-10-28T08:39:18Z</time>
      </trkpt>
      <trkpt lat="44.35172" lon="3.59079">
        <ele>759.4</ele>
        <time>2022-10-28T08:39:19Z</time>
      </trkpt>
      <trkpt lat="44.35172" lon="3.59081">
        <ele>759.6</ele>
        <time>2022-10-28T08:39:20Z</time>
      </trkpt>
      <trkpt lat="44.35173" lon="3.59082">
        <ele>759.8</ele>
        <time>2022-10-28T08:39:21Z</time>
      </trkpt>
      <trkpt lat="44.35173" lon="3.59084">
        <ele>760</ele>
        <time>2022-10-28T08:39:22Z</time>
      </trkpt>
      <trkpt lat="44.35173" lon="3.59086">
        <ele>760.4</ele>
        <time>2022-10-28T08:39:23Z</time>
      </trkpt>
      <trkpt lat="44.35173" lon="3.59087">
        <ele>760.6</ele>
        <time>2022-10-28T08:39:24Z</time>
      </trkpt>
      <trkpt lat="44.35174" lon="3.59089">
        <ele>760.8</ele>
        <time>2022-10-28T08:39:25Z</time>
      </trkpt>
      <trkpt lat="44.35174" lon="3.59091">
        <ele>761.2</ele>
        <time>2022-10-28T08:39:26Z</time>
      </trkpt>
      <trkpt lat="44.35175" lon="3.59092">
        <ele>761.4</ele>
        <time>2022-10-28T08:39:27Z</time>
      </trkpt>
      <trkpt lat="44.35175" lon="3.59094">
        <ele>761.6</ele>
        <time>2022-10-28T08:39:28Z</time>
      </trkpt>
      <trkpt lat="44.35176" lon="3.59095">
        <ele>762</ele>
        <time>2022-10-28T08:39:29Z</time>
      </trkpt>
      <trkpt lat="44.35176" lon="3.59096">
        <ele>762.2</ele>
        <time>2022-10-28T08:39:30Z</time>
      </trkpt>
      <trkpt lat="44.35177" lon="3.59098">
        <ele>762.4</ele>
        <time>2022-10-28T08:39:31Z</time>
      </trkpt>
      <trkpt lat="44.35177" lon="3.591">
        <ele>762.4</ele>
        <time>2022-10-28T08:39:32Z</time>
      </trkpt>
      <trkpt lat="44.35177" lon="3.59102">
        <ele>762.6</ele>
        <time>2022-10-28T08:39:33Z</time>
      </trkpt>
      <trkpt lat="44.35177" lon="3.59103">
        <ele>762.8</ele>
        <time>2022-10-28T08:39:34Z</time>
      </trkpt>
      <trkpt lat="44.35177" lon="3.59105">
        <ele>763.2</ele>
        <time>2022-10-28T08:39:35Z</time>
      </trkpt>
      <trkpt lat="44.35177" lon="3.59106">
        <ele>763.4</ele>
        <time>2022-10-28T08:39:36Z</time>
      </trkpt>
      <trkpt lat="44.35178" lon="3.59108">
        <ele>763.6</ele>
        <time>2022-10-28T08:39:37Z</time>
      </trkpt>
      <trkpt lat="44.35178" lon="3.59109">
        <ele>763.8</ele>
        <time>2022-10-28T08:39:38Z</time>
      </trkpt>
      <trkpt lat="44.35179" lon="3.5911">
        <ele>764</ele>
        <time>2022-10-28T08:39:39Z</time>
      </trkpt>
      <trkpt lat="44.3518" lon="3.59111">
        <ele>764.2</ele>
        <time>2022-10-28T08:39:40Z</time>
      </trkpt>
      <trkpt lat="44.35181" lon="3.59113">
        <ele>764.4</ele>
        <time>2022-10-28T08:39:41Z</time>
      </trkpt>
      <trkpt lat="44.35182" lon="3.59114">
        <ele>764.6</ele>
        <time>2022-10-28T08:39:42Z</time>
      </trkpt>
      <trkpt lat="44.35183" lon="3.59114">
        <ele>764.8</ele>
        <time>2022-10-28T08:39:43Z</time>
      </trkpt>
      <trkpt lat="44.35184" lon="3.59114">
        <ele>765</ele>
        <time>2022-10-28T08:39:44Z</time>
      </trkpt>
      <trkpt lat="44.35186" lon="3.59114">
        <ele>765.2</ele>
        <time>2022-10-28T08:39:45Z</time>
      </trkpt>
      <trkpt lat="44.35187" lon="3.59113">
        <ele>765.4</ele>
        <time>2022-10-28T08:39:46Z</time>
      </trkpt>
      <trkpt lat="44.35188" lon="3.59113">
        <ele>765.6</ele>
        <time>2022-10-28T08:39:47Z</time>
      </trkpt>
      <trkpt lat="44.35189" lon="3.59112">
        <ele>765.8</ele>
        <time>2022-10-28T08:39:48Z</time>
      </trkpt>
      <trkpt lat="44.3519" lon="3.5911">
        <ele>766</ele>
        <time>2022-10-28T08:39:49Z</time>
      </trkpt>
      <trkpt lat="44.35191" lon="3.59109">
        <ele>766</ele>
        <time>2022-10-28T08:39:50Z</time>
      </trkpt>
      <trkpt lat="44.35191" lon="3.59107">
        <ele>766.2</ele>
        <time>2022-10-28T08:39:51Z</time>
      </trkpt>
      <trkpt lat="44.35192" lon="3.59105">
        <ele>766.4</ele>
        <time>2022-10-28T08:39:52Z</time>
      </trkpt>
      <trkpt lat="44.35192" lon="3.59103">
        <ele>766.6</ele>
        <time>2022-10-28T08:39:53Z</time>
      </trkpt>
      <trkpt lat="44.35192" lon="3.59101">
        <ele>766.8</ele>
        <time>2022-10-28T08:39:54Z</time>
      </trkpt>
      <trkpt lat="44.35192" lon="3.59099">
        <ele>767</ele>
        <time>2022-10-28T08:39:55Z</time>
      </trkpt>
      <trkpt lat="44.35192" lon="3.59097">
        <ele>767.2</ele>
        <time>2022-10-28T08:39:56Z</time>
      </trkpt>
      <trkpt lat="44.35192" lon="3.59095">
        <ele>767.4</ele>
        <time>2022-10-28T08:39:57Z</time>
      </trkpt>
      <trkpt lat="44.35192" lon="3.59093">
        <ele>767.8</ele>
        <time>2022-10-28T08:39:58Z</time>
      </trkpt>
      <trkpt lat="44.35192" lon="3.59091">
        <ele>768</ele>
        <time>2022-10-28T08:39:59Z</time>
      </trkpt>
      <trkpt lat="44.35192" lon="3.59089">
        <ele>768.2</ele>
        <time>2022-10-28T08:40:00Z</time>
      </trkpt>
      <trkpt lat="44.35192" lon="3.59088">
        <ele>768.4</ele>
        <time>2022-10-28T08:40:01Z</time>
      </trkpt>
      <trkpt lat="44.35193" lon="3.59086">
        <ele>768.8</ele>
        <time>2022-10-28T08:40:02Z</time>
      </trkpt>
      <trkpt lat="44.35193" lon="3.59084">
        <ele>769</ele>
        <time>2022-10-28T08:40:03Z</time>
      </trkpt>
      <trkpt lat="44.35193" lon="3.59082">
        <ele>769.2</ele>
        <time>2022-10-28T08:40:04Z</time>
      </trkpt>
      <trkpt lat="44.35193" lon="3.59081">
        <ele>769.4</ele>
        <time>2022-10-28T08:40:05Z</time>
      </trkpt>
      <trkpt lat="44.35194" lon="3.59079">
        <ele>769.6</ele>
        <time>2022-10-28T08:40:06Z</time>
      </trkpt>
      <trkpt lat="44.35194" lon="3.59077">
        <ele>769.8</ele>
        <time>2022-10-28T08:40:07Z</time>
      </trkpt>
      <trkpt lat="44.35194" lon="3.59076">
        <ele>770</ele>
        <time>2022-10-28T08:40:08Z</time>
      </trkpt>
      <trkpt lat="44.35194" lon="3.59074">
        <ele>770.2</ele>
        <time>2022-10-28T08:40:09Z</time>
      </trkpt>
      <trkpt lat="44.35195" lon="3.59072">
        <ele>770.4</ele>
        <time>2022-10-28T08:40:10Z</time>
      </trkpt>
      <trkpt lat="44.35195" lon="3.5907">
        <ele>770.6</ele>
        <time>2022-10-28T08:40:11Z</time>
      </trkpt>
      <trkpt lat="44.35195" lon="3.59069">
        <ele>770.8</ele>
        <time>2022-10-28T08:40:12Z</time>
      </trkpt>
      <trkpt lat="44.35196" lon="3.59067">
        <ele>771</ele>
        <time>2022-10-28T08:40:13Z</time>
      </trkpt>
      <trkpt lat="44.35196" lon="3.59065">
        <ele>771.2</ele>
        <time>2022-10-28T08:40:14Z</time>
      </trkpt>
      <trkpt lat="44.35196" lon="3.59063">
        <ele>771.4</ele>
        <time>2022-10-28T08:40:15Z</time>
      </trkpt>
      <trkpt lat="44.35197" lon="3.59062">
        <ele>771.4</ele>
        <time>2022-10-28T08:40:16Z</time>
      </trkpt>
      <trkpt lat="44.35197" lon="3.5906">
        <ele>771.6</ele>
        <time>2022-10-28T08:40:17Z</time>
      </trkpt>
      <trkpt lat="44.35197" lon="3.59058">
        <ele>771.8</ele>
        <time>2022-10-28T08:40:18Z</time>
      </trkpt>
      <trkpt lat="44.35197" lon="3.59056">
        <ele>772</ele>
        <time>2022-10-28T08:40:19Z</time>
      </trkpt>
      <trkpt lat="44.35197" lon="3.59054">
        <ele>772.2</ele>
        <time>2022-10-28T08:40:20Z</time>
      </trkpt>
      <trkpt lat="44.35197" lon="3.59053">
        <ele>772.4</ele>
        <time>2022-10-28T08:40:21Z</time>
      </trkpt>
      <trkpt lat="44.35198" lon="3.59051">
        <ele>772.6</ele>
        <time>2022-10-28T08:40:22Z</time>
      </trkpt>
      <trkpt lat="44.35198" lon="3.59049">
        <ele>772.8</ele>
        <time>2022-10-28T08:40:23Z</time>
      </trkpt>
      <trkpt lat="44.35198" lon="3.59047">
        <ele>773</ele>
        <time>2022-10-28T08:40:24Z</time>
      </trkpt>
      <trkpt lat="44.35198" lon="3.59046">
        <ele>773.2</ele>
        <time>2022-10-28T08:40:25Z</time>
      </trkpt>
      <trkpt lat="44.35198" lon="3.59044">
        <ele>773.4</ele>
        <time>2022-10-28T08:40:26Z</time>
      </trkpt>
      <trkpt lat="44.35198" lon="3.59042">
        <ele>773.6</ele>
        <time>2022-10-28T08:40:27Z</time>
      </trkpt>
      <trkpt lat="44.35198" lon="3.59041">
        <ele>773.8</ele>
        <time>2022-10-28T08:40:28Z</time>
      </trkpt>
      <trkpt lat="44.35199" lon="3.59039">
        <ele>774</ele>
        <time>2022-10-28T08:40:29Z</time>
      </trkpt>
      <trkpt lat="44.352" lon="3.59038">
        <ele>774.2</ele>
        <time>2022-10-28T08:40:30Z</time>
      </trkpt>
      <trkpt lat="44.35201" lon="3.59038">
        <ele>774.4</ele>
        <time>2022-10-28T08:40:31Z</time>
      </trkpt>
      <trkpt lat="44.35203" lon="3.59038">
        <ele>774.4</ele>
        <time>2022-10-28T08:40:32Z</time>
      </trkpt>
      <trkpt lat="44.35204" lon="3.59039">
        <ele>774.6</ele>
        <time>2022-10-28T08:40:33Z</time>
      </trkpt>
      <trkpt lat="44.35205" lon="3.5904">
        <ele>774.6</ele>
        <time>2022-10-28T08:40:34Z</time>
      </trkpt>
      <trkpt lat="44.35207" lon="3.59041">
        <ele>774.8</ele>
        <time>2022-10-28T08:40:35Z</time>
      </trkpt>
      <trkpt lat="44.35207" lon="3.59043">
        <ele>774.8</ele>
        <time>2022-10-28T08:40:36Z</time>
      </trkpt>
      <trkpt lat="44.35208" lon="3.59045">
        <ele>775</ele>
        <time>2022-10-28T08:40:37Z</time>
      </trkpt>
      <trkpt lat="44.35209" lon="3.59046">
        <ele>775.2</ele>
        <time>2022-10-28T08:40:38Z</time>
      </trkpt>
      <trkpt lat="44.3521" lon="3.59048">
        <ele>775.4</ele>
        <time>2022-10-28T08:40:39Z</time>
      </trkpt>
      <trkpt lat="44.3521" lon="3.5905">
        <ele>775.6</ele>
        <time>2022-10-28T08:40:40Z</time>
      </trkpt>
      <trkpt lat="44.3521" lon="3.59052">
        <ele>775.8</ele>
        <time>2022-10-28T08:40:41Z</time>
      </trkpt>
      <trkpt lat="44.35211" lon="3.59054">
        <ele>775.8</ele>
        <time>2022-10-28T08:40:42Z</time>
      </trkpt>
      <trkpt lat="44.35212" lon="3.59055">
        <ele>776</ele>
        <time>2022-10-28T08:40:43Z</time>
      </trkpt>
      <trkpt lat="44.35212" lon="3.59057">
        <ele>776.2</ele>
        <time>2022-10-28T08:40:44Z</time>
      </trkpt>
      <trkpt lat="44.35213" lon="3.59058">
        <ele>776.4</ele>
        <time>2022-10-28T08:40:45Z</time>
      </trkpt>
      <trkpt lat="44.35214" lon="3.5906">
        <ele>776.6</ele>
        <time>2022-10-28T08:40:46Z</time>
      </trkpt>
      <trkpt lat="44.35214" lon="3.59062">
        <ele>776.8</ele>
        <time>2022-10-28T08:40:47Z</time>
      </trkpt>
      <trkpt lat="44.35214" lon="3.59064">
        <ele>777.2</ele>
        <time>2022-10-28T08:40:48Z</time>
      </trkpt>
      <trkpt lat="44.35215" lon="3.59065">
        <ele>777.2</ele>
        <time>2022-10-28T08:40:49Z</time>
      </trkpt>
      <trkpt lat="44.35215" lon="3.59067">
        <ele>777.4</ele>
        <time>2022-10-28T08:40:50Z</time>
      </trkpt>
      <trkpt lat="44.35216" lon="3.59069">
        <ele>777.6</ele>
        <time>2022-10-28T08:40:51Z</time>
      </trkpt>
      <trkpt lat="44.35216" lon="3.59071">
        <ele>777.8</ele>
        <time>2022-10-28T08:40:52Z</time>
      </trkpt>
      <trkpt lat="44.35217" lon="3.59073">
        <ele>778.2</ele>
        <time>2022-10-28T08:40:53Z</time>
      </trkpt>
      <trkpt lat="44.35218" lon="3.59074">
        <ele>778.4</ele>
        <time>2022-10-28T08:40:54Z</time>
      </trkpt>
      <trkpt lat="44.35218" lon="3.59076">
        <ele>778.6</ele>
        <time>2022-10-28T08:40:55Z</time>
      </trkpt>
      <trkpt lat="44.35218" lon="3.59078">
        <ele>778.8</ele>
        <time>2022-10-28T08:40:56Z</time>
      </trkpt>
      <trkpt lat="44.35219" lon="3.5908">
        <ele>779</ele>
        <time>2022-10-28T08:40:57Z</time>
      </trkpt>
      <trkpt lat="44.35219" lon="3.59082">
        <ele>779.2</ele>
        <time>2022-10-28T08:40:58Z</time>
      </trkpt>
      <trkpt lat="44.3522" lon="3.59083">
        <ele>779.4</ele>
        <time>2022-10-28T08:40:59Z</time>
      </trkpt>
      <trkpt lat="44.35221" lon="3.59085">
        <ele>779.6</ele>
        <time>2022-10-28T08:41:00Z</time>
      </trkpt>
      <trkpt lat="44.35222" lon="3.59086">
        <ele>779.8</ele>
        <time>2022-10-28T08:41:01Z</time>
      </trkpt>
      <trkpt lat="44.35223" lon="3.59087">
        <ele>780</ele>
        <time>2022-10-28T08:41:02Z</time>
      </trkpt>
      <trkpt lat="44.35224" lon="3.59088">
        <ele>780.2</ele>
        <time>2022-10-28T08:41:03Z</time>
      </trkpt>
      <trkpt lat="44.35226" lon="3.59088">
        <ele>780.4</ele>
        <time>2022-10-28T08:41:04Z</time>
      </trkpt>
      <trkpt lat="44.35227" lon="3.59087">
        <ele>780.6</ele>
        <time>2022-10-28T08:41:05Z</time>
      </trkpt>
      <trkpt lat="44.35229" lon="3.59087">
        <ele>780.8</ele>
        <time>2022-10-28T08:41:06Z</time>
      </trkpt>
      <trkpt lat="44.3523" lon="3.59086">
        <ele>781</ele>
        <time>2022-10-28T08:41:07Z</time>
      </trkpt>
      <trkpt lat="44.35231" lon="3.59085">
        <ele>781.2</ele>
        <time>2022-10-28T08:41:08Z</time>
      </trkpt>
      <trkpt lat="44.35232" lon="3.59084">
        <ele>781.2</ele>
        <time>2022-10-28T08:41:09Z</time>
      </trkpt>
      <trkpt lat="44.35232" lon="3.59083">
        <ele>781.4</ele>
        <time>2022-10-28T08:41:10Z</time>
      </trkpt>
      <trkpt lat="44.35233" lon="3.59081">
        <ele>781.6</ele>
        <time>2022-10-28T08:41:11Z</time>
      </trkpt>
      <trkpt lat="44.35233" lon="3.59079">
        <ele>781.8</ele>
        <time>2022-10-28T08:41:12Z</time>
      </trkpt>
      <trkpt lat="44.35233" lon="3.59077">
        <ele>782</ele>
        <time>2022-10-28T08:41:13Z</time>
      </trkpt>
      <trkpt lat="44.35234" lon="3.59075">
        <ele>782.2</ele>
        <time>2022-10-28T08:41:14Z</time>
      </trkpt>
      <trkpt lat="44.35234" lon="3.59073">
        <ele>782.2</ele>
        <time>2022-10-28T08:41:15Z</time>
      </trkpt>
      <trkpt lat="44.35234" lon="3.59071">
        <ele>782.4</ele>
        <time>2022-10-28T08:41:16Z</time>
      </trkpt>
      <trkpt lat="44.35234" lon="3.59069">
        <ele>782.6</ele>
        <time>2022-10-28T08:41:17Z</time>
      </trkpt>
      <trkpt lat="44.35235" lon="3.59067">
        <ele>782.8</ele>
        <time>2022-10-28T08:41:18Z</time>
      </trkpt>
      <trkpt lat="44.35235" lon="3.59065">
        <ele>783</ele>
        <time>2022-10-28T08:41:19Z</time>
      </trkpt>
      <trkpt lat="44.35235" lon="3.59063">
        <ele>783.2</ele>
        <time>2022-10-28T08:41:20Z</time>
      </trkpt>
      <trkpt lat="44.35235" lon="3.59061">
        <ele>783.4</ele>
        <time>2022-10-28T08:41:21Z</time>
      </trkpt>
      <trkpt lat="44.35235" lon="3.5906">
        <ele>783.6</ele>
        <time>2022-10-28T08:41:22Z</time>
      </trkpt>
      <trkpt lat="44.35235" lon="3.59058">
        <ele>783.8</ele>
        <time>2022-10-28T08:41:23Z</time>
      </trkpt>
      <trkpt lat="44.35235" lon="3.59056">
        <ele>784</ele>
        <time>2022-10-28T08:41:24Z</time>
      </trkpt>
      <trkpt lat="44.35236" lon="3.59054">
        <ele>784.2</ele>
        <time>2022-10-28T08:41:25Z</time>
      </trkpt>
      <trkpt lat="44.35236" lon="3.59052">
        <ele>784.2</ele>
        <time>2022-10-28T08:41:26Z</time>
      </trkpt>
      <trkpt lat="44.35237" lon="3.5905">
        <ele>784.4</ele>
        <time>2022-10-28T08:41:27Z</time>
      </trkpt>
      <trkpt lat="44.35238" lon="3.59048">
        <ele>784.6</ele>
        <time>2022-10-28T08:41:28Z</time>
      </trkpt>
      <trkpt lat="44.35238" lon="3.59046">
        <ele>784.8</ele>
        <time>2022-10-28T08:41:29Z</time>
      </trkpt>
      <trkpt lat="44.35239" lon="3.59044">
        <ele>785</ele>
        <time>2022-10-28T08:41:30Z</time>
      </trkpt>
      <trkpt lat="44.35239" lon="3.59043">
        <ele>785.2</ele>
        <time>2022-10-28T08:41:31Z</time>
      </trkpt>
      <trkpt lat="44.3524" lon="3.59041">
        <ele>785.2</ele>
        <time>2022-10-28T08:41:32Z</time>
      </trkpt>
      <trkpt lat="44.35241" lon="3.59039">
        <ele>785.4</ele>
        <time>2022-10-28T08:41:33Z</time>
      </trkpt>
      <trkpt lat="44.35242" lon="3.59038">
        <ele>785.6</ele>
        <time>2022-10-28T08:41:34Z</time>
      </trkpt>
      <trkpt lat="44.35243" lon="3.59037">
        <ele>785.8</ele>
        <time>2022-10-28T08:41:35Z</time>
      </trkpt>
      <trkpt lat="44.35244" lon="3.59035">
        <ele>786</ele>
        <time>2022-10-28T08:41:36Z</time>
      </trkpt>
      <trkpt lat="44.35246" lon="3.59034">
        <ele>786.2</ele>
        <time>2022-10-28T08:41:37Z</time>
      </trkpt>
      <trkpt lat="44.35247" lon="3.59034">
        <ele>786.4</ele>
        <time>2022-10-28T08:41:38Z</time>
      </trkpt>
      <trkpt lat="44.35248" lon="3.59033">
        <ele>786.6</ele>
        <time>2022-10-28T08:41:39Z</time>
      </trkpt>
      <trkpt lat="44.35249" lon="3.59032">
        <ele>786.8</ele>
        <time>2022-10-28T08:41:40Z</time>
      </trkpt>
      <trkpt lat="44.35251" lon="3.59031">
        <ele>786.8</ele>
        <time>2022-10-28T08:41:41Z</time>
      </trkpt>
      <trkpt lat="44.35252" lon="3.5903">
        <ele>787</ele>
        <time>2022-10-28T08:41:42Z</time>
      </trkpt>
      <trkpt lat="44.35254" lon="3.59029">
        <ele>787.2</ele>
        <time>2022-10-28T08:41:43Z</time>
      </trkpt>
      <trkpt lat="44.35255" lon="3.59029">
        <ele>787.4</ele>
        <time>2022-10-28T08:41:44Z</time>
      </trkpt>
      <trkpt lat="44.35257" lon="3.59029">
        <ele>787.6</ele>
        <time>2022-10-28T08:41:45Z</time>
      </trkpt>
      <trkpt lat="44.35259" lon="3.59028">
        <ele>787.8</ele>
        <time>2022-10-28T08:41:46Z</time>
      </trkpt>
      <trkpt lat="44.3526" lon="3.59028">
        <ele>788</ele>
        <time>2022-10-28T08:41:47Z</time>
      </trkpt>
      <trkpt lat="44.35262" lon="3.59028">
        <ele>788.2</ele>
        <time>2022-10-28T08:41:48Z</time>
      </trkpt>
      <trkpt lat="44.35263" lon="3.59029">
        <ele>788.2</ele>
        <time>2022-10-28T08:41:49Z</time>
      </trkpt>
      <trkpt lat="44.35265" lon="3.59029">
        <ele>788.4</ele>
        <time>2022-10-28T08:41:50Z</time>
      </trkpt>
      <trkpt lat="44.35267" lon="3.5903">
        <ele>788.6</ele>
        <time>2022-10-28T08:41:51Z</time>
      </trkpt>
      <trkpt lat="44.35269" lon="3.5903">
        <ele>788.8</ele>
        <time>2022-10-28T08:41:52Z</time>
      </trkpt>
      <trkpt lat="44.3527" lon="3.5903">
        <ele>789</ele>
        <time>2022-10-28T08:41:53Z</time>
      </trkpt>
      <trkpt lat="44.35272" lon="3.59031">
        <ele>789</ele>
        <time>2022-10-28T08:41:54Z</time>
      </trkpt>
      <trkpt lat="44.35273" lon="3.59031">
        <ele>789.2</ele>
        <time>2022-10-28T08:41:55Z</time>
      </trkpt>
      <trkpt lat="44.35275" lon="3.59032">
        <ele>789.4</ele>
        <time>2022-10-28T08:41:56Z</time>
      </trkpt>
      <trkpt lat="44.35276" lon="3.59033">
        <ele>789.6</ele>
        <time>2022-10-28T08:41:57Z</time>
      </trkpt>
      <trkpt lat="44.35278" lon="3.59033">
        <ele>789.6</ele>
        <time>2022-10-28T08:41:58Z</time>
      </trkpt>
      <trkpt lat="44.35281" lon="3.59035">
        <ele>789.8</ele>
        <time>2022-10-28T08:41:59Z</time>
      </trkpt>
      <trkpt lat="44.35283" lon="3.59036">
        <ele>790</ele>
        <time>2022-10-28T08:42:00Z</time>
      </trkpt>
      <trkpt lat="44.35285" lon="3.59038">
        <ele>790.2</ele>
        <time>2022-10-28T08:42:01Z</time>
      </trkpt>
      <trkpt lat="44.35286" lon="3.59039">
        <ele>790.2</ele>
        <time>2022-10-28T08:42:02Z</time>
      </trkpt>
      <trkpt lat="44.35288" lon="3.5904">
        <ele>790.4</ele>
        <time>2022-10-28T08:42:03Z</time>
      </trkpt>
      <trkpt lat="44.35289" lon="3.59041">
        <ele>790.6</ele>
        <time>2022-10-28T08:42:04Z</time>
      </trkpt>
      <trkpt lat="44.35291" lon="3.59042">
        <ele>790.8</ele>
        <time>2022-10-28T08:42:05Z</time>
      </trkpt>
      <trkpt lat="44.35293" lon="3.59043">
        <ele>790.8</ele>
        <time>2022-10-28T08:42:06Z</time>
      </trkpt>
      <trkpt lat="44.35294" lon="3.59044">
        <ele>791</ele>
        <time>2022-10-28T08:42:07Z</time>
      </trkpt>
      <trkpt lat="44.35296" lon="3.59046">
        <ele>791.2</ele>
        <time>2022-10-28T08:42:08Z</time>
      </trkpt>
      <trkpt lat="44.35297" lon="3.59047">
        <ele>791.2</ele>
        <time>2022-10-28T08:42:09Z</time>
      </trkpt>
      <trkpt lat="44.35299" lon="3.59048">
        <ele>791.4</ele>
        <time>2022-10-28T08:42:10Z</time>
      </trkpt>
      <trkpt lat="44.353" lon="3.59049">
        <ele>791.6</ele>
        <time>2022-10-28T08:42:11Z</time>
      </trkpt>
      <trkpt lat="44.35302" lon="3.5905">
        <ele>791.8</ele>
        <time>2022-10-28T08:42:12Z</time>
      </trkpt>
      <trkpt lat="44.35304" lon="3.59051">
        <ele>791.8</ele>
        <time>2022-10-28T08:42:13Z</time>
      </trkpt>
      <trkpt lat="44.35305" lon="3.59052">
        <ele>792</ele>
        <time>2022-10-28T08:42:14Z</time>
      </trkpt>
      <trkpt lat="44.35312" lon="3.59061">
        <ele>792.2</ele>
        <time>2022-10-28T08:42:15Z</time>
      </trkpt>
      <trkpt lat="44.35313" lon="3.59062">
        <ele>792.2</ele>
        <time>2022-10-28T08:42:16Z</time>
      </trkpt>
      <trkpt lat="44.35315" lon="3.59063">
        <ele>792.4</ele>
        <time>2022-10-28T08:42:17Z</time>
      </trkpt>
      <trkpt lat="44.35316" lon="3.59064">
        <ele>792.6</ele>
        <time>2022-10-28T08:42:18Z</time>
      </trkpt>
      <trkpt lat="44.35317" lon="3.59066">
        <ele>792.8</ele>
        <time>2022-10-28T08:42:19Z</time>
      </trkpt>
      <trkpt lat="44.35318" lon="3.59068">
        <ele>792.8</ele>
        <time>2022-10-28T08:42:20Z</time>
      </trkpt>
      <trkpt lat="44.35319" lon="3.5907">
        <ele>793</ele>
        <time>2022-10-28T08:42:21Z</time>
      </trkpt>
      <trkpt lat="44.3532" lon="3.59071">
        <ele>793.2</ele>
        <time>2022-10-28T08:42:22Z</time>
      </trkpt>
      <trkpt lat="44.35322" lon="3.59073">
        <ele>793.4</ele>
        <time>2022-10-28T08:42:23Z</time>
      </trkpt>
      <trkpt lat="44.35323" lon="3.59074">
        <ele>793.6</ele>
        <time>2022-10-28T08:42:24Z</time>
      </trkpt>
      <trkpt lat="44.35324" lon="3.59076">
        <ele>793.6</ele>
        <time>2022-10-28T08:42:25Z</time>
      </trkpt>
      <trkpt lat="44.35326" lon="3.59077">
        <ele>793.8</ele>
        <time>2022-10-28T08:42:26Z</time>
      </trkpt>
      <trkpt lat="44.35327" lon="3.59078">
        <ele>794</ele>
        <time>2022-10-28T08:42:27Z</time>
      </trkpt>
      <trkpt lat="44.35328" lon="3.5908">
        <ele>794.2</ele>
        <time>2022-10-28T08:42:28Z</time>
      </trkpt>
      <trkpt lat="44.35329" lon="3.59081">
        <ele>794.2</ele>
        <time>2022-10-28T08:42:29Z</time>
      </trkpt>
      <trkpt lat="44.3533" lon="3.59082">
        <ele>794.4</ele>
        <time>2022-10-28T08:42:30Z</time>
      </trkpt>
      <trkpt lat="44.35332" lon="3.59084">
        <ele>794.6</ele>
        <time>2022-10-28T08:42:31Z</time>
      </trkpt>
      <trkpt lat="44.35333" lon="3.59085">
        <ele>794.8</ele>
        <time>2022-10-28T08:42:32Z</time>
      </trkpt>
      <trkpt lat="44.35334" lon="3.59086">
        <ele>795</ele>
        <time>2022-10-28T08:42:33Z</time>
      </trkpt>
      <trkpt lat="44.35335" lon="3.59088">
        <ele>795.2</ele>
        <time>2022-10-28T08:42:34Z</time>
      </trkpt>
      <trkpt lat="44.35336" lon="3.59089">
        <ele>795.4</ele>
        <time>2022-10-28T08:42:35Z</time>
      </trkpt>
      <trkpt lat="44.35337" lon="3.59091">
        <ele>795.4</ele>
        <time>2022-10-28T08:42:36Z</time>
      </trkpt>
      <trkpt lat="44.35338" lon="3.59092">
        <ele>795.6</ele>
        <time>2022-10-28T08:42:37Z</time>
      </trkpt>
      <trkpt lat="44.35338" lon="3.59094">
        <ele>795.8</ele>
        <time>2022-10-28T08:42:38Z</time>
      </trkpt>
      <trkpt lat="44.35339" lon="3.59095">
        <ele>796</ele>
        <time>2022-10-28T08:42:39Z</time>
      </trkpt>
      <trkpt lat="44.3534" lon="3.59096">
        <ele>796.2</ele>
        <time>2022-10-28T08:42:40Z</time>
      </trkpt>
      <trkpt lat="44.35342" lon="3.59098">
        <ele>796.4</ele>
        <time>2022-10-28T08:42:41Z</time>
      </trkpt>
      <trkpt lat="44.35343" lon="3.59099">
        <ele>796.6</ele>
        <time>2022-10-28T08:42:42Z</time>
      </trkpt>
      <trkpt lat="44.35345" lon="3.591">
        <ele>796.8</ele>
        <time>2022-10-28T08:42:43Z</time>
      </trkpt>
      <trkpt lat="44.35346" lon="3.59101">
        <ele>797</ele>
        <time>2022-10-28T08:42:44Z</time>
      </trkpt>
      <trkpt lat="44.35348" lon="3.59102">
        <ele>797</ele>
        <time>2022-10-28T08:42:45Z</time>
      </trkpt>
      <trkpt lat="44.35349" lon="3.59103">
        <ele>797.2</ele>
        <time>2022-10-28T08:42:46Z</time>
      </trkpt>
      <trkpt lat="44.35351" lon="3.59105">
        <ele>797.4</ele>
        <time>2022-10-28T08:42:47Z</time>
      </trkpt>
      <trkpt lat="44.35352" lon="3.59106">
        <ele>797.6</ele>
        <time>2022-10-28T08:42:48Z</time>
      </trkpt>
      <trkpt lat="44.35353" lon="3.59107">
        <ele>797.8</ele>
        <time>2022-10-28T08:42:49Z</time>
      </trkpt>
      <trkpt lat="44.35354" lon="3.59109">
        <ele>798</ele>
        <time>2022-10-28T08:42:50Z</time>
      </trkpt>
      <trkpt lat="44.35356" lon="3.5911">
        <ele>798.2</ele>
        <time>2022-10-28T08:42:51Z</time>
      </trkpt>
      <trkpt lat="44.35357" lon="3.59111">
        <ele>798.4</ele>
        <time>2022-10-28T08:42:52Z</time>
      </trkpt>
      <trkpt lat="44.35358" lon="3.59112">
        <ele>798.6</ele>
        <time>2022-10-28T08:42:53Z</time>
      </trkpt>
      <trkpt lat="44.3536" lon="3.59113">
        <ele>798.8</ele>
        <time>2022-10-28T08:42:54Z</time>
      </trkpt>
      <trkpt lat="44.35361" lon="3.59115">
        <ele>799</ele>
        <time>2022-10-28T08:42:55Z</time>
      </trkpt>
      <trkpt lat="44.35362" lon="3.59116">
        <ele>799.2</ele>
        <time>2022-10-28T08:42:56Z</time>
      </trkpt>
      <trkpt lat="44.35364" lon="3.59117">
        <ele>799.4</ele>
        <time>2022-10-28T08:42:57Z</time>
      </trkpt>
      <trkpt lat="44.35365" lon="3.59118">
        <ele>799.6</ele>
        <time>2022-10-28T08:42:58Z</time>
      </trkpt>
      <trkpt lat="44.35366" lon="3.59119">
        <ele>799.8</ele>
        <time>2022-10-28T08:42:59Z</time>
      </trkpt>
      <trkpt lat="44.35367" lon="3.5912">
        <ele>800</ele>
        <time>2022-10-28T08:43:00Z</time>
      </trkpt>
      <trkpt lat="44.35368" lon="3.59121">
        <ele>800.2</ele>
        <time>2022-10-28T08:43:01Z</time>
      </trkpt>
      <trkpt lat="44.3537" lon="3.59123">
        <ele>800.4</ele>
        <time>2022-10-28T08:43:02Z</time>
      </trkpt>
      <trkpt lat="44.35371" lon="3.59124">
        <ele>800.4</ele>
        <time>2022-10-28T08:43:03Z</time>
      </trkpt>
      <trkpt lat="44.35373" lon="3.59125">
        <ele>800.6</ele>
        <time>2022-10-28T08:43:04Z</time>
      </trkpt>
      <trkpt lat="44.35375" lon="3.59126">
        <ele>800.8</ele>
        <time>2022-10-28T08:43:05Z</time>
      </trkpt>
      <trkpt lat="44.35376" lon="3.59127">
        <ele>801</ele>
        <time>2022-10-28T08:43:06Z</time>
      </trkpt>
      <trkpt lat="44.35378" lon="3.59128">
        <ele>801.2</ele>
        <time>2022-10-28T08:43:07Z</time>
      </trkpt>
      <trkpt lat="44.35379" lon="3.59128">
        <ele>801.4</ele>
        <time>2022-10-28T08:43:08Z</time>
      </trkpt>
      <trkpt lat="44.35381" lon="3.59129">
        <ele>801.6</ele>
        <time>2022-10-28T08:43:09Z</time>
      </trkpt>
      <trkpt lat="44.35383" lon="3.59129">
        <ele>801.8</ele>
        <time>2022-10-28T08:43:10Z</time>
      </trkpt>
      <trkpt lat="44.35385" lon="3.5913">
        <ele>802</ele>
        <time>2022-10-28T08:43:11Z</time>
      </trkpt>
      <trkpt lat="44.35387" lon="3.5913">
        <ele>802.2</ele>
        <time>2022-10-28T08:43:12Z</time>
      </trkpt>
      <trkpt lat="44.35388" lon="3.59131">
        <ele>802.2</ele>
        <time>2022-10-28T08:43:13Z</time>
      </trkpt>
      <trkpt lat="44.3539" lon="3.59131">
        <ele>802.4</ele>
        <time>2022-10-28T08:43:14Z</time>
      </trkpt>
      <trkpt lat="44.35392" lon="3.59132">
        <ele>802.6</ele>
        <time>2022-10-28T08:43:15Z</time>
      </trkpt>
      <trkpt lat="44.35394" lon="3.59132">
        <ele>802.8</ele>
        <time>2022-10-28T08:43:16Z</time>
      </trkpt>
      <trkpt lat="44.35396" lon="3.59131">
        <ele>803</ele>
        <time>2022-10-28T08:43:17Z</time>
      </trkpt>
      <trkpt lat="44.35398" lon="3.59131">
        <ele>803</ele>
        <time>2022-10-28T08:43:18Z</time>
      </trkpt>
      <trkpt lat="44.35399" lon="3.59131">
        <ele>803.2</ele>
        <time>2022-10-28T08:43:19Z</time>
      </trkpt>
      <trkpt lat="44.35401" lon="3.5913">
        <ele>803.4</ele>
        <time>2022-10-28T08:43:20Z</time>
      </trkpt>
      <trkpt lat="44.35403" lon="3.5913">
        <ele>803.4</ele>
        <time>2022-10-28T08:43:21Z</time>
      </trkpt>
      <trkpt lat="44.35405" lon="3.59129">
        <ele>803.6</ele>
        <time>2022-10-28T08:43:22Z</time>
      </trkpt>
      <trkpt lat="44.35407" lon="3.59129">
        <ele>803.8</ele>
        <time>2022-10-28T08:43:23Z</time>
      </trkpt>
      <trkpt lat="44.35409" lon="3.59128">
        <ele>804</ele>
        <time>2022-10-28T08:43:24Z</time>
      </trkpt>
      <trkpt lat="44.35411" lon="3.59127">
        <ele>804</ele>
        <time>2022-10-28T08:43:25Z</time>
      </trkpt>
      <trkpt lat="44.35412" lon="3.59127">
        <ele>804.2</ele>
        <time>2022-10-28T08:43:26Z</time>
      </trkpt>
      <trkpt lat="44.35414" lon="3.59126">
        <ele>804.4</ele>
        <time>2022-10-28T08:43:27Z</time>
      </trkpt>
      <trkpt lat="44.35416" lon="3.59126">
        <ele>804.6</ele>
        <time>2022-10-28T08:43:28Z</time>
      </trkpt>
      <trkpt lat="44.35418" lon="3.59125">
        <ele>804.8</ele>
        <time>2022-10-28T08:43:29Z</time>
      </trkpt>
      <trkpt lat="44.35419" lon="3.59125">
        <ele>805</ele>
        <time>2022-10-28T08:43:30Z</time>
      </trkpt>
      <trkpt lat="44.35421" lon="3.59124">
        <ele>805.2</ele>
        <time>2022-10-28T08:43:31Z</time>
      </trkpt>
      <trkpt lat="44.35423" lon="3.59123">
        <ele>805.2</ele>
        <time>2022-10-28T08:43:32Z</time>
      </trkpt>
      <trkpt lat="44.35425" lon="3.59122">
        <ele>805.4</ele>
        <time>2022-10-28T08:43:33Z</time>
      </trkpt>
      <trkpt lat="44.35428" lon="3.59122">
        <ele>805.6</ele>
        <time>2022-10-28T08:43:34Z</time>
      </trkpt>
      <trkpt lat="44.35429" lon="3.59121">
        <ele>805.6</ele>
        <time>2022-10-28T08:43:35Z</time>
      </trkpt>
      <trkpt lat="44.35431" lon="3.5912">
        <ele>805.8</ele>
        <time>2022-10-28T08:43:36Z</time>
      </trkpt>
      <trkpt lat="44.35434" lon="3.59119">
        <ele>806</ele>
        <time>2022-10-28T08:43:37Z</time>
      </trkpt>
      <trkpt lat="44.35435" lon="3.59118">
        <ele>806.2</ele>
        <time>2022-10-28T08:43:38Z</time>
      </trkpt>
      <trkpt lat="44.35437" lon="3.59116">
        <ele>806.2</ele>
        <time>2022-10-28T08:43:39Z</time>
      </trkpt>
      <trkpt lat="44.35439" lon="3.59115">
        <ele>806.4</ele>
        <time>2022-10-28T08:43:40Z</time>
      </trkpt>
      <trkpt lat="44.35441" lon="3.59114">
        <ele>806.6</ele>
        <time>2022-10-28T08:43:41Z</time>
      </trkpt>
      <trkpt lat="44.35443" lon="3.59112">
        <ele>806.8</ele>
        <time>2022-10-28T08:43:42Z</time>
      </trkpt>
      <trkpt lat="44.35445" lon="3.59111">
        <ele>806.8</ele>
        <time>2022-10-28T08:43:43Z</time>
      </trkpt>
      <trkpt lat="44.35447" lon="3.59109">
        <ele>807</ele>
        <time>2022-10-28T08:43:44Z</time>
      </trkpt>
      <trkpt lat="44.35449" lon="3.59108">
        <ele>807.2</ele>
        <time>2022-10-28T08:43:45Z</time>
      </trkpt>
      <trkpt lat="44.35451" lon="3.59106">
        <ele>807.4</ele>
        <time>2022-10-28T08:43:46Z</time>
      </trkpt>
      <trkpt lat="44.35453" lon="3.59104">
        <ele>807.6</ele>
        <time>2022-10-28T08:43:47Z</time>
      </trkpt>
      <trkpt lat="44.35454" lon="3.59103">
        <ele>807.8</ele>
        <time>2022-10-28T08:43:48Z</time>
      </trkpt>
      <trkpt lat="44.35456" lon="3.59101">
        <ele>808</ele>
        <time>2022-10-28T08:43:49Z</time>
      </trkpt>
      <trkpt lat="44.35458" lon="3.59099">
        <ele>808.2</ele>
        <time>2022-10-28T08:43:50Z</time>
      </trkpt>
      <trkpt lat="44.35459" lon="3.59098">
        <ele>808.4</ele>
        <time>2022-10-28T08:43:51Z</time>
      </trkpt>
      <trkpt lat="44.35461" lon="3.59097">
        <ele>808.6</ele>
        <time>2022-10-28T08:43:52Z</time>
      </trkpt>
      <trkpt lat="44.35463" lon="3.59095">
        <ele>808.8</ele>
        <time>2022-10-28T08:43:53Z</time>
      </trkpt>
      <trkpt lat="44.35465" lon="3.59094">
        <ele>809</ele>
        <time>2022-10-28T08:43:54Z</time>
      </trkpt>
      <trkpt lat="44.35466" lon="3.59093">
        <ele>809.2</ele>
        <time>2022-10-28T08:43:55Z</time>
      </trkpt>
      <trkpt lat="44.35468" lon="3.59092">
        <ele>809.2</ele>
        <time>2022-10-28T08:43:56Z</time>
      </trkpt>
      <trkpt lat="44.3547" lon="3.59091">
        <ele>809.4</ele>
        <time>2022-10-28T08:43:57Z</time>
      </trkpt>
      <trkpt lat="44.35472" lon="3.5909">
        <ele>809.6</ele>
        <time>2022-10-28T08:43:58Z</time>
      </trkpt>
      <trkpt lat="44.35474" lon="3.59088">
        <ele>809.8</ele>
        <time>2022-10-28T08:43:59Z</time>
      </trkpt>
      <trkpt lat="44.35476" lon="3.59087">
        <ele>810</ele>
        <time>2022-10-28T08:44:00Z</time>
      </trkpt>
      <trkpt lat="44.35478" lon="3.59085">
        <ele>810</ele>
        <time>2022-10-28T08:44:01Z</time>
      </trkpt>
      <trkpt lat="44.3548" lon="3.59083">
        <ele>810.2</ele>
        <time>2022-10-28T08:44:02Z</time>
      </trkpt>
      <trkpt lat="44.35482" lon="3.59081">
        <ele>810.2</ele>
        <time>2022-10-28T08:44:03Z</time>
      </trkpt>
      <trkpt lat="44.35484" lon="3.5908">
        <ele>810.4</ele>
        <time>2022-10-28T08:44:04Z</time>
      </trkpt>
      <trkpt lat="44.35486" lon="3.59079">
        <ele>810.6</ele>
        <time>2022-10-28T08:44:05Z</time>
      </trkpt>
      <trkpt lat="44.35488" lon="3.59077">
        <ele>810.6</ele>
        <time>2022-10-28T08:44:06Z</time>
      </trkpt>
      <trkpt lat="44.3549" lon="3.59076">
        <ele>810.8</ele>
        <time>2022-10-28T08:44:07Z</time>
      </trkpt>
      <trkpt lat="44.35492" lon="3.59075">
        <ele>810.8</ele>
        <time>2022-10-28T08:44:08Z</time>
      </trkpt>
      <trkpt lat="44.35493" lon="3.59073">
        <ele>810.8</ele>
        <time>2022-10-28T08:44:09Z</time>
      </trkpt>
      <trkpt lat="44.35494" lon="3.59071">
        <ele>811</ele>
        <time>2022-10-28T08:44:10Z</time>
      </trkpt>
      <trkpt lat="44.35495" lon="3.5907">
        <ele>811</ele>
        <time>2022-10-28T08:44:11Z</time>
      </trkpt>
      <trkpt lat="44.35496" lon="3.5907">
        <ele>811</ele>
        <time>2022-10-28T08:44:12Z</time>
      </trkpt>
      <trkpt lat="44.35494" lon="3.59071">
        <ele>811</ele>
        <time>2022-10-28T08:44:15Z</time>
      </trkpt>
      <trkpt lat="44.35494" lon="3.59072">
        <ele>811</ele>
        <time>2022-10-28T08:44:16Z</time>
      </trkpt>
      <trkpt lat="44.35493" lon="3.59072">
        <ele>811</ele>
        <time>2022-10-28T08:44:17Z</time>
      </trkpt>
      <trkpt lat="44.35492" lon="3.59073">
        <ele>811</ele>
        <time>2022-10-28T08:44:18Z</time>
      </trkpt>
      <trkpt lat="44.35491" lon="3.59073">
        <ele>811</ele>
        <time>2022-10-28T08:44:19Z</time>
      </trkpt>
      <trkpt lat="44.35489" lon="3.59073">
        <ele>811</ele>
        <time>2022-10-28T08:44:20Z</time>
      </trkpt>
      <trkpt lat="44.35489" lon="3.59073">
        <ele>811</ele>
        <time>2022-10-28T08:44:21Z</time>
      </trkpt>
      <trkpt lat="44.35488" lon="3.59072">
        <ele>811</ele>
        <time>2022-10-28T08:44:22Z</time>
      </trkpt>
      <trkpt lat="44.35488" lon="3.59072">
        <ele>810.8</ele>
        <time>2022-10-28T08:44:23Z</time>
      </trkpt>
      <trkpt lat="44.35488" lon="3.59072">
        <ele>810.8</ele>
        <time>2022-10-28T08:44:24Z</time>
      </trkpt>
      <trkpt lat="44.35488" lon="3.59072">
        <ele>810.8</ele>
        <time>2022-10-28T08:44:25Z</time>
      </trkpt>
      <trkpt lat="44.35488" lon="3.59072">
        <ele>810.8</ele>
        <time>2022-10-28T08:44:26Z</time>
      </trkpt>
      <trkpt lat="44.35488" lon="3.59072">
        <ele>810.8</ele>
        <time>2022-10-28T08:44:27Z</time>
      </trkpt>
      <trkpt lat="44.355" lon="3.59068">
        <ele>810.8</ele>
        <time>2022-10-28T08:48:00Z</time>
      </trkpt>
      <trkpt lat="44.35503" lon="3.59067">
        <ele>810.8</ele>
        <time>2022-10-28T08:48:01Z</time>
      </trkpt>
      <trkpt lat="44.35505" lon="3.59065">
        <ele>810.8</ele>
        <time>2022-10-28T08:48:02Z</time>
      </trkpt>
      <trkpt lat="44.35507" lon="3.59064">
        <ele>810.8</ele>
        <time>2022-10-28T08:48:03Z</time>
      </trkpt>
      <trkpt lat="44.35508" lon="3.59063">
        <ele>810.8</ele>
        <time>2022-10-28T08:48:04Z</time>
      </trkpt>
      <trkpt lat="44.3551" lon="3.59061">
        <ele>811</ele>
        <time>2022-10-28T08:48:05Z</time>
      </trkpt>
      <trkpt lat="44.35512" lon="3.59059">
        <ele>811</ele>
        <time>2022-10-28T08:48:06Z</time>
      </trkpt>
      <trkpt lat="44.35514" lon="3.59057">
        <ele>811</ele>
        <time>2022-10-28T08:48:07Z</time>
      </trkpt>
      <trkpt lat="44.35516" lon="3.59055">
        <ele>811.2</ele>
        <time>2022-10-28T08:48:08Z</time>
      </trkpt>
      <trkpt lat="44.35518" lon="3.59052">
        <ele>811.2</ele>
        <time>2022-10-28T08:48:09Z</time>
      </trkpt>
      <trkpt lat="44.35519" lon="3.5905">
        <ele>811.4</ele>
        <time>2022-10-28T08:48:10Z</time>
      </trkpt>
      <trkpt lat="44.35521" lon="3.59047">
        <ele>811.6</ele>
        <time>2022-10-28T08:48:11Z</time>
      </trkpt>
      <trkpt lat="44.35522" lon="3.59044">
        <ele>811.6</ele>
        <time>2022-10-28T08:48:12Z</time>
      </trkpt>
      <trkpt lat="44.35523" lon="3.59041">
        <ele>811.6</ele>
        <time>2022-10-28T08:48:13Z</time>
      </trkpt>
      <trkpt lat="44.35524" lon="3.59037">
        <ele>811.6</ele>
        <time>2022-10-28T08:48:14Z</time>
      </trkpt>
      <trkpt lat="44.35524" lon="3.59034">
        <ele>811.8</ele>
        <time>2022-10-28T08:48:15Z</time>
      </trkpt>
      <trkpt lat="44.35524" lon="3.5903">
        <ele>811.8</ele>
        <time>2022-10-28T08:48:16Z</time>
      </trkpt>
      <trkpt lat="44.35524" lon="3.59027">
        <ele>811.6</ele>
        <time>2022-10-28T08:48:17Z</time>
      </trkpt>
      <trkpt lat="44.35524" lon="3.59022">
        <ele>811.6</ele>
        <time>2022-10-28T08:48:18Z</time>
      </trkpt>
      <trkpt lat="44.35522" lon="3.59017">
        <ele>811.4</ele>
        <time>2022-10-28T08:48:19Z</time>
      </trkpt>
      <trkpt lat="44.35521" lon="3.59011">
        <ele>811.2</ele>
        <time>2022-10-28T08:48:20Z</time>
      </trkpt>
      <trkpt lat="44.3552" lon="3.59005">
        <ele>811.2</ele>
        <time>2022-10-28T08:48:21Z</time>
      </trkpt>
      <trkpt lat="44.35518" lon="3.58999">
        <ele>811</ele>
        <time>2022-10-28T08:48:22Z</time>
      </trkpt>
      <trkpt lat="44.35517" lon="3.58994">
        <ele>811</ele>
        <time>2022-10-28T08:48:23Z</time>
      </trkpt>
      <trkpt lat="44.35515" lon="3.58988">
        <ele>811</ele>
        <time>2022-10-28T08:48:24Z</time>
      </trkpt>
      <trkpt lat="44.35513" lon="3.58982">
        <ele>810.8</ele>
        <time>2022-10-28T08:48:25Z</time>
      </trkpt>
      <trkpt lat="44.35512" lon="3.58977">
        <ele>810.8</ele>
        <time>2022-10-28T08:48:26Z</time>
      </trkpt>
      <trkpt lat="44.35511" lon="3.58972">
        <ele>810.8</ele>
        <time>2022-10-28T08:48:27Z</time>
      </trkpt>
      <trkpt lat="44.35511" lon="3.58967">
        <ele>810.8</ele>
        <time>2022-10-28T08:48:28Z</time>
      </trkpt>
      <trkpt lat="44.35512" lon="3.58963">
        <ele>811</ele>
        <time>2022-10-28T08:48:29Z</time>
      </trkpt>
      <trkpt lat="44.35512" lon="3.58959">
        <ele>811</ele>
        <time>2022-10-28T08:48:30Z</time>
      </trkpt>
      <trkpt lat="44.35513" lon="3.58955">
        <ele>811.2</ele>
        <time>2022-10-28T08:48:31Z</time>
      </trkpt>
      <trkpt lat="44.35514" lon="3.58951">
        <ele>811.4</ele>
        <time>2022-10-28T08:48:32Z</time>
      </trkpt>
      <trkpt lat="44.35515" lon="3.58947">
        <ele>811.6</ele>
        <time>2022-10-28T08:48:33Z</time>
      </trkpt>
      <trkpt lat="44.35516" lon="3.58944">
        <ele>811.8</ele>
        <time>2022-10-28T08:48:34Z</time>
      </trkpt>
      <trkpt lat="44.35518" lon="3.58941">
        <ele>812</ele>
        <time>2022-10-28T08:48:35Z</time>
      </trkpt>
      <trkpt lat="44.3552" lon="3.58938">
        <ele>812.2</ele>
        <time>2022-10-28T08:48:36Z</time>
      </trkpt>
      <trkpt lat="44.35521" lon="3.58936">
        <ele>812.4</ele>
        <time>2022-10-28T08:48:37Z</time>
      </trkpt>
      <trkpt lat="44.35523" lon="3.58933">
        <ele>812.8</ele>
        <time>2022-10-28T08:48:38Z</time>
      </trkpt>
      <trkpt lat="44.35524" lon="3.58931">
        <ele>813</ele>
        <time>2022-10-28T08:48:39Z</time>
      </trkpt>
      <trkpt lat="44.35526" lon="3.5893">
        <ele>813.2</ele>
        <time>2022-10-28T08:48:40Z</time>
      </trkpt>
      <trkpt lat="44.35528" lon="3.58928">
        <ele>813.6</ele>
        <time>2022-10-28T08:48:41Z</time>
      </trkpt>
      <trkpt lat="44.3553" lon="3.58927">
        <ele>813.8</ele>
        <time>2022-10-28T08:48:42Z</time>
      </trkpt>
      <trkpt lat="44.35531" lon="3.58926">
        <ele>814</ele>
        <time>2022-10-28T08:48:43Z</time>
      </trkpt>
      <trkpt lat="44.35533" lon="3.58925">
        <ele>814.2</ele>
        <time>2022-10-28T08:48:44Z</time>
      </trkpt>
      <trkpt lat="44.35535" lon="3.58924">
        <ele>814.4</ele>
        <time>2022-10-28T08:48:45Z</time>
      </trkpt>
      <trkpt lat="44.35537" lon="3.58923">
        <ele>814.8</ele>
        <time>2022-10-28T08:48:46Z</time>
      </trkpt>
      <trkpt lat="44.35538" lon="3.58921">
        <ele>815</ele>
        <time>2022-10-28T08:48:47Z</time>
      </trkpt>
      <trkpt lat="44.3554" lon="3.5892">
        <ele>815.2</ele>
        <time>2022-10-28T08:48:48Z</time>
      </trkpt>
      <trkpt lat="44.35541" lon="3.58919">
        <ele>815.6</ele>
        <time>2022-10-28T08:48:49Z</time>
      </trkpt>
      <trkpt lat="44.35543" lon="3.58918">
        <ele>815.8</ele>
        <time>2022-10-28T08:48:50Z</time>
      </trkpt>
      <trkpt lat="44.35544" lon="3.58916">
        <ele>816.2</ele>
        <time>2022-10-28T08:48:51Z</time>
      </trkpt>
      <trkpt lat="44.35546" lon="3.58915">
        <ele>816.4</ele>
        <time>2022-10-28T08:48:52Z</time>
      </trkpt>
      <trkpt lat="44.35546" lon="3.58913">
        <ele>816.6</ele>
        <time>2022-10-28T08:48:53Z</time>
      </trkpt>
      <trkpt lat="44.35548" lon="3.58912">
        <ele>817</ele>
        <time>2022-10-28T08:48:54Z</time>
      </trkpt>
      <trkpt lat="44.35549" lon="3.5891">
        <ele>817.2</ele>
        <time>2022-10-28T08:48:55Z</time>
      </trkpt>
      <trkpt lat="44.35551" lon="3.58908">
        <ele>817.4</ele>
        <time>2022-10-28T08:48:56Z</time>
      </trkpt>
      <trkpt lat="44.35553" lon="3.58907">
        <ele>817.6</ele>
        <time>2022-10-28T08:48:57Z</time>
      </trkpt>
      <trkpt lat="44.35554" lon="3.58905">
        <ele>817.8</ele>
        <time>2022-10-28T08:48:58Z</time>
      </trkpt>
      <trkpt lat="44.35555" lon="3.58903">
        <ele>818</ele>
        <time>2022-10-28T08:48:59Z</time>
      </trkpt>
      <trkpt lat="44.35556" lon="3.58901">
        <ele>818.4</ele>
        <time>2022-10-28T08:49:00Z</time>
      </trkpt>
      <trkpt lat="44.35557" lon="3.58899">
        <ele>818.6</ele>
        <time>2022-10-28T08:49:01Z</time>
      </trkpt>
      <trkpt lat="44.35557" lon="3.58897">
        <ele>818.8</ele>
        <time>2022-10-28T08:49:02Z</time>
      </trkpt>
      <trkpt lat="44.35558" lon="3.58895">
        <ele>819</ele>
        <time>2022-10-28T08:49:03Z</time>
      </trkpt>
      <trkpt lat="44.35558" lon="3.58893">
        <ele>819.4</ele>
        <time>2022-10-28T08:49:04Z</time>
      </trkpt>
      <trkpt lat="44.35559" lon="3.58891">
        <ele>819.6</ele>
        <time>2022-10-28T08:49:05Z</time>
      </trkpt>
      <trkpt lat="44.3556" lon="3.58889">
        <ele>819.8</ele>
        <time>2022-10-28T08:49:06Z</time>
      </trkpt>
      <trkpt lat="44.35561" lon="3.58887">
        <ele>820.2</ele>
        <time>2022-10-28T08:49:07Z</time>
      </trkpt>
      <trkpt lat="44.35562" lon="3.58884">
        <ele>820.4</ele>
        <time>2022-10-28T08:49:08Z</time>
      </trkpt>
      <trkpt lat="44.35563" lon="3.58882">
        <ele>820.8</ele>
        <time>2022-10-28T08:49:09Z</time>
      </trkpt>
      <trkpt lat="44.35563" lon="3.5888">
        <ele>821</ele>
        <time>2022-10-28T08:49:10Z</time>
      </trkpt>
      <trkpt lat="44.35564" lon="3.58878">
        <ele>821.2</ele>
        <time>2022-10-28T08:49:11Z</time>
      </trkpt>
      <trkpt lat="44.35565" lon="3.58876">
        <ele>821.4</ele>
        <time>2022-10-28T08:49:12Z</time>
      </trkpt>
      <trkpt lat="44.35566" lon="3.58874">
        <ele>821.8</ele>
        <time>2022-10-28T08:49:13Z</time>
      </trkpt>
      <trkpt lat="44.35567" lon="3.58872">
        <ele>822</ele>
        <time>2022-10-28T08:49:14Z</time>
      </trkpt>
      <trkpt lat="44.35568" lon="3.5887">
        <ele>822.2</ele>
        <time>2022-10-28T08:49:15Z</time>
      </trkpt>
      <trkpt lat="44.35569" lon="3.58868">
        <ele>822.4</ele>
        <time>2022-10-28T08:49:16Z</time>
      </trkpt>
      <trkpt lat="44.3557" lon="3.58866">
        <ele>822.8</ele>
        <time>2022-10-28T08:49:17Z</time>
      </trkpt>
      <trkpt lat="44.35571" lon="3.58865">
        <ele>822.8</ele>
        <time>2022-10-28T08:49:18Z</time>
      </trkpt>
      <trkpt lat="44.35573" lon="3.58863">
        <ele>823</ele>
        <time>2022-10-28T08:49:19Z</time>
      </trkpt>
      <trkpt lat="44.35574" lon="3.58861">
        <ele>823.2</ele>
        <time>2022-10-28T08:49:20Z</time>
      </trkpt>
      <trkpt lat="44.35575" lon="3.5886">
        <ele>823.4</ele>
        <time>2022-10-28T08:49:21Z</time>
      </trkpt>
      <trkpt lat="44.35577" lon="3.58858">
        <ele>823.4</ele>
        <time>2022-10-28T08:49:22Z</time>
      </trkpt>
      <trkpt lat="44.35578" lon="3.58856">
        <ele>823.6</ele>
        <time>2022-10-28T08:49:23Z</time>
      </trkpt>
      <trkpt lat="44.35579" lon="3.58854">
        <ele>823.8</ele>
        <time>2022-10-28T08:49:24Z</time>
      </trkpt>
      <trkpt lat="44.3558" lon="3.58852">
        <ele>824</ele>
        <time>2022-10-28T08:49:25Z</time>
      </trkpt>
      <trkpt lat="44.35581" lon="3.5885">
        <ele>824.2</ele>
        <time>2022-10-28T08:49:26Z</time>
      </trkpt>
      <trkpt lat="44.35582" lon="3.58848">
        <ele>824.4</ele>
        <time>2022-10-28T08:49:27Z</time>
      </trkpt>
      <trkpt lat="44.35584" lon="3.58846">
        <ele>824.4</ele>
        <time>2022-10-28T08:49:28Z</time>
      </trkpt>
      <trkpt lat="44.35585" lon="3.58845">
        <ele>824.6</ele>
        <time>2022-10-28T08:49:29Z</time>
      </trkpt>
      <trkpt lat="44.35586" lon="3.58843">
        <ele>824.8</ele>
        <time>2022-10-28T08:49:30Z</time>
      </trkpt>
      <trkpt lat="44.35588" lon="3.58841">
        <ele>825</ele>
        <time>2022-10-28T08:49:31Z</time>
      </trkpt>
      <trkpt lat="44.35589" lon="3.5884">
        <ele>825.2</ele>
        <time>2022-10-28T08:49:32Z</time>
      </trkpt>
      <trkpt lat="44.35591" lon="3.58838">
        <ele>825.4</ele>
        <time>2022-10-28T08:49:33Z</time>
      </trkpt>
      <trkpt lat="44.35592" lon="3.58837">
        <ele>825.6</ele>
        <time>2022-10-28T08:49:34Z</time>
      </trkpt>
      <trkpt lat="44.35593" lon="3.58835">
        <ele>825.8</ele>
        <time>2022-10-28T08:49:35Z</time>
      </trkpt>
      <trkpt lat="44.35595" lon="3.58834">
        <ele>826</ele>
        <time>2022-10-28T08:49:36Z</time>
      </trkpt>
      <trkpt lat="44.35596" lon="3.58833">
        <ele>826</ele>
        <time>2022-10-28T08:49:37Z</time>
      </trkpt>
      <trkpt lat="44.35597" lon="3.58831">
        <ele>826.2</ele>
        <time>2022-10-28T08:49:38Z</time>
      </trkpt>
      <trkpt lat="44.35599" lon="3.5883">
        <ele>826.6</ele>
        <time>2022-10-28T08:49:39Z</time>
      </trkpt>
      <trkpt lat="44.356" lon="3.58828">
        <ele>826.6</ele>
        <time>2022-10-28T08:49:40Z</time>
      </trkpt>
      <trkpt lat="44.35601" lon="3.58827">
        <ele>826.8</ele>
        <time>2022-10-28T08:49:41Z</time>
      </trkpt>
      <trkpt lat="44.35603" lon="3.58825">
        <ele>827</ele>
        <time>2022-10-28T08:49:42Z</time>
      </trkpt>
      <trkpt lat="44.35604" lon="3.58824">
        <ele>827.2</ele>
        <time>2022-10-28T08:49:43Z</time>
      </trkpt>
      <trkpt lat="44.35605" lon="3.58822">
        <ele>827.4</ele>
        <time>2022-10-28T08:49:44Z</time>
      </trkpt>
      <trkpt lat="44.35607" lon="3.58821">
        <ele>827.8</ele>
        <time>2022-10-28T08:49:45Z</time>
      </trkpt>
      <trkpt lat="44.35608" lon="3.58819">
        <ele>828</ele>
        <time>2022-10-28T08:49:46Z</time>
      </trkpt>
      <trkpt lat="44.3561" lon="3.58818">
        <ele>828.2</ele>
        <time>2022-10-28T08:49:47Z</time>
      </trkpt>
      <trkpt lat="44.35611" lon="3.58817">
        <ele>828.4</ele>
        <time>2022-10-28T08:49:48Z</time>
      </trkpt>
      <trkpt lat="44.35613" lon="3.58815">
        <ele>828.6</ele>
        <time>2022-10-28T08:49:49Z</time>
      </trkpt>
      <trkpt lat="44.35614" lon="3.58814">
        <ele>828.8</ele>
        <time>2022-10-28T08:49:50Z</time>
      </trkpt>
      <trkpt lat="44.35615" lon="3.58813">
        <ele>829</ele>
        <time>2022-10-28T08:49:51Z</time>
      </trkpt>
      <trkpt lat="44.35617" lon="3.58812">
        <ele>829.2</ele>
        <time>2022-10-28T08:49:52Z</time>
      </trkpt>
      <trkpt lat="44.35619" lon="3.58812">
        <ele>829.4</ele>
        <time>2022-10-28T08:49:53Z</time>
      </trkpt>
      <trkpt lat="44.3562" lon="3.58811">
        <ele>829.6</ele>
        <time>2022-10-28T08:49:54Z</time>
      </trkpt>
      <trkpt lat="44.35622" lon="3.5881">
        <ele>829.6</ele>
        <time>2022-10-28T08:49:55Z</time>
      </trkpt>
      <trkpt lat="44.35623" lon="3.58809">
        <ele>829.8</ele>
        <time>2022-10-28T08:49:56Z</time>
      </trkpt>
      <trkpt lat="44.35625" lon="3.58808">
        <ele>830</ele>
        <time>2022-10-28T08:49:57Z</time>
      </trkpt>
      <trkpt lat="44.35627" lon="3.58808">
        <ele>830.2</ele>
        <time>2022-10-28T08:49:58Z</time>
      </trkpt>
      <trkpt lat="44.35628" lon="3.58808">
        <ele>830.4</ele>
        <time>2022-10-28T08:49:59Z</time>
      </trkpt>
      <trkpt lat="44.3563" lon="3.58807">
        <ele>830.6</ele>
        <time>2022-10-28T08:50:00Z</time>
      </trkpt>
      <trkpt lat="44.35631" lon="3.58806">
        <ele>830.8</ele>
        <time>2022-10-28T08:50:01Z</time>
      </trkpt>
      <trkpt lat="44.35633" lon="3.58805">
        <ele>831</ele>
        <time>2022-10-28T08:50:02Z</time>
      </trkpt>
      <trkpt lat="44.35634" lon="3.58804">
        <ele>831.2</ele>
        <time>2022-10-28T08:50:03Z</time>
      </trkpt>
      <trkpt lat="44.35636" lon="3.58802">
        <ele>831.4</ele>
        <time>2022-10-28T08:50:04Z</time>
      </trkpt>
      <trkpt lat="44.35637" lon="3.58801">
        <ele>831.6</ele>
        <time>2022-10-28T08:50:05Z</time>
      </trkpt>
      <trkpt lat="44.35638" lon="3.58799">
        <ele>831.8</ele>
        <time>2022-10-28T08:50:06Z</time>
      </trkpt>
      <trkpt lat="44.35639" lon="3.58797">
        <ele>832</ele>
        <time>2022-10-28T08:50:07Z</time>
      </trkpt>
      <trkpt lat="44.3564" lon="3.58796">
        <ele>832.2</ele>
        <time>2022-10-28T08:50:08Z</time>
      </trkpt>
      <trkpt lat="44.35641" lon="3.58794">
        <ele>832.4</ele>
        <time>2022-10-28T08:50:09Z</time>
      </trkpt>
      <trkpt lat="44.35642" lon="3.58792">
        <ele>832.6</ele>
        <time>2022-10-28T08:50:10Z</time>
      </trkpt>
      <trkpt lat="44.35643" lon="3.5879">
        <ele>832.8</ele>
        <time>2022-10-28T08:50:11Z</time>
      </trkpt>
      <trkpt lat="44.35644" lon="3.58788">
        <ele>833</ele>
        <time>2022-10-28T08:50:12Z</time>
      </trkpt>
      <trkpt lat="44.35645" lon="3.58786">
        <ele>833.2</ele>
        <time>2022-10-28T08:50:13Z</time>
      </trkpt>
      <trkpt lat="44.35645" lon="3.58784">
        <ele>833.4</ele>
        <time>2022-10-28T08:50:14Z</time>
      </trkpt>
      <trkpt lat="44.35646" lon="3.58782">
        <ele>833.6</ele>
        <time>2022-10-28T08:50:15Z</time>
      </trkpt>
      <trkpt lat="44.35647" lon="3.5878">
        <ele>833.8</ele>
        <time>2022-10-28T08:50:16Z</time>
      </trkpt>
      <trkpt lat="44.35648" lon="3.58777">
        <ele>834</ele>
        <time>2022-10-28T08:50:17Z</time>
      </trkpt>
      <trkpt lat="44.35649" lon="3.58775">
        <ele>834</ele>
        <time>2022-10-28T08:50:18Z</time>
      </trkpt>
      <trkpt lat="44.35649" lon="3.58773">
        <ele>834.2</ele>
        <time>2022-10-28T08:50:19Z</time>
      </trkpt>
      <trkpt lat="44.3565" lon="3.5877">
        <ele>834.4</ele>
        <time>2022-10-28T08:50:20Z</time>
      </trkpt>
      <trkpt lat="44.35651" lon="3.58768">
        <ele>834.6</ele>
        <time>2022-10-28T08:50:21Z</time>
      </trkpt>
      <trkpt lat="44.35651" lon="3.58766">
        <ele>834.8</ele>
        <time>2022-10-28T08:50:22Z</time>
      </trkpt>
      <trkpt lat="44.35652" lon="3.58763">
        <ele>835</ele>
        <time>2022-10-28T08:50:23Z</time>
      </trkpt>
      <trkpt lat="44.35652" lon="3.58761">
        <ele>835.2</ele>
        <time>2022-10-28T08:50:24Z</time>
      </trkpt>
      <trkpt lat="44.35652" lon="3.58759">
        <ele>835.4</ele>
        <time>2022-10-28T08:50:25Z</time>
      </trkpt>
      <trkpt lat="44.35652" lon="3.58756">
        <ele>835.4</ele>
        <time>2022-10-28T08:50:26Z</time>
      </trkpt>
      <trkpt lat="44.35652" lon="3.58754">
        <ele>835.6</ele>
        <time>2022-10-28T08:50:27Z</time>
      </trkpt>
      <trkpt lat="44.35652" lon="3.58751">
        <ele>835.8</ele>
        <time>2022-10-28T08:50:28Z</time>
      </trkpt>
      <trkpt lat="44.35652" lon="3.58749">
        <ele>836</ele>
        <time>2022-10-28T08:50:29Z</time>
      </trkpt>
      <trkpt lat="44.35652" lon="3.58747">
        <ele>836.4</ele>
        <time>2022-10-28T08:50:30Z</time>
      </trkpt>
      <trkpt lat="44.35651" lon="3.58744">
        <ele>836.6</ele>
        <time>2022-10-28T08:50:31Z</time>
      </trkpt>
      <trkpt lat="44.3565" lon="3.58742">
        <ele>836.8</ele>
        <time>2022-10-28T08:50:32Z</time>
      </trkpt>
      <trkpt lat="44.35649" lon="3.58739">
        <ele>837.2</ele>
        <time>2022-10-28T08:50:33Z</time>
      </trkpt>
      <trkpt lat="44.35649" lon="3.58737">
        <ele>837.4</ele>
        <time>2022-10-28T08:50:34Z</time>
      </trkpt>
      <trkpt lat="44.35649" lon="3.58734">
        <ele>837.6</ele>
        <time>2022-10-28T08:50:35Z</time>
      </trkpt>
      <trkpt lat="44.3565" lon="3.58732">
        <ele>838</ele>
        <time>2022-10-28T08:50:36Z</time>
      </trkpt>
      <trkpt lat="44.3565" lon="3.5873">
        <ele>838.2</ele>
        <time>2022-10-28T08:50:37Z</time>
      </trkpt>
      <trkpt lat="44.35651" lon="3.58727">
        <ele>838.4</ele>
        <time>2022-10-28T08:50:38Z</time>
      </trkpt>
      <trkpt lat="44.35651" lon="3.58725">
        <ele>838.8</ele>
        <time>2022-10-28T08:50:39Z</time>
      </trkpt>
      <trkpt lat="44.35652" lon="3.58723">
        <ele>839</ele>
        <time>2022-10-28T08:50:40Z</time>
      </trkpt>
      <trkpt lat="44.35652" lon="3.5872">
        <ele>839.2</ele>
        <time>2022-10-28T08:50:41Z</time>
      </trkpt>
      <trkpt lat="44.35653" lon="3.58718">
        <ele>839.4</ele>
        <time>2022-10-28T08:50:42Z</time>
      </trkpt>
      <trkpt lat="44.35654" lon="3.58716">
        <ele>839.6</ele>
        <time>2022-10-28T08:50:43Z</time>
      </trkpt>
      <trkpt lat="44.35654" lon="3.58714">
        <ele>839.8</ele>
        <time>2022-10-28T08:50:44Z</time>
      </trkpt>
      <trkpt lat="44.35655" lon="3.58712">
        <ele>840.2</ele>
        <time>2022-10-28T08:50:45Z</time>
      </trkpt>
      <trkpt lat="44.35656" lon="3.5871">
        <ele>840.4</ele>
        <time>2022-10-28T08:50:46Z</time>
      </trkpt>
      <trkpt lat="44.35657" lon="3.58708">
        <ele>840.6</ele>
        <time>2022-10-28T08:50:47Z</time>
      </trkpt>
      <trkpt lat="44.35658" lon="3.58706">
        <ele>840.8</ele>
        <time>2022-10-28T08:50:48Z</time>
      </trkpt>
      <trkpt lat="44.35659" lon="3.58704">
        <ele>841</ele>
        <time>2022-10-28T08:50:49Z</time>
      </trkpt>
      <trkpt lat="44.3566" lon="3.58702">
        <ele>841.2</ele>
        <time>2022-10-28T08:50:50Z</time>
      </trkpt>
      <trkpt lat="44.35661" lon="3.58701">
        <ele>841.4</ele>
        <time>2022-10-28T08:50:51Z</time>
      </trkpt>
      <trkpt lat="44.35663" lon="3.58699">
        <ele>841.8</ele>
        <time>2022-10-28T08:50:52Z</time>
      </trkpt>
      <trkpt lat="44.35664" lon="3.58698">
        <ele>842</ele>
        <time>2022-10-28T08:50:53Z</time>
      </trkpt>
      <trkpt lat="44.35665" lon="3.58697">
        <ele>842.2</ele>
        <time>2022-10-28T08:50:54Z</time>
      </trkpt>
      <trkpt lat="44.35667" lon="3.58695">
        <ele>842.2</ele>
        <time>2022-10-28T08:50:55Z</time>
      </trkpt>
      <trkpt lat="44.35668" lon="3.58693">
        <ele>842.4</ele>
        <time>2022-10-28T08:50:56Z</time>
      </trkpt>
      <trkpt lat="44.35669" lon="3.58691">
        <ele>842.6</ele>
        <time>2022-10-28T08:50:57Z</time>
      </trkpt>
      <trkpt lat="44.35671" lon="3.5869">
        <ele>842.8</ele>
        <time>2022-10-28T08:50:58Z</time>
      </trkpt>
      <trkpt lat="44.35672" lon="3.58689">
        <ele>843</ele>
        <time>2022-10-28T08:50:59Z</time>
      </trkpt>
      <trkpt lat="44.35673" lon="3.58687">
        <ele>843.2</ele>
        <time>2022-10-28T08:51:00Z</time>
      </trkpt>
      <trkpt lat="44.35675" lon="3.58685">
        <ele>843.4</ele>
        <time>2022-10-28T08:51:01Z</time>
      </trkpt>
      <trkpt lat="44.35676" lon="3.58684">
        <ele>843.6</ele>
        <time>2022-10-28T08:51:02Z</time>
      </trkpt>
      <trkpt lat="44.35677" lon="3.58682">
        <ele>843.8</ele>
        <time>2022-10-28T08:51:03Z</time>
      </trkpt>
      <trkpt lat="44.35679" lon="3.58681">
        <ele>843.8</ele>
        <time>2022-10-28T08:51:04Z</time>
      </trkpt>
      <trkpt lat="44.3568" lon="3.58679">
        <ele>844</ele>
        <time>2022-10-28T08:51:05Z</time>
      </trkpt>
      <trkpt lat="44.35681" lon="3.58678">
        <ele>844.2</ele>
        <time>2022-10-28T08:51:06Z</time>
      </trkpt>
      <trkpt lat="44.35683" lon="3.58677">
        <ele>844.4</ele>
        <time>2022-10-28T08:51:07Z</time>
      </trkpt>
      <trkpt lat="44.35684" lon="3.58676">
        <ele>844.6</ele>
        <time>2022-10-28T08:51:08Z</time>
      </trkpt>
      <trkpt lat="44.35686" lon="3.58676">
        <ele>845</ele>
        <time>2022-10-28T08:51:09Z</time>
      </trkpt>
      <trkpt lat="44.35687" lon="3.58675">
        <ele>845.2</ele>
        <time>2022-10-28T08:51:10Z</time>
      </trkpt>
      <trkpt lat="44.35688" lon="3.58674">
        <ele>845.4</ele>
        <time>2022-10-28T08:51:11Z</time>
      </trkpt>
      <trkpt lat="44.3569" lon="3.58673">
        <ele>845.6</ele>
        <time>2022-10-28T08:51:12Z</time>
      </trkpt>
      <trkpt lat="44.35691" lon="3.58671">
        <ele>845.8</ele>
        <time>2022-10-28T08:51:13Z</time>
      </trkpt>
      <trkpt lat="44.35692" lon="3.5867">
        <ele>846</ele>
        <time>2022-10-28T08:51:14Z</time>
      </trkpt>
      <trkpt lat="44.35693" lon="3.58668">
        <ele>846.2</ele>
        <time>2022-10-28T08:51:15Z</time>
      </trkpt>
      <trkpt lat="44.35694" lon="3.58667">
        <ele>846.6</ele>
        <time>2022-10-28T08:51:16Z</time>
      </trkpt>
      <trkpt lat="44.35695" lon="3.58665">
        <ele>846.8</ele>
        <time>2022-10-28T08:51:17Z</time>
      </trkpt>
      <trkpt lat="44.35697" lon="3.58663">
        <ele>847</ele>
        <time>2022-10-28T08:51:18Z</time>
      </trkpt>
      <trkpt lat="44.35698" lon="3.58662">
        <ele>847.2</ele>
        <time>2022-10-28T08:51:19Z</time>
      </trkpt>
      <trkpt lat="44.35699" lon="3.5866">
        <ele>847.4</ele>
        <time>2022-10-28T08:51:20Z</time>
      </trkpt>
      <trkpt lat="44.357" lon="3.58659">
        <ele>847.8</ele>
        <time>2022-10-28T08:51:21Z</time>
      </trkpt>
      <trkpt lat="44.35701" lon="3.58657">
        <ele>848</ele>
        <time>2022-10-28T08:51:22Z</time>
      </trkpt>
      <trkpt lat="44.35702" lon="3.58656">
        <ele>848.2</ele>
        <time>2022-10-28T08:51:23Z</time>
      </trkpt>
      <trkpt lat="44.35703" lon="3.58654">
        <ele>848.2</ele>
        <time>2022-10-28T08:51:24Z</time>
      </trkpt>
      <trkpt lat="44.35704" lon="3.58653">
        <ele>848.4</ele>
        <time>2022-10-28T08:51:25Z</time>
      </trkpt>
      <trkpt lat="44.35704" lon="3.58651">
        <ele>848.6</ele>
        <time>2022-10-28T08:51:26Z</time>
      </trkpt>
      <trkpt lat="44.35705" lon="3.58649">
        <ele>848.8</ele>
        <time>2022-10-28T08:51:27Z</time>
      </trkpt>
      <trkpt lat="44.35706" lon="3.58648">
        <ele>849</ele>
        <time>2022-10-28T08:51:28Z</time>
      </trkpt>
      <trkpt lat="44.35706" lon="3.58646">
        <ele>849.2</ele>
        <time>2022-10-28T08:51:29Z</time>
      </trkpt>
      <trkpt lat="44.35707" lon="3.58645">
        <ele>849.4</ele>
        <time>2022-10-28T08:51:30Z</time>
      </trkpt>
      <trkpt lat="44.35708" lon="3.58643">
        <ele>849.6</ele>
        <time>2022-10-28T08:51:31Z</time>
      </trkpt>
      <trkpt lat="44.35708" lon="3.58641">
        <ele>849.8</ele>
        <time>2022-10-28T08:51:32Z</time>
      </trkpt>
      <trkpt lat="44.35709" lon="3.5864">
        <ele>850</ele>
        <time>2022-10-28T08:51:33Z</time>
      </trkpt>
      <trkpt lat="44.35709" lon="3.58638">
        <ele>850.2</ele>
        <time>2022-10-28T08:51:34Z</time>
      </trkpt>
      <trkpt lat="44.3571" lon="3.58636">
        <ele>850.4</ele>
        <time>2022-10-28T08:51:35Z</time>
      </trkpt>
      <trkpt lat="44.35711" lon="3.58634">
        <ele>850.6</ele>
        <time>2022-10-28T08:51:36Z</time>
      </trkpt>
      <trkpt lat="44.35712" lon="3.58633">
        <ele>850.8</ele>
        <time>2022-10-28T08:51:37Z</time>
      </trkpt>
      <trkpt lat="44.35712" lon="3.58631">
        <ele>851</ele>
        <time>2022-10-28T08:51:38Z</time>
      </trkpt>
      <trkpt lat="44.35713" lon="3.5863">
        <ele>851.2</ele>
        <time>2022-10-28T08:51:39Z</time>
      </trkpt>
      <trkpt lat="44.35714" lon="3.58628">
        <ele>851.4</ele>
        <time>2022-10-28T08:51:40Z</time>
      </trkpt>
      <trkpt lat="44.35715" lon="3.58626">
        <ele>851.6</ele>
        <time>2022-10-28T08:51:41Z</time>
      </trkpt>
      <trkpt lat="44.35716" lon="3.58624">
        <ele>851.8</ele>
        <time>2022-10-28T08:51:42Z</time>
      </trkpt>
      <trkpt lat="44.35716" lon="3.58622">
        <ele>852</ele>
        <time>2022-10-28T08:51:43Z</time>
      </trkpt>
      <trkpt lat="44.35717" lon="3.5862">
        <ele>852.2</ele>
        <time>2022-10-28T08:51:44Z</time>
      </trkpt>
      <trkpt lat="44.35717" lon="3.58618">
        <ele>852.4</ele>
        <time>2022-10-28T08:51:45Z</time>
      </trkpt>
      <trkpt lat="44.35717" lon="3.58617">
        <ele>852.6</ele>
        <time>2022-10-28T08:51:46Z</time>
      </trkpt>
      <trkpt lat="44.35717" lon="3.58615">
        <ele>852.8</ele>
        <time>2022-10-28T08:51:47Z</time>
      </trkpt>
      <trkpt lat="44.35718" lon="3.58613">
        <ele>853</ele>
        <time>2022-10-28T08:51:48Z</time>
      </trkpt>
      <trkpt lat="44.35718" lon="3.5861">
        <ele>853.2</ele>
        <time>2022-10-28T08:51:49Z</time>
      </trkpt>
      <trkpt lat="44.35718" lon="3.58608">
        <ele>853.4</ele>
        <time>2022-10-28T08:51:50Z</time>
      </trkpt>
      <trkpt lat="44.35719" lon="3.58606">
        <ele>853.8</ele>
        <time>2022-10-28T08:51:51Z</time>
      </trkpt>
      <trkpt lat="44.3572" lon="3.58605">
        <ele>854</ele>
        <time>2022-10-28T08:51:52Z</time>
      </trkpt>
      <trkpt lat="44.35721" lon="3.58603">
        <ele>854.2</ele>
        <time>2022-10-28T08:51:53Z</time>
      </trkpt>
      <trkpt lat="44.35721" lon="3.58601">
        <ele>854.4</ele>
        <time>2022-10-28T08:51:54Z</time>
      </trkpt>
      <trkpt lat="44.35722" lon="3.58599">
        <ele>854.6</ele>
        <time>2022-10-28T08:51:55Z</time>
      </trkpt>
      <trkpt lat="44.35723" lon="3.58597">
        <ele>855</ele>
        <time>2022-10-28T08:51:56Z</time>
      </trkpt>
      <trkpt lat="44.35723" lon="3.58595">
        <ele>855.2</ele>
        <time>2022-10-28T08:51:57Z</time>
      </trkpt>
      <trkpt lat="44.35724" lon="3.58594">
        <ele>855.4</ele>
        <time>2022-10-28T08:51:58Z</time>
      </trkpt>
      <trkpt lat="44.35725" lon="3.58592">
        <ele>855.6</ele>
        <time>2022-10-28T08:51:59Z</time>
      </trkpt>
      <trkpt lat="44.35726" lon="3.5859">
        <ele>855.8</ele>
        <time>2022-10-28T08:52:00Z</time>
      </trkpt>
      <trkpt lat="44.35726" lon="3.58589">
        <ele>856</ele>
        <time>2022-10-28T08:52:01Z</time>
      </trkpt>
      <trkpt lat="44.35727" lon="3.58587">
        <ele>856.2</ele>
        <time>2022-10-28T08:52:02Z</time>
      </trkpt>
      <trkpt lat="44.35728" lon="3.58585">
        <ele>856.4</ele>
        <time>2022-10-28T08:52:03Z</time>
      </trkpt>
      <trkpt lat="44.35729" lon="3.58584">
        <ele>856.6</ele>
        <time>2022-10-28T08:52:04Z</time>
      </trkpt>
      <trkpt lat="44.3573" lon="3.58582">
        <ele>856.8</ele>
        <time>2022-10-28T08:52:05Z</time>
      </trkpt>
      <trkpt lat="44.35731" lon="3.58581">
        <ele>857</ele>
        <time>2022-10-28T08:52:06Z</time>
      </trkpt>
      <trkpt lat="44.35732" lon="3.58579">
        <ele>857.2</ele>
        <time>2022-10-28T08:52:07Z</time>
      </trkpt>
      <trkpt lat="44.35733" lon="3.58577">
        <ele>857.6</ele>
        <time>2022-10-28T08:52:08Z</time>
      </trkpt>
      <trkpt lat="44.35734" lon="3.58576">
        <ele>857.8</ele>
        <time>2022-10-28T08:52:09Z</time>
      </trkpt>
      <trkpt lat="44.35735" lon="3.58574">
        <ele>858</ele>
        <time>2022-10-28T08:52:10Z</time>
      </trkpt>
      <trkpt lat="44.35736" lon="3.58573">
        <ele>858.2</ele>
        <time>2022-10-28T08:52:11Z</time>
      </trkpt>
      <trkpt lat="44.35737" lon="3.58571">
        <ele>858.4</ele>
        <time>2022-10-28T08:52:12Z</time>
      </trkpt>
      <trkpt lat="44.35738" lon="3.5857">
        <ele>858.6</ele>
        <time>2022-10-28T08:52:13Z</time>
      </trkpt>
      <trkpt lat="44.35739" lon="3.58568">
        <ele>858.8</ele>
        <time>2022-10-28T08:52:14Z</time>
      </trkpt>
      <trkpt lat="44.35741" lon="3.58567">
        <ele>859</ele>
        <time>2022-10-28T08:52:15Z</time>
      </trkpt>
      <trkpt lat="44.35742" lon="3.58565">
        <ele>859.2</ele>
        <time>2022-10-28T08:52:16Z</time>
      </trkpt>
      <trkpt lat="44.35743" lon="3.58564">
        <ele>859.2</ele>
        <time>2022-10-28T08:52:17Z</time>
      </trkpt>
      <trkpt lat="44.35744" lon="3.58562">
        <ele>859.4</ele>
        <time>2022-10-28T08:52:18Z</time>
      </trkpt>
      <trkpt lat="44.35745" lon="3.5856">
        <ele>859.6</ele>
        <time>2022-10-28T08:52:19Z</time>
      </trkpt>
      <trkpt lat="44.35746" lon="3.58559">
        <ele>859.8</ele>
        <time>2022-10-28T08:52:20Z</time>
      </trkpt>
      <trkpt lat="44.35747" lon="3.58558">
        <ele>860</ele>
        <time>2022-10-28T08:52:21Z</time>
      </trkpt>
      <trkpt lat="44.35749" lon="3.58556">
        <ele>860</ele>
        <time>2022-10-28T08:52:22Z</time>
      </trkpt>
      <trkpt lat="44.35749" lon="3.58555">
        <ele>860.2</ele>
        <time>2022-10-28T08:52:23Z</time>
      </trkpt>
      <trkpt lat="44.3575" lon="3.58553">
        <ele>860.4</ele>
        <time>2022-10-28T08:52:24Z</time>
      </trkpt>
      <trkpt lat="44.35752" lon="3.58552">
        <ele>860.6</ele>
        <time>2022-10-28T08:52:25Z</time>
      </trkpt>
      <trkpt lat="44.35753" lon="3.58551">
        <ele>860.8</ele>
        <time>2022-10-28T08:52:26Z</time>
      </trkpt>
      <trkpt lat="44.35755" lon="3.5855">
        <ele>861</ele>
        <time>2022-10-28T08:52:27Z</time>
      </trkpt>
      <trkpt lat="44.35756" lon="3.58549">
        <ele>861.2</ele>
        <time>2022-10-28T08:52:28Z</time>
      </trkpt>
      <trkpt lat="44.35757" lon="3.58548">
        <ele>861.4</ele>
        <time>2022-10-28T08:52:29Z</time>
      </trkpt>
      <trkpt lat="44.35759" lon="3.58547">
        <ele>861.6</ele>
        <time>2022-10-28T08:52:30Z</time>
      </trkpt>
      <trkpt lat="44.3576" lon="3.58545">
        <ele>861.8</ele>
        <time>2022-10-28T08:52:31Z</time>
      </trkpt>
      <trkpt lat="44.35761" lon="3.58544">
        <ele>862</ele>
        <time>2022-10-28T08:52:32Z</time>
      </trkpt>
      <trkpt lat="44.35762" lon="3.58542">
        <ele>862.2</ele>
        <time>2022-10-28T08:52:33Z</time>
      </trkpt>
      <trkpt lat="44.35763" lon="3.5854">
        <ele>862.4</ele>
        <time>2022-10-28T08:52:34Z</time>
      </trkpt>
      <trkpt lat="44.35764" lon="3.58539">
        <ele>862.4</ele>
        <time>2022-10-28T08:52:35Z</time>
      </trkpt>
      <trkpt lat="44.35766" lon="3.58537">
        <ele>862.6</ele>
        <time>2022-10-28T08:52:36Z</time>
      </trkpt>
      <trkpt lat="44.35767" lon="3.58536">
        <ele>862.8</ele>
        <time>2022-10-28T08:52:37Z</time>
      </trkpt>
      <trkpt lat="44.35769" lon="3.58534">
        <ele>862.8</ele>
        <time>2022-10-28T08:52:38Z</time>
      </trkpt>
      <trkpt lat="44.3577" lon="3.58532">
        <ele>863</ele>
        <time>2022-10-28T08:52:39Z</time>
      </trkpt>
      <trkpt lat="44.35771" lon="3.58531">
        <ele>863.2</ele>
        <time>2022-10-28T08:52:40Z</time>
      </trkpt>
      <trkpt lat="44.35772" lon="3.58529">
        <ele>863.2</ele>
        <time>2022-10-28T08:52:41Z</time>
      </trkpt>
      <trkpt lat="44.35773" lon="3.58527">
        <ele>863.4</ele>
        <time>2022-10-28T08:52:42Z</time>
      </trkpt>
      <trkpt lat="44.35774" lon="3.58525">
        <ele>863.6</ele>
        <time>2022-10-28T08:52:43Z</time>
      </trkpt>
      <trkpt lat="44.35775" lon="3.58524">
        <ele>863.8</ele>
        <time>2022-10-28T08:52:44Z</time>
      </trkpt>
      <trkpt lat="44.35776" lon="3.58522">
        <ele>864</ele>
        <time>2022-10-28T08:52:45Z</time>
      </trkpt>
      <trkpt lat="44.35777" lon="3.58521">
        <ele>864.2</ele>
        <time>2022-10-28T08:52:46Z</time>
      </trkpt>
      <trkpt lat="44.35778" lon="3.58519">
        <ele>864.4</ele>
        <time>2022-10-28T08:52:47Z</time>
      </trkpt>
      <trkpt lat="44.35779" lon="3.58518">
        <ele>864.6</ele>
        <time>2022-10-28T08:52:48Z</time>
      </trkpt>
      <trkpt lat="44.3578" lon="3.58517">
        <ele>864.6</ele>
        <time>2022-10-28T08:52:49Z</time>
      </trkpt>
      <trkpt lat="44.35781" lon="3.58516">
        <ele>864.8</ele>
        <time>2022-10-28T08:52:50Z</time>
      </trkpt>
      <trkpt lat="44.35783" lon="3.58515">
        <ele>865</ele>
        <time>2022-10-28T08:52:51Z</time>
      </trkpt>
      <trkpt lat="44.35784" lon="3.58514">
        <ele>865.2</ele>
        <time>2022-10-28T08:52:52Z</time>
      </trkpt>
      <trkpt lat="44.35786" lon="3.58513">
        <ele>865.4</ele>
        <time>2022-10-28T08:52:53Z</time>
      </trkpt>
      <trkpt lat="44.35787" lon="3.58513">
        <ele>865.6</ele>
        <time>2022-10-28T08:52:54Z</time>
      </trkpt>
      <trkpt lat="44.35789" lon="3.58513">
        <ele>865.8</ele>
        <time>2022-10-28T08:52:55Z</time>
      </trkpt>
      <trkpt lat="44.3579" lon="3.58513">
        <ele>865.8</ele>
        <time>2022-10-28T08:52:56Z</time>
      </trkpt>
      <trkpt lat="44.35792" lon="3.58513">
        <ele>866</ele>
        <time>2022-10-28T08:52:57Z</time>
      </trkpt>
      <trkpt lat="44.35793" lon="3.58512">
        <ele>866.2</ele>
        <time>2022-10-28T08:52:58Z</time>
      </trkpt>
      <trkpt lat="44.35795" lon="3.58512">
        <ele>866.4</ele>
        <time>2022-10-28T08:52:59Z</time>
      </trkpt>
      <trkpt lat="44.35797" lon="3.58512">
        <ele>866.6</ele>
        <time>2022-10-28T08:53:00Z</time>
      </trkpt>
      <trkpt lat="44.35798" lon="3.58512">
        <ele>866.8</ele>
        <time>2022-10-28T08:53:01Z</time>
      </trkpt>
      <trkpt lat="44.358" lon="3.58512">
        <ele>867</ele>
        <time>2022-10-28T08:53:02Z</time>
      </trkpt>
      <trkpt lat="44.35801" lon="3.58512">
        <ele>867.2</ele>
        <time>2022-10-28T08:53:03Z</time>
      </trkpt>
      <trkpt lat="44.35803" lon="3.58513">
        <ele>867.2</ele>
        <time>2022-10-28T08:53:04Z</time>
      </trkpt>
      <trkpt lat="44.35804" lon="3.58514">
        <ele>867.4</ele>
        <time>2022-10-28T08:53:05Z</time>
      </trkpt>
      <trkpt lat="44.35806" lon="3.58515">
        <ele>867.6</ele>
        <time>2022-10-28T08:53:06Z</time>
      </trkpt>
      <trkpt lat="44.35807" lon="3.58516">
        <ele>867.8</ele>
        <time>2022-10-28T08:53:07Z</time>
      </trkpt>
      <trkpt lat="44.35808" lon="3.58517">
        <ele>868</ele>
        <time>2022-10-28T08:53:08Z</time>
      </trkpt>
      <trkpt lat="44.35809" lon="3.58519">
        <ele>868.2</ele>
        <time>2022-10-28T08:53:09Z</time>
      </trkpt>
      <trkpt lat="44.3581" lon="3.5852">
        <ele>868.4</ele>
        <time>2022-10-28T08:53:10Z</time>
      </trkpt>
      <trkpt lat="44.35811" lon="3.58522">
        <ele>868.6</ele>
        <time>2022-10-28T08:53:11Z</time>
      </trkpt>
      <trkpt lat="44.35812" lon="3.58524">
        <ele>868.8</ele>
        <time>2022-10-28T08:53:12Z</time>
      </trkpt>
      <trkpt lat="44.35812" lon="3.58526">
        <ele>869</ele>
        <time>2022-10-28T08:53:13Z</time>
      </trkpt>
      <trkpt lat="44.35813" lon="3.58528">
        <ele>869.2</ele>
        <time>2022-10-28T08:53:14Z</time>
      </trkpt>
      <trkpt lat="44.35813" lon="3.5853">
        <ele>869.4</ele>
        <time>2022-10-28T08:53:15Z</time>
      </trkpt>
      <trkpt lat="44.35813" lon="3.58532">
        <ele>869.6</ele>
        <time>2022-10-28T08:53:16Z</time>
      </trkpt>
      <trkpt lat="44.35813" lon="3.58534">
        <ele>869.8</ele>
        <time>2022-10-28T08:53:17Z</time>
      </trkpt>
      <trkpt lat="44.35813" lon="3.58536">
        <ele>870</ele>
        <time>2022-10-28T08:53:18Z</time>
      </trkpt>
      <trkpt lat="44.35812" lon="3.58538">
        <ele>870.2</ele>
        <time>2022-10-28T08:53:19Z</time>
      </trkpt>
      <trkpt lat="44.35811" lon="3.5854">
        <ele>870.6</ele>
        <time>2022-10-28T08:53:20Z</time>
      </trkpt>
      <trkpt lat="44.3581" lon="3.58542">
        <ele>870.8</ele>
        <time>2022-10-28T08:53:21Z</time>
      </trkpt>
      <trkpt lat="44.35809" lon="3.58544">
        <ele>871</ele>
        <time>2022-10-28T08:53:22Z</time>
      </trkpt>
      <trkpt lat="44.35808" lon="3.58545">
        <ele>871.2</ele>
        <time>2022-10-28T08:53:23Z</time>
      </trkpt>
      <trkpt lat="44.35808" lon="3.58547">
        <ele>871.4</ele>
        <time>2022-10-28T08:53:24Z</time>
      </trkpt>
      <trkpt lat="44.35807" lon="3.58549">
        <ele>871.6</ele>
        <time>2022-10-28T08:53:25Z</time>
      </trkpt>
      <trkpt lat="44.35806" lon="3.58551">
        <ele>871.8</ele>
        <time>2022-10-28T08:53:26Z</time>
      </trkpt>
      <trkpt lat="44.35806" lon="3.58553">
        <ele>872</ele>
        <time>2022-10-28T08:53:27Z</time>
      </trkpt>
      <trkpt lat="44.35805" lon="3.58555">
        <ele>872.2</ele>
        <time>2022-10-28T08:53:28Z</time>
      </trkpt>
      <trkpt lat="44.35804" lon="3.58557">
        <ele>872.4</ele>
        <time>2022-10-28T08:53:29Z</time>
      </trkpt>
      <trkpt lat="44.35804" lon="3.58558">
        <ele>872.6</ele>
        <time>2022-10-28T08:53:30Z</time>
      </trkpt>
      <trkpt lat="44.35803" lon="3.5856">
        <ele>872.8</ele>
        <time>2022-10-28T08:53:31Z</time>
      </trkpt>
      <trkpt lat="44.35802" lon="3.58562">
        <ele>873</ele>
        <time>2022-10-28T08:53:32Z</time>
      </trkpt>
      <trkpt lat="44.35802" lon="3.58564">
        <ele>873.2</ele>
        <time>2022-10-28T08:53:33Z</time>
      </trkpt>
      <trkpt lat="44.35801" lon="3.58567">
        <ele>873.2</ele>
        <time>2022-10-28T08:53:34Z</time>
      </trkpt>
      <trkpt lat="44.358" lon="3.58569">
        <ele>873.4</ele>
        <time>2022-10-28T08:53:35Z</time>
      </trkpt>
      <trkpt lat="44.358" lon="3.58571">
        <ele>873.6</ele>
        <time>2022-10-28T08:53:36Z</time>
      </trkpt>
      <trkpt lat="44.358" lon="3.58573">
        <ele>873.8</ele>
        <time>2022-10-28T08:53:37Z</time>
      </trkpt>
      <trkpt lat="44.35799" lon="3.58575">
        <ele>874</ele>
        <time>2022-10-28T08:53:38Z</time>
      </trkpt>
      <trkpt lat="44.35799" lon="3.58577">
        <ele>874.2</ele>
        <time>2022-10-28T08:53:39Z</time>
      </trkpt>
      <trkpt lat="44.35799" lon="3.58579">
        <ele>874.4</ele>
        <time>2022-10-28T08:53:40Z</time>
      </trkpt>
      <trkpt lat="44.35798" lon="3.58581">
        <ele>874.6</ele>
        <time>2022-10-28T08:53:41Z</time>
      </trkpt>
      <trkpt lat="44.35797" lon="3.58583">
        <ele>875</ele>
        <time>2022-10-28T08:53:42Z</time>
      </trkpt>
      <trkpt lat="44.35797" lon="3.58585">
        <ele>875.2</ele>
        <time>2022-10-28T08:53:43Z</time>
      </trkpt>
      <trkpt lat="44.35796" lon="3.58587">
        <ele>875.4</ele>
        <time>2022-10-28T08:53:44Z</time>
      </trkpt>
      <trkpt lat="44.35796" lon="3.58589">
        <ele>875.4</ele>
        <time>2022-10-28T08:53:45Z</time>
      </trkpt>
      <trkpt lat="44.35795" lon="3.58591">
        <ele>875.6</ele>
        <time>2022-10-28T08:53:46Z</time>
      </trkpt>
      <trkpt lat="44.35794" lon="3.58592">
        <ele>875.8</ele>
        <time>2022-10-28T08:53:47Z</time>
      </trkpt>
      <trkpt lat="44.35794" lon="3.58595">
        <ele>876</ele>
        <time>2022-10-28T08:53:48Z</time>
      </trkpt>
      <trkpt lat="44.35794" lon="3.58597">
        <ele>876.2</ele>
        <time>2022-10-28T08:53:49Z</time>
      </trkpt>
      <trkpt lat="44.35794" lon="3.58599">
        <ele>876.4</ele>
        <time>2022-10-28T08:53:50Z</time>
      </trkpt>
      <trkpt lat="44.35793" lon="3.58602">
        <ele>876.6</ele>
        <time>2022-10-28T08:53:51Z</time>
      </trkpt>
      <trkpt lat="44.35793" lon="3.58604">
        <ele>877</ele>
        <time>2022-10-28T08:53:52Z</time>
      </trkpt>
      <trkpt lat="44.35794" lon="3.58606">
        <ele>877.2</ele>
        <time>2022-10-28T08:53:53Z</time>
      </trkpt>
      <trkpt lat="44.35794" lon="3.58608">
        <ele>877.4</ele>
        <time>2022-10-28T08:53:54Z</time>
      </trkpt>
      <trkpt lat="44.35794" lon="3.5861">
        <ele>877.8</ele>
        <time>2022-10-28T08:53:55Z</time>
      </trkpt>
      <trkpt lat="44.35795" lon="3.58612">
        <ele>878</ele>
        <time>2022-10-28T08:53:56Z</time>
      </trkpt>
      <trkpt lat="44.35796" lon="3.58613">
        <ele>878</ele>
        <time>2022-10-28T08:53:57Z</time>
      </trkpt>
      <trkpt lat="44.35798" lon="3.58614">
        <ele>878.2</ele>
        <time>2022-10-28T08:53:58Z</time>
      </trkpt>
      <trkpt lat="44.35799" lon="3.58614">
        <ele>878.4</ele>
        <time>2022-10-28T08:53:59Z</time>
      </trkpt>
      <trkpt lat="44.35801" lon="3.58614">
        <ele>878.8</ele>
        <time>2022-10-28T08:54:00Z</time>
      </trkpt>
      <trkpt lat="44.35802" lon="3.58614">
        <ele>879</ele>
        <time>2022-10-28T08:54:01Z</time>
      </trkpt>
      <trkpt lat="44.35803" lon="3.58613">
        <ele>879.2</ele>
        <time>2022-10-28T08:54:02Z</time>
      </trkpt>
      <trkpt lat="44.35805" lon="3.58613">
        <ele>879.4</ele>
        <time>2022-10-28T08:54:03Z</time>
      </trkpt>
      <trkpt lat="44.35807" lon="3.58613">
        <ele>879.6</ele>
        <time>2022-10-28T08:54:04Z</time>
      </trkpt>
      <trkpt lat="44.35808" lon="3.58613">
        <ele>880</ele>
        <time>2022-10-28T08:54:05Z</time>
      </trkpt>
      <trkpt lat="44.35809" lon="3.58612">
        <ele>880.2</ele>
        <time>2022-10-28T08:54:06Z</time>
      </trkpt>
      <trkpt lat="44.35811" lon="3.58612">
        <ele>880.4</ele>
        <time>2022-10-28T08:54:07Z</time>
      </trkpt>
      <trkpt lat="44.35812" lon="3.58611">
        <ele>880.6</ele>
        <time>2022-10-28T08:54:08Z</time>
      </trkpt>
      <trkpt lat="44.35813" lon="3.58611">
        <ele>881</ele>
        <time>2022-10-28T08:54:09Z</time>
      </trkpt>
      <trkpt lat="44.35815" lon="3.58611">
        <ele>881.2</ele>
        <time>2022-10-28T08:54:10Z</time>
      </trkpt>
      <trkpt lat="44.35816" lon="3.58611">
        <ele>881.4</ele>
        <time>2022-10-28T08:54:11Z</time>
      </trkpt>
      <trkpt lat="44.35817" lon="3.58611">
        <ele>881.6</ele>
        <time>2022-10-28T08:54:12Z</time>
      </trkpt>
      <trkpt lat="44.35819" lon="3.58611">
        <ele>881.8</ele>
        <time>2022-10-28T08:54:13Z</time>
      </trkpt>
      <trkpt lat="44.3582" lon="3.58611">
        <ele>882</ele>
        <time>2022-10-28T08:54:14Z</time>
      </trkpt>
      <trkpt lat="44.35821" lon="3.58611">
        <ele>882.2</ele>
        <time>2022-10-28T08:54:15Z</time>
      </trkpt>
      <trkpt lat="44.35823" lon="3.58611">
        <ele>882.6</ele>
        <time>2022-10-28T08:54:16Z</time>
      </trkpt>
      <trkpt lat="44.35825" lon="3.5861">
        <ele>882.8</ele>
        <time>2022-10-28T08:54:17Z</time>
      </trkpt>
      <trkpt lat="44.35826" lon="3.5861">
        <ele>883</ele>
        <time>2022-10-28T08:54:18Z</time>
      </trkpt>
      <trkpt lat="44.35828" lon="3.5861">
        <ele>883.2</ele>
        <time>2022-10-28T08:54:19Z</time>
      </trkpt>
      <trkpt lat="44.35829" lon="3.5861">
        <ele>883.4</ele>
        <time>2022-10-28T08:54:20Z</time>
      </trkpt>
      <trkpt lat="44.3583" lon="3.5861">
        <ele>883.6</ele>
        <time>2022-10-28T08:54:21Z</time>
      </trkpt>
      <trkpt lat="44.35832" lon="3.5861">
        <ele>883.8</ele>
        <time>2022-10-28T08:54:22Z</time>
      </trkpt>
      <trkpt lat="44.35833" lon="3.58611">
        <ele>884</ele>
        <time>2022-10-28T08:54:23Z</time>
      </trkpt>
      <trkpt lat="44.35835" lon="3.58612">
        <ele>884.2</ele>
        <time>2022-10-28T08:54:24Z</time>
      </trkpt>
      <trkpt lat="44.35836" lon="3.58612">
        <ele>884.2</ele>
        <time>2022-10-28T08:54:25Z</time>
      </trkpt>
      <trkpt lat="44.35838" lon="3.58613">
        <ele>884.4</ele>
        <time>2022-10-28T08:54:26Z</time>
      </trkpt>
      <trkpt lat="44.3584" lon="3.58613">
        <ele>884.6</ele>
        <time>2022-10-28T08:54:27Z</time>
      </trkpt>
      <trkpt lat="44.35842" lon="3.58614">
        <ele>884.6</ele>
        <time>2022-10-28T08:54:28Z</time>
      </trkpt>
      <trkpt lat="44.35843" lon="3.58614">
        <ele>884.8</ele>
        <time>2022-10-28T08:54:29Z</time>
      </trkpt>
      <trkpt lat="44.35845" lon="3.58615">
        <ele>885</ele>
        <time>2022-10-28T08:54:30Z</time>
      </trkpt>
      <trkpt lat="44.35846" lon="3.58615">
        <ele>885.2</ele>
        <time>2022-10-28T08:54:31Z</time>
      </trkpt>
      <trkpt lat="44.35848" lon="3.58615">
        <ele>885.2</ele>
        <time>2022-10-28T08:54:32Z</time>
      </trkpt>
      <trkpt lat="44.3585" lon="3.58616">
        <ele>885.4</ele>
        <time>2022-10-28T08:54:33Z</time>
      </trkpt>
      <trkpt lat="44.35852" lon="3.58616">
        <ele>885.6</ele>
        <time>2022-10-28T08:54:34Z</time>
      </trkpt>
      <trkpt lat="44.35854" lon="3.58616">
        <ele>885.8</ele>
        <time>2022-10-28T08:54:35Z</time>
      </trkpt>
      <trkpt lat="44.35856" lon="3.58616">
        <ele>885.8</ele>
        <time>2022-10-28T08:54:36Z</time>
      </trkpt>
      <trkpt lat="44.35857" lon="3.58616">
        <ele>886</ele>
        <time>2022-10-28T08:54:37Z</time>
      </trkpt>
      <trkpt lat="44.35859" lon="3.58617">
        <ele>886.2</ele>
        <time>2022-10-28T08:54:38Z</time>
      </trkpt>
      <trkpt lat="44.35861" lon="3.58617">
        <ele>886.2</ele>
        <time>2022-10-28T08:54:39Z</time>
      </trkpt>
      <trkpt lat="44.35863" lon="3.58618">
        <ele>886.4</ele>
        <time>2022-10-28T08:54:40Z</time>
      </trkpt>
      <trkpt lat="44.35865" lon="3.58618">
        <ele>886.4</ele>
        <time>2022-10-28T08:54:41Z</time>
      </trkpt>
      <trkpt lat="44.35867" lon="3.58618">
        <ele>886.6</ele>
        <time>2022-10-28T08:54:42Z</time>
      </trkpt>
      <trkpt lat="44.35869" lon="3.58618">
        <ele>886.8</ele>
        <time>2022-10-28T08:54:43Z</time>
      </trkpt>
      <trkpt lat="44.3587" lon="3.58618">
        <ele>886.8</ele>
        <time>2022-10-28T08:54:44Z</time>
      </trkpt>
      <trkpt lat="44.35872" lon="3.58619">
        <ele>886.8</ele>
        <time>2022-10-28T08:54:45Z</time>
      </trkpt>
      <trkpt lat="44.35874" lon="3.58619">
        <ele>887</ele>
        <time>2022-10-28T08:54:46Z</time>
      </trkpt>
      <trkpt lat="44.35876" lon="3.58619">
        <ele>887</ele>
        <time>2022-10-28T08:54:47Z</time>
      </trkpt>
      <trkpt lat="44.35878" lon="3.58619">
        <ele>887.2</ele>
        <time>2022-10-28T08:54:48Z</time>
      </trkpt>
      <trkpt lat="44.35881" lon="3.58619">
        <ele>887.2</ele>
        <time>2022-10-28T08:54:49Z</time>
      </trkpt>
      <trkpt lat="44.35883" lon="3.58619">
        <ele>887.4</ele>
        <time>2022-10-28T08:54:50Z</time>
      </trkpt>
      <trkpt lat="44.35885" lon="3.58619">
        <ele>887.6</ele>
        <time>2022-10-28T08:54:51Z</time>
      </trkpt>
      <trkpt lat="44.35886" lon="3.5862">
        <ele>887.8</ele>
        <time>2022-10-28T08:54:52Z</time>
      </trkpt>
      <trkpt lat="44.35888" lon="3.5862">
        <ele>888</ele>
        <time>2022-10-28T08:54:53Z</time>
      </trkpt>
      <trkpt lat="44.35889" lon="3.5862">
        <ele>888</ele>
        <time>2022-10-28T08:54:54Z</time>
      </trkpt>
      <trkpt lat="44.35891" lon="3.5862">
        <ele>888.2</ele>
        <time>2022-10-28T08:54:55Z</time>
      </trkpt>
      <trkpt lat="44.35892" lon="3.5862">
        <ele>888.2</ele>
        <time>2022-10-28T08:54:56Z</time>
      </trkpt>
      <trkpt lat="44.35893" lon="3.5862">
        <ele>888.2</ele>
        <time>2022-10-28T08:54:57Z</time>
      </trkpt>
      <trkpt lat="44.35895" lon="3.5862">
        <ele>888.2</ele>
        <time>2022-10-28T08:55:44Z</time>
      </trkpt>
      <trkpt lat="44.35896" lon="3.5862">
        <ele>888.4</ele>
        <time>2022-10-28T08:55:45Z</time>
      </trkpt>
      <trkpt lat="44.35898" lon="3.5862">
        <ele>888.4</ele>
        <time>2022-10-28T08:55:46Z</time>
      </trkpt>
      <trkpt lat="44.359" lon="3.5862">
        <ele>888.6</ele>
        <time>2022-10-28T08:55:47Z</time>
      </trkpt>
      <trkpt lat="44.35902" lon="3.5862">
        <ele>888.8</ele>
        <time>2022-10-28T08:55:48Z</time>
      </trkpt>
      <trkpt lat="44.35903" lon="3.5862">
        <ele>889</ele>
        <time>2022-10-28T08:55:49Z</time>
      </trkpt>
      <trkpt lat="44.35905" lon="3.5862">
        <ele>889.2</ele>
        <time>2022-10-28T08:55:50Z</time>
      </trkpt>
      <trkpt lat="44.35907" lon="3.58619">
        <ele>889.4</ele>
        <time>2022-10-28T08:55:51Z</time>
      </trkpt>
      <trkpt lat="44.35909" lon="3.58619">
        <ele>889.6</ele>
        <time>2022-10-28T08:55:52Z</time>
      </trkpt>
      <trkpt lat="44.3591" lon="3.58618">
        <ele>889.8</ele>
        <time>2022-10-28T08:55:53Z</time>
      </trkpt>
      <trkpt lat="44.35912" lon="3.58618">
        <ele>889.8</ele>
        <time>2022-10-28T08:55:54Z</time>
      </trkpt>
      <trkpt lat="44.35913" lon="3.58617">
        <ele>890</ele>
        <time>2022-10-28T08:55:55Z</time>
      </trkpt>
      <trkpt lat="44.35915" lon="3.58616">
        <ele>890.2</ele>
        <time>2022-10-28T08:55:56Z</time>
      </trkpt>
      <trkpt lat="44.35917" lon="3.58615">
        <ele>890.4</ele>
        <time>2022-10-28T08:55:57Z</time>
      </trkpt>
      <trkpt lat="44.35919" lon="3.58615">
        <ele>890.6</ele>
        <time>2022-10-28T08:55:58Z</time>
      </trkpt>
      <trkpt lat="44.35921" lon="3.58614">
        <ele>890.8</ele>
        <time>2022-10-28T08:55:59Z</time>
      </trkpt>
      <trkpt lat="44.35922" lon="3.58613">
        <ele>891</ele>
        <time>2022-10-28T08:56:00Z</time>
      </trkpt>
      <trkpt lat="44.35924" lon="3.58612">
        <ele>891.2</ele>
        <time>2022-10-28T08:56:01Z</time>
      </trkpt>
      <trkpt lat="44.35926" lon="3.58611">
        <ele>891.4</ele>
        <time>2022-10-28T08:56:02Z</time>
      </trkpt>
      <trkpt lat="44.35928" lon="3.5861">
        <ele>891.6</ele>
        <time>2022-10-28T08:56:03Z</time>
      </trkpt>
      <trkpt lat="44.3593" lon="3.58608">
        <ele>891.8</ele>
        <time>2022-10-28T08:56:04Z</time>
      </trkpt>
      <trkpt lat="44.35931" lon="3.58607">
        <ele>892</ele>
        <time>2022-10-28T08:56:05Z</time>
      </trkpt>
      <trkpt lat="44.35933" lon="3.58606">
        <ele>892</ele>
        <time>2022-10-28T08:56:06Z</time>
      </trkpt>
      <trkpt lat="44.35935" lon="3.58605">
        <ele>892.2</ele>
        <time>2022-10-28T08:56:07Z</time>
      </trkpt>
      <trkpt lat="44.35937" lon="3.58604">
        <ele>892.6</ele>
        <time>2022-10-28T08:56:08Z</time>
      </trkpt>
      <trkpt lat="44.35938" lon="3.58603">
        <ele>892.8</ele>
        <time>2022-10-28T08:56:09Z</time>
      </trkpt>
      <trkpt lat="44.3594" lon="3.58602">
        <ele>893</ele>
        <time>2022-10-28T08:56:10Z</time>
      </trkpt>
      <trkpt lat="44.35942" lon="3.58601">
        <ele>893.2</ele>
        <time>2022-10-28T08:56:11Z</time>
      </trkpt>
      <trkpt lat="44.35944" lon="3.586">
        <ele>893.4</ele>
        <time>2022-10-28T08:56:12Z</time>
      </trkpt>
      <trkpt lat="44.35945" lon="3.58598">
        <ele>893.6</ele>
        <time>2022-10-28T08:56:13Z</time>
      </trkpt>
      <trkpt lat="44.35947" lon="3.58597">
        <ele>893.8</ele>
        <time>2022-10-28T08:56:14Z</time>
      </trkpt>
      <trkpt lat="44.35949" lon="3.58596">
        <ele>894</ele>
        <time>2022-10-28T08:56:15Z</time>
      </trkpt>
      <trkpt lat="44.3595" lon="3.58594">
        <ele>894</ele>
        <time>2022-10-28T08:56:16Z</time>
      </trkpt>
      <trkpt lat="44.35951" lon="3.58593">
        <ele>894.2</ele>
        <time>2022-10-28T08:56:17Z</time>
      </trkpt>
      <trkpt lat="44.35953" lon="3.58591">
        <ele>894.2</ele>
        <time>2022-10-28T08:56:18Z</time>
      </trkpt>
      <trkpt lat="44.35954" lon="3.5859">
        <ele>894.4</ele>
        <time>2022-10-28T08:56:19Z</time>
      </trkpt>
      <trkpt lat="44.35956" lon="3.58588">
        <ele>894.6</ele>
        <time>2022-10-28T08:56:20Z</time>
      </trkpt>
      <trkpt lat="44.35958" lon="3.58586">
        <ele>894.6</ele>
        <time>2022-10-28T08:56:21Z</time>
      </trkpt>
      <trkpt lat="44.35959" lon="3.58584">
        <ele>894.8</ele>
        <time>2022-10-28T08:56:22Z</time>
      </trkpt>
      <trkpt lat="44.3596" lon="3.58582">
        <ele>895</ele>
        <time>2022-10-28T08:56:23Z</time>
      </trkpt>
      <trkpt lat="44.35961" lon="3.5858">
        <ele>895.2</ele>
        <time>2022-10-28T08:56:24Z</time>
      </trkpt>
      <trkpt lat="44.35962" lon="3.58578">
        <ele>895.4</ele>
        <time>2022-10-28T08:56:25Z</time>
      </trkpt>
      <trkpt lat="44.35964" lon="3.58577">
        <ele>895.6</ele>
        <time>2022-10-28T08:56:26Z</time>
      </trkpt>
      <trkpt lat="44.35965" lon="3.58575">
        <ele>895.8</ele>
        <time>2022-10-28T08:56:27Z</time>
      </trkpt>
      <trkpt lat="44.35967" lon="3.58574">
        <ele>896</ele>
        <time>2022-10-28T08:56:28Z</time>
      </trkpt>
      <trkpt lat="44.35968" lon="3.58573">
        <ele>896.2</ele>
        <time>2022-10-28T08:56:29Z</time>
      </trkpt>
      <trkpt lat="44.3597" lon="3.58572">
        <ele>896.4</ele>
        <time>2022-10-28T08:56:30Z</time>
      </trkpt>
      <trkpt lat="44.35971" lon="3.5857">
        <ele>896.6</ele>
        <time>2022-10-28T08:56:31Z</time>
      </trkpt>
      <trkpt lat="44.35973" lon="3.58569">
        <ele>896.8</ele>
        <time>2022-10-28T08:56:32Z</time>
      </trkpt>
      <trkpt lat="44.35974" lon="3.58567">
        <ele>897</ele>
        <time>2022-10-28T08:56:33Z</time>
      </trkpt>
      <trkpt lat="44.35976" lon="3.58566">
        <ele>897.2</ele>
        <time>2022-10-28T08:56:34Z</time>
      </trkpt>
      <trkpt lat="44.35977" lon="3.58564">
        <ele>897.2</ele>
        <time>2022-10-28T08:56:35Z</time>
      </trkpt>
      <trkpt lat="44.35978" lon="3.58563">
        <ele>897.4</ele>
        <time>2022-10-28T08:56:36Z</time>
      </trkpt>
      <trkpt lat="44.3598" lon="3.58562">
        <ele>897.6</ele>
        <time>2022-10-28T08:56:37Z</time>
      </trkpt>
      <trkpt lat="44.35981" lon="3.58561">
        <ele>897.8</ele>
        <time>2022-10-28T08:56:38Z</time>
      </trkpt>
      <trkpt lat="44.35983" lon="3.5856">
        <ele>898</ele>
        <time>2022-10-28T08:56:39Z</time>
      </trkpt>
      <trkpt lat="44.35984" lon="3.58559">
        <ele>898.2</ele>
        <time>2022-10-28T08:56:40Z</time>
      </trkpt>
      <trkpt lat="44.35986" lon="3.58557">
        <ele>898.4</ele>
        <time>2022-10-28T08:56:41Z</time>
      </trkpt>
      <trkpt lat="44.35988" lon="3.58556">
        <ele>898.4</ele>
        <time>2022-10-28T08:56:42Z</time>
      </trkpt>
      <trkpt lat="44.35989" lon="3.58555">
        <ele>898.6</ele>
        <time>2022-10-28T08:56:43Z</time>
      </trkpt>
      <trkpt lat="44.35991" lon="3.58553">
        <ele>898.8</ele>
        <time>2022-10-28T08:56:44Z</time>
      </trkpt>
      <trkpt lat="44.35993" lon="3.58552">
        <ele>899</ele>
        <time>2022-10-28T08:56:45Z</time>
      </trkpt>
      <trkpt lat="44.35994" lon="3.58551">
        <ele>899.2</ele>
        <time>2022-10-28T08:56:46Z</time>
      </trkpt>
      <trkpt lat="44.35996" lon="3.5855">
        <ele>899.4</ele>
        <time>2022-10-28T08:56:47Z</time>
      </trkpt>
      <trkpt lat="44.35997" lon="3.58548">
        <ele>899.6</ele>
        <time>2022-10-28T08:56:48Z</time>
      </trkpt>
      <trkpt lat="44.35999" lon="3.58547">
        <ele>899.6</ele>
        <time>2022-10-28T08:56:49Z</time>
      </trkpt>
      <trkpt lat="44.36" lon="3.58546">
        <ele>899.8</ele>
        <time>2022-10-28T08:56:50Z</time>
      </trkpt>
      <trkpt lat="44.36002" lon="3.58545">
        <ele>900</ele>
        <time>2022-10-28T08:56:51Z</time>
      </trkpt>
      <trkpt lat="44.36004" lon="3.58543">
        <ele>900.2</ele>
        <time>2022-10-28T08:56:52Z</time>
      </trkpt>
      <trkpt lat="44.36005" lon="3.58542">
        <ele>900.2</ele>
        <time>2022-10-28T08:56:53Z</time>
      </trkpt>
      <trkpt lat="44.36007" lon="3.58541">
        <ele>900.4</ele>
        <time>2022-10-28T08:56:54Z</time>
      </trkpt>
      <trkpt lat="44.36008" lon="3.5854">
        <ele>900.6</ele>
        <time>2022-10-28T08:56:55Z</time>
      </trkpt>
      <trkpt lat="44.3601" lon="3.58539">
        <ele>900.8</ele>
        <time>2022-10-28T08:56:56Z</time>
      </trkpt>
      <trkpt lat="44.36011" lon="3.58537">
        <ele>901</ele>
        <time>2022-10-28T08:56:57Z</time>
      </trkpt>
      <trkpt lat="44.36013" lon="3.58536">
        <ele>901</ele>
        <time>2022-10-28T08:56:58Z</time>
      </trkpt>
      <trkpt lat="44.36015" lon="3.58535">
        <ele>901.2</ele>
        <time>2022-10-28T08:56:59Z</time>
      </trkpt>
      <trkpt lat="44.36016" lon="3.58534">
        <ele>901.4</ele>
        <time>2022-10-28T08:57:00Z</time>
      </trkpt>
      <trkpt lat="44.36018" lon="3.58533">
        <ele>901.6</ele>
        <time>2022-10-28T08:57:01Z</time>
      </trkpt>
      <trkpt lat="44.3602" lon="3.58532">
        <ele>901.8</ele>
        <time>2022-10-28T08:57:02Z</time>
      </trkpt>
      <trkpt lat="44.36021" lon="3.58532">
        <ele>902</ele>
        <time>2022-10-28T08:57:03Z</time>
      </trkpt>
      <trkpt lat="44.36023" lon="3.58531">
        <ele>902</ele>
        <time>2022-10-28T08:57:04Z</time>
      </trkpt>
      <trkpt lat="44.36025" lon="3.5853">
        <ele>902.2</ele>
        <time>2022-10-28T08:57:05Z</time>
      </trkpt>
      <trkpt lat="44.36027" lon="3.5853">
        <ele>902.4</ele>
        <time>2022-10-28T08:57:06Z</time>
      </trkpt>
      <trkpt lat="44.36029" lon="3.5853">
        <ele>902.6</ele>
        <time>2022-10-28T08:57:07Z</time>
      </trkpt>
      <trkpt lat="44.36031" lon="3.5853">
        <ele>902.8</ele>
        <time>2022-10-28T08:57:08Z</time>
      </trkpt>
      <trkpt lat="44.36032" lon="3.5853">
        <ele>902.8</ele>
        <time>2022-10-28T08:57:09Z</time>
      </trkpt>
      <trkpt lat="44.36034" lon="3.5853">
        <ele>903</ele>
        <time>2022-10-28T08:57:10Z</time>
      </trkpt>
      <trkpt lat="44.36036" lon="3.5853">
        <ele>903.2</ele>
        <time>2022-10-28T08:57:11Z</time>
      </trkpt>
      <trkpt lat="44.36038" lon="3.58529">
        <ele>903.4</ele>
        <time>2022-10-28T08:57:12Z</time>
      </trkpt>
      <trkpt lat="44.3604" lon="3.58529">
        <ele>903.4</ele>
        <time>2022-10-28T08:57:13Z</time>
      </trkpt>
      <trkpt lat="44.36042" lon="3.58529">
        <ele>903.6</ele>
        <time>2022-10-28T08:57:14Z</time>
      </trkpt>
      <trkpt lat="44.36044" lon="3.58529">
        <ele>903.8</ele>
        <time>2022-10-28T08:57:15Z</time>
      </trkpt>
      <trkpt lat="44.36046" lon="3.58529">
        <ele>904</ele>
        <time>2022-10-28T08:57:16Z</time>
      </trkpt>
      <trkpt lat="44.36048" lon="3.58528">
        <ele>904.2</ele>
        <time>2022-10-28T08:57:17Z</time>
      </trkpt>
      <trkpt lat="44.3605" lon="3.58528">
        <ele>904.4</ele>
        <time>2022-10-28T08:57:18Z</time>
      </trkpt>
      <trkpt lat="44.36052" lon="3.58528">
        <ele>904.6</ele>
        <time>2022-10-28T08:57:19Z</time>
      </trkpt>
      <trkpt lat="44.36053" lon="3.58528">
        <ele>904.8</ele>
        <time>2022-10-28T08:57:20Z</time>
      </trkpt>
      <trkpt lat="44.36055" lon="3.58527">
        <ele>905</ele>
        <time>2022-10-28T08:57:21Z</time>
      </trkpt>
      <trkpt lat="44.36057" lon="3.58527">
        <ele>905.2</ele>
        <time>2022-10-28T08:57:22Z</time>
      </trkpt>
      <trkpt lat="44.36058" lon="3.58527">
        <ele>905.4</ele>
        <time>2022-10-28T08:57:23Z</time>
      </trkpt>
      <trkpt lat="44.3606" lon="3.58527">
        <ele>905.6</ele>
        <time>2022-10-28T08:57:24Z</time>
      </trkpt>
      <trkpt lat="44.36062" lon="3.58527">
        <ele>905.8</ele>
        <time>2022-10-28T08:57:25Z</time>
      </trkpt>
      <trkpt lat="44.36064" lon="3.58527">
        <ele>906</ele>
        <time>2022-10-28T08:57:26Z</time>
      </trkpt>
      <trkpt lat="44.36066" lon="3.58527">
        <ele>906.2</ele>
        <time>2022-10-28T08:57:27Z</time>
      </trkpt>
      <trkpt lat="44.36068" lon="3.58526">
        <ele>906.4</ele>
        <time>2022-10-28T08:57:28Z</time>
      </trkpt>
      <trkpt lat="44.3607" lon="3.58526">
        <ele>906.6</ele>
        <time>2022-10-28T08:57:29Z</time>
      </trkpt>
      <trkpt lat="44.36072" lon="3.58526">
        <ele>906.8</ele>
        <time>2022-10-28T08:57:30Z</time>
      </trkpt>
      <trkpt lat="44.36074" lon="3.58525">
        <ele>906.8</ele>
        <time>2022-10-28T08:57:31Z</time>
      </trkpt>
      <trkpt lat="44.36075" lon="3.58525">
        <ele>907</ele>
        <time>2022-10-28T08:57:32Z</time>
      </trkpt>
      <trkpt lat="44.36077" lon="3.58524">
        <ele>907.2</ele>
        <time>2022-10-28T08:57:33Z</time>
      </trkpt>
      <trkpt lat="44.36079" lon="3.58524">
        <ele>907.4</ele>
        <time>2022-10-28T08:57:34Z</time>
      </trkpt>
      <trkpt lat="44.36081" lon="3.58524">
        <ele>907.6</ele>
        <time>2022-10-28T08:57:35Z</time>
      </trkpt>
      <trkpt lat="44.36083" lon="3.58524">
        <ele>907.8</ele>
        <time>2022-10-28T08:57:36Z</time>
      </trkpt>
      <trkpt lat="44.36085" lon="3.58524">
        <ele>907.8</ele>
        <time>2022-10-28T08:57:37Z</time>
      </trkpt>
      <trkpt lat="44.36087" lon="3.58524">
        <ele>908</ele>
        <time>2022-10-28T08:57:38Z</time>
      </trkpt>
      <trkpt lat="44.36089" lon="3.58524">
        <ele>908.2</ele>
        <time>2022-10-28T08:57:39Z</time>
      </trkpt>
      <trkpt lat="44.3609" lon="3.58523">
        <ele>908.4</ele>
        <time>2022-10-28T08:57:40Z</time>
      </trkpt>
      <trkpt lat="44.36092" lon="3.58523">
        <ele>908.6</ele>
        <time>2022-10-28T08:57:41Z</time>
      </trkpt>
      <trkpt lat="44.36094" lon="3.58523">
        <ele>908.8</ele>
        <time>2022-10-28T08:57:42Z</time>
      </trkpt>
      <trkpt lat="44.36096" lon="3.58522">
        <ele>909</ele>
        <time>2022-10-28T08:57:43Z</time>
      </trkpt>
      <trkpt lat="44.36098" lon="3.58522">
        <ele>909.2</ele>
        <time>2022-10-28T08:57:44Z</time>
      </trkpt>
      <trkpt lat="44.36099" lon="3.58521">
        <ele>909.4</ele>
        <time>2022-10-28T08:57:45Z</time>
      </trkpt>
      <trkpt lat="44.36101" lon="3.58521">
        <ele>909.4</ele>
        <time>2022-10-28T08:57:46Z</time>
      </trkpt>
      <trkpt lat="44.36103" lon="3.5852">
        <ele>909.6</ele>
        <time>2022-10-28T08:57:47Z</time>
      </trkpt>
      <trkpt lat="44.36105" lon="3.5852">
        <ele>909.8</ele>
        <time>2022-10-28T08:57:48Z</time>
      </trkpt>
      <trkpt lat="44.36107" lon="3.5852">
        <ele>910</ele>
        <time>2022-10-28T08:57:49Z</time>
      </trkpt>
      <trkpt lat="44.36109" lon="3.58519">
        <ele>910.2</ele>
        <time>2022-10-28T08:57:50Z</time>
      </trkpt>
      <trkpt lat="44.36111" lon="3.58519">
        <ele>910.4</ele>
        <time>2022-10-28T08:57:51Z</time>
      </trkpt>
      <trkpt lat="44.36112" lon="3.58518">
        <ele>910.6</ele>
        <time>2022-10-28T08:57:52Z</time>
      </trkpt>
      <trkpt lat="44.36114" lon="3.58518">
        <ele>910.8</ele>
        <time>2022-10-28T08:57:53Z</time>
      </trkpt>
      <trkpt lat="44.36116" lon="3.58517">
        <ele>910.8</ele>
        <time>2022-10-28T08:57:54Z</time>
      </trkpt>
      <trkpt lat="44.36118" lon="3.58517">
        <ele>911</ele>
        <time>2022-10-28T08:57:55Z</time>
      </trkpt>
      <trkpt lat="44.36119" lon="3.58516">
        <ele>911.2</ele>
        <time>2022-10-28T08:57:56Z</time>
      </trkpt>
      <trkpt lat="44.36121" lon="3.58515">
        <ele>911.2</ele>
        <time>2022-10-28T08:57:57Z</time>
      </trkpt>
      <trkpt lat="44.36123" lon="3.58514">
        <ele>911.4</ele>
        <time>2022-10-28T08:57:58Z</time>
      </trkpt>
      <trkpt lat="44.36125" lon="3.58513">
        <ele>911.6</ele>
        <time>2022-10-28T08:57:59Z</time>
      </trkpt>
      <trkpt lat="44.36127" lon="3.58512">
        <ele>911.8</ele>
        <time>2022-10-28T08:58:00Z</time>
      </trkpt>
      <trkpt lat="44.36128" lon="3.58511">
        <ele>912</ele>
        <time>2022-10-28T08:58:01Z</time>
      </trkpt>
      <trkpt lat="44.3613" lon="3.5851">
        <ele>912</ele>
        <time>2022-10-28T08:58:02Z</time>
      </trkpt>
      <trkpt lat="44.36132" lon="3.58508">
        <ele>912.2</ele>
        <time>2022-10-28T08:58:03Z</time>
      </trkpt>
      <trkpt lat="44.36133" lon="3.58507">
        <ele>912.4</ele>
        <time>2022-10-28T08:58:04Z</time>
      </trkpt>
      <trkpt lat="44.36135" lon="3.58506">
        <ele>912.6</ele>
        <time>2022-10-28T08:58:05Z</time>
      </trkpt>
      <trkpt lat="44.36136" lon="3.58504">
        <ele>912.8</ele>
        <time>2022-10-28T08:58:06Z</time>
      </trkpt>
      <trkpt lat="44.36138" lon="3.58503">
        <ele>913</ele>
        <time>2022-10-28T08:58:07Z</time>
      </trkpt>
      <trkpt lat="44.36139" lon="3.58502">
        <ele>913.2</ele>
        <time>2022-10-28T08:58:08Z</time>
      </trkpt>
      <trkpt lat="44.36141" lon="3.58501">
        <ele>913.4</ele>
        <time>2022-10-28T08:58:09Z</time>
      </trkpt>
      <trkpt lat="44.36143" lon="3.585">
        <ele>913.6</ele>
        <time>2022-10-28T08:58:10Z</time>
      </trkpt>
      <trkpt lat="44.36144" lon="3.58499">
        <ele>914</ele>
        <time>2022-10-28T08:58:11Z</time>
      </trkpt>
      <trkpt lat="44.36146" lon="3.58498">
        <ele>914.2</ele>
        <time>2022-10-28T08:58:12Z</time>
      </trkpt>
      <trkpt lat="44.36147" lon="3.58497">
        <ele>914.4</ele>
        <time>2022-10-28T08:58:13Z</time>
      </trkpt>
      <trkpt lat="44.36149" lon="3.58496">
        <ele>914.6</ele>
        <time>2022-10-28T08:58:14Z</time>
      </trkpt>
      <trkpt lat="44.36151" lon="3.58495">
        <ele>914.8</ele>
        <time>2022-10-28T08:58:15Z</time>
      </trkpt>
      <trkpt lat="44.36152" lon="3.58494">
        <ele>915</ele>
        <time>2022-10-28T08:58:16Z</time>
      </trkpt>
      <trkpt lat="44.36154" lon="3.58493">
        <ele>915.4</ele>
        <time>2022-10-28T08:58:17Z</time>
      </trkpt>
      <trkpt lat="44.36155" lon="3.58492">
        <ele>915.6</ele>
        <time>2022-10-28T08:58:18Z</time>
      </trkpt>
      <trkpt lat="44.36157" lon="3.58491">
        <ele>915.8</ele>
        <time>2022-10-28T08:58:19Z</time>
      </trkpt>
      <trkpt lat="44.36158" lon="3.5849">
        <ele>916</ele>
        <time>2022-10-28T08:58:20Z</time>
      </trkpt>
      <trkpt lat="44.3616" lon="3.58489">
        <ele>916.2</ele>
        <time>2022-10-28T08:58:21Z</time>
      </trkpt>
      <trkpt lat="44.36161" lon="3.58488">
        <ele>916.4</ele>
        <time>2022-10-28T08:58:22Z</time>
      </trkpt>
      <trkpt lat="44.36163" lon="3.58486">
        <ele>916.6</ele>
        <time>2022-10-28T08:58:23Z</time>
      </trkpt>
      <trkpt lat="44.36164" lon="3.58485">
        <ele>917</ele>
        <time>2022-10-28T08:58:24Z</time>
      </trkpt>
      <trkpt lat="44.36165" lon="3.58485">
        <ele>917.2</ele>
        <time>2022-10-28T08:58:25Z</time>
      </trkpt>
      <trkpt lat="44.36167" lon="3.58484">
        <ele>917.4</ele>
        <time>2022-10-28T08:58:26Z</time>
      </trkpt>
      <trkpt lat="44.36168" lon="3.58482">
        <ele>917.6</ele>
        <time>2022-10-28T08:58:27Z</time>
      </trkpt>
      <trkpt lat="44.3617" lon="3.58481">
        <ele>917.8</ele>
        <time>2022-10-28T08:58:28Z</time>
      </trkpt>
      <trkpt lat="44.36172" lon="3.5848">
        <ele>918</ele>
        <time>2022-10-28T08:58:29Z</time>
      </trkpt>
      <trkpt lat="44.36173" lon="3.58479">
        <ele>918.2</ele>
        <time>2022-10-28T08:58:30Z</time>
      </trkpt>
      <trkpt lat="44.36175" lon="3.58478">
        <ele>918.2</ele>
        <time>2022-10-28T08:58:31Z</time>
      </trkpt>
      <trkpt lat="44.36177" lon="3.58477">
        <ele>918.4</ele>
        <time>2022-10-28T08:58:32Z</time>
      </trkpt>
      <trkpt lat="44.36179" lon="3.58476">
        <ele>918.8</ele>
        <time>2022-10-28T08:58:33Z</time>
      </trkpt>
      <trkpt lat="44.3618" lon="3.58475">
        <ele>919</ele>
        <time>2022-10-28T08:58:34Z</time>
      </trkpt>
      <trkpt lat="44.36182" lon="3.58474">
        <ele>919.2</ele>
        <time>2022-10-28T08:58:35Z</time>
      </trkpt>
      <trkpt lat="44.36183" lon="3.58473">
        <ele>919.4</ele>
        <time>2022-10-28T08:58:36Z</time>
      </trkpt>
      <trkpt lat="44.36185" lon="3.58471">
        <ele>919.6</ele>
        <time>2022-10-28T08:58:37Z</time>
      </trkpt>
      <trkpt lat="44.36186" lon="3.5847">
        <ele>919.8</ele>
        <time>2022-10-28T08:58:38Z</time>
      </trkpt>
      <trkpt lat="44.36188" lon="3.58469">
        <ele>920</ele>
        <time>2022-10-28T08:58:39Z</time>
      </trkpt>
      <trkpt lat="44.36189" lon="3.58468">
        <ele>920.2</ele>
        <time>2022-10-28T08:58:40Z</time>
      </trkpt>
      <trkpt lat="44.36191" lon="3.58467">
        <ele>920.4</ele>
        <time>2022-10-28T08:58:41Z</time>
      </trkpt>
      <trkpt lat="44.36192" lon="3.58466">
        <ele>920.6</ele>
        <time>2022-10-28T08:58:42Z</time>
      </trkpt>
      <trkpt lat="44.36194" lon="3.58465">
        <ele>920.8</ele>
        <time>2022-10-28T08:58:43Z</time>
      </trkpt>
      <trkpt lat="44.36195" lon="3.58464">
        <ele>921</ele>
        <time>2022-10-28T08:58:44Z</time>
      </trkpt>
      <trkpt lat="44.36196" lon="3.58463">
        <ele>921.2</ele>
        <time>2022-10-28T08:58:45Z</time>
      </trkpt>
      <trkpt lat="44.36197" lon="3.58463">
        <ele>921.4</ele>
        <time>2022-10-28T08:58:46Z</time>
      </trkpt>
      <trkpt lat="44.36198" lon="3.58462">
        <ele>921.6</ele>
        <time>2022-10-28T08:58:47Z</time>
      </trkpt>
      <trkpt lat="44.36199" lon="3.58461">
        <ele>921.8</ele>
        <time>2022-10-28T08:58:48Z</time>
      </trkpt>
      <trkpt lat="44.362" lon="3.5846">
        <ele>922</ele>
        <time>2022-10-28T08:58:49Z</time>
      </trkpt>
      <trkpt lat="44.36202" lon="3.58459">
        <ele>922.2</ele>
        <time>2022-10-28T08:58:50Z</time>
      </trkpt>
      <trkpt lat="44.36203" lon="3.58458">
        <ele>922.4</ele>
        <time>2022-10-28T08:58:51Z</time>
      </trkpt>
      <trkpt lat="44.36205" lon="3.58457">
        <ele>922.6</ele>
        <time>2022-10-28T08:58:52Z</time>
      </trkpt>
      <trkpt lat="44.36206" lon="3.58456">
        <ele>922.8</ele>
        <time>2022-10-28T08:58:53Z</time>
      </trkpt>
      <trkpt lat="44.36208" lon="3.58456">
        <ele>923</ele>
        <time>2022-10-28T08:58:54Z</time>
      </trkpt>
      <trkpt lat="44.3621" lon="3.58455">
        <ele>923.2</ele>
        <time>2022-10-28T08:58:55Z</time>
      </trkpt>
      <trkpt lat="44.36211" lon="3.58454">
        <ele>923.4</ele>
        <time>2022-10-28T08:58:56Z</time>
      </trkpt>
      <trkpt lat="44.36213" lon="3.58453">
        <ele>923.6</ele>
        <time>2022-10-28T08:58:57Z</time>
      </trkpt>
      <trkpt lat="44.36214" lon="3.58453">
        <ele>923.8</ele>
        <time>2022-10-28T08:58:58Z</time>
      </trkpt>
      <trkpt lat="44.36216" lon="3.58452">
        <ele>924</ele>
        <time>2022-10-28T08:58:59Z</time>
      </trkpt>
      <trkpt lat="44.36217" lon="3.58451">
        <ele>924.2</ele>
        <time>2022-10-28T08:59:00Z</time>
      </trkpt>
      <trkpt lat="44.36219" lon="3.5845">
        <ele>924.4</ele>
        <time>2022-10-28T08:59:01Z</time>
      </trkpt>
      <trkpt lat="44.3622" lon="3.58449">
        <ele>924.8</ele>
        <time>2022-10-28T08:59:02Z</time>
      </trkpt>
      <trkpt lat="44.36222" lon="3.58448">
        <ele>924.8</ele>
        <time>2022-10-28T08:59:03Z</time>
      </trkpt>
      <trkpt lat="44.36224" lon="3.58447">
        <ele>925</ele>
        <time>2022-10-28T08:59:04Z</time>
      </trkpt>
      <trkpt lat="44.36225" lon="3.58446">
        <ele>925.2</ele>
        <time>2022-10-28T08:59:05Z</time>
      </trkpt>
      <trkpt lat="44.36227" lon="3.58446">
        <ele>925.4</ele>
        <time>2022-10-28T08:59:06Z</time>
      </trkpt>
      <trkpt lat="44.36229" lon="3.58445">
        <ele>925.6</ele>
        <time>2022-10-28T08:59:07Z</time>
      </trkpt>
      <trkpt lat="44.3623" lon="3.58444">
        <ele>925.8</ele>
        <time>2022-10-28T08:59:08Z</time>
      </trkpt>
      <trkpt lat="44.36232" lon="3.58443">
        <ele>926</ele>
        <time>2022-10-28T08:59:09Z</time>
      </trkpt>
      <trkpt lat="44.36234" lon="3.58442">
        <ele>926.2</ele>
        <time>2022-10-28T08:59:10Z</time>
      </trkpt>
      <trkpt lat="44.36235" lon="3.58441">
        <ele>926.2</ele>
        <time>2022-10-28T08:59:11Z</time>
      </trkpt>
      <trkpt lat="44.36237" lon="3.58441">
        <ele>926.4</ele>
        <time>2022-10-28T08:59:12Z</time>
      </trkpt>
      <trkpt lat="44.36239" lon="3.5844">
        <ele>926.6</ele>
        <time>2022-10-28T08:59:13Z</time>
      </trkpt>
      <trkpt lat="44.3624" lon="3.58439">
        <ele>926.8</ele>
        <time>2022-10-28T08:59:14Z</time>
      </trkpt>
      <trkpt lat="44.36242" lon="3.58438">
        <ele>927</ele>
        <time>2022-10-28T08:59:15Z</time>
      </trkpt>
      <trkpt lat="44.36243" lon="3.58437">
        <ele>927</ele>
        <time>2022-10-28T08:59:16Z</time>
      </trkpt>
      <trkpt lat="44.36245" lon="3.58436">
        <ele>927.2</ele>
        <time>2022-10-28T08:59:17Z</time>
      </trkpt>
      <trkpt lat="44.36247" lon="3.58435">
        <ele>927.4</ele>
        <time>2022-10-28T08:59:18Z</time>
      </trkpt>
      <trkpt lat="44.36249" lon="3.58434">
        <ele>927.6</ele>
        <time>2022-10-28T08:59:19Z</time>
      </trkpt>
      <trkpt lat="44.3625" lon="3.58433">
        <ele>927.8</ele>
        <time>2022-10-28T08:59:20Z</time>
      </trkpt>
      <trkpt lat="44.36252" lon="3.58432">
        <ele>927.8</ele>
        <time>2022-10-28T08:59:21Z</time>
      </trkpt>
      <trkpt lat="44.36254" lon="3.58431">
        <ele>928</ele>
        <time>2022-10-28T08:59:22Z</time>
      </trkpt>
      <trkpt lat="44.36255" lon="3.58431">
        <ele>928.2</ele>
        <time>2022-10-28T08:59:23Z</time>
      </trkpt>
      <trkpt lat="44.36257" lon="3.58431">
        <ele>928.4</ele>
        <time>2022-10-28T08:59:24Z</time>
      </trkpt>
      <trkpt lat="44.36259" lon="3.58431">
        <ele>928.6</ele>
        <time>2022-10-28T08:59:25Z</time>
      </trkpt>
      <trkpt lat="44.36261" lon="3.58431">
        <ele>928.8</ele>
        <time>2022-10-28T08:59:26Z</time>
      </trkpt>
      <trkpt lat="44.36262" lon="3.5843">
        <ele>928.8</ele>
        <time>2022-10-28T08:59:27Z</time>
      </trkpt>
      <trkpt lat="44.36264" lon="3.5843">
        <ele>929</ele>
        <time>2022-10-28T08:59:28Z</time>
      </trkpt>
      <trkpt lat="44.36266" lon="3.58429">
        <ele>929.2</ele>
        <time>2022-10-28T08:59:29Z</time>
      </trkpt>
      <trkpt lat="44.36268" lon="3.58429">
        <ele>929.4</ele>
        <time>2022-10-28T08:59:30Z</time>
      </trkpt>
      <trkpt lat="44.3627" lon="3.58429">
        <ele>929.6</ele>
        <time>2022-10-28T08:59:31Z</time>
      </trkpt>
      <trkpt lat="44.36271" lon="3.58428">
        <ele>929.8</ele>
        <time>2022-10-28T08:59:32Z</time>
      </trkpt>
      <trkpt lat="44.36273" lon="3.58428">
        <ele>930</ele>
        <time>2022-10-28T08:59:33Z</time>
      </trkpt>
      <trkpt lat="44.36275" lon="3.58427">
        <ele>930.2</ele>
        <time>2022-10-28T08:59:34Z</time>
      </trkpt>
      <trkpt lat="44.36276" lon="3.58427">
        <ele>930.4</ele>
        <time>2022-10-28T08:59:35Z</time>
      </trkpt>
      <trkpt lat="44.36278" lon="3.58427">
        <ele>930.6</ele>
        <time>2022-10-28T08:59:36Z</time>
      </trkpt>
      <trkpt lat="44.3628" lon="3.58426">
        <ele>931</ele>
        <time>2022-10-28T08:59:37Z</time>
      </trkpt>
      <trkpt lat="44.36282" lon="3.58426">
        <ele>931.2</ele>
        <time>2022-10-28T08:59:38Z</time>
      </trkpt>
      <trkpt lat="44.36283" lon="3.58425">
        <ele>931.4</ele>
        <time>2022-10-28T08:59:39Z</time>
      </trkpt>
      <trkpt lat="44.36285" lon="3.58424">
        <ele>931.6</ele>
        <time>2022-10-28T08:59:40Z</time>
      </trkpt>
      <trkpt lat="44.36287" lon="3.58424">
        <ele>931.8</ele>
        <time>2022-10-28T08:59:41Z</time>
      </trkpt>
      <trkpt lat="44.36288" lon="3.58423">
        <ele>932</ele>
        <time>2022-10-28T08:59:42Z</time>
      </trkpt>
      <trkpt lat="44.3629" lon="3.58423">
        <ele>932.2</ele>
        <time>2022-10-28T08:59:43Z</time>
      </trkpt>
      <trkpt lat="44.36292" lon="3.58423">
        <ele>932.4</ele>
        <time>2022-10-28T08:59:44Z</time>
      </trkpt>
      <trkpt lat="44.36294" lon="3.58423">
        <ele>932.6</ele>
        <time>2022-10-28T08:59:45Z</time>
      </trkpt>
      <trkpt lat="44.36296" lon="3.58423">
        <ele>932.6</ele>
        <time>2022-10-28T08:59:46Z</time>
      </trkpt>
      <trkpt lat="44.36297" lon="3.58423">
        <ele>933</ele>
        <time>2022-10-28T08:59:47Z</time>
      </trkpt>
      <trkpt lat="44.36299" lon="3.58423">
        <ele>933.2</ele>
        <time>2022-10-28T08:59:48Z</time>
      </trkpt>
      <trkpt lat="44.36301" lon="3.58423">
        <ele>933.4</ele>
        <time>2022-10-28T08:59:49Z</time>
      </trkpt>
      <trkpt lat="44.36302" lon="3.58423">
        <ele>933.4</ele>
        <time>2022-10-28T08:59:50Z</time>
      </trkpt>
      <trkpt lat="44.36304" lon="3.58423">
        <ele>933.6</ele>
        <time>2022-10-28T08:59:51Z</time>
      </trkpt>
      <trkpt lat="44.36306" lon="3.58422">
        <ele>933.8</ele>
        <time>2022-10-28T08:59:52Z</time>
      </trkpt>
      <trkpt lat="44.36308" lon="3.58422">
        <ele>934</ele>
        <time>2022-10-28T08:59:53Z</time>
      </trkpt>
      <trkpt lat="44.3631" lon="3.58422">
        <ele>934.2</ele>
        <time>2022-10-28T08:59:54Z</time>
      </trkpt>
      <trkpt lat="44.36312" lon="3.58423">
        <ele>934.2</ele>
        <time>2022-10-28T08:59:55Z</time>
      </trkpt>
      <trkpt lat="44.36314" lon="3.58423">
        <ele>934.4</ele>
        <time>2022-10-28T08:59:56Z</time>
      </trkpt>
      <trkpt lat="44.36315" lon="3.58423">
        <ele>934.6</ele>
        <time>2022-10-28T08:59:57Z</time>
      </trkpt>
      <trkpt lat="44.36317" lon="3.58423">
        <ele>934.8</ele>
        <time>2022-10-28T08:59:58Z</time>
      </trkpt>
      <trkpt lat="44.36319" lon="3.58422">
        <ele>935</ele>
        <time>2022-10-28T08:59:59Z</time>
      </trkpt>
      <trkpt lat="44.3632" lon="3.58422">
        <ele>935.2</ele>
        <time>2022-10-28T09:00:00Z</time>
      </trkpt>
      <trkpt lat="44.36322" lon="3.58422">
        <ele>935.2</ele>
        <time>2022-10-28T09:00:01Z</time>
      </trkpt>
      <trkpt lat="44.36324" lon="3.58423">
        <ele>935.4</ele>
        <time>2022-10-28T09:00:02Z</time>
      </trkpt>
      <trkpt lat="44.36326" lon="3.58424">
        <ele>935.6</ele>
        <time>2022-10-28T09:00:03Z</time>
      </trkpt>
      <trkpt lat="44.36328" lon="3.58425">
        <ele>935.8</ele>
        <time>2022-10-28T09:00:04Z</time>
      </trkpt>
      <trkpt lat="44.3633" lon="3.58426">
        <ele>936</ele>
        <time>2022-10-28T09:00:05Z</time>
      </trkpt>
      <trkpt lat="44.36332" lon="3.58426">
        <ele>936.2</ele>
        <time>2022-10-28T09:00:06Z</time>
      </trkpt>
      <trkpt lat="44.36334" lon="3.58427">
        <ele>936.4</ele>
        <time>2022-10-28T09:00:07Z</time>
      </trkpt>
      <trkpt lat="44.36335" lon="3.58427">
        <ele>936.6</ele>
        <time>2022-10-28T09:00:08Z</time>
      </trkpt>
      <trkpt lat="44.36337" lon="3.58428">
        <ele>936.8</ele>
        <time>2022-10-28T09:00:09Z</time>
      </trkpt>
      <trkpt lat="44.36339" lon="3.58428">
        <ele>937</ele>
        <time>2022-10-28T09:00:10Z</time>
      </trkpt>
      <trkpt lat="44.36341" lon="3.58429">
        <ele>937</ele>
        <time>2022-10-28T09:00:11Z</time>
      </trkpt>
      <trkpt lat="44.36343" lon="3.58429">
        <ele>937.2</ele>
        <time>2022-10-28T09:00:12Z</time>
      </trkpt>
      <trkpt lat="44.36345" lon="3.5843">
        <ele>937.4</ele>
        <time>2022-10-28T09:00:13Z</time>
      </trkpt>
      <trkpt lat="44.36346" lon="3.5843">
        <ele>937.6</ele>
        <time>2022-10-28T09:00:14Z</time>
      </trkpt>
      <trkpt lat="44.36348" lon="3.58431">
        <ele>937.8</ele>
        <time>2022-10-28T09:00:15Z</time>
      </trkpt>
      <trkpt lat="44.3635" lon="3.58431">
        <ele>938</ele>
        <time>2022-10-28T09:00:16Z</time>
      </trkpt>
      <trkpt lat="44.36352" lon="3.58432">
        <ele>938.2</ele>
        <time>2022-10-28T09:00:17Z</time>
      </trkpt>
      <trkpt lat="44.36354" lon="3.58433">
        <ele>938.4</ele>
        <time>2022-10-28T09:00:18Z</time>
      </trkpt>
      <trkpt lat="44.36355" lon="3.58433">
        <ele>938.6</ele>
        <time>2022-10-28T09:00:19Z</time>
      </trkpt>
      <trkpt lat="44.36357" lon="3.58434">
        <ele>938.6</ele>
        <time>2022-10-28T09:00:20Z</time>
      </trkpt>
      <trkpt lat="44.36359" lon="3.58435">
        <ele>938.8</ele>
        <time>2022-10-28T09:00:21Z</time>
      </trkpt>
      <trkpt lat="44.3636" lon="3.58436">
        <ele>939</ele>
        <time>2022-10-28T09:00:22Z</time>
      </trkpt>
      <trkpt lat="44.36362" lon="3.58437">
        <ele>939.2</ele>
        <time>2022-10-28T09:00:23Z</time>
      </trkpt>
      <trkpt lat="44.36364" lon="3.58438">
        <ele>939.4</ele>
        <time>2022-10-28T09:00:24Z</time>
      </trkpt>
      <trkpt lat="44.36365" lon="3.58439">
        <ele>939.6</ele>
        <time>2022-10-28T09:00:25Z</time>
      </trkpt>
      <trkpt lat="44.36367" lon="3.5844">
        <ele>939.6</ele>
        <time>2022-10-28T09:00:26Z</time>
      </trkpt>
      <trkpt lat="44.36369" lon="3.58441">
        <ele>939.8</ele>
        <time>2022-10-28T09:00:27Z</time>
      </trkpt>
      <trkpt lat="44.36371" lon="3.58441">
        <ele>940</ele>
        <time>2022-10-28T09:00:28Z</time>
      </trkpt>
      <trkpt lat="44.36373" lon="3.58442">
        <ele>940.2</ele>
        <time>2022-10-28T09:00:29Z</time>
      </trkpt>
      <trkpt lat="44.36374" lon="3.58443">
        <ele>940.2</ele>
        <time>2022-10-28T09:00:30Z</time>
      </trkpt>
      <trkpt lat="44.36376" lon="3.58444">
        <ele>940.4</ele>
        <time>2022-10-28T09:00:31Z</time>
      </trkpt>
      <trkpt lat="44.36378" lon="3.58445">
        <ele>940.6</ele>
        <time>2022-10-28T09:00:32Z</time>
      </trkpt>
      <trkpt lat="44.36379" lon="3.58446">
        <ele>940.6</ele>
        <time>2022-10-28T09:00:33Z</time>
      </trkpt>
      <trkpt lat="44.36381" lon="3.58446">
        <ele>940.8</ele>
        <time>2022-10-28T09:00:34Z</time>
      </trkpt>
      <trkpt lat="44.36383" lon="3.58447">
        <ele>941</ele>
        <time>2022-10-28T09:00:35Z</time>
      </trkpt>
      <trkpt lat="44.36385" lon="3.58447">
        <ele>941.2</ele>
        <time>2022-10-28T09:00:36Z</time>
      </trkpt>
      <trkpt lat="44.36387" lon="3.58448">
        <ele>941.2</ele>
        <time>2022-10-28T09:00:37Z</time>
      </trkpt>
      <trkpt lat="44.36389" lon="3.58449">
        <ele>941.4</ele>
        <time>2022-10-28T09:00:38Z</time>
      </trkpt>
      <trkpt lat="44.36391" lon="3.5845">
        <ele>941.6</ele>
        <time>2022-10-28T09:00:39Z</time>
      </trkpt>
      <trkpt lat="44.36393" lon="3.58451">
        <ele>941.8</ele>
        <time>2022-10-28T09:00:40Z</time>
      </trkpt>
      <trkpt lat="44.36394" lon="3.58452">
        <ele>941.8</ele>
        <time>2022-10-28T09:00:41Z</time>
      </trkpt>
      <trkpt lat="44.36396" lon="3.58454">
        <ele>942</ele>
        <time>2022-10-28T09:00:42Z</time>
      </trkpt>
      <trkpt lat="44.36397" lon="3.58456">
        <ele>942.2</ele>
        <time>2022-10-28T09:00:43Z</time>
      </trkpt>
      <trkpt lat="44.36399" lon="3.58458">
        <ele>942.4</ele>
        <time>2022-10-28T09:00:44Z</time>
      </trkpt>
      <trkpt lat="44.36401" lon="3.58459">
        <ele>942.4</ele>
        <time>2022-10-28T09:00:45Z</time>
      </trkpt>
      <trkpt lat="44.36402" lon="3.58461">
        <ele>942.6</ele>
        <time>2022-10-28T09:00:46Z</time>
      </trkpt>
      <trkpt lat="44.36404" lon="3.58462">
        <ele>942.8</ele>
        <time>2022-10-28T09:00:47Z</time>
      </trkpt>
      <trkpt lat="44.36405" lon="3.58464">
        <ele>943</ele>
        <time>2022-10-28T09:00:48Z</time>
      </trkpt>
      <trkpt lat="44.36407" lon="3.58465">
        <ele>943</ele>
        <time>2022-10-28T09:00:49Z</time>
      </trkpt>
      <trkpt lat="44.36408" lon="3.58467">
        <ele>943.2</ele>
        <time>2022-10-28T09:00:50Z</time>
      </trkpt>
      <trkpt lat="44.3641" lon="3.58468">
        <ele>943.4</ele>
        <time>2022-10-28T09:00:51Z</time>
      </trkpt>
      <trkpt lat="44.36412" lon="3.5847">
        <ele>943.6</ele>
        <time>2022-10-28T09:00:52Z</time>
      </trkpt>
      <trkpt lat="44.36414" lon="3.58471">
        <ele>943.8</ele>
        <time>2022-10-28T09:00:53Z</time>
      </trkpt>
      <trkpt lat="44.36416" lon="3.58473">
        <ele>944</ele>
        <time>2022-10-28T09:00:54Z</time>
      </trkpt>
      <trkpt lat="44.36417" lon="3.58475">
        <ele>944.4</ele>
        <time>2022-10-28T09:00:55Z</time>
      </trkpt>
      <trkpt lat="44.36419" lon="3.58476">
        <ele>944.6</ele>
        <time>2022-10-28T09:00:56Z</time>
      </trkpt>
      <trkpt lat="44.3642" lon="3.58478">
        <ele>944.6</ele>
        <time>2022-10-28T09:00:57Z</time>
      </trkpt>
      <trkpt lat="44.36422" lon="3.5848">
        <ele>944.8</ele>
        <time>2022-10-28T09:00:58Z</time>
      </trkpt>
      <trkpt lat="44.36424" lon="3.58482">
        <ele>945</ele>
        <time>2022-10-28T09:00:59Z</time>
      </trkpt>
      <trkpt lat="44.36426" lon="3.58484">
        <ele>945.2</ele>
        <time>2022-10-28T09:01:00Z</time>
      </trkpt>
      <trkpt lat="44.36428" lon="3.58485">
        <ele>945.2</ele>
        <time>2022-10-28T09:01:01Z</time>
      </trkpt>
      <trkpt lat="44.3643" lon="3.58487">
        <ele>945.4</ele>
        <time>2022-10-28T09:01:02Z</time>
      </trkpt>
      <trkpt lat="44.36431" lon="3.58489">
        <ele>945.6</ele>
        <time>2022-10-28T09:01:03Z</time>
      </trkpt>
      <trkpt lat="44.36433" lon="3.58491">
        <ele>945.6</ele>
        <time>2022-10-28T09:01:04Z</time>
      </trkpt>
      <trkpt lat="44.36435" lon="3.58493">
        <ele>945.8</ele>
        <time>2022-10-28T09:01:05Z</time>
      </trkpt>
      <trkpt lat="44.36437" lon="3.58495">
        <ele>946</ele>
        <time>2022-10-28T09:01:06Z</time>
      </trkpt>
      <trkpt lat="44.36439" lon="3.58497">
        <ele>946.2</ele>
        <time>2022-10-28T09:01:07Z</time>
      </trkpt>
      <trkpt lat="44.36441" lon="3.58499">
        <ele>946.4</ele>
        <time>2022-10-28T09:01:08Z</time>
      </trkpt>
      <trkpt lat="44.36443" lon="3.58501">
        <ele>946.4</ele>
        <time>2022-10-28T09:01:09Z</time>
      </trkpt>
      <trkpt lat="44.36444" lon="3.58503">
        <ele>946.6</ele>
        <time>2022-10-28T09:01:10Z</time>
      </trkpt>
      <trkpt lat="44.36447" lon="3.58505">
        <ele>946.8</ele>
        <time>2022-10-28T09:01:11Z</time>
      </trkpt>
      <trkpt lat="44.36449" lon="3.58506">
        <ele>946.8</ele>
        <time>2022-10-28T09:01:12Z</time>
      </trkpt>
      <trkpt lat="44.36451" lon="3.58508">
        <ele>947</ele>
        <time>2022-10-28T09:01:13Z</time>
      </trkpt>
      <trkpt lat="44.36453" lon="3.5851">
        <ele>947.2</ele>
        <time>2022-10-28T09:01:14Z</time>
      </trkpt>
      <trkpt lat="44.36455" lon="3.58512">
        <ele>947.4</ele>
        <time>2022-10-28T09:01:15Z</time>
      </trkpt>
      <trkpt lat="44.36457" lon="3.58513">
        <ele>947.4</ele>
        <time>2022-10-28T09:01:16Z</time>
      </trkpt>
      <trkpt lat="44.36459" lon="3.58515">
        <ele>947.6</ele>
        <time>2022-10-28T09:01:17Z</time>
      </trkpt>
      <trkpt lat="44.36461" lon="3.58517">
        <ele>947.6</ele>
        <time>2022-10-28T09:01:18Z</time>
      </trkpt>
      <trkpt lat="44.36463" lon="3.58519">
        <ele>947.8</ele>
        <time>2022-10-28T09:01:19Z</time>
      </trkpt>
      <trkpt lat="44.36465" lon="3.5852">
        <ele>947.8</ele>
        <time>2022-10-28T09:01:20Z</time>
      </trkpt>
      <trkpt lat="44.36467" lon="3.58521">
        <ele>948</ele>
        <time>2022-10-28T09:01:21Z</time>
      </trkpt>
      <trkpt lat="44.36469" lon="3.58523">
        <ele>948.2</ele>
        <time>2022-10-28T09:01:22Z</time>
      </trkpt>
      <trkpt lat="44.36471" lon="3.58525">
        <ele>948.2</ele>
        <time>2022-10-28T09:01:23Z</time>
      </trkpt>
      <trkpt lat="44.36473" lon="3.58527">
        <ele>948.4</ele>
        <time>2022-10-28T09:01:24Z</time>
      </trkpt>
      <trkpt lat="44.36475" lon="3.58528">
        <ele>948.6</ele>
        <time>2022-10-28T09:01:25Z</time>
      </trkpt>
      <trkpt lat="44.36477" lon="3.5853">
        <ele>948.6</ele>
        <time>2022-10-28T09:01:26Z</time>
      </trkpt>
      <trkpt lat="44.3648" lon="3.58532">
        <ele>948.8</ele>
        <time>2022-10-28T09:01:27Z</time>
      </trkpt>
      <trkpt lat="44.36482" lon="3.58534">
        <ele>949</ele>
        <time>2022-10-28T09:01:28Z</time>
      </trkpt>
      <trkpt lat="44.36484" lon="3.58535">
        <ele>949</ele>
        <time>2022-10-28T09:01:29Z</time>
      </trkpt>
      <trkpt lat="44.36486" lon="3.58537">
        <ele>949.2</ele>
        <time>2022-10-28T09:01:30Z</time>
      </trkpt>
      <trkpt lat="44.36488" lon="3.58539">
        <ele>949.2</ele>
        <time>2022-10-28T09:01:31Z</time>
      </trkpt>
      <trkpt lat="44.3649" lon="3.58541">
        <ele>949.4</ele>
        <time>2022-10-28T09:01:32Z</time>
      </trkpt>
      <trkpt lat="44.36491" lon="3.58542">
        <ele>949.4</ele>
        <time>2022-10-28T09:01:33Z</time>
      </trkpt>
      <trkpt lat="44.36493" lon="3.58544">
        <ele>949.6</ele>
        <time>2022-10-28T09:01:34Z</time>
      </trkpt>
      <trkpt lat="44.36494" lon="3.58546">
        <ele>949.6</ele>
        <time>2022-10-28T09:01:35Z</time>
      </trkpt>
      <trkpt lat="44.36496" lon="3.58547">
        <ele>949.8</ele>
        <time>2022-10-28T09:01:36Z</time>
      </trkpt>
      <trkpt lat="44.36496" lon="3.58548">
        <ele>949.8</ele>
        <time>2022-10-28T09:01:37Z</time>
      </trkpt>
      <trkpt lat="44.36497" lon="3.58549">
        <ele>949.8</ele>
        <time>2022-10-28T09:01:38Z</time>
      </trkpt>
      <trkpt lat="44.36497" lon="3.58549">
        <ele>950</ele>
        <time>2022-10-28T09:01:39Z</time>
      </trkpt>
      <trkpt lat="44.36497" lon="3.58548">
        <ele>950.2</ele>
        <time>2022-10-28T09:02:03Z</time>
      </trkpt>
      <trkpt lat="44.36496" lon="3.58546">
        <ele>950.2</ele>
        <time>2022-10-28T09:02:04Z</time>
      </trkpt>
      <trkpt lat="44.36494" lon="3.58544">
        <ele>950</ele>
        <time>2022-10-28T09:02:05Z</time>
      </trkpt>
      <trkpt lat="44.36492" lon="3.58542">
        <ele>950</ele>
        <time>2022-10-28T09:02:06Z</time>
      </trkpt>
      <trkpt lat="44.36489" lon="3.58541">
        <ele>950</ele>
        <time>2022-10-28T09:02:07Z</time>
      </trkpt>
      <trkpt lat="44.36487" lon="3.58539">
        <ele>949.8</ele>
        <time>2022-10-28T09:02:08Z</time>
      </trkpt>
      <trkpt lat="44.36485" lon="3.58538">
        <ele>949.8</ele>
        <time>2022-10-28T09:02:09Z</time>
      </trkpt>
      <trkpt lat="44.36484" lon="3.58537">
        <ele>949.8</ele>
        <time>2022-10-28T09:02:10Z</time>
      </trkpt>
      <trkpt lat="44.36484" lon="3.58535">
        <ele>949.6</ele>
        <time>2022-10-28T09:02:11Z</time>
      </trkpt>
      <trkpt lat="44.36485" lon="3.58535">
        <ele>949.6</ele>
        <time>2022-10-28T09:02:12Z</time>
      </trkpt>
      <trkpt lat="44.36486" lon="3.58536">
        <ele>949.6</ele>
        <time>2022-10-28T09:02:13Z</time>
      </trkpt>
      <trkpt lat="44.36486" lon="3.58536">
        <ele>949.6</ele>
        <time>2022-10-28T09:02:14Z</time>
      </trkpt>
      <trkpt lat="44.36488" lon="3.58537">
        <ele>949.8</ele>
        <time>2022-10-28T09:02:15Z</time>
      </trkpt>
      <trkpt lat="44.36489" lon="3.58539">
        <ele>949.8</ele>
        <time>2022-10-28T09:02:16Z</time>
      </trkpt>
      <trkpt lat="44.36491" lon="3.5854">
        <ele>949.8</ele>
        <time>2022-10-28T09:02:17Z</time>
      </trkpt>
      <trkpt lat="44.36492" lon="3.58541">
        <ele>950</ele>
        <time>2022-10-28T09:02:18Z</time>
      </trkpt>
      <trkpt lat="44.36494" lon="3.58543">
        <ele>950.2</ele>
        <time>2022-10-28T09:02:19Z</time>
      </trkpt>
      <trkpt lat="44.36496" lon="3.58545">
        <ele>950.2</ele>
        <time>2022-10-28T09:02:20Z</time>
      </trkpt>
      <trkpt lat="44.36498" lon="3.58547">
        <ele>950.4</ele>
        <time>2022-10-28T09:02:21Z</time>
      </trkpt>
      <trkpt lat="44.365" lon="3.58549">
        <ele>950.6</ele>
        <time>2022-10-28T09:02:22Z</time>
      </trkpt>
      <trkpt lat="44.36502" lon="3.58551">
        <ele>950.6</ele>
        <time>2022-10-28T09:02:23Z</time>
      </trkpt>
      <trkpt lat="44.36505" lon="3.58553">
        <ele>950.8</ele>
        <time>2022-10-28T09:02:24Z</time>
      </trkpt>
      <trkpt lat="44.36507" lon="3.58555">
        <ele>950.8</ele>
        <time>2022-10-28T09:02:25Z</time>
      </trkpt>
      <trkpt lat="44.36509" lon="3.58557">
        <ele>951</ele>
        <time>2022-10-28T09:02:26Z</time>
      </trkpt>
      <trkpt lat="44.36512" lon="3.58559">
        <ele>951</ele>
        <time>2022-10-28T09:02:27Z</time>
      </trkpt>
      <trkpt lat="44.36514" lon="3.58561">
        <ele>951</ele>
        <time>2022-10-28T09:02:28Z</time>
      </trkpt>
      <trkpt lat="44.36517" lon="3.58563">
        <ele>951.2</ele>
        <time>2022-10-28T09:02:29Z</time>
      </trkpt>
      <trkpt lat="44.36519" lon="3.58564">
        <ele>951.4</ele>
        <time>2022-10-28T09:02:30Z</time>
      </trkpt>
      <trkpt lat="44.36521" lon="3.58566">
        <ele>951.4</ele>
        <time>2022-10-28T09:02:31Z</time>
      </trkpt>
      <trkpt lat="44.36523" lon="3.58567">
        <ele>951.4</ele>
        <time>2022-10-28T09:02:32Z</time>
      </trkpt>
      <trkpt lat="44.36524" lon="3.58569">
        <ele>951.4</ele>
        <time>2022-10-28T09:02:33Z</time>
      </trkpt>
      <trkpt lat="44.36523" lon="3.58569">
        <ele>951.4</ele>
        <time>2022-10-28T09:02:34Z</time>
      </trkpt>
      <trkpt lat="44.36522" lon="3.58569">
        <ele>951.4</ele>
        <time>2022-10-28T09:02:35Z</time>
      </trkpt>
      <trkpt lat="44.36521" lon="3.58568">
        <ele>951.4</ele>
        <time>2022-10-28T09:02:36Z</time>
      </trkpt>
      <trkpt lat="44.36519" lon="3.58566">
        <ele>951.4</ele>
        <time>2022-10-28T09:02:37Z</time>
      </trkpt>
      <trkpt lat="44.36517" lon="3.58564">
        <ele>951.4</ele>
        <time>2022-10-28T09:02:38Z</time>
      </trkpt>
      <trkpt lat="44.36515" lon="3.58562">
        <ele>951.4</ele>
        <time>2022-10-28T09:02:39Z</time>
      </trkpt>
      <trkpt lat="44.36512" lon="3.5856">
        <ele>951.4</ele>
        <time>2022-10-28T09:02:40Z</time>
      </trkpt>
      <trkpt lat="44.3651" lon="3.58559">
        <ele>951.4</ele>
        <time>2022-10-28T09:02:41Z</time>
      </trkpt>
      <trkpt lat="44.36507" lon="3.58557">
        <ele>951.4</ele>
        <time>2022-10-28T09:02:42Z</time>
      </trkpt>
      <trkpt lat="44.36504" lon="3.58555">
        <ele>951.2</ele>
        <time>2022-10-28T09:02:43Z</time>
      </trkpt>
      <trkpt lat="44.36502" lon="3.58552">
        <ele>951.2</ele>
        <time>2022-10-28T09:02:44Z</time>
      </trkpt>
      <trkpt lat="44.36499" lon="3.5855">
        <ele>951.2</ele>
        <time>2022-10-28T09:02:45Z</time>
      </trkpt>
      <trkpt lat="44.36497" lon="3.58549">
        <ele>951</ele>
        <time>2022-10-28T09:02:46Z</time>
      </trkpt>
      <trkpt lat="44.36495" lon="3.58547">
        <ele>951</ele>
        <time>2022-10-28T09:02:47Z</time>
      </trkpt>
      <trkpt lat="44.36493" lon="3.58545">
        <ele>950.8</ele>
        <time>2022-10-28T09:02:48Z</time>
      </trkpt>
      <trkpt lat="44.36492" lon="3.58544">
        <ele>950.6</ele>
        <time>2022-10-28T09:02:49Z</time>
      </trkpt>
      <trkpt lat="44.36492" lon="3.58542">
        <ele>950.6</ele>
        <time>2022-10-28T09:02:50Z</time>
      </trkpt>
      <trkpt lat="44.36492" lon="3.58542">
        <ele>950.6</ele>
        <time>2022-10-28T09:02:51Z</time>
      </trkpt>
      <trkpt lat="44.36493" lon="3.58542">
        <ele>950.6</ele>
        <time>2022-10-28T09:02:52Z</time>
      </trkpt>
      <trkpt lat="44.36494" lon="3.58543">
        <ele>950.6</ele>
        <time>2022-10-28T09:02:53Z</time>
      </trkpt>
      <trkpt lat="44.36495" lon="3.58544">
        <ele>950.8</ele>
        <time>2022-10-28T09:02:54Z</time>
      </trkpt>
      <trkpt lat="44.36497" lon="3.58546">
        <ele>951</ele>
        <time>2022-10-28T09:02:55Z</time>
      </trkpt>
      <trkpt lat="44.36499" lon="3.58548">
        <ele>951</ele>
        <time>2022-10-28T09:02:56Z</time>
      </trkpt>
      <trkpt lat="44.36502" lon="3.58551">
        <ele>951.2</ele>
        <time>2022-10-28T09:02:57Z</time>
      </trkpt>
      <trkpt lat="44.36504" lon="3.58553">
        <ele>951.4</ele>
        <time>2022-10-28T09:02:58Z</time>
      </trkpt>
      <trkpt lat="44.36507" lon="3.58556">
        <ele>951.6</ele>
        <time>2022-10-28T09:02:59Z</time>
      </trkpt>
      <trkpt lat="44.3651" lon="3.58558">
        <ele>951.6</ele>
        <time>2022-10-28T09:03:00Z</time>
      </trkpt>
      <trkpt lat="44.36512" lon="3.5856">
        <ele>951.8</ele>
        <time>2022-10-28T09:03:01Z</time>
      </trkpt>
      <trkpt lat="44.36515" lon="3.58562">
        <ele>951.8</ele>
        <time>2022-10-28T09:03:02Z</time>
      </trkpt>
      <trkpt lat="44.36518" lon="3.58564">
        <ele>952</ele>
        <time>2022-10-28T09:03:03Z</time>
      </trkpt>
      <trkpt lat="44.36521" lon="3.58565">
        <ele>952</ele>
        <time>2022-10-28T09:03:04Z</time>
      </trkpt>
      <trkpt lat="44.36523" lon="3.58567">
        <ele>952</ele>
        <time>2022-10-28T09:03:05Z</time>
      </trkpt>
      <trkpt lat="44.36523" lon="3.58569">
        <ele>952</ele>
        <time>2022-10-28T09:03:06Z</time>
      </trkpt>
      <trkpt lat="44.36522" lon="3.58569">
        <ele>952</ele>
        <time>2022-10-28T09:03:07Z</time>
      </trkpt>
      <trkpt lat="44.3652" lon="3.58568">
        <ele>952</ele>
        <time>2022-10-28T09:03:08Z</time>
      </trkpt>
      <trkpt lat="44.36518" lon="3.58566">
        <ele>952</ele>
        <time>2022-10-28T09:03:09Z</time>
      </trkpt>
      <trkpt lat="44.36516" lon="3.58564">
        <ele>952</ele>
        <time>2022-10-28T09:03:10Z</time>
      </trkpt>
      <trkpt lat="44.36514" lon="3.58561">
        <ele>951.8</ele>
        <time>2022-10-28T09:03:11Z</time>
      </trkpt>
      <trkpt lat="44.36511" lon="3.58559">
        <ele>951.8</ele>
        <time>2022-10-28T09:03:12Z</time>
      </trkpt>
      <trkpt lat="44.36508" lon="3.58557">
        <ele>951.8</ele>
        <time>2022-10-28T09:03:13Z</time>
      </trkpt>
      <trkpt lat="44.36505" lon="3.58555">
        <ele>951.8</ele>
        <time>2022-10-28T09:03:14Z</time>
      </trkpt>
      <trkpt lat="44.36502" lon="3.58553">
        <ele>951.8</ele>
        <time>2022-10-28T09:03:15Z</time>
      </trkpt>
      <trkpt lat="44.365" lon="3.58552">
        <ele>951.6</ele>
        <time>2022-10-28T09:03:16Z</time>
      </trkpt>
      <trkpt lat="44.36498" lon="3.58551">
        <ele>951.6</ele>
        <time>2022-10-28T09:03:17Z</time>
      </trkpt>
      <trkpt lat="44.36497" lon="3.5855">
        <ele>951.6</ele>
        <time>2022-10-28T09:03:18Z</time>
      </trkpt>
      <trkpt lat="44.36497" lon="3.5855">
        <ele>951.6</ele>
        <time>2022-10-28T09:03:19Z</time>
      </trkpt>
      <trkpt lat="44.36497" lon="3.5855">
        <ele>951.6</ele>
        <time>2022-10-28T09:03:20Z</time>
      </trkpt>
      <trkpt lat="44.36497" lon="3.5855">
        <ele>951.6</ele>
        <time>2022-10-28T09:03:21Z</time>
      </trkpt>
      <trkpt lat="44.36497" lon="3.5855">
        <ele>951.6</ele>
        <time>2022-10-28T09:03:22Z</time>
      </trkpt>
      <trkpt lat="44.36497" lon="3.5855">
        <ele>951.6</ele>
        <time>2022-10-28T09:03:23Z</time>
      </trkpt>
      <trkpt lat="44.36497" lon="3.5855">
        <ele>951.6</ele>
        <time>2022-10-28T09:03:24Z</time>
      </trkpt>
      <trkpt lat="44.36497" lon="3.5855">
        <ele>951.6</ele>
        <time>2022-10-28T09:03:25Z</time>
      </trkpt>
      <trkpt lat="44.36497" lon="3.5855">
        <ele>951.6</ele>
        <time>2022-10-28T09:03:26Z</time>
      </trkpt>
      <trkpt lat="44.36498" lon="3.58549">
        <ele>951.6</ele>
        <time>2022-10-28T09:03:34Z</time>
      </trkpt>
      <trkpt lat="44.36499" lon="3.58549">
        <ele>951.6</ele>
        <time>2022-10-28T09:03:35Z</time>
      </trkpt>
      <trkpt lat="44.36501" lon="3.5855">
        <ele>951.6</ele>
        <time>2022-10-28T09:03:36Z</time>
      </trkpt>
      <trkpt lat="44.36503" lon="3.58552">
        <ele>951.8</ele>
        <time>2022-10-28T09:03:37Z</time>
      </trkpt>
      <trkpt lat="44.36504" lon="3.58553">
        <ele>952</ele>
        <time>2022-10-28T09:03:38Z</time>
      </trkpt>
      <trkpt lat="44.36506" lon="3.58555">
        <ele>952</ele>
        <time>2022-10-28T09:03:39Z</time>
      </trkpt>
      <trkpt lat="44.36509" lon="3.58557">
        <ele>952</ele>
        <time>2022-10-28T09:03:40Z</time>
      </trkpt>
      <trkpt lat="44.36511" lon="3.58559">
        <ele>952.2</ele>
        <time>2022-10-28T09:03:41Z</time>
      </trkpt>
      <trkpt lat="44.36514" lon="3.58561">
        <ele>952.2</ele>
        <time>2022-10-28T09:03:42Z</time>
      </trkpt>
      <trkpt lat="44.36517" lon="3.58563">
        <ele>952.2</ele>
        <time>2022-10-28T09:03:43Z</time>
      </trkpt>
      <trkpt lat="44.3652" lon="3.58565">
        <ele>952.4</ele>
        <time>2022-10-28T09:03:44Z</time>
      </trkpt>
      <trkpt lat="44.36523" lon="3.58567">
        <ele>952.4</ele>
        <time>2022-10-28T09:03:45Z</time>
      </trkpt>
      <trkpt lat="44.36526" lon="3.58569">
        <ele>952.6</ele>
        <time>2022-10-28T09:03:46Z</time>
      </trkpt>
      <trkpt lat="44.36529" lon="3.58571">
        <ele>952.6</ele>
        <time>2022-10-28T09:03:47Z</time>
      </trkpt>
      <trkpt lat="44.36531" lon="3.58574">
        <ele>952.6</ele>
        <time>2022-10-28T09:03:48Z</time>
      </trkpt>
      <trkpt lat="44.36535" lon="3.58576">
        <ele>952.6</ele>
        <time>2022-10-28T09:03:49Z</time>
      </trkpt>
      <trkpt lat="44.36537" lon="3.58578">
        <ele>952.8</ele>
        <time>2022-10-28T09:03:50Z</time>
      </trkpt>
      <trkpt lat="44.36541" lon="3.58581">
        <ele>952.8</ele>
        <time>2022-10-28T09:03:51Z</time>
      </trkpt>
      <trkpt lat="44.36544" lon="3.58582">
        <ele>952.8</ele>
        <time>2022-10-28T09:03:52Z</time>
      </trkpt>
      <trkpt lat="44.36548" lon="3.58584">
        <ele>952.8</ele>
        <time>2022-10-28T09:03:53Z</time>
      </trkpt>
      <trkpt lat="44.36551" lon="3.58584">
        <ele>953</ele>
        <time>2022-10-28T09:03:54Z</time>
      </trkpt>
      <trkpt lat="44.36554" lon="3.58585">
        <ele>953.2</ele>
        <time>2022-10-28T09:03:55Z</time>
      </trkpt>
      <trkpt lat="44.36558" lon="3.58586">
        <ele>953.4</ele>
        <time>2022-10-28T09:03:56Z</time>
      </trkpt>
      <trkpt lat="44.36561" lon="3.58586">
        <ele>953.4</ele>
        <time>2022-10-28T09:03:57Z</time>
      </trkpt>
      <trkpt lat="44.36564" lon="3.58587">
        <ele>953.8</ele>
        <time>2022-10-28T09:03:58Z</time>
      </trkpt>
      <trkpt lat="44.36566" lon="3.58588">
        <ele>954</ele>
        <time>2022-10-28T09:03:59Z</time>
      </trkpt>
      <trkpt lat="44.36569" lon="3.58589">
        <ele>954</ele>
        <time>2022-10-28T09:04:00Z</time>
      </trkpt>
      <trkpt lat="44.36572" lon="3.58589">
        <ele>954</ele>
        <time>2022-10-28T09:04:01Z</time>
      </trkpt>
      <trkpt lat="44.36575" lon="3.58589">
        <ele>954.2</ele>
        <time>2022-10-28T09:04:02Z</time>
      </trkpt>
      <trkpt lat="44.36577" lon="3.58589">
        <ele>954.4</ele>
        <time>2022-10-28T09:04:03Z</time>
      </trkpt>
      <trkpt lat="44.3658" lon="3.58589">
        <ele>954.6</ele>
        <time>2022-10-28T09:04:04Z</time>
      </trkpt>
      <trkpt lat="44.36582" lon="3.58588">
        <ele>954.8</ele>
        <time>2022-10-28T09:04:05Z</time>
      </trkpt>
      <trkpt lat="44.36584" lon="3.58588">
        <ele>955.2</ele>
        <time>2022-10-28T09:04:06Z</time>
      </trkpt>
      <trkpt lat="44.36586" lon="3.58588">
        <ele>955.6</ele>
        <time>2022-10-28T09:04:07Z</time>
      </trkpt>
      <trkpt lat="44.36588" lon="3.58588">
        <ele>955.8</ele>
        <time>2022-10-28T09:04:08Z</time>
      </trkpt>
      <trkpt lat="44.3659" lon="3.58588">
        <ele>956</ele>
        <time>2022-10-28T09:04:09Z</time>
      </trkpt>
      <trkpt lat="44.36592" lon="3.58587">
        <ele>956</ele>
        <time>2022-10-28T09:04:10Z</time>
      </trkpt>
      <trkpt lat="44.36594" lon="3.58587">
        <ele>956.4</ele>
        <time>2022-10-28T09:04:11Z</time>
      </trkpt>
      <trkpt lat="44.36596" lon="3.58586">
        <ele>956.6</ele>
        <time>2022-10-28T09:04:12Z</time>
      </trkpt>
      <trkpt lat="44.36599" lon="3.58586">
        <ele>956.8</ele>
        <time>2022-10-28T09:04:13Z</time>
      </trkpt>
      <trkpt lat="44.366" lon="3.58585">
        <ele>957</ele>
        <time>2022-10-28T09:04:14Z</time>
      </trkpt>
      <trkpt lat="44.36602" lon="3.58584">
        <ele>957.2</ele>
        <time>2022-10-28T09:04:15Z</time>
      </trkpt>
      <trkpt lat="44.36604" lon="3.58584">
        <ele>957.4</ele>
        <time>2022-10-28T09:04:16Z</time>
      </trkpt>
      <trkpt lat="44.36607" lon="3.58583">
        <ele>957.6</ele>
        <time>2022-10-28T09:04:17Z</time>
      </trkpt>
      <trkpt lat="44.36609" lon="3.58583">
        <ele>957.8</ele>
        <time>2022-10-28T09:04:18Z</time>
      </trkpt>
      <trkpt lat="44.36611" lon="3.58583">
        <ele>958</ele>
        <time>2022-10-28T09:04:19Z</time>
      </trkpt>
      <trkpt lat="44.36613" lon="3.58582">
        <ele>958.2</ele>
        <time>2022-10-28T09:04:20Z</time>
      </trkpt>
      <trkpt lat="44.36615" lon="3.58582">
        <ele>958.4</ele>
        <time>2022-10-28T09:04:21Z</time>
      </trkpt>
      <trkpt lat="44.36617" lon="3.58582">
        <ele>958.6</ele>
        <time>2022-10-28T09:04:22Z</time>
      </trkpt>
      <trkpt lat="44.36619" lon="3.58582">
        <ele>958.8</ele>
        <time>2022-10-28T09:04:23Z</time>
      </trkpt>
      <trkpt lat="44.36621" lon="3.58582">
        <ele>959.2</ele>
        <time>2022-10-28T09:04:24Z</time>
      </trkpt>
      <trkpt lat="44.36623" lon="3.58582">
        <ele>959.4</ele>
        <time>2022-10-28T09:04:25Z</time>
      </trkpt>
      <trkpt lat="44.36625" lon="3.58581">
        <ele>959.6</ele>
        <time>2022-10-28T09:04:26Z</time>
      </trkpt>
      <trkpt lat="44.36627" lon="3.58581">
        <ele>959.8</ele>
        <time>2022-10-28T09:04:27Z</time>
      </trkpt>
      <trkpt lat="44.36629" lon="3.58581">
        <ele>960.2</ele>
        <time>2022-10-28T09:04:28Z</time>
      </trkpt>
      <trkpt lat="44.3663" lon="3.58581">
        <ele>960.4</ele>
        <time>2022-10-28T09:04:29Z</time>
      </trkpt>
      <trkpt lat="44.36633" lon="3.5858">
        <ele>960.4</ele>
        <time>2022-10-28T09:04:30Z</time>
      </trkpt>
      <trkpt lat="44.36635" lon="3.5858">
        <ele>960.4</ele>
        <time>2022-10-28T09:04:31Z</time>
      </trkpt>
      <trkpt lat="44.36637" lon="3.5858">
        <ele>960.6</ele>
        <time>2022-10-28T09:04:32Z</time>
      </trkpt>
      <trkpt lat="44.36639" lon="3.58579">
        <ele>960.6</ele>
        <time>2022-10-28T09:04:33Z</time>
      </trkpt>
      <trkpt lat="44.36642" lon="3.58579">
        <ele>960.8</ele>
        <time>2022-10-28T09:04:34Z</time>
      </trkpt>
      <trkpt lat="44.36644" lon="3.58579">
        <ele>960.8</ele>
        <time>2022-10-28T09:04:35Z</time>
      </trkpt>
      <trkpt lat="44.36646" lon="3.58578">
        <ele>961</ele>
        <time>2022-10-28T09:04:36Z</time>
      </trkpt>
      <trkpt lat="44.36648" lon="3.58578">
        <ele>961.2</ele>
        <time>2022-10-28T09:04:37Z</time>
      </trkpt>
      <trkpt lat="44.3665" lon="3.58578">
        <ele>961.4</ele>
        <time>2022-10-28T09:04:38Z</time>
      </trkpt>
      <trkpt lat="44.36652" lon="3.58578">
        <ele>961.4</ele>
        <time>2022-10-28T09:04:39Z</time>
      </trkpt>
      <trkpt lat="44.36655" lon="3.58577">
        <ele>961.6</ele>
        <time>2022-10-28T09:04:40Z</time>
      </trkpt>
      <trkpt lat="44.36657" lon="3.58577">
        <ele>961.8</ele>
        <time>2022-10-28T09:04:41Z</time>
      </trkpt>
      <trkpt lat="44.36659" lon="3.58577">
        <ele>962</ele>
        <time>2022-10-28T09:04:42Z</time>
      </trkpt>
      <trkpt lat="44.36661" lon="3.58577">
        <ele>962</ele>
        <time>2022-10-28T09:04:43Z</time>
      </trkpt>
      <trkpt lat="44.36663" lon="3.58576">
        <ele>962.2</ele>
        <time>2022-10-28T09:04:44Z</time>
      </trkpt>
      <trkpt lat="44.36666" lon="3.58576">
        <ele>962.4</ele>
        <time>2022-10-28T09:04:45Z</time>
      </trkpt>
      <trkpt lat="44.36668" lon="3.58575">
        <ele>962.6</ele>
        <time>2022-10-28T09:04:46Z</time>
      </trkpt>
      <trkpt lat="44.3667" lon="3.58575">
        <ele>962.8</ele>
        <time>2022-10-28T09:04:47Z</time>
      </trkpt>
      <trkpt lat="44.36672" lon="3.58575">
        <ele>963</ele>
        <time>2022-10-28T09:04:48Z</time>
      </trkpt>
      <trkpt lat="44.36674" lon="3.58575">
        <ele>963</ele>
        <time>2022-10-28T09:04:49Z</time>
      </trkpt>
      <trkpt lat="44.36677" lon="3.58574">
        <ele>963.2</ele>
        <time>2022-10-28T09:04:50Z</time>
      </trkpt>
      <trkpt lat="44.36679" lon="3.58574">
        <ele>963.4</ele>
        <time>2022-10-28T09:04:51Z</time>
      </trkpt>
      <trkpt lat="44.36681" lon="3.58574">
        <ele>963.4</ele>
        <time>2022-10-28T09:04:52Z</time>
      </trkpt>
      <trkpt lat="44.36682" lon="3.58574">
        <ele>963.6</ele>
        <time>2022-10-28T09:04:53Z</time>
      </trkpt>
      <trkpt lat="44.36685" lon="3.58573">
        <ele>963.8</ele>
        <time>2022-10-28T09:04:54Z</time>
      </trkpt>
      <trkpt lat="44.36687" lon="3.58573">
        <ele>964</ele>
        <time>2022-10-28T09:04:55Z</time>
      </trkpt>
      <trkpt lat="44.36689" lon="3.58573">
        <ele>964.2</ele>
        <time>2022-10-28T09:04:56Z</time>
      </trkpt>
      <trkpt lat="44.36691" lon="3.58573">
        <ele>964.4</ele>
        <time>2022-10-28T09:04:57Z</time>
      </trkpt>
      <trkpt lat="44.36693" lon="3.58573">
        <ele>964.6</ele>
        <time>2022-10-28T09:04:58Z</time>
      </trkpt>
      <trkpt lat="44.36694" lon="3.58573">
        <ele>965</ele>
        <time>2022-10-28T09:04:59Z</time>
      </trkpt>
      <trkpt lat="44.36696" lon="3.58572">
        <ele>965.2</ele>
        <time>2022-10-28T09:05:00Z</time>
      </trkpt>
      <trkpt lat="44.36698" lon="3.58572">
        <ele>965.4</ele>
        <time>2022-10-28T09:05:01Z</time>
      </trkpt>
      <trkpt lat="44.367" lon="3.58572">
        <ele>965.4</ele>
        <time>2022-10-28T09:05:02Z</time>
      </trkpt>
      <trkpt lat="44.36702" lon="3.58572">
        <ele>965.6</ele>
        <time>2022-10-28T09:05:03Z</time>
      </trkpt>
      <trkpt lat="44.36704" lon="3.58572">
        <ele>965.8</ele>
        <time>2022-10-28T09:05:04Z</time>
      </trkpt>
      <trkpt lat="44.36706" lon="3.58572">
        <ele>965.8</ele>
        <time>2022-10-28T09:05:05Z</time>
      </trkpt>
      <trkpt lat="44.36708" lon="3.58572">
        <ele>966</ele>
        <time>2022-10-28T09:05:06Z</time>
      </trkpt>
      <trkpt lat="44.3671" lon="3.58571">
        <ele>966.2</ele>
        <time>2022-10-28T09:05:07Z</time>
      </trkpt>
      <trkpt lat="44.36712" lon="3.58571">
        <ele>966.4</ele>
        <time>2022-10-28T09:05:08Z</time>
      </trkpt>
      <trkpt lat="44.36713" lon="3.58571">
        <ele>966.6</ele>
        <time>2022-10-28T09:05:09Z</time>
      </trkpt>
      <trkpt lat="44.36715" lon="3.58571">
        <ele>966.8</ele>
        <time>2022-10-28T09:05:10Z</time>
      </trkpt>
      <trkpt lat="44.36717" lon="3.58571">
        <ele>967</ele>
        <time>2022-10-28T09:05:11Z</time>
      </trkpt>
      <trkpt lat="44.36719" lon="3.5857">
        <ele>967.2</ele>
        <time>2022-10-28T09:05:12Z</time>
      </trkpt>
      <trkpt lat="44.36721" lon="3.5857">
        <ele>967.4</ele>
        <time>2022-10-28T09:05:13Z</time>
      </trkpt>
      <trkpt lat="44.36723" lon="3.5857">
        <ele>967.6</ele>
        <time>2022-10-28T09:05:14Z</time>
      </trkpt>
      <trkpt lat="44.36725" lon="3.58569">
        <ele>967.6</ele>
        <time>2022-10-28T09:05:15Z</time>
      </trkpt>
      <trkpt lat="44.36727" lon="3.58569">
        <ele>967.8</ele>
        <time>2022-10-28T09:05:16Z</time>
      </trkpt>
      <trkpt lat="44.36729" lon="3.58569">
        <ele>968</ele>
        <time>2022-10-28T09:05:17Z</time>
      </trkpt>
      <trkpt lat="44.36731" lon="3.58568">
        <ele>968.2</ele>
        <time>2022-10-28T09:05:18Z</time>
      </trkpt>
      <trkpt lat="44.36733" lon="3.58568">
        <ele>968.2</ele>
        <time>2022-10-28T09:05:19Z</time>
      </trkpt>
      <trkpt lat="44.36735" lon="3.58567">
        <ele>968.4</ele>
        <time>2022-10-28T09:05:20Z</time>
      </trkpt>
      <trkpt lat="44.36737" lon="3.58567">
        <ele>968.6</ele>
        <time>2022-10-28T09:05:21Z</time>
      </trkpt>
      <trkpt lat="44.36739" lon="3.58567">
        <ele>968.8</ele>
        <time>2022-10-28T09:05:22Z</time>
      </trkpt>
      <trkpt lat="44.36741" lon="3.58566">
        <ele>969</ele>
        <time>2022-10-28T09:05:23Z</time>
      </trkpt>
      <trkpt lat="44.36743" lon="3.58566">
        <ele>969.2</ele>
        <time>2022-10-28T09:05:24Z</time>
      </trkpt>
      <trkpt lat="44.36744" lon="3.58565">
        <ele>969.4</ele>
        <time>2022-10-28T09:05:25Z</time>
      </trkpt>
      <trkpt lat="44.36746" lon="3.58564">
        <ele>969.6</ele>
        <time>2022-10-28T09:05:26Z</time>
      </trkpt>
      <trkpt lat="44.36748" lon="3.58563">
        <ele>969.8</ele>
        <time>2022-10-28T09:05:27Z</time>
      </trkpt>
      <trkpt lat="44.3675" lon="3.58563">
        <ele>970</ele>
        <time>2022-10-28T09:05:28Z</time>
      </trkpt>
      <trkpt lat="44.36752" lon="3.58562">
        <ele>970.2</ele>
        <time>2022-10-28T09:05:29Z</time>
      </trkpt>
      <trkpt lat="44.36754" lon="3.58562">
        <ele>970.6</ele>
        <time>2022-10-28T09:05:30Z</time>
      </trkpt>
      <trkpt lat="44.36755" lon="3.58561">
        <ele>970.8</ele>
        <time>2022-10-28T09:05:31Z</time>
      </trkpt>
      <trkpt lat="44.36757" lon="3.5856">
        <ele>970.8</ele>
        <time>2022-10-28T09:05:32Z</time>
      </trkpt>
      <trkpt lat="44.36759" lon="3.5856">
        <ele>970.8</ele>
        <time>2022-10-28T09:05:33Z</time>
      </trkpt>
      <trkpt lat="44.36761" lon="3.58559">
        <ele>970.8</ele>
        <time>2022-10-28T09:05:34Z</time>
      </trkpt>
      <trkpt lat="44.36763" lon="3.58559">
        <ele>971</ele>
        <time>2022-10-28T09:05:35Z</time>
      </trkpt>
      <trkpt lat="44.36765" lon="3.58558">
        <ele>971.2</ele>
        <time>2022-10-28T09:05:36Z</time>
      </trkpt>
      <trkpt lat="44.36767" lon="3.58558">
        <ele>971.2</ele>
        <time>2022-10-28T09:05:37Z</time>
      </trkpt>
      <trkpt lat="44.36769" lon="3.58557">
        <ele>971.6</ele>
        <time>2022-10-28T09:05:38Z</time>
      </trkpt>
      <trkpt lat="44.36771" lon="3.58556">
        <ele>971.8</ele>
        <time>2022-10-28T09:05:39Z</time>
      </trkpt>
      <trkpt lat="44.36773" lon="3.58556">
        <ele>971.8</ele>
        <time>2022-10-28T09:05:40Z</time>
      </trkpt>
      <trkpt lat="44.36775" lon="3.58555">
        <ele>972</ele>
        <time>2022-10-28T09:05:41Z</time>
      </trkpt>
      <trkpt lat="44.36777" lon="3.58555">
        <ele>972.2</ele>
        <time>2022-10-28T09:05:42Z</time>
      </trkpt>
      <trkpt lat="44.36779" lon="3.58554">
        <ele>972.4</ele>
        <time>2022-10-28T09:05:43Z</time>
      </trkpt>
      <trkpt lat="44.3678" lon="3.58554">
        <ele>972.6</ele>
        <time>2022-10-28T09:05:44Z</time>
      </trkpt>
      <trkpt lat="44.36782" lon="3.58553">
        <ele>972.6</ele>
        <time>2022-10-28T09:05:45Z</time>
      </trkpt>
      <trkpt lat="44.36784" lon="3.58553">
        <ele>972.8</ele>
        <time>2022-10-28T09:05:46Z</time>
      </trkpt>
      <trkpt lat="44.36786" lon="3.58552">
        <ele>973</ele>
        <time>2022-10-28T09:05:47Z</time>
      </trkpt>
      <trkpt lat="44.36787" lon="3.58551">
        <ele>973.2</ele>
        <time>2022-10-28T09:05:48Z</time>
      </trkpt>
      <trkpt lat="44.36789" lon="3.58551">
        <ele>973.4</ele>
        <time>2022-10-28T09:05:49Z</time>
      </trkpt>
      <trkpt lat="44.36791" lon="3.5855">
        <ele>973.6</ele>
        <time>2022-10-28T09:05:50Z</time>
      </trkpt>
      <trkpt lat="44.36793" lon="3.58549">
        <ele>973.8</ele>
        <time>2022-10-28T09:05:51Z</time>
      </trkpt>
      <trkpt lat="44.36795" lon="3.58549">
        <ele>974</ele>
        <time>2022-10-28T09:05:52Z</time>
      </trkpt>
      <trkpt lat="44.36797" lon="3.58548">
        <ele>974.2</ele>
        <time>2022-10-28T09:05:53Z</time>
      </trkpt>
      <trkpt lat="44.36798" lon="3.58547">
        <ele>974.6</ele>
        <time>2022-10-28T09:05:54Z</time>
      </trkpt>
      <trkpt lat="44.368" lon="3.58547">
        <ele>974.8</ele>
        <time>2022-10-28T09:05:55Z</time>
      </trkpt>
      <trkpt lat="44.36802" lon="3.58546">
        <ele>975</ele>
        <time>2022-10-28T09:05:56Z</time>
      </trkpt>
      <trkpt lat="44.36803" lon="3.58545">
        <ele>975.4</ele>
        <time>2022-10-28T09:05:57Z</time>
      </trkpt>
      <trkpt lat="44.36805" lon="3.58545">
        <ele>975.6</ele>
        <time>2022-10-28T09:05:58Z</time>
      </trkpt>
      <trkpt lat="44.36807" lon="3.58544">
        <ele>976</ele>
        <time>2022-10-28T09:05:59Z</time>
      </trkpt>
      <trkpt lat="44.36808" lon="3.58544">
        <ele>976.4</ele>
        <time>2022-10-28T09:06:00Z</time>
      </trkpt>
      <trkpt lat="44.3681" lon="3.58543">
        <ele>976.6</ele>
        <time>2022-10-28T09:06:01Z</time>
      </trkpt>
      <trkpt lat="44.36811" lon="3.58543">
        <ele>976.8</ele>
        <time>2022-10-28T09:06:02Z</time>
      </trkpt>
      <trkpt lat="44.36813" lon="3.58543">
        <ele>977</ele>
        <time>2022-10-28T09:06:03Z</time>
      </trkpt>
      <trkpt lat="44.36815" lon="3.58542">
        <ele>977.4</ele>
        <time>2022-10-28T09:06:04Z</time>
      </trkpt>
      <trkpt lat="44.36817" lon="3.58542">
        <ele>977.6</ele>
        <time>2022-10-28T09:06:05Z</time>
      </trkpt>
      <trkpt lat="44.36819" lon="3.58542">
        <ele>977.8</ele>
        <time>2022-10-28T09:06:06Z</time>
      </trkpt>
      <trkpt lat="44.36821" lon="3.58541">
        <ele>978</ele>
        <time>2022-10-28T09:06:07Z</time>
      </trkpt>
      <trkpt lat="44.36822" lon="3.5854">
        <ele>978.2</ele>
        <time>2022-10-28T09:06:08Z</time>
      </trkpt>
      <trkpt lat="44.36824" lon="3.5854">
        <ele>978.4</ele>
        <time>2022-10-28T09:06:09Z</time>
      </trkpt>
      <trkpt lat="44.36825" lon="3.58539">
        <ele>978.8</ele>
        <time>2022-10-28T09:06:10Z</time>
      </trkpt>
      <trkpt lat="44.36827" lon="3.58539">
        <ele>979</ele>
        <time>2022-10-28T09:06:11Z</time>
      </trkpt>
      <trkpt lat="44.36829" lon="3.58538">
        <ele>979</ele>
        <time>2022-10-28T09:06:12Z</time>
      </trkpt>
      <trkpt lat="44.3683" lon="3.58538">
        <ele>979.4</ele>
        <time>2022-10-28T09:06:13Z</time>
      </trkpt>
      <trkpt lat="44.36832" lon="3.58537">
        <ele>979.4</ele>
        <time>2022-10-28T09:06:14Z</time>
      </trkpt>
      <trkpt lat="44.36833" lon="3.58537">
        <ele>979.8</ele>
        <time>2022-10-28T09:06:15Z</time>
      </trkpt>
      <trkpt lat="44.36835" lon="3.58537">
        <ele>980</ele>
        <time>2022-10-28T09:06:16Z</time>
      </trkpt>
      <trkpt lat="44.36836" lon="3.58536">
        <ele>980.2</ele>
        <time>2022-10-28T09:06:17Z</time>
      </trkpt>
      <trkpt lat="44.36838" lon="3.58535">
        <ele>980.6</ele>
        <time>2022-10-28T09:06:18Z</time>
      </trkpt>
      <trkpt lat="44.36839" lon="3.58535">
        <ele>980.8</ele>
        <time>2022-10-28T09:06:19Z</time>
      </trkpt>
      <trkpt lat="44.36841" lon="3.58534">
        <ele>981</ele>
        <time>2022-10-28T09:06:20Z</time>
      </trkpt>
      <trkpt lat="44.36842" lon="3.58534">
        <ele>981.2</ele>
        <time>2022-10-28T09:06:21Z</time>
      </trkpt>
      <trkpt lat="44.36844" lon="3.58534">
        <ele>981.4</ele>
        <time>2022-10-28T09:06:22Z</time>
      </trkpt>
      <trkpt lat="44.36845" lon="3.58534">
        <ele>981.6</ele>
        <time>2022-10-28T09:06:23Z</time>
      </trkpt>
      <trkpt lat="44.36847" lon="3.58534">
        <ele>981.8</ele>
        <time>2022-10-28T09:06:24Z</time>
      </trkpt>
      <trkpt lat="44.36848" lon="3.58533">
        <ele>982.2</ele>
        <time>2022-10-28T09:06:25Z</time>
      </trkpt>
      <trkpt lat="44.3685" lon="3.58533">
        <ele>982.4</ele>
        <time>2022-10-28T09:06:26Z</time>
      </trkpt>
      <trkpt lat="44.36851" lon="3.58533">
        <ele>982.8</ele>
        <time>2022-10-28T09:06:27Z</time>
      </trkpt>
      <trkpt lat="44.36853" lon="3.58533">
        <ele>983.2</ele>
        <time>2022-10-28T09:06:28Z</time>
      </trkpt>
      <trkpt lat="44.36854" lon="3.58532">
        <ele>983.4</ele>
        <time>2022-10-28T09:06:29Z</time>
      </trkpt>
      <trkpt lat="44.36855" lon="3.58532">
        <ele>983.6</ele>
        <time>2022-10-28T09:06:30Z</time>
      </trkpt>
      <trkpt lat="44.36857" lon="3.58532">
        <ele>983.6</ele>
        <time>2022-10-28T09:06:31Z</time>
      </trkpt>
      <trkpt lat="44.36859" lon="3.58532">
        <ele>983.8</ele>
        <time>2022-10-28T09:06:32Z</time>
      </trkpt>
      <trkpt lat="44.3686" lon="3.58532">
        <ele>983.8</ele>
        <time>2022-10-28T09:06:33Z</time>
      </trkpt>
      <trkpt lat="44.36862" lon="3.58532">
        <ele>984.2</ele>
        <time>2022-10-28T09:06:34Z</time>
      </trkpt>
      <trkpt lat="44.36863" lon="3.58533">
        <ele>984.2</ele>
        <time>2022-10-28T09:06:35Z</time>
      </trkpt>
      <trkpt lat="44.36864" lon="3.58534">
        <ele>984.6</ele>
        <time>2022-10-28T09:06:36Z</time>
      </trkpt>
      <trkpt lat="44.36865" lon="3.58534">
        <ele>984.8</ele>
        <time>2022-10-28T09:06:37Z</time>
      </trkpt>
      <trkpt lat="44.36867" lon="3.58535">
        <ele>985.2</ele>
        <time>2022-10-28T09:06:38Z</time>
      </trkpt>
      <trkpt lat="44.36868" lon="3.58535">
        <ele>985.4</ele>
        <time>2022-10-28T09:06:39Z</time>
      </trkpt>
      <trkpt lat="44.3687" lon="3.58535">
        <ele>985.8</ele>
        <time>2022-10-28T09:06:40Z</time>
      </trkpt>
      <trkpt lat="44.36871" lon="3.58536">
        <ele>986</ele>
        <time>2022-10-28T09:06:41Z</time>
      </trkpt>
      <trkpt lat="44.36873" lon="3.58536">
        <ele>986.2</ele>
        <time>2022-10-28T09:06:42Z</time>
      </trkpt>
      <trkpt lat="44.36874" lon="3.58536">
        <ele>986.6</ele>
        <time>2022-10-28T09:06:43Z</time>
      </trkpt>
      <trkpt lat="44.36876" lon="3.58536">
        <ele>986.8</ele>
        <time>2022-10-28T09:06:44Z</time>
      </trkpt>
      <trkpt lat="44.36877" lon="3.58537">
        <ele>987.2</ele>
        <time>2022-10-28T09:06:45Z</time>
      </trkpt>
      <trkpt lat="44.36878" lon="3.58537">
        <ele>987.4</ele>
        <time>2022-10-28T09:06:46Z</time>
      </trkpt>
      <trkpt lat="44.3688" lon="3.58538">
        <ele>987.8</ele>
        <time>2022-10-28T09:06:47Z</time>
      </trkpt>
      <trkpt lat="44.36881" lon="3.58538">
        <ele>988</ele>
        <time>2022-10-28T09:06:48Z</time>
      </trkpt>
      <trkpt lat="44.36883" lon="3.58538">
        <ele>988.4</ele>
        <time>2022-10-28T09:06:49Z</time>
      </trkpt>
      <trkpt lat="44.36884" lon="3.58539">
        <ele>988.8</ele>
        <time>2022-10-28T09:06:50Z</time>
      </trkpt>
      <trkpt lat="44.36886" lon="3.58539">
        <ele>989</ele>
        <time>2022-10-28T09:06:51Z</time>
      </trkpt>
      <trkpt lat="44.36887" lon="3.58539">
        <ele>989.2</ele>
        <time>2022-10-28T09:06:52Z</time>
      </trkpt>
      <trkpt lat="44.36889" lon="3.5854">
        <ele>989.4</ele>
        <time>2022-10-28T09:06:53Z</time>
      </trkpt>
      <trkpt lat="44.3689" lon="3.5854">
        <ele>989.6</ele>
        <time>2022-10-28T09:06:54Z</time>
      </trkpt>
      <trkpt lat="44.36892" lon="3.58541">
        <ele>989.8</ele>
        <time>2022-10-28T09:06:55Z</time>
      </trkpt>
      <trkpt lat="44.36893" lon="3.58541">
        <ele>990</ele>
        <time>2022-10-28T09:06:56Z</time>
      </trkpt>
      <trkpt lat="44.36895" lon="3.58542">
        <ele>990.2</ele>
        <time>2022-10-28T09:06:57Z</time>
      </trkpt>
      <trkpt lat="44.36896" lon="3.58543">
        <ele>990.4</ele>
        <time>2022-10-28T09:06:58Z</time>
      </trkpt>
      <trkpt lat="44.36898" lon="3.58543">
        <ele>990.8</ele>
        <time>2022-10-28T09:06:59Z</time>
      </trkpt>
      <trkpt lat="44.36899" lon="3.58543">
        <ele>991</ele>
        <time>2022-10-28T09:07:00Z</time>
      </trkpt>
      <trkpt lat="44.36901" lon="3.58544">
        <ele>991.2</ele>
        <time>2022-10-28T09:07:01Z</time>
      </trkpt>
      <trkpt lat="44.36902" lon="3.58544">
        <ele>991.4</ele>
        <time>2022-10-28T09:07:02Z</time>
      </trkpt>
      <trkpt lat="44.36904" lon="3.58544">
        <ele>991.8</ele>
        <time>2022-10-28T09:07:03Z</time>
      </trkpt>
      <trkpt lat="44.36905" lon="3.58544">
        <ele>992</ele>
        <time>2022-10-28T09:07:04Z</time>
      </trkpt>
      <trkpt lat="44.36906" lon="3.58544">
        <ele>992.2</ele>
        <time>2022-10-28T09:07:05Z</time>
      </trkpt>
      <trkpt lat="44.36907" lon="3.58545">
        <ele>992.6</ele>
        <time>2022-10-28T09:07:06Z</time>
      </trkpt>
      <trkpt lat="44.36909" lon="3.58545">
        <ele>992.8</ele>
        <time>2022-10-28T09:07:07Z</time>
      </trkpt>
      <trkpt lat="44.3691" lon="3.58545">
        <ele>993</ele>
        <time>2022-10-28T09:07:08Z</time>
      </trkpt>
      <trkpt lat="44.36912" lon="3.58546">
        <ele>993.4</ele>
        <time>2022-10-28T09:07:09Z</time>
      </trkpt>
      <trkpt lat="44.36914" lon="3.58546">
        <ele>993.6</ele>
        <time>2022-10-28T09:07:10Z</time>
      </trkpt>
      <trkpt lat="44.36915" lon="3.58546">
        <ele>994</ele>
        <time>2022-10-28T09:07:11Z</time>
      </trkpt>
      <trkpt lat="44.36917" lon="3.58546">
        <ele>994.2</ele>
        <time>2022-10-28T09:07:12Z</time>
      </trkpt>
      <trkpt lat="44.36918" lon="3.58546">
        <ele>994.4</ele>
        <time>2022-10-28T09:07:13Z</time>
      </trkpt>
      <trkpt lat="44.36919" lon="3.58546">
        <ele>994.6</ele>
        <time>2022-10-28T09:07:14Z</time>
      </trkpt>
      <trkpt lat="44.3692" lon="3.58546">
        <ele>994.6</ele>
        <time>2022-10-28T09:07:15Z</time>
      </trkpt>
      <trkpt lat="44.36922" lon="3.58546">
        <ele>994.8</ele>
        <time>2022-10-28T09:07:16Z</time>
      </trkpt>
      <trkpt lat="44.36924" lon="3.58546">
        <ele>995</ele>
        <time>2022-10-28T09:07:17Z</time>
      </trkpt>
      <trkpt lat="44.36925" lon="3.58546">
        <ele>995.2</ele>
        <time>2022-10-28T09:07:18Z</time>
      </trkpt>
      <trkpt lat="44.36927" lon="3.58547">
        <ele>995.4</ele>
        <time>2022-10-28T09:07:19Z</time>
      </trkpt>
      <trkpt lat="44.36928" lon="3.58547">
        <ele>995.6</ele>
        <time>2022-10-28T09:07:20Z</time>
      </trkpt>
      <trkpt lat="44.3693" lon="3.58546">
        <ele>995.8</ele>
        <time>2022-10-28T09:07:21Z</time>
      </trkpt>
      <trkpt lat="44.36931" lon="3.58546">
        <ele>996</ele>
        <time>2022-10-28T09:07:22Z</time>
      </trkpt>
      <trkpt lat="44.36933" lon="3.58546">
        <ele>996.2</ele>
        <time>2022-10-28T09:07:23Z</time>
      </trkpt>
      <trkpt lat="44.36934" lon="3.58546">
        <ele>996.2</ele>
        <time>2022-10-28T09:07:24Z</time>
      </trkpt>
      <trkpt lat="44.36936" lon="3.58545">
        <ele>996.4</ele>
        <time>2022-10-28T09:07:25Z</time>
      </trkpt>
      <trkpt lat="44.36937" lon="3.58545">
        <ele>996.6</ele>
        <time>2022-10-28T09:07:26Z</time>
      </trkpt>
      <trkpt lat="44.36939" lon="3.58545">
        <ele>996.8</ele>
        <time>2022-10-28T09:07:27Z</time>
      </trkpt>
      <trkpt lat="44.3694" lon="3.58545">
        <ele>997</ele>
        <time>2022-10-28T09:07:28Z</time>
      </trkpt>
      <trkpt lat="44.36942" lon="3.58544">
        <ele>997.2</ele>
        <time>2022-10-28T09:07:29Z</time>
      </trkpt>
      <trkpt lat="44.36943" lon="3.58544">
        <ele>997.4</ele>
        <time>2022-10-28T09:07:30Z</time>
      </trkpt>
      <trkpt lat="44.36945" lon="3.58544">
        <ele>997.6</ele>
        <time>2022-10-28T09:07:31Z</time>
      </trkpt>
      <trkpt lat="44.36946" lon="3.58544">
        <ele>997.8</ele>
        <time>2022-10-28T09:07:32Z</time>
      </trkpt>
      <trkpt lat="44.36948" lon="3.58544">
        <ele>998</ele>
        <time>2022-10-28T09:07:33Z</time>
      </trkpt>
      <trkpt lat="44.3695" lon="3.58543">
        <ele>998.4</ele>
        <time>2022-10-28T09:07:34Z</time>
      </trkpt>
      <trkpt lat="44.36951" lon="3.58542">
        <ele>998.6</ele>
        <time>2022-10-28T09:07:35Z</time>
      </trkpt>
      <trkpt lat="44.36953" lon="3.58542">
        <ele>999</ele>
        <time>2022-10-28T09:07:36Z</time>
      </trkpt>
      <trkpt lat="44.36955" lon="3.58541">
        <ele>999.2</ele>
        <time>2022-10-28T09:07:37Z</time>
      </trkpt>
      <trkpt lat="44.36956" lon="3.58541">
        <ele>999.4</ele>
        <time>2022-10-28T09:07:38Z</time>
      </trkpt>
      <trkpt lat="44.36957" lon="3.58541">
        <ele>999.6</ele>
        <time>2022-10-28T09:07:39Z</time>
      </trkpt>
      <trkpt lat="44.36959" lon="3.5854">
        <ele>999.8</ele>
        <time>2022-10-28T09:07:40Z</time>
      </trkpt>
      <trkpt lat="44.36961" lon="3.5854">
        <ele>1000</ele>
        <time>2022-10-28T09:07:41Z</time>
      </trkpt>
      <trkpt lat="44.36963" lon="3.58539">
        <ele>1000.2</ele>
        <time>2022-10-28T09:07:42Z</time>
      </trkpt>
      <trkpt lat="44.36964" lon="3.58538">
        <ele>1000.4</ele>
        <time>2022-10-28T09:07:43Z</time>
      </trkpt>
      <trkpt lat="44.36966" lon="3.58538">
        <ele>1000.6</ele>
        <time>2022-10-28T09:07:44Z</time>
      </trkpt>
      <trkpt lat="44.36967" lon="3.58538">
        <ele>1001</ele>
        <time>2022-10-28T09:07:45Z</time>
      </trkpt>
      <trkpt lat="44.36969" lon="3.58538">
        <ele>1001.2</ele>
        <time>2022-10-28T09:07:46Z</time>
      </trkpt>
      <trkpt lat="44.36971" lon="3.58537">
        <ele>1001.4</ele>
        <time>2022-10-28T09:07:47Z</time>
      </trkpt>
      <trkpt lat="44.36972" lon="3.58537">
        <ele>1001.6</ele>
        <time>2022-10-28T09:07:48Z</time>
      </trkpt>
      <trkpt lat="44.36974" lon="3.58537">
        <ele>1001.8</ele>
        <time>2022-10-28T09:07:49Z</time>
      </trkpt>
      <trkpt lat="44.36975" lon="3.58537">
        <ele>1002</ele>
        <time>2022-10-28T09:07:50Z</time>
      </trkpt>
      <trkpt lat="44.36977" lon="3.58536">
        <ele>1002.2</ele>
        <time>2022-10-28T09:07:51Z</time>
      </trkpt>
      <trkpt lat="44.36978" lon="3.58536">
        <ele>1002.4</ele>
        <time>2022-10-28T09:07:52Z</time>
      </trkpt>
      <trkpt lat="44.3698" lon="3.58535">
        <ele>1002.6</ele>
        <time>2022-10-28T09:07:53Z</time>
      </trkpt>
      <trkpt lat="44.36982" lon="3.58535">
        <ele>1003</ele>
        <time>2022-10-28T09:07:54Z</time>
      </trkpt>
      <trkpt lat="44.36984" lon="3.58535">
        <ele>1003.2</ele>
        <time>2022-10-28T09:07:55Z</time>
      </trkpt>
      <trkpt lat="44.36985" lon="3.58534">
        <ele>1003.4</ele>
        <time>2022-10-28T09:07:56Z</time>
      </trkpt>
      <trkpt lat="44.36987" lon="3.58534">
        <ele>1003.6</ele>
        <time>2022-10-28T09:07:57Z</time>
      </trkpt>
      <trkpt lat="44.36988" lon="3.58534">
        <ele>1003.8</ele>
        <time>2022-10-28T09:07:58Z</time>
      </trkpt>
      <trkpt lat="44.3699" lon="3.58534">
        <ele>1004</ele>
        <time>2022-10-28T09:07:59Z</time>
      </trkpt>
      <trkpt lat="44.36991" lon="3.58533">
        <ele>1004.2</ele>
        <time>2022-10-28T09:08:00Z</time>
      </trkpt>
      <trkpt lat="44.36993" lon="3.58533">
        <ele>1004.4</ele>
        <time>2022-10-28T09:08:01Z</time>
      </trkpt>
      <trkpt lat="44.36995" lon="3.58533">
        <ele>1004.6</ele>
        <time>2022-10-28T09:08:02Z</time>
      </trkpt>
      <trkpt lat="44.36997" lon="3.58533">
        <ele>1004.6</ele>
        <time>2022-10-28T09:08:03Z</time>
      </trkpt>
      <trkpt lat="44.36999" lon="3.58532">
        <ele>1004.8</ele>
        <time>2022-10-28T09:08:04Z</time>
      </trkpt>
      <trkpt lat="44.37001" lon="3.58532">
        <ele>1005</ele>
        <time>2022-10-28T09:08:05Z</time>
      </trkpt>
      <trkpt lat="44.37003" lon="3.58532">
        <ele>1005.2</ele>
        <time>2022-10-28T09:08:06Z</time>
      </trkpt>
      <trkpt lat="44.37005" lon="3.58532">
        <ele>1005.2</ele>
        <time>2022-10-28T09:08:07Z</time>
      </trkpt>
      <trkpt lat="44.37007" lon="3.58532">
        <ele>1005.4</ele>
        <time>2022-10-28T09:08:08Z</time>
      </trkpt>
      <trkpt lat="44.37009" lon="3.58531">
        <ele>1005.6</ele>
        <time>2022-10-28T09:08:09Z</time>
      </trkpt>
      <trkpt lat="44.37011" lon="3.58531">
        <ele>1005.8</ele>
        <time>2022-10-28T09:08:10Z</time>
      </trkpt>
      <trkpt lat="44.37013" lon="3.58531">
        <ele>1005.8</ele>
        <time>2022-10-28T09:08:11Z</time>
      </trkpt>
      <trkpt lat="44.37015" lon="3.5853">
        <ele>1006</ele>
        <time>2022-10-28T09:08:12Z</time>
      </trkpt>
      <trkpt lat="44.37016" lon="3.5853">
        <ele>1006.2</ele>
        <time>2022-10-28T09:08:13Z</time>
      </trkpt>
      <trkpt lat="44.37019" lon="3.5853">
        <ele>1006.4</ele>
        <time>2022-10-28T09:08:14Z</time>
      </trkpt>
      <trkpt lat="44.3702" lon="3.58529">
        <ele>1006.4</ele>
        <time>2022-10-28T09:08:15Z</time>
      </trkpt>
      <trkpt lat="44.37022" lon="3.58528">
        <ele>1006.4</ele>
        <time>2022-10-28T09:08:16Z</time>
      </trkpt>
      <trkpt lat="44.37024" lon="3.58528">
        <ele>1006.6</ele>
        <time>2022-10-28T09:08:17Z</time>
      </trkpt>
      <trkpt lat="44.37026" lon="3.58527">
        <ele>1006.8</ele>
        <time>2022-10-28T09:08:18Z</time>
      </trkpt>
      <trkpt lat="44.37028" lon="3.58527">
        <ele>1006.8</ele>
        <time>2022-10-28T09:08:19Z</time>
      </trkpt>
      <trkpt lat="44.37031" lon="3.58526">
        <ele>1007</ele>
        <time>2022-10-28T09:08:20Z</time>
      </trkpt>
      <trkpt lat="44.37032" lon="3.58525">
        <ele>1007.2</ele>
        <time>2022-10-28T09:08:21Z</time>
      </trkpt>
      <trkpt lat="44.37035" lon="3.58524">
        <ele>1007.4</ele>
        <time>2022-10-28T09:08:22Z</time>
      </trkpt>
      <trkpt lat="44.37037" lon="3.58524">
        <ele>1007.4</ele>
        <time>2022-10-28T09:08:23Z</time>
      </trkpt>
      <trkpt lat="44.37038" lon="3.58523">
        <ele>1007.6</ele>
        <time>2022-10-28T09:08:24Z</time>
      </trkpt>
      <trkpt lat="44.37041" lon="3.58522">
        <ele>1007.8</ele>
        <time>2022-10-28T09:08:25Z</time>
      </trkpt>
      <trkpt lat="44.37043" lon="3.58521">
        <ele>1007.8</ele>
        <time>2022-10-28T09:08:26Z</time>
      </trkpt>
      <trkpt lat="44.37044" lon="3.5852">
        <ele>1008</ele>
        <time>2022-10-28T09:08:27Z</time>
      </trkpt>
      <trkpt lat="44.37046" lon="3.58519">
        <ele>1008.2</ele>
        <time>2022-10-28T09:08:28Z</time>
      </trkpt>
      <trkpt lat="44.37048" lon="3.58518">
        <ele>1008.4</ele>
        <time>2022-10-28T09:08:29Z</time>
      </trkpt>
      <trkpt lat="44.3705" lon="3.58518">
        <ele>1008.6</ele>
        <time>2022-10-28T09:08:30Z</time>
      </trkpt>
      <trkpt lat="44.37052" lon="3.58517">
        <ele>1008.8</ele>
        <time>2022-10-28T09:08:31Z</time>
      </trkpt>
      <trkpt lat="44.37054" lon="3.58516">
        <ele>1009</ele>
        <time>2022-10-28T09:08:32Z</time>
      </trkpt>
      <trkpt lat="44.37056" lon="3.58515">
        <ele>1009</ele>
        <time>2022-10-28T09:08:33Z</time>
      </trkpt>
      <trkpt lat="44.37058" lon="3.58514">
        <ele>1009.2</ele>
        <time>2022-10-28T09:08:34Z</time>
      </trkpt>
      <trkpt lat="44.3706" lon="3.58513">
        <ele>1009.4</ele>
        <time>2022-10-28T09:08:35Z</time>
      </trkpt>
      <trkpt lat="44.37062" lon="3.58513">
        <ele>1009.4</ele>
        <time>2022-10-28T09:08:36Z</time>
      </trkpt>
      <trkpt lat="44.37065" lon="3.58512">
        <ele>1009.6</ele>
        <time>2022-10-28T09:08:37Z</time>
      </trkpt>
      <trkpt lat="44.37067" lon="3.5851">
        <ele>1009.6</ele>
        <time>2022-10-28T09:08:38Z</time>
      </trkpt>
      <trkpt lat="44.37069" lon="3.58509">
        <ele>1009.8</ele>
        <time>2022-10-28T09:08:39Z</time>
      </trkpt>
      <trkpt lat="44.37071" lon="3.58509">
        <ele>1010</ele>
        <time>2022-10-28T09:08:40Z</time>
      </trkpt>
      <trkpt lat="44.37073" lon="3.58508">
        <ele>1010</ele>
        <time>2022-10-28T09:08:41Z</time>
      </trkpt>
      <trkpt lat="44.37075" lon="3.58506">
        <ele>1010</ele>
        <time>2022-10-28T09:08:42Z</time>
      </trkpt>
      <trkpt lat="44.37077" lon="3.58505">
        <ele>1010.2</ele>
        <time>2022-10-28T09:08:43Z</time>
      </trkpt>
      <trkpt lat="44.37079" lon="3.58503">
        <ele>1010.4</ele>
        <time>2022-10-28T09:08:44Z</time>
      </trkpt>
      <trkpt lat="44.37081" lon="3.58502">
        <ele>1010.4</ele>
        <time>2022-10-28T09:08:45Z</time>
      </trkpt>
      <trkpt lat="44.37084" lon="3.58501">
        <ele>1010.6</ele>
        <time>2022-10-28T09:08:46Z</time>
      </trkpt>
      <trkpt lat="44.37086" lon="3.585">
        <ele>1010.8</ele>
        <time>2022-10-28T09:08:47Z</time>
      </trkpt>
      <trkpt lat="44.37089" lon="3.58499">
        <ele>1010.8</ele>
        <time>2022-10-28T09:08:48Z</time>
      </trkpt>
      <trkpt lat="44.37091" lon="3.58499">
        <ele>1011</ele>
        <time>2022-10-28T09:08:49Z</time>
      </trkpt>
      <trkpt lat="44.37093" lon="3.58498">
        <ele>1011.2</ele>
        <time>2022-10-28T09:08:50Z</time>
      </trkpt>
      <trkpt lat="44.37096" lon="3.58497">
        <ele>1011.2</ele>
        <time>2022-10-28T09:08:51Z</time>
      </trkpt>
      <trkpt lat="44.37098" lon="3.58496">
        <ele>1011.4</ele>
        <time>2022-10-28T09:08:52Z</time>
      </trkpt>
      <trkpt lat="44.371" lon="3.58495">
        <ele>1011.6</ele>
        <time>2022-10-28T09:08:53Z</time>
      </trkpt>
      <trkpt lat="44.37102" lon="3.58494">
        <ele>1011.8</ele>
        <time>2022-10-28T09:08:54Z</time>
      </trkpt>
      <trkpt lat="44.37104" lon="3.58493">
        <ele>1011.8</ele>
        <time>2022-10-28T09:08:55Z</time>
      </trkpt>
      <trkpt lat="44.37106" lon="3.58492">
        <ele>1012</ele>
        <time>2022-10-28T09:08:56Z</time>
      </trkpt>
      <trkpt lat="44.37109" lon="3.58492">
        <ele>1012.2</ele>
        <time>2022-10-28T09:08:57Z</time>
      </trkpt>
      <trkpt lat="44.37111" lon="3.58491">
        <ele>1012.4</ele>
        <time>2022-10-28T09:08:58Z</time>
      </trkpt>
      <trkpt lat="44.37113" lon="3.58491">
        <ele>1012.6</ele>
        <time>2022-10-28T09:08:59Z</time>
      </trkpt>
      <trkpt lat="44.37115" lon="3.5849">
        <ele>1012.8</ele>
        <time>2022-10-28T09:09:00Z</time>
      </trkpt>
      <trkpt lat="44.37118" lon="3.5849">
        <ele>1012.8</ele>
        <time>2022-10-28T09:09:01Z</time>
      </trkpt>
      <trkpt lat="44.3712" lon="3.58489">
        <ele>1013</ele>
        <time>2022-10-28T09:09:02Z</time>
      </trkpt>
      <trkpt lat="44.37122" lon="3.58489">
        <ele>1013.2</ele>
        <time>2022-10-28T09:09:03Z</time>
      </trkpt>
      <trkpt lat="44.37124" lon="3.58489">
        <ele>1013.4</ele>
        <time>2022-10-28T09:09:04Z</time>
      </trkpt>
      <trkpt lat="44.37126" lon="3.58488">
        <ele>1013.6</ele>
        <time>2022-10-28T09:09:05Z</time>
      </trkpt>
      <trkpt lat="44.37128" lon="3.58488">
        <ele>1013.8</ele>
        <time>2022-10-28T09:09:06Z</time>
      </trkpt>
      <trkpt lat="44.3713" lon="3.58488">
        <ele>1014</ele>
        <time>2022-10-28T09:09:07Z</time>
      </trkpt>
      <trkpt lat="44.37132" lon="3.58487">
        <ele>1014.2</ele>
        <time>2022-10-28T09:09:08Z</time>
      </trkpt>
      <trkpt lat="44.37134" lon="3.58487">
        <ele>1014.4</ele>
        <time>2022-10-28T09:09:09Z</time>
      </trkpt>
      <trkpt lat="44.37136" lon="3.58487">
        <ele>1014.4</ele>
        <time>2022-10-28T09:09:10Z</time>
      </trkpt>
      <trkpt lat="44.37138" lon="3.58487">
        <ele>1014.4</ele>
        <time>2022-10-28T09:09:11Z</time>
      </trkpt>
      <trkpt lat="44.3714" lon="3.58487">
        <ele>1014.6</ele>
        <time>2022-10-28T09:09:12Z</time>
      </trkpt>
      <trkpt lat="44.37143" lon="3.58487">
        <ele>1014.8</ele>
        <time>2022-10-28T09:09:13Z</time>
      </trkpt>
      <trkpt lat="44.37145" lon="3.58488">
        <ele>1014.8</ele>
        <time>2022-10-28T09:09:14Z</time>
      </trkpt>
      <trkpt lat="44.37148" lon="3.58488">
        <ele>1015</ele>
        <time>2022-10-28T09:09:15Z</time>
      </trkpt>
      <trkpt lat="44.3715" lon="3.58488">
        <ele>1015</ele>
        <time>2022-10-28T09:09:16Z</time>
      </trkpt>
      <trkpt lat="44.37152" lon="3.58488">
        <ele>1015.2</ele>
        <time>2022-10-28T09:09:17Z</time>
      </trkpt>
      <trkpt lat="44.37154" lon="3.58488">
        <ele>1015.2</ele>
        <time>2022-10-28T09:09:18Z</time>
      </trkpt>
      <trkpt lat="44.37157" lon="3.58488">
        <ele>1015.2</ele>
        <time>2022-10-28T09:09:19Z</time>
      </trkpt>
      <trkpt lat="44.37159" lon="3.58488">
        <ele>1015.4</ele>
        <time>2022-10-28T09:09:20Z</time>
      </trkpt>
      <trkpt lat="44.37161" lon="3.58488">
        <ele>1015.6</ele>
        <time>2022-10-28T09:09:21Z</time>
      </trkpt>
      <trkpt lat="44.37164" lon="3.58489">
        <ele>1015.6</ele>
        <time>2022-10-28T09:09:22Z</time>
      </trkpt>
      <trkpt lat="44.37166" lon="3.58489">
        <ele>1015.8</ele>
        <time>2022-10-28T09:09:23Z</time>
      </trkpt>
      <trkpt lat="44.37169" lon="3.58489">
        <ele>1015.8</ele>
        <time>2022-10-28T09:09:24Z</time>
      </trkpt>
      <trkpt lat="44.37171" lon="3.5849">
        <ele>1016</ele>
        <time>2022-10-28T09:09:25Z</time>
      </trkpt>
      <trkpt lat="44.37173" lon="3.5849">
        <ele>1016.2</ele>
        <time>2022-10-28T09:09:26Z</time>
      </trkpt>
      <trkpt lat="44.37176" lon="3.5849">
        <ele>1016.2</ele>
        <time>2022-10-28T09:09:27Z</time>
      </trkpt>
      <trkpt lat="44.37179" lon="3.58491">
        <ele>1016.2</ele>
        <time>2022-10-28T09:09:28Z</time>
      </trkpt>
      <trkpt lat="44.37182" lon="3.58491">
        <ele>1016.4</ele>
        <time>2022-10-28T09:09:29Z</time>
      </trkpt>
      <trkpt lat="44.37184" lon="3.58491">
        <ele>1016.4</ele>
        <time>2022-10-28T09:09:30Z</time>
      </trkpt>
      <trkpt lat="44.37187" lon="3.58491">
        <ele>1016.4</ele>
        <time>2022-10-28T09:09:31Z</time>
      </trkpt>
      <trkpt lat="44.37189" lon="3.58491">
        <ele>1016.2</ele>
        <time>2022-10-28T09:09:32Z</time>
      </trkpt>
      <trkpt lat="44.3719" lon="3.58491">
        <ele>1016.2</ele>
        <time>2022-10-28T09:09:33Z</time>
      </trkpt>
      <trkpt lat="44.37191" lon="3.58489">
        <ele>1016.2</ele>
        <time>2022-10-28T09:09:34Z</time>
      </trkpt>
      <trkpt lat="44.37192" lon="3.58488">
        <ele>1016.4</ele>
        <time>2022-10-28T09:09:35Z</time>
      </trkpt>
      <trkpt lat="44.37193" lon="3.58486">
        <ele>1016.6</ele>
        <time>2022-10-28T09:09:36Z</time>
      </trkpt>
      <trkpt lat="44.37194" lon="3.58485">
        <ele>1016.8</ele>
        <time>2022-10-28T09:09:37Z</time>
      </trkpt>
      <trkpt lat="44.37195" lon="3.58483">
        <ele>1017</ele>
        <time>2022-10-28T09:09:38Z</time>
      </trkpt>
      <trkpt lat="44.37197" lon="3.58481">
        <ele>1017</ele>
        <time>2022-10-28T09:09:39Z</time>
      </trkpt>
      <trkpt lat="44.37198" lon="3.58479">
        <ele>1017.2</ele>
        <time>2022-10-28T09:09:40Z</time>
      </trkpt>
      <trkpt lat="44.37199" lon="3.58479">
        <ele>1017.2</ele>
        <time>2022-10-28T09:09:41Z</time>
      </trkpt>
      <trkpt lat="44.37201" lon="3.58478">
        <ele>1017.2</ele>
        <time>2022-10-28T09:09:42Z</time>
      </trkpt>
      <trkpt lat="44.37202" lon="3.58479">
        <ele>1017.4</ele>
        <time>2022-10-28T09:09:43Z</time>
      </trkpt>
      <trkpt lat="44.37203" lon="3.58479">
        <ele>1017.4</ele>
        <time>2022-10-28T09:09:44Z</time>
      </trkpt>
      <trkpt lat="44.37204" lon="3.5848">
        <ele>1017.4</ele>
        <time>2022-10-28T09:09:45Z</time>
      </trkpt>
      <trkpt lat="44.37205" lon="3.5848">
        <ele>1017.2</ele>
        <time>2022-10-28T09:09:47Z</time>
      </trkpt>
      <trkpt lat="44.37206" lon="3.58481">
        <ele>1017.2</ele>
        <time>2022-10-28T09:09:48Z</time>
      </trkpt>
      <trkpt lat="44.37206" lon="3.58481">
        <ele>1017.2</ele>
        <time>2022-10-28T09:09:49Z</time>
      </trkpt>
      <trkpt lat="44.37207" lon="3.58481">
        <ele>1017.2</ele>
        <time>2022-10-28T09:09:50Z</time>
      </trkpt>
      <trkpt lat="44.37208" lon="3.58482">
        <ele>1017.2</ele>
        <time>2022-10-28T09:09:51Z</time>
      </trkpt>
      <trkpt lat="44.37208" lon="3.58481">
        <ele>1017.2</ele>
        <time>2022-10-28T09:09:52Z</time>
      </trkpt>
      <trkpt lat="44.37208" lon="3.58481">
        <ele>1017.2</ele>
        <time>2022-10-28T09:09:53Z</time>
      </trkpt>
      <trkpt lat="44.37208" lon="3.58481">
        <ele>1017.2</ele>
        <time>2022-10-28T09:09:54Z</time>
      </trkpt>
      <trkpt lat="44.37208" lon="3.58481">
        <ele>1017.2</ele>
        <time>2022-10-28T09:09:55Z</time>
      </trkpt>
      <trkpt lat="44.37208" lon="3.58481">
        <ele>1017.2</ele>
        <time>2022-10-28T09:09:56Z</time>
      </trkpt>
      <trkpt lat="44.37208" lon="3.58482">
        <ele>1017.4</ele>
        <time>2022-10-28T09:10:48Z</time>
      </trkpt>
      <trkpt lat="44.37209" lon="3.58484">
        <ele>1017.4</ele>
        <time>2022-10-28T09:10:49Z</time>
      </trkpt>
      <trkpt lat="44.37211" lon="3.58486">
        <ele>1017.4</ele>
        <time>2022-10-28T09:10:50Z</time>
      </trkpt>
      <trkpt lat="44.37215" lon="3.58489">
        <ele>1017.4</ele>
        <time>2022-10-28T09:10:51Z</time>
      </trkpt>
      <trkpt lat="44.3722" lon="3.58492">
        <ele>1017.4</ele>
        <time>2022-10-28T09:10:52Z</time>
      </trkpt>
      <trkpt lat="44.37224" lon="3.58493">
        <ele>1017.4</ele>
        <time>2022-10-28T09:10:53Z</time>
      </trkpt>
      <trkpt lat="44.37229" lon="3.58493">
        <ele>1017.4</ele>
        <time>2022-10-28T09:10:54Z</time>
      </trkpt>
      <trkpt lat="44.37233" lon="3.58494">
        <ele>1017.4</ele>
        <time>2022-10-28T09:10:55Z</time>
      </trkpt>
      <trkpt lat="44.37237" lon="3.58495">
        <ele>1017.6</ele>
        <time>2022-10-28T09:10:56Z</time>
      </trkpt>
      <trkpt lat="44.37241" lon="3.58496">
        <ele>1017.6</ele>
        <time>2022-10-28T09:10:57Z</time>
      </trkpt>
      <trkpt lat="44.37245" lon="3.58497">
        <ele>1017.4</ele>
        <time>2022-10-28T09:10:58Z</time>
      </trkpt>
      <trkpt lat="44.37246" lon="3.58498">
        <ele>1017.6</ele>
        <time>2022-10-28T09:10:59Z</time>
      </trkpt>
      <trkpt lat="44.37247" lon="3.58499">
        <ele>1017.6</ele>
        <time>2022-10-28T09:11:00Z</time>
      </trkpt>
      <trkpt lat="44.37246" lon="3.58499">
        <ele>1017.6</ele>
        <time>2022-10-28T09:11:01Z</time>
      </trkpt>
      <trkpt lat="44.37244" lon="3.58499">
        <ele>1017.6</ele>
        <time>2022-10-28T09:11:02Z</time>
      </trkpt>
      <trkpt lat="44.37243" lon="3.58498">
        <ele>1017.6</ele>
        <time>2022-10-28T09:11:03Z</time>
      </trkpt>
      <trkpt lat="44.37241" lon="3.58497">
        <ele>1017.8</ele>
        <time>2022-10-28T09:11:04Z</time>
      </trkpt>
      <trkpt lat="44.37238" lon="3.58497">
        <ele>1017.8</ele>
        <time>2022-10-28T09:11:05Z</time>
      </trkpt>
      <trkpt lat="44.37235" lon="3.58496">
        <ele>1018</ele>
        <time>2022-10-28T09:11:06Z</time>
      </trkpt>
      <trkpt lat="44.37232" lon="3.58496">
        <ele>1018</ele>
        <time>2022-10-28T09:11:07Z</time>
      </trkpt>
      <trkpt lat="44.37229" lon="3.58495">
        <ele>1018</ele>
        <time>2022-10-28T09:11:08Z</time>
      </trkpt>
      <trkpt lat="44.37226" lon="3.58495">
        <ele>1018</ele>
        <time>2022-10-28T09:11:09Z</time>
      </trkpt>
      <trkpt lat="44.37223" lon="3.58494">
        <ele>1018</ele>
        <time>2022-10-28T09:11:10Z</time>
      </trkpt>
      <trkpt lat="44.3722" lon="3.58493">
        <ele>1018</ele>
        <time>2022-10-28T09:11:11Z</time>
      </trkpt>
      <trkpt lat="44.37217" lon="3.58492">
        <ele>1017.8</ele>
        <time>2022-10-28T09:11:12Z</time>
      </trkpt>
      <trkpt lat="44.37215" lon="3.58491">
        <ele>1017.8</ele>
        <time>2022-10-28T09:11:13Z</time>
      </trkpt>
      <trkpt lat="44.37212" lon="3.5849">
        <ele>1017.8</ele>
        <time>2022-10-28T09:11:14Z</time>
      </trkpt>
      <trkpt lat="44.3721" lon="3.58488">
        <ele>1017.8</ele>
        <time>2022-10-28T09:11:15Z</time>
      </trkpt>
      <trkpt lat="44.37209" lon="3.58487">
        <ele>1017.6</ele>
        <time>2022-10-28T09:11:16Z</time>
      </trkpt>
      <trkpt lat="44.37209" lon="3.58486">
        <ele>1017.6</ele>
        <time>2022-10-28T09:11:17Z</time>
      </trkpt>
      <trkpt lat="44.37208" lon="3.58485">
        <ele>1017.4</ele>
        <time>2022-10-28T09:11:18Z</time>
      </trkpt>
      <trkpt lat="44.37208" lon="3.58485">
        <ele>1017.2</ele>
        <time>2022-10-28T09:11:19Z</time>
      </trkpt>
      <trkpt lat="44.37208" lon="3.58485">
        <ele>1017.2</ele>
        <time>2022-10-28T09:11:20Z</time>
      </trkpt>
      <trkpt lat="44.37208" lon="3.58485">
        <ele>1017</ele>
        <time>2022-10-28T09:11:21Z</time>
      </trkpt>
      <trkpt lat="44.37208" lon="3.58485">
        <ele>1017</ele>
        <time>2022-10-28T09:11:22Z</time>
      </trkpt>
      <trkpt lat="44.3721" lon="3.58487">
        <ele>1016.8</ele>
        <time>2022-10-28T09:11:50Z</time>
      </trkpt>
      <trkpt lat="44.37211" lon="3.58488">
        <ele>1017</ele>
        <time>2022-10-28T09:11:51Z</time>
      </trkpt>
      <trkpt lat="44.37213" lon="3.58489">
        <ele>1017</ele>
        <time>2022-10-28T09:11:52Z</time>
      </trkpt>
      <trkpt lat="44.37216" lon="3.58491">
        <ele>1017</ele>
        <time>2022-10-28T09:11:53Z</time>
      </trkpt>
      <trkpt lat="44.37219" lon="3.58492">
        <ele>1017</ele>
        <time>2022-10-28T09:11:54Z</time>
      </trkpt>
      <trkpt lat="44.37222" lon="3.58492">
        <ele>1017</ele>
        <time>2022-10-28T09:11:55Z</time>
      </trkpt>
      <trkpt lat="44.37224" lon="3.58493">
        <ele>1017</ele>
        <time>2022-10-28T09:11:56Z</time>
      </trkpt>
      <trkpt lat="44.37227" lon="3.58493">
        <ele>1017</ele>
        <time>2022-10-28T09:11:57Z</time>
      </trkpt>
      <trkpt lat="44.3723" lon="3.58493">
        <ele>1017</ele>
        <time>2022-10-28T09:11:58Z</time>
      </trkpt>
      <trkpt lat="44.37234" lon="3.58494">
        <ele>1017</ele>
        <time>2022-10-28T09:11:59Z</time>
      </trkpt>
      <trkpt lat="44.37237" lon="3.58495">
        <ele>1017.2</ele>
        <time>2022-10-28T09:12:00Z</time>
      </trkpt>
      <trkpt lat="44.3724" lon="3.58497">
        <ele>1017.2</ele>
        <time>2022-10-28T09:12:01Z</time>
      </trkpt>
      <trkpt lat="44.37244" lon="3.58498">
        <ele>1017.2</ele>
        <time>2022-10-28T09:12:02Z</time>
      </trkpt>
      <trkpt lat="44.37248" lon="3.58499">
        <ele>1017.4</ele>
        <time>2022-10-28T09:12:03Z</time>
      </trkpt>
      <trkpt lat="44.37251" lon="3.58501">
        <ele>1017.4</ele>
        <time>2022-10-28T09:12:04Z</time>
      </trkpt>
      <trkpt lat="44.37254" lon="3.58502">
        <ele>1017.6</ele>
        <time>2022-10-28T09:12:05Z</time>
      </trkpt>
      <trkpt lat="44.37258" lon="3.58503">
        <ele>1017.8</ele>
        <time>2022-10-28T09:12:06Z</time>
      </trkpt>
      <trkpt lat="44.37261" lon="3.58504">
        <ele>1017.8</ele>
        <time>2022-10-28T09:12:07Z</time>
      </trkpt>
      <trkpt lat="44.37264" lon="3.58505">
        <ele>1017.8</ele>
        <time>2022-10-28T09:12:08Z</time>
      </trkpt>
      <trkpt lat="44.37267" lon="3.58506">
        <ele>1018</ele>
        <time>2022-10-28T09:12:09Z</time>
      </trkpt>
      <trkpt lat="44.37271" lon="3.58507">
        <ele>1018</ele>
        <time>2022-10-28T09:12:10Z</time>
      </trkpt>
      <trkpt lat="44.37274" lon="3.58507">
        <ele>1017.8</ele>
        <time>2022-10-28T09:12:11Z</time>
      </trkpt>
      <trkpt lat="44.37277" lon="3.58508">
        <ele>1017.8</ele>
        <time>2022-10-28T09:12:12Z</time>
      </trkpt>
      <trkpt lat="44.37281" lon="3.58508">
        <ele>1017.8</ele>
        <time>2022-10-28T09:12:13Z</time>
      </trkpt>
      <trkpt lat="44.37284" lon="3.58508">
        <ele>1017.6</ele>
        <time>2022-10-28T09:12:14Z</time>
      </trkpt>
      <trkpt lat="44.37287" lon="3.58507">
        <ele>1017.6</ele>
        <time>2022-10-28T09:12:15Z</time>
      </trkpt>
      <trkpt lat="44.3729" lon="3.58506">
        <ele>1017.6</ele>
        <time>2022-10-28T09:12:16Z</time>
      </trkpt>
      <trkpt lat="44.37293" lon="3.58504">
        <ele>1017.6</ele>
        <time>2022-10-28T09:12:17Z</time>
      </trkpt>
      <trkpt lat="44.37297" lon="3.58502">
        <ele>1017.6</ele>
        <time>2022-10-28T09:12:18Z</time>
      </trkpt>
      <trkpt lat="44.373" lon="3.58499">
        <ele>1017.6</ele>
        <time>2022-10-28T09:12:19Z</time>
      </trkpt>
      <trkpt lat="44.37303" lon="3.58497">
        <ele>1017.8</ele>
        <time>2022-10-28T09:12:20Z</time>
      </trkpt>
      <trkpt lat="44.37307" lon="3.58495">
        <ele>1017.8</ele>
        <time>2022-10-28T09:12:21Z</time>
      </trkpt>
      <trkpt lat="44.3731" lon="3.58493">
        <ele>1017.8</ele>
        <time>2022-10-28T09:12:22Z</time>
      </trkpt>
      <trkpt lat="44.37313" lon="3.58492">
        <ele>1017.8</ele>
        <time>2022-10-28T09:12:23Z</time>
      </trkpt>
      <trkpt lat="44.37317" lon="3.5849">
        <ele>1017.8</ele>
        <time>2022-10-28T09:12:24Z</time>
      </trkpt>
      <trkpt lat="44.3732" lon="3.58488">
        <ele>1017.8</ele>
        <time>2022-10-28T09:12:25Z</time>
      </trkpt>
      <trkpt lat="44.37324" lon="3.58486">
        <ele>1017.8</ele>
        <time>2022-10-28T09:12:26Z</time>
      </trkpt>
      <trkpt lat="44.37327" lon="3.58484">
        <ele>1017.8</ele>
        <time>2022-10-28T09:12:27Z</time>
      </trkpt>
      <trkpt lat="44.3733" lon="3.58481">
        <ele>1017.8</ele>
        <time>2022-10-28T09:12:28Z</time>
      </trkpt>
      <trkpt lat="44.37334" lon="3.58479">
        <ele>1017.8</ele>
        <time>2022-10-28T09:12:29Z</time>
      </trkpt>
      <trkpt lat="44.37338" lon="3.58477">
        <ele>1017.6</ele>
        <time>2022-10-28T09:12:30Z</time>
      </trkpt>
      <trkpt lat="44.37342" lon="3.58475">
        <ele>1017.6</ele>
        <time>2022-10-28T09:12:31Z</time>
      </trkpt>
      <trkpt lat="44.37347" lon="3.58474">
        <ele>1017.4</ele>
        <time>2022-10-28T09:12:32Z</time>
      </trkpt>
      <trkpt lat="44.37352" lon="3.58472">
        <ele>1017.4</ele>
        <time>2022-10-28T09:12:33Z</time>
      </trkpt>
      <trkpt lat="44.37357" lon="3.58471">
        <ele>1017.2</ele>
        <time>2022-10-28T09:12:34Z</time>
      </trkpt>
      <trkpt lat="44.37362" lon="3.5847">
        <ele>1017.2</ele>
        <time>2022-10-28T09:12:35Z</time>
      </trkpt>
      <trkpt lat="44.37368" lon="3.58469">
        <ele>1017</ele>
        <time>2022-10-28T09:12:36Z</time>
      </trkpt>
      <trkpt lat="44.37374" lon="3.58468">
        <ele>1016.8</ele>
        <time>2022-10-28T09:12:37Z</time>
      </trkpt>
      <trkpt lat="44.3738" lon="3.58468">
        <ele>1016.8</ele>
        <time>2022-10-28T09:12:38Z</time>
      </trkpt>
      <trkpt lat="44.37386" lon="3.58468">
        <ele>1016.6</ele>
        <time>2022-10-28T09:12:39Z</time>
      </trkpt>
      <trkpt lat="44.37393" lon="3.58467">
        <ele>1016.4</ele>
        <time>2022-10-28T09:12:40Z</time>
      </trkpt>
      <trkpt lat="44.37399" lon="3.58466">
        <ele>1016.4</ele>
        <time>2022-10-28T09:12:41Z</time>
      </trkpt>
      <trkpt lat="44.37405" lon="3.58465">
        <ele>1016.2</ele>
        <time>2022-10-28T09:12:42Z</time>
      </trkpt>
      <trkpt lat="44.37411" lon="3.58463">
        <ele>1016.2</ele>
        <time>2022-10-28T09:12:43Z</time>
      </trkpt>
      <trkpt lat="44.37417" lon="3.58462">
        <ele>1016</ele>
        <time>2022-10-28T09:12:44Z</time>
      </trkpt>
      <trkpt lat="44.37423" lon="3.58459">
        <ele>1015.8</ele>
        <time>2022-10-28T09:12:45Z</time>
      </trkpt>
      <trkpt lat="44.37428" lon="3.58457">
        <ele>1015.2</ele>
        <time>2022-10-28T09:12:46Z</time>
      </trkpt>
      <trkpt lat="44.37434" lon="3.58453">
        <ele>1014.6</ele>
        <time>2022-10-28T09:12:47Z</time>
      </trkpt>
      <trkpt lat="44.37439" lon="3.58449">
        <ele>1014.2</ele>
        <time>2022-10-28T09:12:48Z</time>
      </trkpt>
      <trkpt lat="44.37445" lon="3.58444">
        <ele>1013.4</ele>
        <time>2022-10-28T09:12:49Z</time>
      </trkpt>
      <trkpt lat="44.37452" lon="3.5844">
        <ele>1012.6</ele>
        <time>2022-10-28T09:12:50Z</time>
      </trkpt>
      <trkpt lat="44.37459" lon="3.58435">
        <ele>1011.6</ele>
        <time>2022-10-28T09:12:51Z</time>
      </trkpt>
      <trkpt lat="44.37467" lon="3.5843">
        <ele>1010.6</ele>
        <time>2022-10-28T09:12:52Z</time>
      </trkpt>
      <trkpt lat="44.37476" lon="3.58427">
        <ele>1009.6</ele>
        <time>2022-10-28T09:12:53Z</time>
      </trkpt>
      <trkpt lat="44.37484" lon="3.58424">
        <ele>1008.8</ele>
        <time>2022-10-28T09:12:54Z</time>
      </trkpt>
      <trkpt lat="44.37492" lon="3.58422">
        <ele>1008.2</ele>
        <time>2022-10-28T09:12:55Z</time>
      </trkpt>
      <trkpt lat="44.375" lon="3.58419">
        <ele>1007.6</ele>
        <time>2022-10-28T09:12:56Z</time>
      </trkpt>
      <trkpt lat="44.37506" lon="3.58417">
        <ele>1007</ele>
        <time>2022-10-28T09:12:57Z</time>
      </trkpt>
      <trkpt lat="44.37514" lon="3.58415">
        <ele>1006.4</ele>
        <time>2022-10-28T09:12:58Z</time>
      </trkpt>
      <trkpt lat="44.37521" lon="3.58413">
        <ele>1005.8</ele>
        <time>2022-10-28T09:12:59Z</time>
      </trkpt>
      <trkpt lat="44.37528" lon="3.58411">
        <ele>1005.4</ele>
        <time>2022-10-28T09:13:00Z</time>
      </trkpt>
      <trkpt lat="44.37534" lon="3.58409">
        <ele>1005</ele>
        <time>2022-10-28T09:13:01Z</time>
      </trkpt>
      <trkpt lat="44.3754" lon="3.58408">
        <ele>1004.4</ele>
        <time>2022-10-28T09:13:02Z</time>
      </trkpt>
      <trkpt lat="44.37546" lon="3.58407">
        <ele>1004</ele>
        <time>2022-10-28T09:13:03Z</time>
      </trkpt>
      <trkpt lat="44.37552" lon="3.58408">
        <ele>1003.4</ele>
        <time>2022-10-28T09:13:04Z</time>
      </trkpt>
      <trkpt lat="44.37558" lon="3.58408">
        <ele>1003</ele>
        <time>2022-10-28T09:13:05Z</time>
      </trkpt>
      <trkpt lat="44.37563" lon="3.58409">
        <ele>1002.6</ele>
        <time>2022-10-28T09:13:06Z</time>
      </trkpt>
      <trkpt lat="44.37568" lon="3.58411">
        <ele>1002</ele>
        <time>2022-10-28T09:13:07Z</time>
      </trkpt>
      <trkpt lat="44.37573" lon="3.58414">
        <ele>1001.6</ele>
        <time>2022-10-28T09:13:08Z</time>
      </trkpt>
      <trkpt lat="44.37577" lon="3.58417">
        <ele>1001</ele>
        <time>2022-10-28T09:13:09Z</time>
      </trkpt>
      <trkpt lat="44.37582" lon="3.58421">
        <ele>1000.4</ele>
        <time>2022-10-28T09:13:10Z</time>
      </trkpt>
      <trkpt lat="44.37588" lon="3.58424">
        <ele>999.6</ele>
        <time>2022-10-28T09:13:11Z</time>
      </trkpt>
      <trkpt lat="44.37593" lon="3.58428">
        <ele>999</ele>
        <time>2022-10-28T09:13:12Z</time>
      </trkpt>
      <trkpt lat="44.37599" lon="3.58432">
        <ele>998.4</ele>
        <time>2022-10-28T09:13:13Z</time>
      </trkpt>
      <trkpt lat="44.37605" lon="3.58435">
        <ele>997.8</ele>
        <time>2022-10-28T09:13:14Z</time>
      </trkpt>
      <trkpt lat="44.37611" lon="3.58438">
        <ele>997.2</ele>
        <time>2022-10-28T09:13:15Z</time>
      </trkpt>
      <trkpt lat="44.37617" lon="3.58442">
        <ele>996.8</ele>
        <time>2022-10-28T09:13:16Z</time>
      </trkpt>
      <trkpt lat="44.37624" lon="3.58445">
        <ele>996.2</ele>
        <time>2022-10-28T09:13:17Z</time>
      </trkpt>
      <trkpt lat="44.37629" lon="3.58447">
        <ele>995.4</ele>
        <time>2022-10-28T09:13:18Z</time>
      </trkpt>
      <trkpt lat="44.37636" lon="3.5845">
        <ele>994.8</ele>
        <time>2022-10-28T09:13:19Z</time>
      </trkpt>
      <trkpt lat="44.37642" lon="3.58454">
        <ele>994.2</ele>
        <time>2022-10-28T09:13:20Z</time>
      </trkpt>
      <trkpt lat="44.3765" lon="3.58457">
        <ele>993.4</ele>
        <time>2022-10-28T09:13:21Z</time>
      </trkpt>
      <trkpt lat="44.37658" lon="3.58461">
        <ele>992.6</ele>
        <time>2022-10-28T09:13:22Z</time>
      </trkpt>
      <trkpt lat="44.37666" lon="3.58465">
        <ele>991.6</ele>
        <time>2022-10-28T09:13:23Z</time>
      </trkpt>
      <trkpt lat="44.37674" lon="3.5847">
        <ele>990.8</ele>
        <time>2022-10-28T09:13:24Z</time>
      </trkpt>
      <trkpt lat="44.37683" lon="3.58475">
        <ele>989.8</ele>
        <time>2022-10-28T09:13:25Z</time>
      </trkpt>
      <trkpt lat="44.3769" lon="3.58481">
        <ele>989</ele>
        <time>2022-10-28T09:13:26Z</time>
      </trkpt>
      <trkpt lat="44.37698" lon="3.58486">
        <ele>988</ele>
        <time>2022-10-28T09:13:27Z</time>
      </trkpt>
      <trkpt lat="44.37705" lon="3.58491">
        <ele>987.4</ele>
        <time>2022-10-28T09:13:28Z</time>
      </trkpt>
      <trkpt lat="44.37712" lon="3.58496">
        <ele>986.8</ele>
        <time>2022-10-28T09:13:29Z</time>
      </trkpt>
      <trkpt lat="44.37719" lon="3.58501">
        <ele>986.2</ele>
        <time>2022-10-28T09:13:30Z</time>
      </trkpt>
      <trkpt lat="44.37725" lon="3.58506">
        <ele>985.6</ele>
        <time>2022-10-28T09:13:31Z</time>
      </trkpt>
      <trkpt lat="44.37732" lon="3.5851">
        <ele>985</ele>
        <time>2022-10-28T09:13:32Z</time>
      </trkpt>
      <trkpt lat="44.37738" lon="3.58515">
        <ele>984.6</ele>
        <time>2022-10-28T09:13:33Z</time>
      </trkpt>
      <trkpt lat="44.37743" lon="3.58519">
        <ele>984</ele>
        <time>2022-10-28T09:13:34Z</time>
      </trkpt>
      <trkpt lat="44.37748" lon="3.58522">
        <ele>983.4</ele>
        <time>2022-10-28T09:13:35Z</time>
      </trkpt>
      <trkpt lat="44.37753" lon="3.58526">
        <ele>982.8</ele>
        <time>2022-10-28T09:13:36Z</time>
      </trkpt>
      <trkpt lat="44.37759" lon="3.58528">
        <ele>982</ele>
        <time>2022-10-28T09:13:37Z</time>
      </trkpt>
      <trkpt lat="44.37765" lon="3.58531">
        <ele>981.4</ele>
        <time>2022-10-28T09:13:38Z</time>
      </trkpt>
      <trkpt lat="44.37771" lon="3.58532">
        <ele>980.6</ele>
        <time>2022-10-28T09:13:39Z</time>
      </trkpt>
      <trkpt lat="44.37778" lon="3.58534">
        <ele>979.6</ele>
        <time>2022-10-28T09:13:40Z</time>
      </trkpt>
      <trkpt lat="44.37785" lon="3.58535">
        <ele>978.6</ele>
        <time>2022-10-28T09:13:41Z</time>
      </trkpt>
      <trkpt lat="44.37793" lon="3.58536">
        <ele>977.6</ele>
        <time>2022-10-28T09:13:42Z</time>
      </trkpt>
      <trkpt lat="44.37801" lon="3.58537">
        <ele>976.4</ele>
        <time>2022-10-28T09:13:43Z</time>
      </trkpt>
      <trkpt lat="44.37808" lon="3.5854">
        <ele>975.2</ele>
        <time>2022-10-28T09:13:44Z</time>
      </trkpt>
      <trkpt lat="44.37817" lon="3.58543">
        <ele>974.2</ele>
        <time>2022-10-28T09:13:45Z</time>
      </trkpt>
      <trkpt lat="44.37826" lon="3.58547">
        <ele>973</ele>
        <time>2022-10-28T09:13:46Z</time>
      </trkpt>
      <trkpt lat="44.37834" lon="3.58552">
        <ele>972.2</ele>
        <time>2022-10-28T09:13:47Z</time>
      </trkpt>
      <trkpt lat="44.37843" lon="3.58558">
        <ele>971.4</ele>
        <time>2022-10-28T09:13:48Z</time>
      </trkpt>
      <trkpt lat="44.37852" lon="3.58565">
        <ele>971</ele>
        <time>2022-10-28T09:13:49Z</time>
      </trkpt>
      <trkpt lat="44.3786" lon="3.5857">
        <ele>970.6</ele>
        <time>2022-10-28T09:13:50Z</time>
      </trkpt>
      <trkpt lat="44.37867" lon="3.58573">
        <ele>970.4</ele>
        <time>2022-10-28T09:13:51Z</time>
      </trkpt>
      <trkpt lat="44.37873" lon="3.58575">
        <ele>970.2</ele>
        <time>2022-10-28T09:13:52Z</time>
      </trkpt>
      <trkpt lat="44.37879" lon="3.58576">
        <ele>970</ele>
        <time>2022-10-28T09:13:53Z</time>
      </trkpt>
      <trkpt lat="44.37883" lon="3.58577">
        <ele>969.8</ele>
        <time>2022-10-28T09:13:54Z</time>
      </trkpt>
      <trkpt lat="44.37888" lon="3.58578">
        <ele>969.8</ele>
        <time>2022-10-28T09:13:55Z</time>
      </trkpt>
      <trkpt lat="44.37892" lon="3.58578">
        <ele>970</ele>
        <time>2022-10-28T09:13:56Z</time>
      </trkpt>
      <trkpt lat="44.37896" lon="3.58579">
        <ele>970.2</ele>
        <time>2022-10-28T09:13:57Z</time>
      </trkpt>
      <trkpt lat="44.379" lon="3.5858">
        <ele>970.4</ele>
        <time>2022-10-28T09:13:58Z</time>
      </trkpt>
      <trkpt lat="44.37904" lon="3.5858">
        <ele>970.6</ele>
        <time>2022-10-28T09:13:59Z</time>
      </trkpt>
      <trkpt lat="44.37908" lon="3.58581">
        <ele>970.6</ele>
        <time>2022-10-28T09:14:00Z</time>
      </trkpt>
      <trkpt lat="44.37912" lon="3.58581">
        <ele>970.8</ele>
        <time>2022-10-28T09:14:01Z</time>
      </trkpt>
      <trkpt lat="44.37916" lon="3.58582">
        <ele>971</ele>
        <time>2022-10-28T09:14:02Z</time>
      </trkpt>
      <trkpt lat="44.37921" lon="3.58583">
        <ele>971</ele>
        <time>2022-10-28T09:14:03Z</time>
      </trkpt>
      <trkpt lat="44.37925" lon="3.58584">
        <ele>971.2</ele>
        <time>2022-10-28T09:14:04Z</time>
      </trkpt>
      <trkpt lat="44.37929" lon="3.58584">
        <ele>971.2</ele>
        <time>2022-10-28T09:14:05Z</time>
      </trkpt>
      <trkpt lat="44.37934" lon="3.58585">
        <ele>971.2</ele>
        <time>2022-10-28T09:14:06Z</time>
      </trkpt>
      <trkpt lat="44.37939" lon="3.58585">
        <ele>971.2</ele>
        <time>2022-10-28T09:14:07Z</time>
      </trkpt>
      <trkpt lat="44.37943" lon="3.58585">
        <ele>971</ele>
        <time>2022-10-28T09:14:08Z</time>
      </trkpt>
      <trkpt lat="44.37948" lon="3.58585">
        <ele>970.8</ele>
        <time>2022-10-28T09:14:09Z</time>
      </trkpt>
      <trkpt lat="44.37952" lon="3.58585">
        <ele>970.8</ele>
        <time>2022-10-28T09:14:10Z</time>
      </trkpt>
      <trkpt lat="44.37957" lon="3.58585">
        <ele>970.6</ele>
        <time>2022-10-28T09:14:11Z</time>
      </trkpt>
      <trkpt lat="44.37962" lon="3.58585">
        <ele>970.6</ele>
        <time>2022-10-28T09:14:12Z</time>
      </trkpt>
      <trkpt lat="44.37967" lon="3.58586">
        <ele>970.4</ele>
        <time>2022-10-28T09:14:13Z</time>
      </trkpt>
      <trkpt lat="44.37971" lon="3.58586">
        <ele>970.2</ele>
        <time>2022-10-28T09:14:14Z</time>
      </trkpt>
      <trkpt lat="44.37975" lon="3.58586">
        <ele>970.2</ele>
        <time>2022-10-28T09:14:15Z</time>
      </trkpt>
      <trkpt lat="44.37978" lon="3.58585">
        <ele>970</ele>
        <time>2022-10-28T09:14:16Z</time>
      </trkpt>
      <trkpt lat="44.37981" lon="3.58585">
        <ele>970</ele>
        <time>2022-10-28T09:14:17Z</time>
      </trkpt>
      <trkpt lat="44.37982" lon="3.58585">
        <ele>969.8</ele>
        <time>2022-10-28T09:14:18Z</time>
      </trkpt>
      <trkpt lat="44.37983" lon="3.58585">
        <ele>969.8</ele>
        <time>2022-10-28T09:14:19Z</time>
      </trkpt>
      <trkpt lat="44.37983" lon="3.58585">
        <ele>969.8</ele>
        <time>2022-10-28T09:14:20Z</time>
      </trkpt>
      <trkpt lat="44.37985" lon="3.58586">
        <ele>969.8</ele>
        <time>2022-10-28T09:14:40Z</time>
      </trkpt>
      <trkpt lat="44.37987" lon="3.58586">
        <ele>969.8</ele>
        <time>2022-10-28T09:14:41Z</time>
      </trkpt>
      <trkpt lat="44.3799" lon="3.58587">
        <ele>970</ele>
        <time>2022-10-28T09:14:42Z</time>
      </trkpt>
      <trkpt lat="44.37993" lon="3.58588">
        <ele>970</ele>
        <time>2022-10-28T09:14:43Z</time>
      </trkpt>
      <trkpt lat="44.37996" lon="3.5859">
        <ele>970.2</ele>
        <time>2022-10-28T09:14:44Z</time>
      </trkpt>
      <trkpt lat="44.37999" lon="3.58592">
        <ele>970.2</ele>
        <time>2022-10-28T09:14:45Z</time>
      </trkpt>
      <trkpt lat="44.38003" lon="3.58593">
        <ele>970.2</ele>
        <time>2022-10-28T09:14:46Z</time>
      </trkpt>
      <trkpt lat="44.38006" lon="3.58595">
        <ele>970.2</ele>
        <time>2022-10-28T09:14:47Z</time>
      </trkpt>
      <trkpt lat="44.38011" lon="3.58597">
        <ele>970.2</ele>
        <time>2022-10-28T09:14:48Z</time>
      </trkpt>
      <trkpt lat="44.38015" lon="3.58599">
        <ele>970.2</ele>
        <time>2022-10-28T09:14:49Z</time>
      </trkpt>
      <trkpt lat="44.38019" lon="3.58601">
        <ele>970.2</ele>
        <time>2022-10-28T09:14:50Z</time>
      </trkpt>
      <trkpt lat="44.38024" lon="3.58603">
        <ele>970.2</ele>
        <time>2022-10-28T09:14:51Z</time>
      </trkpt>
      <trkpt lat="44.38027" lon="3.58605">
        <ele>970.2</ele>
        <time>2022-10-28T09:14:52Z</time>
      </trkpt>
      <trkpt lat="44.38031" lon="3.58606">
        <ele>970.2</ele>
        <time>2022-10-28T09:14:53Z</time>
      </trkpt>
      <trkpt lat="44.38034" lon="3.58608">
        <ele>970</ele>
        <time>2022-10-28T09:14:54Z</time>
      </trkpt>
      <trkpt lat="44.38038" lon="3.58609">
        <ele>970</ele>
        <time>2022-10-28T09:14:55Z</time>
      </trkpt>
      <trkpt lat="44.38041" lon="3.58611">
        <ele>970</ele>
        <time>2022-10-28T09:14:56Z</time>
      </trkpt>
      <trkpt lat="44.38044" lon="3.58612">
        <ele>970.2</ele>
        <time>2022-10-28T09:14:57Z</time>
      </trkpt>
      <trkpt lat="44.38048" lon="3.58614">
        <ele>970.4</ele>
        <time>2022-10-28T09:14:58Z</time>
      </trkpt>
      <trkpt lat="44.38052" lon="3.58616">
        <ele>970.6</ele>
        <time>2022-10-28T09:14:59Z</time>
      </trkpt>
      <trkpt lat="44.38056" lon="3.58617">
        <ele>970.8</ele>
        <time>2022-10-28T09:15:00Z</time>
      </trkpt>
      <trkpt lat="44.38059" lon="3.58619">
        <ele>971.2</ele>
        <time>2022-10-28T09:15:01Z</time>
      </trkpt>
      <trkpt lat="44.38063" lon="3.5862">
        <ele>971.4</ele>
        <time>2022-10-28T09:15:02Z</time>
      </trkpt>
      <trkpt lat="44.38066" lon="3.58621">
        <ele>971.8</ele>
        <time>2022-10-28T09:15:03Z</time>
      </trkpt>
      <trkpt lat="44.3807" lon="3.58622">
        <ele>971.4</ele>
        <time>2022-10-28T09:15:04Z</time>
      </trkpt>
      <trkpt lat="44.38073" lon="3.58624">
        <ele>971.2</ele>
        <time>2022-10-28T09:15:05Z</time>
      </trkpt>
      <trkpt lat="44.38077" lon="3.58625">
        <ele>971</ele>
        <time>2022-10-28T09:15:06Z</time>
      </trkpt>
      <trkpt lat="44.38081" lon="3.58627">
        <ele>971</ele>
        <time>2022-10-28T09:15:07Z</time>
      </trkpt>
      <trkpt lat="44.38084" lon="3.58628">
        <ele>970.8</ele>
        <time>2022-10-28T09:15:08Z</time>
      </trkpt>
      <trkpt lat="44.38088" lon="3.58629">
        <ele>970.6</ele>
        <time>2022-10-28T09:15:09Z</time>
      </trkpt>
      <trkpt lat="44.38092" lon="3.5863">
        <ele>970.4</ele>
        <time>2022-10-28T09:15:10Z</time>
      </trkpt>
      <trkpt lat="44.38094" lon="3.58631">
        <ele>970.2</ele>
        <time>2022-10-28T09:15:11Z</time>
      </trkpt>
      <trkpt lat="44.38095" lon="3.58631">
        <ele>970</ele>
        <time>2022-10-28T09:15:12Z</time>
      </trkpt>
      <trkpt lat="44.38095" lon="3.58632">
        <ele>970</ele>
        <time>2022-10-28T09:15:13Z</time>
      </trkpt>
      <trkpt lat="44.38095" lon="3.58632">
        <ele>969.8</ele>
        <time>2022-10-28T09:15:14Z</time>
      </trkpt>
      <trkpt lat="44.38095" lon="3.58632">
        <ele>969.8</ele>
        <time>2022-10-28T09:15:15Z</time>
      </trkpt>
      <trkpt lat="44.38095" lon="3.58632">
        <ele>969.8</ele>
        <time>2022-10-28T09:15:16Z</time>
      </trkpt>
      <trkpt lat="44.38095" lon="3.58632">
        <ele>969.6</ele>
        <time>2022-10-28T09:15:17Z</time>
      </trkpt>
      <trkpt lat="44.38095" lon="3.58632">
        <ele>969.6</ele>
        <time>2022-10-28T09:15:18Z</time>
      </trkpt>
      <trkpt lat="44.38099" lon="3.58633">
        <ele>969.8</ele>
        <time>2022-10-28T09:15:21Z</time>
      </trkpt>
      <trkpt lat="44.38101" lon="3.58634">
        <ele>969.8</ele>
        <time>2022-10-28T09:15:22Z</time>
      </trkpt>
      <trkpt lat="44.38104" lon="3.58634">
        <ele>970</ele>
        <time>2022-10-28T09:15:23Z</time>
      </trkpt>
      <trkpt lat="44.38107" lon="3.58636">
        <ele>970</ele>
        <time>2022-10-28T09:15:24Z</time>
      </trkpt>
      <trkpt lat="44.3811" lon="3.58637">
        <ele>970</ele>
        <time>2022-10-28T09:15:25Z</time>
      </trkpt>
      <trkpt lat="44.38114" lon="3.58639">
        <ele>970</ele>
        <time>2022-10-28T09:15:26Z</time>
      </trkpt>
      <trkpt lat="44.38117" lon="3.58641">
        <ele>969.8</ele>
        <time>2022-10-28T09:15:27Z</time>
      </trkpt>
      <trkpt lat="44.38121" lon="3.58642">
        <ele>969.8</ele>
        <time>2022-10-28T09:15:28Z</time>
      </trkpt>
      <trkpt lat="44.38125" lon="3.58644">
        <ele>969.8</ele>
        <time>2022-10-28T09:15:29Z</time>
      </trkpt>
      <trkpt lat="44.38129" lon="3.58645">
        <ele>969.8</ele>
        <time>2022-10-28T09:15:30Z</time>
      </trkpt>
      <trkpt lat="44.38133" lon="3.58646">
        <ele>969.8</ele>
        <time>2022-10-28T09:15:31Z</time>
      </trkpt>
      <trkpt lat="44.38137" lon="3.58646">
        <ele>969.8</ele>
        <time>2022-10-28T09:15:32Z</time>
      </trkpt>
      <trkpt lat="44.38141" lon="3.58646">
        <ele>970</ele>
        <time>2022-10-28T09:15:33Z</time>
      </trkpt>
      <trkpt lat="44.38145" lon="3.58645">
        <ele>970</ele>
        <time>2022-10-28T09:15:34Z</time>
      </trkpt>
      <trkpt lat="44.38147" lon="3.58644">
        <ele>970</ele>
        <time>2022-10-28T09:15:35Z</time>
      </trkpt>
      <trkpt lat="44.3815" lon="3.58643">
        <ele>970</ele>
        <time>2022-10-28T09:15:36Z</time>
      </trkpt>
      <trkpt lat="44.38153" lon="3.58642">
        <ele>970.2</ele>
        <time>2022-10-28T09:15:37Z</time>
      </trkpt>
      <trkpt lat="44.38156" lon="3.58641">
        <ele>970.4</ele>
        <time>2022-10-28T09:15:38Z</time>
      </trkpt>
      <trkpt lat="44.38159" lon="3.5864">
        <ele>970.6</ele>
        <time>2022-10-28T09:15:39Z</time>
      </trkpt>
      <trkpt lat="44.38161" lon="3.5864">
        <ele>970.8</ele>
        <time>2022-10-28T09:15:40Z</time>
      </trkpt>
      <trkpt lat="44.38164" lon="3.58639">
        <ele>971.2</ele>
        <time>2022-10-28T09:15:41Z</time>
      </trkpt>
      <trkpt lat="44.38166" lon="3.58638">
        <ele>971.4</ele>
        <time>2022-10-28T09:15:42Z</time>
      </trkpt>
      <trkpt lat="44.38168" lon="3.58638">
        <ele>971.8</ele>
        <time>2022-10-28T09:15:43Z</time>
      </trkpt>
      <trkpt lat="44.38171" lon="3.58637">
        <ele>972</ele>
        <time>2022-10-28T09:15:44Z</time>
      </trkpt>
      <trkpt lat="44.38173" lon="3.58637">
        <ele>972.2</ele>
        <time>2022-10-28T09:15:45Z</time>
      </trkpt>
      <trkpt lat="44.38176" lon="3.58637">
        <ele>972.6</ele>
        <time>2022-10-28T09:15:46Z</time>
      </trkpt>
      <trkpt lat="44.38178" lon="3.58636">
        <ele>972.8</ele>
        <time>2022-10-28T09:15:47Z</time>
      </trkpt>
      <trkpt lat="44.3818" lon="3.58636">
        <ele>973.2</ele>
        <time>2022-10-28T09:15:48Z</time>
      </trkpt>
      <trkpt lat="44.38182" lon="3.58635">
        <ele>973.4</ele>
        <time>2022-10-28T09:15:49Z</time>
      </trkpt>
      <trkpt lat="44.38184" lon="3.58634">
        <ele>973.6</ele>
        <time>2022-10-28T09:15:50Z</time>
      </trkpt>
      <trkpt lat="44.38187" lon="3.58634">
        <ele>973.8</ele>
        <time>2022-10-28T09:15:51Z</time>
      </trkpt>
      <trkpt lat="44.38189" lon="3.58633">
        <ele>974</ele>
        <time>2022-10-28T09:15:52Z</time>
      </trkpt>
      <trkpt lat="44.38191" lon="3.58633">
        <ele>974.2</ele>
        <time>2022-10-28T09:15:53Z</time>
      </trkpt>
      <trkpt lat="44.38193" lon="3.58633">
        <ele>974.6</ele>
        <time>2022-10-28T09:15:54Z</time>
      </trkpt>
      <trkpt lat="44.38196" lon="3.58633">
        <ele>974.8</ele>
        <time>2022-10-28T09:15:55Z</time>
      </trkpt>
      <trkpt lat="44.38198" lon="3.58633">
        <ele>975</ele>
        <time>2022-10-28T09:15:56Z</time>
      </trkpt>
      <trkpt lat="44.382" lon="3.58633">
        <ele>975.2</ele>
        <time>2022-10-28T09:15:57Z</time>
      </trkpt>
      <trkpt lat="44.38202" lon="3.58633">
        <ele>975.6</ele>
        <time>2022-10-28T09:15:58Z</time>
      </trkpt>
      <trkpt lat="44.38204" lon="3.58632">
        <ele>975.8</ele>
        <time>2022-10-28T09:15:59Z</time>
      </trkpt>
      <trkpt lat="44.38206" lon="3.58632">
        <ele>976.2</ele>
        <time>2022-10-28T09:16:00Z</time>
      </trkpt>
      <trkpt lat="44.38208" lon="3.58632">
        <ele>976.4</ele>
        <time>2022-10-28T09:16:01Z</time>
      </trkpt>
      <trkpt lat="44.3821" lon="3.58632">
        <ele>976.6</ele>
        <time>2022-10-28T09:16:02Z</time>
      </trkpt>
      <trkpt lat="44.38212" lon="3.58631">
        <ele>976.8</ele>
        <time>2022-10-28T09:16:03Z</time>
      </trkpt>
      <trkpt lat="44.38215" lon="3.58631">
        <ele>977</ele>
        <time>2022-10-28T09:16:04Z</time>
      </trkpt>
      <trkpt lat="44.38217" lon="3.5863">
        <ele>977.2</ele>
        <time>2022-10-28T09:16:05Z</time>
      </trkpt>
      <trkpt lat="44.38219" lon="3.5863">
        <ele>977.4</ele>
        <time>2022-10-28T09:16:06Z</time>
      </trkpt>
      <trkpt lat="44.38222" lon="3.58629">
        <ele>977.6</ele>
        <time>2022-10-28T09:16:07Z</time>
      </trkpt>
      <trkpt lat="44.38224" lon="3.58629">
        <ele>977.8</ele>
        <time>2022-10-28T09:16:08Z</time>
      </trkpt>
      <trkpt lat="44.38226" lon="3.58628">
        <ele>978</ele>
        <time>2022-10-28T09:16:09Z</time>
      </trkpt>
      <trkpt lat="44.38228" lon="3.58628">
        <ele>978.2</ele>
        <time>2022-10-28T09:16:10Z</time>
      </trkpt>
      <trkpt lat="44.38231" lon="3.58627">
        <ele>978.4</ele>
        <time>2022-10-28T09:16:11Z</time>
      </trkpt>
      <trkpt lat="44.38233" lon="3.58627">
        <ele>978.6</ele>
        <time>2022-10-28T09:16:12Z</time>
      </trkpt>
      <trkpt lat="44.38235" lon="3.58627">
        <ele>978.8</ele>
        <time>2022-10-28T09:16:13Z</time>
      </trkpt>
      <trkpt lat="44.38237" lon="3.58626">
        <ele>978.8</ele>
        <time>2022-10-28T09:16:14Z</time>
      </trkpt>
      <trkpt lat="44.3824" lon="3.58626">
        <ele>979</ele>
        <time>2022-10-28T09:16:15Z</time>
      </trkpt>
      <trkpt lat="44.38242" lon="3.58626">
        <ele>979.2</ele>
        <time>2022-10-28T09:16:16Z</time>
      </trkpt>
      <trkpt lat="44.38245" lon="3.58626">
        <ele>979.4</ele>
        <time>2022-10-28T09:16:17Z</time>
      </trkpt>
      <trkpt lat="44.38248" lon="3.58626">
        <ele>979.4</ele>
        <time>2022-10-28T09:16:18Z</time>
      </trkpt>
      <trkpt lat="44.3825" lon="3.58626">
        <ele>979.6</ele>
        <time>2022-10-28T09:16:19Z</time>
      </trkpt>
      <trkpt lat="44.38253" lon="3.58626">
        <ele>979.8</ele>
        <time>2022-10-28T09:16:20Z</time>
      </trkpt>
      <trkpt lat="44.38256" lon="3.58626">
        <ele>979.8</ele>
        <time>2022-10-28T09:16:21Z</time>
      </trkpt>
      <trkpt lat="44.38258" lon="3.58626">
        <ele>980</ele>
        <time>2022-10-28T09:16:22Z</time>
      </trkpt>
      <trkpt lat="44.38262" lon="3.58627">
        <ele>980</ele>
        <time>2022-10-28T09:16:23Z</time>
      </trkpt>
      <trkpt lat="44.38265" lon="3.58627">
        <ele>980.2</ele>
        <time>2022-10-28T09:16:24Z</time>
      </trkpt>
      <trkpt lat="44.38268" lon="3.58628">
        <ele>980.2</ele>
        <time>2022-10-28T09:16:25Z</time>
      </trkpt>
      <trkpt lat="44.38271" lon="3.58629">
        <ele>980.4</ele>
        <time>2022-10-28T09:16:26Z</time>
      </trkpt>
      <trkpt lat="44.38274" lon="3.5863">
        <ele>980.4</ele>
        <time>2022-10-28T09:16:27Z</time>
      </trkpt>
      <trkpt lat="44.38277" lon="3.58631">
        <ele>980.4</ele>
        <time>2022-10-28T09:16:28Z</time>
      </trkpt>
      <trkpt lat="44.38281" lon="3.58633">
        <ele>980.6</ele>
        <time>2022-10-28T09:16:29Z</time>
      </trkpt>
      <trkpt lat="44.38284" lon="3.58634">
        <ele>980.6</ele>
        <time>2022-10-28T09:16:30Z</time>
      </trkpt>
      <trkpt lat="44.38287" lon="3.58636">
        <ele>980.6</ele>
        <time>2022-10-28T09:16:31Z</time>
      </trkpt>
      <trkpt lat="44.3829" lon="3.58638">
        <ele>980.8</ele>
        <time>2022-10-28T09:16:32Z</time>
      </trkpt>
      <trkpt lat="44.38293" lon="3.58639">
        <ele>980.8</ele>
        <time>2022-10-28T09:16:33Z</time>
      </trkpt>
      <trkpt lat="44.38296" lon="3.58641">
        <ele>980.8</ele>
        <time>2022-10-28T09:16:34Z</time>
      </trkpt>
      <trkpt lat="44.38299" lon="3.58643">
        <ele>981</ele>
        <time>2022-10-28T09:16:35Z</time>
      </trkpt>
      <trkpt lat="44.38302" lon="3.58645">
        <ele>981</ele>
        <time>2022-10-28T09:16:36Z</time>
      </trkpt>
      <trkpt lat="44.38306" lon="3.58647">
        <ele>981</ele>
        <time>2022-10-28T09:16:37Z</time>
      </trkpt>
      <trkpt lat="44.38309" lon="3.58649">
        <ele>981</ele>
        <time>2022-10-28T09:16:38Z</time>
      </trkpt>
      <trkpt lat="44.38312" lon="3.58651">
        <ele>981.2</ele>
        <time>2022-10-28T09:16:39Z</time>
      </trkpt>
      <trkpt lat="44.38315" lon="3.58653">
        <ele>981.2</ele>
        <time>2022-10-28T09:16:40Z</time>
      </trkpt>
      <trkpt lat="44.38318" lon="3.58655">
        <ele>981.2</ele>
        <time>2022-10-28T09:16:41Z</time>
      </trkpt>
      <trkpt lat="44.3832" lon="3.58656">
        <ele>981.2</ele>
        <time>2022-10-28T09:16:42Z</time>
      </trkpt>
      <trkpt lat="44.38323" lon="3.58658">
        <ele>981</ele>
        <time>2022-10-28T09:16:43Z</time>
      </trkpt>
      <trkpt lat="44.38327" lon="3.5866">
        <ele>981</ele>
        <time>2022-10-28T09:16:44Z</time>
      </trkpt>
      <trkpt lat="44.3833" lon="3.58663">
        <ele>981</ele>
        <time>2022-10-28T09:16:45Z</time>
      </trkpt>
      <trkpt lat="44.38333" lon="3.58665">
        <ele>981</ele>
        <time>2022-10-28T09:16:46Z</time>
      </trkpt>
      <trkpt lat="44.38337" lon="3.58668">
        <ele>981</ele>
        <time>2022-10-28T09:16:47Z</time>
      </trkpt>
      <trkpt lat="44.38341" lon="3.58671">
        <ele>981</ele>
        <time>2022-10-28T09:16:48Z</time>
      </trkpt>
      <trkpt lat="44.38344" lon="3.58673">
        <ele>980.8</ele>
        <time>2022-10-28T09:16:49Z</time>
      </trkpt>
      <trkpt lat="44.38348" lon="3.58676">
        <ele>980.8</ele>
        <time>2022-10-28T09:16:50Z</time>
      </trkpt>
      <trkpt lat="44.38351" lon="3.58678">
        <ele>981</ele>
        <time>2022-10-28T09:16:51Z</time>
      </trkpt>
      <trkpt lat="44.38355" lon="3.58681">
        <ele>981.2</ele>
        <time>2022-10-28T09:16:52Z</time>
      </trkpt>
      <trkpt lat="44.38359" lon="3.58683">
        <ele>981.2</ele>
        <time>2022-10-28T09:16:53Z</time>
      </trkpt>
      <trkpt lat="44.38362" lon="3.58685">
        <ele>981.2</ele>
        <time>2022-10-28T09:16:54Z</time>
      </trkpt>
      <trkpt lat="44.38366" lon="3.58687">
        <ele>981</ele>
        <time>2022-10-28T09:16:55Z</time>
      </trkpt>
      <trkpt lat="44.3837" lon="3.5869">
        <ele>980.8</ele>
        <time>2022-10-28T09:16:56Z</time>
      </trkpt>
      <trkpt lat="44.38374" lon="3.58692">
        <ele>980.6</ele>
        <time>2022-10-28T09:16:57Z</time>
      </trkpt>
      <trkpt lat="44.38377" lon="3.58694">
        <ele>980.6</ele>
        <time>2022-10-28T09:16:58Z</time>
      </trkpt>
      <trkpt lat="44.38381" lon="3.58696">
        <ele>980.6</ele>
        <time>2022-10-28T09:16:59Z</time>
      </trkpt>
      <trkpt lat="44.38385" lon="3.58698">
        <ele>980.6</ele>
        <time>2022-10-28T09:17:00Z</time>
      </trkpt>
      <trkpt lat="44.38388" lon="3.587">
        <ele>980.6</ele>
        <time>2022-10-28T09:17:01Z</time>
      </trkpt>
      <trkpt lat="44.38392" lon="3.58702">
        <ele>980.6</ele>
        <time>2022-10-28T09:17:02Z</time>
      </trkpt>
      <trkpt lat="44.38396" lon="3.58704">
        <ele>980.6</ele>
        <time>2022-10-28T09:17:03Z</time>
      </trkpt>
      <trkpt lat="44.384" lon="3.58705">
        <ele>980.4</ele>
        <time>2022-10-28T09:17:04Z</time>
      </trkpt>
      <trkpt lat="44.38404" lon="3.58707">
        <ele>980.4</ele>
        <time>2022-10-28T09:17:05Z</time>
      </trkpt>
      <trkpt lat="44.38408" lon="3.58708">
        <ele>980.4</ele>
        <time>2022-10-28T09:17:06Z</time>
      </trkpt>
      <trkpt lat="44.38412" lon="3.58709">
        <ele>980.4</ele>
        <time>2022-10-28T09:17:07Z</time>
      </trkpt>
      <trkpt lat="44.38416" lon="3.5871">
        <ele>980.4</ele>
        <time>2022-10-28T09:17:08Z</time>
      </trkpt>
      <trkpt lat="44.3842" lon="3.5871">
        <ele>980.6</ele>
        <time>2022-10-28T09:17:09Z</time>
      </trkpt>
      <trkpt lat="44.38423" lon="3.5871">
        <ele>980.8</ele>
        <time>2022-10-28T09:17:10Z</time>
      </trkpt>
      <trkpt lat="44.38426" lon="3.58711">
        <ele>980.8</ele>
        <time>2022-10-28T09:17:11Z</time>
      </trkpt>
      <trkpt lat="44.38429" lon="3.58711">
        <ele>981</ele>
        <time>2022-10-28T09:17:12Z</time>
      </trkpt>
      <trkpt lat="44.38432" lon="3.58711">
        <ele>981.2</ele>
        <time>2022-10-28T09:17:13Z</time>
      </trkpt>
      <trkpt lat="44.38434" lon="3.58711">
        <ele>981.4</ele>
        <time>2022-10-28T09:17:14Z</time>
      </trkpt>
      <trkpt lat="44.38437" lon="3.58711">
        <ele>981.6</ele>
        <time>2022-10-28T09:17:15Z</time>
      </trkpt>
      <trkpt lat="44.38439" lon="3.58712">
        <ele>981.8</ele>
        <time>2022-10-28T09:17:16Z</time>
      </trkpt>
      <trkpt lat="44.38441" lon="3.58712">
        <ele>982.2</ele>
        <time>2022-10-28T09:17:17Z</time>
      </trkpt>
      <trkpt lat="44.38444" lon="3.58712">
        <ele>982.4</ele>
        <time>2022-10-28T09:17:18Z</time>
      </trkpt>
      <trkpt lat="44.38446" lon="3.58712">
        <ele>982.6</ele>
        <time>2022-10-28T09:17:19Z</time>
      </trkpt>
      <trkpt lat="44.38449" lon="3.58712">
        <ele>982.8</ele>
        <time>2022-10-28T09:17:20Z</time>
      </trkpt>
      <trkpt lat="44.38451" lon="3.58712">
        <ele>983</ele>
        <time>2022-10-28T09:17:21Z</time>
      </trkpt>
      <trkpt lat="44.38454" lon="3.58712">
        <ele>983.4</ele>
        <time>2022-10-28T09:17:22Z</time>
      </trkpt>
      <trkpt lat="44.38456" lon="3.58712">
        <ele>983.6</ele>
        <time>2022-10-28T09:17:23Z</time>
      </trkpt>
      <trkpt lat="44.38458" lon="3.58712">
        <ele>983.8</ele>
        <time>2022-10-28T09:17:24Z</time>
      </trkpt>
      <trkpt lat="44.3846" lon="3.58712">
        <ele>984</ele>
        <time>2022-10-28T09:17:25Z</time>
      </trkpt>
      <trkpt lat="44.38462" lon="3.58713">
        <ele>984.2</ele>
        <time>2022-10-28T09:17:26Z</time>
      </trkpt>
      <trkpt lat="44.38464" lon="3.58712">
        <ele>984.6</ele>
        <time>2022-10-28T09:17:27Z</time>
      </trkpt>
      <trkpt lat="44.38466" lon="3.58712">
        <ele>984.8</ele>
        <time>2022-10-28T09:17:28Z</time>
      </trkpt>
      <trkpt lat="44.38468" lon="3.58711">
        <ele>985</ele>
        <time>2022-10-28T09:17:29Z</time>
      </trkpt>
      <trkpt lat="44.3847" lon="3.5871">
        <ele>985.2</ele>
        <time>2022-10-28T09:17:30Z</time>
      </trkpt>
      <trkpt lat="44.38472" lon="3.58709">
        <ele>985.2</ele>
        <time>2022-10-28T09:17:31Z</time>
      </trkpt>
      <trkpt lat="44.38474" lon="3.58708">
        <ele>985.4</ele>
        <time>2022-10-28T09:17:32Z</time>
      </trkpt>
      <trkpt lat="44.38476" lon="3.58706">
        <ele>985.6</ele>
        <time>2022-10-28T09:17:33Z</time>
      </trkpt>
      <trkpt lat="44.38478" lon="3.58705">
        <ele>985.8</ele>
        <time>2022-10-28T09:17:34Z</time>
      </trkpt>
      <trkpt lat="44.3848" lon="3.58703">
        <ele>986</ele>
        <time>2022-10-28T09:17:35Z</time>
      </trkpt>
      <trkpt lat="44.38482" lon="3.58701">
        <ele>986.2</ele>
        <time>2022-10-28T09:17:36Z</time>
      </trkpt>
      <trkpt lat="44.38484" lon="3.58699">
        <ele>986.2</ele>
        <time>2022-10-28T09:17:37Z</time>
      </trkpt>
      <trkpt lat="44.38485" lon="3.58697">
        <ele>986.4</ele>
        <time>2022-10-28T09:17:38Z</time>
      </trkpt>
      <trkpt lat="44.38487" lon="3.58695">
        <ele>986.6</ele>
        <time>2022-10-28T09:17:39Z</time>
      </trkpt>
      <trkpt lat="44.38489" lon="3.58693">
        <ele>986.8</ele>
        <time>2022-10-28T09:17:40Z</time>
      </trkpt>
      <trkpt lat="44.3849" lon="3.58691">
        <ele>987</ele>
        <time>2022-10-28T09:17:41Z</time>
      </trkpt>
      <trkpt lat="44.38492" lon="3.58689">
        <ele>987.2</ele>
        <time>2022-10-28T09:17:42Z</time>
      </trkpt>
      <trkpt lat="44.38493" lon="3.58687">
        <ele>987.4</ele>
        <time>2022-10-28T09:17:43Z</time>
      </trkpt>
      <trkpt lat="44.38495" lon="3.58684">
        <ele>987.6</ele>
        <time>2022-10-28T09:17:44Z</time>
      </trkpt>
      <trkpt lat="44.38496" lon="3.58682">
        <ele>987.8</ele>
        <time>2022-10-28T09:17:45Z</time>
      </trkpt>
      <trkpt lat="44.38498" lon="3.5868">
        <ele>988</ele>
        <time>2022-10-28T09:17:46Z</time>
      </trkpt>
      <trkpt lat="44.385" lon="3.58678">
        <ele>988.2</ele>
        <time>2022-10-28T09:17:47Z</time>
      </trkpt>
      <trkpt lat="44.38501" lon="3.58675">
        <ele>988.4</ele>
        <time>2022-10-28T09:17:48Z</time>
      </trkpt>
      <trkpt lat="44.38503" lon="3.58674">
        <ele>988.6</ele>
        <time>2022-10-28T09:17:49Z</time>
      </trkpt>
      <trkpt lat="44.38505" lon="3.58672">
        <ele>988.8</ele>
        <time>2022-10-28T09:17:50Z</time>
      </trkpt>
      <trkpt lat="44.38507" lon="3.5867">
        <ele>989</ele>
        <time>2022-10-28T09:17:51Z</time>
      </trkpt>
      <trkpt lat="44.38509" lon="3.58668">
        <ele>989.2</ele>
        <time>2022-10-28T09:17:52Z</time>
      </trkpt>
      <trkpt lat="44.3851" lon="3.58666">
        <ele>989.4</ele>
        <time>2022-10-28T09:17:53Z</time>
      </trkpt>
      <trkpt lat="44.38512" lon="3.58664">
        <ele>989.6</ele>
        <time>2022-10-28T09:17:54Z</time>
      </trkpt>
      <trkpt lat="44.38514" lon="3.58662">
        <ele>989.8</ele>
        <time>2022-10-28T09:17:55Z</time>
      </trkpt>
      <trkpt lat="44.38515" lon="3.5866">
        <ele>990</ele>
        <time>2022-10-28T09:17:56Z</time>
      </trkpt>
      <trkpt lat="44.38517" lon="3.58659">
        <ele>990.2</ele>
        <time>2022-10-28T09:17:57Z</time>
      </trkpt>
      <trkpt lat="44.38519" lon="3.58657">
        <ele>990.4</ele>
        <time>2022-10-28T09:17:58Z</time>
      </trkpt>
      <trkpt lat="44.3852" lon="3.58655">
        <ele>990.8</ele>
        <time>2022-10-28T09:17:59Z</time>
      </trkpt>
      <trkpt lat="44.38522" lon="3.58653">
        <ele>991</ele>
        <time>2022-10-28T09:18:00Z</time>
      </trkpt>
      <trkpt lat="44.38524" lon="3.58651">
        <ele>991.2</ele>
        <time>2022-10-28T09:18:01Z</time>
      </trkpt>
      <trkpt lat="44.38525" lon="3.5865">
        <ele>991.4</ele>
        <time>2022-10-28T09:18:02Z</time>
      </trkpt>
      <trkpt lat="44.38526" lon="3.58648">
        <ele>991.6</ele>
        <time>2022-10-28T09:18:03Z</time>
      </trkpt>
      <trkpt lat="44.38528" lon="3.58646">
        <ele>991.8</ele>
        <time>2022-10-28T09:18:04Z</time>
      </trkpt>
      <trkpt lat="44.38529" lon="3.58643">
        <ele>992</ele>
        <time>2022-10-28T09:18:05Z</time>
      </trkpt>
      <trkpt lat="44.38531" lon="3.58641">
        <ele>992.2</ele>
        <time>2022-10-28T09:18:06Z</time>
      </trkpt>
      <trkpt lat="44.38533" lon="3.58639">
        <ele>992.4</ele>
        <time>2022-10-28T09:18:07Z</time>
      </trkpt>
      <trkpt lat="44.38534" lon="3.58637">
        <ele>992.6</ele>
        <time>2022-10-28T09:18:08Z</time>
      </trkpt>
      <trkpt lat="44.38535" lon="3.58634">
        <ele>992.8</ele>
        <time>2022-10-28T09:18:09Z</time>
      </trkpt>
      <trkpt lat="44.38537" lon="3.58633">
        <ele>993</ele>
        <time>2022-10-28T09:18:10Z</time>
      </trkpt>
      <trkpt lat="44.38538" lon="3.58631">
        <ele>993.4</ele>
        <time>2022-10-28T09:18:11Z</time>
      </trkpt>
      <trkpt lat="44.3854" lon="3.58629">
        <ele>993.6</ele>
        <time>2022-10-28T09:18:12Z</time>
      </trkpt>
      <trkpt lat="44.38541" lon="3.58627">
        <ele>993.8</ele>
        <time>2022-10-28T09:18:13Z</time>
      </trkpt>
      <trkpt lat="44.38543" lon="3.58625">
        <ele>994</ele>
        <time>2022-10-28T09:18:14Z</time>
      </trkpt>
      <trkpt lat="44.38544" lon="3.58623">
        <ele>994.2</ele>
        <time>2022-10-28T09:18:15Z</time>
      </trkpt>
      <trkpt lat="44.38546" lon="3.58621">
        <ele>994.6</ele>
        <time>2022-10-28T09:18:16Z</time>
      </trkpt>
      <trkpt lat="44.38547" lon="3.58619">
        <ele>994.8</ele>
        <time>2022-10-28T09:18:17Z</time>
      </trkpt>
      <trkpt lat="44.38548" lon="3.58618">
        <ele>995</ele>
        <time>2022-10-28T09:18:18Z</time>
      </trkpt>
      <trkpt lat="44.3855" lon="3.58616">
        <ele>995.4</ele>
        <time>2022-10-28T09:18:19Z</time>
      </trkpt>
      <trkpt lat="44.38551" lon="3.58614">
        <ele>995.6</ele>
        <time>2022-10-28T09:18:20Z</time>
      </trkpt>
      <trkpt lat="44.38553" lon="3.58613">
        <ele>996</ele>
        <time>2022-10-28T09:18:21Z</time>
      </trkpt>
      <trkpt lat="44.38554" lon="3.58612">
        <ele>996.2</ele>
        <time>2022-10-28T09:18:22Z</time>
      </trkpt>
      <trkpt lat="44.38555" lon="3.58611">
        <ele>996.4</ele>
        <time>2022-10-28T09:18:23Z</time>
      </trkpt>
      <trkpt lat="44.38557" lon="3.5861">
        <ele>996.6</ele>
        <time>2022-10-28T09:18:24Z</time>
      </trkpt>
      <trkpt lat="44.38558" lon="3.58608">
        <ele>996.8</ele>
        <time>2022-10-28T09:18:25Z</time>
      </trkpt>
      <trkpt lat="44.3856" lon="3.58606">
        <ele>997</ele>
        <time>2022-10-28T09:18:26Z</time>
      </trkpt>
      <trkpt lat="44.38562" lon="3.58605">
        <ele>997.4</ele>
        <time>2022-10-28T09:18:27Z</time>
      </trkpt>
      <trkpt lat="44.38563" lon="3.58604">
        <ele>997.6</ele>
        <time>2022-10-28T09:18:28Z</time>
      </trkpt>
      <trkpt lat="44.38565" lon="3.58603">
        <ele>997.8</ele>
        <time>2022-10-28T09:18:29Z</time>
      </trkpt>
      <trkpt lat="44.38567" lon="3.58602">
        <ele>998</ele>
        <time>2022-10-28T09:18:30Z</time>
      </trkpt>
      <trkpt lat="44.38568" lon="3.58601">
        <ele>998.4</ele>
        <time>2022-10-28T09:18:31Z</time>
      </trkpt>
      <trkpt lat="44.3857" lon="3.586">
        <ele>998.6</ele>
        <time>2022-10-28T09:18:32Z</time>
      </trkpt>
      <trkpt lat="44.38572" lon="3.58599">
        <ele>998.8</ele>
        <time>2022-10-28T09:18:33Z</time>
      </trkpt>
      <trkpt lat="44.38573" lon="3.58599">
        <ele>999.2</ele>
        <time>2022-10-28T09:18:34Z</time>
      </trkpt>
      <trkpt lat="44.38575" lon="3.58598">
        <ele>999.4</ele>
        <time>2022-10-28T09:18:35Z</time>
      </trkpt>
      <trkpt lat="44.38576" lon="3.58597">
        <ele>999.6</ele>
        <time>2022-10-28T09:18:36Z</time>
      </trkpt>
      <trkpt lat="44.38577" lon="3.58596">
        <ele>1000</ele>
        <time>2022-10-28T09:18:37Z</time>
      </trkpt>
      <trkpt lat="44.38579" lon="3.58594">
        <ele>1000.2</ele>
        <time>2022-10-28T09:18:38Z</time>
      </trkpt>
      <trkpt lat="44.3858" lon="3.58593">
        <ele>1000.4</ele>
        <time>2022-10-28T09:18:39Z</time>
      </trkpt>
      <trkpt lat="44.38581" lon="3.58591">
        <ele>1000.4</ele>
        <time>2022-10-28T09:18:40Z</time>
      </trkpt>
      <trkpt lat="44.38583" lon="3.5859">
        <ele>1000.6</ele>
        <time>2022-10-28T09:18:41Z</time>
      </trkpt>
      <trkpt lat="44.38584" lon="3.58588">
        <ele>1000.8</ele>
        <time>2022-10-28T09:18:42Z</time>
      </trkpt>
      <trkpt lat="44.38586" lon="3.58586">
        <ele>1001.2</ele>
        <time>2022-10-28T09:18:43Z</time>
      </trkpt>
      <trkpt lat="44.38587" lon="3.58584">
        <ele>1001.4</ele>
        <time>2022-10-28T09:18:44Z</time>
      </trkpt>
      <trkpt lat="44.38588" lon="3.58583">
        <ele>1001.6</ele>
        <time>2022-10-28T09:18:45Z</time>
      </trkpt>
      <trkpt lat="44.38589" lon="3.5858">
        <ele>1001.8</ele>
        <time>2022-10-28T09:18:46Z</time>
      </trkpt>
      <trkpt lat="44.38591" lon="3.58578">
        <ele>1002</ele>
        <time>2022-10-28T09:18:47Z</time>
      </trkpt>
      <trkpt lat="44.38592" lon="3.58577">
        <ele>1002.4</ele>
        <time>2022-10-28T09:18:48Z</time>
      </trkpt>
      <trkpt lat="44.38593" lon="3.58575">
        <ele>1002.6</ele>
        <time>2022-10-28T09:18:49Z</time>
      </trkpt>
      <trkpt lat="44.38594" lon="3.58573">
        <ele>1003</ele>
        <time>2022-10-28T09:18:50Z</time>
      </trkpt>
      <trkpt lat="44.38595" lon="3.58572">
        <ele>1003.2</ele>
        <time>2022-10-28T09:18:51Z</time>
      </trkpt>
      <trkpt lat="44.38597" lon="3.5857">
        <ele>1003.6</ele>
        <time>2022-10-28T09:18:52Z</time>
      </trkpt>
      <trkpt lat="44.38598" lon="3.58568">
        <ele>1003.8</ele>
        <time>2022-10-28T09:18:53Z</time>
      </trkpt>
      <trkpt lat="44.38599" lon="3.58566">
        <ele>1004.2</ele>
        <time>2022-10-28T09:18:54Z</time>
      </trkpt>
      <trkpt lat="44.386" lon="3.58564">
        <ele>1004.4</ele>
        <time>2022-10-28T09:18:55Z</time>
      </trkpt>
      <trkpt lat="44.38601" lon="3.58562">
        <ele>1004.8</ele>
        <time>2022-10-28T09:18:56Z</time>
      </trkpt>
      <trkpt lat="44.38602" lon="3.5856">
        <ele>1005</ele>
        <time>2022-10-28T09:18:57Z</time>
      </trkpt>
      <trkpt lat="44.38604" lon="3.58559">
        <ele>1005.2</ele>
        <time>2022-10-28T09:18:58Z</time>
      </trkpt>
      <trkpt lat="44.38605" lon="3.58558">
        <ele>1005.4</ele>
        <time>2022-10-28T09:18:59Z</time>
      </trkpt>
      <trkpt lat="44.38606" lon="3.58556">
        <ele>1005.8</ele>
        <time>2022-10-28T09:19:00Z</time>
      </trkpt>
      <trkpt lat="44.38607" lon="3.58555">
        <ele>1006</ele>
        <time>2022-10-28T09:19:01Z</time>
      </trkpt>
      <trkpt lat="44.38608" lon="3.58553">
        <ele>1006.4</ele>
        <time>2022-10-28T09:19:02Z</time>
      </trkpt>
      <trkpt lat="44.3861" lon="3.58551">
        <ele>1006.6</ele>
        <time>2022-10-28T09:19:03Z</time>
      </trkpt>
      <trkpt lat="44.38611" lon="3.58549">
        <ele>1007</ele>
        <time>2022-10-28T09:19:04Z</time>
      </trkpt>
      <trkpt lat="44.38612" lon="3.58547">
        <ele>1007.2</ele>
        <time>2022-10-28T09:19:05Z</time>
      </trkpt>
      <trkpt lat="44.38613" lon="3.58545">
        <ele>1007.6</ele>
        <time>2022-10-28T09:19:06Z</time>
      </trkpt>
      <trkpt lat="44.38614" lon="3.58544">
        <ele>1007.6</ele>
        <time>2022-10-28T09:19:07Z</time>
      </trkpt>
      <trkpt lat="44.38615" lon="3.58542">
        <ele>1007.8</ele>
        <time>2022-10-28T09:19:08Z</time>
      </trkpt>
      <trkpt lat="44.38617" lon="3.5854">
        <ele>1008</ele>
        <time>2022-10-28T09:19:09Z</time>
      </trkpt>
      <trkpt lat="44.38618" lon="3.58538">
        <ele>1008.2</ele>
        <time>2022-10-28T09:19:10Z</time>
      </trkpt>
      <trkpt lat="44.38619" lon="3.58536">
        <ele>1008.4</ele>
        <time>2022-10-28T09:19:11Z</time>
      </trkpt>
      <trkpt lat="44.38621" lon="3.58534">
        <ele>1008.6</ele>
        <time>2022-10-28T09:19:12Z</time>
      </trkpt>
      <trkpt lat="44.38622" lon="3.58532">
        <ele>1008.8</ele>
        <time>2022-10-28T09:19:13Z</time>
      </trkpt>
      <trkpt lat="44.38623" lon="3.5853">
        <ele>1009.2</ele>
        <time>2022-10-28T09:19:14Z</time>
      </trkpt>
      <trkpt lat="44.38624" lon="3.58528">
        <ele>1009.4</ele>
        <time>2022-10-28T09:19:15Z</time>
      </trkpt>
      <trkpt lat="44.38625" lon="3.58527">
        <ele>1009.6</ele>
        <time>2022-10-28T09:19:16Z</time>
      </trkpt>
      <trkpt lat="44.38626" lon="3.58525">
        <ele>1009.8</ele>
        <time>2022-10-28T09:19:17Z</time>
      </trkpt>
      <trkpt lat="44.38628" lon="3.58524">
        <ele>1010</ele>
        <time>2022-10-28T09:19:18Z</time>
      </trkpt>
      <trkpt lat="44.38629" lon="3.58523">
        <ele>1010.4</ele>
        <time>2022-10-28T09:19:19Z</time>
      </trkpt>
      <trkpt lat="44.3863" lon="3.58521">
        <ele>1010.6</ele>
        <time>2022-10-28T09:19:20Z</time>
      </trkpt>
      <trkpt lat="44.38632" lon="3.58519">
        <ele>1010.8</ele>
        <time>2022-10-28T09:19:21Z</time>
      </trkpt>
      <trkpt lat="44.38633" lon="3.58517">
        <ele>1011.2</ele>
        <time>2022-10-28T09:19:22Z</time>
      </trkpt>
      <trkpt lat="44.38634" lon="3.58516">
        <ele>1011.4</ele>
        <time>2022-10-28T09:19:23Z</time>
      </trkpt>
      <trkpt lat="44.38635" lon="3.58514">
        <ele>1011.6</ele>
        <time>2022-10-28T09:19:24Z</time>
      </trkpt>
      <trkpt lat="44.38636" lon="3.58513">
        <ele>1011.8</ele>
        <time>2022-10-28T09:19:25Z</time>
      </trkpt>
      <trkpt lat="44.38637" lon="3.58511">
        <ele>1012.2</ele>
        <time>2022-10-28T09:19:26Z</time>
      </trkpt>
      <trkpt lat="44.38638" lon="3.5851">
        <ele>1012.4</ele>
        <time>2022-10-28T09:19:27Z</time>
      </trkpt>
      <trkpt lat="44.3864" lon="3.58508">
        <ele>1012.8</ele>
        <time>2022-10-28T09:19:28Z</time>
      </trkpt>
      <trkpt lat="44.38641" lon="3.58507">
        <ele>1013</ele>
        <time>2022-10-28T09:19:29Z</time>
      </trkpt>
      <trkpt lat="44.38642" lon="3.58505">
        <ele>1013.2</ele>
        <time>2022-10-28T09:19:30Z</time>
      </trkpt>
      <trkpt lat="44.38643" lon="3.58503">
        <ele>1013.4</ele>
        <time>2022-10-28T09:19:31Z</time>
      </trkpt>
      <trkpt lat="44.38644" lon="3.58502">
        <ele>1013.6</ele>
        <time>2022-10-28T09:19:32Z</time>
      </trkpt>
      <trkpt lat="44.38646" lon="3.585">
        <ele>1013.8</ele>
        <time>2022-10-28T09:19:33Z</time>
      </trkpt>
      <trkpt lat="44.38647" lon="3.58499">
        <ele>1014</ele>
        <time>2022-10-28T09:19:34Z</time>
      </trkpt>
      <trkpt lat="44.38649" lon="3.58498">
        <ele>1014.2</ele>
        <time>2022-10-28T09:19:35Z</time>
      </trkpt>
      <trkpt lat="44.38651" lon="3.58497">
        <ele>1014.4</ele>
        <time>2022-10-28T09:19:36Z</time>
      </trkpt>
      <trkpt lat="44.38652" lon="3.58496">
        <ele>1014.6</ele>
        <time>2022-10-28T09:19:37Z</time>
      </trkpt>
      <trkpt lat="44.38654" lon="3.58495">
        <ele>1014.8</ele>
        <time>2022-10-28T09:19:38Z</time>
      </trkpt>
      <trkpt lat="44.38655" lon="3.58493">
        <ele>1015</ele>
        <time>2022-10-28T09:19:39Z</time>
      </trkpt>
      <trkpt lat="44.38657" lon="3.58492">
        <ele>1015.2</ele>
        <time>2022-10-28T09:19:40Z</time>
      </trkpt>
      <trkpt lat="44.38658" lon="3.5849">
        <ele>1015.6</ele>
        <time>2022-10-28T09:19:41Z</time>
      </trkpt>
      <trkpt lat="44.3866" lon="3.58489">
        <ele>1015.8</ele>
        <time>2022-10-28T09:19:42Z</time>
      </trkpt>
      <trkpt lat="44.38661" lon="3.58488">
        <ele>1016</ele>
        <time>2022-10-28T09:19:43Z</time>
      </trkpt>
      <trkpt lat="44.38662" lon="3.58487">
        <ele>1016.2</ele>
        <time>2022-10-28T09:19:44Z</time>
      </trkpt>
      <trkpt lat="44.38664" lon="3.58486">
        <ele>1016.4</ele>
        <time>2022-10-28T09:19:45Z</time>
      </trkpt>
      <trkpt lat="44.38665" lon="3.58484">
        <ele>1016.6</ele>
        <time>2022-10-28T09:19:46Z</time>
      </trkpt>
      <trkpt lat="44.38667" lon="3.58483">
        <ele>1016.8</ele>
        <time>2022-10-28T09:19:47Z</time>
      </trkpt>
      <trkpt lat="44.38668" lon="3.58482">
        <ele>1017</ele>
        <time>2022-10-28T09:19:48Z</time>
      </trkpt>
      <trkpt lat="44.3867" lon="3.58481">
        <ele>1017.2</ele>
        <time>2022-10-28T09:19:49Z</time>
      </trkpt>
      <trkpt lat="44.38672" lon="3.5848">
        <ele>1017.4</ele>
        <time>2022-10-28T09:19:50Z</time>
      </trkpt>
      <trkpt lat="44.38673" lon="3.58479">
        <ele>1017.6</ele>
        <time>2022-10-28T09:19:51Z</time>
      </trkpt>
      <trkpt lat="44.38675" lon="3.58477">
        <ele>1017.8</ele>
        <time>2022-10-28T09:19:52Z</time>
      </trkpt>
      <trkpt lat="44.38677" lon="3.58476">
        <ele>1018</ele>
        <time>2022-10-28T09:19:53Z</time>
      </trkpt>
      <trkpt lat="44.38678" lon="3.58475">
        <ele>1018.2</ele>
        <time>2022-10-28T09:19:54Z</time>
      </trkpt>
      <trkpt lat="44.3868" lon="3.58474">
        <ele>1018.2</ele>
        <time>2022-10-28T09:19:55Z</time>
      </trkpt>
      <trkpt lat="44.38681" lon="3.58473">
        <ele>1018.4</ele>
        <time>2022-10-28T09:19:56Z</time>
      </trkpt>
      <trkpt lat="44.38683" lon="3.58471">
        <ele>1018.6</ele>
        <time>2022-10-28T09:19:57Z</time>
      </trkpt>
      <trkpt lat="44.38685" lon="3.5847">
        <ele>1018.8</ele>
        <time>2022-10-28T09:19:58Z</time>
      </trkpt>
      <trkpt lat="44.38687" lon="3.58469">
        <ele>1019</ele>
        <time>2022-10-28T09:19:59Z</time>
      </trkpt>
      <trkpt lat="44.38688" lon="3.58468">
        <ele>1019.2</ele>
        <time>2022-10-28T09:20:00Z</time>
      </trkpt>
      <trkpt lat="44.3869" lon="3.58467">
        <ele>1019.4</ele>
        <time>2022-10-28T09:20:01Z</time>
      </trkpt>
      <trkpt lat="44.38692" lon="3.58466">
        <ele>1019.6</ele>
        <time>2022-10-28T09:20:02Z</time>
      </trkpt>
      <trkpt lat="44.38693" lon="3.58464">
        <ele>1019.6</ele>
        <time>2022-10-28T09:20:03Z</time>
      </trkpt>
      <trkpt lat="44.38695" lon="3.58463">
        <ele>1019.8</ele>
        <time>2022-10-28T09:20:04Z</time>
      </trkpt>
      <trkpt lat="44.38697" lon="3.58462">
        <ele>1020</ele>
        <time>2022-10-28T09:20:05Z</time>
      </trkpt>
      <trkpt lat="44.38699" lon="3.5846">
        <ele>1020.2</ele>
        <time>2022-10-28T09:20:06Z</time>
      </trkpt>
      <trkpt lat="44.38701" lon="3.58459">
        <ele>1020.4</ele>
        <time>2022-10-28T09:20:07Z</time>
      </trkpt>
      <trkpt lat="44.38703" lon="3.58458">
        <ele>1020.4</ele>
        <time>2022-10-28T09:20:08Z</time>
      </trkpt>
      <trkpt lat="44.38704" lon="3.58456">
        <ele>1020.6</ele>
        <time>2022-10-28T09:20:09Z</time>
      </trkpt>
      <trkpt lat="44.38706" lon="3.58454">
        <ele>1020.8</ele>
        <time>2022-10-28T09:20:10Z</time>
      </trkpt>
      <trkpt lat="44.38708" lon="3.58453">
        <ele>1020.8</ele>
        <time>2022-10-28T09:20:11Z</time>
      </trkpt>
      <trkpt lat="44.3871" lon="3.58451">
        <ele>1021</ele>
        <time>2022-10-28T09:20:12Z</time>
      </trkpt>
      <trkpt lat="44.38712" lon="3.5845">
        <ele>1021.2</ele>
        <time>2022-10-28T09:20:13Z</time>
      </trkpt>
      <trkpt lat="44.38714" lon="3.58448">
        <ele>1021.2</ele>
        <time>2022-10-28T09:20:14Z</time>
      </trkpt>
      <trkpt lat="44.38716" lon="3.58447">
        <ele>1021.4</ele>
        <time>2022-10-28T09:20:15Z</time>
      </trkpt>
      <trkpt lat="44.38717" lon="3.58445">
        <ele>1021.6</ele>
        <time>2022-10-28T09:20:16Z</time>
      </trkpt>
      <trkpt lat="44.38719" lon="3.58443">
        <ele>1021.8</ele>
        <time>2022-10-28T09:20:17Z</time>
      </trkpt>
      <trkpt lat="44.38721" lon="3.58442">
        <ele>1021.8</ele>
        <time>2022-10-28T09:20:18Z</time>
      </trkpt>
      <trkpt lat="44.38723" lon="3.5844">
        <ele>1022</ele>
        <time>2022-10-28T09:20:19Z</time>
      </trkpt>
      <trkpt lat="44.38724" lon="3.58438">
        <ele>1022.2</ele>
        <time>2022-10-28T09:20:20Z</time>
      </trkpt>
      <trkpt lat="44.38726" lon="3.58437">
        <ele>1022.4</ele>
        <time>2022-10-28T09:20:21Z</time>
      </trkpt>
      <trkpt lat="44.38728" lon="3.58435">
        <ele>1022.6</ele>
        <time>2022-10-28T09:20:22Z</time>
      </trkpt>
      <trkpt lat="44.3873" lon="3.58434">
        <ele>1022.6</ele>
        <time>2022-10-28T09:20:23Z</time>
      </trkpt>
      <trkpt lat="44.38732" lon="3.58432">
        <ele>1022.8</ele>
        <time>2022-10-28T09:20:24Z</time>
      </trkpt>
      <trkpt lat="44.38734" lon="3.58431">
        <ele>1023</ele>
        <time>2022-10-28T09:20:25Z</time>
      </trkpt>
      <trkpt lat="44.38736" lon="3.58429">
        <ele>1023</ele>
        <time>2022-10-28T09:20:26Z</time>
      </trkpt>
      <trkpt lat="44.38738" lon="3.58428">
        <ele>1023.2</ele>
        <time>2022-10-28T09:20:27Z</time>
      </trkpt>
      <trkpt lat="44.3874" lon="3.58426">
        <ele>1023.2</ele>
        <time>2022-10-28T09:20:28Z</time>
      </trkpt>
      <trkpt lat="44.38742" lon="3.58425">
        <ele>1023.4</ele>
        <time>2022-10-28T09:20:29Z</time>
      </trkpt>
      <trkpt lat="44.38744" lon="3.58423">
        <ele>1023.4</ele>
        <time>2022-10-28T09:20:30Z</time>
      </trkpt>
      <trkpt lat="44.38746" lon="3.58422">
        <ele>1023.4</ele>
        <time>2022-10-28T09:20:31Z</time>
      </trkpt>
      <trkpt lat="44.38748" lon="3.5842">
        <ele>1023.6</ele>
        <time>2022-10-28T09:20:32Z</time>
      </trkpt>
      <trkpt lat="44.3875" lon="3.58418">
        <ele>1023.6</ele>
        <time>2022-10-28T09:20:33Z</time>
      </trkpt>
      <trkpt lat="44.38752" lon="3.58416">
        <ele>1023.8</ele>
        <time>2022-10-28T09:20:34Z</time>
      </trkpt>
      <trkpt lat="44.38754" lon="3.58413">
        <ele>1023.8</ele>
        <time>2022-10-28T09:20:35Z</time>
      </trkpt>
      <trkpt lat="44.38756" lon="3.58411">
        <ele>1024</ele>
        <time>2022-10-28T09:20:36Z</time>
      </trkpt>
      <trkpt lat="44.38757" lon="3.58408">
        <ele>1024</ele>
        <time>2022-10-28T09:20:37Z</time>
      </trkpt>
      <trkpt lat="44.38759" lon="3.58406">
        <ele>1024.2</ele>
        <time>2022-10-28T09:20:38Z</time>
      </trkpt>
      <trkpt lat="44.38761" lon="3.58403">
        <ele>1024.4</ele>
        <time>2022-10-28T09:20:39Z</time>
      </trkpt>
      <trkpt lat="44.38762" lon="3.58401">
        <ele>1024.6</ele>
        <time>2022-10-28T09:20:40Z</time>
      </trkpt>
      <trkpt lat="44.38764" lon="3.58398">
        <ele>1025</ele>
        <time>2022-10-28T09:20:41Z</time>
      </trkpt>
      <trkpt lat="44.38765" lon="3.58396">
        <ele>1025.2</ele>
        <time>2022-10-28T09:20:42Z</time>
      </trkpt>
      <trkpt lat="44.38767" lon="3.58394">
        <ele>1025.4</ele>
        <time>2022-10-28T09:20:43Z</time>
      </trkpt>
      <trkpt lat="44.38768" lon="3.58392">
        <ele>1025.6</ele>
        <time>2022-10-28T09:20:44Z</time>
      </trkpt>
      <trkpt lat="44.3877" lon="3.5839">
        <ele>1025.8</ele>
        <time>2022-10-28T09:20:45Z</time>
      </trkpt>
      <trkpt lat="44.38771" lon="3.58388">
        <ele>1026</ele>
        <time>2022-10-28T09:20:46Z</time>
      </trkpt>
      <trkpt lat="44.38773" lon="3.58386">
        <ele>1026.2</ele>
        <time>2022-10-28T09:20:47Z</time>
      </trkpt>
      <trkpt lat="44.38774" lon="3.58384">
        <ele>1026.4</ele>
        <time>2022-10-28T09:20:48Z</time>
      </trkpt>
      <trkpt lat="44.38776" lon="3.58382">
        <ele>1026.6</ele>
        <time>2022-10-28T09:20:49Z</time>
      </trkpt>
      <trkpt lat="44.38777" lon="3.58379">
        <ele>1026.8</ele>
        <time>2022-10-28T09:20:50Z</time>
      </trkpt>
      <trkpt lat="44.38778" lon="3.58376">
        <ele>1027</ele>
        <time>2022-10-28T09:20:51Z</time>
      </trkpt>
      <trkpt lat="44.38779" lon="3.58374">
        <ele>1027.2</ele>
        <time>2022-10-28T09:20:52Z</time>
      </trkpt>
      <trkpt lat="44.3878" lon="3.58371">
        <ele>1027.4</ele>
        <time>2022-10-28T09:20:53Z</time>
      </trkpt>
      <trkpt lat="44.38782" lon="3.58369">
        <ele>1027.8</ele>
        <time>2022-10-28T09:20:54Z</time>
      </trkpt>
      <trkpt lat="44.38783" lon="3.58366">
        <ele>1028</ele>
        <time>2022-10-28T09:20:55Z</time>
      </trkpt>
      <trkpt lat="44.38783" lon="3.58364">
        <ele>1028.2</ele>
        <time>2022-10-28T09:20:56Z</time>
      </trkpt>
      <trkpt lat="44.38784" lon="3.58361">
        <ele>1028.4</ele>
        <time>2022-10-28T09:20:57Z</time>
      </trkpt>
      <trkpt lat="44.38785" lon="3.58359">
        <ele>1028.6</ele>
        <time>2022-10-28T09:20:58Z</time>
      </trkpt>
      <trkpt lat="44.38786" lon="3.58357">
        <ele>1029</ele>
        <time>2022-10-28T09:20:59Z</time>
      </trkpt>
      <trkpt lat="44.38787" lon="3.58354">
        <ele>1029.2</ele>
        <time>2022-10-28T09:21:00Z</time>
      </trkpt>
      <trkpt lat="44.38788" lon="3.58352">
        <ele>1029.4</ele>
        <time>2022-10-28T09:21:01Z</time>
      </trkpt>
      <trkpt lat="44.38789" lon="3.5835">
        <ele>1029.6</ele>
        <time>2022-10-28T09:21:02Z</time>
      </trkpt>
      <trkpt lat="44.3879" lon="3.58348">
        <ele>1029.8</ele>
        <time>2022-10-28T09:21:03Z</time>
      </trkpt>
      <trkpt lat="44.38791" lon="3.58346">
        <ele>1030.2</ele>
        <time>2022-10-28T09:21:04Z</time>
      </trkpt>
      <trkpt lat="44.38791" lon="3.58344">
        <ele>1030.4</ele>
        <time>2022-10-28T09:21:05Z</time>
      </trkpt>
      <trkpt lat="44.38793" lon="3.58342">
        <ele>1030.6</ele>
        <time>2022-10-28T09:21:06Z</time>
      </trkpt>
      <trkpt lat="44.38794" lon="3.5834">
        <ele>1031</ele>
        <time>2022-10-28T09:21:07Z</time>
      </trkpt>
      <trkpt lat="44.38794" lon="3.58338">
        <ele>1031.2</ele>
        <time>2022-10-28T09:21:08Z</time>
      </trkpt>
      <trkpt lat="44.38795" lon="3.58335">
        <ele>1031.4</ele>
        <time>2022-10-28T09:21:09Z</time>
      </trkpt>
      <trkpt lat="44.38796" lon="3.58333">
        <ele>1031.6</ele>
        <time>2022-10-28T09:21:10Z</time>
      </trkpt>
      <trkpt lat="44.38798" lon="3.58332">
        <ele>1031.8</ele>
        <time>2022-10-28T09:21:11Z</time>
      </trkpt>
      <trkpt lat="44.38799" lon="3.5833">
        <ele>1032</ele>
        <time>2022-10-28T09:21:12Z</time>
      </trkpt>
      <trkpt lat="44.388" lon="3.58328">
        <ele>1032.2</ele>
        <time>2022-10-28T09:21:13Z</time>
      </trkpt>
      <trkpt lat="44.38801" lon="3.58326">
        <ele>1032.4</ele>
        <time>2022-10-28T09:21:14Z</time>
      </trkpt>
      <trkpt lat="44.38802" lon="3.58324">
        <ele>1032.4</ele>
        <time>2022-10-28T09:21:15Z</time>
      </trkpt>
      <trkpt lat="44.38803" lon="3.58322">
        <ele>1032.6</ele>
        <time>2022-10-28T09:21:16Z</time>
      </trkpt>
      <trkpt lat="44.38804" lon="3.5832">
        <ele>1032.8</ele>
        <time>2022-10-28T09:21:17Z</time>
      </trkpt>
      <trkpt lat="44.38806" lon="3.58318">
        <ele>1033</ele>
        <time>2022-10-28T09:21:18Z</time>
      </trkpt>
      <trkpt lat="44.38807" lon="3.58317">
        <ele>1033.2</ele>
        <time>2022-10-28T09:21:19Z</time>
      </trkpt>
      <trkpt lat="44.38809" lon="3.58315">
        <ele>1033.4</ele>
        <time>2022-10-28T09:21:20Z</time>
      </trkpt>
      <trkpt lat="44.3881" lon="3.58313">
        <ele>1033.6</ele>
        <time>2022-10-28T09:21:21Z</time>
      </trkpt>
      <trkpt lat="44.38811" lon="3.58312">
        <ele>1033.8</ele>
        <time>2022-10-28T09:21:22Z</time>
      </trkpt>
      <trkpt lat="44.38812" lon="3.5831">
        <ele>1034</ele>
        <time>2022-10-28T09:21:23Z</time>
      </trkpt>
      <trkpt lat="44.38814" lon="3.58308">
        <ele>1034.2</ele>
        <time>2022-10-28T09:21:24Z</time>
      </trkpt>
      <trkpt lat="44.38815" lon="3.58306">
        <ele>1034.4</ele>
        <time>2022-10-28T09:21:25Z</time>
      </trkpt>
      <trkpt lat="44.38817" lon="3.58304">
        <ele>1034.6</ele>
        <time>2022-10-28T09:21:26Z</time>
      </trkpt>
      <trkpt lat="44.38818" lon="3.58302">
        <ele>1034.8</ele>
        <time>2022-10-28T09:21:27Z</time>
      </trkpt>
      <trkpt lat="44.38819" lon="3.583">
        <ele>1035</ele>
        <time>2022-10-28T09:21:28Z</time>
      </trkpt>
      <trkpt lat="44.38821" lon="3.58299">
        <ele>1035.2</ele>
        <time>2022-10-28T09:21:29Z</time>
      </trkpt>
      <trkpt lat="44.38822" lon="3.58298">
        <ele>1035.4</ele>
        <time>2022-10-28T09:21:30Z</time>
      </trkpt>
      <trkpt lat="44.38824" lon="3.58296">
        <ele>1035.6</ele>
        <time>2022-10-28T09:21:31Z</time>
      </trkpt>
      <trkpt lat="44.38825" lon="3.58295">
        <ele>1035.8</ele>
        <time>2022-10-28T09:21:32Z</time>
      </trkpt>
      <trkpt lat="44.38827" lon="3.58293">
        <ele>1036.2</ele>
        <time>2022-10-28T09:21:33Z</time>
      </trkpt>
      <trkpt lat="44.38828" lon="3.58292">
        <ele>1036.4</ele>
        <time>2022-10-28T09:21:34Z</time>
      </trkpt>
      <trkpt lat="44.38829" lon="3.5829">
        <ele>1036.6</ele>
        <time>2022-10-28T09:21:35Z</time>
      </trkpt>
      <trkpt lat="44.38831" lon="3.58288">
        <ele>1036.8</ele>
        <time>2022-10-28T09:21:36Z</time>
      </trkpt>
      <trkpt lat="44.38832" lon="3.58287">
        <ele>1037</ele>
        <time>2022-10-28T09:21:37Z</time>
      </trkpt>
      <trkpt lat="44.38833" lon="3.58285">
        <ele>1037.2</ele>
        <time>2022-10-28T09:21:38Z</time>
      </trkpt>
      <trkpt lat="44.38835" lon="3.58284">
        <ele>1037.6</ele>
        <time>2022-10-28T09:21:39Z</time>
      </trkpt>
      <trkpt lat="44.38836" lon="3.58283">
        <ele>1037.8</ele>
        <time>2022-10-28T09:21:40Z</time>
      </trkpt>
      <trkpt lat="44.38838" lon="3.58282">
        <ele>1038</ele>
        <time>2022-10-28T09:21:41Z</time>
      </trkpt>
      <trkpt lat="44.38839" lon="3.58281">
        <ele>1038.4</ele>
        <time>2022-10-28T09:21:42Z</time>
      </trkpt>
      <trkpt lat="44.38841" lon="3.5828">
        <ele>1038.6</ele>
        <time>2022-10-28T09:21:43Z</time>
      </trkpt>
      <trkpt lat="44.38842" lon="3.58279">
        <ele>1038.8</ele>
        <time>2022-10-28T09:21:44Z</time>
      </trkpt>
      <trkpt lat="44.38843" lon="3.58278">
        <ele>1039</ele>
        <time>2022-10-28T09:21:45Z</time>
      </trkpt>
      <trkpt lat="44.38845" lon="3.58276">
        <ele>1039.2</ele>
        <time>2022-10-28T09:21:46Z</time>
      </trkpt>
      <trkpt lat="44.38846" lon="3.58275">
        <ele>1039.4</ele>
        <time>2022-10-28T09:21:47Z</time>
      </trkpt>
      <trkpt lat="44.38848" lon="3.58273">
        <ele>1039.6</ele>
        <time>2022-10-28T09:21:48Z</time>
      </trkpt>
      <trkpt lat="44.38849" lon="3.58272">
        <ele>1039.8</ele>
        <time>2022-10-28T09:21:49Z</time>
      </trkpt>
      <trkpt lat="44.38851" lon="3.5827">
        <ele>1040</ele>
        <time>2022-10-28T09:21:50Z</time>
      </trkpt>
      <trkpt lat="44.38852" lon="3.58269">
        <ele>1040.2</ele>
        <time>2022-10-28T09:21:51Z</time>
      </trkpt>
      <trkpt lat="44.38853" lon="3.58267">
        <ele>1040.4</ele>
        <time>2022-10-28T09:21:52Z</time>
      </trkpt>
      <trkpt lat="44.38855" lon="3.58266">
        <ele>1040.6</ele>
        <time>2022-10-28T09:21:53Z</time>
      </trkpt>
      <trkpt lat="44.38856" lon="3.58265">
        <ele>1040.8</ele>
        <time>2022-10-28T09:21:54Z</time>
      </trkpt>
      <trkpt lat="44.38858" lon="3.58265">
        <ele>1041</ele>
        <time>2022-10-28T09:21:55Z</time>
      </trkpt>
      <trkpt lat="44.38859" lon="3.58264">
        <ele>1041.2</ele>
        <time>2022-10-28T09:21:56Z</time>
      </trkpt>
      <trkpt lat="44.38861" lon="3.58264">
        <ele>1041.4</ele>
        <time>2022-10-28T09:21:57Z</time>
      </trkpt>
      <trkpt lat="44.38862" lon="3.58263">
        <ele>1041.4</ele>
        <time>2022-10-28T09:21:58Z</time>
      </trkpt>
      <trkpt lat="44.38864" lon="3.58262">
        <ele>1041.6</ele>
        <time>2022-10-28T09:21:59Z</time>
      </trkpt>
      <trkpt lat="44.38866" lon="3.58262">
        <ele>1042</ele>
        <time>2022-10-28T09:22:00Z</time>
      </trkpt>
      <trkpt lat="44.38867" lon="3.58261">
        <ele>1042.2</ele>
        <time>2022-10-28T09:22:01Z</time>
      </trkpt>
      <trkpt lat="44.38869" lon="3.5826">
        <ele>1042.4</ele>
        <time>2022-10-28T09:22:02Z</time>
      </trkpt>
      <trkpt lat="44.3887" lon="3.58259">
        <ele>1042.6</ele>
        <time>2022-10-28T09:22:03Z</time>
      </trkpt>
      <trkpt lat="44.38872" lon="3.58258">
        <ele>1042.6</ele>
        <time>2022-10-28T09:22:04Z</time>
      </trkpt>
      <trkpt lat="44.38873" lon="3.58257">
        <ele>1042.8</ele>
        <time>2022-10-28T09:22:05Z</time>
      </trkpt>
      <trkpt lat="44.38875" lon="3.58256">
        <ele>1043</ele>
        <time>2022-10-28T09:22:06Z</time>
      </trkpt>
      <trkpt lat="44.38877" lon="3.58255">
        <ele>1043.2</ele>
        <time>2022-10-28T09:22:07Z</time>
      </trkpt>
      <trkpt lat="44.38878" lon="3.58254">
        <ele>1043.4</ele>
        <time>2022-10-28T09:22:08Z</time>
      </trkpt>
      <trkpt lat="44.3888" lon="3.58253">
        <ele>1043.6</ele>
        <time>2022-10-28T09:22:09Z</time>
      </trkpt>
      <trkpt lat="44.38882" lon="3.58252">
        <ele>1043.8</ele>
        <time>2022-10-28T09:22:10Z</time>
      </trkpt>
      <trkpt lat="44.38883" lon="3.58252">
        <ele>1044</ele>
        <time>2022-10-28T09:22:11Z</time>
      </trkpt>
      <trkpt lat="44.38885" lon="3.58251">
        <ele>1044.2</ele>
        <time>2022-10-28T09:22:12Z</time>
      </trkpt>
      <trkpt lat="44.38886" lon="3.58251">
        <ele>1044.4</ele>
        <time>2022-10-28T09:22:13Z</time>
      </trkpt>
      <trkpt lat="44.38888" lon="3.5825">
        <ele>1044.6</ele>
        <time>2022-10-28T09:22:14Z</time>
      </trkpt>
      <trkpt lat="44.3889" lon="3.58249">
        <ele>1044.8</ele>
        <time>2022-10-28T09:22:15Z</time>
      </trkpt>
      <trkpt lat="44.38892" lon="3.58249">
        <ele>1045</ele>
        <time>2022-10-28T09:22:16Z</time>
      </trkpt>
      <trkpt lat="44.38894" lon="3.58249">
        <ele>1045</ele>
        <time>2022-10-28T09:22:17Z</time>
      </trkpt>
      <trkpt lat="44.38895" lon="3.58248">
        <ele>1045.2</ele>
        <time>2022-10-28T09:22:18Z</time>
      </trkpt>
      <trkpt lat="44.38897" lon="3.58248">
        <ele>1045.4</ele>
        <time>2022-10-28T09:22:19Z</time>
      </trkpt>
      <trkpt lat="44.38898" lon="3.58248">
        <ele>1045.6</ele>
        <time>2022-10-28T09:22:20Z</time>
      </trkpt>
      <trkpt lat="44.389" lon="3.58247">
        <ele>1045.8</ele>
        <time>2022-10-28T09:22:21Z</time>
      </trkpt>
      <trkpt lat="44.38902" lon="3.58246">
        <ele>1046</ele>
        <time>2022-10-28T09:22:22Z</time>
      </trkpt>
      <trkpt lat="44.38904" lon="3.58246">
        <ele>1046.2</ele>
        <time>2022-10-28T09:22:23Z</time>
      </trkpt>
      <trkpt lat="44.38906" lon="3.58245">
        <ele>1046.4</ele>
        <time>2022-10-28T09:22:24Z</time>
      </trkpt>
      <trkpt lat="44.38908" lon="3.58245">
        <ele>1046.4</ele>
        <time>2022-10-28T09:22:25Z</time>
      </trkpt>
      <trkpt lat="44.38909" lon="3.58244">
        <ele>1046.6</ele>
        <time>2022-10-28T09:22:26Z</time>
      </trkpt>
      <trkpt lat="44.38911" lon="3.58243">
        <ele>1046.8</ele>
        <time>2022-10-28T09:22:27Z</time>
      </trkpt>
      <trkpt lat="44.38913" lon="3.58243">
        <ele>1047</ele>
        <time>2022-10-28T09:22:28Z</time>
      </trkpt>
      <trkpt lat="44.38915" lon="3.58242">
        <ele>1047.2</ele>
        <time>2022-10-28T09:22:29Z</time>
      </trkpt>
      <trkpt lat="44.38916" lon="3.58241">
        <ele>1047.6</ele>
        <time>2022-10-28T09:22:30Z</time>
      </trkpt>
      <trkpt lat="44.38918" lon="3.5824">
        <ele>1047.8</ele>
        <time>2022-10-28T09:22:31Z</time>
      </trkpt>
      <trkpt lat="44.3892" lon="3.5824">
        <ele>1048</ele>
        <time>2022-10-28T09:22:32Z</time>
      </trkpt>
      <trkpt lat="44.38921" lon="3.58239">
        <ele>1048.2</ele>
        <time>2022-10-28T09:22:33Z</time>
      </trkpt>
      <trkpt lat="44.38923" lon="3.58239">
        <ele>1048.4</ele>
        <time>2022-10-28T09:22:34Z</time>
      </trkpt>
      <trkpt lat="44.38925" lon="3.58238">
        <ele>1048.6</ele>
        <time>2022-10-28T09:22:35Z</time>
      </trkpt>
      <trkpt lat="44.38926" lon="3.58237">
        <ele>1048.8</ele>
        <time>2022-10-28T09:22:36Z</time>
      </trkpt>
      <trkpt lat="44.38928" lon="3.58236">
        <ele>1049.2</ele>
        <time>2022-10-28T09:22:37Z</time>
      </trkpt>
      <trkpt lat="44.3893" lon="3.58235">
        <ele>1049.4</ele>
        <time>2022-10-28T09:22:38Z</time>
      </trkpt>
      <trkpt lat="44.38931" lon="3.58235">
        <ele>1049.6</ele>
        <time>2022-10-28T09:22:39Z</time>
      </trkpt>
      <trkpt lat="44.38933" lon="3.58234">
        <ele>1049.8</ele>
        <time>2022-10-28T09:22:40Z</time>
      </trkpt>
      <trkpt lat="44.38934" lon="3.58233">
        <ele>1050.2</ele>
        <time>2022-10-28T09:22:41Z</time>
      </trkpt>
      <trkpt lat="44.38936" lon="3.58232">
        <ele>1050.4</ele>
        <time>2022-10-28T09:22:42Z</time>
      </trkpt>
      <trkpt lat="44.38937" lon="3.58231">
        <ele>1050.6</ele>
        <time>2022-10-28T09:22:43Z</time>
      </trkpt>
      <trkpt lat="44.38939" lon="3.5823">
        <ele>1051</ele>
        <time>2022-10-28T09:22:44Z</time>
      </trkpt>
      <trkpt lat="44.3894" lon="3.58229">
        <ele>1051.2</ele>
        <time>2022-10-28T09:22:45Z</time>
      </trkpt>
      <trkpt lat="44.38942" lon="3.58229">
        <ele>1051.6</ele>
        <time>2022-10-28T09:22:46Z</time>
      </trkpt>
      <trkpt lat="44.38943" lon="3.58228">
        <ele>1051.8</ele>
        <time>2022-10-28T09:22:47Z</time>
      </trkpt>
      <trkpt lat="44.38945" lon="3.58226">
        <ele>1052.2</ele>
        <time>2022-10-28T09:22:48Z</time>
      </trkpt>
      <trkpt lat="44.38946" lon="3.58225">
        <ele>1052.4</ele>
        <time>2022-10-28T09:22:49Z</time>
      </trkpt>
      <trkpt lat="44.38948" lon="3.58224">
        <ele>1052.8</ele>
        <time>2022-10-28T09:22:50Z</time>
      </trkpt>
      <trkpt lat="44.38949" lon="3.58223">
        <ele>1053</ele>
        <time>2022-10-28T09:22:51Z</time>
      </trkpt>
      <trkpt lat="44.3895" lon="3.58222">
        <ele>1053.2</ele>
        <time>2022-10-28T09:22:52Z</time>
      </trkpt>
      <trkpt lat="44.38951" lon="3.58221">
        <ele>1053.4</ele>
        <time>2022-10-28T09:22:53Z</time>
      </trkpt>
      <trkpt lat="44.38953" lon="3.5822">
        <ele>1053.6</ele>
        <time>2022-10-28T09:22:54Z</time>
      </trkpt>
      <trkpt lat="44.38955" lon="3.58219">
        <ele>1054</ele>
        <time>2022-10-28T09:22:55Z</time>
      </trkpt>
      <trkpt lat="44.38956" lon="3.58218">
        <ele>1054.2</ele>
        <time>2022-10-28T09:22:56Z</time>
      </trkpt>
      <trkpt lat="44.38957" lon="3.58217">
        <ele>1054.4</ele>
        <time>2022-10-28T09:22:57Z</time>
      </trkpt>
      <trkpt lat="44.38959" lon="3.58216">
        <ele>1054.6</ele>
        <time>2022-10-28T09:22:58Z</time>
      </trkpt>
      <trkpt lat="44.38961" lon="3.58215">
        <ele>1055</ele>
        <time>2022-10-28T09:22:59Z</time>
      </trkpt>
      <trkpt lat="44.38963" lon="3.58215">
        <ele>1055.2</ele>
        <time>2022-10-28T09:23:00Z</time>
      </trkpt>
      <trkpt lat="44.38965" lon="3.58214">
        <ele>1055.4</ele>
        <time>2022-10-28T09:23:01Z</time>
      </trkpt>
      <trkpt lat="44.38966" lon="3.58214">
        <ele>1055.6</ele>
        <time>2022-10-28T09:23:02Z</time>
      </trkpt>
      <trkpt lat="44.38968" lon="3.58214">
        <ele>1055.8</ele>
        <time>2022-10-28T09:23:03Z</time>
      </trkpt>
      <trkpt lat="44.3897" lon="3.58214">
        <ele>1056.2</ele>
        <time>2022-10-28T09:23:04Z</time>
      </trkpt>
      <trkpt lat="44.38972" lon="3.58214">
        <ele>1056.4</ele>
        <time>2022-10-28T09:23:05Z</time>
      </trkpt>
      <trkpt lat="44.38973" lon="3.58215">
        <ele>1056.6</ele>
        <time>2022-10-28T09:23:06Z</time>
      </trkpt>
      <trkpt lat="44.38975" lon="3.58215">
        <ele>1056.8</ele>
        <time>2022-10-28T09:23:07Z</time>
      </trkpt>
      <trkpt lat="44.38976" lon="3.58215">
        <ele>1057</ele>
        <time>2022-10-28T09:23:08Z</time>
      </trkpt>
      <trkpt lat="44.38978" lon="3.58215">
        <ele>1057</ele>
        <time>2022-10-28T09:23:09Z</time>
      </trkpt>
      <trkpt lat="44.38979" lon="3.58215">
        <ele>1057.2</ele>
        <time>2022-10-28T09:23:10Z</time>
      </trkpt>
      <trkpt lat="44.38981" lon="3.58216">
        <ele>1057.4</ele>
        <time>2022-10-28T09:23:11Z</time>
      </trkpt>
      <trkpt lat="44.38983" lon="3.58216">
        <ele>1057.6</ele>
        <time>2022-10-28T09:23:12Z</time>
      </trkpt>
      <trkpt lat="44.38985" lon="3.58216">
        <ele>1057.6</ele>
        <time>2022-10-28T09:23:13Z</time>
      </trkpt>
      <trkpt lat="44.38987" lon="3.58216">
        <ele>1057.8</ele>
        <time>2022-10-28T09:23:14Z</time>
      </trkpt>
      <trkpt lat="44.38989" lon="3.58216">
        <ele>1057.8</ele>
        <time>2022-10-28T09:23:15Z</time>
      </trkpt>
      <trkpt lat="44.38991" lon="3.58217">
        <ele>1058</ele>
        <time>2022-10-28T09:23:16Z</time>
      </trkpt>
      <trkpt lat="44.38993" lon="3.58218">
        <ele>1058.2</ele>
        <time>2022-10-28T09:23:17Z</time>
      </trkpt>
      <trkpt lat="44.38995" lon="3.58219">
        <ele>1058.2</ele>
        <time>2022-10-28T09:23:18Z</time>
      </trkpt>
      <trkpt lat="44.38997" lon="3.5822">
        <ele>1058.4</ele>
        <time>2022-10-28T09:23:19Z</time>
      </trkpt>
      <trkpt lat="44.38999" lon="3.58221">
        <ele>1058.4</ele>
        <time>2022-10-28T09:23:20Z</time>
      </trkpt>
      <trkpt lat="44.39001" lon="3.58222">
        <ele>1058.6</ele>
        <time>2022-10-28T09:23:21Z</time>
      </trkpt>
      <trkpt lat="44.39003" lon="3.58222">
        <ele>1058.6</ele>
        <time>2022-10-28T09:23:22Z</time>
      </trkpt>
      <trkpt lat="44.39005" lon="3.58223">
        <ele>1058.8</ele>
        <time>2022-10-28T09:23:23Z</time>
      </trkpt>
      <trkpt lat="44.39007" lon="3.58224">
        <ele>1059</ele>
        <time>2022-10-28T09:23:24Z</time>
      </trkpt>
      <trkpt lat="44.39009" lon="3.58225">
        <ele>1059</ele>
        <time>2022-10-28T09:23:25Z</time>
      </trkpt>
      <trkpt lat="44.39011" lon="3.58227">
        <ele>1059.2</ele>
        <time>2022-10-28T09:23:26Z</time>
      </trkpt>
      <trkpt lat="44.39013" lon="3.58228">
        <ele>1059.2</ele>
        <time>2022-10-28T09:23:27Z</time>
      </trkpt>
      <trkpt lat="44.39015" lon="3.58229">
        <ele>1059.4</ele>
        <time>2022-10-28T09:23:28Z</time>
      </trkpt>
      <trkpt lat="44.39017" lon="3.58231">
        <ele>1059.4</ele>
        <time>2022-10-28T09:23:29Z</time>
      </trkpt>
      <trkpt lat="44.39019" lon="3.58232">
        <ele>1059.6</ele>
        <time>2022-10-28T09:23:30Z</time>
      </trkpt>
      <trkpt lat="44.39021" lon="3.58233">
        <ele>1059.6</ele>
        <time>2022-10-28T09:23:31Z</time>
      </trkpt>
      <trkpt lat="44.39024" lon="3.58234">
        <ele>1059.6</ele>
        <time>2022-10-28T09:23:32Z</time>
      </trkpt>
      <trkpt lat="44.39026" lon="3.58235">
        <ele>1059.8</ele>
        <time>2022-10-28T09:23:33Z</time>
      </trkpt>
      <trkpt lat="44.39028" lon="3.58237">
        <ele>1059.8</ele>
        <time>2022-10-28T09:23:34Z</time>
      </trkpt>
      <trkpt lat="44.39031" lon="3.58239">
        <ele>1059.8</ele>
        <time>2022-10-28T09:23:35Z</time>
      </trkpt>
      <trkpt lat="44.39033" lon="3.58241">
        <ele>1059.8</ele>
        <time>2022-10-28T09:23:36Z</time>
      </trkpt>
      <trkpt lat="44.39036" lon="3.58244">
        <ele>1060</ele>
        <time>2022-10-28T09:23:37Z</time>
      </trkpt>
      <trkpt lat="44.39038" lon="3.58246">
        <ele>1060</ele>
        <time>2022-10-28T09:23:38Z</time>
      </trkpt>
      <trkpt lat="44.3904" lon="3.58249">
        <ele>1060</ele>
        <time>2022-10-28T09:23:39Z</time>
      </trkpt>
      <trkpt lat="44.39042" lon="3.58252">
        <ele>1060.2</ele>
        <time>2022-10-28T09:23:40Z</time>
      </trkpt>
      <trkpt lat="44.39044" lon="3.58255">
        <ele>1060.2</ele>
        <time>2022-10-28T09:23:41Z</time>
      </trkpt>
      <trkpt lat="44.39046" lon="3.58258">
        <ele>1060.2</ele>
        <time>2022-10-28T09:23:42Z</time>
      </trkpt>
      <trkpt lat="44.39047" lon="3.58261">
        <ele>1060.2</ele>
        <time>2022-10-28T09:23:43Z</time>
      </trkpt>
      <trkpt lat="44.39049" lon="3.58264">
        <ele>1060.4</ele>
        <time>2022-10-28T09:23:44Z</time>
      </trkpt>
      <trkpt lat="44.39051" lon="3.58267">
        <ele>1060.4</ele>
        <time>2022-10-28T09:23:45Z</time>
      </trkpt>
      <trkpt lat="44.39053" lon="3.58271">
        <ele>1060.4</ele>
        <time>2022-10-28T09:23:46Z</time>
      </trkpt>
      <trkpt lat="44.39054" lon="3.58274">
        <ele>1060.6</ele>
        <time>2022-10-28T09:23:47Z</time>
      </trkpt>
      <trkpt lat="44.39056" lon="3.58277">
        <ele>1060.8</ele>
        <time>2022-10-28T09:23:48Z</time>
      </trkpt>
      <trkpt lat="44.39057" lon="3.5828">
        <ele>1061</ele>
        <time>2022-10-28T09:23:49Z</time>
      </trkpt>
      <trkpt lat="44.39058" lon="3.58283">
        <ele>1061</ele>
        <time>2022-10-28T09:23:50Z</time>
      </trkpt>
      <trkpt lat="44.3906" lon="3.58287">
        <ele>1061.2</ele>
        <time>2022-10-28T09:23:51Z</time>
      </trkpt>
      <trkpt lat="44.39061" lon="3.5829">
        <ele>1061.2</ele>
        <time>2022-10-28T09:23:52Z</time>
      </trkpt>
      <trkpt lat="44.39063" lon="3.58293">
        <ele>1061.4</ele>
        <time>2022-10-28T09:23:53Z</time>
      </trkpt>
      <trkpt lat="44.39064" lon="3.58296">
        <ele>1061.6</ele>
        <time>2022-10-28T09:23:54Z</time>
      </trkpt>
      <trkpt lat="44.39065" lon="3.58298">
        <ele>1061.8</ele>
        <time>2022-10-28T09:23:55Z</time>
      </trkpt>
      <trkpt lat="44.39066" lon="3.58301">
        <ele>1062</ele>
        <time>2022-10-28T09:23:56Z</time>
      </trkpt>
      <trkpt lat="44.39067" lon="3.58303">
        <ele>1062.4</ele>
        <time>2022-10-28T09:23:57Z</time>
      </trkpt>
      <trkpt lat="44.39069" lon="3.58305">
        <ele>1062.6</ele>
        <time>2022-10-28T09:23:58Z</time>
      </trkpt>
      <trkpt lat="44.3907" lon="3.58307">
        <ele>1063</ele>
        <time>2022-10-28T09:23:59Z</time>
      </trkpt>
      <trkpt lat="44.39071" lon="3.58308">
        <ele>1063.2</ele>
        <time>2022-10-28T09:24:00Z</time>
      </trkpt>
      <trkpt lat="44.39072" lon="3.5831">
        <ele>1063.6</ele>
        <time>2022-10-28T09:24:01Z</time>
      </trkpt>
      <trkpt lat="44.39072" lon="3.58312">
        <ele>1063.8</ele>
        <time>2022-10-28T09:24:02Z</time>
      </trkpt>
      <trkpt lat="44.39073" lon="3.58314">
        <ele>1064</ele>
        <time>2022-10-28T09:24:03Z</time>
      </trkpt>
      <trkpt lat="44.39074" lon="3.58316">
        <ele>1064.2</ele>
        <time>2022-10-28T09:24:04Z</time>
      </trkpt>
      <trkpt lat="44.39075" lon="3.58319">
        <ele>1064.4</ele>
        <time>2022-10-28T09:24:05Z</time>
      </trkpt>
      <trkpt lat="44.39077" lon="3.58321">
        <ele>1064.6</ele>
        <time>2022-10-28T09:24:06Z</time>
      </trkpt>
      <trkpt lat="44.39078" lon="3.58323">
        <ele>1064.8</ele>
        <time>2022-10-28T09:24:07Z</time>
      </trkpt>
      <trkpt lat="44.39079" lon="3.58325">
        <ele>1065</ele>
        <time>2022-10-28T09:24:08Z</time>
      </trkpt>
      <trkpt lat="44.39081" lon="3.58327">
        <ele>1065.4</ele>
        <time>2022-10-28T09:24:09Z</time>
      </trkpt>
      <trkpt lat="44.39083" lon="3.58329">
        <ele>1065.6</ele>
        <time>2022-10-28T09:24:10Z</time>
      </trkpt>
      <trkpt lat="44.39084" lon="3.58331">
        <ele>1065.8</ele>
        <time>2022-10-28T09:24:11Z</time>
      </trkpt>
      <trkpt lat="44.39086" lon="3.58332">
        <ele>1066</ele>
        <time>2022-10-28T09:24:12Z</time>
      </trkpt>
      <trkpt lat="44.39087" lon="3.58334">
        <ele>1066.4</ele>
        <time>2022-10-28T09:24:13Z</time>
      </trkpt>
      <trkpt lat="44.39089" lon="3.58336">
        <ele>1066.6</ele>
        <time>2022-10-28T09:24:14Z</time>
      </trkpt>
      <trkpt lat="44.3909" lon="3.58338">
        <ele>1066.8</ele>
        <time>2022-10-28T09:24:15Z</time>
      </trkpt>
      <trkpt lat="44.39091" lon="3.5834">
        <ele>1067</ele>
        <time>2022-10-28T09:24:16Z</time>
      </trkpt>
      <trkpt lat="44.39093" lon="3.58342">
        <ele>1067.2</ele>
        <time>2022-10-28T09:24:17Z</time>
      </trkpt>
      <trkpt lat="44.39094" lon="3.58344">
        <ele>1067.6</ele>
        <time>2022-10-28T09:24:18Z</time>
      </trkpt>
      <trkpt lat="44.39096" lon="3.58346">
        <ele>1067.8</ele>
        <time>2022-10-28T09:24:19Z</time>
      </trkpt>
      <trkpt lat="44.39097" lon="3.58347">
        <ele>1068.2</ele>
        <time>2022-10-28T09:24:20Z</time>
      </trkpt>
      <trkpt lat="44.39099" lon="3.58349">
        <ele>1068.4</ele>
        <time>2022-10-28T09:24:21Z</time>
      </trkpt>
      <trkpt lat="44.39101" lon="3.5835">
        <ele>1068.6</ele>
        <time>2022-10-28T09:24:22Z</time>
      </trkpt>
      <trkpt lat="44.39102" lon="3.58352">
        <ele>1068.8</ele>
        <time>2022-10-28T09:24:23Z</time>
      </trkpt>
      <trkpt lat="44.39104" lon="3.58354">
        <ele>1069</ele>
        <time>2022-10-28T09:24:24Z</time>
      </trkpt>
      <trkpt lat="44.39105" lon="3.58356">
        <ele>1069</ele>
        <time>2022-10-28T09:24:25Z</time>
      </trkpt>
      <trkpt lat="44.39107" lon="3.58357">
        <ele>1069.2</ele>
        <time>2022-10-28T09:24:26Z</time>
      </trkpt>
      <trkpt lat="44.39109" lon="3.58358">
        <ele>1069.2</ele>
        <time>2022-10-28T09:24:27Z</time>
      </trkpt>
      <trkpt lat="44.39111" lon="3.5836">
        <ele>1069.4</ele>
        <time>2022-10-28T09:24:28Z</time>
      </trkpt>
      <trkpt lat="44.39113" lon="3.58361">
        <ele>1069.4</ele>
        <time>2022-10-28T09:24:29Z</time>
      </trkpt>
      <trkpt lat="44.39114" lon="3.58363">
        <ele>1069.6</ele>
        <time>2022-10-28T09:24:30Z</time>
      </trkpt>
      <trkpt lat="44.39116" lon="3.58365">
        <ele>1069.6</ele>
        <time>2022-10-28T09:24:31Z</time>
      </trkpt>
      <trkpt lat="44.39117" lon="3.58367">
        <ele>1069.8</ele>
        <time>2022-10-28T09:24:32Z</time>
      </trkpt>
      <trkpt lat="44.39118" lon="3.58369">
        <ele>1070</ele>
        <time>2022-10-28T09:24:33Z</time>
      </trkpt>
      <trkpt lat="44.39119" lon="3.58372">
        <ele>1070</ele>
        <time>2022-10-28T09:24:34Z</time>
      </trkpt>
      <trkpt lat="44.3912" lon="3.58374">
        <ele>1070.2</ele>
        <time>2022-10-28T09:24:35Z</time>
      </trkpt>
      <trkpt lat="44.3912" lon="3.58376">
        <ele>1070.6</ele>
        <time>2022-10-28T09:24:36Z</time>
      </trkpt>
      <trkpt lat="44.39121" lon="3.58378">
        <ele>1070.8</ele>
        <time>2022-10-28T09:24:37Z</time>
      </trkpt>
      <trkpt lat="44.39123" lon="3.5838">
        <ele>1071</ele>
        <time>2022-10-28T09:24:38Z</time>
      </trkpt>
      <trkpt lat="44.39124" lon="3.58383">
        <ele>1071</ele>
        <time>2022-10-28T09:24:39Z</time>
      </trkpt>
      <trkpt lat="44.39125" lon="3.58384">
        <ele>1071.4</ele>
        <time>2022-10-28T09:24:40Z</time>
      </trkpt>
      <trkpt lat="44.39126" lon="3.58386">
        <ele>1071.4</ele>
        <time>2022-10-28T09:24:41Z</time>
      </trkpt>
      <trkpt lat="44.39128" lon="3.58389">
        <ele>1071.6</ele>
        <time>2022-10-28T09:24:42Z</time>
      </trkpt>
      <trkpt lat="44.39129" lon="3.58391">
        <ele>1072</ele>
        <time>2022-10-28T09:24:43Z</time>
      </trkpt>
      <trkpt lat="44.3913" lon="3.58393">
        <ele>1072.2</ele>
        <time>2022-10-28T09:24:44Z</time>
      </trkpt>
      <trkpt lat="44.39131" lon="3.58395">
        <ele>1072.4</ele>
        <time>2022-10-28T09:24:45Z</time>
      </trkpt>
      <trkpt lat="44.39132" lon="3.58397">
        <ele>1072.6</ele>
        <time>2022-10-28T09:24:46Z</time>
      </trkpt>
      <trkpt lat="44.39133" lon="3.58399">
        <ele>1072.8</ele>
        <time>2022-10-28T09:24:47Z</time>
      </trkpt>
      <trkpt lat="44.39133" lon="3.58401">
        <ele>1073</ele>
        <time>2022-10-28T09:24:48Z</time>
      </trkpt>
      <trkpt lat="44.39134" lon="3.58403">
        <ele>1073.2</ele>
        <time>2022-10-28T09:24:49Z</time>
      </trkpt>
      <trkpt lat="44.39135" lon="3.58405">
        <ele>1073.2</ele>
        <time>2022-10-28T09:24:50Z</time>
      </trkpt>
      <trkpt lat="44.39136" lon="3.58407">
        <ele>1073.4</ele>
        <time>2022-10-28T09:24:51Z</time>
      </trkpt>
      <trkpt lat="44.39137" lon="3.5841">
        <ele>1073.4</ele>
        <time>2022-10-28T09:24:52Z</time>
      </trkpt>
      <trkpt lat="44.39137" lon="3.58412">
        <ele>1073.6</ele>
        <time>2022-10-28T09:24:53Z</time>
      </trkpt>
      <trkpt lat="44.39138" lon="3.58414">
        <ele>1073.8</ele>
        <time>2022-10-28T09:24:54Z</time>
      </trkpt>
      <trkpt lat="44.39139" lon="3.58416">
        <ele>1074</ele>
        <time>2022-10-28T09:24:55Z</time>
      </trkpt>
      <trkpt lat="44.39139" lon="3.58419">
        <ele>1074.4</ele>
        <time>2022-10-28T09:24:56Z</time>
      </trkpt>
      <trkpt lat="44.3914" lon="3.58421">
        <ele>1074.6</ele>
        <time>2022-10-28T09:24:57Z</time>
      </trkpt>
      <trkpt lat="44.39141" lon="3.58423">
        <ele>1074.8</ele>
        <time>2022-10-28T09:24:58Z</time>
      </trkpt>
      <trkpt lat="44.39141" lon="3.58425">
        <ele>1075</ele>
        <time>2022-10-28T09:24:59Z</time>
      </trkpt>
      <trkpt lat="44.39142" lon="3.58428">
        <ele>1075.2</ele>
        <time>2022-10-28T09:25:00Z</time>
      </trkpt>
      <trkpt lat="44.39143" lon="3.58431">
        <ele>1075.4</ele>
        <time>2022-10-28T09:25:01Z</time>
      </trkpt>
      <trkpt lat="44.39143" lon="3.58433">
        <ele>1075.6</ele>
        <time>2022-10-28T09:25:02Z</time>
      </trkpt>
      <trkpt lat="44.39143" lon="3.58435">
        <ele>1075.8</ele>
        <time>2022-10-28T09:25:03Z</time>
      </trkpt>
      <trkpt lat="44.39144" lon="3.58438">
        <ele>1076</ele>
        <time>2022-10-28T09:25:04Z</time>
      </trkpt>
      <trkpt lat="44.39144" lon="3.5844">
        <ele>1076.2</ele>
        <time>2022-10-28T09:25:05Z</time>
      </trkpt>
      <trkpt lat="44.39144" lon="3.58443">
        <ele>1076.4</ele>
        <time>2022-10-28T09:25:06Z</time>
      </trkpt>
      <trkpt lat="44.39145" lon="3.58445">
        <ele>1076.6</ele>
        <time>2022-10-28T09:25:07Z</time>
      </trkpt>
      <trkpt lat="44.39145" lon="3.58447">
        <ele>1076.8</ele>
        <time>2022-10-28T09:25:08Z</time>
      </trkpt>
      <trkpt lat="44.39145" lon="3.58449">
        <ele>1077</ele>
        <time>2022-10-28T09:25:09Z</time>
      </trkpt>
      <trkpt lat="44.39145" lon="3.58451">
        <ele>1077.2</ele>
        <time>2022-10-28T09:25:10Z</time>
      </trkpt>
      <trkpt lat="44.39145" lon="3.58453">
        <ele>1077.4</ele>
        <time>2022-10-28T09:25:11Z</time>
      </trkpt>
      <trkpt lat="44.39146" lon="3.58455">
        <ele>1077.6</ele>
        <time>2022-10-28T09:25:12Z</time>
      </trkpt>
      <trkpt lat="44.39146" lon="3.58458">
        <ele>1077.8</ele>
        <time>2022-10-28T09:25:13Z</time>
      </trkpt>
      <trkpt lat="44.39146" lon="3.5846">
        <ele>1078.2</ele>
        <time>2022-10-28T09:25:14Z</time>
      </trkpt>
      <trkpt lat="44.39147" lon="3.58462">
        <ele>1078.4</ele>
        <time>2022-10-28T09:25:15Z</time>
      </trkpt>
      <trkpt lat="44.39147" lon="3.58465">
        <ele>1078.6</ele>
        <time>2022-10-28T09:25:16Z</time>
      </trkpt>
      <trkpt lat="44.39147" lon="3.58467">
        <ele>1078.8</ele>
        <time>2022-10-28T09:25:17Z</time>
      </trkpt>
      <trkpt lat="44.39148" lon="3.58469">
        <ele>1079.2</ele>
        <time>2022-10-28T09:25:18Z</time>
      </trkpt>
      <trkpt lat="44.39148" lon="3.58472">
        <ele>1079.4</ele>
        <time>2022-10-28T09:25:19Z</time>
      </trkpt>
      <trkpt lat="44.39149" lon="3.58474">
        <ele>1079.6</ele>
        <time>2022-10-28T09:25:20Z</time>
      </trkpt>
      <trkpt lat="44.39149" lon="3.58476">
        <ele>1079.8</ele>
        <time>2022-10-28T09:25:21Z</time>
      </trkpt>
      <trkpt lat="44.39149" lon="3.58478">
        <ele>1080.2</ele>
        <time>2022-10-28T09:25:22Z</time>
      </trkpt>
      <trkpt lat="44.3915" lon="3.5848">
        <ele>1080.4</ele>
        <time>2022-10-28T09:25:23Z</time>
      </trkpt>
      <trkpt lat="44.3915" lon="3.58482">
        <ele>1080.6</ele>
        <time>2022-10-28T09:25:24Z</time>
      </trkpt>
      <trkpt lat="44.39151" lon="3.58485">
        <ele>1080.8</ele>
        <time>2022-10-28T09:25:25Z</time>
      </trkpt>
      <trkpt lat="44.39151" lon="3.58487">
        <ele>1081.2</ele>
        <time>2022-10-28T09:25:26Z</time>
      </trkpt>
      <trkpt lat="44.39152" lon="3.58489">
        <ele>1081.4</ele>
        <time>2022-10-28T09:25:27Z</time>
      </trkpt>
      <trkpt lat="44.39152" lon="3.58491">
        <ele>1081.6</ele>
        <time>2022-10-28T09:25:28Z</time>
      </trkpt>
      <trkpt lat="44.39153" lon="3.58493">
        <ele>1081.8</ele>
        <time>2022-10-28T09:25:29Z</time>
      </trkpt>
      <trkpt lat="44.39153" lon="3.58495">
        <ele>1082</ele>
        <time>2022-10-28T09:25:30Z</time>
      </trkpt>
      <trkpt lat="44.39154" lon="3.58497">
        <ele>1082.2</ele>
        <time>2022-10-28T09:25:31Z</time>
      </trkpt>
      <trkpt lat="44.39154" lon="3.58499">
        <ele>1082.4</ele>
        <time>2022-10-28T09:25:32Z</time>
      </trkpt>
      <trkpt lat="44.39155" lon="3.58501">
        <ele>1082.4</ele>
        <time>2022-10-28T09:25:33Z</time>
      </trkpt>
      <trkpt lat="44.39155" lon="3.58504">
        <ele>1082.6</ele>
        <time>2022-10-28T09:25:34Z</time>
      </trkpt>
      <trkpt lat="44.39156" lon="3.58506">
        <ele>1082.8</ele>
        <time>2022-10-28T09:25:35Z</time>
      </trkpt>
      <trkpt lat="44.39157" lon="3.58508">
        <ele>1082.8</ele>
        <time>2022-10-28T09:25:36Z</time>
      </trkpt>
      <trkpt lat="44.39157" lon="3.5851">
        <ele>1083</ele>
        <time>2022-10-28T09:25:37Z</time>
      </trkpt>
      <trkpt lat="44.39158" lon="3.58513">
        <ele>1083</ele>
        <time>2022-10-28T09:25:38Z</time>
      </trkpt>
      <trkpt lat="44.39159" lon="3.58516">
        <ele>1083.2</ele>
        <time>2022-10-28T09:25:39Z</time>
      </trkpt>
      <trkpt lat="44.3916" lon="3.58519">
        <ele>1083.4</ele>
        <time>2022-10-28T09:25:40Z</time>
      </trkpt>
      <trkpt lat="44.39161" lon="3.58522">
        <ele>1083.4</ele>
        <time>2022-10-28T09:25:41Z</time>
      </trkpt>
      <trkpt lat="44.39163" lon="3.58526">
        <ele>1083.6</ele>
        <time>2022-10-28T09:25:42Z</time>
      </trkpt>
      <trkpt lat="44.39164" lon="3.58529">
        <ele>1083.6</ele>
        <time>2022-10-28T09:25:43Z</time>
      </trkpt>
      <trkpt lat="44.39166" lon="3.58531">
        <ele>1083.6</ele>
        <time>2022-10-28T09:25:44Z</time>
      </trkpt>
      <trkpt lat="44.39168" lon="3.58534">
        <ele>1083.6</ele>
        <time>2022-10-28T09:25:45Z</time>
      </trkpt>
      <trkpt lat="44.3917" lon="3.58537">
        <ele>1083.8</ele>
        <time>2022-10-28T09:25:46Z</time>
      </trkpt>
      <trkpt lat="44.39172" lon="3.58539">
        <ele>1083.6</ele>
        <time>2022-10-28T09:25:47Z</time>
      </trkpt>
      <trkpt lat="44.39174" lon="3.58541">
        <ele>1083.6</ele>
        <time>2022-10-28T09:25:48Z</time>
      </trkpt>
      <trkpt lat="44.39177" lon="3.58543">
        <ele>1083.6</ele>
        <time>2022-10-28T09:25:49Z</time>
      </trkpt>
      <trkpt lat="44.39179" lon="3.58545">
        <ele>1083.6</ele>
        <time>2022-10-28T09:25:50Z</time>
      </trkpt>
      <trkpt lat="44.39182" lon="3.58546">
        <ele>1083.6</ele>
        <time>2022-10-28T09:25:51Z</time>
      </trkpt>
      <trkpt lat="44.39185" lon="3.58546">
        <ele>1083.6</ele>
        <time>2022-10-28T09:25:52Z</time>
      </trkpt>
      <trkpt lat="44.39188" lon="3.58547">
        <ele>1083.6</ele>
        <time>2022-10-28T09:25:53Z</time>
      </trkpt>
      <trkpt lat="44.39191" lon="3.58546">
        <ele>1083.6</ele>
        <time>2022-10-28T09:25:54Z</time>
      </trkpt>
      <trkpt lat="44.39195" lon="3.58546">
        <ele>1083.4</ele>
        <time>2022-10-28T09:25:55Z</time>
      </trkpt>
      <trkpt lat="44.39198" lon="3.58546">
        <ele>1083.4</ele>
        <time>2022-10-28T09:25:56Z</time>
      </trkpt>
      <trkpt lat="44.39201" lon="3.58545">
        <ele>1083.4</ele>
        <time>2022-10-28T09:25:57Z</time>
      </trkpt>
      <trkpt lat="44.39204" lon="3.58544">
        <ele>1083.2</ele>
        <time>2022-10-28T09:25:58Z</time>
      </trkpt>
      <trkpt lat="44.39208" lon="3.58543">
        <ele>1083.2</ele>
        <time>2022-10-28T09:25:59Z</time>
      </trkpt>
      <trkpt lat="44.39211" lon="3.58542">
        <ele>1083.2</ele>
        <time>2022-10-28T09:26:00Z</time>
      </trkpt>
      <trkpt lat="44.39215" lon="3.58541">
        <ele>1083</ele>
        <time>2022-10-28T09:26:01Z</time>
      </trkpt>
      <trkpt lat="44.39218" lon="3.5854">
        <ele>1083</ele>
        <time>2022-10-28T09:26:02Z</time>
      </trkpt>
      <trkpt lat="44.39222" lon="3.58538">
        <ele>1083</ele>
        <time>2022-10-28T09:26:03Z</time>
      </trkpt>
      <trkpt lat="44.39227" lon="3.58536">
        <ele>1082.8</ele>
        <time>2022-10-28T09:26:04Z</time>
      </trkpt>
      <trkpt lat="44.39232" lon="3.58534">
        <ele>1082.8</ele>
        <time>2022-10-28T09:26:05Z</time>
      </trkpt>
      <trkpt lat="44.39237" lon="3.58531">
        <ele>1082.6</ele>
        <time>2022-10-28T09:26:06Z</time>
      </trkpt>
      <trkpt lat="44.39243" lon="3.58528">
        <ele>1082.4</ele>
        <time>2022-10-28T09:26:07Z</time>
      </trkpt>
      <trkpt lat="44.39248" lon="3.58525">
        <ele>1082.2</ele>
        <time>2022-10-28T09:26:08Z</time>
      </trkpt>
      <trkpt lat="44.39254" lon="3.58523">
        <ele>1081.8</ele>
        <time>2022-10-28T09:26:09Z</time>
      </trkpt>
      <trkpt lat="44.39259" lon="3.58521">
        <ele>1081.4</ele>
        <time>2022-10-28T09:26:10Z</time>
      </trkpt>
      <trkpt lat="44.39264" lon="3.58519">
        <ele>1081.2</ele>
        <time>2022-10-28T09:26:11Z</time>
      </trkpt>
      <trkpt lat="44.39269" lon="3.58517">
        <ele>1081</ele>
        <time>2022-10-28T09:26:12Z</time>
      </trkpt>
      <trkpt lat="44.39273" lon="3.58515">
        <ele>1081</ele>
        <time>2022-10-28T09:26:13Z</time>
      </trkpt>
      <trkpt lat="44.39278" lon="3.58512">
        <ele>1081.2</ele>
        <time>2022-10-28T09:26:14Z</time>
      </trkpt>
      <trkpt lat="44.39282" lon="3.5851">
        <ele>1081.4</ele>
        <time>2022-10-28T09:26:15Z</time>
      </trkpt>
      <trkpt lat="44.39286" lon="3.58508">
        <ele>1081.4</ele>
        <time>2022-10-28T09:26:16Z</time>
      </trkpt>
      <trkpt lat="44.39291" lon="3.58505">
        <ele>1081.6</ele>
        <time>2022-10-28T09:26:17Z</time>
      </trkpt>
      <trkpt lat="44.39295" lon="3.58503">
        <ele>1081.6</ele>
        <time>2022-10-28T09:26:18Z</time>
      </trkpt>
      <trkpt lat="44.39299" lon="3.58501">
        <ele>1081.8</ele>
        <time>2022-10-28T09:26:19Z</time>
      </trkpt>
      <trkpt lat="44.39303" lon="3.58499">
        <ele>1081.8</ele>
        <time>2022-10-28T09:26:20Z</time>
      </trkpt>
      <trkpt lat="44.39306" lon="3.58497">
        <ele>1082</ele>
        <time>2022-10-28T09:26:21Z</time>
      </trkpt>
      <trkpt lat="44.39309" lon="3.58495">
        <ele>1082</ele>
        <time>2022-10-28T09:26:22Z</time>
      </trkpt>
      <trkpt lat="44.39311" lon="3.58493">
        <ele>1082.2</ele>
        <time>2022-10-28T09:26:23Z</time>
      </trkpt>
      <trkpt lat="44.39313" lon="3.58492">
        <ele>1082.4</ele>
        <time>2022-10-28T09:26:24Z</time>
      </trkpt>
      <trkpt lat="44.39315" lon="3.5849">
        <ele>1082.4</ele>
        <time>2022-10-28T09:26:25Z</time>
      </trkpt>
      <trkpt lat="44.39318" lon="3.58488">
        <ele>1082.6</ele>
        <time>2022-10-28T09:26:26Z</time>
      </trkpt>
      <trkpt lat="44.3932" lon="3.58487">
        <ele>1082.8</ele>
        <time>2022-10-28T09:26:27Z</time>
      </trkpt>
      <trkpt lat="44.39323" lon="3.58486">
        <ele>1083</ele>
        <time>2022-10-28T09:26:28Z</time>
      </trkpt>
      <trkpt lat="44.39325" lon="3.58485">
        <ele>1083</ele>
        <time>2022-10-28T09:26:29Z</time>
      </trkpt>
      <trkpt lat="44.39328" lon="3.58484">
        <ele>1083.2</ele>
        <time>2022-10-28T09:26:30Z</time>
      </trkpt>
      <trkpt lat="44.39331" lon="3.58483">
        <ele>1083.2</ele>
        <time>2022-10-28T09:26:31Z</time>
      </trkpt>
      <trkpt lat="44.39334" lon="3.58482">
        <ele>1083.4</ele>
        <time>2022-10-28T09:26:32Z</time>
      </trkpt>
      <trkpt lat="44.39337" lon="3.58482">
        <ele>1083.4</ele>
        <time>2022-10-28T09:26:33Z</time>
      </trkpt>
      <trkpt lat="44.3934" lon="3.58482">
        <ele>1083.4</ele>
        <time>2022-10-28T09:26:34Z</time>
      </trkpt>
      <trkpt lat="44.39343" lon="3.58482">
        <ele>1083.4</ele>
        <time>2022-10-28T09:26:35Z</time>
      </trkpt>
      <trkpt lat="44.39345" lon="3.58481">
        <ele>1083.4</ele>
        <time>2022-10-28T09:26:36Z</time>
      </trkpt>
      <trkpt lat="44.39348" lon="3.58481">
        <ele>1083.6</ele>
        <time>2022-10-28T09:26:37Z</time>
      </trkpt>
      <trkpt lat="44.39351" lon="3.58481">
        <ele>1083.6</ele>
        <time>2022-10-28T09:26:38Z</time>
      </trkpt>
      <trkpt lat="44.39353" lon="3.58479">
        <ele>1083.6</ele>
        <time>2022-10-28T09:26:39Z</time>
      </trkpt>
      <trkpt lat="44.39355" lon="3.58478">
        <ele>1083.6</ele>
        <time>2022-10-28T09:26:40Z</time>
      </trkpt>
      <trkpt lat="44.39358" lon="3.58476">
        <ele>1083.6</ele>
        <time>2022-10-28T09:26:41Z</time>
      </trkpt>
      <trkpt lat="44.3936" lon="3.58474">
        <ele>1083.6</ele>
        <time>2022-10-28T09:26:42Z</time>
      </trkpt>
      <trkpt lat="44.39363" lon="3.58472">
        <ele>1083.6</ele>
        <time>2022-10-28T09:26:43Z</time>
      </trkpt>
      <trkpt lat="44.39365" lon="3.58469">
        <ele>1083.8</ele>
        <time>2022-10-28T09:26:44Z</time>
      </trkpt>
      <trkpt lat="44.39368" lon="3.58466">
        <ele>1083.8</ele>
        <time>2022-10-28T09:26:45Z</time>
      </trkpt>
      <trkpt lat="44.3937" lon="3.58463">
        <ele>1083.8</ele>
        <time>2022-10-28T09:26:46Z</time>
      </trkpt>
      <trkpt lat="44.39373" lon="3.5846">
        <ele>1083.6</ele>
        <time>2022-10-28T09:26:47Z</time>
      </trkpt>
      <trkpt lat="44.39376" lon="3.58457">
        <ele>1083.6</ele>
        <time>2022-10-28T09:26:48Z</time>
      </trkpt>
      <trkpt lat="44.39379" lon="3.58455">
        <ele>1083.6</ele>
        <time>2022-10-28T09:26:49Z</time>
      </trkpt>
      <trkpt lat="44.39383" lon="3.58453">
        <ele>1083.4</ele>
        <time>2022-10-28T09:26:50Z</time>
      </trkpt>
      <trkpt lat="44.39387" lon="3.58451">
        <ele>1083.2</ele>
        <time>2022-10-28T09:26:51Z</time>
      </trkpt>
      <trkpt lat="44.39392" lon="3.5845">
        <ele>1083</ele>
        <time>2022-10-28T09:26:52Z</time>
      </trkpt>
      <trkpt lat="44.39397" lon="3.58448">
        <ele>1083</ele>
        <time>2022-10-28T09:26:53Z</time>
      </trkpt>
      <trkpt lat="44.39401" lon="3.58447">
        <ele>1082.8</ele>
        <time>2022-10-28T09:26:54Z</time>
      </trkpt>
      <trkpt lat="44.39406" lon="3.58446">
        <ele>1082.6</ele>
        <time>2022-10-28T09:26:55Z</time>
      </trkpt>
      <trkpt lat="44.3941" lon="3.58444">
        <ele>1082.6</ele>
        <time>2022-10-28T09:26:56Z</time>
      </trkpt>
      <trkpt lat="44.39413" lon="3.58442">
        <ele>1082.6</ele>
        <time>2022-10-28T09:26:57Z</time>
      </trkpt>
      <trkpt lat="44.39416" lon="3.58439">
        <ele>1082.6</ele>
        <time>2022-10-28T09:26:58Z</time>
      </trkpt>
      <trkpt lat="44.3942" lon="3.58436">
        <ele>1082.6</ele>
        <time>2022-10-28T09:26:59Z</time>
      </trkpt>
      <trkpt lat="44.39423" lon="3.58433">
        <ele>1082.6</ele>
        <time>2022-10-28T09:27:00Z</time>
      </trkpt>
      <trkpt lat="44.39426" lon="3.5843">
        <ele>1082.6</ele>
        <time>2022-10-28T09:27:01Z</time>
      </trkpt>
      <trkpt lat="44.3943" lon="3.58428">
        <ele>1082.8</ele>
        <time>2022-10-28T09:27:02Z</time>
      </trkpt>
      <trkpt lat="44.39434" lon="3.58425">
        <ele>1082.8</ele>
        <time>2022-10-28T09:27:03Z</time>
      </trkpt>
      <trkpt lat="44.39437" lon="3.58423">
        <ele>1083</ele>
        <time>2022-10-28T09:27:04Z</time>
      </trkpt>
      <trkpt lat="44.3944" lon="3.5842">
        <ele>1083.2</ele>
        <time>2022-10-28T09:27:05Z</time>
      </trkpt>
      <trkpt lat="44.39443" lon="3.58417">
        <ele>1083.2</ele>
        <time>2022-10-28T09:27:06Z</time>
      </trkpt>
      <trkpt lat="44.39445" lon="3.58415">
        <ele>1083.4</ele>
        <time>2022-10-28T09:27:07Z</time>
      </trkpt>
      <trkpt lat="44.39448" lon="3.58413">
        <ele>1083.6</ele>
        <time>2022-10-28T09:27:08Z</time>
      </trkpt>
      <trkpt lat="44.3945" lon="3.5841">
        <ele>1083.8</ele>
        <time>2022-10-28T09:27:09Z</time>
      </trkpt>
      <trkpt lat="44.39452" lon="3.58407">
        <ele>1084</ele>
        <time>2022-10-28T09:27:10Z</time>
      </trkpt>
      <trkpt lat="44.39454" lon="3.58405">
        <ele>1084.2</ele>
        <time>2022-10-28T09:27:11Z</time>
      </trkpt>
      <trkpt lat="44.39457" lon="3.58402">
        <ele>1084.4</ele>
        <time>2022-10-28T09:27:12Z</time>
      </trkpt>
      <trkpt lat="44.39459" lon="3.58399">
        <ele>1084.6</ele>
        <time>2022-10-28T09:27:13Z</time>
      </trkpt>
      <trkpt lat="44.3946" lon="3.58396">
        <ele>1084.8</ele>
        <time>2022-10-28T09:27:14Z</time>
      </trkpt>
      <trkpt lat="44.39462" lon="3.58393">
        <ele>1085</ele>
        <time>2022-10-28T09:27:15Z</time>
      </trkpt>
      <trkpt lat="44.39464" lon="3.5839">
        <ele>1085.2</ele>
        <time>2022-10-28T09:27:16Z</time>
      </trkpt>
      <trkpt lat="44.39466" lon="3.58388">
        <ele>1085.4</ele>
        <time>2022-10-28T09:27:17Z</time>
      </trkpt>
      <trkpt lat="44.39468" lon="3.58385">
        <ele>1085.6</ele>
        <time>2022-10-28T09:27:18Z</time>
      </trkpt>
      <trkpt lat="44.3947" lon="3.58382">
        <ele>1085.6</ele>
        <time>2022-10-28T09:27:19Z</time>
      </trkpt>
      <trkpt lat="44.39472" lon="3.5838">
        <ele>1085.6</ele>
        <time>2022-10-28T09:27:20Z</time>
      </trkpt>
      <trkpt lat="44.39474" lon="3.58377">
        <ele>1085.8</ele>
        <time>2022-10-28T09:27:21Z</time>
      </trkpt>
      <trkpt lat="44.39477" lon="3.58374">
        <ele>1085.8</ele>
        <time>2022-10-28T09:27:22Z</time>
      </trkpt>
      <trkpt lat="44.39479" lon="3.58372">
        <ele>1085.8</ele>
        <time>2022-10-28T09:27:23Z</time>
      </trkpt>
      <trkpt lat="44.39482" lon="3.5837">
        <ele>1085.8</ele>
        <time>2022-10-28T09:27:24Z</time>
      </trkpt>
      <trkpt lat="44.39485" lon="3.58368">
        <ele>1086</ele>
        <time>2022-10-28T09:27:25Z</time>
      </trkpt>
      <trkpt lat="44.39488" lon="3.58367">
        <ele>1086</ele>
        <time>2022-10-28T09:27:26Z</time>
      </trkpt>
      <trkpt lat="44.39491" lon="3.58366">
        <ele>1086</ele>
        <time>2022-10-28T09:27:27Z</time>
      </trkpt>
      <trkpt lat="44.39494" lon="3.58365">
        <ele>1086</ele>
        <time>2022-10-28T09:27:28Z</time>
      </trkpt>
      <trkpt lat="44.39497" lon="3.58365">
        <ele>1086</ele>
        <time>2022-10-28T09:27:29Z</time>
      </trkpt>
      <trkpt lat="44.395" lon="3.58364">
        <ele>1086</ele>
        <time>2022-10-28T09:27:30Z</time>
      </trkpt>
      <trkpt lat="44.39503" lon="3.58364">
        <ele>1086</ele>
        <time>2022-10-28T09:27:31Z</time>
      </trkpt>
      <trkpt lat="44.39506" lon="3.58363">
        <ele>1086</ele>
        <time>2022-10-28T09:27:32Z</time>
      </trkpt>
      <trkpt lat="44.3951" lon="3.58362">
        <ele>1086.2</ele>
        <time>2022-10-28T09:27:33Z</time>
      </trkpt>
      <trkpt lat="44.39512" lon="3.58362">
        <ele>1086.2</ele>
        <time>2022-10-28T09:27:34Z</time>
      </trkpt>
      <trkpt lat="44.39515" lon="3.58361">
        <ele>1086.4</ele>
        <time>2022-10-28T09:27:35Z</time>
      </trkpt>
      <trkpt lat="44.39518" lon="3.5836">
        <ele>1086.4</ele>
        <time>2022-10-28T09:27:36Z</time>
      </trkpt>
      <trkpt lat="44.39521" lon="3.58359">
        <ele>1086.2</ele>
        <time>2022-10-28T09:27:37Z</time>
      </trkpt>
      <trkpt lat="44.39523" lon="3.58358">
        <ele>1086</ele>
        <time>2022-10-28T09:27:38Z</time>
      </trkpt>
      <trkpt lat="44.39526" lon="3.58358">
        <ele>1086</ele>
        <time>2022-10-28T09:27:39Z</time>
      </trkpt>
      <trkpt lat="44.39528" lon="3.58357">
        <ele>1086</ele>
        <time>2022-10-28T09:27:40Z</time>
      </trkpt>
      <trkpt lat="44.3953" lon="3.58357">
        <ele>1086</ele>
        <time>2022-10-28T09:27:41Z</time>
      </trkpt>
      <trkpt lat="44.39532" lon="3.58357">
        <ele>1086</ele>
        <time>2022-10-28T09:27:42Z</time>
      </trkpt>
      <trkpt lat="44.39535" lon="3.58357">
        <ele>1086.2</ele>
        <time>2022-10-28T09:27:43Z</time>
      </trkpt>
      <trkpt lat="44.39538" lon="3.58357">
        <ele>1086.2</ele>
        <time>2022-10-28T09:27:44Z</time>
      </trkpt>
      <trkpt lat="44.3954" lon="3.58357">
        <ele>1086.2</ele>
        <time>2022-10-28T09:27:45Z</time>
      </trkpt>
      <trkpt lat="44.39543" lon="3.58356">
        <ele>1086.4</ele>
        <time>2022-10-28T09:27:46Z</time>
      </trkpt>
      <trkpt lat="44.39546" lon="3.58354">
        <ele>1086.4</ele>
        <time>2022-10-28T09:27:47Z</time>
      </trkpt>
      <trkpt lat="44.39548" lon="3.58353">
        <ele>1086.4</ele>
        <time>2022-10-28T09:27:48Z</time>
      </trkpt>
      <trkpt lat="44.39551" lon="3.58352">
        <ele>1086.4</ele>
        <time>2022-10-28T09:27:49Z</time>
      </trkpt>
      <trkpt lat="44.39554" lon="3.58351">
        <ele>1086.2</ele>
        <time>2022-10-28T09:27:50Z</time>
      </trkpt>
      <trkpt lat="44.39557" lon="3.5835">
        <ele>1086.2</ele>
        <time>2022-10-28T09:27:51Z</time>
      </trkpt>
      <trkpt lat="44.3956" lon="3.58349">
        <ele>1086.2</ele>
        <time>2022-10-28T09:27:52Z</time>
      </trkpt>
      <trkpt lat="44.39564" lon="3.58348">
        <ele>1086</ele>
        <time>2022-10-28T09:27:53Z</time>
      </trkpt>
      <trkpt lat="44.39567" lon="3.58347">
        <ele>1086</ele>
        <time>2022-10-28T09:27:54Z</time>
      </trkpt>
      <trkpt lat="44.39571" lon="3.58346">
        <ele>1086</ele>
        <time>2022-10-28T09:27:55Z</time>
      </trkpt>
      <trkpt lat="44.39574" lon="3.58345">
        <ele>1086</ele>
        <time>2022-10-28T09:27:56Z</time>
      </trkpt>
      <trkpt lat="44.39578" lon="3.58345">
        <ele>1085.8</ele>
        <time>2022-10-28T09:27:57Z</time>
      </trkpt>
      <trkpt lat="44.39581" lon="3.58345">
        <ele>1085.8</ele>
        <time>2022-10-28T09:27:58Z</time>
      </trkpt>
      <trkpt lat="44.39584" lon="3.58345">
        <ele>1085.8</ele>
        <time>2022-10-28T09:27:59Z</time>
      </trkpt>
      <trkpt lat="44.39588" lon="3.58344">
        <ele>1085.6</ele>
        <time>2022-10-28T09:28:00Z</time>
      </trkpt>
      <trkpt lat="44.39591" lon="3.58344">
        <ele>1085.6</ele>
        <time>2022-10-28T09:28:01Z</time>
      </trkpt>
      <trkpt lat="44.39594" lon="3.58344">
        <ele>1085.6</ele>
        <time>2022-10-28T09:28:02Z</time>
      </trkpt>
      <trkpt lat="44.39597" lon="3.58344">
        <ele>1085.4</ele>
        <time>2022-10-28T09:28:03Z</time>
      </trkpt>
      <trkpt lat="44.396" lon="3.58344">
        <ele>1085.4</ele>
        <time>2022-10-28T09:28:04Z</time>
      </trkpt>
      <trkpt lat="44.39603" lon="3.58344">
        <ele>1085.4</ele>
        <time>2022-10-28T09:28:05Z</time>
      </trkpt>
      <trkpt lat="44.39605" lon="3.58344">
        <ele>1085.4</ele>
        <time>2022-10-28T09:28:06Z</time>
      </trkpt>
      <trkpt lat="44.39608" lon="3.58344">
        <ele>1085.2</ele>
        <time>2022-10-28T09:28:07Z</time>
      </trkpt>
      <trkpt lat="44.3961" lon="3.58344">
        <ele>1085.2</ele>
        <time>2022-10-28T09:28:08Z</time>
      </trkpt>
      <trkpt lat="44.39613" lon="3.58345">
        <ele>1085.2</ele>
        <time>2022-10-28T09:28:09Z</time>
      </trkpt>
      <trkpt lat="44.39615" lon="3.58345">
        <ele>1085.2</ele>
        <time>2022-10-28T09:28:10Z</time>
      </trkpt>
      <trkpt lat="44.39617" lon="3.58347">
        <ele>1085.2</ele>
        <time>2022-10-28T09:28:11Z</time>
      </trkpt>
      <trkpt lat="44.39618" lon="3.58348">
        <ele>1085</ele>
        <time>2022-10-28T09:28:12Z</time>
      </trkpt>
      <trkpt lat="44.3962" lon="3.5835">
        <ele>1085</ele>
        <time>2022-10-28T09:28:13Z</time>
      </trkpt>
      <trkpt lat="44.3962" lon="3.5835">
        <ele>1085</ele>
        <time>2022-10-28T09:28:14Z</time>
      </trkpt>
      <trkpt lat="44.3962" lon="3.58351">
        <ele>1085</ele>
        <time>2022-10-28T09:28:15Z</time>
      </trkpt>
      <trkpt lat="44.39622" lon="3.58352">
        <ele>1084.8</ele>
        <time>2022-10-28T09:28:35Z</time>
      </trkpt>
      <trkpt lat="44.39624" lon="3.58353">
        <ele>1084.6</ele>
        <time>2022-10-28T09:28:36Z</time>
      </trkpt>
      <trkpt lat="44.39626" lon="3.58356">
        <ele>1084.6</ele>
        <time>2022-10-28T09:28:37Z</time>
      </trkpt>
      <trkpt lat="44.39629" lon="3.58357">
        <ele>1084.4</ele>
        <time>2022-10-28T09:28:38Z</time>
      </trkpt>
      <trkpt lat="44.3963" lon="3.58357">
        <ele>1084.4</ele>
        <time>2022-10-28T09:28:39Z</time>
      </trkpt>
      <trkpt lat="44.39631" lon="3.58357">
        <ele>1084.2</ele>
        <time>2022-10-28T09:28:40Z</time>
      </trkpt>
      <trkpt lat="44.39633" lon="3.58356">
        <ele>1084</ele>
        <time>2022-10-28T09:28:41Z</time>
      </trkpt>
      <trkpt lat="44.39633" lon="3.58356">
        <ele>1084</ele>
        <time>2022-10-28T09:28:42Z</time>
      </trkpt>
      <trkpt lat="44.39634" lon="3.58355">
        <ele>1083.8</ele>
        <time>2022-10-28T09:28:43Z</time>
      </trkpt>
      <trkpt lat="44.39634" lon="3.58355">
        <ele>1083.8</ele>
        <time>2022-10-28T09:28:44Z</time>
      </trkpt>
      <trkpt lat="44.39634" lon="3.58355">
        <ele>1083.8</ele>
        <time>2022-10-28T09:28:45Z</time>
      </trkpt>
      <trkpt lat="44.39634" lon="3.58355">
        <ele>1083.8</ele>
        <time>2022-10-28T09:28:46Z</time>
      </trkpt>
      <trkpt lat="44.39634" lon="3.58355">
        <ele>1083.8</ele>
        <time>2022-10-28T09:28:47Z</time>
      </trkpt>
      <trkpt lat="44.39634" lon="3.58355">
        <ele>1083.6</ele>
        <time>2022-10-28T09:28:48Z</time>
      </trkpt>
      <trkpt lat="44.39636" lon="3.58354">
        <ele>1083.4</ele>
        <time>2022-10-28T09:28:57Z</time>
      </trkpt>
      <trkpt lat="44.39638" lon="3.58352">
        <ele>1083.4</ele>
        <time>2022-10-28T09:28:58Z</time>
      </trkpt>
      <trkpt lat="44.3964" lon="3.5835">
        <ele>1083.4</ele>
        <time>2022-10-28T09:28:59Z</time>
      </trkpt>
      <trkpt lat="44.39641" lon="3.58347">
        <ele>1083.4</ele>
        <time>2022-10-28T09:29:00Z</time>
      </trkpt>
      <trkpt lat="44.39643" lon="3.58346">
        <ele>1083.4</ele>
        <time>2022-10-28T09:29:01Z</time>
      </trkpt>
      <trkpt lat="44.39643" lon="3.58345">
        <ele>1083.2</ele>
        <time>2022-10-28T09:29:02Z</time>
      </trkpt>
      <trkpt lat="44.39644" lon="3.58344">
        <ele>1083</ele>
        <time>2022-10-28T09:29:03Z</time>
      </trkpt>
      <trkpt lat="44.39646" lon="3.58342">
        <ele>1082.8</ele>
        <time>2022-10-28T09:29:04Z</time>
      </trkpt>
      <trkpt lat="44.39648" lon="3.5834">
        <ele>1082.6</ele>
        <time>2022-10-28T09:29:05Z</time>
      </trkpt>
      <trkpt lat="44.3965" lon="3.58336">
        <ele>1082.2</ele>
        <time>2022-10-28T09:29:06Z</time>
      </trkpt>
      <trkpt lat="44.39653" lon="3.58332">
        <ele>1081.6</ele>
        <time>2022-10-28T09:29:07Z</time>
      </trkpt>
      <trkpt lat="44.39655" lon="3.58328">
        <ele>1081.2</ele>
        <time>2022-10-28T09:29:08Z</time>
      </trkpt>
      <trkpt lat="44.39657" lon="3.58324">
        <ele>1080.6</ele>
        <time>2022-10-28T09:29:09Z</time>
      </trkpt>
      <trkpt lat="44.39659" lon="3.5832">
        <ele>1080.2</ele>
        <time>2022-10-28T09:29:10Z</time>
      </trkpt>
      <trkpt lat="44.39661" lon="3.58315">
        <ele>1079.6</ele>
        <time>2022-10-28T09:29:11Z</time>
      </trkpt>
      <trkpt lat="44.39663" lon="3.5831">
        <ele>1079.2</ele>
        <time>2022-10-28T09:29:12Z</time>
      </trkpt>
      <trkpt lat="44.39665" lon="3.58305">
        <ele>1078.6</ele>
        <time>2022-10-28T09:29:13Z</time>
      </trkpt>
      <trkpt lat="44.39666" lon="3.583">
        <ele>1078.2</ele>
        <time>2022-10-28T09:29:14Z</time>
      </trkpt>
      <trkpt lat="44.39668" lon="3.58294">
        <ele>1077.6</ele>
        <time>2022-10-28T09:29:15Z</time>
      </trkpt>
      <trkpt lat="44.39669" lon="3.58288">
        <ele>1077</ele>
        <time>2022-10-28T09:29:16Z</time>
      </trkpt>
      <trkpt lat="44.39671" lon="3.58282">
        <ele>1076.4</ele>
        <time>2022-10-28T09:29:17Z</time>
      </trkpt>
      <trkpt lat="44.39672" lon="3.58276">
        <ele>1076</ele>
        <time>2022-10-28T09:29:18Z</time>
      </trkpt>
      <trkpt lat="44.39673" lon="3.58271">
        <ele>1075.4</ele>
        <time>2022-10-28T09:29:19Z</time>
      </trkpt>
      <trkpt lat="44.39675" lon="3.58266">
        <ele>1075</ele>
        <time>2022-10-28T09:29:20Z</time>
      </trkpt>
      <trkpt lat="44.39677" lon="3.58261">
        <ele>1074.6</ele>
        <time>2022-10-28T09:29:21Z</time>
      </trkpt>
      <trkpt lat="44.39679" lon="3.58256">
        <ele>1074</ele>
        <time>2022-10-28T09:29:22Z</time>
      </trkpt>
      <trkpt lat="44.39681" lon="3.58251">
        <ele>1073.6</ele>
        <time>2022-10-28T09:29:23Z</time>
      </trkpt>
      <trkpt lat="44.39684" lon="3.58247">
        <ele>1073.2</ele>
        <time>2022-10-28T09:29:24Z</time>
      </trkpt>
      <trkpt lat="44.39687" lon="3.58242">
        <ele>1072.6</ele>
        <time>2022-10-28T09:29:25Z</time>
      </trkpt>
      <trkpt lat="44.3969" lon="3.58237">
        <ele>1072</ele>
        <time>2022-10-28T09:29:26Z</time>
      </trkpt>
      <trkpt lat="44.39694" lon="3.58232">
        <ele>1071.4</ele>
        <time>2022-10-28T09:29:27Z</time>
      </trkpt>
      <trkpt lat="44.39698" lon="3.58227">
        <ele>1070.6</ele>
        <time>2022-10-28T09:29:28Z</time>
      </trkpt>
      <trkpt lat="44.39701" lon="3.58223">
        <ele>1069.8</ele>
        <time>2022-10-28T09:29:29Z</time>
      </trkpt>
      <trkpt lat="44.39704" lon="3.58219">
        <ele>1069.2</ele>
        <time>2022-10-28T09:29:30Z</time>
      </trkpt>
      <trkpt lat="44.39707" lon="3.58216">
        <ele>1068.4</ele>
        <time>2022-10-28T09:29:31Z</time>
      </trkpt>
      <trkpt lat="44.3971" lon="3.58213">
        <ele>1067.6</ele>
        <time>2022-10-28T09:29:32Z</time>
      </trkpt>
      <trkpt lat="44.39713" lon="3.58209">
        <ele>1067</ele>
        <time>2022-10-28T09:29:33Z</time>
      </trkpt>
      <trkpt lat="44.39715" lon="3.58205">
        <ele>1066.4</ele>
        <time>2022-10-28T09:29:34Z</time>
      </trkpt>
      <trkpt lat="44.39717" lon="3.58201">
        <ele>1065.8</ele>
        <time>2022-10-28T09:29:35Z</time>
      </trkpt>
      <trkpt lat="44.3972" lon="3.58197">
        <ele>1065.2</ele>
        <time>2022-10-28T09:29:36Z</time>
      </trkpt>
      <trkpt lat="44.39723" lon="3.58192">
        <ele>1064.6</ele>
        <time>2022-10-28T09:29:37Z</time>
      </trkpt>
      <trkpt lat="44.39726" lon="3.58188">
        <ele>1064</ele>
        <time>2022-10-28T09:29:38Z</time>
      </trkpt>
      <trkpt lat="44.39728" lon="3.58183">
        <ele>1063.4</ele>
        <time>2022-10-28T09:29:39Z</time>
      </trkpt>
      <trkpt lat="44.3973" lon="3.58179">
        <ele>1062.8</ele>
        <time>2022-10-28T09:29:40Z</time>
      </trkpt>
      <trkpt lat="44.39733" lon="3.58175">
        <ele>1062.2</ele>
        <time>2022-10-28T09:29:41Z</time>
      </trkpt>
      <trkpt lat="44.39736" lon="3.5817">
        <ele>1061.6</ele>
        <time>2022-10-28T09:29:42Z</time>
      </trkpt>
      <trkpt lat="44.39738" lon="3.58166">
        <ele>1061</ele>
        <time>2022-10-28T09:29:43Z</time>
      </trkpt>
      <trkpt lat="44.39741" lon="3.58162">
        <ele>1060.2</ele>
        <time>2022-10-28T09:29:44Z</time>
      </trkpt>
      <trkpt lat="44.39744" lon="3.58158">
        <ele>1059.6</ele>
        <time>2022-10-28T09:29:45Z</time>
      </trkpt>
      <trkpt lat="44.39747" lon="3.58155">
        <ele>1058.8</ele>
        <time>2022-10-28T09:29:46Z</time>
      </trkpt>
      <trkpt lat="44.39749" lon="3.58151">
        <ele>1058.2</ele>
        <time>2022-10-28T09:29:47Z</time>
      </trkpt>
      <trkpt lat="44.39751" lon="3.58148">
        <ele>1057.6</ele>
        <time>2022-10-28T09:29:48Z</time>
      </trkpt>
      <trkpt lat="44.39754" lon="3.58145">
        <ele>1056.8</ele>
        <time>2022-10-28T09:29:49Z</time>
      </trkpt>
      <trkpt lat="44.39756" lon="3.58142">
        <ele>1056.2</ele>
        <time>2022-10-28T09:29:50Z</time>
      </trkpt>
      <trkpt lat="44.39758" lon="3.58139">
        <ele>1055.6</ele>
        <time>2022-10-28T09:29:51Z</time>
      </trkpt>
      <trkpt lat="44.39759" lon="3.58135">
        <ele>1055.2</ele>
        <time>2022-10-28T09:29:52Z</time>
      </trkpt>
      <trkpt lat="44.39761" lon="3.5813">
        <ele>1054.8</ele>
        <time>2022-10-28T09:29:53Z</time>
      </trkpt>
      <trkpt lat="44.39762" lon="3.58125">
        <ele>1054.2</ele>
        <time>2022-10-28T09:29:54Z</time>
      </trkpt>
      <trkpt lat="44.39763" lon="3.58119">
        <ele>1053.8</ele>
        <time>2022-10-28T09:29:55Z</time>
      </trkpt>
      <trkpt lat="44.39765" lon="3.58114">
        <ele>1053.2</ele>
        <time>2022-10-28T09:29:56Z</time>
      </trkpt>
      <trkpt lat="44.39767" lon="3.58109">
        <ele>1052.4</ele>
        <time>2022-10-28T09:29:57Z</time>
      </trkpt>
      <trkpt lat="44.3977" lon="3.58104">
        <ele>1051.8</ele>
        <time>2022-10-28T09:29:58Z</time>
      </trkpt>
      <trkpt lat="44.39773" lon="3.58101">
        <ele>1051</ele>
        <time>2022-10-28T09:29:59Z</time>
      </trkpt>
      <trkpt lat="44.39776" lon="3.58097">
        <ele>1050.2</ele>
        <time>2022-10-28T09:30:00Z</time>
      </trkpt>
      <trkpt lat="44.39778" lon="3.58094">
        <ele>1049.4</ele>
        <time>2022-10-28T09:30:01Z</time>
      </trkpt>
      <trkpt lat="44.39781" lon="3.5809">
        <ele>1048.8</ele>
        <time>2022-10-28T09:30:02Z</time>
      </trkpt>
      <trkpt lat="44.39783" lon="3.58086">
        <ele>1048.2</ele>
        <time>2022-10-28T09:30:03Z</time>
      </trkpt>
      <trkpt lat="44.39785" lon="3.58082">
        <ele>1047.4</ele>
        <time>2022-10-28T09:30:04Z</time>
      </trkpt>
      <trkpt lat="44.39787" lon="3.58078">
        <ele>1046.8</ele>
        <time>2022-10-28T09:30:05Z</time>
      </trkpt>
      <trkpt lat="44.3979" lon="3.58074">
        <ele>1046</ele>
        <time>2022-10-28T09:30:06Z</time>
      </trkpt>
      <trkpt lat="44.39792" lon="3.5807">
        <ele>1045.2</ele>
        <time>2022-10-28T09:30:07Z</time>
      </trkpt>
      <trkpt lat="44.39794" lon="3.58066">
        <ele>1044.6</ele>
        <time>2022-10-28T09:30:08Z</time>
      </trkpt>
      <trkpt lat="44.39796" lon="3.58062">
        <ele>1043.8</ele>
        <time>2022-10-28T09:30:09Z</time>
      </trkpt>
      <trkpt lat="44.39798" lon="3.58057">
        <ele>1043</ele>
        <time>2022-10-28T09:30:10Z</time>
      </trkpt>
      <trkpt lat="44.398" lon="3.58053">
        <ele>1042.4</ele>
        <time>2022-10-28T09:30:11Z</time>
      </trkpt>
      <trkpt lat="44.39801" lon="3.58049">
        <ele>1041.6</ele>
        <time>2022-10-28T09:30:12Z</time>
      </trkpt>
      <trkpt lat="44.39801" lon="3.58044">
        <ele>1040.8</ele>
        <time>2022-10-28T09:30:13Z</time>
      </trkpt>
      <trkpt lat="44.39803" lon="3.58041">
        <ele>1040</ele>
        <time>2022-10-28T09:30:14Z</time>
      </trkpt>
      <trkpt lat="44.39804" lon="3.58037">
        <ele>1039.2</ele>
        <time>2022-10-28T09:30:15Z</time>
      </trkpt>
      <trkpt lat="44.39805" lon="3.58034">
        <ele>1038.6</ele>
        <time>2022-10-28T09:30:16Z</time>
      </trkpt>
      <trkpt lat="44.39807" lon="3.58031">
        <ele>1038</ele>
        <time>2022-10-28T09:30:17Z</time>
      </trkpt>
      <trkpt lat="44.3981" lon="3.58029">
        <ele>1037.6</ele>
        <time>2022-10-28T09:30:18Z</time>
      </trkpt>
      <trkpt lat="44.39812" lon="3.58028">
        <ele>1037.2</ele>
        <time>2022-10-28T09:30:19Z</time>
      </trkpt>
      <trkpt lat="44.39814" lon="3.58027">
        <ele>1036.8</ele>
        <time>2022-10-28T09:30:20Z</time>
      </trkpt>
      <trkpt lat="44.39817" lon="3.58025">
        <ele>1036.4</ele>
        <time>2022-10-28T09:30:21Z</time>
      </trkpt>
      <trkpt lat="44.39819" lon="3.58025">
        <ele>1036</ele>
        <time>2022-10-28T09:30:22Z</time>
      </trkpt>
      <trkpt lat="44.39822" lon="3.58025">
        <ele>1035.6</ele>
        <time>2022-10-28T09:30:23Z</time>
      </trkpt>
      <trkpt lat="44.39825" lon="3.58024">
        <ele>1035.2</ele>
        <time>2022-10-28T09:30:24Z</time>
      </trkpt>
      <trkpt lat="44.39828" lon="3.58023">
        <ele>1034.8</ele>
        <time>2022-10-28T09:30:25Z</time>
      </trkpt>
      <trkpt lat="44.39833" lon="3.58022">
        <ele>1034.2</ele>
        <time>2022-10-28T09:30:26Z</time>
      </trkpt>
      <trkpt lat="44.39838" lon="3.58021">
        <ele>1033.6</ele>
        <time>2022-10-28T09:30:27Z</time>
      </trkpt>
      <trkpt lat="44.39843" lon="3.58021">
        <ele>1033</ele>
        <time>2022-10-28T09:30:28Z</time>
      </trkpt>
      <trkpt lat="44.39848" lon="3.5802">
        <ele>1032.2</ele>
        <time>2022-10-28T09:30:29Z</time>
      </trkpt>
      <trkpt lat="44.39853" lon="3.58019">
        <ele>1031.6</ele>
        <time>2022-10-28T09:30:30Z</time>
      </trkpt>
      <trkpt lat="44.39858" lon="3.58019">
        <ele>1030.8</ele>
        <time>2022-10-28T09:30:31Z</time>
      </trkpt>
      <trkpt lat="44.39863" lon="3.58018">
        <ele>1030</ele>
        <time>2022-10-28T09:30:32Z</time>
      </trkpt>
      <trkpt lat="44.39868" lon="3.58017">
        <ele>1029.2</ele>
        <time>2022-10-28T09:30:33Z</time>
      </trkpt>
      <trkpt lat="44.39872" lon="3.58016">
        <ele>1028.4</ele>
        <time>2022-10-28T09:30:34Z</time>
      </trkpt>
      <trkpt lat="44.39876" lon="3.58016">
        <ele>1027.6</ele>
        <time>2022-10-28T09:30:35Z</time>
      </trkpt>
      <trkpt lat="44.3988" lon="3.58015">
        <ele>1027</ele>
        <time>2022-10-28T09:30:36Z</time>
      </trkpt>
      <trkpt lat="44.39884" lon="3.58015">
        <ele>1026.4</ele>
        <time>2022-10-28T09:30:37Z</time>
      </trkpt>
      <trkpt lat="44.39888" lon="3.58016">
        <ele>1025.8</ele>
        <time>2022-10-28T09:30:38Z</time>
      </trkpt>
      <trkpt lat="44.39893" lon="3.58018">
        <ele>1025.2</ele>
        <time>2022-10-28T09:30:39Z</time>
      </trkpt>
      <trkpt lat="44.39897" lon="3.58021">
        <ele>1024.8</ele>
        <time>2022-10-28T09:30:40Z</time>
      </trkpt>
      <trkpt lat="44.39901" lon="3.58024">
        <ele>1024.2</ele>
        <time>2022-10-28T09:30:41Z</time>
      </trkpt>
      <trkpt lat="44.39905" lon="3.58027">
        <ele>1023.8</ele>
        <time>2022-10-28T09:30:42Z</time>
      </trkpt>
      <trkpt lat="44.39909" lon="3.58031">
        <ele>1023.2</ele>
        <time>2022-10-28T09:30:43Z</time>
      </trkpt>
      <trkpt lat="44.39911" lon="3.58035">
        <ele>1022.8</ele>
        <time>2022-10-28T09:30:44Z</time>
      </trkpt>
      <trkpt lat="44.39914" lon="3.58039">
        <ele>1022.2</ele>
        <time>2022-10-28T09:30:45Z</time>
      </trkpt>
      <trkpt lat="44.39917" lon="3.58044">
        <ele>1022</ele>
        <time>2022-10-28T09:30:46Z</time>
      </trkpt>
      <trkpt lat="44.3992" lon="3.58048">
        <ele>1021.6</ele>
        <time>2022-10-28T09:30:47Z</time>
      </trkpt>
      <trkpt lat="44.39922" lon="3.58053">
        <ele>1021.2</ele>
        <time>2022-10-28T09:30:48Z</time>
      </trkpt>
      <trkpt lat="44.39924" lon="3.58058">
        <ele>1020.6</ele>
        <time>2022-10-28T09:30:49Z</time>
      </trkpt>
      <trkpt lat="44.39926" lon="3.58062">
        <ele>1020.2</ele>
        <time>2022-10-28T09:30:50Z</time>
      </trkpt>
      <trkpt lat="44.39928" lon="3.58067">
        <ele>1019.8</ele>
        <time>2022-10-28T09:30:51Z</time>
      </trkpt>
      <trkpt lat="44.39929" lon="3.58072">
        <ele>1019.4</ele>
        <time>2022-10-28T09:30:52Z</time>
      </trkpt>
      <trkpt lat="44.3993" lon="3.58077">
        <ele>1019.2</ele>
        <time>2022-10-28T09:30:53Z</time>
      </trkpt>
      <trkpt lat="44.39931" lon="3.58082">
        <ele>1018.6</ele>
        <time>2022-10-28T09:30:54Z</time>
      </trkpt>
      <trkpt lat="44.39931" lon="3.58085">
        <ele>1018.2</ele>
        <time>2022-10-28T09:30:55Z</time>
      </trkpt>
      <trkpt lat="44.39932" lon="3.58087">
        <ele>1018</ele>
        <time>2022-10-28T09:30:56Z</time>
      </trkpt>
      <trkpt lat="44.39932" lon="3.58088">
        <ele>1017.6</ele>
        <time>2022-10-28T09:30:57Z</time>
      </trkpt>
      <trkpt lat="44.39932" lon="3.5809">
        <ele>1017.4</ele>
        <time>2022-10-28T09:30:58Z</time>
      </trkpt>
      <trkpt lat="44.39932" lon="3.58093">
        <ele>1017.2</ele>
        <time>2022-10-28T09:30:59Z</time>
      </trkpt>
      <trkpt lat="44.39933" lon="3.58097">
        <ele>1016.8</ele>
        <time>2022-10-28T09:31:00Z</time>
      </trkpt>
      <trkpt lat="44.39933" lon="3.581">
        <ele>1016.6</ele>
        <time>2022-10-28T09:31:01Z</time>
      </trkpt>
      <trkpt lat="44.39934" lon="3.58103">
        <ele>1016.2</ele>
        <time>2022-10-28T09:31:02Z</time>
      </trkpt>
      <trkpt lat="44.39934" lon="3.58107">
        <ele>1016</ele>
        <time>2022-10-28T09:31:03Z</time>
      </trkpt>
      <trkpt lat="44.39934" lon="3.58111">
        <ele>1015.8</ele>
        <time>2022-10-28T09:31:04Z</time>
      </trkpt>
      <trkpt lat="44.39934" lon="3.58115">
        <ele>1015.4</ele>
        <time>2022-10-28T09:31:05Z</time>
      </trkpt>
      <trkpt lat="44.39935" lon="3.58119">
        <ele>1015</ele>
        <time>2022-10-28T09:31:06Z</time>
      </trkpt>
      <trkpt lat="44.39935" lon="3.58123">
        <ele>1014.8</ele>
        <time>2022-10-28T09:31:07Z</time>
      </trkpt>
      <trkpt lat="44.39935" lon="3.58128">
        <ele>1014.4</ele>
        <time>2022-10-28T09:31:08Z</time>
      </trkpt>
      <trkpt lat="44.39936" lon="3.58132">
        <ele>1014</ele>
        <time>2022-10-28T09:31:09Z</time>
      </trkpt>
      <trkpt lat="44.39936" lon="3.58137">
        <ele>1013.4</ele>
        <time>2022-10-28T09:31:10Z</time>
      </trkpt>
      <trkpt lat="44.39936" lon="3.58142">
        <ele>1013</ele>
        <time>2022-10-28T09:31:11Z</time>
      </trkpt>
      <trkpt lat="44.39936" lon="3.58147">
        <ele>1012.6</ele>
        <time>2022-10-28T09:31:12Z</time>
      </trkpt>
      <trkpt lat="44.39936" lon="3.58153">
        <ele>1012.2</ele>
        <time>2022-10-28T09:31:13Z</time>
      </trkpt>
      <trkpt lat="44.39936" lon="3.58158">
        <ele>1011.8</ele>
        <time>2022-10-28T09:31:14Z</time>
      </trkpt>
      <trkpt lat="44.39936" lon="3.58164">
        <ele>1011.4</ele>
        <time>2022-10-28T09:31:15Z</time>
      </trkpt>
      <trkpt lat="44.39936" lon="3.5817">
        <ele>1011</ele>
        <time>2022-10-28T09:31:16Z</time>
      </trkpt>
      <trkpt lat="44.39937" lon="3.58176">
        <ele>1010.8</ele>
        <time>2022-10-28T09:31:17Z</time>
      </trkpt>
      <trkpt lat="44.39939" lon="3.58182">
        <ele>1010.6</ele>
        <time>2022-10-28T09:31:18Z</time>
      </trkpt>
      <trkpt lat="44.39943" lon="3.58187">
        <ele>1010.4</ele>
        <time>2022-10-28T09:31:19Z</time>
      </trkpt>
      <trkpt lat="44.39947" lon="3.58189">
        <ele>1010.2</ele>
        <time>2022-10-28T09:31:20Z</time>
      </trkpt>
      <trkpt lat="44.39952" lon="3.58189">
        <ele>1010.2</ele>
        <time>2022-10-28T09:31:21Z</time>
      </trkpt>
      <trkpt lat="44.39955" lon="3.58188">
        <ele>1010</ele>
        <time>2022-10-28T09:31:22Z</time>
      </trkpt>
      <trkpt lat="44.39959" lon="3.58186">
        <ele>1010</ele>
        <time>2022-10-28T09:31:23Z</time>
      </trkpt>
      <trkpt lat="44.39963" lon="3.58184">
        <ele>1010</ele>
        <time>2022-10-28T09:31:24Z</time>
      </trkpt>
      <trkpt lat="44.39966" lon="3.58181">
        <ele>1010</ele>
        <time>2022-10-28T09:31:25Z</time>
      </trkpt>
      <trkpt lat="44.3997" lon="3.58179">
        <ele>1010</ele>
        <time>2022-10-28T09:31:26Z</time>
      </trkpt>
      <trkpt lat="44.39974" lon="3.58176">
        <ele>1009.8</ele>
        <time>2022-10-28T09:31:27Z</time>
      </trkpt>
      <trkpt lat="44.39978" lon="3.58174">
        <ele>1009.8</ele>
        <time>2022-10-28T09:31:28Z</time>
      </trkpt>
      <trkpt lat="44.39982" lon="3.58172">
        <ele>1009.8</ele>
        <time>2022-10-28T09:31:29Z</time>
      </trkpt>
      <trkpt lat="44.39985" lon="3.5817">
        <ele>1009.6</ele>
        <time>2022-10-28T09:31:30Z</time>
      </trkpt>
      <trkpt lat="44.3999" lon="3.58169">
        <ele>1009.6</ele>
        <time>2022-10-28T09:31:31Z</time>
      </trkpt>
      <trkpt lat="44.39995" lon="3.58167">
        <ele>1009.6</ele>
        <time>2022-10-28T09:31:32Z</time>
      </trkpt>
      <trkpt lat="44.39999" lon="3.58166">
        <ele>1009.4</ele>
        <time>2022-10-28T09:31:33Z</time>
      </trkpt>
      <trkpt lat="44.40004" lon="3.58164">
        <ele>1009.2</ele>
        <time>2022-10-28T09:31:34Z</time>
      </trkpt>
      <trkpt lat="44.40009" lon="3.58163">
        <ele>1009.2</ele>
        <time>2022-10-28T09:31:35Z</time>
      </trkpt>
      <trkpt lat="44.40014" lon="3.58163">
        <ele>1009</ele>
        <time>2022-10-28T09:31:36Z</time>
      </trkpt>
      <trkpt lat="44.40019" lon="3.58162">
        <ele>1008.8</ele>
        <time>2022-10-28T09:31:37Z</time>
      </trkpt>
      <trkpt lat="44.40024" lon="3.58161">
        <ele>1008.6</ele>
        <time>2022-10-28T09:31:38Z</time>
      </trkpt>
      <trkpt lat="44.4003" lon="3.58162">
        <ele>1008.4</ele>
        <time>2022-10-28T09:31:39Z</time>
      </trkpt>
      <trkpt lat="44.40035" lon="3.58162">
        <ele>1008</ele>
        <time>2022-10-28T09:31:40Z</time>
      </trkpt>
      <trkpt lat="44.4004" lon="3.58162">
        <ele>1007.6</ele>
        <time>2022-10-28T09:31:41Z</time>
      </trkpt>
      <trkpt lat="44.40045" lon="3.58163">
        <ele>1007.4</ele>
        <time>2022-10-28T09:31:42Z</time>
      </trkpt>
      <trkpt lat="44.4005" lon="3.58163">
        <ele>1007</ele>
        <time>2022-10-28T09:31:43Z</time>
      </trkpt>
      <trkpt lat="44.40056" lon="3.58164">
        <ele>1006.6</ele>
        <time>2022-10-28T09:31:44Z</time>
      </trkpt>
      <trkpt lat="44.4006" lon="3.58165">
        <ele>1006.2</ele>
        <time>2022-10-28T09:31:45Z</time>
      </trkpt>
      <trkpt lat="44.40065" lon="3.58165">
        <ele>1006</ele>
        <time>2022-10-28T09:31:46Z</time>
      </trkpt>
      <trkpt lat="44.4007" lon="3.58166">
        <ele>1005.6</ele>
        <time>2022-10-28T09:31:47Z</time>
      </trkpt>
      <trkpt lat="44.40074" lon="3.58168">
        <ele>1005.2</ele>
        <time>2022-10-28T09:31:48Z</time>
      </trkpt>
      <trkpt lat="44.40078" lon="3.58169">
        <ele>1005</ele>
        <time>2022-10-28T09:31:49Z</time>
      </trkpt>
      <trkpt lat="44.40082" lon="3.5817">
        <ele>1004.6</ele>
        <time>2022-10-28T09:31:50Z</time>
      </trkpt>
      <trkpt lat="44.40086" lon="3.58172">
        <ele>1004.2</ele>
        <time>2022-10-28T09:31:51Z</time>
      </trkpt>
      <trkpt lat="44.4009" lon="3.58173">
        <ele>1004</ele>
        <time>2022-10-28T09:31:52Z</time>
      </trkpt>
      <trkpt lat="44.40094" lon="3.58175">
        <ele>1003.8</ele>
        <time>2022-10-28T09:31:53Z</time>
      </trkpt>
      <trkpt lat="44.40097" lon="3.58178">
        <ele>1003.6</ele>
        <time>2022-10-28T09:31:54Z</time>
      </trkpt>
      <trkpt lat="44.401" lon="3.58182">
        <ele>1003.4</ele>
        <time>2022-10-28T09:31:55Z</time>
      </trkpt>
      <trkpt lat="44.40103" lon="3.58186">
        <ele>1003.4</ele>
        <time>2022-10-28T09:31:56Z</time>
      </trkpt>
      <trkpt lat="44.40106" lon="3.5819">
        <ele>1003.4</ele>
        <time>2022-10-28T09:31:57Z</time>
      </trkpt>
      <trkpt lat="44.40109" lon="3.58194">
        <ele>1003.2</ele>
        <time>2022-10-28T09:31:58Z</time>
      </trkpt>
      <trkpt lat="44.40111" lon="3.58198">
        <ele>1003.2</ele>
        <time>2022-10-28T09:31:59Z</time>
      </trkpt>
      <trkpt lat="44.40113" lon="3.58203">
        <ele>1003.2</ele>
        <time>2022-10-28T09:32:00Z</time>
      </trkpt>
      <trkpt lat="44.40116" lon="3.58207">
        <ele>1003.2</ele>
        <time>2022-10-28T09:32:01Z</time>
      </trkpt>
      <trkpt lat="44.40119" lon="3.58211">
        <ele>1003.2</ele>
        <time>2022-10-28T09:32:02Z</time>
      </trkpt>
      <trkpt lat="44.40122" lon="3.58216">
        <ele>1003.2</ele>
        <time>2022-10-28T09:32:03Z</time>
      </trkpt>
      <trkpt lat="44.40124" lon="3.5822">
        <ele>1003.2</ele>
        <time>2022-10-28T09:32:04Z</time>
      </trkpt>
      <trkpt lat="44.40127" lon="3.58225">
        <ele>1003.2</ele>
        <time>2022-10-28T09:32:05Z</time>
      </trkpt>
      <trkpt lat="44.40129" lon="3.58229">
        <ele>1003.2</ele>
        <time>2022-10-28T09:32:06Z</time>
      </trkpt>
      <trkpt lat="44.40132" lon="3.58234">
        <ele>1003.2</ele>
        <time>2022-10-28T09:32:07Z</time>
      </trkpt>
      <trkpt lat="44.40134" lon="3.58238">
        <ele>1003.2</ele>
        <time>2022-10-28T09:32:08Z</time>
      </trkpt>
      <trkpt lat="44.40137" lon="3.58243">
        <ele>1003.2</ele>
        <time>2022-10-28T09:32:09Z</time>
      </trkpt>
      <trkpt lat="44.4014" lon="3.58248">
        <ele>1003.2</ele>
        <time>2022-10-28T09:32:10Z</time>
      </trkpt>
      <trkpt lat="44.40142" lon="3.58253">
        <ele>1003</ele>
        <time>2022-10-28T09:32:11Z</time>
      </trkpt>
      <trkpt lat="44.40145" lon="3.58258">
        <ele>1003</ele>
        <time>2022-10-28T09:32:12Z</time>
      </trkpt>
      <trkpt lat="44.40148" lon="3.58263">
        <ele>1003</ele>
        <time>2022-10-28T09:32:13Z</time>
      </trkpt>
      <trkpt lat="44.4015" lon="3.58269">
        <ele>1002.8</ele>
        <time>2022-10-28T09:32:14Z</time>
      </trkpt>
      <trkpt lat="44.40153" lon="3.58274">
        <ele>1002.6</ele>
        <time>2022-10-28T09:32:15Z</time>
      </trkpt>
      <trkpt lat="44.40156" lon="3.58281">
        <ele>1002.4</ele>
        <time>2022-10-28T09:32:16Z</time>
      </trkpt>
      <trkpt lat="44.4016" lon="3.58288">
        <ele>1002</ele>
        <time>2022-10-28T09:32:17Z</time>
      </trkpt>
      <trkpt lat="44.40164" lon="3.58295">
        <ele>1001.6</ele>
        <time>2022-10-28T09:32:18Z</time>
      </trkpt>
      <trkpt lat="44.40167" lon="3.58302">
        <ele>1001.2</ele>
        <time>2022-10-28T09:32:19Z</time>
      </trkpt>
      <trkpt lat="44.40171" lon="3.58308">
        <ele>1000.6</ele>
        <time>2022-10-28T09:32:20Z</time>
      </trkpt>
      <trkpt lat="44.40176" lon="3.58315">
        <ele>1000</ele>
        <time>2022-10-28T09:32:21Z</time>
      </trkpt>
      <trkpt lat="44.40181" lon="3.58321">
        <ele>999.4</ele>
        <time>2022-10-28T09:32:22Z</time>
      </trkpt>
      <trkpt lat="44.40186" lon="3.58326">
        <ele>998.8</ele>
        <time>2022-10-28T09:32:23Z</time>
      </trkpt>
      <trkpt lat="44.4019" lon="3.58331">
        <ele>998.2</ele>
        <time>2022-10-28T09:32:24Z</time>
      </trkpt>
      <trkpt lat="44.40194" lon="3.58337">
        <ele>997.6</ele>
        <time>2022-10-28T09:32:25Z</time>
      </trkpt>
      <trkpt lat="44.40198" lon="3.58343">
        <ele>997.2</ele>
        <time>2022-10-28T09:32:26Z</time>
      </trkpt>
      <trkpt lat="44.402" lon="3.58349">
        <ele>996.8</ele>
        <time>2022-10-28T09:32:27Z</time>
      </trkpt>
      <trkpt lat="44.40204" lon="3.58353">
        <ele>996.2</ele>
        <time>2022-10-28T09:32:28Z</time>
      </trkpt>
      <trkpt lat="44.40208" lon="3.58357">
        <ele>996</ele>
        <time>2022-10-28T09:32:29Z</time>
      </trkpt>
      <trkpt lat="44.40213" lon="3.58359">
        <ele>995.6</ele>
        <time>2022-10-28T09:32:30Z</time>
      </trkpt>
      <trkpt lat="44.40218" lon="3.5836">
        <ele>995.4</ele>
        <time>2022-10-28T09:32:31Z</time>
      </trkpt>
      <trkpt lat="44.40223" lon="3.58361">
        <ele>995.2</ele>
        <time>2022-10-28T09:32:32Z</time>
      </trkpt>
      <trkpt lat="44.40228" lon="3.58361">
        <ele>995.2</ele>
        <time>2022-10-28T09:32:33Z</time>
      </trkpt>
      <trkpt lat="44.40233" lon="3.58362">
        <ele>995</ele>
        <time>2022-10-28T09:32:34Z</time>
      </trkpt>
      <trkpt lat="44.40239" lon="3.58363">
        <ele>995</ele>
        <time>2022-10-28T09:32:35Z</time>
      </trkpt>
      <trkpt lat="44.40243" lon="3.58364">
        <ele>995</ele>
        <time>2022-10-28T09:32:36Z</time>
      </trkpt>
      <trkpt lat="44.40248" lon="3.58364">
        <ele>995</ele>
        <time>2022-10-28T09:32:37Z</time>
      </trkpt>
      <trkpt lat="44.40253" lon="3.58364">
        <ele>995</ele>
        <time>2022-10-28T09:32:38Z</time>
      </trkpt>
      <trkpt lat="44.40258" lon="3.58364">
        <ele>995.2</ele>
        <time>2022-10-28T09:32:39Z</time>
      </trkpt>
      <trkpt lat="44.40262" lon="3.58364">
        <ele>995.2</ele>
        <time>2022-10-28T09:32:40Z</time>
      </trkpt>
      <trkpt lat="44.40266" lon="3.58363">
        <ele>995.4</ele>
        <time>2022-10-28T09:32:41Z</time>
      </trkpt>
      <trkpt lat="44.4027" lon="3.58363">
        <ele>995.6</ele>
        <time>2022-10-28T09:32:42Z</time>
      </trkpt>
      <trkpt lat="44.40273" lon="3.58362">
        <ele>995.8</ele>
        <time>2022-10-28T09:32:43Z</time>
      </trkpt>
      <trkpt lat="44.40277" lon="3.58361">
        <ele>996</ele>
        <time>2022-10-28T09:32:44Z</time>
      </trkpt>
      <trkpt lat="44.4028" lon="3.58361">
        <ele>996.2</ele>
        <time>2022-10-28T09:32:45Z</time>
      </trkpt>
      <trkpt lat="44.40282" lon="3.5836">
        <ele>996.4</ele>
        <time>2022-10-28T09:32:46Z</time>
      </trkpt>
      <trkpt lat="44.40285" lon="3.58359">
        <ele>996.6</ele>
        <time>2022-10-28T09:32:47Z</time>
      </trkpt>
      <trkpt lat="44.40288" lon="3.58358">
        <ele>997</ele>
        <time>2022-10-28T09:32:48Z</time>
      </trkpt>
      <trkpt lat="44.40291" lon="3.58357">
        <ele>997.2</ele>
        <time>2022-10-28T09:32:49Z</time>
      </trkpt>
      <trkpt lat="44.40293" lon="3.58356">
        <ele>997.4</ele>
        <time>2022-10-28T09:32:50Z</time>
      </trkpt>
      <trkpt lat="44.40296" lon="3.58354">
        <ele>997.6</ele>
        <time>2022-10-28T09:32:51Z</time>
      </trkpt>
      <trkpt lat="44.40298" lon="3.58351">
        <ele>998</ele>
        <time>2022-10-28T09:32:52Z</time>
      </trkpt>
      <trkpt lat="44.40299" lon="3.58348">
        <ele>998.2</ele>
        <time>2022-10-28T09:32:53Z</time>
      </trkpt>
      <trkpt lat="44.403" lon="3.58344">
        <ele>998.4</ele>
        <time>2022-10-28T09:32:54Z</time>
      </trkpt>
      <trkpt lat="44.40301" lon="3.58341">
        <ele>998.8</ele>
        <time>2022-10-28T09:32:55Z</time>
      </trkpt>
      <trkpt lat="44.40302" lon="3.58337">
        <ele>999</ele>
        <time>2022-10-28T09:32:56Z</time>
      </trkpt>
      <trkpt lat="44.40302" lon="3.58334">
        <ele>999.4</ele>
        <time>2022-10-28T09:32:57Z</time>
      </trkpt>
      <trkpt lat="44.40303" lon="3.58331">
        <ele>999.6</ele>
        <time>2022-10-28T09:32:58Z</time>
      </trkpt>
      <trkpt lat="44.40304" lon="3.58328">
        <ele>999.8</ele>
        <time>2022-10-28T09:32:59Z</time>
      </trkpt>
      <trkpt lat="44.40304" lon="3.58325">
        <ele>1000.2</ele>
        <time>2022-10-28T09:33:00Z</time>
      </trkpt>
      <trkpt lat="44.40304" lon="3.58321">
        <ele>1000.4</ele>
        <time>2022-10-28T09:33:01Z</time>
      </trkpt>
      <trkpt lat="44.40304" lon="3.58318">
        <ele>1000.4</ele>
        <time>2022-10-28T09:33:02Z</time>
      </trkpt>
      <trkpt lat="44.40304" lon="3.58314">
        <ele>1000.6</ele>
        <time>2022-10-28T09:33:03Z</time>
      </trkpt>
      <trkpt lat="44.40304" lon="3.5831">
        <ele>1000.8</ele>
        <time>2022-10-28T09:33:04Z</time>
      </trkpt>
      <trkpt lat="44.40304" lon="3.58306">
        <ele>1000.8</ele>
        <time>2022-10-28T09:33:05Z</time>
      </trkpt>
      <trkpt lat="44.40304" lon="3.58302">
        <ele>1000.8</ele>
        <time>2022-10-28T09:33:06Z</time>
      </trkpt>
      <trkpt lat="44.40304" lon="3.58298">
        <ele>1001</ele>
        <time>2022-10-28T09:33:07Z</time>
      </trkpt>
      <trkpt lat="44.40304" lon="3.58294">
        <ele>1001</ele>
        <time>2022-10-28T09:33:08Z</time>
      </trkpt>
      <trkpt lat="44.40304" lon="3.58289">
        <ele>1001</ele>
        <time>2022-10-28T09:33:09Z</time>
      </trkpt>
      <trkpt lat="44.40304" lon="3.58285">
        <ele>1001</ele>
        <time>2022-10-28T09:33:10Z</time>
      </trkpt>
      <trkpt lat="44.40304" lon="3.5828">
        <ele>1001</ele>
        <time>2022-10-28T09:33:11Z</time>
      </trkpt>
      <trkpt lat="44.40304" lon="3.58276">
        <ele>1001</ele>
        <time>2022-10-28T09:33:12Z</time>
      </trkpt>
      <trkpt lat="44.40303" lon="3.58271">
        <ele>1001</ele>
        <time>2022-10-28T09:33:13Z</time>
      </trkpt>
      <trkpt lat="44.40303" lon="3.58267">
        <ele>1001</ele>
        <time>2022-10-28T09:33:14Z</time>
      </trkpt>
      <trkpt lat="44.40303" lon="3.58262">
        <ele>1001</ele>
        <time>2022-10-28T09:33:15Z</time>
      </trkpt>
      <trkpt lat="44.40303" lon="3.58257">
        <ele>1000.8</ele>
        <time>2022-10-28T09:33:16Z</time>
      </trkpt>
      <trkpt lat="44.40303" lon="3.58252">
        <ele>1000.6</ele>
        <time>2022-10-28T09:33:17Z</time>
      </trkpt>
      <trkpt lat="44.40303" lon="3.58246">
        <ele>1000.6</ele>
        <time>2022-10-28T09:33:18Z</time>
      </trkpt>
      <trkpt lat="44.40303" lon="3.5824">
        <ele>1000.4</ele>
        <time>2022-10-28T09:33:19Z</time>
      </trkpt>
      <trkpt lat="44.40303" lon="3.58234">
        <ele>1000.4</ele>
        <time>2022-10-28T09:33:20Z</time>
      </trkpt>
      <trkpt lat="44.40304" lon="3.58228">
        <ele>1000.2</ele>
        <time>2022-10-28T09:33:21Z</time>
      </trkpt>
      <trkpt lat="44.40304" lon="3.58222">
        <ele>1000.2</ele>
        <time>2022-10-28T09:33:22Z</time>
      </trkpt>
      <trkpt lat="44.40305" lon="3.58216">
        <ele>1000</ele>
        <time>2022-10-28T09:33:23Z</time>
      </trkpt>
      <trkpt lat="44.40306" lon="3.5821">
        <ele>1000</ele>
        <time>2022-10-28T09:33:24Z</time>
      </trkpt>
      <trkpt lat="44.40306" lon="3.58204">
        <ele>1000</ele>
        <time>2022-10-28T09:33:25Z</time>
      </trkpt>
      <trkpt lat="44.40307" lon="3.58198">
        <ele>999.8</ele>
        <time>2022-10-28T09:33:26Z</time>
      </trkpt>
      <trkpt lat="44.40307" lon="3.58192">
        <ele>999.8</ele>
        <time>2022-10-28T09:33:27Z</time>
      </trkpt>
      <trkpt lat="44.40306" lon="3.58187">
        <ele>999.8</ele>
        <time>2022-10-28T09:33:28Z</time>
      </trkpt>
      <trkpt lat="44.40306" lon="3.58181">
        <ele>999.6</ele>
        <time>2022-10-28T09:33:29Z</time>
      </trkpt>
      <trkpt lat="44.40304" lon="3.58176">
        <ele>999.6</ele>
        <time>2022-10-28T09:33:30Z</time>
      </trkpt>
      <trkpt lat="44.40302" lon="3.58172">
        <ele>999.6</ele>
        <time>2022-10-28T09:33:31Z</time>
      </trkpt>
      <trkpt lat="44.40299" lon="3.58167">
        <ele>999.6</ele>
        <time>2022-10-28T09:33:32Z</time>
      </trkpt>
      <trkpt lat="44.40297" lon="3.58163">
        <ele>999.4</ele>
        <time>2022-10-28T09:33:33Z</time>
      </trkpt>
      <trkpt lat="44.40295" lon="3.5816">
        <ele>999.4</ele>
        <time>2022-10-28T09:33:34Z</time>
      </trkpt>
      <trkpt lat="44.40294" lon="3.58157">
        <ele>999.4</ele>
        <time>2022-10-28T09:33:35Z</time>
      </trkpt>
      <trkpt lat="44.40293" lon="3.58154">
        <ele>999.2</ele>
        <time>2022-10-28T09:33:36Z</time>
      </trkpt>
      <trkpt lat="44.40294" lon="3.58151">
        <ele>999.2</ele>
        <time>2022-10-28T09:33:37Z</time>
      </trkpt>
      <trkpt lat="44.40295" lon="3.58148">
        <ele>999.2</ele>
        <time>2022-10-28T09:33:38Z</time>
      </trkpt>
      <trkpt lat="44.40297" lon="3.58146">
        <ele>999.4</ele>
        <time>2022-10-28T09:33:39Z</time>
      </trkpt>
      <trkpt lat="44.40298" lon="3.58144">
        <ele>999.6</ele>
        <time>2022-10-28T09:33:40Z</time>
      </trkpt>
      <trkpt lat="44.40299" lon="3.58142">
        <ele>999.8</ele>
        <time>2022-10-28T09:33:41Z</time>
      </trkpt>
      <trkpt lat="44.403" lon="3.58139">
        <ele>1000</ele>
        <time>2022-10-28T09:33:42Z</time>
      </trkpt>
      <trkpt lat="44.40301" lon="3.58137">
        <ele>1000.2</ele>
        <time>2022-10-28T09:33:43Z</time>
      </trkpt>
      <trkpt lat="44.40301" lon="3.58134">
        <ele>1000.6</ele>
        <time>2022-10-28T09:33:44Z</time>
      </trkpt>
      <trkpt lat="44.403" lon="3.58131">
        <ele>1000.8</ele>
        <time>2022-10-28T09:33:45Z</time>
      </trkpt>
      <trkpt lat="44.40299" lon="3.58129">
        <ele>1001</ele>
        <time>2022-10-28T09:33:46Z</time>
      </trkpt>
      <trkpt lat="44.40299" lon="3.58126">
        <ele>1001.4</ele>
        <time>2022-10-28T09:33:47Z</time>
      </trkpt>
      <trkpt lat="44.40298" lon="3.58124">
        <ele>1001.6</ele>
        <time>2022-10-28T09:33:48Z</time>
      </trkpt>
      <trkpt lat="44.40296" lon="3.58122">
        <ele>1001.8</ele>
        <time>2022-10-28T09:33:49Z</time>
      </trkpt>
      <trkpt lat="44.40294" lon="3.5812">
        <ele>1002</ele>
        <time>2022-10-28T09:33:50Z</time>
      </trkpt>
      <trkpt lat="44.40293" lon="3.58117">
        <ele>1002.2</ele>
        <time>2022-10-28T09:33:51Z</time>
      </trkpt>
      <trkpt lat="44.40291" lon="3.58116">
        <ele>1002.4</ele>
        <time>2022-10-28T09:33:52Z</time>
      </trkpt>
      <trkpt lat="44.40289" lon="3.58114">
        <ele>1002.6</ele>
        <time>2022-10-28T09:33:53Z</time>
      </trkpt>
      <trkpt lat="44.40287" lon="3.58113">
        <ele>1002.8</ele>
        <time>2022-10-28T09:33:54Z</time>
      </trkpt>
      <trkpt lat="44.40285" lon="3.58112">
        <ele>1003</ele>
        <time>2022-10-28T09:33:55Z</time>
      </trkpt>
      <trkpt lat="44.40283" lon="3.58111">
        <ele>1003.2</ele>
        <time>2022-10-28T09:33:56Z</time>
      </trkpt>
      <trkpt lat="44.40282" lon="3.5811">
        <ele>1003.4</ele>
        <time>2022-10-28T09:33:57Z</time>
      </trkpt>
      <trkpt lat="44.40281" lon="3.58108">
        <ele>1003.4</ele>
        <time>2022-10-28T09:33:58Z</time>
      </trkpt>
      <trkpt lat="44.40281" lon="3.58108">
        <ele>1003.6</ele>
        <time>2022-10-28T09:33:59Z</time>
      </trkpt>
      <trkpt lat="44.4028" lon="3.58107">
        <ele>1003.6</ele>
        <time>2022-10-28T09:34:00Z</time>
      </trkpt>
      <trkpt lat="44.40278" lon="3.58106">
        <ele>1004.2</ele>
        <time>2022-10-28T09:34:27Z</time>
      </trkpt>
      <trkpt lat="44.40276" lon="3.58105">
        <ele>1004.2</ele>
        <time>2022-10-28T09:34:28Z</time>
      </trkpt>
      <trkpt lat="44.40274" lon="3.58104">
        <ele>1004.2</ele>
        <time>2022-10-28T09:34:29Z</time>
      </trkpt>
      <trkpt lat="44.40273" lon="3.58102">
        <ele>1004.2</ele>
        <time>2022-10-28T09:34:30Z</time>
      </trkpt>
      <trkpt lat="44.40272" lon="3.581">
        <ele>1004.2</ele>
        <time>2022-10-28T09:34:31Z</time>
      </trkpt>
      <trkpt lat="44.4027" lon="3.58099">
        <ele>1004.4</ele>
        <time>2022-10-28T09:34:32Z</time>
      </trkpt>
      <trkpt lat="44.4027" lon="3.58097">
        <ele>1004.6</ele>
        <time>2022-10-28T09:34:33Z</time>
      </trkpt>
      <trkpt lat="44.40269" lon="3.58094">
        <ele>1004.8</ele>
        <time>2022-10-28T09:34:34Z</time>
      </trkpt>
      <trkpt lat="44.40268" lon="3.58092">
        <ele>1005</ele>
        <time>2022-10-28T09:34:35Z</time>
      </trkpt>
      <trkpt lat="44.40267" lon="3.58089">
        <ele>1005</ele>
        <time>2022-10-28T09:34:36Z</time>
      </trkpt>
      <trkpt lat="44.40267" lon="3.58086">
        <ele>1005.2</ele>
        <time>2022-10-28T09:34:37Z</time>
      </trkpt>
      <trkpt lat="44.40266" lon="3.58084">
        <ele>1005.4</ele>
        <time>2022-10-28T09:34:38Z</time>
      </trkpt>
      <trkpt lat="44.40265" lon="3.58081">
        <ele>1005.4</ele>
        <time>2022-10-28T09:34:39Z</time>
      </trkpt>
      <trkpt lat="44.40263" lon="3.58079">
        <ele>1005.6</ele>
        <time>2022-10-28T09:34:40Z</time>
      </trkpt>
      <trkpt lat="44.40262" lon="3.58077">
        <ele>1005.6</ele>
        <time>2022-10-28T09:34:41Z</time>
      </trkpt>
      <trkpt lat="44.40261" lon="3.58075">
        <ele>1005.8</ele>
        <time>2022-10-28T09:34:42Z</time>
      </trkpt>
      <trkpt lat="44.40259" lon="3.58073">
        <ele>1006</ele>
        <time>2022-10-28T09:34:43Z</time>
      </trkpt>
      <trkpt lat="44.40258" lon="3.58071">
        <ele>1006</ele>
        <time>2022-10-28T09:34:44Z</time>
      </trkpt>
      <trkpt lat="44.40257" lon="3.58068">
        <ele>1006.2</ele>
        <time>2022-10-28T09:34:45Z</time>
      </trkpt>
      <trkpt lat="44.40256" lon="3.58066">
        <ele>1006.4</ele>
        <time>2022-10-28T09:34:46Z</time>
      </trkpt>
      <trkpt lat="44.40256" lon="3.58063">
        <ele>1006.6</ele>
        <time>2022-10-28T09:34:47Z</time>
      </trkpt>
      <trkpt lat="44.40256" lon="3.5806">
        <ele>1006.8</ele>
        <time>2022-10-28T09:34:48Z</time>
      </trkpt>
      <trkpt lat="44.40256" lon="3.58057">
        <ele>1006.8</ele>
        <time>2022-10-28T09:34:49Z</time>
      </trkpt>
      <trkpt lat="44.40255" lon="3.58054">
        <ele>1007</ele>
        <time>2022-10-28T09:34:50Z</time>
      </trkpt>
      <trkpt lat="44.40256" lon="3.58052">
        <ele>1007</ele>
        <time>2022-10-28T09:34:51Z</time>
      </trkpt>
      <trkpt lat="44.40256" lon="3.58049">
        <ele>1007.2</ele>
        <time>2022-10-28T09:34:52Z</time>
      </trkpt>
      <trkpt lat="44.40256" lon="3.58046">
        <ele>1007.4</ele>
        <time>2022-10-28T09:34:53Z</time>
      </trkpt>
      <trkpt lat="44.40256" lon="3.58043">
        <ele>1007.4</ele>
        <time>2022-10-28T09:34:54Z</time>
      </trkpt>
      <trkpt lat="44.40256" lon="3.5804">
        <ele>1007.6</ele>
        <time>2022-10-28T09:34:55Z</time>
      </trkpt>
      <trkpt lat="44.40255" lon="3.58037">
        <ele>1007.8</ele>
        <time>2022-10-28T09:34:56Z</time>
      </trkpt>
      <trkpt lat="44.40255" lon="3.58034">
        <ele>1008</ele>
        <time>2022-10-28T09:34:57Z</time>
      </trkpt>
      <trkpt lat="44.40255" lon="3.58031">
        <ele>1008.2</ele>
        <time>2022-10-28T09:34:58Z</time>
      </trkpt>
      <trkpt lat="44.40254" lon="3.58028">
        <ele>1008.4</ele>
        <time>2022-10-28T09:34:59Z</time>
      </trkpt>
      <trkpt lat="44.40254" lon="3.58026">
        <ele>1008.6</ele>
        <time>2022-10-28T09:35:00Z</time>
      </trkpt>
      <trkpt lat="44.40254" lon="3.58023">
        <ele>1008.8</ele>
        <time>2022-10-28T09:35:01Z</time>
      </trkpt>
      <trkpt lat="44.40254" lon="3.5802">
        <ele>1009</ele>
        <time>2022-10-28T09:35:02Z</time>
      </trkpt>
      <trkpt lat="44.40254" lon="3.58017">
        <ele>1009.2</ele>
        <time>2022-10-28T09:35:03Z</time>
      </trkpt>
      <trkpt lat="44.40254" lon="3.58015">
        <ele>1009.4</ele>
        <time>2022-10-28T09:35:04Z</time>
      </trkpt>
      <trkpt lat="44.40255" lon="3.58013">
        <ele>1009.6</ele>
        <time>2022-10-28T09:35:05Z</time>
      </trkpt>
      <trkpt lat="44.40256" lon="3.5801">
        <ele>1009.8</ele>
        <time>2022-10-28T09:35:06Z</time>
      </trkpt>
      <trkpt lat="44.40256" lon="3.58008">
        <ele>1009.8</ele>
        <time>2022-10-28T09:35:07Z</time>
      </trkpt>
      <trkpt lat="44.40256" lon="3.58005">
        <ele>1010</ele>
        <time>2022-10-28T09:35:08Z</time>
      </trkpt>
      <trkpt lat="44.40257" lon="3.58002">
        <ele>1010.2</ele>
        <time>2022-10-28T09:35:09Z</time>
      </trkpt>
      <trkpt lat="44.40258" lon="3.57999">
        <ele>1010.2</ele>
        <time>2022-10-28T09:35:10Z</time>
      </trkpt>
      <trkpt lat="44.40258" lon="3.57997">
        <ele>1010.4</ele>
        <time>2022-10-28T09:35:11Z</time>
      </trkpt>
      <trkpt lat="44.40259" lon="3.57994">
        <ele>1010.4</ele>
        <time>2022-10-28T09:35:12Z</time>
      </trkpt>
      <trkpt lat="44.40259" lon="3.57991">
        <ele>1010.4</ele>
        <time>2022-10-28T09:35:13Z</time>
      </trkpt>
      <trkpt lat="44.4026" lon="3.57988">
        <ele>1010.6</ele>
        <time>2022-10-28T09:35:14Z</time>
      </trkpt>
      <trkpt lat="44.40261" lon="3.57985">
        <ele>1010.6</ele>
        <time>2022-10-28T09:35:15Z</time>
      </trkpt>
      <trkpt lat="44.40261" lon="3.57982">
        <ele>1010.6</ele>
        <time>2022-10-28T09:35:16Z</time>
      </trkpt>
      <trkpt lat="44.40262" lon="3.57979">
        <ele>1010.6</ele>
        <time>2022-10-28T09:35:17Z</time>
      </trkpt>
      <trkpt lat="44.40262" lon="3.57976">
        <ele>1010.8</ele>
        <time>2022-10-28T09:35:18Z</time>
      </trkpt>
      <trkpt lat="44.40263" lon="3.57974">
        <ele>1010.8</ele>
        <time>2022-10-28T09:35:19Z</time>
      </trkpt>
      <trkpt lat="44.40264" lon="3.57971">
        <ele>1010.8</ele>
        <time>2022-10-28T09:35:20Z</time>
      </trkpt>
      <trkpt lat="44.40264" lon="3.57968">
        <ele>1011</ele>
        <time>2022-10-28T09:35:21Z</time>
      </trkpt>
      <trkpt lat="44.40265" lon="3.57965">
        <ele>1011</ele>
        <time>2022-10-28T09:35:22Z</time>
      </trkpt>
      <trkpt lat="44.40266" lon="3.57963">
        <ele>1011.2</ele>
        <time>2022-10-28T09:35:23Z</time>
      </trkpt>
      <trkpt lat="44.40267" lon="3.5796">
        <ele>1011.2</ele>
        <time>2022-10-28T09:35:24Z</time>
      </trkpt>
      <trkpt lat="44.40267" lon="3.57957">
        <ele>1011.2</ele>
        <time>2022-10-28T09:35:25Z</time>
      </trkpt>
      <trkpt lat="44.40268" lon="3.57955">
        <ele>1011.2</ele>
        <time>2022-10-28T09:35:26Z</time>
      </trkpt>
      <trkpt lat="44.40268" lon="3.57953">
        <ele>1011.4</ele>
        <time>2022-10-28T09:35:27Z</time>
      </trkpt>
      <trkpt lat="44.40268" lon="3.57951">
        <ele>1011.4</ele>
        <time>2022-10-28T09:35:28Z</time>
      </trkpt>
      <trkpt lat="44.40268" lon="3.57949">
        <ele>1011.4</ele>
        <time>2022-10-28T09:35:29Z</time>
      </trkpt>
      <trkpt lat="44.40269" lon="3.57948">
        <ele>1011.4</ele>
        <time>2022-10-28T09:35:30Z</time>
      </trkpt>
      <trkpt lat="44.4027" lon="3.57948">
        <ele>1011.4</ele>
        <time>2022-10-28T09:35:31Z</time>
      </trkpt>
      <trkpt lat="44.4027" lon="3.57945">
        <ele>1011.6</ele>
        <time>2022-10-28T09:35:34Z</time>
      </trkpt>
      <trkpt lat="44.4027" lon="3.57944">
        <ele>1011.6</ele>
        <time>2022-10-28T09:35:35Z</time>
      </trkpt>
      <trkpt lat="44.4027" lon="3.57944">
        <ele>1011.6</ele>
        <time>2022-10-28T09:35:36Z</time>
      </trkpt>
      <trkpt lat="44.4027" lon="3.57943">
        <ele>1011.6</ele>
        <time>2022-10-28T09:35:37Z</time>
      </trkpt>
      <trkpt lat="44.4027" lon="3.57943">
        <ele>1011.6</ele>
        <time>2022-10-28T09:35:38Z</time>
      </trkpt>
      <trkpt lat="44.4027" lon="3.57943">
        <ele>1011.6</ele>
        <time>2022-10-28T09:35:39Z</time>
      </trkpt>
      <trkpt lat="44.4027" lon="3.57943">
        <ele>1011.6</ele>
        <time>2022-10-28T09:35:40Z</time>
      </trkpt>
      <trkpt lat="44.4027" lon="3.57943">
        <ele>1011.6</ele>
        <time>2022-10-28T09:35:41Z</time>
      </trkpt>
      <trkpt lat="44.40272" lon="3.57942">
        <ele>1011.8</ele>
        <time>2022-10-28T09:35:52Z</time>
      </trkpt>
      <trkpt lat="44.40273" lon="3.5794">
        <ele>1011.8</ele>
        <time>2022-10-28T09:35:53Z</time>
      </trkpt>
      <trkpt lat="44.40275" lon="3.57937">
        <ele>1011.8</ele>
        <time>2022-10-28T09:35:54Z</time>
      </trkpt>
      <trkpt lat="44.40277" lon="3.57933">
        <ele>1011.8</ele>
        <time>2022-10-28T09:35:55Z</time>
      </trkpt>
      <trkpt lat="44.40278" lon="3.57931">
        <ele>1011.8</ele>
        <time>2022-10-28T09:35:56Z</time>
      </trkpt>
      <trkpt lat="44.4028" lon="3.57929">
        <ele>1012</ele>
        <time>2022-10-28T09:35:57Z</time>
      </trkpt>
      <trkpt lat="44.40282" lon="3.57927">
        <ele>1012</ele>
        <time>2022-10-28T09:35:58Z</time>
      </trkpt>
      <trkpt lat="44.40283" lon="3.57925">
        <ele>1012.2</ele>
        <time>2022-10-28T09:35:59Z</time>
      </trkpt>
      <trkpt lat="44.40285" lon="3.57923">
        <ele>1012.2</ele>
        <time>2022-10-28T09:36:00Z</time>
      </trkpt>
      <trkpt lat="44.40286" lon="3.57921">
        <ele>1012.4</ele>
        <time>2022-10-28T09:36:01Z</time>
      </trkpt>
      <trkpt lat="44.40287" lon="3.57919">
        <ele>1012.4</ele>
        <time>2022-10-28T09:36:02Z</time>
      </trkpt>
      <trkpt lat="44.40288" lon="3.57916">
        <ele>1012.6</ele>
        <time>2022-10-28T09:36:03Z</time>
      </trkpt>
      <trkpt lat="44.4029" lon="3.57914">
        <ele>1012.8</ele>
        <time>2022-10-28T09:36:04Z</time>
      </trkpt>
      <trkpt lat="44.40291" lon="3.57912">
        <ele>1012.8</ele>
        <time>2022-10-28T09:36:05Z</time>
      </trkpt>
      <trkpt lat="44.40292" lon="3.5791">
        <ele>1013</ele>
        <time>2022-10-28T09:36:06Z</time>
      </trkpt>
      <trkpt lat="44.40293" lon="3.57908">
        <ele>1013</ele>
        <time>2022-10-28T09:36:07Z</time>
      </trkpt>
      <trkpt lat="44.40294" lon="3.57905">
        <ele>1013.2</ele>
        <time>2022-10-28T09:36:08Z</time>
      </trkpt>
      <trkpt lat="44.40296" lon="3.57903">
        <ele>1013.4</ele>
        <time>2022-10-28T09:36:09Z</time>
      </trkpt>
      <trkpt lat="44.40297" lon="3.579">
        <ele>1013.6</ele>
        <time>2022-10-28T09:36:10Z</time>
      </trkpt>
      <trkpt lat="44.40299" lon="3.57898">
        <ele>1013.8</ele>
        <time>2022-10-28T09:36:11Z</time>
      </trkpt>
      <trkpt lat="44.403" lon="3.57896">
        <ele>1014.2</ele>
        <time>2022-10-28T09:36:12Z</time>
      </trkpt>
      <trkpt lat="44.40302" lon="3.57894">
        <ele>1014.4</ele>
        <time>2022-10-28T09:36:13Z</time>
      </trkpt>
      <trkpt lat="44.40303" lon="3.57893">
        <ele>1014.6</ele>
        <time>2022-10-28T09:36:14Z</time>
      </trkpt>
      <trkpt lat="44.40303" lon="3.57893">
        <ele>1014.6</ele>
        <time>2022-10-28T09:36:15Z</time>
      </trkpt>
      <trkpt lat="44.40303" lon="3.57893">
        <ele>1014.8</ele>
        <time>2022-10-28T09:36:16Z</time>
      </trkpt>
      <trkpt lat="44.40303" lon="3.57892">
        <ele>1014.8</ele>
        <time>2022-10-28T09:36:17Z</time>
      </trkpt>
      <trkpt lat="44.40304" lon="3.57891">
        <ele>1014.8</ele>
        <time>2022-10-28T09:36:18Z</time>
      </trkpt>
      <trkpt lat="44.40305" lon="3.57889">
        <ele>1015</ele>
        <time>2022-10-28T09:36:19Z</time>
      </trkpt>
      <trkpt lat="44.40306" lon="3.57887">
        <ele>1015.2</ele>
        <time>2022-10-28T09:36:20Z</time>
      </trkpt>
      <trkpt lat="44.40308" lon="3.57885">
        <ele>1015.2</ele>
        <time>2022-10-28T09:36:21Z</time>
      </trkpt>
      <trkpt lat="44.4031" lon="3.57883">
        <ele>1015.2</ele>
        <time>2022-10-28T09:36:22Z</time>
      </trkpt>
      <trkpt lat="44.40311" lon="3.57881">
        <ele>1015.2</ele>
        <time>2022-10-28T09:36:23Z</time>
      </trkpt>
      <trkpt lat="44.40313" lon="3.57878">
        <ele>1015.4</ele>
        <time>2022-10-28T09:36:24Z</time>
      </trkpt>
      <trkpt lat="44.40314" lon="3.57877">
        <ele>1015.4</ele>
        <time>2022-10-28T09:36:25Z</time>
      </trkpt>
      <trkpt lat="44.40315" lon="3.57875">
        <ele>1015.4</ele>
        <time>2022-10-28T09:36:26Z</time>
      </trkpt>
      <trkpt lat="44.40316" lon="3.57874">
        <ele>1015.4</ele>
        <time>2022-10-28T09:36:27Z</time>
      </trkpt>
      <trkpt lat="44.40318" lon="3.57873">
        <ele>1015.4</ele>
        <time>2022-10-28T09:36:28Z</time>
      </trkpt>
      <trkpt lat="44.40319" lon="3.57871">
        <ele>1015.6</ele>
        <time>2022-10-28T09:36:29Z</time>
      </trkpt>
      <trkpt lat="44.4032" lon="3.5787">
        <ele>1015.6</ele>
        <time>2022-10-28T09:36:30Z</time>
      </trkpt>
      <trkpt lat="44.40322" lon="3.57868">
        <ele>1015.6</ele>
        <time>2022-10-28T09:36:31Z</time>
      </trkpt>
      <trkpt lat="44.40324" lon="3.57867">
        <ele>1015.8</ele>
        <time>2022-10-28T09:36:32Z</time>
      </trkpt>
      <trkpt lat="44.40326" lon="3.57866">
        <ele>1015.8</ele>
        <time>2022-10-28T09:36:33Z</time>
      </trkpt>
      <trkpt lat="44.40328" lon="3.57865">
        <ele>1015.8</ele>
        <time>2022-10-28T09:36:34Z</time>
      </trkpt>
      <trkpt lat="44.4033" lon="3.57864">
        <ele>1016</ele>
        <time>2022-10-28T09:36:35Z</time>
      </trkpt>
      <trkpt lat="44.40332" lon="3.57862">
        <ele>1016</ele>
        <time>2022-10-28T09:36:36Z</time>
      </trkpt>
      <trkpt lat="44.40334" lon="3.57861">
        <ele>1016.2</ele>
        <time>2022-10-28T09:36:37Z</time>
      </trkpt>
      <trkpt lat="44.40336" lon="3.57861">
        <ele>1016.2</ele>
        <time>2022-10-28T09:36:38Z</time>
      </trkpt>
      <trkpt lat="44.40338" lon="3.5786">
        <ele>1016.4</ele>
        <time>2022-10-28T09:36:39Z</time>
      </trkpt>
      <trkpt lat="44.4034" lon="3.57859">
        <ele>1016.4</ele>
        <time>2022-10-28T09:36:40Z</time>
      </trkpt>
      <trkpt lat="44.40342" lon="3.57858">
        <ele>1016.6</ele>
        <time>2022-10-28T09:36:41Z</time>
      </trkpt>
      <trkpt lat="44.40344" lon="3.57857">
        <ele>1016.8</ele>
        <time>2022-10-28T09:36:42Z</time>
      </trkpt>
      <trkpt lat="44.40346" lon="3.57856">
        <ele>1016.8</ele>
        <time>2022-10-28T09:36:43Z</time>
      </trkpt>
      <trkpt lat="44.40349" lon="3.57855">
        <ele>1017</ele>
        <time>2022-10-28T09:36:44Z</time>
      </trkpt>
      <trkpt lat="44.40351" lon="3.57854">
        <ele>1017</ele>
        <time>2022-10-28T09:36:45Z</time>
      </trkpt>
      <trkpt lat="44.40353" lon="3.57852">
        <ele>1017.2</ele>
        <time>2022-10-28T09:36:46Z</time>
      </trkpt>
      <trkpt lat="44.40356" lon="3.57851">
        <ele>1017.2</ele>
        <time>2022-10-28T09:36:47Z</time>
      </trkpt>
      <trkpt lat="44.40358" lon="3.5785">
        <ele>1017.2</ele>
        <time>2022-10-28T09:36:48Z</time>
      </trkpt>
      <trkpt lat="44.4036" lon="3.57849">
        <ele>1017.4</ele>
        <time>2022-10-28T09:36:49Z</time>
      </trkpt>
      <trkpt lat="44.40363" lon="3.57849">
        <ele>1017.6</ele>
        <time>2022-10-28T09:36:50Z</time>
      </trkpt>
      <trkpt lat="44.40365" lon="3.57848">
        <ele>1017.6</ele>
        <time>2022-10-28T09:36:51Z</time>
      </trkpt>
      <trkpt lat="44.40368" lon="3.57847">
        <ele>1017.8</ele>
        <time>2022-10-28T09:36:52Z</time>
      </trkpt>
      <trkpt lat="44.4037" lon="3.57846">
        <ele>1017.8</ele>
        <time>2022-10-28T09:36:53Z</time>
      </trkpt>
      <trkpt lat="44.40372" lon="3.57845">
        <ele>1017.8</ele>
        <time>2022-10-28T09:36:54Z</time>
      </trkpt>
      <trkpt lat="44.40375" lon="3.57844">
        <ele>1018</ele>
        <time>2022-10-28T09:36:55Z</time>
      </trkpt>
      <trkpt lat="44.40377" lon="3.57843">
        <ele>1018</ele>
        <time>2022-10-28T09:36:56Z</time>
      </trkpt>
      <trkpt lat="44.40378" lon="3.57842">
        <ele>1018</ele>
        <time>2022-10-28T09:36:57Z</time>
      </trkpt>
      <trkpt lat="44.4038" lon="3.57841">
        <ele>1018</ele>
        <time>2022-10-28T09:36:58Z</time>
      </trkpt>
      <trkpt lat="44.40382" lon="3.57841">
        <ele>1018</ele>
        <time>2022-10-28T09:36:59Z</time>
      </trkpt>
      <trkpt lat="44.40382" lon="3.57841">
        <ele>1018.2</ele>
        <time>2022-10-28T09:37:00Z</time>
      </trkpt>
      <trkpt lat="44.40383" lon="3.57842">
        <ele>1018.2</ele>
        <time>2022-10-28T09:37:55Z</time>
      </trkpt>
      <trkpt lat="44.40382" lon="3.57842">
        <ele>1018.2</ele>
        <time>2022-10-28T09:37:56Z</time>
      </trkpt>
      <trkpt lat="44.4038" lon="3.57843">
        <ele>1018.2</ele>
        <time>2022-10-28T09:37:57Z</time>
      </trkpt>
      <trkpt lat="44.40378" lon="3.57843">
        <ele>1018.2</ele>
        <time>2022-10-28T09:37:58Z</time>
      </trkpt>
      <trkpt lat="44.40376" lon="3.57844">
        <ele>1018.2</ele>
        <time>2022-10-28T09:37:59Z</time>
      </trkpt>
      <trkpt lat="44.40374" lon="3.57845">
        <ele>1018.2</ele>
        <time>2022-10-28T09:38:00Z</time>
      </trkpt>
      <trkpt lat="44.40371" lon="3.57845">
        <ele>1018</ele>
        <time>2022-10-28T09:38:01Z</time>
      </trkpt>
      <trkpt lat="44.40368" lon="3.57846">
        <ele>1018</ele>
        <time>2022-10-28T09:38:02Z</time>
      </trkpt>
      <trkpt lat="44.40365" lon="3.57848">
        <ele>1018</ele>
        <time>2022-10-28T09:38:03Z</time>
      </trkpt>
      <trkpt lat="44.40363" lon="3.57849">
        <ele>1017.8</ele>
        <time>2022-10-28T09:38:04Z</time>
      </trkpt>
      <trkpt lat="44.4036" lon="3.5785">
        <ele>1017.8</ele>
        <time>2022-10-28T09:38:05Z</time>
      </trkpt>
      <trkpt lat="44.40358" lon="3.57851">
        <ele>1017.6</ele>
        <time>2022-10-28T09:38:06Z</time>
      </trkpt>
      <trkpt lat="44.40357" lon="3.57851">
        <ele>1017.6</ele>
        <time>2022-10-28T09:38:07Z</time>
      </trkpt>
      <trkpt lat="44.40356" lon="3.57851">
        <ele>1017.4</ele>
        <time>2022-10-28T09:38:08Z</time>
      </trkpt>
      <trkpt lat="44.40357" lon="3.57851">
        <ele>1017.4</ele>
        <time>2022-10-28T09:38:09Z</time>
      </trkpt>
      <trkpt lat="44.40357" lon="3.57851">
        <ele>1017.4</ele>
        <time>2022-10-28T09:38:10Z</time>
      </trkpt>
      <trkpt lat="44.40357" lon="3.57851">
        <ele>1017.4</ele>
        <time>2022-10-28T09:38:11Z</time>
      </trkpt>
      <trkpt lat="44.40357" lon="3.5785">
        <ele>1017.4</ele>
        <time>2022-10-28T09:38:12Z</time>
      </trkpt>
      <trkpt lat="44.40358" lon="3.5785">
        <ele>1017.4</ele>
        <time>2022-10-28T09:38:13Z</time>
      </trkpt>
      <trkpt lat="44.40359" lon="3.57849">
        <ele>1017.4</ele>
        <time>2022-10-28T09:38:14Z</time>
      </trkpt>
      <trkpt lat="44.4036" lon="3.57848">
        <ele>1017.4</ele>
        <time>2022-10-28T09:38:15Z</time>
      </trkpt>
      <trkpt lat="44.40363" lon="3.57847">
        <ele>1017.4</ele>
        <time>2022-10-28T09:38:16Z</time>
      </trkpt>
      <trkpt lat="44.40365" lon="3.57847">
        <ele>1017.6</ele>
        <time>2022-10-28T09:38:17Z</time>
      </trkpt>
      <trkpt lat="44.40367" lon="3.57846">
        <ele>1017.6</ele>
        <time>2022-10-28T09:38:18Z</time>
      </trkpt>
      <trkpt lat="44.4037" lon="3.57845">
        <ele>1017.8</ele>
        <time>2022-10-28T09:38:19Z</time>
      </trkpt>
      <trkpt lat="44.40372" lon="3.57845">
        <ele>1017.8</ele>
        <time>2022-10-28T09:38:20Z</time>
      </trkpt>
      <trkpt lat="44.40375" lon="3.57844">
        <ele>1017.8</ele>
        <time>2022-10-28T09:38:21Z</time>
      </trkpt>
      <trkpt lat="44.40377" lon="3.57843">
        <ele>1018</ele>
        <time>2022-10-28T09:38:22Z</time>
      </trkpt>
      <trkpt lat="44.4038" lon="3.57842">
        <ele>1018</ele>
        <time>2022-10-28T09:38:23Z</time>
      </trkpt>
      <trkpt lat="44.40381" lon="3.5784">
        <ele>1018.2</ele>
        <time>2022-10-28T09:38:24Z</time>
      </trkpt>
      <trkpt lat="44.40382" lon="3.57839">
        <ele>1018.2</ele>
        <time>2022-10-28T09:38:25Z</time>
      </trkpt>
      <trkpt lat="44.40382" lon="3.57839">
        <ele>1018.2</ele>
        <time>2022-10-28T09:38:26Z</time>
      </trkpt>
      <trkpt lat="44.40382" lon="3.57839">
        <ele>1018.2</ele>
        <time>2022-10-28T09:38:27Z</time>
      </trkpt>
      <trkpt lat="44.40382" lon="3.57839">
        <ele>1018.2</ele>
        <time>2022-10-28T09:38:28Z</time>
      </trkpt>
      <trkpt lat="44.40382" lon="3.57839">
        <ele>1018.2</ele>
        <time>2022-10-28T09:38:29Z</time>
      </trkpt>
      <trkpt lat="44.40382" lon="3.57839">
        <ele>1018.2</ele>
        <time>2022-10-28T09:38:30Z</time>
      </trkpt>
      <trkpt lat="44.40384" lon="3.5784">
        <ele>1018.4</ele>
        <time>2022-10-28T09:38:58Z</time>
      </trkpt>
      <trkpt lat="44.40386" lon="3.57841">
        <ele>1018.4</ele>
        <time>2022-10-28T09:38:59Z</time>
      </trkpt>
      <trkpt lat="44.40389" lon="3.57841">
        <ele>1018.4</ele>
        <time>2022-10-28T09:39:00Z</time>
      </trkpt>
      <trkpt lat="44.40392" lon="3.57841">
        <ele>1018.6</ele>
        <time>2022-10-28T09:39:01Z</time>
      </trkpt>
      <trkpt lat="44.40395" lon="3.57841">
        <ele>1018.6</ele>
        <time>2022-10-28T09:39:02Z</time>
      </trkpt>
      <trkpt lat="44.40397" lon="3.57841">
        <ele>1018.8</ele>
        <time>2022-10-28T09:39:03Z</time>
      </trkpt>
      <trkpt lat="44.404" lon="3.57841">
        <ele>1018.8</ele>
        <time>2022-10-28T09:39:04Z</time>
      </trkpt>
      <trkpt lat="44.40403" lon="3.57842">
        <ele>1018.8</ele>
        <time>2022-10-28T09:39:05Z</time>
      </trkpt>
      <trkpt lat="44.40405" lon="3.57842">
        <ele>1019</ele>
        <time>2022-10-28T09:39:06Z</time>
      </trkpt>
      <trkpt lat="44.40408" lon="3.57843">
        <ele>1019</ele>
        <time>2022-10-28T09:39:07Z</time>
      </trkpt>
      <trkpt lat="44.40411" lon="3.57844">
        <ele>1019</ele>
        <time>2022-10-28T09:39:08Z</time>
      </trkpt>
      <trkpt lat="44.40414" lon="3.57845">
        <ele>1019.2</ele>
        <time>2022-10-28T09:39:09Z</time>
      </trkpt>
      <trkpt lat="44.40416" lon="3.57846">
        <ele>1019.2</ele>
        <time>2022-10-28T09:39:10Z</time>
      </trkpt>
      <trkpt lat="44.40419" lon="3.57846">
        <ele>1019.4</ele>
        <time>2022-10-28T09:39:11Z</time>
      </trkpt>
      <trkpt lat="44.40422" lon="3.57847">
        <ele>1019.4</ele>
        <time>2022-10-28T09:39:12Z</time>
      </trkpt>
      <trkpt lat="44.40425" lon="3.57848">
        <ele>1019.6</ele>
        <time>2022-10-28T09:39:13Z</time>
      </trkpt>
      <trkpt lat="44.40428" lon="3.57849">
        <ele>1019.6</ele>
        <time>2022-10-28T09:39:14Z</time>
      </trkpt>
      <trkpt lat="44.40431" lon="3.5785">
        <ele>1019.8</ele>
        <time>2022-10-28T09:39:15Z</time>
      </trkpt>
      <trkpt lat="44.40434" lon="3.57851">
        <ele>1019.8</ele>
        <time>2022-10-28T09:39:16Z</time>
      </trkpt>
      <trkpt lat="44.40438" lon="3.57852">
        <ele>1019.8</ele>
        <time>2022-10-28T09:39:17Z</time>
      </trkpt>
      <trkpt lat="44.40441" lon="3.57853">
        <ele>1019.8</ele>
        <time>2022-10-28T09:39:18Z</time>
      </trkpt>
      <trkpt lat="44.40444" lon="3.57854">
        <ele>1019.8</ele>
        <time>2022-10-28T09:39:19Z</time>
      </trkpt>
      <trkpt lat="44.40448" lon="3.57855">
        <ele>1019.6</ele>
        <time>2022-10-28T09:39:20Z</time>
      </trkpt>
      <trkpt lat="44.40451" lon="3.57856">
        <ele>1019.6</ele>
        <time>2022-10-28T09:39:21Z</time>
      </trkpt>
      <trkpt lat="44.40455" lon="3.57857">
        <ele>1019.6</ele>
        <time>2022-10-28T09:39:22Z</time>
      </trkpt>
      <trkpt lat="44.40458" lon="3.57859">
        <ele>1019.6</ele>
        <time>2022-10-28T09:39:23Z</time>
      </trkpt>
      <trkpt lat="44.40462" lon="3.5786">
        <ele>1019.4</ele>
        <time>2022-10-28T09:39:24Z</time>
      </trkpt>
      <trkpt lat="44.40465" lon="3.57861">
        <ele>1019.4</ele>
        <time>2022-10-28T09:39:25Z</time>
      </trkpt>
      <trkpt lat="44.40469" lon="3.57862">
        <ele>1019.4</ele>
        <time>2022-10-28T09:39:26Z</time>
      </trkpt>
      <trkpt lat="44.40473" lon="3.57863">
        <ele>1019.2</ele>
        <time>2022-10-28T09:39:27Z</time>
      </trkpt>
      <trkpt lat="44.40476" lon="3.57863">
        <ele>1019.2</ele>
        <time>2022-10-28T09:39:28Z</time>
      </trkpt>
      <trkpt lat="44.4048" lon="3.57864">
        <ele>1019</ele>
        <time>2022-10-28T09:39:29Z</time>
      </trkpt>
      <trkpt lat="44.40483" lon="3.57866">
        <ele>1019</ele>
        <time>2022-10-28T09:39:30Z</time>
      </trkpt>
      <trkpt lat="44.40487" lon="3.57867">
        <ele>1018.8</ele>
        <time>2022-10-28T09:39:31Z</time>
      </trkpt>
      <trkpt lat="44.40491" lon="3.57869">
        <ele>1018.8</ele>
        <time>2022-10-28T09:39:32Z</time>
      </trkpt>
      <trkpt lat="44.40495" lon="3.5787">
        <ele>1018.4</ele>
        <time>2022-10-28T09:39:33Z</time>
      </trkpt>
      <trkpt lat="44.405" lon="3.5787">
        <ele>1018.2</ele>
        <time>2022-10-28T09:39:34Z</time>
      </trkpt>
      <trkpt lat="44.40504" lon="3.5787">
        <ele>1018</ele>
        <time>2022-10-28T09:39:35Z</time>
      </trkpt>
      <trkpt lat="44.40509" lon="3.5787">
        <ele>1017.6</ele>
        <time>2022-10-28T09:39:36Z</time>
      </trkpt>
      <trkpt lat="44.40513" lon="3.5787">
        <ele>1017.2</ele>
        <time>2022-10-28T09:39:37Z</time>
      </trkpt>
      <trkpt lat="44.40516" lon="3.57871">
        <ele>1016.8</ele>
        <time>2022-10-28T09:39:38Z</time>
      </trkpt>
      <trkpt lat="44.4052" lon="3.57872">
        <ele>1016.4</ele>
        <time>2022-10-28T09:39:39Z</time>
      </trkpt>
      <trkpt lat="44.40524" lon="3.57874">
        <ele>1016</ele>
        <time>2022-10-28T09:39:40Z</time>
      </trkpt>
      <trkpt lat="44.40527" lon="3.57875">
        <ele>1015.6</ele>
        <time>2022-10-28T09:39:41Z</time>
      </trkpt>
      <trkpt lat="44.4053" lon="3.57878">
        <ele>1015.2</ele>
        <time>2022-10-28T09:39:42Z</time>
      </trkpt>
      <trkpt lat="44.40533" lon="3.57879">
        <ele>1014.8</ele>
        <time>2022-10-28T09:39:43Z</time>
      </trkpt>
      <trkpt lat="44.40536" lon="3.5788">
        <ele>1014.4</ele>
        <time>2022-10-28T09:39:44Z</time>
      </trkpt>
      <trkpt lat="44.40539" lon="3.5788">
        <ele>1013.8</ele>
        <time>2022-10-28T09:39:45Z</time>
      </trkpt>
      <trkpt lat="44.40542" lon="3.5788">
        <ele>1013.4</ele>
        <time>2022-10-28T09:39:46Z</time>
      </trkpt>
      <trkpt lat="44.40545" lon="3.57877">
        <ele>1012.8</ele>
        <time>2022-10-28T09:39:47Z</time>
      </trkpt>
      <trkpt lat="44.40548" lon="3.57873">
        <ele>1012.2</ele>
        <time>2022-10-28T09:39:48Z</time>
      </trkpt>
      <trkpt lat="44.40551" lon="3.57868">
        <ele>1011.6</ele>
        <time>2022-10-28T09:39:49Z</time>
      </trkpt>
      <trkpt lat="44.40553" lon="3.57864">
        <ele>1011.2</ele>
        <time>2022-10-28T09:39:50Z</time>
      </trkpt>
      <trkpt lat="44.40555" lon="3.5786">
        <ele>1010.6</ele>
        <time>2022-10-28T09:39:51Z</time>
      </trkpt>
      <trkpt lat="44.40557" lon="3.57856">
        <ele>1010</ele>
        <time>2022-10-28T09:39:52Z</time>
      </trkpt>
      <trkpt lat="44.4056" lon="3.57852">
        <ele>1009.4</ele>
        <time>2022-10-28T09:39:53Z</time>
      </trkpt>
      <trkpt lat="44.40562" lon="3.57849">
        <ele>1008.8</ele>
        <time>2022-10-28T09:39:54Z</time>
      </trkpt>
      <trkpt lat="44.40564" lon="3.57845">
        <ele>1008.4</ele>
        <time>2022-10-28T09:39:55Z</time>
      </trkpt>
      <trkpt lat="44.40566" lon="3.57841">
        <ele>1007.8</ele>
        <time>2022-10-28T09:39:56Z</time>
      </trkpt>
      <trkpt lat="44.40567" lon="3.57837">
        <ele>1007.4</ele>
        <time>2022-10-28T09:39:57Z</time>
      </trkpt>
      <trkpt lat="44.40568" lon="3.57833">
        <ele>1007</ele>
        <time>2022-10-28T09:39:58Z</time>
      </trkpt>
      <trkpt lat="44.4057" lon="3.57828">
        <ele>1006.4</ele>
        <time>2022-10-28T09:39:59Z</time>
      </trkpt>
      <trkpt lat="44.40571" lon="3.57823">
        <ele>1006</ele>
        <time>2022-10-28T09:40:00Z</time>
      </trkpt>
      <trkpt lat="44.40573" lon="3.57817">
        <ele>1005.8</ele>
        <time>2022-10-28T09:40:01Z</time>
      </trkpt>
      <trkpt lat="44.40575" lon="3.57811">
        <ele>1005.4</ele>
        <time>2022-10-28T09:40:02Z</time>
      </trkpt>
      <trkpt lat="44.40577" lon="3.57806">
        <ele>1005.2</ele>
        <time>2022-10-28T09:40:03Z</time>
      </trkpt>
      <trkpt lat="44.40579" lon="3.578">
        <ele>1005.2</ele>
        <time>2022-10-28T09:40:04Z</time>
      </trkpt>
      <trkpt lat="44.40582" lon="3.57795">
        <ele>1005</ele>
        <time>2022-10-28T09:40:05Z</time>
      </trkpt>
      <trkpt lat="44.40585" lon="3.57789">
        <ele>1004.8</ele>
        <time>2022-10-28T09:40:06Z</time>
      </trkpt>
      <trkpt lat="44.40587" lon="3.57784">
        <ele>1004.8</ele>
        <time>2022-10-28T09:40:07Z</time>
      </trkpt>
      <trkpt lat="44.40589" lon="3.57778">
        <ele>1004.8</ele>
        <time>2022-10-28T09:40:08Z</time>
      </trkpt>
      <trkpt lat="44.4059" lon="3.57772">
        <ele>1004.8</ele>
        <time>2022-10-28T09:40:09Z</time>
      </trkpt>
      <trkpt lat="44.4059" lon="3.57767">
        <ele>1004.8</ele>
        <time>2022-10-28T09:40:10Z</time>
      </trkpt>
      <trkpt lat="44.40591" lon="3.57761">
        <ele>1004.8</ele>
        <time>2022-10-28T09:40:11Z</time>
      </trkpt>
      <trkpt lat="44.40591" lon="3.57756">
        <ele>1004.8</ele>
        <time>2022-10-28T09:40:12Z</time>
      </trkpt>
      <trkpt lat="44.40591" lon="3.57751">
        <ele>1004.8</ele>
        <time>2022-10-28T09:40:13Z</time>
      </trkpt>
      <trkpt lat="44.40591" lon="3.57746">
        <ele>1005</ele>
        <time>2022-10-28T09:40:14Z</time>
      </trkpt>
      <trkpt lat="44.40591" lon="3.57741">
        <ele>1005</ele>
        <time>2022-10-28T09:40:15Z</time>
      </trkpt>
      <trkpt lat="44.4059" lon="3.57736">
        <ele>1005.2</ele>
        <time>2022-10-28T09:40:16Z</time>
      </trkpt>
      <trkpt lat="44.4059" lon="3.57732">
        <ele>1005.2</ele>
        <time>2022-10-28T09:40:17Z</time>
      </trkpt>
      <trkpt lat="44.4059" lon="3.57729">
        <ele>1005.4</ele>
        <time>2022-10-28T09:40:18Z</time>
      </trkpt>
      <trkpt lat="44.4059" lon="3.57725">
        <ele>1005.6</ele>
        <time>2022-10-28T09:40:19Z</time>
      </trkpt>
      <trkpt lat="44.40589" lon="3.57722">
        <ele>1005.8</ele>
        <time>2022-10-28T09:40:20Z</time>
      </trkpt>
      <trkpt lat="44.40589" lon="3.57718">
        <ele>1006</ele>
        <time>2022-10-28T09:40:21Z</time>
      </trkpt>
      <trkpt lat="44.40588" lon="3.57715">
        <ele>1006.2</ele>
        <time>2022-10-28T09:40:22Z</time>
      </trkpt>
      <trkpt lat="44.40588" lon="3.57713">
        <ele>1006.4</ele>
        <time>2022-10-28T09:40:23Z</time>
      </trkpt>
      <trkpt lat="44.40587" lon="3.5771">
        <ele>1006.8</ele>
        <time>2022-10-28T09:40:24Z</time>
      </trkpt>
      <trkpt lat="44.40586" lon="3.57707">
        <ele>1007</ele>
        <time>2022-10-28T09:40:25Z</time>
      </trkpt>
      <trkpt lat="44.40586" lon="3.57704">
        <ele>1007.2</ele>
        <time>2022-10-28T09:40:26Z</time>
      </trkpt>
      <trkpt lat="44.40585" lon="3.57701">
        <ele>1007.4</ele>
        <time>2022-10-28T09:40:27Z</time>
      </trkpt>
      <trkpt lat="44.40584" lon="3.57698">
        <ele>1007.6</ele>
        <time>2022-10-28T09:40:28Z</time>
      </trkpt>
      <trkpt lat="44.40582" lon="3.57695">
        <ele>1007.8</ele>
        <time>2022-10-28T09:40:29Z</time>
      </trkpt>
      <trkpt lat="44.40582" lon="3.57692">
        <ele>1008</ele>
        <time>2022-10-28T09:40:30Z</time>
      </trkpt>
      <trkpt lat="44.40581" lon="3.57689">
        <ele>1008.2</ele>
        <time>2022-10-28T09:40:31Z</time>
      </trkpt>
      <trkpt lat="44.4058" lon="3.57686">
        <ele>1008.6</ele>
        <time>2022-10-28T09:40:32Z</time>
      </trkpt>
      <trkpt lat="44.4058" lon="3.57683">
        <ele>1008.8</ele>
        <time>2022-10-28T09:40:33Z</time>
      </trkpt>
      <trkpt lat="44.4058" lon="3.57681">
        <ele>1009</ele>
        <time>2022-10-28T09:40:34Z</time>
      </trkpt>
      <trkpt lat="44.4058" lon="3.57678">
        <ele>1009.2</ele>
        <time>2022-10-28T09:40:35Z</time>
      </trkpt>
      <trkpt lat="44.4058" lon="3.57676">
        <ele>1009.6</ele>
        <time>2022-10-28T09:40:36Z</time>
      </trkpt>
      <trkpt lat="44.40582" lon="3.57673">
        <ele>1009.8</ele>
        <time>2022-10-28T09:40:37Z</time>
      </trkpt>
      <trkpt lat="44.40583" lon="3.57672">
        <ele>1010</ele>
        <time>2022-10-28T09:40:38Z</time>
      </trkpt>
      <trkpt lat="44.40585" lon="3.57672">
        <ele>1010</ele>
        <time>2022-10-28T09:40:39Z</time>
      </trkpt>
      <trkpt lat="44.40588" lon="3.57672">
        <ele>1010.2</ele>
        <time>2022-10-28T09:40:40Z</time>
      </trkpt>
      <trkpt lat="44.40589" lon="3.57673">
        <ele>1010.4</ele>
        <time>2022-10-28T09:40:41Z</time>
      </trkpt>
      <trkpt lat="44.40591" lon="3.57673">
        <ele>1010.6</ele>
        <time>2022-10-28T09:40:42Z</time>
      </trkpt>
      <trkpt lat="44.40593" lon="3.57674">
        <ele>1010.8</ele>
        <time>2022-10-28T09:40:43Z</time>
      </trkpt>
      <trkpt lat="44.40595" lon="3.57676">
        <ele>1011</ele>
        <time>2022-10-28T09:40:44Z</time>
      </trkpt>
      <trkpt lat="44.40596" lon="3.57677">
        <ele>1011.2</ele>
        <time>2022-10-28T09:40:45Z</time>
      </trkpt>
      <trkpt lat="44.40597" lon="3.57679">
        <ele>1011.2</ele>
        <time>2022-10-28T09:40:46Z</time>
      </trkpt>
      <trkpt lat="44.40599" lon="3.5768">
        <ele>1011.4</ele>
        <time>2022-10-28T09:40:47Z</time>
      </trkpt>
      <trkpt lat="44.40601" lon="3.57681">
        <ele>1011.6</ele>
        <time>2022-10-28T09:40:48Z</time>
      </trkpt>
      <trkpt lat="44.40603" lon="3.57682">
        <ele>1011.8</ele>
        <time>2022-10-28T09:40:49Z</time>
      </trkpt>
      <trkpt lat="44.40605" lon="3.57683">
        <ele>1012</ele>
        <time>2022-10-28T09:40:50Z</time>
      </trkpt>
      <trkpt lat="44.40607" lon="3.57684">
        <ele>1012.2</ele>
        <time>2022-10-28T09:40:51Z</time>
      </trkpt>
      <trkpt lat="44.40609" lon="3.57684">
        <ele>1012.4</ele>
        <time>2022-10-28T09:40:52Z</time>
      </trkpt>
      <trkpt lat="44.40611" lon="3.57685">
        <ele>1012.6</ele>
        <time>2022-10-28T09:40:53Z</time>
      </trkpt>
      <trkpt lat="44.40613" lon="3.57686">
        <ele>1012.8</ele>
        <time>2022-10-28T09:40:54Z</time>
      </trkpt>
      <trkpt lat="44.40615" lon="3.57686">
        <ele>1012.8</ele>
        <time>2022-10-28T09:40:55Z</time>
      </trkpt>
      <trkpt lat="44.40617" lon="3.57687">
        <ele>1013</ele>
        <time>2022-10-28T09:40:56Z</time>
      </trkpt>
      <trkpt lat="44.40619" lon="3.57688">
        <ele>1013.2</ele>
        <time>2022-10-28T09:40:57Z</time>
      </trkpt>
      <trkpt lat="44.40621" lon="3.57688">
        <ele>1013.4</ele>
        <time>2022-10-28T09:40:58Z</time>
      </trkpt>
      <trkpt lat="44.40624" lon="3.57688">
        <ele>1013.6</ele>
        <time>2022-10-28T09:40:59Z</time>
      </trkpt>
      <trkpt lat="44.40626" lon="3.57688">
        <ele>1013.8</ele>
        <time>2022-10-28T09:41:00Z</time>
      </trkpt>
      <trkpt lat="44.40628" lon="3.57688">
        <ele>1014</ele>
        <time>2022-10-28T09:41:01Z</time>
      </trkpt>
      <trkpt lat="44.4063" lon="3.57688">
        <ele>1014</ele>
        <time>2022-10-28T09:41:02Z</time>
      </trkpt>
      <trkpt lat="44.40632" lon="3.57688">
        <ele>1014.2</ele>
        <time>2022-10-28T09:41:03Z</time>
      </trkpt>
      <trkpt lat="44.40634" lon="3.57688">
        <ele>1014.4</ele>
        <time>2022-10-28T09:41:04Z</time>
      </trkpt>
      <trkpt lat="44.40636" lon="3.57688">
        <ele>1014.6</ele>
        <time>2022-10-28T09:41:05Z</time>
      </trkpt>
      <trkpt lat="44.40639" lon="3.57688">
        <ele>1014.8</ele>
        <time>2022-10-28T09:41:06Z</time>
      </trkpt>
      <trkpt lat="44.40641" lon="3.57688">
        <ele>1014.8</ele>
        <time>2022-10-28T09:41:07Z</time>
      </trkpt>
      <trkpt lat="44.40643" lon="3.57688">
        <ele>1015</ele>
        <time>2022-10-28T09:41:08Z</time>
      </trkpt>
      <trkpt lat="44.40645" lon="3.57688">
        <ele>1015</ele>
        <time>2022-10-28T09:41:09Z</time>
      </trkpt>
      <trkpt lat="44.40647" lon="3.57688">
        <ele>1015.2</ele>
        <time>2022-10-28T09:41:10Z</time>
      </trkpt>
      <trkpt lat="44.40649" lon="3.57688">
        <ele>1015.2</ele>
        <time>2022-10-28T09:41:11Z</time>
      </trkpt>
      <trkpt lat="44.40652" lon="3.57688">
        <ele>1015.4</ele>
        <time>2022-10-28T09:41:12Z</time>
      </trkpt>
      <trkpt lat="44.40654" lon="3.57688">
        <ele>1015.6</ele>
        <time>2022-10-28T09:41:13Z</time>
      </trkpt>
      <trkpt lat="44.40657" lon="3.57688">
        <ele>1015.8</ele>
        <time>2022-10-28T09:41:14Z</time>
      </trkpt>
      <trkpt lat="44.40659" lon="3.57687">
        <ele>1016</ele>
        <time>2022-10-28T09:41:15Z</time>
      </trkpt>
      <trkpt lat="44.40661" lon="3.57687">
        <ele>1016</ele>
        <time>2022-10-28T09:41:16Z</time>
      </trkpt>
      <trkpt lat="44.40663" lon="3.57687">
        <ele>1016.2</ele>
        <time>2022-10-28T09:41:17Z</time>
      </trkpt>
      <trkpt lat="44.40665" lon="3.57687">
        <ele>1016.4</ele>
        <time>2022-10-28T09:41:18Z</time>
      </trkpt>
      <trkpt lat="44.40667" lon="3.57687">
        <ele>1016.6</ele>
        <time>2022-10-28T09:41:19Z</time>
      </trkpt>
      <trkpt lat="44.40669" lon="3.57687">
        <ele>1016.8</ele>
        <time>2022-10-28T09:41:20Z</time>
      </trkpt>
      <trkpt lat="44.40671" lon="3.57686">
        <ele>1017</ele>
        <time>2022-10-28T09:41:21Z</time>
      </trkpt>
      <trkpt lat="44.40673" lon="3.57686">
        <ele>1017</ele>
        <time>2022-10-28T09:41:22Z</time>
      </trkpt>
      <trkpt lat="44.40676" lon="3.57685">
        <ele>1017.2</ele>
        <time>2022-10-28T09:41:23Z</time>
      </trkpt>
      <trkpt lat="44.40678" lon="3.57685">
        <ele>1017.2</ele>
        <time>2022-10-28T09:41:24Z</time>
      </trkpt>
      <trkpt lat="44.4068" lon="3.57685">
        <ele>1017.4</ele>
        <time>2022-10-28T09:41:25Z</time>
      </trkpt>
      <trkpt lat="44.40682" lon="3.57685">
        <ele>1017.4</ele>
        <time>2022-10-28T09:41:26Z</time>
      </trkpt>
      <trkpt lat="44.40684" lon="3.57685">
        <ele>1017.6</ele>
        <time>2022-10-28T09:41:27Z</time>
      </trkpt>
      <trkpt lat="44.40687" lon="3.57685">
        <ele>1017.8</ele>
        <time>2022-10-28T09:41:28Z</time>
      </trkpt>
      <trkpt lat="44.40689" lon="3.57685">
        <ele>1018</ele>
        <time>2022-10-28T09:41:29Z</time>
      </trkpt>
      <trkpt lat="44.40691" lon="3.57685">
        <ele>1018.2</ele>
        <time>2022-10-28T09:41:30Z</time>
      </trkpt>
      <trkpt lat="44.40692" lon="3.57684">
        <ele>1018.2</ele>
        <time>2022-10-28T09:41:31Z</time>
      </trkpt>
      <trkpt lat="44.40695" lon="3.57684">
        <ele>1018.4</ele>
        <time>2022-10-28T09:41:32Z</time>
      </trkpt>
      <trkpt lat="44.40697" lon="3.57683">
        <ele>1018.6</ele>
        <time>2022-10-28T09:41:33Z</time>
      </trkpt>
      <trkpt lat="44.40699" lon="3.57683">
        <ele>1018.8</ele>
        <time>2022-10-28T09:41:34Z</time>
      </trkpt>
      <trkpt lat="44.407" lon="3.57683">
        <ele>1019</ele>
        <time>2022-10-28T09:41:35Z</time>
      </trkpt>
      <trkpt lat="44.40702" lon="3.57682">
        <ele>1019.2</ele>
        <time>2022-10-28T09:41:36Z</time>
      </trkpt>
      <trkpt lat="44.40704" lon="3.57682">
        <ele>1019.4</ele>
        <time>2022-10-28T09:41:37Z</time>
      </trkpt>
      <trkpt lat="44.40705" lon="3.57682">
        <ele>1019.6</ele>
        <time>2022-10-28T09:41:38Z</time>
      </trkpt>
      <trkpt lat="44.40707" lon="3.57682">
        <ele>1019.8</ele>
        <time>2022-10-28T09:41:39Z</time>
      </trkpt>
      <trkpt lat="44.40709" lon="3.57681">
        <ele>1020</ele>
        <time>2022-10-28T09:41:40Z</time>
      </trkpt>
      <trkpt lat="44.40711" lon="3.57681">
        <ele>1020.2</ele>
        <time>2022-10-28T09:41:41Z</time>
      </trkpt>
      <trkpt lat="44.40713" lon="3.57681">
        <ele>1020.4</ele>
        <time>2022-10-28T09:41:42Z</time>
      </trkpt>
      <trkpt lat="44.40714" lon="3.57681">
        <ele>1020.6</ele>
        <time>2022-10-28T09:41:43Z</time>
      </trkpt>
      <trkpt lat="44.40716" lon="3.5768">
        <ele>1020.8</ele>
        <time>2022-10-28T09:41:44Z</time>
      </trkpt>
      <trkpt lat="44.40718" lon="3.5768">
        <ele>1021</ele>
        <time>2022-10-28T09:41:45Z</time>
      </trkpt>
      <trkpt lat="44.40719" lon="3.57679">
        <ele>1021.2</ele>
        <time>2022-10-28T09:41:46Z</time>
      </trkpt>
      <trkpt lat="44.40721" lon="3.57679">
        <ele>1021.4</ele>
        <time>2022-10-28T09:41:47Z</time>
      </trkpt>
      <trkpt lat="44.40723" lon="3.57679">
        <ele>1021.6</ele>
        <time>2022-10-28T09:41:48Z</time>
      </trkpt>
      <trkpt lat="44.40725" lon="3.57679">
        <ele>1022</ele>
        <time>2022-10-28T09:41:49Z</time>
      </trkpt>
      <trkpt lat="44.40726" lon="3.57678">
        <ele>1022.2</ele>
        <time>2022-10-28T09:41:50Z</time>
      </trkpt>
      <trkpt lat="44.40728" lon="3.57678">
        <ele>1022.4</ele>
        <time>2022-10-28T09:41:51Z</time>
      </trkpt>
      <trkpt lat="44.40729" lon="3.57678">
        <ele>1022.6</ele>
        <time>2022-10-28T09:41:52Z</time>
      </trkpt>
      <trkpt lat="44.40731" lon="3.57678">
        <ele>1022.8</ele>
        <time>2022-10-28T09:41:53Z</time>
      </trkpt>
      <trkpt lat="44.40733" lon="3.57678">
        <ele>1023</ele>
        <time>2022-10-28T09:41:54Z</time>
      </trkpt>
      <trkpt lat="44.40735" lon="3.57677">
        <ele>1023</ele>
        <time>2022-10-28T09:41:55Z</time>
      </trkpt>
      <trkpt lat="44.40737" lon="3.57677">
        <ele>1023.2</ele>
        <time>2022-10-28T09:41:56Z</time>
      </trkpt>
      <trkpt lat="44.40739" lon="3.57677">
        <ele>1023.4</ele>
        <time>2022-10-28T09:41:57Z</time>
      </trkpt>
      <trkpt lat="44.4074" lon="3.57676">
        <ele>1023.6</ele>
        <time>2022-10-28T09:41:58Z</time>
      </trkpt>
      <trkpt lat="44.40742" lon="3.57675">
        <ele>1023.8</ele>
        <time>2022-10-28T09:41:59Z</time>
      </trkpt>
      <trkpt lat="44.40744" lon="3.57675">
        <ele>1024</ele>
        <time>2022-10-28T09:42:00Z</time>
      </trkpt>
      <trkpt lat="44.40746" lon="3.57674">
        <ele>1024.2</ele>
        <time>2022-10-28T09:42:01Z</time>
      </trkpt>
      <trkpt lat="44.40748" lon="3.57674">
        <ele>1024.4</ele>
        <time>2022-10-28T09:42:02Z</time>
      </trkpt>
      <trkpt lat="44.40749" lon="3.57673">
        <ele>1024.6</ele>
        <time>2022-10-28T09:42:03Z</time>
      </trkpt>
      <trkpt lat="44.40751" lon="3.57673">
        <ele>1024.8</ele>
        <time>2022-10-28T09:42:04Z</time>
      </trkpt>
      <trkpt lat="44.40753" lon="3.57673">
        <ele>1025</ele>
        <time>2022-10-28T09:42:05Z</time>
      </trkpt>
      <trkpt lat="44.40755" lon="3.57673">
        <ele>1025.2</ele>
        <time>2022-10-28T09:42:06Z</time>
      </trkpt>
      <trkpt lat="44.40756" lon="3.57673">
        <ele>1025.4</ele>
        <time>2022-10-28T09:42:07Z</time>
      </trkpt>
      <trkpt lat="44.40758" lon="3.57673">
        <ele>1025.6</ele>
        <time>2022-10-28T09:42:08Z</time>
      </trkpt>
      <trkpt lat="44.4076" lon="3.57672">
        <ele>1026</ele>
        <time>2022-10-28T09:42:09Z</time>
      </trkpt>
      <trkpt lat="44.40761" lon="3.57672">
        <ele>1026.2</ele>
        <time>2022-10-28T09:42:10Z</time>
      </trkpt>
      <trkpt lat="44.40763" lon="3.57672">
        <ele>1026.4</ele>
        <time>2022-10-28T09:42:11Z</time>
      </trkpt>
      <trkpt lat="44.40764" lon="3.57672">
        <ele>1026.6</ele>
        <time>2022-10-28T09:42:12Z</time>
      </trkpt>
      <trkpt lat="44.40766" lon="3.57672">
        <ele>1026.8</ele>
        <time>2022-10-28T09:42:13Z</time>
      </trkpt>
      <trkpt lat="44.40768" lon="3.57672">
        <ele>1027</ele>
        <time>2022-10-28T09:42:14Z</time>
      </trkpt>
      <trkpt lat="44.40769" lon="3.57671">
        <ele>1027.2</ele>
        <time>2022-10-28T09:42:15Z</time>
      </trkpt>
      <trkpt lat="44.40771" lon="3.57671">
        <ele>1027.4</ele>
        <time>2022-10-28T09:42:16Z</time>
      </trkpt>
      <trkpt lat="44.40773" lon="3.57671">
        <ele>1027.6</ele>
        <time>2022-10-28T09:42:17Z</time>
      </trkpt>
      <trkpt lat="44.40775" lon="3.57671">
        <ele>1027.8</ele>
        <time>2022-10-28T09:42:18Z</time>
      </trkpt>
      <trkpt lat="44.40776" lon="3.5767">
        <ele>1028</ele>
        <time>2022-10-28T09:42:19Z</time>
      </trkpt>
      <trkpt lat="44.40778" lon="3.5767">
        <ele>1028.2</ele>
        <time>2022-10-28T09:42:20Z</time>
      </trkpt>
      <trkpt lat="44.40779" lon="3.57669">
        <ele>1028.4</ele>
        <time>2022-10-28T09:42:21Z</time>
      </trkpt>
      <trkpt lat="44.40781" lon="3.57669">
        <ele>1028.6</ele>
        <time>2022-10-28T09:42:22Z</time>
      </trkpt>
      <trkpt lat="44.40783" lon="3.57668">
        <ele>1028.8</ele>
        <time>2022-10-28T09:42:23Z</time>
      </trkpt>
      <trkpt lat="44.40784" lon="3.57668">
        <ele>1029</ele>
        <time>2022-10-28T09:42:24Z</time>
      </trkpt>
      <trkpt lat="44.40786" lon="3.57668">
        <ele>1029.2</ele>
        <time>2022-10-28T09:42:25Z</time>
      </trkpt>
      <trkpt lat="44.40788" lon="3.57667">
        <ele>1029.4</ele>
        <time>2022-10-28T09:42:26Z</time>
      </trkpt>
      <trkpt lat="44.4079" lon="3.57667">
        <ele>1029.6</ele>
        <time>2022-10-28T09:42:27Z</time>
      </trkpt>
      <trkpt lat="44.40791" lon="3.57667">
        <ele>1029.8</ele>
        <time>2022-10-28T09:42:28Z</time>
      </trkpt>
      <trkpt lat="44.40793" lon="3.57666">
        <ele>1030</ele>
        <time>2022-10-28T09:42:29Z</time>
      </trkpt>
      <trkpt lat="44.40794" lon="3.57665">
        <ele>1030.2</ele>
        <time>2022-10-28T09:42:30Z</time>
      </trkpt>
      <trkpt lat="44.40796" lon="3.57665">
        <ele>1030.2</ele>
        <time>2022-10-28T09:42:31Z</time>
      </trkpt>
      <trkpt lat="44.40798" lon="3.57665">
        <ele>1030.4</ele>
        <time>2022-10-28T09:42:32Z</time>
      </trkpt>
      <trkpt lat="44.408" lon="3.57666">
        <ele>1030.4</ele>
        <time>2022-10-28T09:42:33Z</time>
      </trkpt>
      <trkpt lat="44.40802" lon="3.57666">
        <ele>1030.6</ele>
        <time>2022-10-28T09:42:34Z</time>
      </trkpt>
      <trkpt lat="44.40803" lon="3.57666">
        <ele>1030.8</ele>
        <time>2022-10-28T09:42:35Z</time>
      </trkpt>
      <trkpt lat="44.40805" lon="3.57666">
        <ele>1031</ele>
        <time>2022-10-28T09:42:36Z</time>
      </trkpt>
      <trkpt lat="44.40807" lon="3.57666">
        <ele>1031.2</ele>
        <time>2022-10-28T09:42:37Z</time>
      </trkpt>
      <trkpt lat="44.40808" lon="3.57666">
        <ele>1031.4</ele>
        <time>2022-10-28T09:42:38Z</time>
      </trkpt>
      <trkpt lat="44.4081" lon="3.57666">
        <ele>1031.6</ele>
        <time>2022-10-28T09:42:39Z</time>
      </trkpt>
      <trkpt lat="44.40811" lon="3.57667">
        <ele>1031.8</ele>
        <time>2022-10-28T09:42:40Z</time>
      </trkpt>
      <trkpt lat="44.40813" lon="3.57667">
        <ele>1032</ele>
        <time>2022-10-28T09:42:41Z</time>
      </trkpt>
      <trkpt lat="44.40814" lon="3.57667">
        <ele>1032.2</ele>
        <time>2022-10-28T09:42:42Z</time>
      </trkpt>
      <trkpt lat="44.40816" lon="3.57667">
        <ele>1032.4</ele>
        <time>2022-10-28T09:42:43Z</time>
      </trkpt>
      <trkpt lat="44.40818" lon="3.57667">
        <ele>1032.6</ele>
        <time>2022-10-28T09:42:44Z</time>
      </trkpt>
      <trkpt lat="44.40819" lon="3.57668">
        <ele>1032.8</ele>
        <time>2022-10-28T09:42:45Z</time>
      </trkpt>
      <trkpt lat="44.40821" lon="3.57668">
        <ele>1033</ele>
        <time>2022-10-28T09:42:46Z</time>
      </trkpt>
      <trkpt lat="44.40822" lon="3.57668">
        <ele>1033</ele>
        <time>2022-10-28T09:42:47Z</time>
      </trkpt>
      <trkpt lat="44.40824" lon="3.57669">
        <ele>1033.2</ele>
        <time>2022-10-28T09:42:48Z</time>
      </trkpt>
      <trkpt lat="44.40826" lon="3.57669">
        <ele>1033.4</ele>
        <time>2022-10-28T09:42:49Z</time>
      </trkpt>
      <trkpt lat="44.40827" lon="3.5767">
        <ele>1033.6</ele>
        <time>2022-10-28T09:42:50Z</time>
      </trkpt>
      <trkpt lat="44.40828" lon="3.5767">
        <ele>1033.8</ele>
        <time>2022-10-28T09:42:51Z</time>
      </trkpt>
      <trkpt lat="44.40829" lon="3.5767">
        <ele>1034</ele>
        <time>2022-10-28T09:42:52Z</time>
      </trkpt>
      <trkpt lat="44.40831" lon="3.5767">
        <ele>1034.2</ele>
        <time>2022-10-28T09:42:53Z</time>
      </trkpt>
      <trkpt lat="44.40833" lon="3.5767">
        <ele>1034.4</ele>
        <time>2022-10-28T09:42:54Z</time>
      </trkpt>
      <trkpt lat="44.40834" lon="3.5767">
        <ele>1034.6</ele>
        <time>2022-10-28T09:42:55Z</time>
      </trkpt>
      <trkpt lat="44.40836" lon="3.5767">
        <ele>1034.8</ele>
        <time>2022-10-28T09:42:56Z</time>
      </trkpt>
      <trkpt lat="44.40838" lon="3.57671">
        <ele>1035</ele>
        <time>2022-10-28T09:42:57Z</time>
      </trkpt>
      <trkpt lat="44.40839" lon="3.57671">
        <ele>1035.2</ele>
        <time>2022-10-28T09:42:58Z</time>
      </trkpt>
      <trkpt lat="44.40841" lon="3.57672">
        <ele>1035.4</ele>
        <time>2022-10-28T09:42:59Z</time>
      </trkpt>
      <trkpt lat="44.40842" lon="3.57673">
        <ele>1035.6</ele>
        <time>2022-10-28T09:43:00Z</time>
      </trkpt>
      <trkpt lat="44.40844" lon="3.57673">
        <ele>1035.8</ele>
        <time>2022-10-28T09:43:01Z</time>
      </trkpt>
      <trkpt lat="44.40845" lon="3.57673">
        <ele>1036</ele>
        <time>2022-10-28T09:43:02Z</time>
      </trkpt>
      <trkpt lat="44.40846" lon="3.57674">
        <ele>1036.4</ele>
        <time>2022-10-28T09:43:03Z</time>
      </trkpt>
      <trkpt lat="44.40848" lon="3.57675">
        <ele>1036.6</ele>
        <time>2022-10-28T09:43:04Z</time>
      </trkpt>
      <trkpt lat="44.4085" lon="3.57676">
        <ele>1036.8</ele>
        <time>2022-10-28T09:43:05Z</time>
      </trkpt>
      <trkpt lat="44.40851" lon="3.57676">
        <ele>1037</ele>
        <time>2022-10-28T09:43:06Z</time>
      </trkpt>
      <trkpt lat="44.40853" lon="3.57677">
        <ele>1037.2</ele>
        <time>2022-10-28T09:43:07Z</time>
      </trkpt>
      <trkpt lat="44.40854" lon="3.57678">
        <ele>1037.6</ele>
        <time>2022-10-28T09:43:08Z</time>
      </trkpt>
      <trkpt lat="44.40856" lon="3.57679">
        <ele>1037.8</ele>
        <time>2022-10-28T09:43:09Z</time>
      </trkpt>
      <trkpt lat="44.40858" lon="3.57679">
        <ele>1038</ele>
        <time>2022-10-28T09:43:10Z</time>
      </trkpt>
      <trkpt lat="44.40859" lon="3.5768">
        <ele>1038.2</ele>
        <time>2022-10-28T09:43:11Z</time>
      </trkpt>
      <trkpt lat="44.40861" lon="3.5768">
        <ele>1038.4</ele>
        <time>2022-10-28T09:43:12Z</time>
      </trkpt>
      <trkpt lat="44.40862" lon="3.57681">
        <ele>1038.4</ele>
        <time>2022-10-28T09:43:13Z</time>
      </trkpt>
      <trkpt lat="44.40864" lon="3.57682">
        <ele>1038.6</ele>
        <time>2022-10-28T09:43:14Z</time>
      </trkpt>
      <trkpt lat="44.40866" lon="3.57683">
        <ele>1038.8</ele>
        <time>2022-10-28T09:43:15Z</time>
      </trkpt>
      <trkpt lat="44.40867" lon="3.57683">
        <ele>1039</ele>
        <time>2022-10-28T09:43:16Z</time>
      </trkpt>
      <trkpt lat="44.40869" lon="3.57684">
        <ele>1039.2</ele>
        <time>2022-10-28T09:43:17Z</time>
      </trkpt>
      <trkpt lat="44.4087" lon="3.57685">
        <ele>1039.4</ele>
        <time>2022-10-28T09:43:18Z</time>
      </trkpt>
      <trkpt lat="44.40872" lon="3.57685">
        <ele>1039.6</ele>
        <time>2022-10-28T09:43:19Z</time>
      </trkpt>
      <trkpt lat="44.40873" lon="3.57686">
        <ele>1039.8</ele>
        <time>2022-10-28T09:43:20Z</time>
      </trkpt>
      <trkpt lat="44.40875" lon="3.57687">
        <ele>1040</ele>
        <time>2022-10-28T09:43:21Z</time>
      </trkpt>
      <trkpt lat="44.40876" lon="3.57688">
        <ele>1040.2</ele>
        <time>2022-10-28T09:43:22Z</time>
      </trkpt>
      <trkpt lat="44.40878" lon="3.57689">
        <ele>1040.4</ele>
        <time>2022-10-28T09:43:23Z</time>
      </trkpt>
      <trkpt lat="44.40879" lon="3.5769">
        <ele>1040.8</ele>
        <time>2022-10-28T09:43:24Z</time>
      </trkpt>
      <trkpt lat="44.40881" lon="3.5769">
        <ele>1041</ele>
        <time>2022-10-28T09:43:25Z</time>
      </trkpt>
      <trkpt lat="44.40882" lon="3.57691">
        <ele>1041.2</ele>
        <time>2022-10-28T09:43:26Z</time>
      </trkpt>
      <trkpt lat="44.40884" lon="3.57691">
        <ele>1041.4</ele>
        <time>2022-10-28T09:43:27Z</time>
      </trkpt>
      <trkpt lat="44.40885" lon="3.57691">
        <ele>1041.6</ele>
        <time>2022-10-28T09:43:28Z</time>
      </trkpt>
      <trkpt lat="44.40887" lon="3.57691">
        <ele>1041.6</ele>
        <time>2022-10-28T09:43:29Z</time>
      </trkpt>
      <trkpt lat="44.40889" lon="3.57692">
        <ele>1041.8</ele>
        <time>2022-10-28T09:43:30Z</time>
      </trkpt>
      <trkpt lat="44.40891" lon="3.57692">
        <ele>1042</ele>
        <time>2022-10-28T09:43:31Z</time>
      </trkpt>
      <trkpt lat="44.40892" lon="3.57693">
        <ele>1042.2</ele>
        <time>2022-10-28T09:43:32Z</time>
      </trkpt>
      <trkpt lat="44.40894" lon="3.57693">
        <ele>1042.4</ele>
        <time>2022-10-28T09:43:33Z</time>
      </trkpt>
      <trkpt lat="44.40896" lon="3.57694">
        <ele>1042.6</ele>
        <time>2022-10-28T09:43:34Z</time>
      </trkpt>
      <trkpt lat="44.40897" lon="3.57695">
        <ele>1042.8</ele>
        <time>2022-10-28T09:43:35Z</time>
      </trkpt>
      <trkpt lat="44.40898" lon="3.57696">
        <ele>1043</ele>
        <time>2022-10-28T09:43:36Z</time>
      </trkpt>
      <trkpt lat="44.409" lon="3.57697">
        <ele>1043.2</ele>
        <time>2022-10-28T09:43:37Z</time>
      </trkpt>
      <trkpt lat="44.40901" lon="3.57698">
        <ele>1043.4</ele>
        <time>2022-10-28T09:43:38Z</time>
      </trkpt>
      <trkpt lat="44.40903" lon="3.57699">
        <ele>1043.6</ele>
        <time>2022-10-28T09:43:39Z</time>
      </trkpt>
      <trkpt lat="44.40904" lon="3.577">
        <ele>1043.8</ele>
        <time>2022-10-28T09:43:40Z</time>
      </trkpt>
      <trkpt lat="44.40906" lon="3.57701">
        <ele>1044</ele>
        <time>2022-10-28T09:43:41Z</time>
      </trkpt>
      <trkpt lat="44.40907" lon="3.57702">
        <ele>1044.2</ele>
        <time>2022-10-28T09:43:42Z</time>
      </trkpt>
      <trkpt lat="44.40908" lon="3.57702">
        <ele>1044.2</ele>
        <time>2022-10-28T09:43:43Z</time>
      </trkpt>
      <trkpt lat="44.40909" lon="3.57702">
        <ele>1044.4</ele>
        <time>2022-10-28T09:43:44Z</time>
      </trkpt>
      <trkpt lat="44.40911" lon="3.57702">
        <ele>1044.6</ele>
        <time>2022-10-28T09:43:45Z</time>
      </trkpt>
      <trkpt lat="44.40912" lon="3.57702">
        <ele>1044.8</ele>
        <time>2022-10-28T09:43:46Z</time>
      </trkpt>
      <trkpt lat="44.40913" lon="3.57702">
        <ele>1045</ele>
        <time>2022-10-28T09:43:47Z</time>
      </trkpt>
      <trkpt lat="44.40915" lon="3.57702">
        <ele>1045.2</ele>
        <time>2022-10-28T09:43:48Z</time>
      </trkpt>
      <trkpt lat="44.40916" lon="3.57702">
        <ele>1045.4</ele>
        <time>2022-10-28T09:43:49Z</time>
      </trkpt>
      <trkpt lat="44.40918" lon="3.57701">
        <ele>1045.6</ele>
        <time>2022-10-28T09:43:50Z</time>
      </trkpt>
      <trkpt lat="44.4092" lon="3.57701">
        <ele>1045.8</ele>
        <time>2022-10-28T09:43:51Z</time>
      </trkpt>
      <trkpt lat="44.40921" lon="3.577">
        <ele>1046</ele>
        <time>2022-10-28T09:43:52Z</time>
      </trkpt>
      <trkpt lat="44.40923" lon="3.57699">
        <ele>1046.2</ele>
        <time>2022-10-28T09:43:53Z</time>
      </trkpt>
      <trkpt lat="44.40924" lon="3.57699">
        <ele>1046.4</ele>
        <time>2022-10-28T09:43:54Z</time>
      </trkpt>
      <trkpt lat="44.40926" lon="3.57699">
        <ele>1046.6</ele>
        <time>2022-10-28T09:43:55Z</time>
      </trkpt>
      <trkpt lat="44.40927" lon="3.57699">
        <ele>1046.8</ele>
        <time>2022-10-28T09:43:56Z</time>
      </trkpt>
      <trkpt lat="44.40928" lon="3.57698">
        <ele>1047</ele>
        <time>2022-10-28T09:43:57Z</time>
      </trkpt>
      <trkpt lat="44.4093" lon="3.57698">
        <ele>1047.2</ele>
        <time>2022-10-28T09:43:58Z</time>
      </trkpt>
      <trkpt lat="44.40932" lon="3.57698">
        <ele>1047.4</ele>
        <time>2022-10-28T09:43:59Z</time>
      </trkpt>
      <trkpt lat="44.40933" lon="3.57698">
        <ele>1047.6</ele>
        <time>2022-10-28T09:44:00Z</time>
      </trkpt>
      <trkpt lat="44.40935" lon="3.57698">
        <ele>1047.8</ele>
        <time>2022-10-28T09:44:01Z</time>
      </trkpt>
      <trkpt lat="44.40936" lon="3.57697">
        <ele>1047.8</ele>
        <time>2022-10-28T09:44:02Z</time>
      </trkpt>
      <trkpt lat="44.40937" lon="3.57698">
        <ele>1047.8</ele>
        <time>2022-10-28T09:44:03Z</time>
      </trkpt>
      <trkpt lat="44.4094" lon="3.57697">
        <ele>1048.2</ele>
        <time>2022-10-28T09:44:15Z</time>
      </trkpt>
      <trkpt lat="44.40941" lon="3.57697">
        <ele>1048.2</ele>
        <time>2022-10-28T09:44:16Z</time>
      </trkpt>
      <trkpt lat="44.40942" lon="3.57697">
        <ele>1048.2</ele>
        <time>2022-10-28T09:44:17Z</time>
      </trkpt>
      <trkpt lat="44.40944" lon="3.57697">
        <ele>1048.4</ele>
        <time>2022-10-28T09:44:18Z</time>
      </trkpt>
      <trkpt lat="44.40945" lon="3.57697">
        <ele>1048.4</ele>
        <time>2022-10-28T09:44:19Z</time>
      </trkpt>
      <trkpt lat="44.40946" lon="3.57697">
        <ele>1048.6</ele>
        <time>2022-10-28T09:44:20Z</time>
      </trkpt>
      <trkpt lat="44.40948" lon="3.57698">
        <ele>1048.8</ele>
        <time>2022-10-28T09:44:21Z</time>
      </trkpt>
      <trkpt lat="44.4095" lon="3.57698">
        <ele>1049</ele>
        <time>2022-10-28T09:44:22Z</time>
      </trkpt>
      <trkpt lat="44.40951" lon="3.57697">
        <ele>1049.2</ele>
        <time>2022-10-28T09:44:23Z</time>
      </trkpt>
      <trkpt lat="44.40953" lon="3.57697">
        <ele>1049.2</ele>
        <time>2022-10-28T09:44:24Z</time>
      </trkpt>
      <trkpt lat="44.40954" lon="3.57697">
        <ele>1049.4</ele>
        <time>2022-10-28T09:44:25Z</time>
      </trkpt>
      <trkpt lat="44.40956" lon="3.57697">
        <ele>1049.6</ele>
        <time>2022-10-28T09:44:26Z</time>
      </trkpt>
      <trkpt lat="44.40958" lon="3.57697">
        <ele>1049.8</ele>
        <time>2022-10-28T09:44:27Z</time>
      </trkpt>
      <trkpt lat="44.40959" lon="3.57697">
        <ele>1050</ele>
        <time>2022-10-28T09:44:28Z</time>
      </trkpt>
      <trkpt lat="44.4096" lon="3.57697">
        <ele>1050</ele>
        <time>2022-10-28T09:44:29Z</time>
      </trkpt>
      <trkpt lat="44.40962" lon="3.57697">
        <ele>1050.2</ele>
        <time>2022-10-28T09:44:30Z</time>
      </trkpt>
      <trkpt lat="44.40963" lon="3.57697">
        <ele>1050.4</ele>
        <time>2022-10-28T09:44:31Z</time>
      </trkpt>
      <trkpt lat="44.40965" lon="3.57696">
        <ele>1050.6</ele>
        <time>2022-10-28T09:44:32Z</time>
      </trkpt>
      <trkpt lat="44.40966" lon="3.57696">
        <ele>1050.8</ele>
        <time>2022-10-28T09:44:33Z</time>
      </trkpt>
      <trkpt lat="44.40968" lon="3.57696">
        <ele>1051</ele>
        <time>2022-10-28T09:44:34Z</time>
      </trkpt>
      <trkpt lat="44.40969" lon="3.57696">
        <ele>1051</ele>
        <time>2022-10-28T09:44:35Z</time>
      </trkpt>
      <trkpt lat="44.40971" lon="3.57696">
        <ele>1051.2</ele>
        <time>2022-10-28T09:44:36Z</time>
      </trkpt>
      <trkpt lat="44.40973" lon="3.57696">
        <ele>1051.2</ele>
        <time>2022-10-28T09:44:37Z</time>
      </trkpt>
      <trkpt lat="44.40975" lon="3.57696">
        <ele>1051.4</ele>
        <time>2022-10-28T09:44:38Z</time>
      </trkpt>
      <trkpt lat="44.40977" lon="3.57697">
        <ele>1051.6</ele>
        <time>2022-10-28T09:44:39Z</time>
      </trkpt>
      <trkpt lat="44.40979" lon="3.57697">
        <ele>1051.6</ele>
        <time>2022-10-28T09:44:40Z</time>
      </trkpt>
      <trkpt lat="44.40981" lon="3.57696">
        <ele>1051.8</ele>
        <time>2022-10-28T09:44:41Z</time>
      </trkpt>
      <trkpt lat="44.40983" lon="3.57696">
        <ele>1052</ele>
        <time>2022-10-28T09:44:42Z</time>
      </trkpt>
      <trkpt lat="44.40984" lon="3.57695">
        <ele>1052</ele>
        <time>2022-10-28T09:44:43Z</time>
      </trkpt>
      <trkpt lat="44.40986" lon="3.57694">
        <ele>1052.2</ele>
        <time>2022-10-28T09:44:44Z</time>
      </trkpt>
      <trkpt lat="44.40988" lon="3.57693">
        <ele>1052.4</ele>
        <time>2022-10-28T09:44:45Z</time>
      </trkpt>
      <trkpt lat="44.4099" lon="3.57692">
        <ele>1052.4</ele>
        <time>2022-10-28T09:44:46Z</time>
      </trkpt>
      <trkpt lat="44.40992" lon="3.57691">
        <ele>1052.6</ele>
        <time>2022-10-28T09:44:47Z</time>
      </trkpt>
      <trkpt lat="44.40993" lon="3.5769">
        <ele>1052.6</ele>
        <time>2022-10-28T09:44:48Z</time>
      </trkpt>
      <trkpt lat="44.40995" lon="3.57688">
        <ele>1052.8</ele>
        <time>2022-10-28T09:44:49Z</time>
      </trkpt>
      <trkpt lat="44.40997" lon="3.57687">
        <ele>1052.8</ele>
        <time>2022-10-28T09:44:50Z</time>
      </trkpt>
      <trkpt lat="44.40999" lon="3.57685">
        <ele>1053</ele>
        <time>2022-10-28T09:44:51Z</time>
      </trkpt>
      <trkpt lat="44.41001" lon="3.57684">
        <ele>1053</ele>
        <time>2022-10-28T09:44:52Z</time>
      </trkpt>
      <trkpt lat="44.41004" lon="3.57683">
        <ele>1053.2</ele>
        <time>2022-10-28T09:44:53Z</time>
      </trkpt>
      <trkpt lat="44.41006" lon="3.57682">
        <ele>1053.2</ele>
        <time>2022-10-28T09:44:54Z</time>
      </trkpt>
      <trkpt lat="44.41008" lon="3.57681">
        <ele>1053.4</ele>
        <time>2022-10-28T09:44:55Z</time>
      </trkpt>
      <trkpt lat="44.41009" lon="3.57681">
        <ele>1053.4</ele>
        <time>2022-10-28T09:44:56Z</time>
      </trkpt>
      <trkpt lat="44.41011" lon="3.57681">
        <ele>1053.6</ele>
        <time>2022-10-28T09:44:57Z</time>
      </trkpt>
      <trkpt lat="44.41014" lon="3.57681">
        <ele>1053.6</ele>
        <time>2022-10-28T09:44:58Z</time>
      </trkpt>
      <trkpt lat="44.41016" lon="3.57681">
        <ele>1053.8</ele>
        <time>2022-10-28T09:44:59Z</time>
      </trkpt>
      <trkpt lat="44.41018" lon="3.57682">
        <ele>1054</ele>
        <time>2022-10-28T09:45:00Z</time>
      </trkpt>
      <trkpt lat="44.41019" lon="3.57682">
        <ele>1054</ele>
        <time>2022-10-28T09:45:01Z</time>
      </trkpt>
      <trkpt lat="44.41021" lon="3.57682">
        <ele>1054</ele>
        <time>2022-10-28T09:45:02Z</time>
      </trkpt>
      <trkpt lat="44.41023" lon="3.57683">
        <ele>1054.2</ele>
        <time>2022-10-28T09:45:03Z</time>
      </trkpt>
      <trkpt lat="44.41024" lon="3.57684">
        <ele>1054.4</ele>
        <time>2022-10-28T09:45:04Z</time>
      </trkpt>
      <trkpt lat="44.41025" lon="3.57686">
        <ele>1054.4</ele>
        <time>2022-10-28T09:45:05Z</time>
      </trkpt>
      <trkpt lat="44.41026" lon="3.57688">
        <ele>1054.6</ele>
        <time>2022-10-28T09:45:06Z</time>
      </trkpt>
      <trkpt lat="44.41027" lon="3.57691">
        <ele>1054.8</ele>
        <time>2022-10-28T09:45:07Z</time>
      </trkpt>
      <trkpt lat="44.41028" lon="3.57693">
        <ele>1054.8</ele>
        <time>2022-10-28T09:45:08Z</time>
      </trkpt>
      <trkpt lat="44.41029" lon="3.57695">
        <ele>1055</ele>
        <time>2022-10-28T09:45:09Z</time>
      </trkpt>
      <trkpt lat="44.4103" lon="3.57697">
        <ele>1055.2</ele>
        <time>2022-10-28T09:45:10Z</time>
      </trkpt>
      <trkpt lat="44.41031" lon="3.57699">
        <ele>1055.4</ele>
        <time>2022-10-28T09:45:11Z</time>
      </trkpt>
      <trkpt lat="44.41032" lon="3.57701">
        <ele>1055.4</ele>
        <time>2022-10-28T09:45:12Z</time>
      </trkpt>
      <trkpt lat="44.41034" lon="3.57703">
        <ele>1055.6</ele>
        <time>2022-10-28T09:45:13Z</time>
      </trkpt>
      <trkpt lat="44.41035" lon="3.57705">
        <ele>1055.8</ele>
        <time>2022-10-28T09:45:14Z</time>
      </trkpt>
      <trkpt lat="44.41036" lon="3.57707">
        <ele>1056</ele>
        <time>2022-10-28T09:45:15Z</time>
      </trkpt>
      <trkpt lat="44.41037" lon="3.57709">
        <ele>1056</ele>
        <time>2022-10-28T09:45:16Z</time>
      </trkpt>
      <trkpt lat="44.41038" lon="3.57711">
        <ele>1056.2</ele>
        <time>2022-10-28T09:45:17Z</time>
      </trkpt>
      <trkpt lat="44.4104" lon="3.57712">
        <ele>1056.4</ele>
        <time>2022-10-28T09:45:18Z</time>
      </trkpt>
      <trkpt lat="44.4104" lon="3.57714">
        <ele>1056.6</ele>
        <time>2022-10-28T09:45:19Z</time>
      </trkpt>
      <trkpt lat="44.41042" lon="3.57716">
        <ele>1056.8</ele>
        <time>2022-10-28T09:45:20Z</time>
      </trkpt>
      <trkpt lat="44.41043" lon="3.57718">
        <ele>1057</ele>
        <time>2022-10-28T09:45:21Z</time>
      </trkpt>
      <trkpt lat="44.41043" lon="3.5772">
        <ele>1057.2</ele>
        <time>2022-10-28T09:45:22Z</time>
      </trkpt>
      <trkpt lat="44.41044" lon="3.57722">
        <ele>1057.4</ele>
        <time>2022-10-28T09:45:23Z</time>
      </trkpt>
      <trkpt lat="44.41045" lon="3.57724">
        <ele>1057.4</ele>
        <time>2022-10-28T09:45:24Z</time>
      </trkpt>
      <trkpt lat="44.41045" lon="3.57726">
        <ele>1057.6</ele>
        <time>2022-10-28T09:45:25Z</time>
      </trkpt>
      <trkpt lat="44.41046" lon="3.57728">
        <ele>1057.8</ele>
        <time>2022-10-28T09:45:26Z</time>
      </trkpt>
      <trkpt lat="44.41047" lon="3.5773">
        <ele>1057.8</ele>
        <time>2022-10-28T09:45:27Z</time>
      </trkpt>
      <trkpt lat="44.41047" lon="3.57732">
        <ele>1058</ele>
        <time>2022-10-28T09:45:28Z</time>
      </trkpt>
      <trkpt lat="44.41048" lon="3.57735">
        <ele>1058.4</ele>
        <time>2022-10-28T09:45:29Z</time>
      </trkpt>
      <trkpt lat="44.41049" lon="3.57737">
        <ele>1058.6</ele>
        <time>2022-10-28T09:45:30Z</time>
      </trkpt>
      <trkpt lat="44.41049" lon="3.57739">
        <ele>1058.8</ele>
        <time>2022-10-28T09:45:31Z</time>
      </trkpt>
      <trkpt lat="44.4105" lon="3.57741">
        <ele>1059</ele>
        <time>2022-10-28T09:45:32Z</time>
      </trkpt>
      <trkpt lat="44.41051" lon="3.57743">
        <ele>1059.2</ele>
        <time>2022-10-28T09:45:33Z</time>
      </trkpt>
      <trkpt lat="44.41052" lon="3.57745">
        <ele>1059.4</ele>
        <time>2022-10-28T09:45:34Z</time>
      </trkpt>
      <trkpt lat="44.41053" lon="3.57747">
        <ele>1059.6</ele>
        <time>2022-10-28T09:45:35Z</time>
      </trkpt>
      <trkpt lat="44.41053" lon="3.57749">
        <ele>1059.8</ele>
        <time>2022-10-28T09:45:36Z</time>
      </trkpt>
      <trkpt lat="44.41055" lon="3.57751">
        <ele>1060</ele>
        <time>2022-10-28T09:45:37Z</time>
      </trkpt>
      <trkpt lat="44.41056" lon="3.57753">
        <ele>1060.2</ele>
        <time>2022-10-28T09:45:38Z</time>
      </trkpt>
      <trkpt lat="44.41057" lon="3.57755">
        <ele>1060.4</ele>
        <time>2022-10-28T09:45:39Z</time>
      </trkpt>
      <trkpt lat="44.41058" lon="3.57756">
        <ele>1060.6</ele>
        <time>2022-10-28T09:45:40Z</time>
      </trkpt>
      <trkpt lat="44.41059" lon="3.57758">
        <ele>1060.8</ele>
        <time>2022-10-28T09:45:41Z</time>
      </trkpt>
      <trkpt lat="44.4106" lon="3.5776">
        <ele>1061</ele>
        <time>2022-10-28T09:45:42Z</time>
      </trkpt>
      <trkpt lat="44.41061" lon="3.57762">
        <ele>1061.2</ele>
        <time>2022-10-28T09:45:43Z</time>
      </trkpt>
      <trkpt lat="44.41062" lon="3.57764">
        <ele>1061.4</ele>
        <time>2022-10-28T09:45:44Z</time>
      </trkpt>
      <trkpt lat="44.41062" lon="3.57766">
        <ele>1061.6</ele>
        <time>2022-10-28T09:45:45Z</time>
      </trkpt>
      <trkpt lat="44.41063" lon="3.57768">
        <ele>1061.8</ele>
        <time>2022-10-28T09:45:46Z</time>
      </trkpt>
      <trkpt lat="44.41063" lon="3.5777">
        <ele>1062</ele>
        <time>2022-10-28T09:45:47Z</time>
      </trkpt>
      <trkpt lat="44.41064" lon="3.57772">
        <ele>1062</ele>
        <time>2022-10-28T09:45:48Z</time>
      </trkpt>
      <trkpt lat="44.41064" lon="3.57775">
        <ele>1062.2</ele>
        <time>2022-10-28T09:45:49Z</time>
      </trkpt>
      <trkpt lat="44.41064" lon="3.57777">
        <ele>1062.4</ele>
        <time>2022-10-28T09:45:50Z</time>
      </trkpt>
      <trkpt lat="44.41065" lon="3.57779">
        <ele>1062.6</ele>
        <time>2022-10-28T09:45:51Z</time>
      </trkpt>
      <trkpt lat="44.41065" lon="3.57782">
        <ele>1062.8</ele>
        <time>2022-10-28T09:45:52Z</time>
      </trkpt>
      <trkpt lat="44.41065" lon="3.57784">
        <ele>1063</ele>
        <time>2022-10-28T09:45:53Z</time>
      </trkpt>
      <trkpt lat="44.41065" lon="3.57787">
        <ele>1063.2</ele>
        <time>2022-10-28T09:45:54Z</time>
      </trkpt>
      <trkpt lat="44.41065" lon="3.57789">
        <ele>1063.4</ele>
        <time>2022-10-28T09:45:55Z</time>
      </trkpt>
      <trkpt lat="44.41065" lon="3.57792">
        <ele>1063.6</ele>
        <time>2022-10-28T09:45:56Z</time>
      </trkpt>
      <trkpt lat="44.41066" lon="3.57794">
        <ele>1063.8</ele>
        <time>2022-10-28T09:45:57Z</time>
      </trkpt>
      <trkpt lat="44.41066" lon="3.57797">
        <ele>1064</ele>
        <time>2022-10-28T09:45:58Z</time>
      </trkpt>
      <trkpt lat="44.41066" lon="3.57799">
        <ele>1064</ele>
        <time>2022-10-28T09:45:59Z</time>
      </trkpt>
      <trkpt lat="44.41066" lon="3.57801">
        <ele>1064.2</ele>
        <time>2022-10-28T09:46:00Z</time>
      </trkpt>
      <trkpt lat="44.41066" lon="3.57803">
        <ele>1064.4</ele>
        <time>2022-10-28T09:46:01Z</time>
      </trkpt>
      <trkpt lat="44.41067" lon="3.57806">
        <ele>1064.4</ele>
        <time>2022-10-28T09:46:02Z</time>
      </trkpt>
      <trkpt lat="44.41067" lon="3.57808">
        <ele>1064.6</ele>
        <time>2022-10-28T09:46:03Z</time>
      </trkpt>
      <trkpt lat="44.41068" lon="3.5781">
        <ele>1064.8</ele>
        <time>2022-10-28T09:46:04Z</time>
      </trkpt>
      <trkpt lat="44.41068" lon="3.57812">
        <ele>1064.8</ele>
        <time>2022-10-28T09:46:05Z</time>
      </trkpt>
      <trkpt lat="44.41068" lon="3.57814">
        <ele>1065</ele>
        <time>2022-10-28T09:46:06Z</time>
      </trkpt>
      <trkpt lat="44.41068" lon="3.57817">
        <ele>1065.2</ele>
        <time>2022-10-28T09:46:07Z</time>
      </trkpt>
      <trkpt lat="44.41068" lon="3.57819">
        <ele>1065.2</ele>
        <time>2022-10-28T09:46:08Z</time>
      </trkpt>
      <trkpt lat="44.41068" lon="3.57821">
        <ele>1065.4</ele>
        <time>2022-10-28T09:46:09Z</time>
      </trkpt>
      <trkpt lat="44.41068" lon="3.57823">
        <ele>1065.6</ele>
        <time>2022-10-28T09:46:10Z</time>
      </trkpt>
      <trkpt lat="44.41068" lon="3.57826">
        <ele>1065.8</ele>
        <time>2022-10-28T09:46:11Z</time>
      </trkpt>
      <trkpt lat="44.41068" lon="3.57828">
        <ele>1066</ele>
        <time>2022-10-28T09:46:12Z</time>
      </trkpt>
      <trkpt lat="44.41069" lon="3.57831">
        <ele>1066</ele>
        <time>2022-10-28T09:46:13Z</time>
      </trkpt>
      <trkpt lat="44.41069" lon="3.57833">
        <ele>1066.2</ele>
        <time>2022-10-28T09:46:14Z</time>
      </trkpt>
      <trkpt lat="44.4107" lon="3.57836">
        <ele>1066.4</ele>
        <time>2022-10-28T09:46:15Z</time>
      </trkpt>
      <trkpt lat="44.4107" lon="3.57838">
        <ele>1066.6</ele>
        <time>2022-10-28T09:46:16Z</time>
      </trkpt>
      <trkpt lat="44.4107" lon="3.57841">
        <ele>1066.8</ele>
        <time>2022-10-28T09:46:17Z</time>
      </trkpt>
      <trkpt lat="44.41071" lon="3.57843">
        <ele>1067</ele>
        <time>2022-10-28T09:46:18Z</time>
      </trkpt>
      <trkpt lat="44.41071" lon="3.57845">
        <ele>1067.2</ele>
        <time>2022-10-28T09:46:19Z</time>
      </trkpt>
      <trkpt lat="44.41071" lon="3.57848">
        <ele>1067.4</ele>
        <time>2022-10-28T09:46:20Z</time>
      </trkpt>
      <trkpt lat="44.41071" lon="3.5785">
        <ele>1067.4</ele>
        <time>2022-10-28T09:46:21Z</time>
      </trkpt>
      <trkpt lat="44.41071" lon="3.57852">
        <ele>1067.6</ele>
        <time>2022-10-28T09:46:22Z</time>
      </trkpt>
      <trkpt lat="44.41071" lon="3.57855">
        <ele>1067.8</ele>
        <time>2022-10-28T09:46:23Z</time>
      </trkpt>
      <trkpt lat="44.41071" lon="3.57857">
        <ele>1068</ele>
        <time>2022-10-28T09:46:24Z</time>
      </trkpt>
      <trkpt lat="44.41072" lon="3.57859">
        <ele>1068.2</ele>
        <time>2022-10-28T09:46:25Z</time>
      </trkpt>
      <trkpt lat="44.41072" lon="3.57861">
        <ele>1068.4</ele>
        <time>2022-10-28T09:46:26Z</time>
      </trkpt>
      <trkpt lat="44.41072" lon="3.57863">
        <ele>1068.4</ele>
        <time>2022-10-28T09:46:27Z</time>
      </trkpt>
      <trkpt lat="44.41072" lon="3.57865">
        <ele>1068.6</ele>
        <time>2022-10-28T09:46:28Z</time>
      </trkpt>
      <trkpt lat="44.41072" lon="3.57867">
        <ele>1068.8</ele>
        <time>2022-10-28T09:46:29Z</time>
      </trkpt>
      <trkpt lat="44.41071" lon="3.5787">
        <ele>1069</ele>
        <time>2022-10-28T09:46:30Z</time>
      </trkpt>
      <trkpt lat="44.41071" lon="3.57873">
        <ele>1069</ele>
        <time>2022-10-28T09:46:31Z</time>
      </trkpt>
      <trkpt lat="44.41071" lon="3.57875">
        <ele>1069.2</ele>
        <time>2022-10-28T09:46:32Z</time>
      </trkpt>
      <trkpt lat="44.41071" lon="3.57878">
        <ele>1069.4</ele>
        <time>2022-10-28T09:46:33Z</time>
      </trkpt>
      <trkpt lat="44.41071" lon="3.5788">
        <ele>1069.4</ele>
        <time>2022-10-28T09:46:34Z</time>
      </trkpt>
      <trkpt lat="44.41072" lon="3.57882">
        <ele>1069.6</ele>
        <time>2022-10-28T09:46:35Z</time>
      </trkpt>
      <trkpt lat="44.41072" lon="3.57884">
        <ele>1069.8</ele>
        <time>2022-10-28T09:46:36Z</time>
      </trkpt>
      <trkpt lat="44.41073" lon="3.57886">
        <ele>1070</ele>
        <time>2022-10-28T09:46:37Z</time>
      </trkpt>
      <trkpt lat="44.41074" lon="3.57888">
        <ele>1070</ele>
        <time>2022-10-28T09:46:38Z</time>
      </trkpt>
      <trkpt lat="44.41074" lon="3.5789">
        <ele>1070.2</ele>
        <time>2022-10-28T09:46:39Z</time>
      </trkpt>
      <trkpt lat="44.41075" lon="3.57893">
        <ele>1070.4</ele>
        <time>2022-10-28T09:46:40Z</time>
      </trkpt>
      <trkpt lat="44.41075" lon="3.57895">
        <ele>1070.6</ele>
        <time>2022-10-28T09:46:41Z</time>
      </trkpt>
      <trkpt lat="44.41075" lon="3.57897">
        <ele>1070.6</ele>
        <time>2022-10-28T09:46:42Z</time>
      </trkpt>
      <trkpt lat="44.41075" lon="3.57899">
        <ele>1070.8</ele>
        <time>2022-10-28T09:46:43Z</time>
      </trkpt>
      <trkpt lat="44.41076" lon="3.57902">
        <ele>1071</ele>
        <time>2022-10-28T09:46:44Z</time>
      </trkpt>
      <trkpt lat="44.41076" lon="3.57904">
        <ele>1071.2</ele>
        <time>2022-10-28T09:46:45Z</time>
      </trkpt>
      <trkpt lat="44.41077" lon="3.57907">
        <ele>1071.2</ele>
        <time>2022-10-28T09:46:46Z</time>
      </trkpt>
      <trkpt lat="44.41077" lon="3.57909">
        <ele>1071.4</ele>
        <time>2022-10-28T09:46:47Z</time>
      </trkpt>
      <trkpt lat="44.41078" lon="3.57912">
        <ele>1071.6</ele>
        <time>2022-10-28T09:46:48Z</time>
      </trkpt>
      <trkpt lat="44.41078" lon="3.57914">
        <ele>1071.8</ele>
        <time>2022-10-28T09:46:49Z</time>
      </trkpt>
      <trkpt lat="44.41079" lon="3.57917">
        <ele>1071.8</ele>
        <time>2022-10-28T09:46:50Z</time>
      </trkpt>
      <trkpt lat="44.41079" lon="3.57919">
        <ele>1072</ele>
        <time>2022-10-28T09:46:51Z</time>
      </trkpt>
      <trkpt lat="44.41079" lon="3.57922">
        <ele>1072.2</ele>
        <time>2022-10-28T09:46:52Z</time>
      </trkpt>
      <trkpt lat="44.41079" lon="3.57924">
        <ele>1072.4</ele>
        <time>2022-10-28T09:46:53Z</time>
      </trkpt>
      <trkpt lat="44.41079" lon="3.57926">
        <ele>1072.4</ele>
        <time>2022-10-28T09:46:54Z</time>
      </trkpt>
      <trkpt lat="44.41079" lon="3.57928">
        <ele>1072.6</ele>
        <time>2022-10-28T09:46:55Z</time>
      </trkpt>
      <trkpt lat="44.41079" lon="3.5793">
        <ele>1072.8</ele>
        <time>2022-10-28T09:46:56Z</time>
      </trkpt>
      <trkpt lat="44.4108" lon="3.57932">
        <ele>1073</ele>
        <time>2022-10-28T09:46:57Z</time>
      </trkpt>
      <trkpt lat="44.4108" lon="3.57935">
        <ele>1073.2</ele>
        <time>2022-10-28T09:46:58Z</time>
      </trkpt>
      <trkpt lat="44.41081" lon="3.57937">
        <ele>1073.2</ele>
        <time>2022-10-28T09:46:59Z</time>
      </trkpt>
      <trkpt lat="44.41081" lon="3.57939">
        <ele>1073.4</ele>
        <time>2022-10-28T09:47:00Z</time>
      </trkpt>
      <trkpt lat="44.41081" lon="3.57942">
        <ele>1073.6</ele>
        <time>2022-10-28T09:47:01Z</time>
      </trkpt>
      <trkpt lat="44.41081" lon="3.57944">
        <ele>1073.8</ele>
        <time>2022-10-28T09:47:02Z</time>
      </trkpt>
      <trkpt lat="44.41082" lon="3.57946">
        <ele>1073.8</ele>
        <time>2022-10-28T09:47:03Z</time>
      </trkpt>
      <trkpt lat="44.41082" lon="3.57948">
        <ele>1074</ele>
        <time>2022-10-28T09:47:04Z</time>
      </trkpt>
      <trkpt lat="44.41082" lon="3.5795">
        <ele>1074.2</ele>
        <time>2022-10-28T09:47:05Z</time>
      </trkpt>
      <trkpt lat="44.41083" lon="3.57952">
        <ele>1074.2</ele>
        <time>2022-10-28T09:47:06Z</time>
      </trkpt>
      <trkpt lat="44.41083" lon="3.57954">
        <ele>1074.4</ele>
        <time>2022-10-28T09:47:07Z</time>
      </trkpt>
      <trkpt lat="44.41083" lon="3.57956">
        <ele>1074.6</ele>
        <time>2022-10-28T09:47:08Z</time>
      </trkpt>
      <trkpt lat="44.41084" lon="3.57958">
        <ele>1074.6</ele>
        <time>2022-10-28T09:47:09Z</time>
      </trkpt>
      <trkpt lat="44.41084" lon="3.5796">
        <ele>1074.8</ele>
        <time>2022-10-28T09:47:10Z</time>
      </trkpt>
      <trkpt lat="44.41084" lon="3.57962">
        <ele>1074.8</ele>
        <time>2022-10-28T09:47:11Z</time>
      </trkpt>
      <trkpt lat="44.41084" lon="3.57964">
        <ele>1075</ele>
        <time>2022-10-28T09:47:12Z</time>
      </trkpt>
      <trkpt lat="44.41083" lon="3.57966">
        <ele>1075</ele>
        <time>2022-10-28T09:47:13Z</time>
      </trkpt>
      <trkpt lat="44.41083" lon="3.57967">
        <ele>1075.2</ele>
        <time>2022-10-28T09:47:14Z</time>
      </trkpt>
      <trkpt lat="44.41083" lon="3.57969">
        <ele>1075.2</ele>
        <time>2022-10-28T09:47:15Z</time>
      </trkpt>
      <trkpt lat="44.41083" lon="3.57969">
        <ele>1075.2</ele>
        <time>2022-10-28T09:47:16Z</time>
      </trkpt>
      <trkpt lat="44.41082" lon="3.57945">
        <ele>1075.2</ele>
        <time>2022-10-28T09:49:43Z</time>
      </trkpt>
      <trkpt lat="44.41081" lon="3.57942">
        <ele>1075.2</ele>
        <time>2022-10-28T09:49:44Z</time>
      </trkpt>
      <trkpt lat="44.4108" lon="3.57939">
        <ele>1075</ele>
        <time>2022-10-28T09:49:45Z</time>
      </trkpt>
      <trkpt lat="44.41079" lon="3.57937">
        <ele>1075</ele>
        <time>2022-10-28T09:49:46Z</time>
      </trkpt>
      <trkpt lat="44.4108" lon="3.57936">
        <ele>1075</ele>
        <time>2022-10-28T09:49:47Z</time>
      </trkpt>
      <trkpt lat="44.4108" lon="3.57936">
        <ele>1075</ele>
        <time>2022-10-28T09:49:48Z</time>
      </trkpt>
      <trkpt lat="44.41081" lon="3.57937">
        <ele>1075.2</ele>
        <time>2022-10-28T09:49:49Z</time>
      </trkpt>
      <trkpt lat="44.41081" lon="3.57939">
        <ele>1075.2</ele>
        <time>2022-10-28T09:49:50Z</time>
      </trkpt>
      <trkpt lat="44.41082" lon="3.5794">
        <ele>1075.2</ele>
        <time>2022-10-28T09:49:51Z</time>
      </trkpt>
      <trkpt lat="44.41082" lon="3.57942">
        <ele>1075.4</ele>
        <time>2022-10-28T09:49:52Z</time>
      </trkpt>
      <trkpt lat="44.41082" lon="3.57944">
        <ele>1075.4</ele>
        <time>2022-10-28T09:49:53Z</time>
      </trkpt>
      <trkpt lat="44.41082" lon="3.57946">
        <ele>1075.6</ele>
        <time>2022-10-28T09:49:54Z</time>
      </trkpt>
      <trkpt lat="44.41082" lon="3.57948">
        <ele>1075.8</ele>
        <time>2022-10-28T09:49:55Z</time>
      </trkpt>
      <trkpt lat="44.41082" lon="3.57951">
        <ele>1075.8</ele>
        <time>2022-10-28T09:49:56Z</time>
      </trkpt>
      <trkpt lat="44.41083" lon="3.57954">
        <ele>1076</ele>
        <time>2022-10-28T09:49:57Z</time>
      </trkpt>
      <trkpt lat="44.41083" lon="3.57957">
        <ele>1076.2</ele>
        <time>2022-10-28T09:49:58Z</time>
      </trkpt>
      <trkpt lat="44.41083" lon="3.57959">
        <ele>1076.2</ele>
        <time>2022-10-28T09:49:59Z</time>
      </trkpt>
      <trkpt lat="44.41084" lon="3.57962">
        <ele>1076.4</ele>
        <time>2022-10-28T09:50:00Z</time>
      </trkpt>
      <trkpt lat="44.41084" lon="3.57964">
        <ele>1076.6</ele>
        <time>2022-10-28T09:50:01Z</time>
      </trkpt>
      <trkpt lat="44.41085" lon="3.57966">
        <ele>1076.8</ele>
        <time>2022-10-28T09:50:02Z</time>
      </trkpt>
      <trkpt lat="44.41085" lon="3.57969">
        <ele>1077</ele>
        <time>2022-10-28T09:50:03Z</time>
      </trkpt>
      <trkpt lat="44.41085" lon="3.57972">
        <ele>1077</ele>
        <time>2022-10-28T09:50:04Z</time>
      </trkpt>
      <trkpt lat="44.41085" lon="3.57974">
        <ele>1077.2</ele>
        <time>2022-10-28T09:50:05Z</time>
      </trkpt>
      <trkpt lat="44.41085" lon="3.57975">
        <ele>1077.2</ele>
        <time>2022-10-28T09:50:06Z</time>
      </trkpt>
      <trkpt lat="44.41085" lon="3.57976">
        <ele>1077.4</ele>
        <time>2022-10-28T09:50:07Z</time>
      </trkpt>
      <trkpt lat="44.41085" lon="3.57977">
        <ele>1077.4</ele>
        <time>2022-10-28T09:50:08Z</time>
      </trkpt>
      <trkpt lat="44.41085" lon="3.57977">
        <ele>1077.4</ele>
        <time>2022-10-28T09:50:09Z</time>
      </trkpt>
      <trkpt lat="44.41085" lon="3.57977">
        <ele>1077.4</ele>
        <time>2022-10-28T09:50:10Z</time>
      </trkpt>
      <trkpt lat="44.41085" lon="3.57977">
        <ele>1077.4</ele>
        <time>2022-10-28T09:50:11Z</time>
      </trkpt>
      <trkpt lat="44.41085" lon="3.57977">
        <ele>1077.6</ele>
        <time>2022-10-28T09:50:12Z</time>
      </trkpt>
      <trkpt lat="44.41085" lon="3.57977">
        <ele>1077.6</ele>
        <time>2022-10-28T09:50:13Z</time>
      </trkpt>
      <trkpt lat="44.41086" lon="3.5798">
        <ele>1077.6</ele>
        <time>2022-10-28T09:51:21Z</time>
      </trkpt>
      <trkpt lat="44.41087" lon="3.57982">
        <ele>1077.6</ele>
        <time>2022-10-28T09:51:22Z</time>
      </trkpt>
      <trkpt lat="44.41087" lon="3.57984">
        <ele>1077.6</ele>
        <time>2022-10-28T09:51:23Z</time>
      </trkpt>
      <trkpt lat="44.41088" lon="3.57987">
        <ele>1077.6</ele>
        <time>2022-10-28T09:51:24Z</time>
      </trkpt>
      <trkpt lat="44.41089" lon="3.57989">
        <ele>1077.8</ele>
        <time>2022-10-28T09:51:25Z</time>
      </trkpt>
      <trkpt lat="44.4109" lon="3.57991">
        <ele>1077.8</ele>
        <time>2022-10-28T09:51:26Z</time>
      </trkpt>
      <trkpt lat="44.41091" lon="3.57993">
        <ele>1078</ele>
        <time>2022-10-28T09:51:27Z</time>
      </trkpt>
      <trkpt lat="44.41092" lon="3.57994">
        <ele>1078.2</ele>
        <time>2022-10-28T09:51:28Z</time>
      </trkpt>
      <trkpt lat="44.41094" lon="3.57994">
        <ele>1078.2</ele>
        <time>2022-10-28T09:51:29Z</time>
      </trkpt>
      <trkpt lat="44.41095" lon="3.57994">
        <ele>1078.4</ele>
        <time>2022-10-28T09:51:30Z</time>
      </trkpt>
      <trkpt lat="44.41097" lon="3.57993">
        <ele>1078.6</ele>
        <time>2022-10-28T09:51:31Z</time>
      </trkpt>
      <trkpt lat="44.41098" lon="3.57992">
        <ele>1078.8</ele>
        <time>2022-10-28T09:51:32Z</time>
      </trkpt>
      <trkpt lat="44.41099" lon="3.5799">
        <ele>1078.8</ele>
        <time>2022-10-28T09:51:33Z</time>
      </trkpt>
      <trkpt lat="44.411" lon="3.57988">
        <ele>1079</ele>
        <time>2022-10-28T09:51:34Z</time>
      </trkpt>
      <trkpt lat="44.411" lon="3.57987">
        <ele>1079.2</ele>
        <time>2022-10-28T09:51:35Z</time>
      </trkpt>
      <trkpt lat="44.41101" lon="3.57985">
        <ele>1079.4</ele>
        <time>2022-10-28T09:51:36Z</time>
      </trkpt>
      <trkpt lat="44.41101" lon="3.57983">
        <ele>1079.4</ele>
        <time>2022-10-28T09:51:37Z</time>
      </trkpt>
      <trkpt lat="44.41102" lon="3.57981">
        <ele>1079.6</ele>
        <time>2022-10-28T09:51:38Z</time>
      </trkpt>
      <trkpt lat="44.41102" lon="3.57979">
        <ele>1079.6</ele>
        <time>2022-10-28T09:51:39Z</time>
      </trkpt>
      <trkpt lat="44.41103" lon="3.57977">
        <ele>1079.8</ele>
        <time>2022-10-28T09:51:40Z</time>
      </trkpt>
      <trkpt lat="44.41103" lon="3.57975">
        <ele>1079.8</ele>
        <time>2022-10-28T09:51:41Z</time>
      </trkpt>
      <trkpt lat="44.41105" lon="3.57974">
        <ele>1080</ele>
        <time>2022-10-28T09:51:42Z</time>
      </trkpt>
      <trkpt lat="44.41106" lon="3.57972">
        <ele>1080.2</ele>
        <time>2022-10-28T09:51:43Z</time>
      </trkpt>
      <trkpt lat="44.41107" lon="3.57971">
        <ele>1080.4</ele>
        <time>2022-10-28T09:51:44Z</time>
      </trkpt>
      <trkpt lat="44.41108" lon="3.57969">
        <ele>1080.6</ele>
        <time>2022-10-28T09:51:45Z</time>
      </trkpt>
      <trkpt lat="44.41109" lon="3.57968">
        <ele>1080.6</ele>
        <time>2022-10-28T09:51:46Z</time>
      </trkpt>
      <trkpt lat="44.4111" lon="3.57966">
        <ele>1080.8</ele>
        <time>2022-10-28T09:51:47Z</time>
      </trkpt>
      <trkpt lat="44.41111" lon="3.57964">
        <ele>1081</ele>
        <time>2022-10-28T09:51:48Z</time>
      </trkpt>
      <trkpt lat="44.41113" lon="3.57962">
        <ele>1081.2</ele>
        <time>2022-10-28T09:51:49Z</time>
      </trkpt>
      <trkpt lat="44.41114" lon="3.57961">
        <ele>1081.4</ele>
        <time>2022-10-28T09:51:50Z</time>
      </trkpt>
      <trkpt lat="44.41115" lon="3.57959">
        <ele>1081.6</ele>
        <time>2022-10-28T09:51:51Z</time>
      </trkpt>
      <trkpt lat="44.41117" lon="3.57958">
        <ele>1081.6</ele>
        <time>2022-10-28T09:51:52Z</time>
      </trkpt>
      <trkpt lat="44.41118" lon="3.57956">
        <ele>1081.8</ele>
        <time>2022-10-28T09:51:53Z</time>
      </trkpt>
      <trkpt lat="44.41119" lon="3.57955">
        <ele>1082</ele>
        <time>2022-10-28T09:51:54Z</time>
      </trkpt>
      <trkpt lat="44.41121" lon="3.57954">
        <ele>1082.2</ele>
        <time>2022-10-28T09:51:55Z</time>
      </trkpt>
      <trkpt lat="44.41122" lon="3.57953">
        <ele>1082.4</ele>
        <time>2022-10-28T09:51:56Z</time>
      </trkpt>
      <trkpt lat="44.41123" lon="3.57952">
        <ele>1082.6</ele>
        <time>2022-10-28T09:51:57Z</time>
      </trkpt>
      <trkpt lat="44.41124" lon="3.57951">
        <ele>1082.8</ele>
        <time>2022-10-28T09:51:58Z</time>
      </trkpt>
      <trkpt lat="44.41125" lon="3.5795">
        <ele>1082.8</ele>
        <time>2022-10-28T09:51:59Z</time>
      </trkpt>
      <trkpt lat="44.41127" lon="3.57948">
        <ele>1083</ele>
        <time>2022-10-28T09:52:00Z</time>
      </trkpt>
      <trkpt lat="44.41129" lon="3.57948">
        <ele>1083.2</ele>
        <time>2022-10-28T09:52:01Z</time>
      </trkpt>
      <trkpt lat="44.41132" lon="3.57948">
        <ele>1083.2</ele>
        <time>2022-10-28T09:52:02Z</time>
      </trkpt>
      <trkpt lat="44.41134" lon="3.57947">
        <ele>1083.4</ele>
        <time>2022-10-28T09:52:03Z</time>
      </trkpt>
      <trkpt lat="44.41137" lon="3.57946">
        <ele>1083.6</ele>
        <time>2022-10-28T09:52:04Z</time>
      </trkpt>
      <trkpt lat="44.41138" lon="3.57945">
        <ele>1083.8</ele>
        <time>2022-10-28T09:52:05Z</time>
      </trkpt>
      <trkpt lat="44.4114" lon="3.57945">
        <ele>1083.8</ele>
        <time>2022-10-28T09:52:06Z</time>
      </trkpt>
      <trkpt lat="44.41142" lon="3.57944">
        <ele>1084</ele>
        <time>2022-10-28T09:52:07Z</time>
      </trkpt>
      <trkpt lat="44.41143" lon="3.57943">
        <ele>1084.2</ele>
        <time>2022-10-28T09:52:08Z</time>
      </trkpt>
      <trkpt lat="44.41145" lon="3.57943">
        <ele>1084.2</ele>
        <time>2022-10-28T09:52:09Z</time>
      </trkpt>
      <trkpt lat="44.41147" lon="3.57942">
        <ele>1084.4</ele>
        <time>2022-10-28T09:52:10Z</time>
      </trkpt>
      <trkpt lat="44.41148" lon="3.57942">
        <ele>1084.6</ele>
        <time>2022-10-28T09:52:11Z</time>
      </trkpt>
      <trkpt lat="44.4115" lon="3.57942">
        <ele>1084.8</ele>
        <time>2022-10-28T09:52:12Z</time>
      </trkpt>
      <trkpt lat="44.41151" lon="3.57941">
        <ele>1085</ele>
        <time>2022-10-28T09:52:13Z</time>
      </trkpt>
      <trkpt lat="44.41153" lon="3.5794">
        <ele>1085</ele>
        <time>2022-10-28T09:52:14Z</time>
      </trkpt>
      <trkpt lat="44.41154" lon="3.57939">
        <ele>1085.2</ele>
        <time>2022-10-28T09:52:15Z</time>
      </trkpt>
      <trkpt lat="44.41156" lon="3.57938">
        <ele>1085.4</ele>
        <time>2022-10-28T09:52:16Z</time>
      </trkpt>
      <trkpt lat="44.41158" lon="3.57938">
        <ele>1085.6</ele>
        <time>2022-10-28T09:52:17Z</time>
      </trkpt>
      <trkpt lat="44.41159" lon="3.57938">
        <ele>1086</ele>
        <time>2022-10-28T09:52:18Z</time>
      </trkpt>
      <trkpt lat="44.4116" lon="3.57938">
        <ele>1086.2</ele>
        <time>2022-10-28T09:52:19Z</time>
      </trkpt>
      <trkpt lat="44.41162" lon="3.57938">
        <ele>1086.4</ele>
        <time>2022-10-28T09:52:20Z</time>
      </trkpt>
      <trkpt lat="44.41164" lon="3.57939">
        <ele>1086.6</ele>
        <time>2022-10-28T09:52:21Z</time>
      </trkpt>
      <trkpt lat="44.41166" lon="3.5794">
        <ele>1086.8</ele>
        <time>2022-10-28T09:52:22Z</time>
      </trkpt>
      <trkpt lat="44.41167" lon="3.5794">
        <ele>1087</ele>
        <time>2022-10-28T09:52:23Z</time>
      </trkpt>
      <trkpt lat="44.41168" lon="3.57941">
        <ele>1087.2</ele>
        <time>2022-10-28T09:52:24Z</time>
      </trkpt>
      <trkpt lat="44.4117" lon="3.57942">
        <ele>1087.4</ele>
        <time>2022-10-28T09:52:25Z</time>
      </trkpt>
      <trkpt lat="44.41171" lon="3.57943">
        <ele>1087.6</ele>
        <time>2022-10-28T09:52:26Z</time>
      </trkpt>
      <trkpt lat="44.41172" lon="3.57944">
        <ele>1087.8</ele>
        <time>2022-10-28T09:52:27Z</time>
      </trkpt>
      <trkpt lat="44.41174" lon="3.57944">
        <ele>1087.8</ele>
        <time>2022-10-28T09:52:28Z</time>
      </trkpt>
      <trkpt lat="44.41176" lon="3.57945">
        <ele>1088</ele>
        <time>2022-10-28T09:52:29Z</time>
      </trkpt>
      <trkpt lat="44.41177" lon="3.57945">
        <ele>1088.2</ele>
        <time>2022-10-28T09:52:30Z</time>
      </trkpt>
      <trkpt lat="44.41179" lon="3.57946">
        <ele>1088.6</ele>
        <time>2022-10-28T09:52:31Z</time>
      </trkpt>
      <trkpt lat="44.41181" lon="3.57947">
        <ele>1088.8</ele>
        <time>2022-10-28T09:52:32Z</time>
      </trkpt>
      <trkpt lat="44.41182" lon="3.57948">
        <ele>1088.8</ele>
        <time>2022-10-28T09:52:33Z</time>
      </trkpt>
      <trkpt lat="44.41184" lon="3.57949">
        <ele>1089</ele>
        <time>2022-10-28T09:52:34Z</time>
      </trkpt>
      <trkpt lat="44.41185" lon="3.57949">
        <ele>1089.2</ele>
        <time>2022-10-28T09:52:35Z</time>
      </trkpt>
      <trkpt lat="44.41187" lon="3.5795">
        <ele>1089.4</ele>
        <time>2022-10-28T09:52:36Z</time>
      </trkpt>
      <trkpt lat="44.41188" lon="3.57951">
        <ele>1089.6</ele>
        <time>2022-10-28T09:52:37Z</time>
      </trkpt>
      <trkpt lat="44.4119" lon="3.57952">
        <ele>1089.8</ele>
        <time>2022-10-28T09:52:38Z</time>
      </trkpt>
      <trkpt lat="44.41192" lon="3.57953">
        <ele>1090.2</ele>
        <time>2022-10-28T09:52:39Z</time>
      </trkpt>
      <trkpt lat="44.41193" lon="3.57954">
        <ele>1090.4</ele>
        <time>2022-10-28T09:52:40Z</time>
      </trkpt>
      <trkpt lat="44.41195" lon="3.57955">
        <ele>1090.6</ele>
        <time>2022-10-28T09:52:41Z</time>
      </trkpt>
      <trkpt lat="44.41197" lon="3.57956">
        <ele>1090.8</ele>
        <time>2022-10-28T09:52:42Z</time>
      </trkpt>
      <trkpt lat="44.41198" lon="3.57956">
        <ele>1091</ele>
        <time>2022-10-28T09:52:43Z</time>
      </trkpt>
      <trkpt lat="44.412" lon="3.57957">
        <ele>1091.2</ele>
        <time>2022-10-28T09:52:44Z</time>
      </trkpt>
      <trkpt lat="44.41201" lon="3.57958">
        <ele>1091.4</ele>
        <time>2022-10-28T09:52:45Z</time>
      </trkpt>
      <trkpt lat="44.41203" lon="3.57959">
        <ele>1091.6</ele>
        <time>2022-10-28T09:52:46Z</time>
      </trkpt>
      <trkpt lat="44.41204" lon="3.5796">
        <ele>1091.6</ele>
        <time>2022-10-28T09:52:47Z</time>
      </trkpt>
      <trkpt lat="44.41205" lon="3.57961">
        <ele>1091.8</ele>
        <time>2022-10-28T09:52:48Z</time>
      </trkpt>
      <trkpt lat="44.41207" lon="3.57962">
        <ele>1092</ele>
        <time>2022-10-28T09:52:49Z</time>
      </trkpt>
      <trkpt lat="44.41208" lon="3.57963">
        <ele>1092.2</ele>
        <time>2022-10-28T09:52:50Z</time>
      </trkpt>
      <trkpt lat="44.4121" lon="3.57964">
        <ele>1092.4</ele>
        <time>2022-10-28T09:52:51Z</time>
      </trkpt>
      <trkpt lat="44.41211" lon="3.57965">
        <ele>1092.6</ele>
        <time>2022-10-28T09:52:52Z</time>
      </trkpt>
      <trkpt lat="44.41213" lon="3.57966">
        <ele>1092.8</ele>
        <time>2022-10-28T09:52:53Z</time>
      </trkpt>
      <trkpt lat="44.41214" lon="3.57967">
        <ele>1093</ele>
        <time>2022-10-28T09:52:54Z</time>
      </trkpt>
      <trkpt lat="44.41216" lon="3.57968">
        <ele>1093.2</ele>
        <time>2022-10-28T09:52:55Z</time>
      </trkpt>
      <trkpt lat="44.41217" lon="3.57969">
        <ele>1093.4</ele>
        <time>2022-10-28T09:52:56Z</time>
      </trkpt>
      <trkpt lat="44.41219" lon="3.57971">
        <ele>1093.6</ele>
        <time>2022-10-28T09:52:57Z</time>
      </trkpt>
      <trkpt lat="44.4122" lon="3.57972">
        <ele>1093.8</ele>
        <time>2022-10-28T09:52:58Z</time>
      </trkpt>
      <trkpt lat="44.41221" lon="3.57974">
        <ele>1094</ele>
        <time>2022-10-28T09:52:59Z</time>
      </trkpt>
      <trkpt lat="44.41223" lon="3.57975">
        <ele>1094.2</ele>
        <time>2022-10-28T09:53:00Z</time>
      </trkpt>
      <trkpt lat="44.41225" lon="3.57976">
        <ele>1094.2</ele>
        <time>2022-10-28T09:53:01Z</time>
      </trkpt>
      <trkpt lat="44.41226" lon="3.57977">
        <ele>1094.4</ele>
        <time>2022-10-28T09:53:02Z</time>
      </trkpt>
      <trkpt lat="44.41227" lon="3.57978">
        <ele>1094.6</ele>
        <time>2022-10-28T09:53:03Z</time>
      </trkpt>
      <trkpt lat="44.41229" lon="3.57979">
        <ele>1094.8</ele>
        <time>2022-10-28T09:53:04Z</time>
      </trkpt>
      <trkpt lat="44.41231" lon="3.57981">
        <ele>1095</ele>
        <time>2022-10-28T09:53:05Z</time>
      </trkpt>
      <trkpt lat="44.41232" lon="3.57982">
        <ele>1095.2</ele>
        <time>2022-10-28T09:53:06Z</time>
      </trkpt>
      <trkpt lat="44.41233" lon="3.57983">
        <ele>1095.4</ele>
        <time>2022-10-28T09:53:07Z</time>
      </trkpt>
      <trkpt lat="44.41235" lon="3.57985">
        <ele>1095.6</ele>
        <time>2022-10-28T09:53:08Z</time>
      </trkpt>
      <trkpt lat="44.41236" lon="3.57986">
        <ele>1095.6</ele>
        <time>2022-10-28T09:53:09Z</time>
      </trkpt>
      <trkpt lat="44.41238" lon="3.57987">
        <ele>1095.8</ele>
        <time>2022-10-28T09:53:10Z</time>
      </trkpt>
      <trkpt lat="44.4124" lon="3.57988">
        <ele>1096</ele>
        <time>2022-10-28T09:53:11Z</time>
      </trkpt>
      <trkpt lat="44.41241" lon="3.5799">
        <ele>1096.2</ele>
        <time>2022-10-28T09:53:12Z</time>
      </trkpt>
      <trkpt lat="44.41242" lon="3.57991">
        <ele>1096.4</ele>
        <time>2022-10-28T09:53:13Z</time>
      </trkpt>
      <trkpt lat="44.41244" lon="3.57993">
        <ele>1096.4</ele>
        <time>2022-10-28T09:53:14Z</time>
      </trkpt>
      <trkpt lat="44.41245" lon="3.57994">
        <ele>1096.6</ele>
        <time>2022-10-28T09:53:15Z</time>
      </trkpt>
      <trkpt lat="44.41246" lon="3.57995">
        <ele>1096.8</ele>
        <time>2022-10-28T09:53:16Z</time>
      </trkpt>
      <trkpt lat="44.41248" lon="3.57996">
        <ele>1097</ele>
        <time>2022-10-28T09:53:17Z</time>
      </trkpt>
      <trkpt lat="44.41249" lon="3.57998">
        <ele>1097.2</ele>
        <time>2022-10-28T09:53:18Z</time>
      </trkpt>
      <trkpt lat="44.4125" lon="3.57999">
        <ele>1097.4</ele>
        <time>2022-10-28T09:53:19Z</time>
      </trkpt>
      <trkpt lat="44.41252" lon="3.58001">
        <ele>1097.4</ele>
        <time>2022-10-28T09:53:20Z</time>
      </trkpt>
      <trkpt lat="44.41253" lon="3.58002">
        <ele>1097.6</ele>
        <time>2022-10-28T09:53:21Z</time>
      </trkpt>
      <trkpt lat="44.41254" lon="3.58004">
        <ele>1097.8</ele>
        <time>2022-10-28T09:53:22Z</time>
      </trkpt>
      <trkpt lat="44.41256" lon="3.58005">
        <ele>1098</ele>
        <time>2022-10-28T09:53:23Z</time>
      </trkpt>
      <trkpt lat="44.41257" lon="3.58007">
        <ele>1098</ele>
        <time>2022-10-28T09:53:24Z</time>
      </trkpt>
      <trkpt lat="44.41258" lon="3.58008">
        <ele>1098.2</ele>
        <time>2022-10-28T09:53:25Z</time>
      </trkpt>
      <trkpt lat="44.41259" lon="3.5801">
        <ele>1098.4</ele>
        <time>2022-10-28T09:53:26Z</time>
      </trkpt>
      <trkpt lat="44.41261" lon="3.58011">
        <ele>1098.6</ele>
        <time>2022-10-28T09:53:27Z</time>
      </trkpt>
      <trkpt lat="44.41262" lon="3.58013">
        <ele>1098.8</ele>
        <time>2022-10-28T09:53:28Z</time>
      </trkpt>
      <trkpt lat="44.41264" lon="3.58015">
        <ele>1098.8</ele>
        <time>2022-10-28T09:53:29Z</time>
      </trkpt>
      <trkpt lat="44.41265" lon="3.58016">
        <ele>1099</ele>
        <time>2022-10-28T09:53:30Z</time>
      </trkpt>
      <trkpt lat="44.41267" lon="3.58018">
        <ele>1099.2</ele>
        <time>2022-10-28T09:53:31Z</time>
      </trkpt>
      <trkpt lat="44.41268" lon="3.58019">
        <ele>1099.4</ele>
        <time>2022-10-28T09:53:32Z</time>
      </trkpt>
      <trkpt lat="44.41269" lon="3.5802">
        <ele>1099.6</ele>
        <time>2022-10-28T09:53:33Z</time>
      </trkpt>
      <trkpt lat="44.41271" lon="3.58021">
        <ele>1099.8</ele>
        <time>2022-10-28T09:53:34Z</time>
      </trkpt>
      <trkpt lat="44.41272" lon="3.58023">
        <ele>1100</ele>
        <time>2022-10-28T09:53:35Z</time>
      </trkpt>
      <trkpt lat="44.41274" lon="3.58024">
        <ele>1100.2</ele>
        <time>2022-10-28T09:53:36Z</time>
      </trkpt>
      <trkpt lat="44.41275" lon="3.58025">
        <ele>1100.4</ele>
        <time>2022-10-28T09:53:37Z</time>
      </trkpt>
      <trkpt lat="44.41277" lon="3.58027">
        <ele>1100.6</ele>
        <time>2022-10-28T09:53:38Z</time>
      </trkpt>
      <trkpt lat="44.41278" lon="3.58028">
        <ele>1100.8</ele>
        <time>2022-10-28T09:53:39Z</time>
      </trkpt>
      <trkpt lat="44.4128" lon="3.58029">
        <ele>1101</ele>
        <time>2022-10-28T09:53:40Z</time>
      </trkpt>
      <trkpt lat="44.41281" lon="3.58031">
        <ele>1101.2</ele>
        <time>2022-10-28T09:53:41Z</time>
      </trkpt>
      <trkpt lat="44.41283" lon="3.58032">
        <ele>1101.4</ele>
        <time>2022-10-28T09:53:42Z</time>
      </trkpt>
      <trkpt lat="44.41284" lon="3.58034">
        <ele>1101.6</ele>
        <time>2022-10-28T09:53:43Z</time>
      </trkpt>
      <trkpt lat="44.41286" lon="3.58035">
        <ele>1101.8</ele>
        <time>2022-10-28T09:53:44Z</time>
      </trkpt>
      <trkpt lat="44.41287" lon="3.58036">
        <ele>1102</ele>
        <time>2022-10-28T09:53:45Z</time>
      </trkpt>
      <trkpt lat="44.41289" lon="3.58037">
        <ele>1102.2</ele>
        <time>2022-10-28T09:53:46Z</time>
      </trkpt>
      <trkpt lat="44.4129" lon="3.58038">
        <ele>1102.4</ele>
        <time>2022-10-28T09:53:47Z</time>
      </trkpt>
      <trkpt lat="44.41291" lon="3.58039">
        <ele>1102.6</ele>
        <time>2022-10-28T09:53:48Z</time>
      </trkpt>
      <trkpt lat="44.41293" lon="3.5804">
        <ele>1102.8</ele>
        <time>2022-10-28T09:53:49Z</time>
      </trkpt>
      <trkpt lat="44.41294" lon="3.58042">
        <ele>1103</ele>
        <time>2022-10-28T09:53:50Z</time>
      </trkpt>
      <trkpt lat="44.41295" lon="3.58043">
        <ele>1103.2</ele>
        <time>2022-10-28T09:53:51Z</time>
      </trkpt>
      <trkpt lat="44.41297" lon="3.58045">
        <ele>1103.4</ele>
        <time>2022-10-28T09:53:52Z</time>
      </trkpt>
      <trkpt lat="44.41298" lon="3.58046">
        <ele>1103.6</ele>
        <time>2022-10-28T09:53:53Z</time>
      </trkpt>
      <trkpt lat="44.41299" lon="3.58048">
        <ele>1103.8</ele>
        <time>2022-10-28T09:53:54Z</time>
      </trkpt>
      <trkpt lat="44.41301" lon="3.5805">
        <ele>1104</ele>
        <time>2022-10-28T09:53:55Z</time>
      </trkpt>
      <trkpt lat="44.41302" lon="3.58051">
        <ele>1104.2</ele>
        <time>2022-10-28T09:53:56Z</time>
      </trkpt>
      <trkpt lat="44.41303" lon="3.58053">
        <ele>1104.4</ele>
        <time>2022-10-28T09:53:57Z</time>
      </trkpt>
      <trkpt lat="44.41304" lon="3.58055">
        <ele>1104.6</ele>
        <time>2022-10-28T09:53:58Z</time>
      </trkpt>
      <trkpt lat="44.41305" lon="3.58057">
        <ele>1104.8</ele>
        <time>2022-10-28T09:53:59Z</time>
      </trkpt>
      <trkpt lat="44.41306" lon="3.58058">
        <ele>1105</ele>
        <time>2022-10-28T09:54:00Z</time>
      </trkpt>
      <trkpt lat="44.41307" lon="3.5806">
        <ele>1105.2</ele>
        <time>2022-10-28T09:54:01Z</time>
      </trkpt>
      <trkpt lat="44.41308" lon="3.58062">
        <ele>1105.4</ele>
        <time>2022-10-28T09:54:02Z</time>
      </trkpt>
      <trkpt lat="44.41309" lon="3.58064">
        <ele>1105.6</ele>
        <time>2022-10-28T09:54:03Z</time>
      </trkpt>
      <trkpt lat="44.41311" lon="3.58066">
        <ele>1105.8</ele>
        <time>2022-10-28T09:54:04Z</time>
      </trkpt>
      <trkpt lat="44.41312" lon="3.58068">
        <ele>1105.8</ele>
        <time>2022-10-28T09:54:05Z</time>
      </trkpt>
      <trkpt lat="44.41312" lon="3.5807">
        <ele>1106</ele>
        <time>2022-10-28T09:54:06Z</time>
      </trkpt>
      <trkpt lat="44.41313" lon="3.58072">
        <ele>1106.2</ele>
        <time>2022-10-28T09:54:07Z</time>
      </trkpt>
      <trkpt lat="44.41314" lon="3.58074">
        <ele>1106.4</ele>
        <time>2022-10-28T09:54:08Z</time>
      </trkpt>
      <trkpt lat="44.41315" lon="3.58076">
        <ele>1106.6</ele>
        <time>2022-10-28T09:54:09Z</time>
      </trkpt>
      <trkpt lat="44.41316" lon="3.58078">
        <ele>1106.8</ele>
        <time>2022-10-28T09:54:10Z</time>
      </trkpt>
      <trkpt lat="44.41318" lon="3.58079">
        <ele>1107</ele>
        <time>2022-10-28T09:54:11Z</time>
      </trkpt>
      <trkpt lat="44.41319" lon="3.58081">
        <ele>1107.2</ele>
        <time>2022-10-28T09:54:12Z</time>
      </trkpt>
      <trkpt lat="44.4132" lon="3.58083">
        <ele>1107.4</ele>
        <time>2022-10-28T09:54:13Z</time>
      </trkpt>
      <trkpt lat="44.41322" lon="3.58084">
        <ele>1107.6</ele>
        <time>2022-10-28T09:54:14Z</time>
      </trkpt>
      <trkpt lat="44.41323" lon="3.58086">
        <ele>1107.8</ele>
        <time>2022-10-28T09:54:15Z</time>
      </trkpt>
      <trkpt lat="44.41324" lon="3.58087">
        <ele>1108</ele>
        <time>2022-10-28T09:54:16Z</time>
      </trkpt>
      <trkpt lat="44.41326" lon="3.58089">
        <ele>1108</ele>
        <time>2022-10-28T09:54:17Z</time>
      </trkpt>
      <trkpt lat="44.41327" lon="3.58091">
        <ele>1108.2</ele>
        <time>2022-10-28T09:54:18Z</time>
      </trkpt>
      <trkpt lat="44.41328" lon="3.58092">
        <ele>1108.4</ele>
        <time>2022-10-28T09:54:19Z</time>
      </trkpt>
      <trkpt lat="44.4133" lon="3.58094">
        <ele>1108.6</ele>
        <time>2022-10-28T09:54:20Z</time>
      </trkpt>
      <trkpt lat="44.41331" lon="3.58095">
        <ele>1108.8</ele>
        <time>2022-10-28T09:54:21Z</time>
      </trkpt>
      <trkpt lat="44.41333" lon="3.58097">
        <ele>1109</ele>
        <time>2022-10-28T09:54:22Z</time>
      </trkpt>
      <trkpt lat="44.41334" lon="3.58098">
        <ele>1109.2</ele>
        <time>2022-10-28T09:54:23Z</time>
      </trkpt>
      <trkpt lat="44.41336" lon="3.581">
        <ele>1109.4</ele>
        <time>2022-10-28T09:54:24Z</time>
      </trkpt>
      <trkpt lat="44.41337" lon="3.58101">
        <ele>1109.4</ele>
        <time>2022-10-28T09:54:25Z</time>
      </trkpt>
      <trkpt lat="44.41339" lon="3.58103">
        <ele>1109.6</ele>
        <time>2022-10-28T09:54:26Z</time>
      </trkpt>
      <trkpt lat="44.4134" lon="3.58104">
        <ele>1109.8</ele>
        <time>2022-10-28T09:54:27Z</time>
      </trkpt>
      <trkpt lat="44.41341" lon="3.58106">
        <ele>1110</ele>
        <time>2022-10-28T09:54:28Z</time>
      </trkpt>
      <trkpt lat="44.41343" lon="3.58107">
        <ele>1110.2</ele>
        <time>2022-10-28T09:54:29Z</time>
      </trkpt>
      <trkpt lat="44.41344" lon="3.58109">
        <ele>1110.4</ele>
        <time>2022-10-28T09:54:30Z</time>
      </trkpt>
      <trkpt lat="44.41346" lon="3.58111">
        <ele>1110.4</ele>
        <time>2022-10-28T09:54:31Z</time>
      </trkpt>
      <trkpt lat="44.41348" lon="3.58112">
        <ele>1110.6</ele>
        <time>2022-10-28T09:54:32Z</time>
      </trkpt>
      <trkpt lat="44.41349" lon="3.58114">
        <ele>1110.8</ele>
        <time>2022-10-28T09:54:33Z</time>
      </trkpt>
      <trkpt lat="44.41351" lon="3.58115">
        <ele>1111</ele>
        <time>2022-10-28T09:54:34Z</time>
      </trkpt>
      <trkpt lat="44.41352" lon="3.58117">
        <ele>1111</ele>
        <time>2022-10-28T09:54:35Z</time>
      </trkpt>
      <trkpt lat="44.41353" lon="3.58119">
        <ele>1111.2</ele>
        <time>2022-10-28T09:54:36Z</time>
      </trkpt>
      <trkpt lat="44.41355" lon="3.5812">
        <ele>1111.4</ele>
        <time>2022-10-28T09:54:37Z</time>
      </trkpt>
      <trkpt lat="44.41356" lon="3.58122">
        <ele>1111.6</ele>
        <time>2022-10-28T09:54:38Z</time>
      </trkpt>
      <trkpt lat="44.41358" lon="3.58123">
        <ele>1111.6</ele>
        <time>2022-10-28T09:54:39Z</time>
      </trkpt>
      <trkpt lat="44.41359" lon="3.58125">
        <ele>1111.8</ele>
        <time>2022-10-28T09:54:40Z</time>
      </trkpt>
      <trkpt lat="44.41361" lon="3.58126">
        <ele>1112</ele>
        <time>2022-10-28T09:54:41Z</time>
      </trkpt>
      <trkpt lat="44.41362" lon="3.58128">
        <ele>1112.2</ele>
        <time>2022-10-28T09:54:42Z</time>
      </trkpt>
      <trkpt lat="44.41364" lon="3.5813">
        <ele>1112.2</ele>
        <time>2022-10-28T09:54:43Z</time>
      </trkpt>
      <trkpt lat="44.41365" lon="3.58132">
        <ele>1112.4</ele>
        <time>2022-10-28T09:54:44Z</time>
      </trkpt>
      <trkpt lat="44.41367" lon="3.58133">
        <ele>1112.6</ele>
        <time>2022-10-28T09:54:45Z</time>
      </trkpt>
      <trkpt lat="44.41369" lon="3.58135">
        <ele>1112.8</ele>
        <time>2022-10-28T09:54:46Z</time>
      </trkpt>
      <trkpt lat="44.4137" lon="3.58137">
        <ele>1113</ele>
        <time>2022-10-28T09:54:47Z</time>
      </trkpt>
      <trkpt lat="44.41372" lon="3.58138">
        <ele>1113.2</ele>
        <time>2022-10-28T09:54:48Z</time>
      </trkpt>
      <trkpt lat="44.41374" lon="3.5814">
        <ele>1113.4</ele>
        <time>2022-10-28T09:54:49Z</time>
      </trkpt>
      <trkpt lat="44.41376" lon="3.58141">
        <ele>1113.4</ele>
        <time>2022-10-28T09:54:50Z</time>
      </trkpt>
      <trkpt lat="44.41377" lon="3.58143">
        <ele>1113.6</ele>
        <time>2022-10-28T09:54:51Z</time>
      </trkpt>
      <trkpt lat="44.41379" lon="3.58145">
        <ele>1113.8</ele>
        <time>2022-10-28T09:54:52Z</time>
      </trkpt>
      <trkpt lat="44.41381" lon="3.58147">
        <ele>1114</ele>
        <time>2022-10-28T09:54:53Z</time>
      </trkpt>
      <trkpt lat="44.41382" lon="3.58149">
        <ele>1114.2</ele>
        <time>2022-10-28T09:54:54Z</time>
      </trkpt>
      <trkpt lat="44.41384" lon="3.5815">
        <ele>1114.2</ele>
        <time>2022-10-28T09:54:55Z</time>
      </trkpt>
      <trkpt lat="44.41386" lon="3.58152">
        <ele>1114.4</ele>
        <time>2022-10-28T09:54:56Z</time>
      </trkpt>
      <trkpt lat="44.41387" lon="3.58154">
        <ele>1114.6</ele>
        <time>2022-10-28T09:54:57Z</time>
      </trkpt>
      <trkpt lat="44.41389" lon="3.58155">
        <ele>1114.8</ele>
        <time>2022-10-28T09:54:58Z</time>
      </trkpt>
      <trkpt lat="44.41391" lon="3.58157">
        <ele>1115</ele>
        <time>2022-10-28T09:54:59Z</time>
      </trkpt>
      <trkpt lat="44.41392" lon="3.58159">
        <ele>1115</ele>
        <time>2022-10-28T09:55:00Z</time>
      </trkpt>
      <trkpt lat="44.41394" lon="3.58161">
        <ele>1115.2</ele>
        <time>2022-10-28T09:55:01Z</time>
      </trkpt>
      <trkpt lat="44.41396" lon="3.58162">
        <ele>1115.4</ele>
        <time>2022-10-28T09:55:02Z</time>
      </trkpt>
      <trkpt lat="44.41397" lon="3.58164">
        <ele>1115.6</ele>
        <time>2022-10-28T09:55:03Z</time>
      </trkpt>
      <trkpt lat="44.41399" lon="3.58165">
        <ele>1115.8</ele>
        <time>2022-10-28T09:55:04Z</time>
      </trkpt>
      <trkpt lat="44.41401" lon="3.58166">
        <ele>1116</ele>
        <time>2022-10-28T09:55:05Z</time>
      </trkpt>
      <trkpt lat="44.41402" lon="3.58168">
        <ele>1116</ele>
        <time>2022-10-28T09:55:06Z</time>
      </trkpt>
      <trkpt lat="44.41404" lon="3.58169">
        <ele>1116.2</ele>
        <time>2022-10-28T09:55:07Z</time>
      </trkpt>
      <trkpt lat="44.41406" lon="3.5817">
        <ele>1116.4</ele>
        <time>2022-10-28T09:55:08Z</time>
      </trkpt>
      <trkpt lat="44.41408" lon="3.58172">
        <ele>1116.6</ele>
        <time>2022-10-28T09:55:09Z</time>
      </trkpt>
      <trkpt lat="44.4141" lon="3.58173">
        <ele>1116.6</ele>
        <time>2022-10-28T09:55:10Z</time>
      </trkpt>
      <trkpt lat="44.41412" lon="3.58174">
        <ele>1116.8</ele>
        <time>2022-10-28T09:55:11Z</time>
      </trkpt>
      <trkpt lat="44.41414" lon="3.58175">
        <ele>1117</ele>
        <time>2022-10-28T09:55:12Z</time>
      </trkpt>
      <trkpt lat="44.41416" lon="3.58176">
        <ele>1117.2</ele>
        <time>2022-10-28T09:55:13Z</time>
      </trkpt>
      <trkpt lat="44.41417" lon="3.58178">
        <ele>1117.4</ele>
        <time>2022-10-28T09:55:14Z</time>
      </trkpt>
      <trkpt lat="44.41419" lon="3.58179">
        <ele>1117.6</ele>
        <time>2022-10-28T09:55:15Z</time>
      </trkpt>
      <trkpt lat="44.41421" lon="3.5818">
        <ele>1117.6</ele>
        <time>2022-10-28T09:55:16Z</time>
      </trkpt>
      <trkpt lat="44.41422" lon="3.58182">
        <ele>1117.8</ele>
        <time>2022-10-28T09:55:17Z</time>
      </trkpt>
      <trkpt lat="44.41424" lon="3.58183">
        <ele>1118</ele>
        <time>2022-10-28T09:55:18Z</time>
      </trkpt>
      <trkpt lat="44.41426" lon="3.58185">
        <ele>1118.2</ele>
        <time>2022-10-28T09:55:19Z</time>
      </trkpt>
      <trkpt lat="44.41428" lon="3.58186">
        <ele>1118.4</ele>
        <time>2022-10-28T09:55:20Z</time>
      </trkpt>
      <trkpt lat="44.4143" lon="3.58188">
        <ele>1118.6</ele>
        <time>2022-10-28T09:55:21Z</time>
      </trkpt>
      <trkpt lat="44.41432" lon="3.58189">
        <ele>1118.8</ele>
        <time>2022-10-28T09:55:22Z</time>
      </trkpt>
      <trkpt lat="44.41434" lon="3.5819">
        <ele>1118.8</ele>
        <time>2022-10-28T09:55:23Z</time>
      </trkpt>
      <trkpt lat="44.41435" lon="3.58192">
        <ele>1119</ele>
        <time>2022-10-28T09:55:24Z</time>
      </trkpt>
      <trkpt lat="44.41437" lon="3.58193">
        <ele>1119.2</ele>
        <time>2022-10-28T09:55:25Z</time>
      </trkpt>
      <trkpt lat="44.41439" lon="3.58193">
        <ele>1119.4</ele>
        <time>2022-10-28T09:55:26Z</time>
      </trkpt>
      <trkpt lat="44.41441" lon="3.58194">
        <ele>1119.6</ele>
        <time>2022-10-28T09:55:27Z</time>
      </trkpt>
      <trkpt lat="44.41443" lon="3.58195">
        <ele>1119.6</ele>
        <time>2022-10-28T09:55:28Z</time>
      </trkpt>
      <trkpt lat="44.41445" lon="3.58196">
        <ele>1119.8</ele>
        <time>2022-10-28T09:55:29Z</time>
      </trkpt>
      <trkpt lat="44.41447" lon="3.58197">
        <ele>1120</ele>
        <time>2022-10-28T09:55:30Z</time>
      </trkpt>
      <trkpt lat="44.41449" lon="3.58198">
        <ele>1120</ele>
        <time>2022-10-28T09:55:31Z</time>
      </trkpt>
      <trkpt lat="44.41451" lon="3.58199">
        <ele>1120.2</ele>
        <time>2022-10-28T09:55:32Z</time>
      </trkpt>
      <trkpt lat="44.41453" lon="3.58201">
        <ele>1120.4</ele>
        <time>2022-10-28T09:55:33Z</time>
      </trkpt>
      <trkpt lat="44.41454" lon="3.58201">
        <ele>1120.6</ele>
        <time>2022-10-28T09:55:34Z</time>
      </trkpt>
      <trkpt lat="44.41456" lon="3.58202">
        <ele>1120.8</ele>
        <time>2022-10-28T09:55:35Z</time>
      </trkpt>
      <trkpt lat="44.41458" lon="3.58203">
        <ele>1121</ele>
        <time>2022-10-28T09:55:36Z</time>
      </trkpt>
      <trkpt lat="44.4146" lon="3.58205">
        <ele>1121.2</ele>
        <time>2022-10-28T09:55:37Z</time>
      </trkpt>
      <trkpt lat="44.41462" lon="3.58206">
        <ele>1121.4</ele>
        <time>2022-10-28T09:55:38Z</time>
      </trkpt>
      <trkpt lat="44.41464" lon="3.58207">
        <ele>1121.6</ele>
        <time>2022-10-28T09:55:39Z</time>
      </trkpt>
      <trkpt lat="44.41465" lon="3.58208">
        <ele>1121.8</ele>
        <time>2022-10-28T09:55:40Z</time>
      </trkpt>
      <trkpt lat="44.41467" lon="3.58209">
        <ele>1122</ele>
        <time>2022-10-28T09:55:41Z</time>
      </trkpt>
      <trkpt lat="44.41469" lon="3.58211">
        <ele>1122.2</ele>
        <time>2022-10-28T09:55:42Z</time>
      </trkpt>
      <trkpt lat="44.4147" lon="3.58213">
        <ele>1122.2</ele>
        <time>2022-10-28T09:55:43Z</time>
      </trkpt>
      <trkpt lat="44.41472" lon="3.58214">
        <ele>1122.4</ele>
        <time>2022-10-28T09:55:44Z</time>
      </trkpt>
      <trkpt lat="44.41474" lon="3.58216">
        <ele>1122.6</ele>
        <time>2022-10-28T09:55:45Z</time>
      </trkpt>
      <trkpt lat="44.41475" lon="3.58217">
        <ele>1122.8</ele>
        <time>2022-10-28T09:55:46Z</time>
      </trkpt>
      <trkpt lat="44.41477" lon="3.58218">
        <ele>1123</ele>
        <time>2022-10-28T09:55:47Z</time>
      </trkpt>
      <trkpt lat="44.41478" lon="3.5822">
        <ele>1123.4</ele>
        <time>2022-10-28T09:55:48Z</time>
      </trkpt>
      <trkpt lat="44.4148" lon="3.58221">
        <ele>1123.6</ele>
        <time>2022-10-28T09:55:49Z</time>
      </trkpt>
      <trkpt lat="44.41481" lon="3.58223">
        <ele>1123.8</ele>
        <time>2022-10-28T09:55:50Z</time>
      </trkpt>
      <trkpt lat="44.41483" lon="3.58224">
        <ele>1124</ele>
        <time>2022-10-28T09:55:51Z</time>
      </trkpt>
      <trkpt lat="44.41484" lon="3.58225">
        <ele>1124.2</ele>
        <time>2022-10-28T09:55:52Z</time>
      </trkpt>
      <trkpt lat="44.41485" lon="3.58227">
        <ele>1124.6</ele>
        <time>2022-10-28T09:55:53Z</time>
      </trkpt>
      <trkpt lat="44.41487" lon="3.58228">
        <ele>1124.8</ele>
        <time>2022-10-28T09:55:54Z</time>
      </trkpt>
      <trkpt lat="44.41488" lon="3.5823">
        <ele>1125</ele>
        <time>2022-10-28T09:55:55Z</time>
      </trkpt>
      <trkpt lat="44.4149" lon="3.58232">
        <ele>1125.2</ele>
        <time>2022-10-28T09:55:56Z</time>
      </trkpt>
      <trkpt lat="44.41491" lon="3.58233">
        <ele>1125.4</ele>
        <time>2022-10-28T09:55:57Z</time>
      </trkpt>
      <trkpt lat="44.41493" lon="3.58235">
        <ele>1125.6</ele>
        <time>2022-10-28T09:55:58Z</time>
      </trkpt>
      <trkpt lat="44.41494" lon="3.58236">
        <ele>1125.8</ele>
        <time>2022-10-28T09:55:59Z</time>
      </trkpt>
      <trkpt lat="44.41496" lon="3.58238">
        <ele>1126</ele>
        <time>2022-10-28T09:56:00Z</time>
      </trkpt>
      <trkpt lat="44.41497" lon="3.58239">
        <ele>1126</ele>
        <time>2022-10-28T09:56:01Z</time>
      </trkpt>
      <trkpt lat="44.41499" lon="3.58241">
        <ele>1126.2</ele>
        <time>2022-10-28T09:56:02Z</time>
      </trkpt>
      <trkpt lat="44.41501" lon="3.58242">
        <ele>1126.4</ele>
        <time>2022-10-28T09:56:03Z</time>
      </trkpt>
      <trkpt lat="44.41503" lon="3.58244">
        <ele>1126.6</ele>
        <time>2022-10-28T09:56:04Z</time>
      </trkpt>
      <trkpt lat="44.41504" lon="3.58245">
        <ele>1126.8</ele>
        <time>2022-10-28T09:56:05Z</time>
      </trkpt>
      <trkpt lat="44.41506" lon="3.58247">
        <ele>1126.8</ele>
        <time>2022-10-28T09:56:06Z</time>
      </trkpt>
      <trkpt lat="44.41508" lon="3.58247">
        <ele>1127</ele>
        <time>2022-10-28T09:56:07Z</time>
      </trkpt>
      <trkpt lat="44.4151" lon="3.58248">
        <ele>1127.2</ele>
        <time>2022-10-28T09:56:08Z</time>
      </trkpt>
      <trkpt lat="44.41512" lon="3.58249">
        <ele>1127.2</ele>
        <time>2022-10-28T09:56:09Z</time>
      </trkpt>
      <trkpt lat="44.41514" lon="3.5825">
        <ele>1127.4</ele>
        <time>2022-10-28T09:56:10Z</time>
      </trkpt>
      <trkpt lat="44.41515" lon="3.58251">
        <ele>1127.6</ele>
        <time>2022-10-28T09:56:11Z</time>
      </trkpt>
      <trkpt lat="44.41517" lon="3.58252">
        <ele>1127.6</ele>
        <time>2022-10-28T09:56:12Z</time>
      </trkpt>
      <trkpt lat="44.41519" lon="3.58253">
        <ele>1127.8</ele>
        <time>2022-10-28T09:56:13Z</time>
      </trkpt>
      <trkpt lat="44.4152" lon="3.58254">
        <ele>1128</ele>
        <time>2022-10-28T09:56:14Z</time>
      </trkpt>
      <trkpt lat="44.41522" lon="3.58255">
        <ele>1128.2</ele>
        <time>2022-10-28T09:56:15Z</time>
      </trkpt>
      <trkpt lat="44.41524" lon="3.58256">
        <ele>1128.4</ele>
        <time>2022-10-28T09:56:16Z</time>
      </trkpt>
      <trkpt lat="44.41526" lon="3.58257">
        <ele>1128.4</ele>
        <time>2022-10-28T09:56:17Z</time>
      </trkpt>
      <trkpt lat="44.41527" lon="3.58258">
        <ele>1128.6</ele>
        <time>2022-10-28T09:56:18Z</time>
      </trkpt>
      <trkpt lat="44.41529" lon="3.58259">
        <ele>1128.8</ele>
        <time>2022-10-28T09:56:19Z</time>
      </trkpt>
      <trkpt lat="44.41531" lon="3.58261">
        <ele>1129</ele>
        <time>2022-10-28T09:56:20Z</time>
      </trkpt>
      <trkpt lat="44.41533" lon="3.58262">
        <ele>1129.2</ele>
        <time>2022-10-28T09:56:21Z</time>
      </trkpt>
      <trkpt lat="44.41534" lon="3.58264">
        <ele>1129.4</ele>
        <time>2022-10-28T09:56:22Z</time>
      </trkpt>
      <trkpt lat="44.41536" lon="3.58265">
        <ele>1129.4</ele>
        <time>2022-10-28T09:56:23Z</time>
      </trkpt>
      <trkpt lat="44.41538" lon="3.58266">
        <ele>1129.6</ele>
        <time>2022-10-28T09:56:24Z</time>
      </trkpt>
      <trkpt lat="44.4154" lon="3.58267">
        <ele>1129.8</ele>
        <time>2022-10-28T09:56:25Z</time>
      </trkpt>
      <trkpt lat="44.41542" lon="3.58268">
        <ele>1129.8</ele>
        <time>2022-10-28T09:56:26Z</time>
      </trkpt>
      <trkpt lat="44.41544" lon="3.58269">
        <ele>1130</ele>
        <time>2022-10-28T09:56:27Z</time>
      </trkpt>
      <trkpt lat="44.41546" lon="3.5827">
        <ele>1130.2</ele>
        <time>2022-10-28T09:56:28Z</time>
      </trkpt>
      <trkpt lat="44.41548" lon="3.58271">
        <ele>1130.2</ele>
        <time>2022-10-28T09:56:29Z</time>
      </trkpt>
      <trkpt lat="44.41549" lon="3.58272">
        <ele>1130.4</ele>
        <time>2022-10-28T09:56:30Z</time>
      </trkpt>
      <trkpt lat="44.41551" lon="3.58273">
        <ele>1130.6</ele>
        <time>2022-10-28T09:56:31Z</time>
      </trkpt>
      <trkpt lat="44.41553" lon="3.58274">
        <ele>1130.6</ele>
        <time>2022-10-28T09:56:32Z</time>
      </trkpt>
      <trkpt lat="44.41554" lon="3.58275">
        <ele>1130.8</ele>
        <time>2022-10-28T09:56:33Z</time>
      </trkpt>
      <trkpt lat="44.41556" lon="3.58276">
        <ele>1130.8</ele>
        <time>2022-10-28T09:56:34Z</time>
      </trkpt>
      <trkpt lat="44.41558" lon="3.58278">
        <ele>1131</ele>
        <time>2022-10-28T09:56:35Z</time>
      </trkpt>
      <trkpt lat="44.4156" lon="3.58279">
        <ele>1131.2</ele>
        <time>2022-10-28T09:56:36Z</time>
      </trkpt>
      <trkpt lat="44.41562" lon="3.58281">
        <ele>1131.2</ele>
        <time>2022-10-28T09:56:37Z</time>
      </trkpt>
      <trkpt lat="44.41563" lon="3.58282">
        <ele>1131.4</ele>
        <time>2022-10-28T09:56:38Z</time>
      </trkpt>
      <trkpt lat="44.41565" lon="3.58283">
        <ele>1131.6</ele>
        <time>2022-10-28T09:56:39Z</time>
      </trkpt>
      <trkpt lat="44.41567" lon="3.58284">
        <ele>1131.8</ele>
        <time>2022-10-28T09:56:40Z</time>
      </trkpt>
      <trkpt lat="44.41568" lon="3.58285">
        <ele>1131.8</ele>
        <time>2022-10-28T09:56:41Z</time>
      </trkpt>
      <trkpt lat="44.4157" lon="3.58287">
        <ele>1132</ele>
        <time>2022-10-28T09:56:42Z</time>
      </trkpt>
      <trkpt lat="44.41572" lon="3.58289">
        <ele>1132.2</ele>
        <time>2022-10-28T09:56:43Z</time>
      </trkpt>
      <trkpt lat="44.41574" lon="3.5829">
        <ele>1132.2</ele>
        <time>2022-10-28T09:56:44Z</time>
      </trkpt>
      <trkpt lat="44.41575" lon="3.58292">
        <ele>1132.4</ele>
        <time>2022-10-28T09:56:45Z</time>
      </trkpt>
      <trkpt lat="44.41576" lon="3.58293">
        <ele>1132.6</ele>
        <time>2022-10-28T09:56:46Z</time>
      </trkpt>
      <trkpt lat="44.41577" lon="3.58295">
        <ele>1132.6</ele>
        <time>2022-10-28T09:56:47Z</time>
      </trkpt>
      <trkpt lat="44.41577" lon="3.58297">
        <ele>1132.8</ele>
        <time>2022-10-28T09:56:48Z</time>
      </trkpt>
      <trkpt lat="44.41578" lon="3.58299">
        <ele>1132.8</ele>
        <time>2022-10-28T09:56:49Z</time>
      </trkpt>
      <trkpt lat="44.41578" lon="3.583">
        <ele>1133</ele>
        <time>2022-10-28T09:56:50Z</time>
      </trkpt>
      <trkpt lat="44.41578" lon="3.58302">
        <ele>1133</ele>
        <time>2022-10-28T09:56:51Z</time>
      </trkpt>
      <trkpt lat="44.41578" lon="3.58304">
        <ele>1133</ele>
        <time>2022-10-28T09:56:52Z</time>
      </trkpt>
      <trkpt lat="44.41578" lon="3.58306">
        <ele>1133.2</ele>
        <time>2022-10-28T09:56:53Z</time>
      </trkpt>
      <trkpt lat="44.41579" lon="3.58306">
        <ele>1133.2</ele>
        <time>2022-10-28T09:56:54Z</time>
      </trkpt>
      <trkpt lat="44.41578" lon="3.58302">
        <ele>1133</ele>
        <time>2022-10-28T09:57:09Z</time>
      </trkpt>
      <trkpt lat="44.41577" lon="3.583">
        <ele>1133</ele>
        <time>2022-10-28T09:57:10Z</time>
      </trkpt>
      <trkpt lat="44.41577" lon="3.58298">
        <ele>1133</ele>
        <time>2022-10-28T09:57:11Z</time>
      </trkpt>
      <trkpt lat="44.41577" lon="3.58297">
        <ele>1133</ele>
        <time>2022-10-28T09:57:12Z</time>
      </trkpt>
      <trkpt lat="44.41576" lon="3.58296">
        <ele>1133</ele>
        <time>2022-10-28T09:57:13Z</time>
      </trkpt>
      <trkpt lat="44.41576" lon="3.58296">
        <ele>1133</ele>
        <time>2022-10-28T09:57:14Z</time>
      </trkpt>
      <trkpt lat="44.41576" lon="3.58296">
        <ele>1133</ele>
        <time>2022-10-28T09:57:15Z</time>
      </trkpt>
      <trkpt lat="44.41576" lon="3.58296">
        <ele>1133</ele>
        <time>2022-10-28T09:57:16Z</time>
      </trkpt>
      <trkpt lat="44.41577" lon="3.58297">
        <ele>1133</ele>
        <time>2022-10-28T09:58:32Z</time>
      </trkpt>
      <trkpt lat="44.41577" lon="3.58297">
        <ele>1133</ele>
        <time>2022-10-28T09:58:33Z</time>
      </trkpt>
      <trkpt lat="44.41576" lon="3.58298">
        <ele>1133</ele>
        <time>2022-10-28T09:58:34Z</time>
      </trkpt>
      <trkpt lat="44.41575" lon="3.58298">
        <ele>1133</ele>
        <time>2022-10-28T09:58:35Z</time>
      </trkpt>
      <trkpt lat="44.41574" lon="3.58298">
        <ele>1133</ele>
        <time>2022-10-28T09:58:36Z</time>
      </trkpt>
      <trkpt lat="44.41573" lon="3.58297">
        <ele>1133</ele>
        <time>2022-10-28T09:58:37Z</time>
      </trkpt>
      <trkpt lat="44.41571" lon="3.58296">
        <ele>1133</ele>
        <time>2022-10-28T09:58:38Z</time>
      </trkpt>
      <trkpt lat="44.4157" lon="3.58295">
        <ele>1132.8</ele>
        <time>2022-10-28T09:58:39Z</time>
      </trkpt>
      <trkpt lat="44.4157" lon="3.58293">
        <ele>1132.8</ele>
        <time>2022-10-28T09:58:40Z</time>
      </trkpt>
      <trkpt lat="44.4157" lon="3.58292">
        <ele>1132.8</ele>
        <time>2022-10-28T09:58:41Z</time>
      </trkpt>
      <trkpt lat="44.4157" lon="3.5829">
        <ele>1132.6</ele>
        <time>2022-10-28T09:58:42Z</time>
      </trkpt>
      <trkpt lat="44.41571" lon="3.58289">
        <ele>1132.6</ele>
        <time>2022-10-28T09:58:43Z</time>
      </trkpt>
      <trkpt lat="44.41572" lon="3.58289">
        <ele>1132.6</ele>
        <time>2022-10-28T09:58:44Z</time>
      </trkpt>
      <trkpt lat="44.41573" lon="3.58289">
        <ele>1132.6</ele>
        <time>2022-10-28T09:58:45Z</time>
      </trkpt>
      <trkpt lat="44.41574" lon="3.5829">
        <ele>1132.6</ele>
        <time>2022-10-28T09:58:46Z</time>
      </trkpt>
      <trkpt lat="44.41575" lon="3.58291">
        <ele>1132.6</ele>
        <time>2022-10-28T09:58:47Z</time>
      </trkpt>
      <trkpt lat="44.41575" lon="3.58292">
        <ele>1132.6</ele>
        <time>2022-10-28T09:58:48Z</time>
      </trkpt>
      <trkpt lat="44.41575" lon="3.58292">
        <ele>1132.6</ele>
        <time>2022-10-28T09:58:49Z</time>
      </trkpt>
      <trkpt lat="44.41575" lon="3.58292">
        <ele>1132.8</ele>
        <time>2022-10-28T09:58:50Z</time>
      </trkpt>
      <trkpt lat="44.41575" lon="3.58292">
        <ele>1132.8</ele>
        <time>2022-10-28T09:58:51Z</time>
      </trkpt>
      <trkpt lat="44.41575" lon="3.58292">
        <ele>1132.8</ele>
        <time>2022-10-28T09:58:52Z</time>
      </trkpt>
      <trkpt lat="44.41576" lon="3.58292">
        <ele>1132.8</ele>
        <time>2022-10-28T09:58:56Z</time>
      </trkpt>
      <trkpt lat="44.41576" lon="3.58292">
        <ele>1133</ele>
        <time>2022-10-28T09:58:57Z</time>
      </trkpt>
      <trkpt lat="44.41577" lon="3.58293">
        <ele>1133</ele>
        <time>2022-10-28T09:58:58Z</time>
      </trkpt>
      <trkpt lat="44.41579" lon="3.58295">
        <ele>1133</ele>
        <time>2022-10-28T09:58:59Z</time>
      </trkpt>
      <trkpt lat="44.41581" lon="3.58298">
        <ele>1133.2</ele>
        <time>2022-10-28T09:59:00Z</time>
      </trkpt>
      <trkpt lat="44.41583" lon="3.58301">
        <ele>1133.2</ele>
        <time>2022-10-28T09:59:01Z</time>
      </trkpt>
      <trkpt lat="44.41586" lon="3.58303">
        <ele>1133.4</ele>
        <time>2022-10-28T09:59:02Z</time>
      </trkpt>
      <trkpt lat="44.41588" lon="3.58305">
        <ele>1133.4</ele>
        <time>2022-10-28T09:59:03Z</time>
      </trkpt>
      <trkpt lat="44.41589" lon="3.58307">
        <ele>1133.6</ele>
        <time>2022-10-28T09:59:04Z</time>
      </trkpt>
      <trkpt lat="44.4159" lon="3.58309">
        <ele>1133.6</ele>
        <time>2022-10-28T09:59:05Z</time>
      </trkpt>
      <trkpt lat="44.41589" lon="3.58311">
        <ele>1133.6</ele>
        <time>2022-10-28T09:59:06Z</time>
      </trkpt>
      <trkpt lat="44.41588" lon="3.58312">
        <ele>1133.8</ele>
        <time>2022-10-28T09:59:07Z</time>
      </trkpt>
      <trkpt lat="44.41586" lon="3.58312">
        <ele>1133.8</ele>
        <time>2022-10-28T09:59:08Z</time>
      </trkpt>
      <trkpt lat="44.41584" lon="3.58311">
        <ele>1133.8</ele>
        <time>2022-10-28T09:59:09Z</time>
      </trkpt>
      <trkpt lat="44.41582" lon="3.5831">
        <ele>1133.6</ele>
        <time>2022-10-28T09:59:10Z</time>
      </trkpt>
      <trkpt lat="44.4158" lon="3.58309">
        <ele>1133.6</ele>
        <time>2022-10-28T09:59:11Z</time>
      </trkpt>
      <trkpt lat="44.4158" lon="3.58308">
        <ele>1133.6</ele>
        <time>2022-10-28T09:59:12Z</time>
      </trkpt>
      <trkpt lat="44.4158" lon="3.58308">
        <ele>1133.6</ele>
        <time>2022-10-28T09:59:13Z</time>
      </trkpt>
      <trkpt lat="44.4158" lon="3.58307">
        <ele>1133.6</ele>
        <time>2022-10-28T09:59:14Z</time>
      </trkpt>
      <trkpt lat="44.4158" lon="3.58307">
        <ele>1133.6</ele>
        <time>2022-10-28T09:59:15Z</time>
      </trkpt>
      <trkpt lat="44.4158" lon="3.58307">
        <ele>1133.6</ele>
        <time>2022-10-28T09:59:16Z</time>
      </trkpt>
      <trkpt lat="44.4158" lon="3.58307">
        <ele>1133.6</ele>
        <time>2022-10-28T09:59:17Z</time>
      </trkpt>
      <trkpt lat="44.4158" lon="3.58305">
        <ele>1133.6</ele>
        <time>2022-10-28T09:59:18Z</time>
      </trkpt>
      <trkpt lat="44.4158" lon="3.58304">
        <ele>1133.6</ele>
        <time>2022-10-28T09:59:19Z</time>
      </trkpt>
      <trkpt lat="44.41581" lon="3.58303">
        <ele>1133.6</ele>
        <time>2022-10-28T09:59:20Z</time>
      </trkpt>
      <trkpt lat="44.41581" lon="3.58302">
        <ele>1133.8</ele>
        <time>2022-10-28T09:59:21Z</time>
      </trkpt>
      <trkpt lat="44.41582" lon="3.58302">
        <ele>1133.8</ele>
        <time>2022-10-28T09:59:22Z</time>
      </trkpt>
      <trkpt lat="44.41583" lon="3.58302">
        <ele>1133.8</ele>
        <time>2022-10-28T09:59:23Z</time>
      </trkpt>
      <trkpt lat="44.41583" lon="3.58302">
        <ele>1133.6</ele>
        <time>2022-10-28T09:59:24Z</time>
      </trkpt>
      <trkpt lat="44.41583" lon="3.58302">
        <ele>1133.6</ele>
        <time>2022-10-28T09:59:25Z</time>
      </trkpt>
      <trkpt lat="44.41583" lon="3.58302">
        <ele>1133.6</ele>
        <time>2022-10-28T09:59:26Z</time>
      </trkpt>
      <trkpt lat="44.41584" lon="3.58302">
        <ele>1133.6</ele>
        <time>2022-10-28T09:59:46Z</time>
      </trkpt>
      <trkpt lat="44.41584" lon="3.58301">
        <ele>1133.6</ele>
        <time>2022-10-28T09:59:47Z</time>
      </trkpt>
      <trkpt lat="44.41584" lon="3.58299">
        <ele>1133.6</ele>
        <time>2022-10-28T09:59:48Z</time>
      </trkpt>
      <trkpt lat="44.41584" lon="3.58297">
        <ele>1133.6</ele>
        <time>2022-10-28T09:59:49Z</time>
      </trkpt>
      <trkpt lat="44.41582" lon="3.58295">
        <ele>1133.6</ele>
        <time>2022-10-28T09:59:50Z</time>
      </trkpt>
      <trkpt lat="44.41579" lon="3.58293">
        <ele>1133.6</ele>
        <time>2022-10-28T09:59:51Z</time>
      </trkpt>
      <trkpt lat="44.41577" lon="3.58292">
        <ele>1133.6</ele>
        <time>2022-10-28T09:59:52Z</time>
      </trkpt>
      <trkpt lat="44.41574" lon="3.58291">
        <ele>1133.4</ele>
        <time>2022-10-28T09:59:53Z</time>
      </trkpt>
      <trkpt lat="44.41573" lon="3.5829">
        <ele>1133.4</ele>
        <time>2022-10-28T09:59:54Z</time>
      </trkpt>
      <trkpt lat="44.41572" lon="3.58289">
        <ele>1133.2</ele>
        <time>2022-10-28T09:59:55Z</time>
      </trkpt>
      <trkpt lat="44.41572" lon="3.58289">
        <ele>1133.2</ele>
        <time>2022-10-28T09:59:56Z</time>
      </trkpt>
      <trkpt lat="44.41572" lon="3.58289">
        <ele>1133.2</ele>
        <time>2022-10-28T09:59:57Z</time>
      </trkpt>
      <trkpt lat="44.41572" lon="3.58289">
        <ele>1133.2</ele>
        <time>2022-10-28T09:59:58Z</time>
      </trkpt>
      <trkpt lat="44.41572" lon="3.58289">
        <ele>1133</ele>
        <time>2022-10-28T09:59:59Z</time>
      </trkpt>
      <trkpt lat="44.41572" lon="3.58289">
        <ele>1133</ele>
        <time>2022-10-28T10:00:00Z</time>
      </trkpt>
      <trkpt lat="44.41574" lon="3.58289">
        <ele>1133.2</ele>
        <time>2022-10-28T10:00:04Z</time>
      </trkpt>
      <trkpt lat="44.41575" lon="3.5829">
        <ele>1133.2</ele>
        <time>2022-10-28T10:00:05Z</time>
      </trkpt>
      <trkpt lat="44.41576" lon="3.58292">
        <ele>1133.2</ele>
        <time>2022-10-28T10:00:06Z</time>
      </trkpt>
      <trkpt lat="44.41577" lon="3.58293">
        <ele>1133.2</ele>
        <time>2022-10-28T10:00:07Z</time>
      </trkpt>
      <trkpt lat="44.41578" lon="3.58294">
        <ele>1133.2</ele>
        <time>2022-10-28T10:00:08Z</time>
      </trkpt>
      <trkpt lat="44.41579" lon="3.58296">
        <ele>1133.4</ele>
        <time>2022-10-28T10:00:09Z</time>
      </trkpt>
      <trkpt lat="44.41581" lon="3.58298">
        <ele>1133.4</ele>
        <time>2022-10-28T10:00:10Z</time>
      </trkpt>
      <trkpt lat="44.41583" lon="3.58299">
        <ele>1133.4</ele>
        <time>2022-10-28T10:00:11Z</time>
      </trkpt>
      <trkpt lat="44.41585" lon="3.58301">
        <ele>1133.6</ele>
        <time>2022-10-28T10:00:12Z</time>
      </trkpt>
      <trkpt lat="44.41588" lon="3.58302">
        <ele>1133.6</ele>
        <time>2022-10-28T10:00:13Z</time>
      </trkpt>
      <trkpt lat="44.4159" lon="3.58304">
        <ele>1133.8</ele>
        <time>2022-10-28T10:00:14Z</time>
      </trkpt>
      <trkpt lat="44.41592" lon="3.58306">
        <ele>1133.8</ele>
        <time>2022-10-28T10:00:15Z</time>
      </trkpt>
      <trkpt lat="44.41594" lon="3.58307">
        <ele>1133.6</ele>
        <time>2022-10-28T10:00:16Z</time>
      </trkpt>
      <trkpt lat="44.41596" lon="3.58309">
        <ele>1133.6</ele>
        <time>2022-10-28T10:00:17Z</time>
      </trkpt>
      <trkpt lat="44.41599" lon="3.58311">
        <ele>1133.6</ele>
        <time>2022-10-28T10:00:18Z</time>
      </trkpt>
      <trkpt lat="44.41601" lon="3.58313">
        <ele>1133.6</ele>
        <time>2022-10-28T10:00:19Z</time>
      </trkpt>
      <trkpt lat="44.41604" lon="3.58315">
        <ele>1133.6</ele>
        <time>2022-10-28T10:00:20Z</time>
      </trkpt>
      <trkpt lat="44.41607" lon="3.58317">
        <ele>1133.4</ele>
        <time>2022-10-28T10:00:21Z</time>
      </trkpt>
      <trkpt lat="44.4161" lon="3.58319">
        <ele>1133.4</ele>
        <time>2022-10-28T10:00:22Z</time>
      </trkpt>
      <trkpt lat="44.41614" lon="3.58322">
        <ele>1133.2</ele>
        <time>2022-10-28T10:00:23Z</time>
      </trkpt>
      <trkpt lat="44.41617" lon="3.58324">
        <ele>1133</ele>
        <time>2022-10-28T10:00:24Z</time>
      </trkpt>
      <trkpt lat="44.41621" lon="3.58327">
        <ele>1133</ele>
        <time>2022-10-28T10:00:25Z</time>
      </trkpt>
      <trkpt lat="44.41625" lon="3.5833">
        <ele>1132.8</ele>
        <time>2022-10-28T10:00:26Z</time>
      </trkpt>
      <trkpt lat="44.41629" lon="3.58334">
        <ele>1132.6</ele>
        <time>2022-10-28T10:00:27Z</time>
      </trkpt>
      <trkpt lat="44.41634" lon="3.58338">
        <ele>1132.4</ele>
        <time>2022-10-28T10:00:28Z</time>
      </trkpt>
      <trkpt lat="44.41638" lon="3.58342">
        <ele>1132.2</ele>
        <time>2022-10-28T10:00:29Z</time>
      </trkpt>
      <trkpt lat="44.41641" lon="3.58346">
        <ele>1132.2</ele>
        <time>2022-10-28T10:00:30Z</time>
      </trkpt>
      <trkpt lat="44.41643" lon="3.5835">
        <ele>1132</ele>
        <time>2022-10-28T10:00:31Z</time>
      </trkpt>
      <trkpt lat="44.41644" lon="3.58352">
        <ele>1132</ele>
        <time>2022-10-28T10:00:32Z</time>
      </trkpt>
      <trkpt lat="44.41645" lon="3.58355">
        <ele>1131.8</ele>
        <time>2022-10-28T10:00:33Z</time>
      </trkpt>
      <trkpt lat="44.41646" lon="3.58358">
        <ele>1131.8</ele>
        <time>2022-10-28T10:00:34Z</time>
      </trkpt>
      <trkpt lat="44.41647" lon="3.58361">
        <ele>1131.8</ele>
        <time>2022-10-28T10:00:35Z</time>
      </trkpt>
      <trkpt lat="44.41649" lon="3.58365">
        <ele>1131.8</ele>
        <time>2022-10-28T10:00:36Z</time>
      </trkpt>
      <trkpt lat="44.41651" lon="3.58368">
        <ele>1131.8</ele>
        <time>2022-10-28T10:00:37Z</time>
      </trkpt>
      <trkpt lat="44.41653" lon="3.58371">
        <ele>1131.8</ele>
        <time>2022-10-28T10:00:38Z</time>
      </trkpt>
      <trkpt lat="44.41654" lon="3.58374">
        <ele>1131.8</ele>
        <time>2022-10-28T10:00:39Z</time>
      </trkpt>
      <trkpt lat="44.41656" lon="3.58377">
        <ele>1131.8</ele>
        <time>2022-10-28T10:00:40Z</time>
      </trkpt>
      <trkpt lat="44.41658" lon="3.58381">
        <ele>1131.8</ele>
        <time>2022-10-28T10:00:41Z</time>
      </trkpt>
      <trkpt lat="44.41659" lon="3.58384">
        <ele>1131.8</ele>
        <time>2022-10-28T10:00:42Z</time>
      </trkpt>
      <trkpt lat="44.41661" lon="3.58387">
        <ele>1131.8</ele>
        <time>2022-10-28T10:00:43Z</time>
      </trkpt>
      <trkpt lat="44.41662" lon="3.58389">
        <ele>1131.8</ele>
        <time>2022-10-28T10:00:44Z</time>
      </trkpt>
      <trkpt lat="44.41663" lon="3.58391">
        <ele>1131.8</ele>
        <time>2022-10-28T10:00:45Z</time>
      </trkpt>
      <trkpt lat="44.41664" lon="3.58392">
        <ele>1131.8</ele>
        <time>2022-10-28T10:00:46Z</time>
      </trkpt>
      <trkpt lat="44.41665" lon="3.58393">
        <ele>1131.8</ele>
        <time>2022-10-28T10:00:47Z</time>
      </trkpt>
      <trkpt lat="44.41665" lon="3.58393">
        <ele>1131.8</ele>
        <time>2022-10-28T10:00:48Z</time>
      </trkpt>
      <trkpt lat="44.41665" lon="3.58395">
        <ele>1131.8</ele>
        <time>2022-10-28T10:01:10Z</time>
      </trkpt>
      <trkpt lat="44.41666" lon="3.58397">
        <ele>1131.8</ele>
        <time>2022-10-28T10:01:11Z</time>
      </trkpt>
      <trkpt lat="44.41667" lon="3.58401">
        <ele>1131.8</ele>
        <time>2022-10-28T10:01:12Z</time>
      </trkpt>
      <trkpt lat="44.41669" lon="3.58405">
        <ele>1131.8</ele>
        <time>2022-10-28T10:01:13Z</time>
      </trkpt>
      <trkpt lat="44.4167" lon="3.58409">
        <ele>1132</ele>
        <time>2022-10-28T10:01:14Z</time>
      </trkpt>
      <trkpt lat="44.41671" lon="3.58413">
        <ele>1132</ele>
        <time>2022-10-28T10:01:15Z</time>
      </trkpt>
      <trkpt lat="44.41672" lon="3.58416">
        <ele>1132</ele>
        <time>2022-10-28T10:01:16Z</time>
      </trkpt>
      <trkpt lat="44.41673" lon="3.5842">
        <ele>1132.2</ele>
        <time>2022-10-28T10:01:17Z</time>
      </trkpt>
      <trkpt lat="44.41674" lon="3.58424">
        <ele>1132.4</ele>
        <time>2022-10-28T10:01:18Z</time>
      </trkpt>
      <trkpt lat="44.41675" lon="3.58428">
        <ele>1132.4</ele>
        <time>2022-10-28T10:01:19Z</time>
      </trkpt>
      <trkpt lat="44.41675" lon="3.58432">
        <ele>1132.6</ele>
        <time>2022-10-28T10:01:20Z</time>
      </trkpt>
      <trkpt lat="44.41676" lon="3.58435">
        <ele>1132.6</ele>
        <time>2022-10-28T10:01:21Z</time>
      </trkpt>
      <trkpt lat="44.41678" lon="3.58438">
        <ele>1132.8</ele>
        <time>2022-10-28T10:01:22Z</time>
      </trkpt>
      <trkpt lat="44.41679" lon="3.58441">
        <ele>1132.8</ele>
        <time>2022-10-28T10:01:23Z</time>
      </trkpt>
      <trkpt lat="44.4168" lon="3.58444">
        <ele>1133</ele>
        <time>2022-10-28T10:01:24Z</time>
      </trkpt>
      <trkpt lat="44.41681" lon="3.58447">
        <ele>1133</ele>
        <time>2022-10-28T10:01:25Z</time>
      </trkpt>
      <trkpt lat="44.41682" lon="3.5845">
        <ele>1133.2</ele>
        <time>2022-10-28T10:01:26Z</time>
      </trkpt>
      <trkpt lat="44.41684" lon="3.58453">
        <ele>1133.4</ele>
        <time>2022-10-28T10:01:27Z</time>
      </trkpt>
      <trkpt lat="44.41686" lon="3.58455">
        <ele>1133.6</ele>
        <time>2022-10-28T10:01:28Z</time>
      </trkpt>
      <trkpt lat="44.41688" lon="3.58458">
        <ele>1133.6</ele>
        <time>2022-10-28T10:01:29Z</time>
      </trkpt>
      <trkpt lat="44.41689" lon="3.5846">
        <ele>1133.6</ele>
        <time>2022-10-28T10:01:30Z</time>
      </trkpt>
      <trkpt lat="44.41691" lon="3.58463">
        <ele>1133.6</ele>
        <time>2022-10-28T10:01:31Z</time>
      </trkpt>
      <trkpt lat="44.41693" lon="3.58464">
        <ele>1133.8</ele>
        <time>2022-10-28T10:01:32Z</time>
      </trkpt>
      <trkpt lat="44.41695" lon="3.58465">
        <ele>1133.8</ele>
        <time>2022-10-28T10:01:33Z</time>
      </trkpt>
      <trkpt lat="44.41697" lon="3.58467">
        <ele>1134</ele>
        <time>2022-10-28T10:01:34Z</time>
      </trkpt>
      <trkpt lat="44.417" lon="3.58468">
        <ele>1134</ele>
        <time>2022-10-28T10:01:35Z</time>
      </trkpt>
      <trkpt lat="44.41702" lon="3.5847">
        <ele>1134</ele>
        <time>2022-10-28T10:01:36Z</time>
      </trkpt>
      <trkpt lat="44.41705" lon="3.58472">
        <ele>1134.2</ele>
        <time>2022-10-28T10:01:37Z</time>
      </trkpt>
      <trkpt lat="44.41707" lon="3.58474">
        <ele>1134.2</ele>
        <time>2022-10-28T10:01:38Z</time>
      </trkpt>
      <trkpt lat="44.4171" lon="3.58476">
        <ele>1134.4</ele>
        <time>2022-10-28T10:01:39Z</time>
      </trkpt>
      <trkpt lat="44.41713" lon="3.58477">
        <ele>1134.4</ele>
        <time>2022-10-28T10:01:40Z</time>
      </trkpt>
      <trkpt lat="44.41716" lon="3.58479">
        <ele>1134.4</ele>
        <time>2022-10-28T10:01:41Z</time>
      </trkpt>
      <trkpt lat="44.41718" lon="3.58481">
        <ele>1134.4</ele>
        <time>2022-10-28T10:01:42Z</time>
      </trkpt>
      <trkpt lat="44.41721" lon="3.58484">
        <ele>1134.6</ele>
        <time>2022-10-28T10:01:43Z</time>
      </trkpt>
      <trkpt lat="44.41723" lon="3.58486">
        <ele>1134.4</ele>
        <time>2022-10-28T10:01:44Z</time>
      </trkpt>
      <trkpt lat="44.41726" lon="3.58488">
        <ele>1134.6</ele>
        <time>2022-10-28T10:01:45Z</time>
      </trkpt>
      <trkpt lat="44.41729" lon="3.58489">
        <ele>1134.6</ele>
        <time>2022-10-28T10:01:46Z</time>
      </trkpt>
      <trkpt lat="44.41731" lon="3.58491">
        <ele>1134.6</ele>
        <time>2022-10-28T10:01:47Z</time>
      </trkpt>
      <trkpt lat="44.41734" lon="3.58494">
        <ele>1134.8</ele>
        <time>2022-10-28T10:01:48Z</time>
      </trkpt>
      <trkpt lat="44.41736" lon="3.58496">
        <ele>1134.8</ele>
        <time>2022-10-28T10:01:49Z</time>
      </trkpt>
      <trkpt lat="44.41739" lon="3.58498">
        <ele>1135</ele>
        <time>2022-10-28T10:01:50Z</time>
      </trkpt>
      <trkpt lat="44.41742" lon="3.585">
        <ele>1135.2</ele>
        <time>2022-10-28T10:01:51Z</time>
      </trkpt>
      <trkpt lat="44.41744" lon="3.58502">
        <ele>1135.2</ele>
        <time>2022-10-28T10:01:52Z</time>
      </trkpt>
      <trkpt lat="44.41747" lon="3.58504">
        <ele>1135.4</ele>
        <time>2022-10-28T10:01:53Z</time>
      </trkpt>
      <trkpt lat="44.4175" lon="3.58506">
        <ele>1135.4</ele>
        <time>2022-10-28T10:01:54Z</time>
      </trkpt>
      <trkpt lat="44.41752" lon="3.58509">
        <ele>1135.6</ele>
        <time>2022-10-28T10:01:55Z</time>
      </trkpt>
      <trkpt lat="44.41755" lon="3.5851">
        <ele>1135.8</ele>
        <time>2022-10-28T10:01:56Z</time>
      </trkpt>
      <trkpt lat="44.41757" lon="3.58512">
        <ele>1136</ele>
        <time>2022-10-28T10:01:57Z</time>
      </trkpt>
      <trkpt lat="44.4176" lon="3.58515">
        <ele>1136.2</ele>
        <time>2022-10-28T10:01:58Z</time>
      </trkpt>
      <trkpt lat="44.41763" lon="3.58517">
        <ele>1136.2</ele>
        <time>2022-10-28T10:01:59Z</time>
      </trkpt>
      <trkpt lat="44.41765" lon="3.58518">
        <ele>1136.4</ele>
        <time>2022-10-28T10:02:00Z</time>
      </trkpt>
      <trkpt lat="44.41768" lon="3.5852">
        <ele>1136.4</ele>
        <time>2022-10-28T10:02:01Z</time>
      </trkpt>
      <trkpt lat="44.41771" lon="3.58521">
        <ele>1136.6</ele>
        <time>2022-10-28T10:02:02Z</time>
      </trkpt>
      <trkpt lat="44.41774" lon="3.58523">
        <ele>1136.8</ele>
        <time>2022-10-28T10:02:03Z</time>
      </trkpt>
      <trkpt lat="44.41777" lon="3.58524">
        <ele>1137</ele>
        <time>2022-10-28T10:02:04Z</time>
      </trkpt>
      <trkpt lat="44.4178" lon="3.58525">
        <ele>1137.2</ele>
        <time>2022-10-28T10:02:05Z</time>
      </trkpt>
      <trkpt lat="44.41782" lon="3.58527">
        <ele>1137.2</ele>
        <time>2022-10-28T10:02:06Z</time>
      </trkpt>
      <trkpt lat="44.41785" lon="3.58528">
        <ele>1137.4</ele>
        <time>2022-10-28T10:02:07Z</time>
      </trkpt>
      <trkpt lat="44.41788" lon="3.5853">
        <ele>1137.4</ele>
        <time>2022-10-28T10:02:08Z</time>
      </trkpt>
      <trkpt lat="44.4179" lon="3.58532">
        <ele>1137.6</ele>
        <time>2022-10-28T10:02:09Z</time>
      </trkpt>
      <trkpt lat="44.41793" lon="3.58534">
        <ele>1137.8</ele>
        <time>2022-10-28T10:02:10Z</time>
      </trkpt>
      <trkpt lat="44.41795" lon="3.58537">
        <ele>1137.8</ele>
        <time>2022-10-28T10:02:11Z</time>
      </trkpt>
      <trkpt lat="44.41797" lon="3.58539">
        <ele>1138.2</ele>
        <time>2022-10-28T10:02:12Z</time>
      </trkpt>
      <trkpt lat="44.418" lon="3.58541">
        <ele>1138.2</ele>
        <time>2022-10-28T10:02:13Z</time>
      </trkpt>
      <trkpt lat="44.41802" lon="3.58544">
        <ele>1138.4</ele>
        <time>2022-10-28T10:02:14Z</time>
      </trkpt>
      <trkpt lat="44.41803" lon="3.58546">
        <ele>1138.6</ele>
        <time>2022-10-28T10:02:15Z</time>
      </trkpt>
      <trkpt lat="44.41805" lon="3.58548">
        <ele>1138.6</ele>
        <time>2022-10-28T10:02:16Z</time>
      </trkpt>
      <trkpt lat="44.41806" lon="3.5855">
        <ele>1138.8</ele>
        <time>2022-10-28T10:02:17Z</time>
      </trkpt>
      <trkpt lat="44.41806" lon="3.58551">
        <ele>1139</ele>
        <time>2022-10-28T10:02:18Z</time>
      </trkpt>
      <trkpt lat="44.41807" lon="3.58552">
        <ele>1139</ele>
        <time>2022-10-28T10:02:36Z</time>
      </trkpt>
      <trkpt lat="44.41809" lon="3.58553">
        <ele>1139.2</ele>
        <time>2022-10-28T10:02:37Z</time>
      </trkpt>
      <trkpt lat="44.41812" lon="3.58554">
        <ele>1139.2</ele>
        <time>2022-10-28T10:02:38Z</time>
      </trkpt>
      <trkpt lat="44.41814" lon="3.58556">
        <ele>1139.2</ele>
        <time>2022-10-28T10:02:39Z</time>
      </trkpt>
      <trkpt lat="44.41817" lon="3.58558">
        <ele>1139.4</ele>
        <time>2022-10-28T10:02:40Z</time>
      </trkpt>
      <trkpt lat="44.4182" lon="3.58559">
        <ele>1139.4</ele>
        <time>2022-10-28T10:02:41Z</time>
      </trkpt>
      <trkpt lat="44.41823" lon="3.58559">
        <ele>1139.6</ele>
        <time>2022-10-28T10:02:42Z</time>
      </trkpt>
      <trkpt lat="44.41825" lon="3.5856">
        <ele>1139.6</ele>
        <time>2022-10-28T10:02:43Z</time>
      </trkpt>
      <trkpt lat="44.41828" lon="3.58561">
        <ele>1139.8</ele>
        <time>2022-10-28T10:02:44Z</time>
      </trkpt>
      <trkpt lat="44.41831" lon="3.58562">
        <ele>1139.8</ele>
        <time>2022-10-28T10:02:45Z</time>
      </trkpt>
      <trkpt lat="44.41834" lon="3.58563">
        <ele>1140</ele>
        <time>2022-10-28T10:02:46Z</time>
      </trkpt>
      <trkpt lat="44.41837" lon="3.58563">
        <ele>1140</ele>
        <time>2022-10-28T10:02:47Z</time>
      </trkpt>
      <trkpt lat="44.4184" lon="3.58564">
        <ele>1140.2</ele>
        <time>2022-10-28T10:02:48Z</time>
      </trkpt>
      <trkpt lat="44.41843" lon="3.58565">
        <ele>1140.4</ele>
        <time>2022-10-28T10:02:49Z</time>
      </trkpt>
      <trkpt lat="44.41845" lon="3.58566">
        <ele>1140.4</ele>
        <time>2022-10-28T10:02:50Z</time>
      </trkpt>
      <trkpt lat="44.41848" lon="3.58568">
        <ele>1140.6</ele>
        <time>2022-10-28T10:02:51Z</time>
      </trkpt>
      <trkpt lat="44.41851" lon="3.58569">
        <ele>1140.6</ele>
        <time>2022-10-28T10:02:52Z</time>
      </trkpt>
      <trkpt lat="44.41854" lon="3.5857">
        <ele>1140.8</ele>
        <time>2022-10-28T10:02:53Z</time>
      </trkpt>
      <trkpt lat="44.41857" lon="3.58572">
        <ele>1141</ele>
        <time>2022-10-28T10:02:54Z</time>
      </trkpt>
      <trkpt lat="44.4186" lon="3.58573">
        <ele>1141.2</ele>
        <time>2022-10-28T10:02:55Z</time>
      </trkpt>
      <trkpt lat="44.41862" lon="3.58575">
        <ele>1141.4</ele>
        <time>2022-10-28T10:02:56Z</time>
      </trkpt>
      <trkpt lat="44.41865" lon="3.58576">
        <ele>1141.6</ele>
        <time>2022-10-28T10:02:57Z</time>
      </trkpt>
      <trkpt lat="44.41868" lon="3.58578">
        <ele>1141.8</ele>
        <time>2022-10-28T10:02:58Z</time>
      </trkpt>
      <trkpt lat="44.4187" lon="3.5858">
        <ele>1141.8</ele>
        <time>2022-10-28T10:02:59Z</time>
      </trkpt>
      <trkpt lat="44.41873" lon="3.58581">
        <ele>1142</ele>
        <time>2022-10-28T10:03:00Z</time>
      </trkpt>
      <trkpt lat="44.41875" lon="3.58583">
        <ele>1142.2</ele>
        <time>2022-10-28T10:03:01Z</time>
      </trkpt>
      <trkpt lat="44.41877" lon="3.58584">
        <ele>1142.4</ele>
        <time>2022-10-28T10:03:02Z</time>
      </trkpt>
      <trkpt lat="44.41879" lon="3.58586">
        <ele>1142.6</ele>
        <time>2022-10-28T10:03:03Z</time>
      </trkpt>
      <trkpt lat="44.41882" lon="3.58587">
        <ele>1142.8</ele>
        <time>2022-10-28T10:03:04Z</time>
      </trkpt>
      <trkpt lat="44.41884" lon="3.58589">
        <ele>1142.8</ele>
        <time>2022-10-28T10:03:05Z</time>
      </trkpt>
      <trkpt lat="44.41886" lon="3.5859">
        <ele>1143</ele>
        <time>2022-10-28T10:03:06Z</time>
      </trkpt>
      <trkpt lat="44.41889" lon="3.58592">
        <ele>1143</ele>
        <time>2022-10-28T10:03:07Z</time>
      </trkpt>
      <trkpt lat="44.41892" lon="3.58594">
        <ele>1143.2</ele>
        <time>2022-10-28T10:03:08Z</time>
      </trkpt>
      <trkpt lat="44.41895" lon="3.58595">
        <ele>1143.2</ele>
        <time>2022-10-28T10:03:09Z</time>
      </trkpt>
      <trkpt lat="44.41897" lon="3.58597">
        <ele>1143.4</ele>
        <time>2022-10-28T10:03:10Z</time>
      </trkpt>
      <trkpt lat="44.419" lon="3.58598">
        <ele>1143.6</ele>
        <time>2022-10-28T10:03:11Z</time>
      </trkpt>
      <trkpt lat="44.41903" lon="3.58599">
        <ele>1143.6</ele>
        <time>2022-10-28T10:03:12Z</time>
      </trkpt>
      <trkpt lat="44.41906" lon="3.58601">
        <ele>1143.8</ele>
        <time>2022-10-28T10:03:13Z</time>
      </trkpt>
      <trkpt lat="44.41908" lon="3.58603">
        <ele>1143.8</ele>
        <time>2022-10-28T10:03:14Z</time>
      </trkpt>
      <trkpt lat="44.4191" lon="3.58605">
        <ele>1144</ele>
        <time>2022-10-28T10:03:15Z</time>
      </trkpt>
      <trkpt lat="44.41913" lon="3.58606">
        <ele>1144</ele>
        <time>2022-10-28T10:03:16Z</time>
      </trkpt>
      <trkpt lat="44.41915" lon="3.58607">
        <ele>1144.2</ele>
        <time>2022-10-28T10:03:17Z</time>
      </trkpt>
      <trkpt lat="44.41916" lon="3.58608">
        <ele>1144.2</ele>
        <time>2022-10-28T10:03:18Z</time>
      </trkpt>
      <trkpt lat="44.41917" lon="3.58608">
        <ele>1144.4</ele>
        <time>2022-10-28T10:03:19Z</time>
      </trkpt>
      <trkpt lat="44.41918" lon="3.58609">
        <ele>1144.4</ele>
        <time>2022-10-28T10:03:20Z</time>
      </trkpt>
      <trkpt lat="44.41919" lon="3.5861">
        <ele>1144.4</ele>
        <time>2022-10-28T10:03:21Z</time>
      </trkpt>
      <trkpt lat="44.41921" lon="3.5861">
        <ele>1144.4</ele>
        <time>2022-10-28T10:03:22Z</time>
      </trkpt>
      <trkpt lat="44.41922" lon="3.58611">
        <ele>1144.4</ele>
        <time>2022-10-28T10:03:23Z</time>
      </trkpt>
      <trkpt lat="44.41924" lon="3.58612">
        <ele>1144.4</ele>
        <time>2022-10-28T10:03:24Z</time>
      </trkpt>
      <trkpt lat="44.41926" lon="3.58613">
        <ele>1144.4</ele>
        <time>2022-10-28T10:03:25Z</time>
      </trkpt>
      <trkpt lat="44.41929" lon="3.58614">
        <ele>1144.6</ele>
        <time>2022-10-28T10:03:26Z</time>
      </trkpt>
      <trkpt lat="44.41931" lon="3.58614">
        <ele>1144.6</ele>
        <time>2022-10-28T10:03:27Z</time>
      </trkpt>
      <trkpt lat="44.41934" lon="3.58615">
        <ele>1144.6</ele>
        <time>2022-10-28T10:03:28Z</time>
      </trkpt>
      <trkpt lat="44.41936" lon="3.58616">
        <ele>1144.8</ele>
        <time>2022-10-28T10:03:29Z</time>
      </trkpt>
      <trkpt lat="44.41939" lon="3.58617">
        <ele>1144.8</ele>
        <time>2022-10-28T10:03:30Z</time>
      </trkpt>
      <trkpt lat="44.41941" lon="3.58618">
        <ele>1144.8</ele>
        <time>2022-10-28T10:03:31Z</time>
      </trkpt>
      <trkpt lat="44.41944" lon="3.58619">
        <ele>1145</ele>
        <time>2022-10-28T10:03:32Z</time>
      </trkpt>
      <trkpt lat="44.41947" lon="3.5862">
        <ele>1145</ele>
        <time>2022-10-28T10:03:33Z</time>
      </trkpt>
      <trkpt lat="44.41951" lon="3.58621">
        <ele>1145</ele>
        <time>2022-10-28T10:03:34Z</time>
      </trkpt>
      <trkpt lat="44.41953" lon="3.58623">
        <ele>1145</ele>
        <time>2022-10-28T10:03:35Z</time>
      </trkpt>
      <trkpt lat="44.41956" lon="3.58624">
        <ele>1145</ele>
        <time>2022-10-28T10:03:36Z</time>
      </trkpt>
      <trkpt lat="44.41959" lon="3.58624">
        <ele>1145</ele>
        <time>2022-10-28T10:03:37Z</time>
      </trkpt>
      <trkpt lat="44.41962" lon="3.58625">
        <ele>1145.2</ele>
        <time>2022-10-28T10:03:38Z</time>
      </trkpt>
      <trkpt lat="44.41965" lon="3.58625">
        <ele>1145.2</ele>
        <time>2022-10-28T10:03:39Z</time>
      </trkpt>
      <trkpt lat="44.41967" lon="3.58626">
        <ele>1145.2</ele>
        <time>2022-10-28T10:03:40Z</time>
      </trkpt>
      <trkpt lat="44.41969" lon="3.58627">
        <ele>1145.4</ele>
        <time>2022-10-28T10:03:41Z</time>
      </trkpt>
      <trkpt lat="44.41971" lon="3.58629">
        <ele>1145.6</ele>
        <time>2022-10-28T10:03:42Z</time>
      </trkpt>
      <trkpt lat="44.41971" lon="3.58632">
        <ele>1145.8</ele>
        <time>2022-10-28T10:03:43Z</time>
      </trkpt>
      <trkpt lat="44.4197" lon="3.58635">
        <ele>1146</ele>
        <time>2022-10-28T10:03:44Z</time>
      </trkpt>
      <trkpt lat="44.4197" lon="3.58639">
        <ele>1146.2</ele>
        <time>2022-10-28T10:03:45Z</time>
      </trkpt>
      <trkpt lat="44.41969" lon="3.58643">
        <ele>1146.4</ele>
        <time>2022-10-28T10:03:46Z</time>
      </trkpt>
      <trkpt lat="44.41969" lon="3.58647">
        <ele>1146.6</ele>
        <time>2022-10-28T10:03:47Z</time>
      </trkpt>
      <trkpt lat="44.41968" lon="3.58651">
        <ele>1146.8</ele>
        <time>2022-10-28T10:03:48Z</time>
      </trkpt>
      <trkpt lat="44.41968" lon="3.58655">
        <ele>1147.2</ele>
        <time>2022-10-28T10:03:49Z</time>
      </trkpt>
      <trkpt lat="44.41968" lon="3.58659">
        <ele>1147.4</ele>
        <time>2022-10-28T10:03:50Z</time>
      </trkpt>
      <trkpt lat="44.41967" lon="3.58663">
        <ele>1147.4</ele>
        <time>2022-10-28T10:03:51Z</time>
      </trkpt>
      <trkpt lat="44.41967" lon="3.58667">
        <ele>1147.6</ele>
        <time>2022-10-28T10:03:52Z</time>
      </trkpt>
      <trkpt lat="44.41967" lon="3.58671">
        <ele>1147.8</ele>
        <time>2022-10-28T10:03:53Z</time>
      </trkpt>
      <trkpt lat="44.41966" lon="3.58675">
        <ele>1148</ele>
        <time>2022-10-28T10:03:54Z</time>
      </trkpt>
      <trkpt lat="44.41966" lon="3.58678">
        <ele>1148.2</ele>
        <time>2022-10-28T10:03:55Z</time>
      </trkpt>
      <trkpt lat="44.41965" lon="3.58682">
        <ele>1148.2</ele>
        <time>2022-10-28T10:03:56Z</time>
      </trkpt>
      <trkpt lat="44.41965" lon="3.58686">
        <ele>1148.4</ele>
        <time>2022-10-28T10:03:57Z</time>
      </trkpt>
      <trkpt lat="44.41965" lon="3.58691">
        <ele>1148.6</ele>
        <time>2022-10-28T10:03:58Z</time>
      </trkpt>
      <trkpt lat="44.41965" lon="3.58695">
        <ele>1148.6</ele>
        <time>2022-10-28T10:03:59Z</time>
      </trkpt>
      <trkpt lat="44.41965" lon="3.58699">
        <ele>1148.8</ele>
        <time>2022-10-28T10:04:00Z</time>
      </trkpt>
      <trkpt lat="44.41964" lon="3.58703">
        <ele>1149</ele>
        <time>2022-10-28T10:04:01Z</time>
      </trkpt>
      <trkpt lat="44.41964" lon="3.58707">
        <ele>1149.2</ele>
        <time>2022-10-28T10:04:02Z</time>
      </trkpt>
      <trkpt lat="44.41964" lon="3.58711">
        <ele>1149.4</ele>
        <time>2022-10-28T10:04:03Z</time>
      </trkpt>
      <trkpt lat="44.41963" lon="3.58715">
        <ele>1149.6</ele>
        <time>2022-10-28T10:04:04Z</time>
      </trkpt>
      <trkpt lat="44.41963" lon="3.58719">
        <ele>1149.8</ele>
        <time>2022-10-28T10:04:05Z</time>
      </trkpt>
      <trkpt lat="44.41963" lon="3.58722">
        <ele>1150</ele>
        <time>2022-10-28T10:04:06Z</time>
      </trkpt>
      <trkpt lat="44.41962" lon="3.58727">
        <ele>1150.2</ele>
        <time>2022-10-28T10:04:07Z</time>
      </trkpt>
      <trkpt lat="44.41962" lon="3.5873">
        <ele>1150.4</ele>
        <time>2022-10-28T10:04:08Z</time>
      </trkpt>
      <trkpt lat="44.41962" lon="3.58734">
        <ele>1150.6</ele>
        <time>2022-10-28T10:04:09Z</time>
      </trkpt>
      <trkpt lat="44.41961" lon="3.58738">
        <ele>1150.8</ele>
        <time>2022-10-28T10:04:10Z</time>
      </trkpt>
      <trkpt lat="44.41961" lon="3.58742">
        <ele>1151</ele>
        <time>2022-10-28T10:04:11Z</time>
      </trkpt>
      <trkpt lat="44.4196" lon="3.58746">
        <ele>1151.2</ele>
        <time>2022-10-28T10:04:12Z</time>
      </trkpt>
      <trkpt lat="44.4196" lon="3.5875">
        <ele>1151.4</ele>
        <time>2022-10-28T10:04:13Z</time>
      </trkpt>
      <trkpt lat="44.4196" lon="3.58754">
        <ele>1151.4</ele>
        <time>2022-10-28T10:04:14Z</time>
      </trkpt>
      <trkpt lat="44.4196" lon="3.58758">
        <ele>1151.6</ele>
        <time>2022-10-28T10:04:15Z</time>
      </trkpt>
      <trkpt lat="44.4196" lon="3.58762">
        <ele>1151.8</ele>
        <time>2022-10-28T10:04:16Z</time>
      </trkpt>
      <trkpt lat="44.41959" lon="3.58766">
        <ele>1152</ele>
        <time>2022-10-28T10:04:17Z</time>
      </trkpt>
      <trkpt lat="44.41959" lon="3.5877">
        <ele>1152.4</ele>
        <time>2022-10-28T10:04:18Z</time>
      </trkpt>
      <trkpt lat="44.41959" lon="3.58774">
        <ele>1152.6</ele>
        <time>2022-10-28T10:04:19Z</time>
      </trkpt>
      <trkpt lat="44.41958" lon="3.58777">
        <ele>1152.8</ele>
        <time>2022-10-28T10:04:20Z</time>
      </trkpt>
      <trkpt lat="44.41958" lon="3.58781">
        <ele>1153</ele>
        <time>2022-10-28T10:04:21Z</time>
      </trkpt>
      <trkpt lat="44.41957" lon="3.58785">
        <ele>1153.2</ele>
        <time>2022-10-28T10:04:22Z</time>
      </trkpt>
      <trkpt lat="44.41957" lon="3.58789">
        <ele>1153.4</ele>
        <time>2022-10-28T10:04:23Z</time>
      </trkpt>
      <trkpt lat="44.41956" lon="3.58792">
        <ele>1153.6</ele>
        <time>2022-10-28T10:04:24Z</time>
      </trkpt>
      <trkpt lat="44.41956" lon="3.58795">
        <ele>1153.8</ele>
        <time>2022-10-28T10:04:25Z</time>
      </trkpt>
      <trkpt lat="44.41956" lon="3.58799">
        <ele>1154</ele>
        <time>2022-10-28T10:04:26Z</time>
      </trkpt>
      <trkpt lat="44.41955" lon="3.58802">
        <ele>1154.2</ele>
        <time>2022-10-28T10:04:27Z</time>
      </trkpt>
      <trkpt lat="44.41955" lon="3.58805">
        <ele>1154.4</ele>
        <time>2022-10-28T10:04:28Z</time>
      </trkpt>
      <trkpt lat="44.41955" lon="3.58809">
        <ele>1154.6</ele>
        <time>2022-10-28T10:04:29Z</time>
      </trkpt>
      <trkpt lat="44.41955" lon="3.58812">
        <ele>1154.8</ele>
        <time>2022-10-28T10:04:30Z</time>
      </trkpt>
      <trkpt lat="44.41954" lon="3.58816">
        <ele>1155</ele>
        <time>2022-10-28T10:04:31Z</time>
      </trkpt>
      <trkpt lat="44.41954" lon="3.58819">
        <ele>1155.2</ele>
        <time>2022-10-28T10:04:32Z</time>
      </trkpt>
      <trkpt lat="44.41954" lon="3.58822">
        <ele>1155.4</ele>
        <time>2022-10-28T10:04:33Z</time>
      </trkpt>
      <trkpt lat="44.41953" lon="3.58826">
        <ele>1155.6</ele>
        <time>2022-10-28T10:04:34Z</time>
      </trkpt>
      <trkpt lat="44.41953" lon="3.58829">
        <ele>1155.8</ele>
        <time>2022-10-28T10:04:35Z</time>
      </trkpt>
      <trkpt lat="44.41953" lon="3.58833">
        <ele>1156</ele>
        <time>2022-10-28T10:04:36Z</time>
      </trkpt>
      <trkpt lat="44.41953" lon="3.58837">
        <ele>1156.2</ele>
        <time>2022-10-28T10:04:37Z</time>
      </trkpt>
      <trkpt lat="44.41953" lon="3.5884">
        <ele>1156.4</ele>
        <time>2022-10-28T10:04:38Z</time>
      </trkpt>
      <trkpt lat="44.41952" lon="3.58843">
        <ele>1156.6</ele>
        <time>2022-10-28T10:04:39Z</time>
      </trkpt>
      <trkpt lat="44.41952" lon="3.58847">
        <ele>1156.8</ele>
        <time>2022-10-28T10:04:40Z</time>
      </trkpt>
      <trkpt lat="44.41952" lon="3.5885">
        <ele>1157</ele>
        <time>2022-10-28T10:04:41Z</time>
      </trkpt>
      <trkpt lat="44.41951" lon="3.58854">
        <ele>1157.4</ele>
        <time>2022-10-28T10:04:42Z</time>
      </trkpt>
      <trkpt lat="44.41951" lon="3.58857">
        <ele>1157.6</ele>
        <time>2022-10-28T10:04:43Z</time>
      </trkpt>
      <trkpt lat="44.41951" lon="3.58861">
        <ele>1157.8</ele>
        <time>2022-10-28T10:04:44Z</time>
      </trkpt>
      <trkpt lat="44.4195" lon="3.58864">
        <ele>1158.2</ele>
        <time>2022-10-28T10:04:45Z</time>
      </trkpt>
      <trkpt lat="44.4195" lon="3.58867">
        <ele>1158.4</ele>
        <time>2022-10-28T10:04:46Z</time>
      </trkpt>
      <trkpt lat="44.4195" lon="3.58871">
        <ele>1158.6</ele>
        <time>2022-10-28T10:04:47Z</time>
      </trkpt>
      <trkpt lat="44.41949" lon="3.58874">
        <ele>1158.8</ele>
        <time>2022-10-28T10:04:48Z</time>
      </trkpt>
      <trkpt lat="44.41949" lon="3.58877">
        <ele>1159</ele>
        <time>2022-10-28T10:04:49Z</time>
      </trkpt>
      <trkpt lat="44.41949" lon="3.58881">
        <ele>1159.2</ele>
        <time>2022-10-28T10:04:50Z</time>
      </trkpt>
      <trkpt lat="44.41948" lon="3.58884">
        <ele>1159.6</ele>
        <time>2022-10-28T10:04:51Z</time>
      </trkpt>
      <trkpt lat="44.41948" lon="3.58888">
        <ele>1159.8</ele>
        <time>2022-10-28T10:04:52Z</time>
      </trkpt>
      <trkpt lat="44.41948" lon="3.58891">
        <ele>1160</ele>
        <time>2022-10-28T10:04:53Z</time>
      </trkpt>
      <trkpt lat="44.41947" lon="3.58894">
        <ele>1160.2</ele>
        <time>2022-10-28T10:04:54Z</time>
      </trkpt>
      <trkpt lat="44.41947" lon="3.58898">
        <ele>1160.4</ele>
        <time>2022-10-28T10:04:55Z</time>
      </trkpt>
      <trkpt lat="44.41947" lon="3.58901">
        <ele>1160.8</ele>
        <time>2022-10-28T10:04:56Z</time>
      </trkpt>
      <trkpt lat="44.41946" lon="3.58904">
        <ele>1161</ele>
        <time>2022-10-28T10:04:57Z</time>
      </trkpt>
      <trkpt lat="44.41946" lon="3.58908">
        <ele>1161.2</ele>
        <time>2022-10-28T10:04:58Z</time>
      </trkpt>
      <trkpt lat="44.41946" lon="3.58911">
        <ele>1161.4</ele>
        <time>2022-10-28T10:04:59Z</time>
      </trkpt>
      <trkpt lat="44.41945" lon="3.58915">
        <ele>1161.8</ele>
        <time>2022-10-28T10:05:00Z</time>
      </trkpt>
      <trkpt lat="44.41945" lon="3.58918">
        <ele>1162</ele>
        <time>2022-10-28T10:05:01Z</time>
      </trkpt>
      <trkpt lat="44.41945" lon="3.58921">
        <ele>1162.2</ele>
        <time>2022-10-28T10:05:02Z</time>
      </trkpt>
      <trkpt lat="44.41945" lon="3.58925">
        <ele>1162.4</ele>
        <time>2022-10-28T10:05:03Z</time>
      </trkpt>
      <trkpt lat="44.41944" lon="3.58928">
        <ele>1162.8</ele>
        <time>2022-10-28T10:05:04Z</time>
      </trkpt>
      <trkpt lat="44.41944" lon="3.58932">
        <ele>1163</ele>
        <time>2022-10-28T10:05:05Z</time>
      </trkpt>
      <trkpt lat="44.41944" lon="3.58935">
        <ele>1163.2</ele>
        <time>2022-10-28T10:05:06Z</time>
      </trkpt>
      <trkpt lat="44.41943" lon="3.58938">
        <ele>1163.4</ele>
        <time>2022-10-28T10:05:07Z</time>
      </trkpt>
      <trkpt lat="44.41943" lon="3.58942">
        <ele>1163.6</ele>
        <time>2022-10-28T10:05:08Z</time>
      </trkpt>
      <trkpt lat="44.41943" lon="3.58945">
        <ele>1163.8</ele>
        <time>2022-10-28T10:05:09Z</time>
      </trkpt>
      <trkpt lat="44.41942" lon="3.58949">
        <ele>1164</ele>
        <time>2022-10-28T10:05:10Z</time>
      </trkpt>
      <trkpt lat="44.41942" lon="3.58952">
        <ele>1164.2</ele>
        <time>2022-10-28T10:05:11Z</time>
      </trkpt>
      <trkpt lat="44.41942" lon="3.58955">
        <ele>1164.4</ele>
        <time>2022-10-28T10:05:12Z</time>
      </trkpt>
      <trkpt lat="44.41941" lon="3.58959">
        <ele>1164.6</ele>
        <time>2022-10-28T10:05:13Z</time>
      </trkpt>
      <trkpt lat="44.41941" lon="3.58962">
        <ele>1164.8</ele>
        <time>2022-10-28T10:05:14Z</time>
      </trkpt>
      <trkpt lat="44.41941" lon="3.58965">
        <ele>1165.2</ele>
        <time>2022-10-28T10:05:15Z</time>
      </trkpt>
      <trkpt lat="44.41941" lon="3.58969">
        <ele>1165.4</ele>
        <time>2022-10-28T10:05:16Z</time>
      </trkpt>
      <trkpt lat="44.41941" lon="3.58972">
        <ele>1165.6</ele>
        <time>2022-10-28T10:05:17Z</time>
      </trkpt>
      <trkpt lat="44.4194" lon="3.58975">
        <ele>1165.8</ele>
        <time>2022-10-28T10:05:18Z</time>
      </trkpt>
      <trkpt lat="44.4194" lon="3.58979">
        <ele>1166</ele>
        <time>2022-10-28T10:05:19Z</time>
      </trkpt>
      <trkpt lat="44.41939" lon="3.58982">
        <ele>1166.2</ele>
        <time>2022-10-28T10:05:20Z</time>
      </trkpt>
      <trkpt lat="44.41939" lon="3.58985">
        <ele>1166.4</ele>
        <time>2022-10-28T10:05:21Z</time>
      </trkpt>
      <trkpt lat="44.41939" lon="3.58989">
        <ele>1166.6</ele>
        <time>2022-10-28T10:05:22Z</time>
      </trkpt>
      <trkpt lat="44.41938" lon="3.58992">
        <ele>1166.8</ele>
        <time>2022-10-28T10:05:23Z</time>
      </trkpt>
      <trkpt lat="44.41938" lon="3.58996">
        <ele>1167</ele>
        <time>2022-10-28T10:05:24Z</time>
      </trkpt>
      <trkpt lat="44.41937" lon="3.58999">
        <ele>1167.2</ele>
        <time>2022-10-28T10:05:25Z</time>
      </trkpt>
      <trkpt lat="44.41937" lon="3.59003">
        <ele>1167.2</ele>
        <time>2022-10-28T10:05:26Z</time>
      </trkpt>
      <trkpt lat="44.41937" lon="3.59007">
        <ele>1167.4</ele>
        <time>2022-10-28T10:05:27Z</time>
      </trkpt>
      <trkpt lat="44.41936" lon="3.59011">
        <ele>1167.4</ele>
        <time>2022-10-28T10:05:28Z</time>
      </trkpt>
      <trkpt lat="44.41936" lon="3.59014">
        <ele>1167.6</ele>
        <time>2022-10-28T10:05:29Z</time>
      </trkpt>
      <trkpt lat="44.41935" lon="3.59018">
        <ele>1167.6</ele>
        <time>2022-10-28T10:05:30Z</time>
      </trkpt>
      <trkpt lat="44.41935" lon="3.59022">
        <ele>1167.8</ele>
        <time>2022-10-28T10:05:31Z</time>
      </trkpt>
      <trkpt lat="44.41935" lon="3.59026">
        <ele>1168</ele>
        <time>2022-10-28T10:05:32Z</time>
      </trkpt>
      <trkpt lat="44.41935" lon="3.5903">
        <ele>1168.2</ele>
        <time>2022-10-28T10:05:33Z</time>
      </trkpt>
      <trkpt lat="44.41934" lon="3.59034">
        <ele>1168.2</ele>
        <time>2022-10-28T10:05:34Z</time>
      </trkpt>
      <trkpt lat="44.41934" lon="3.59038">
        <ele>1168.2</ele>
        <time>2022-10-28T10:05:35Z</time>
      </trkpt>
      <trkpt lat="44.41933" lon="3.59042">
        <ele>1168.2</ele>
        <time>2022-10-28T10:05:36Z</time>
      </trkpt>
      <trkpt lat="44.41933" lon="3.59046">
        <ele>1168.4</ele>
        <time>2022-10-28T10:05:37Z</time>
      </trkpt>
      <trkpt lat="44.41933" lon="3.59051">
        <ele>1168.4</ele>
        <time>2022-10-28T10:05:38Z</time>
      </trkpt>
      <trkpt lat="44.41933" lon="3.59055">
        <ele>1168.6</ele>
        <time>2022-10-28T10:05:39Z</time>
      </trkpt>
      <trkpt lat="44.41932" lon="3.59059">
        <ele>1168.8</ele>
        <time>2022-10-28T10:05:40Z</time>
      </trkpt>
      <trkpt lat="44.41932" lon="3.59063">
        <ele>1168.8</ele>
        <time>2022-10-28T10:05:41Z</time>
      </trkpt>
      <trkpt lat="44.41931" lon="3.59067">
        <ele>1169</ele>
        <time>2022-10-28T10:05:42Z</time>
      </trkpt>
      <trkpt lat="44.41931" lon="3.59071">
        <ele>1169.2</ele>
        <time>2022-10-28T10:05:43Z</time>
      </trkpt>
      <trkpt lat="44.41931" lon="3.59075">
        <ele>1169.2</ele>
        <time>2022-10-28T10:05:44Z</time>
      </trkpt>
      <trkpt lat="44.41931" lon="3.59079">
        <ele>1169.6</ele>
        <time>2022-10-28T10:05:45Z</time>
      </trkpt>
      <trkpt lat="44.4193" lon="3.59083">
        <ele>1169.6</ele>
        <time>2022-10-28T10:05:46Z</time>
      </trkpt>
      <trkpt lat="44.4193" lon="3.59088">
        <ele>1169.8</ele>
        <time>2022-10-28T10:05:47Z</time>
      </trkpt>
      <trkpt lat="44.4193" lon="3.59092">
        <ele>1170</ele>
        <time>2022-10-28T10:05:48Z</time>
      </trkpt>
      <trkpt lat="44.41929" lon="3.59096">
        <ele>1170.2</ele>
        <time>2022-10-28T10:05:49Z</time>
      </trkpt>
      <trkpt lat="44.41929" lon="3.591">
        <ele>1170.4</ele>
        <time>2022-10-28T10:05:50Z</time>
      </trkpt>
      <trkpt lat="44.41929" lon="3.59104">
        <ele>1170.6</ele>
        <time>2022-10-28T10:05:51Z</time>
      </trkpt>
      <trkpt lat="44.41928" lon="3.59108">
        <ele>1170.4</ele>
        <time>2022-10-28T10:05:52Z</time>
      </trkpt>
      <trkpt lat="44.41928" lon="3.59112">
        <ele>1170.6</ele>
        <time>2022-10-28T10:05:53Z</time>
      </trkpt>
      <trkpt lat="44.41927" lon="3.59116">
        <ele>1170.8</ele>
        <time>2022-10-28T10:05:54Z</time>
      </trkpt>
      <trkpt lat="44.41927" lon="3.59121">
        <ele>1170.8</ele>
        <time>2022-10-28T10:05:55Z</time>
      </trkpt>
      <trkpt lat="44.41927" lon="3.59125">
        <ele>1171</ele>
        <time>2022-10-28T10:05:56Z</time>
      </trkpt>
      <trkpt lat="44.41927" lon="3.59129">
        <ele>1171</ele>
        <time>2022-10-28T10:05:57Z</time>
      </trkpt>
      <trkpt lat="44.41927" lon="3.59134">
        <ele>1171.4</ele>
        <time>2022-10-28T10:05:58Z</time>
      </trkpt>
      <trkpt lat="44.41926" lon="3.59138">
        <ele>1171.6</ele>
        <time>2022-10-28T10:05:59Z</time>
      </trkpt>
      <trkpt lat="44.41926" lon="3.59142">
        <ele>1171.6</ele>
        <time>2022-10-28T10:06:00Z</time>
      </trkpt>
      <trkpt lat="44.41926" lon="3.59146">
        <ele>1171.8</ele>
        <time>2022-10-28T10:06:01Z</time>
      </trkpt>
      <trkpt lat="44.41926" lon="3.5915">
        <ele>1171.8</ele>
        <time>2022-10-28T10:06:02Z</time>
      </trkpt>
      <trkpt lat="44.41925" lon="3.59155">
        <ele>1172</ele>
        <time>2022-10-28T10:06:03Z</time>
      </trkpt>
      <trkpt lat="44.41925" lon="3.59159">
        <ele>1172</ele>
        <time>2022-10-28T10:06:04Z</time>
      </trkpt>
      <trkpt lat="44.41925" lon="3.59164">
        <ele>1172</ele>
        <time>2022-10-28T10:06:05Z</time>
      </trkpt>
      <trkpt lat="44.41925" lon="3.59168">
        <ele>1172.4</ele>
        <time>2022-10-28T10:06:06Z</time>
      </trkpt>
      <trkpt lat="44.41924" lon="3.59172">
        <ele>1172.6</ele>
        <time>2022-10-28T10:06:07Z</time>
      </trkpt>
      <trkpt lat="44.41923" lon="3.59177">
        <ele>1172.6</ele>
        <time>2022-10-28T10:06:08Z</time>
      </trkpt>
      <trkpt lat="44.41923" lon="3.59181">
        <ele>1172.8</ele>
        <time>2022-10-28T10:06:09Z</time>
      </trkpt>
      <trkpt lat="44.41923" lon="3.59185">
        <ele>1172.8</ele>
        <time>2022-10-28T10:06:10Z</time>
      </trkpt>
      <trkpt lat="44.41922" lon="3.59189">
        <ele>1173</ele>
        <time>2022-10-28T10:06:11Z</time>
      </trkpt>
      <trkpt lat="44.41922" lon="3.59193">
        <ele>1173</ele>
        <time>2022-10-28T10:06:12Z</time>
      </trkpt>
      <trkpt lat="44.41921" lon="3.59198">
        <ele>1173.4</ele>
        <time>2022-10-28T10:06:13Z</time>
      </trkpt>
      <trkpt lat="44.41921" lon="3.59202">
        <ele>1173.6</ele>
        <time>2022-10-28T10:06:14Z</time>
      </trkpt>
      <trkpt lat="44.4192" lon="3.59206">
        <ele>1173.6</ele>
        <time>2022-10-28T10:06:15Z</time>
      </trkpt>
      <trkpt lat="44.4192" lon="3.5921">
        <ele>1173.6</ele>
        <time>2022-10-28T10:06:16Z</time>
      </trkpt>
      <trkpt lat="44.41919" lon="3.59215">
        <ele>1173.8</ele>
        <time>2022-10-28T10:06:17Z</time>
      </trkpt>
      <trkpt lat="44.41918" lon="3.59219">
        <ele>1173.8</ele>
        <time>2022-10-28T10:06:18Z</time>
      </trkpt>
      <trkpt lat="44.41918" lon="3.59223">
        <ele>1174</ele>
        <time>2022-10-28T10:06:19Z</time>
      </trkpt>
      <trkpt lat="44.41917" lon="3.59228">
        <ele>1174.2</ele>
        <time>2022-10-28T10:06:20Z</time>
      </trkpt>
      <trkpt lat="44.41916" lon="3.59232">
        <ele>1174.4</ele>
        <time>2022-10-28T10:06:21Z</time>
      </trkpt>
      <trkpt lat="44.41916" lon="3.59236">
        <ele>1174.4</ele>
        <time>2022-10-28T10:06:22Z</time>
      </trkpt>
      <trkpt lat="44.41915" lon="3.59241">
        <ele>1174.2</ele>
        <time>2022-10-28T10:06:23Z</time>
      </trkpt>
      <trkpt lat="44.41914" lon="3.59245">
        <ele>1174.4</ele>
        <time>2022-10-28T10:06:24Z</time>
      </trkpt>
      <trkpt lat="44.41913" lon="3.59249">
        <ele>1174.4</ele>
        <time>2022-10-28T10:06:25Z</time>
      </trkpt>
      <trkpt lat="44.41911" lon="3.59253">
        <ele>1174.4</ele>
        <time>2022-10-28T10:06:26Z</time>
      </trkpt>
      <trkpt lat="44.41909" lon="3.59256">
        <ele>1174.4</ele>
        <time>2022-10-28T10:06:27Z</time>
      </trkpt>
      <trkpt lat="44.41906" lon="3.5926">
        <ele>1174.2</ele>
        <time>2022-10-28T10:06:28Z</time>
      </trkpt>
      <trkpt lat="44.41903" lon="3.59262">
        <ele>1174.4</ele>
        <time>2022-10-28T10:06:29Z</time>
      </trkpt>
      <trkpt lat="44.41901" lon="3.59265">
        <ele>1174.4</ele>
        <time>2022-10-28T10:06:30Z</time>
      </trkpt>
      <trkpt lat="44.41897" lon="3.59267">
        <ele>1174.4</ele>
        <time>2022-10-28T10:06:31Z</time>
      </trkpt>
      <trkpt lat="44.41894" lon="3.59269">
        <ele>1174.6</ele>
        <time>2022-10-28T10:06:32Z</time>
      </trkpt>
      <trkpt lat="44.41892" lon="3.59272">
        <ele>1174.6</ele>
        <time>2022-10-28T10:06:33Z</time>
      </trkpt>
      <trkpt lat="44.41889" lon="3.59274">
        <ele>1174.8</ele>
        <time>2022-10-28T10:06:34Z</time>
      </trkpt>
      <trkpt lat="44.41886" lon="3.59276">
        <ele>1174.8</ele>
        <time>2022-10-28T10:06:35Z</time>
      </trkpt>
      <trkpt lat="44.41883" lon="3.59278">
        <ele>1174.6</ele>
        <time>2022-10-28T10:06:36Z</time>
      </trkpt>
      <trkpt lat="44.41881" lon="3.5928">
        <ele>1174.8</ele>
        <time>2022-10-28T10:06:37Z</time>
      </trkpt>
      <trkpt lat="44.41878" lon="3.59282">
        <ele>1174.8</ele>
        <time>2022-10-28T10:06:38Z</time>
      </trkpt>
      <trkpt lat="44.41876" lon="3.59283">
        <ele>1174.8</ele>
        <time>2022-10-28T10:06:39Z</time>
      </trkpt>
      <trkpt lat="44.41874" lon="3.59283">
        <ele>1174.8</ele>
        <time>2022-10-28T10:06:40Z</time>
      </trkpt>
      <trkpt lat="44.41873" lon="3.59284">
        <ele>1174.8</ele>
        <time>2022-10-28T10:06:41Z</time>
      </trkpt>
      <trkpt lat="44.41871" lon="3.59285">
        <ele>1174.8</ele>
        <time>2022-10-28T10:06:42Z</time>
      </trkpt>
      <trkpt lat="44.41871" lon="3.59286">
        <ele>1174.8</ele>
        <time>2022-10-28T10:06:43Z</time>
      </trkpt>
      <trkpt lat="44.41871" lon="3.59287">
        <ele>1174.8</ele>
        <time>2022-10-28T10:06:44Z</time>
      </trkpt>
      <trkpt lat="44.41871" lon="3.59288">
        <ele>1174.8</ele>
        <time>2022-10-28T10:06:45Z</time>
      </trkpt>
      <trkpt lat="44.41873" lon="3.59289">
        <ele>1174.6</ele>
        <time>2022-10-28T10:06:46Z</time>
      </trkpt>
      <trkpt lat="44.41875" lon="3.5929">
        <ele>1174.4</ele>
        <time>2022-10-28T10:06:47Z</time>
      </trkpt>
      <trkpt lat="44.41877" lon="3.5929">
        <ele>1174.4</ele>
        <time>2022-10-28T10:06:48Z</time>
      </trkpt>
      <trkpt lat="44.41879" lon="3.5929">
        <ele>1174.4</ele>
        <time>2022-10-28T10:06:49Z</time>
      </trkpt>
      <trkpt lat="44.4188" lon="3.5929">
        <ele>1174.2</ele>
        <time>2022-10-28T10:06:50Z</time>
      </trkpt>
      <trkpt lat="44.41882" lon="3.5929">
        <ele>1174.2</ele>
        <time>2022-10-28T10:06:51Z</time>
      </trkpt>
      <trkpt lat="44.41884" lon="3.5929">
        <ele>1174.2</ele>
        <time>2022-10-28T10:06:52Z</time>
      </trkpt>
      <trkpt lat="44.41885" lon="3.5929">
        <ele>1174.2</ele>
        <time>2022-10-28T10:06:53Z</time>
      </trkpt>
      <trkpt lat="44.41887" lon="3.5929">
        <ele>1174.2</ele>
        <time>2022-10-28T10:06:54Z</time>
      </trkpt>
      <trkpt lat="44.41888" lon="3.59289">
        <ele>1174.2</ele>
        <time>2022-10-28T10:06:55Z</time>
      </trkpt>
      <trkpt lat="44.4189" lon="3.59287">
        <ele>1174.2</ele>
        <time>2022-10-28T10:06:56Z</time>
      </trkpt>
      <trkpt lat="44.41891" lon="3.59285">
        <ele>1174</ele>
        <time>2022-10-28T10:06:57Z</time>
      </trkpt>
      <trkpt lat="44.41893" lon="3.59282">
        <ele>1174</ele>
        <time>2022-10-28T10:06:58Z</time>
      </trkpt>
      <trkpt lat="44.41895" lon="3.59279">
        <ele>1174</ele>
        <time>2022-10-28T10:06:59Z</time>
      </trkpt>
      <trkpt lat="44.41897" lon="3.59277">
        <ele>1174</ele>
        <time>2022-10-28T10:07:00Z</time>
      </trkpt>
      <trkpt lat="44.41899" lon="3.59275">
        <ele>1173.8</ele>
        <time>2022-10-28T10:07:01Z</time>
      </trkpt>
      <trkpt lat="44.41901" lon="3.59273">
        <ele>1173.8</ele>
        <time>2022-10-28T10:07:02Z</time>
      </trkpt>
      <trkpt lat="44.41903" lon="3.59273">
        <ele>1173.8</ele>
        <time>2022-10-28T10:07:03Z</time>
      </trkpt>
      <trkpt lat="44.41905" lon="3.59273">
        <ele>1173.8</ele>
        <time>2022-10-28T10:07:04Z</time>
      </trkpt>
      <trkpt lat="44.41907" lon="3.59275">
        <ele>1173.8</ele>
        <time>2022-10-28T10:07:05Z</time>
      </trkpt>
      <trkpt lat="44.41907" lon="3.59277">
        <ele>1174</ele>
        <time>2022-10-28T10:07:06Z</time>
      </trkpt>
      <trkpt lat="44.41907" lon="3.59281">
        <ele>1174</ele>
        <time>2022-10-28T10:07:07Z</time>
      </trkpt>
      <trkpt lat="44.41905" lon="3.59284">
        <ele>1174.2</ele>
        <time>2022-10-28T10:07:08Z</time>
      </trkpt>
      <trkpt lat="44.41904" lon="3.59288">
        <ele>1174.2</ele>
        <time>2022-10-28T10:07:09Z</time>
      </trkpt>
      <trkpt lat="44.41903" lon="3.59292">
        <ele>1174.4</ele>
        <time>2022-10-28T10:07:10Z</time>
      </trkpt>
      <trkpt lat="44.41901" lon="3.59296">
        <ele>1174.6</ele>
        <time>2022-10-28T10:07:11Z</time>
      </trkpt>
      <trkpt lat="44.41899" lon="3.59301">
        <ele>1174.8</ele>
        <time>2022-10-28T10:07:12Z</time>
      </trkpt>
      <trkpt lat="44.41898" lon="3.59305">
        <ele>1174.8</ele>
        <time>2022-10-28T10:07:13Z</time>
      </trkpt>
      <trkpt lat="44.41896" lon="3.59309">
        <ele>1174.8</ele>
        <time>2022-10-28T10:07:14Z</time>
      </trkpt>
      <trkpt lat="44.41894" lon="3.59313">
        <ele>1174.8</ele>
        <time>2022-10-28T10:07:15Z</time>
      </trkpt>
      <trkpt lat="44.41892" lon="3.59317">
        <ele>1174.8</ele>
        <time>2022-10-28T10:07:16Z</time>
      </trkpt>
      <trkpt lat="44.4189" lon="3.59321">
        <ele>1175</ele>
        <time>2022-10-28T10:07:17Z</time>
      </trkpt>
      <trkpt lat="44.41888" lon="3.59324">
        <ele>1175</ele>
        <time>2022-10-28T10:07:18Z</time>
      </trkpt>
      <trkpt lat="44.41886" lon="3.59329">
        <ele>1174.8</ele>
        <time>2022-10-28T10:07:19Z</time>
      </trkpt>
      <trkpt lat="44.41883" lon="3.59333">
        <ele>1175</ele>
        <time>2022-10-28T10:07:20Z</time>
      </trkpt>
      <trkpt lat="44.41881" lon="3.59337">
        <ele>1175</ele>
        <time>2022-10-28T10:07:21Z</time>
      </trkpt>
      <trkpt lat="44.41879" lon="3.59341">
        <ele>1175</ele>
        <time>2022-10-28T10:07:22Z</time>
      </trkpt>
      <trkpt lat="44.41876" lon="3.59345">
        <ele>1175</ele>
        <time>2022-10-28T10:07:23Z</time>
      </trkpt>
      <trkpt lat="44.41874" lon="3.59349">
        <ele>1175</ele>
        <time>2022-10-28T10:07:24Z</time>
      </trkpt>
      <trkpt lat="44.4187" lon="3.59353">
        <ele>1175</ele>
        <time>2022-10-28T10:07:25Z</time>
      </trkpt>
      <trkpt lat="44.41867" lon="3.59357">
        <ele>1175.2</ele>
        <time>2022-10-28T10:07:26Z</time>
      </trkpt>
      <trkpt lat="44.41864" lon="3.59361">
        <ele>1175.4</ele>
        <time>2022-10-28T10:07:27Z</time>
      </trkpt>
      <trkpt lat="44.41861" lon="3.59365">
        <ele>1175.4</ele>
        <time>2022-10-28T10:07:28Z</time>
      </trkpt>
      <trkpt lat="44.41858" lon="3.59369">
        <ele>1175.4</ele>
        <time>2022-10-28T10:07:29Z</time>
      </trkpt>
      <trkpt lat="44.41855" lon="3.59373">
        <ele>1175.4</ele>
        <time>2022-10-28T10:07:30Z</time>
      </trkpt>
      <trkpt lat="44.41851" lon="3.59377">
        <ele>1175.2</ele>
        <time>2022-10-28T10:07:31Z</time>
      </trkpt>
      <trkpt lat="44.41848" lon="3.59381">
        <ele>1175.2</ele>
        <time>2022-10-28T10:07:32Z</time>
      </trkpt>
      <trkpt lat="44.41844" lon="3.59386">
        <ele>1175.2</ele>
        <time>2022-10-28T10:07:33Z</time>
      </trkpt>
      <trkpt lat="44.4184" lon="3.5939">
        <ele>1175</ele>
        <time>2022-10-28T10:07:34Z</time>
      </trkpt>
      <trkpt lat="44.41836" lon="3.59395">
        <ele>1174.8</ele>
        <time>2022-10-28T10:07:35Z</time>
      </trkpt>
      <trkpt lat="44.41833" lon="3.59399">
        <ele>1174.6</ele>
        <time>2022-10-28T10:07:36Z</time>
      </trkpt>
      <trkpt lat="44.41829" lon="3.59404">
        <ele>1174.4</ele>
        <time>2022-10-28T10:07:37Z</time>
      </trkpt>
      <trkpt lat="44.41825" lon="3.59409">
        <ele>1174</ele>
        <time>2022-10-28T10:07:38Z</time>
      </trkpt>
      <trkpt lat="44.41821" lon="3.59413">
        <ele>1173.8</ele>
        <time>2022-10-28T10:07:39Z</time>
      </trkpt>
      <trkpt lat="44.41817" lon="3.59418">
        <ele>1173.8</ele>
        <time>2022-10-28T10:07:40Z</time>
      </trkpt>
      <trkpt lat="44.41813" lon="3.59422">
        <ele>1173.8</ele>
        <time>2022-10-28T10:07:41Z</time>
      </trkpt>
      <trkpt lat="44.4181" lon="3.59427">
        <ele>1173.6</ele>
        <time>2022-10-28T10:07:42Z</time>
      </trkpt>
      <trkpt lat="44.41806" lon="3.59431">
        <ele>1173.6</ele>
        <time>2022-10-28T10:07:43Z</time>
      </trkpt>
      <trkpt lat="44.41802" lon="3.59436">
        <ele>1173.6</ele>
        <time>2022-10-28T10:07:44Z</time>
      </trkpt>
      <trkpt lat="44.41798" lon="3.5944">
        <ele>1173.4</ele>
        <time>2022-10-28T10:07:45Z</time>
      </trkpt>
      <trkpt lat="44.41795" lon="3.59445">
        <ele>1173.4</ele>
        <time>2022-10-28T10:07:46Z</time>
      </trkpt>
      <trkpt lat="44.41791" lon="3.59449">
        <ele>1173.4</ele>
        <time>2022-10-28T10:07:47Z</time>
      </trkpt>
      <trkpt lat="44.41787" lon="3.59453">
        <ele>1173.2</ele>
        <time>2022-10-28T10:07:48Z</time>
      </trkpt>
      <trkpt lat="44.41784" lon="3.59458">
        <ele>1173.2</ele>
        <time>2022-10-28T10:07:49Z</time>
      </trkpt>
      <trkpt lat="44.41781" lon="3.59462">
        <ele>1173.2</ele>
        <time>2022-10-28T10:07:50Z</time>
      </trkpt>
      <trkpt lat="44.41777" lon="3.59467">
        <ele>1173.2</ele>
        <time>2022-10-28T10:07:51Z</time>
      </trkpt>
      <trkpt lat="44.41773" lon="3.59471">
        <ele>1172.8</ele>
        <time>2022-10-28T10:07:52Z</time>
      </trkpt>
      <trkpt lat="44.4177" lon="3.59475">
        <ele>1172.6</ele>
        <time>2022-10-28T10:07:53Z</time>
      </trkpt>
      <trkpt lat="44.41766" lon="3.5948">
        <ele>1172.4</ele>
        <time>2022-10-28T10:07:54Z</time>
      </trkpt>
      <trkpt lat="44.41762" lon="3.59485">
        <ele>1172.4</ele>
        <time>2022-10-28T10:07:55Z</time>
      </trkpt>
      <trkpt lat="44.41758" lon="3.59489">
        <ele>1172.2</ele>
        <time>2022-10-28T10:07:56Z</time>
      </trkpt>
      <trkpt lat="44.41754" lon="3.59494">
        <ele>1172.4</ele>
        <time>2022-10-28T10:07:57Z</time>
      </trkpt>
      <trkpt lat="44.41751" lon="3.59499">
        <ele>1172.2</ele>
        <time>2022-10-28T10:07:58Z</time>
      </trkpt>
      <trkpt lat="44.41747" lon="3.59503">
        <ele>1172.2</ele>
        <time>2022-10-28T10:07:59Z</time>
      </trkpt>
      <trkpt lat="44.41743" lon="3.59508">
        <ele>1172</ele>
        <time>2022-10-28T10:08:00Z</time>
      </trkpt>
      <trkpt lat="44.41739" lon="3.59513">
        <ele>1172</ele>
        <time>2022-10-28T10:08:01Z</time>
      </trkpt>
      <trkpt lat="44.41735" lon="3.59518">
        <ele>1172</ele>
        <time>2022-10-28T10:08:02Z</time>
      </trkpt>
      <trkpt lat="44.41731" lon="3.59523">
        <ele>1171.8</ele>
        <time>2022-10-28T10:08:03Z</time>
      </trkpt>
      <trkpt lat="44.41727" lon="3.59527">
        <ele>1171.6</ele>
        <time>2022-10-28T10:08:04Z</time>
      </trkpt>
      <trkpt lat="44.41723" lon="3.59532">
        <ele>1171.4</ele>
        <time>2022-10-28T10:08:05Z</time>
      </trkpt>
      <trkpt lat="44.41719" lon="3.59536">
        <ele>1171.2</ele>
        <time>2022-10-28T10:08:06Z</time>
      </trkpt>
      <trkpt lat="44.41716" lon="3.59541">
        <ele>1171</ele>
        <time>2022-10-28T10:08:07Z</time>
      </trkpt>
      <trkpt lat="44.41713" lon="3.59546">
        <ele>1170.8</ele>
        <time>2022-10-28T10:08:08Z</time>
      </trkpt>
      <trkpt lat="44.41709" lon="3.5955">
        <ele>1170.8</ele>
        <time>2022-10-28T10:08:09Z</time>
      </trkpt>
      <trkpt lat="44.41705" lon="3.59556">
        <ele>1170.8</ele>
        <time>2022-10-28T10:08:10Z</time>
      </trkpt>
      <trkpt lat="44.41702" lon="3.59561">
        <ele>1170.6</ele>
        <time>2022-10-28T10:08:11Z</time>
      </trkpt>
      <trkpt lat="44.41698" lon="3.59566">
        <ele>1170.6</ele>
        <time>2022-10-28T10:08:12Z</time>
      </trkpt>
      <trkpt lat="44.41695" lon="3.59571">
        <ele>1170.6</ele>
        <time>2022-10-28T10:08:13Z</time>
      </trkpt>
      <trkpt lat="44.41693" lon="3.59576">
        <ele>1170.4</ele>
        <time>2022-10-28T10:08:14Z</time>
      </trkpt>
      <trkpt lat="44.4169" lon="3.59581">
        <ele>1170.2</ele>
        <time>2022-10-28T10:08:15Z</time>
      </trkpt>
      <trkpt lat="44.41687" lon="3.59587">
        <ele>1170.2</ele>
        <time>2022-10-28T10:08:16Z</time>
      </trkpt>
      <trkpt lat="44.41685" lon="3.59593">
        <ele>1170</ele>
        <time>2022-10-28T10:08:17Z</time>
      </trkpt>
      <trkpt lat="44.41683" lon="3.59598">
        <ele>1170</ele>
        <time>2022-10-28T10:08:18Z</time>
      </trkpt>
      <trkpt lat="44.41681" lon="3.59604">
        <ele>1169.8</ele>
        <time>2022-10-28T10:08:19Z</time>
      </trkpt>
      <trkpt lat="44.41679" lon="3.5961">
        <ele>1170</ele>
        <time>2022-10-28T10:08:20Z</time>
      </trkpt>
      <trkpt lat="44.41677" lon="3.59615">
        <ele>1170</ele>
        <time>2022-10-28T10:08:21Z</time>
      </trkpt>
      <trkpt lat="44.41676" lon="3.5962">
        <ele>1170</ele>
        <time>2022-10-28T10:08:22Z</time>
      </trkpt>
      <trkpt lat="44.41677" lon="3.59625">
        <ele>1169.6</ele>
        <time>2022-10-28T10:08:23Z</time>
      </trkpt>
      <trkpt lat="44.41678" lon="3.59629">
        <ele>1169.2</ele>
        <time>2022-10-28T10:08:24Z</time>
      </trkpt>
      <trkpt lat="44.4168" lon="3.59632">
        <ele>1168.8</ele>
        <time>2022-10-28T10:08:25Z</time>
      </trkpt>
      <trkpt lat="44.41683" lon="3.59635">
        <ele>1168.6</ele>
        <time>2022-10-28T10:08:26Z</time>
      </trkpt>
      <trkpt lat="44.41686" lon="3.59637">
        <ele>1168.2</ele>
        <time>2022-10-28T10:08:27Z</time>
      </trkpt>
      <trkpt lat="44.4169" lon="3.59638">
        <ele>1167.8</ele>
        <time>2022-10-28T10:08:28Z</time>
      </trkpt>
      <trkpt lat="44.41695" lon="3.59639">
        <ele>1167.6</ele>
        <time>2022-10-28T10:08:29Z</time>
      </trkpt>
      <trkpt lat="44.417" lon="3.5964">
        <ele>1167.4</ele>
        <time>2022-10-28T10:08:30Z</time>
      </trkpt>
      <trkpt lat="44.41705" lon="3.5964">
        <ele>1167.2</ele>
        <time>2022-10-28T10:08:31Z</time>
      </trkpt>
      <trkpt lat="44.41709" lon="3.59641">
        <ele>1167</ele>
        <time>2022-10-28T10:08:32Z</time>
      </trkpt>
      <trkpt lat="44.41714" lon="3.59641">
        <ele>1166.8</ele>
        <time>2022-10-28T10:08:33Z</time>
      </trkpt>
      <trkpt lat="44.41718" lon="3.59641">
        <ele>1166.6</ele>
        <time>2022-10-28T10:08:34Z</time>
      </trkpt>
      <trkpt lat="44.41724" lon="3.59641">
        <ele>1166.6</ele>
        <time>2022-10-28T10:08:35Z</time>
      </trkpt>
      <trkpt lat="44.41728" lon="3.59641">
        <ele>1166.6</ele>
        <time>2022-10-28T10:08:36Z</time>
      </trkpt>
      <trkpt lat="44.41732" lon="3.59641">
        <ele>1166.4</ele>
        <time>2022-10-28T10:08:37Z</time>
      </trkpt>
      <trkpt lat="44.41736" lon="3.59641">
        <ele>1166.4</ele>
        <time>2022-10-28T10:08:38Z</time>
      </trkpt>
      <trkpt lat="44.4174" lon="3.59641">
        <ele>1166.4</ele>
        <time>2022-10-28T10:08:39Z</time>
      </trkpt>
      <trkpt lat="44.41743" lon="3.59641">
        <ele>1166.6</ele>
        <time>2022-10-28T10:08:40Z</time>
      </trkpt>
      <trkpt lat="44.41747" lon="3.59641">
        <ele>1166.6</ele>
        <time>2022-10-28T10:08:41Z</time>
      </trkpt>
      <trkpt lat="44.4175" lon="3.59641">
        <ele>1166.6</ele>
        <time>2022-10-28T10:08:42Z</time>
      </trkpt>
      <trkpt lat="44.41753" lon="3.5964">
        <ele>1166.6</ele>
        <time>2022-10-28T10:08:43Z</time>
      </trkpt>
      <trkpt lat="44.41757" lon="3.5964">
        <ele>1166.8</ele>
        <time>2022-10-28T10:08:44Z</time>
      </trkpt>
      <trkpt lat="44.4176" lon="3.5964">
        <ele>1166.8</ele>
        <time>2022-10-28T10:08:45Z</time>
      </trkpt>
      <trkpt lat="44.41764" lon="3.5964">
        <ele>1166.6</ele>
        <time>2022-10-28T10:08:46Z</time>
      </trkpt>
      <trkpt lat="44.41768" lon="3.5964">
        <ele>1166.6</ele>
        <time>2022-10-28T10:08:47Z</time>
      </trkpt>
      <trkpt lat="44.41771" lon="3.5964">
        <ele>1166.6</ele>
        <time>2022-10-28T10:08:48Z</time>
      </trkpt>
      <trkpt lat="44.41775" lon="3.59639">
        <ele>1166.6</ele>
        <time>2022-10-28T10:08:49Z</time>
      </trkpt>
      <trkpt lat="44.41778" lon="3.59638">
        <ele>1166.6</ele>
        <time>2022-10-28T10:08:50Z</time>
      </trkpt>
      <trkpt lat="44.41782" lon="3.59638">
        <ele>1166.6</ele>
        <time>2022-10-28T10:08:51Z</time>
      </trkpt>
      <trkpt lat="44.41786" lon="3.59637">
        <ele>1166.6</ele>
        <time>2022-10-28T10:08:52Z</time>
      </trkpt>
      <trkpt lat="44.4179" lon="3.59637">
        <ele>1166.4</ele>
        <time>2022-10-28T10:08:53Z</time>
      </trkpt>
      <trkpt lat="44.41794" lon="3.59637">
        <ele>1166.4</ele>
        <time>2022-10-28T10:08:54Z</time>
      </trkpt>
      <trkpt lat="44.41797" lon="3.59638">
        <ele>1166.2</ele>
        <time>2022-10-28T10:08:55Z</time>
      </trkpt>
      <trkpt lat="44.41801" lon="3.59638">
        <ele>1166.2</ele>
        <time>2022-10-28T10:08:56Z</time>
      </trkpt>
      <trkpt lat="44.41804" lon="3.59638">
        <ele>1166</ele>
        <time>2022-10-28T10:08:57Z</time>
      </trkpt>
      <trkpt lat="44.41808" lon="3.59638">
        <ele>1166</ele>
        <time>2022-10-28T10:08:58Z</time>
      </trkpt>
      <trkpt lat="44.41811" lon="3.59638">
        <ele>1165.8</ele>
        <time>2022-10-28T10:08:59Z</time>
      </trkpt>
      <trkpt lat="44.41814" lon="3.59639">
        <ele>1165.8</ele>
        <time>2022-10-28T10:09:00Z</time>
      </trkpt>
      <trkpt lat="44.41818" lon="3.59639">
        <ele>1165.6</ele>
        <time>2022-10-28T10:09:01Z</time>
      </trkpt>
      <trkpt lat="44.41821" lon="3.5964">
        <ele>1165.6</ele>
        <time>2022-10-28T10:09:02Z</time>
      </trkpt>
      <trkpt lat="44.41825" lon="3.59641">
        <ele>1165.6</ele>
        <time>2022-10-28T10:09:03Z</time>
      </trkpt>
      <trkpt lat="44.41828" lon="3.59641">
        <ele>1165.6</ele>
        <time>2022-10-28T10:09:04Z</time>
      </trkpt>
      <trkpt lat="44.41831" lon="3.59642">
        <ele>1165.4</ele>
        <time>2022-10-28T10:09:05Z</time>
      </trkpt>
      <trkpt lat="44.41833" lon="3.59643">
        <ele>1165.4</ele>
        <time>2022-10-28T10:09:06Z</time>
      </trkpt>
      <trkpt lat="44.41836" lon="3.59644">
        <ele>1165.4</ele>
        <time>2022-10-28T10:09:07Z</time>
      </trkpt>
      <trkpt lat="44.41839" lon="3.59646">
        <ele>1165.4</ele>
        <time>2022-10-28T10:09:08Z</time>
      </trkpt>
      <trkpt lat="44.41842" lon="3.59648">
        <ele>1165.4</ele>
        <time>2022-10-28T10:09:09Z</time>
      </trkpt>
      <trkpt lat="44.41846" lon="3.5965">
        <ele>1165.4</ele>
        <time>2022-10-28T10:09:10Z</time>
      </trkpt>
      <trkpt lat="44.41849" lon="3.59652">
        <ele>1165.4</ele>
        <time>2022-10-28T10:09:11Z</time>
      </trkpt>
      <trkpt lat="44.41851" lon="3.59655">
        <ele>1165.4</ele>
        <time>2022-10-28T10:09:12Z</time>
      </trkpt>
      <trkpt lat="44.41855" lon="3.59657">
        <ele>1165.2</ele>
        <time>2022-10-28T10:09:13Z</time>
      </trkpt>
      <trkpt lat="44.41857" lon="3.59659">
        <ele>1165.2</ele>
        <time>2022-10-28T10:09:14Z</time>
      </trkpt>
      <trkpt lat="44.4186" lon="3.59661">
        <ele>1165.2</ele>
        <time>2022-10-28T10:09:15Z</time>
      </trkpt>
      <trkpt lat="44.41863" lon="3.59662">
        <ele>1165</ele>
        <time>2022-10-28T10:09:16Z</time>
      </trkpt>
      <trkpt lat="44.41865" lon="3.59663">
        <ele>1165</ele>
        <time>2022-10-28T10:09:17Z</time>
      </trkpt>
      <trkpt lat="44.41867" lon="3.59664">
        <ele>1165</ele>
        <time>2022-10-28T10:09:18Z</time>
      </trkpt>
      <trkpt lat="44.41869" lon="3.59663">
        <ele>1164.8</ele>
        <time>2022-10-28T10:09:19Z</time>
      </trkpt>
      <trkpt lat="44.41871" lon="3.59663">
        <ele>1164.8</ele>
        <time>2022-10-28T10:09:20Z</time>
      </trkpt>
      <trkpt lat="44.41873" lon="3.59663">
        <ele>1164.6</ele>
        <time>2022-10-28T10:09:21Z</time>
      </trkpt>
      <trkpt lat="44.41875" lon="3.59662">
        <ele>1164.4</ele>
        <time>2022-10-28T10:09:22Z</time>
      </trkpt>
      <trkpt lat="44.41878" lon="3.59661">
        <ele>1164</ele>
        <time>2022-10-28T10:09:23Z</time>
      </trkpt>
      <trkpt lat="44.41881" lon="3.59661">
        <ele>1163.8</ele>
        <time>2022-10-28T10:09:24Z</time>
      </trkpt>
      <trkpt lat="44.41884" lon="3.59662">
        <ele>1163.4</ele>
        <time>2022-10-28T10:09:25Z</time>
      </trkpt>
      <trkpt lat="44.41888" lon="3.59663">
        <ele>1163.2</ele>
        <time>2022-10-28T10:09:26Z</time>
      </trkpt>
      <trkpt lat="44.41891" lon="3.59665">
        <ele>1163</ele>
        <time>2022-10-28T10:09:27Z</time>
      </trkpt>
      <trkpt lat="44.41892" lon="3.59666">
        <ele>1163</ele>
        <time>2022-10-28T10:09:28Z</time>
      </trkpt>
      <trkpt lat="44.41893" lon="3.59667">
        <ele>1162.8</ele>
        <time>2022-10-28T10:09:29Z</time>
      </trkpt>
      <trkpt lat="44.41894" lon="3.59669">
        <ele>1162.8</ele>
        <time>2022-10-28T10:09:30Z</time>
      </trkpt>
      <trkpt lat="44.41895" lon="3.5967">
        <ele>1162.6</ele>
        <time>2022-10-28T10:09:31Z</time>
      </trkpt>
      <trkpt lat="44.41896" lon="3.59671">
        <ele>1162.4</ele>
        <time>2022-10-28T10:09:32Z</time>
      </trkpt>
      <trkpt lat="44.41898" lon="3.59672">
        <ele>1162</ele>
        <time>2022-10-28T10:09:33Z</time>
      </trkpt>
      <trkpt lat="44.419" lon="3.59674">
        <ele>1161.6</ele>
        <time>2022-10-28T10:09:34Z</time>
      </trkpt>
      <trkpt lat="44.41902" lon="3.59675">
        <ele>1161.2</ele>
        <time>2022-10-28T10:09:35Z</time>
      </trkpt>
      <trkpt lat="44.41904" lon="3.59677">
        <ele>1160.8</ele>
        <time>2022-10-28T10:09:36Z</time>
      </trkpt>
      <trkpt lat="44.41905" lon="3.59679">
        <ele>1160.4</ele>
        <time>2022-10-28T10:09:37Z</time>
      </trkpt>
      <trkpt lat="44.41907" lon="3.59681">
        <ele>1159.8</ele>
        <time>2022-10-28T10:09:38Z</time>
      </trkpt>
      <trkpt lat="44.41908" lon="3.59683">
        <ele>1159.4</ele>
        <time>2022-10-28T10:09:39Z</time>
      </trkpt>
      <trkpt lat="44.41911" lon="3.59686">
        <ele>1159</ele>
        <time>2022-10-28T10:09:40Z</time>
      </trkpt>
      <trkpt lat="44.41914" lon="3.59688">
        <ele>1158.6</ele>
        <time>2022-10-28T10:09:41Z</time>
      </trkpt>
      <trkpt lat="44.41916" lon="3.5969">
        <ele>1158</ele>
        <time>2022-10-28T10:09:42Z</time>
      </trkpt>
      <trkpt lat="44.41918" lon="3.59692">
        <ele>1157.6</ele>
        <time>2022-10-28T10:09:43Z</time>
      </trkpt>
      <trkpt lat="44.4192" lon="3.59694">
        <ele>1157.2</ele>
        <time>2022-10-28T10:09:44Z</time>
      </trkpt>
      <trkpt lat="44.41922" lon="3.59695">
        <ele>1157</ele>
        <time>2022-10-28T10:09:45Z</time>
      </trkpt>
      <trkpt lat="44.41923" lon="3.59696">
        <ele>1156.6</ele>
        <time>2022-10-28T10:09:46Z</time>
      </trkpt>
      <trkpt lat="44.41925" lon="3.59698">
        <ele>1156.2</ele>
        <time>2022-10-28T10:09:47Z</time>
      </trkpt>
      <trkpt lat="44.41928" lon="3.59699">
        <ele>1155.8</ele>
        <time>2022-10-28T10:09:48Z</time>
      </trkpt>
      <trkpt lat="44.4193" lon="3.597">
        <ele>1155.4</ele>
        <time>2022-10-28T10:09:49Z</time>
      </trkpt>
      <trkpt lat="44.41933" lon="3.59701">
        <ele>1155</ele>
        <time>2022-10-28T10:09:50Z</time>
      </trkpt>
      <trkpt lat="44.41935" lon="3.59702">
        <ele>1154.8</ele>
        <time>2022-10-28T10:09:51Z</time>
      </trkpt>
      <trkpt lat="44.41938" lon="3.59703">
        <ele>1154.4</ele>
        <time>2022-10-28T10:09:52Z</time>
      </trkpt>
      <trkpt lat="44.4194" lon="3.59704">
        <ele>1154</ele>
        <time>2022-10-28T10:09:53Z</time>
      </trkpt>
      <trkpt lat="44.41943" lon="3.59704">
        <ele>1153.6</ele>
        <time>2022-10-28T10:09:54Z</time>
      </trkpt>
      <trkpt lat="44.41945" lon="3.59704">
        <ele>1153.2</ele>
        <time>2022-10-28T10:09:55Z</time>
      </trkpt>
      <trkpt lat="44.41948" lon="3.59704">
        <ele>1152.8</ele>
        <time>2022-10-28T10:09:56Z</time>
      </trkpt>
      <trkpt lat="44.4195" lon="3.59704">
        <ele>1152.4</ele>
        <time>2022-10-28T10:09:57Z</time>
      </trkpt>
      <trkpt lat="44.41952" lon="3.59703">
        <ele>1152</ele>
        <time>2022-10-28T10:09:58Z</time>
      </trkpt>
      <trkpt lat="44.41954" lon="3.59702">
        <ele>1151.8</ele>
        <time>2022-10-28T10:09:59Z</time>
      </trkpt>
      <trkpt lat="44.41956" lon="3.59701">
        <ele>1151.6</ele>
        <time>2022-10-28T10:10:00Z</time>
      </trkpt>
      <trkpt lat="44.41958" lon="3.597">
        <ele>1151.4</ele>
        <time>2022-10-28T10:10:01Z</time>
      </trkpt>
      <trkpt lat="44.4196" lon="3.59699">
        <ele>1151.2</ele>
        <time>2022-10-28T10:10:02Z</time>
      </trkpt>
      <trkpt lat="44.41961" lon="3.59698">
        <ele>1151</ele>
        <time>2022-10-28T10:10:03Z</time>
      </trkpt>
      <trkpt lat="44.41962" lon="3.59698">
        <ele>1151</ele>
        <time>2022-10-28T10:10:04Z</time>
      </trkpt>
      <trkpt lat="44.41962" lon="3.59698">
        <ele>1150.8</ele>
        <time>2022-10-28T10:10:05Z</time>
      </trkpt>
      <trkpt lat="44.4196" lon="3.59698">
        <ele>1150.6</ele>
        <time>2022-10-28T10:10:13Z</time>
      </trkpt>
      <trkpt lat="44.4196" lon="3.59699">
        <ele>1150.4</ele>
        <time>2022-10-28T10:10:14Z</time>
      </trkpt>
      <trkpt lat="44.41959" lon="3.59699">
        <ele>1150.4</ele>
        <time>2022-10-28T10:10:15Z</time>
      </trkpt>
      <trkpt lat="44.41959" lon="3.59698">
        <ele>1150.4</ele>
        <time>2022-10-28T10:10:16Z</time>
      </trkpt>
      <trkpt lat="44.41959" lon="3.59698">
        <ele>1150.2</ele>
        <time>2022-10-28T10:10:17Z</time>
      </trkpt>
      <trkpt lat="44.41959" lon="3.59698">
        <ele>1150.2</ele>
        <time>2022-10-28T10:10:18Z</time>
      </trkpt>
      <trkpt lat="44.41959" lon="3.59698">
        <ele>1150.2</ele>
        <time>2022-10-28T10:10:19Z</time>
      </trkpt>
      <trkpt lat="44.41959" lon="3.59698">
        <ele>1150</ele>
        <time>2022-10-28T10:10:20Z</time>
      </trkpt>
      <trkpt lat="44.41961" lon="3.59697">
        <ele>1149.8</ele>
        <time>2022-10-28T10:11:57Z</time>
      </trkpt>
      <trkpt lat="44.41963" lon="3.59696">
        <ele>1149.8</ele>
        <time>2022-10-28T10:11:58Z</time>
      </trkpt>
      <trkpt lat="44.41965" lon="3.59696">
        <ele>1149.8</ele>
        <time>2022-10-28T10:11:59Z</time>
      </trkpt>
      <trkpt lat="44.41966" lon="3.59697">
        <ele>1149.8</ele>
        <time>2022-10-28T10:12:00Z</time>
      </trkpt>
      <trkpt lat="44.41968" lon="3.59697">
        <ele>1149.8</ele>
        <time>2022-10-28T10:12:01Z</time>
      </trkpt>
      <trkpt lat="44.41968" lon="3.59697">
        <ele>1149.8</ele>
        <time>2022-10-28T10:12:02Z</time>
      </trkpt>
      <trkpt lat="44.41968" lon="3.59697">
        <ele>1149.8</ele>
        <time>2022-10-28T10:12:03Z</time>
      </trkpt>
      <trkpt lat="44.41969" lon="3.59697">
        <ele>1149.8</ele>
        <time>2022-10-28T10:12:04Z</time>
      </trkpt>
      <trkpt lat="44.41969" lon="3.59697">
        <ele>1149.8</ele>
        <time>2022-10-28T10:12:05Z</time>
      </trkpt>
      <trkpt lat="44.41969" lon="3.59698">
        <ele>1149.8</ele>
        <time>2022-10-28T10:12:06Z</time>
      </trkpt>
      <trkpt lat="44.41969" lon="3.59698">
        <ele>1149.8</ele>
        <time>2022-10-28T10:12:07Z</time>
      </trkpt>
      <trkpt lat="44.4197" lon="3.597">
        <ele>1150</ele>
        <time>2022-10-28T10:12:10Z</time>
      </trkpt>
      <trkpt lat="44.4197" lon="3.59701">
        <ele>1150</ele>
        <time>2022-10-28T10:12:11Z</time>
      </trkpt>
      <trkpt lat="44.41971" lon="3.59702">
        <ele>1150.2</ele>
        <time>2022-10-28T10:12:12Z</time>
      </trkpt>
      <trkpt lat="44.41971" lon="3.59704">
        <ele>1150.2</ele>
        <time>2022-10-28T10:12:13Z</time>
      </trkpt>
      <trkpt lat="44.41971" lon="3.59706">
        <ele>1150.2</ele>
        <time>2022-10-28T10:12:14Z</time>
      </trkpt>
      <trkpt lat="44.4197" lon="3.59706">
        <ele>1150.2</ele>
        <time>2022-10-28T10:12:15Z</time>
      </trkpt>
      <trkpt lat="44.41969" lon="3.59707">
        <ele>1150.4</ele>
        <time>2022-10-28T10:12:16Z</time>
      </trkpt>
      <trkpt lat="44.41968" lon="3.59707">
        <ele>1150.4</ele>
        <time>2022-10-28T10:12:17Z</time>
      </trkpt>
      <trkpt lat="44.41967" lon="3.59706">
        <ele>1150.6</ele>
        <time>2022-10-28T10:12:18Z</time>
      </trkpt>
      <trkpt lat="44.41966" lon="3.59706">
        <ele>1150.6</ele>
        <time>2022-10-28T10:12:19Z</time>
      </trkpt>
      <trkpt lat="44.41966" lon="3.59706">
        <ele>1150.6</ele>
        <time>2022-10-28T10:12:20Z</time>
      </trkpt>
      <trkpt lat="44.41965" lon="3.59706">
        <ele>1150.6</ele>
        <time>2022-10-28T10:12:21Z</time>
      </trkpt>
      <trkpt lat="44.41964" lon="3.59706">
        <ele>1150.6</ele>
        <time>2022-10-28T10:12:22Z</time>
      </trkpt>
      <trkpt lat="44.41964" lon="3.59706">
        <ele>1150.6</ele>
        <time>2022-10-28T10:12:23Z</time>
      </trkpt>
      <trkpt lat="44.41964" lon="3.59706">
        <ele>1150.6</ele>
        <time>2022-10-28T10:12:24Z</time>
      </trkpt>
      <trkpt lat="44.41964" lon="3.59706">
        <ele>1150.6</ele>
        <time>2022-10-28T10:12:25Z</time>
      </trkpt>
      <trkpt lat="44.41963" lon="3.59706">
        <ele>1150.6</ele>
        <time>2022-10-28T10:12:26Z</time>
      </trkpt>
      <trkpt lat="44.41962" lon="3.59706">
        <ele>1150.4</ele>
        <time>2022-10-28T10:12:27Z</time>
      </trkpt>
      <trkpt lat="44.4196" lon="3.59705">
        <ele>1150.4</ele>
        <time>2022-10-28T10:12:28Z</time>
      </trkpt>
      <trkpt lat="44.41959" lon="3.59704">
        <ele>1150.2</ele>
        <time>2022-10-28T10:12:29Z</time>
      </trkpt>
      <trkpt lat="44.41958" lon="3.59702">
        <ele>1150.2</ele>
        <time>2022-10-28T10:12:30Z</time>
      </trkpt>
      <trkpt lat="44.41958" lon="3.59701">
        <ele>1150.2</ele>
        <time>2022-10-28T10:12:31Z</time>
      </trkpt>
      <trkpt lat="44.41958" lon="3.597">
        <ele>1150</ele>
        <time>2022-10-28T10:12:32Z</time>
      </trkpt>
      <trkpt lat="44.41958" lon="3.597">
        <ele>1150</ele>
        <time>2022-10-28T10:12:33Z</time>
      </trkpt>
      <trkpt lat="44.41958" lon="3.59699">
        <ele>1150</ele>
        <time>2022-10-28T10:12:34Z</time>
      </trkpt>
      <trkpt lat="44.41959" lon="3.59698">
        <ele>1150</ele>
        <time>2022-10-28T10:12:35Z</time>
      </trkpt>
      <trkpt lat="44.4196" lon="3.59698">
        <ele>1149.8</ele>
        <time>2022-10-28T10:12:36Z</time>
      </trkpt>
      <trkpt lat="44.41961" lon="3.59697">
        <ele>1149.8</ele>
        <time>2022-10-28T10:12:37Z</time>
      </trkpt>
      <trkpt lat="44.41963" lon="3.59697">
        <ele>1149.6</ele>
        <time>2022-10-28T10:12:38Z</time>
      </trkpt>
      <trkpt lat="44.41964" lon="3.59697">
        <ele>1149.6</ele>
        <time>2022-10-28T10:12:39Z</time>
      </trkpt>
      <trkpt lat="44.41966" lon="3.59697">
        <ele>1149.6</ele>
        <time>2022-10-28T10:12:40Z</time>
      </trkpt>
      <trkpt lat="44.41967" lon="3.59697">
        <ele>1149.6</ele>
        <time>2022-10-28T10:12:41Z</time>
      </trkpt>
      <trkpt lat="44.41968" lon="3.59698">
        <ele>1149.6</ele>
        <time>2022-10-28T10:12:42Z</time>
      </trkpt>
      <trkpt lat="44.41968" lon="3.59698">
        <ele>1149.8</ele>
        <time>2022-10-28T10:12:43Z</time>
      </trkpt>
      <trkpt lat="44.41968" lon="3.59699">
        <ele>1149.8</ele>
        <time>2022-10-28T10:12:44Z</time>
      </trkpt>
      <trkpt lat="44.41969" lon="3.59699">
        <ele>1149.8</ele>
        <time>2022-10-28T10:12:45Z</time>
      </trkpt>
      <trkpt lat="44.41969" lon="3.597">
        <ele>1149.8</ele>
        <time>2022-10-28T10:12:46Z</time>
      </trkpt>
      <trkpt lat="44.41969" lon="3.59701">
        <ele>1150</ele>
        <time>2022-10-28T10:12:47Z</time>
      </trkpt>
      <trkpt lat="44.4197" lon="3.59702">
        <ele>1150</ele>
        <time>2022-10-28T10:12:48Z</time>
      </trkpt>
      <trkpt lat="44.4197" lon="3.59704">
        <ele>1150</ele>
        <time>2022-10-28T10:12:49Z</time>
      </trkpt>
      <trkpt lat="44.4197" lon="3.59705">
        <ele>1150.2</ele>
        <time>2022-10-28T10:12:50Z</time>
      </trkpt>
      <trkpt lat="44.4197" lon="3.59706">
        <ele>1150.2</ele>
        <time>2022-10-28T10:12:51Z</time>
      </trkpt>
      <trkpt lat="44.41969" lon="3.59707">
        <ele>1150.2</ele>
        <time>2022-10-28T10:12:52Z</time>
      </trkpt>
      <trkpt lat="44.41968" lon="3.59707">
        <ele>1150.4</ele>
        <time>2022-10-28T10:12:53Z</time>
      </trkpt>
      <trkpt lat="44.41967" lon="3.59707">
        <ele>1150.4</ele>
        <time>2022-10-28T10:12:54Z</time>
      </trkpt>
      <trkpt lat="44.41966" lon="3.59707">
        <ele>1150.4</ele>
        <time>2022-10-28T10:12:55Z</time>
      </trkpt>
      <trkpt lat="44.41966" lon="3.59707">
        <ele>1150.6</ele>
        <time>2022-10-28T10:12:56Z</time>
      </trkpt>
      <trkpt lat="44.41965" lon="3.59706">
        <ele>1150.6</ele>
        <time>2022-10-28T10:12:57Z</time>
      </trkpt>
      <trkpt lat="44.41964" lon="3.59706">
        <ele>1150.6</ele>
        <time>2022-10-28T10:12:58Z</time>
      </trkpt>
      <trkpt lat="44.41964" lon="3.59706">
        <ele>1150.6</ele>
        <time>2022-10-28T10:12:59Z</time>
      </trkpt>
      <trkpt lat="44.41964" lon="3.59706">
        <ele>1150.6</ele>
        <time>2022-10-28T10:13:00Z</time>
      </trkpt>
      <trkpt lat="44.41964" lon="3.59706">
        <ele>1150.6</ele>
        <time>2022-10-28T10:13:01Z</time>
      </trkpt>
      <trkpt lat="44.41963" lon="3.59706">
        <ele>1150.6</ele>
        <time>2022-10-28T10:13:02Z</time>
      </trkpt>
      <trkpt lat="44.41962" lon="3.59706">
        <ele>1150.6</ele>
        <time>2022-10-28T10:13:03Z</time>
      </trkpt>
      <trkpt lat="44.41961" lon="3.59705">
        <ele>1150.4</ele>
        <time>2022-10-28T10:13:04Z</time>
      </trkpt>
      <trkpt lat="44.4196" lon="3.59704">
        <ele>1150.4</ele>
        <time>2022-10-28T10:13:05Z</time>
      </trkpt>
      <trkpt lat="44.4196" lon="3.59702">
        <ele>1150.4</ele>
        <time>2022-10-28T10:13:06Z</time>
      </trkpt>
      <trkpt lat="44.4196" lon="3.59701">
        <ele>1150.4</ele>
        <time>2022-10-28T10:13:07Z</time>
      </trkpt>
      <trkpt lat="44.41959" lon="3.597">
        <ele>1150.2</ele>
        <time>2022-10-28T10:13:08Z</time>
      </trkpt>
      <trkpt lat="44.41959" lon="3.597">
        <ele>1150</ele>
        <time>2022-10-28T10:13:09Z</time>
      </trkpt>
      <trkpt lat="44.41959" lon="3.597">
        <ele>1150</ele>
        <time>2022-10-28T10:13:10Z</time>
      </trkpt>
      <trkpt lat="44.4196" lon="3.597">
        <ele>1149.4</ele>
        <time>2022-10-28T10:13:59Z</time>
      </trkpt>
      <trkpt lat="44.4196" lon="3.59699">
        <ele>1149.4</ele>
        <time>2022-10-28T10:14:00Z</time>
      </trkpt>
      <trkpt lat="44.41962" lon="3.59698">
        <ele>1149.4</ele>
        <time>2022-10-28T10:14:01Z</time>
      </trkpt>
      <trkpt lat="44.41964" lon="3.59697">
        <ele>1149.4</ele>
        <time>2022-10-28T10:14:02Z</time>
      </trkpt>
      <trkpt lat="44.41967" lon="3.59697">
        <ele>1149.4</ele>
        <time>2022-10-28T10:14:03Z</time>
      </trkpt>
      <trkpt lat="44.41968" lon="3.59697">
        <ele>1149.6</ele>
        <time>2022-10-28T10:14:04Z</time>
      </trkpt>
      <trkpt lat="44.41969" lon="3.59697">
        <ele>1149.6</ele>
        <time>2022-10-28T10:14:05Z</time>
      </trkpt>
      <trkpt lat="44.41971" lon="3.59697">
        <ele>1149.6</ele>
        <time>2022-10-28T10:14:06Z</time>
      </trkpt>
      <trkpt lat="44.41972" lon="3.59698">
        <ele>1149.8</ele>
        <time>2022-10-28T10:14:07Z</time>
      </trkpt>
      <trkpt lat="44.41973" lon="3.59698">
        <ele>1149.6</ele>
        <time>2022-10-28T10:14:08Z</time>
      </trkpt>
      <trkpt lat="44.41973" lon="3.59697">
        <ele>1149.6</ele>
        <time>2022-10-28T10:14:09Z</time>
      </trkpt>
      <trkpt lat="44.41973" lon="3.59697">
        <ele>1149.4</ele>
        <time>2022-10-28T10:14:10Z</time>
      </trkpt>
      <trkpt lat="44.41973" lon="3.59697">
        <ele>1149.4</ele>
        <time>2022-10-28T10:14:11Z</time>
      </trkpt>
      <trkpt lat="44.41973" lon="3.59697">
        <ele>1149.2</ele>
        <time>2022-10-28T10:14:12Z</time>
      </trkpt>
      <trkpt lat="44.41973" lon="3.59697">
        <ele>1149.2</ele>
        <time>2022-10-28T10:14:13Z</time>
      </trkpt>
      <trkpt lat="44.41973" lon="3.59697">
        <ele>1149.2</ele>
        <time>2022-10-28T10:14:14Z</time>
      </trkpt>
      <trkpt lat="44.41973" lon="3.59697">
        <ele>1149.2</ele>
        <time>2022-10-28T10:14:57Z</time>
      </trkpt>
      <trkpt lat="44.41974" lon="3.59697">
        <ele>1149.2</ele>
        <time>2022-10-28T10:14:58Z</time>
      </trkpt>
      <trkpt lat="44.41975" lon="3.59696">
        <ele>1149.2</ele>
        <time>2022-10-28T10:14:59Z</time>
      </trkpt>
      <trkpt lat="44.41977" lon="3.59695">
        <ele>1149</ele>
        <time>2022-10-28T10:15:00Z</time>
      </trkpt>
      <trkpt lat="44.41977" lon="3.59695">
        <ele>1149</ele>
        <time>2022-10-28T10:15:01Z</time>
      </trkpt>
      <trkpt lat="44.41978" lon="3.59694">
        <ele>1149</ele>
        <time>2022-10-28T10:15:02Z</time>
      </trkpt>
      <trkpt lat="44.41978" lon="3.59693">
        <ele>1148.8</ele>
        <time>2022-10-28T10:15:03Z</time>
      </trkpt>
      <trkpt lat="44.41978" lon="3.59693">
        <ele>1148.8</ele>
        <time>2022-10-28T10:15:04Z</time>
      </trkpt>
      <trkpt lat="44.41978" lon="3.59693">
        <ele>1148.8</ele>
        <time>2022-10-28T10:15:05Z</time>
      </trkpt>
      <trkpt lat="44.41978" lon="3.59694">
        <ele>1148.8</ele>
        <time>2022-10-28T10:16:04Z</time>
      </trkpt>
      <trkpt lat="44.41977" lon="3.59695">
        <ele>1149</ele>
        <time>2022-10-28T10:16:05Z</time>
      </trkpt>
      <trkpt lat="44.41976" lon="3.59695">
        <ele>1148.8</ele>
        <time>2022-10-28T10:16:06Z</time>
      </trkpt>
      <trkpt lat="44.41976" lon="3.59696">
        <ele>1148.8</ele>
        <time>2022-10-28T10:16:07Z</time>
      </trkpt>
      <trkpt lat="44.41976" lon="3.59696">
        <ele>1148.8</ele>
        <time>2022-10-28T10:16:08Z</time>
      </trkpt>
      <trkpt lat="44.41976" lon="3.59696">
        <ele>1148.8</ele>
        <time>2022-10-28T10:16:09Z</time>
      </trkpt>
      <trkpt lat="44.41976" lon="3.59695">
        <ele>1148.6</ele>
        <time>2022-10-28T10:16:10Z</time>
      </trkpt>
      <trkpt lat="44.41977" lon="3.59695">
        <ele>1148.6</ele>
        <time>2022-10-28T10:16:11Z</time>
      </trkpt>
      <trkpt lat="44.41979" lon="3.59694">
        <ele>1148.6</ele>
        <time>2022-10-28T10:16:12Z</time>
      </trkpt>
      <trkpt lat="44.41981" lon="3.59694">
        <ele>1148.6</ele>
        <time>2022-10-28T10:16:13Z</time>
      </trkpt>
      <trkpt lat="44.41983" lon="3.59693">
        <ele>1148.6</ele>
        <time>2022-10-28T10:16:14Z</time>
      </trkpt>
      <trkpt lat="44.41984" lon="3.59693">
        <ele>1148.6</ele>
        <time>2022-10-28T10:16:15Z</time>
      </trkpt>
      <trkpt lat="44.41985" lon="3.59693">
        <ele>1148.6</ele>
        <time>2022-10-28T10:16:16Z</time>
      </trkpt>
      <trkpt lat="44.41985" lon="3.59693">
        <ele>1148.6</ele>
        <time>2022-10-28T10:16:17Z</time>
      </trkpt>
      <trkpt lat="44.41985" lon="3.59692">
        <ele>1148.6</ele>
        <time>2022-10-28T10:16:18Z</time>
      </trkpt>
      <trkpt lat="44.41985" lon="3.59692">
        <ele>1148.6</ele>
        <time>2022-10-28T10:16:19Z</time>
      </trkpt>
      <trkpt lat="44.41985" lon="3.59692">
        <ele>1148.4</ele>
        <time>2022-10-28T10:16:20Z</time>
      </trkpt>
      <trkpt lat="44.41987" lon="3.59694">
        <ele>1148.4</ele>
        <time>2022-10-28T10:18:11Z</time>
      </trkpt>
      <trkpt lat="44.41989" lon="3.59694">
        <ele>1148.4</ele>
        <time>2022-10-28T10:18:12Z</time>
      </trkpt>
      <trkpt lat="44.4199" lon="3.59694">
        <ele>1148.4</ele>
        <time>2022-10-28T10:18:13Z</time>
      </trkpt>
      <trkpt lat="44.41992" lon="3.59695">
        <ele>1148.4</ele>
        <time>2022-10-28T10:18:14Z</time>
      </trkpt>
      <trkpt lat="44.41993" lon="3.59695">
        <ele>1148.6</ele>
        <time>2022-10-28T10:18:15Z</time>
      </trkpt>
      <trkpt lat="44.41994" lon="3.59695">
        <ele>1148.6</ele>
        <time>2022-10-28T10:18:16Z</time>
      </trkpt>
      <trkpt lat="44.41995" lon="3.59695">
        <ele>1148.8</ele>
        <time>2022-10-28T10:18:17Z</time>
      </trkpt>
      <trkpt lat="44.41996" lon="3.59696">
        <ele>1148.8</ele>
        <time>2022-10-28T10:18:18Z</time>
      </trkpt>
      <trkpt lat="44.41997" lon="3.59696">
        <ele>1149</ele>
        <time>2022-10-28T10:18:19Z</time>
      </trkpt>
      <trkpt lat="44.41998" lon="3.59696">
        <ele>1149.2</ele>
        <time>2022-10-28T10:18:20Z</time>
      </trkpt>
      <trkpt lat="44.41999" lon="3.59696">
        <ele>1149.4</ele>
        <time>2022-10-28T10:18:21Z</time>
      </trkpt>
      <trkpt lat="44.42" lon="3.59695">
        <ele>1149.4</ele>
        <time>2022-10-28T10:18:22Z</time>
      </trkpt>
      <trkpt lat="44.42001" lon="3.59695">
        <ele>1149.6</ele>
        <time>2022-10-28T10:18:23Z</time>
      </trkpt>
      <trkpt lat="44.42002" lon="3.59694">
        <ele>1149.8</ele>
        <time>2022-10-28T10:18:24Z</time>
      </trkpt>
      <trkpt lat="44.42003" lon="3.59694">
        <ele>1149.8</ele>
        <time>2022-10-28T10:18:25Z</time>
      </trkpt>
      <trkpt lat="44.42004" lon="3.59693">
        <ele>1150</ele>
        <time>2022-10-28T10:18:26Z</time>
      </trkpt>
      <trkpt lat="44.42004" lon="3.59693">
        <ele>1150.2</ele>
        <time>2022-10-28T10:18:27Z</time>
      </trkpt>
      <trkpt lat="44.42005" lon="3.59692">
        <ele>1150.2</ele>
        <time>2022-10-28T10:18:28Z</time>
      </trkpt>
      <trkpt lat="44.42006" lon="3.59691">
        <ele>1150.4</ele>
        <time>2022-10-28T10:18:29Z</time>
      </trkpt>
      <trkpt lat="44.42006" lon="3.59691">
        <ele>1150.6</ele>
        <time>2022-10-28T10:18:30Z</time>
      </trkpt>
      <trkpt lat="44.42007" lon="3.59692">
        <ele>1150.8</ele>
        <time>2022-10-28T10:18:31Z</time>
      </trkpt>
      <trkpt lat="44.42008" lon="3.59692">
        <ele>1150.8</ele>
        <time>2022-10-28T10:18:32Z</time>
      </trkpt>
      <trkpt lat="44.42008" lon="3.59692">
        <ele>1151</ele>
        <time>2022-10-28T10:18:33Z</time>
      </trkpt>
      <trkpt lat="44.42009" lon="3.59692">
        <ele>1151.2</ele>
        <time>2022-10-28T10:18:34Z</time>
      </trkpt>
      <trkpt lat="44.4201" lon="3.59692">
        <ele>1151.4</ele>
        <time>2022-10-28T10:18:35Z</time>
      </trkpt>
      <trkpt lat="44.4201" lon="3.59692">
        <ele>1151.6</ele>
        <time>2022-10-28T10:18:36Z</time>
      </trkpt>
      <trkpt lat="44.42011" lon="3.59692">
        <ele>1151.8</ele>
        <time>2022-10-28T10:18:37Z</time>
      </trkpt>
      <trkpt lat="44.42011" lon="3.59692">
        <ele>1152</ele>
        <time>2022-10-28T10:18:38Z</time>
      </trkpt>
      <trkpt lat="44.42012" lon="3.59692">
        <ele>1152.2</ele>
        <time>2022-10-28T10:18:39Z</time>
      </trkpt>
      <trkpt lat="44.42012" lon="3.59692">
        <ele>1152.2</ele>
        <time>2022-10-28T10:18:40Z</time>
      </trkpt>
      <trkpt lat="44.42013" lon="3.59692">
        <ele>1152.4</ele>
        <time>2022-10-28T10:18:41Z</time>
      </trkpt>
      <trkpt lat="44.42024" lon="3.5969">
        <ele>1153.6</ele>
        <time>2022-10-28T10:19:10Z</time>
      </trkpt>
      <trkpt lat="44.42025" lon="3.59691">
        <ele>1153.6</ele>
        <time>2022-10-28T10:19:11Z</time>
      </trkpt>
      <trkpt lat="44.42026" lon="3.59692">
        <ele>1153.6</ele>
        <time>2022-10-28T10:19:12Z</time>
      </trkpt>
      <trkpt lat="44.42027" lon="3.59692">
        <ele>1153.6</ele>
        <time>2022-10-28T10:19:13Z</time>
      </trkpt>
      <trkpt lat="44.42028" lon="3.59692">
        <ele>1153.8</ele>
        <time>2022-10-28T10:19:14Z</time>
      </trkpt>
      <trkpt lat="44.4203" lon="3.59693">
        <ele>1153.8</ele>
        <time>2022-10-28T10:19:15Z</time>
      </trkpt>
      <trkpt lat="44.42031" lon="3.59693">
        <ele>1154</ele>
        <time>2022-10-28T10:19:16Z</time>
      </trkpt>
      <trkpt lat="44.42031" lon="3.59693">
        <ele>1154</ele>
        <time>2022-10-28T10:19:17Z</time>
      </trkpt>
      <trkpt lat="44.42032" lon="3.59694">
        <ele>1154.2</ele>
        <time>2022-10-28T10:19:18Z</time>
      </trkpt>
      <trkpt lat="44.42033" lon="3.59694">
        <ele>1154.4</ele>
        <time>2022-10-28T10:19:19Z</time>
      </trkpt>
      <trkpt lat="44.42033" lon="3.59695">
        <ele>1154.4</ele>
        <time>2022-10-28T10:19:20Z</time>
      </trkpt>
      <trkpt lat="44.42034" lon="3.59695">
        <ele>1154.4</ele>
        <time>2022-10-28T10:19:21Z</time>
      </trkpt>
      <trkpt lat="44.42034" lon="3.59696">
        <ele>1154.6</ele>
        <time>2022-10-28T10:19:22Z</time>
      </trkpt>
      <trkpt lat="44.42035" lon="3.59695">
        <ele>1154.6</ele>
        <time>2022-10-28T10:19:23Z</time>
      </trkpt>
      <trkpt lat="44.42036" lon="3.59695">
        <ele>1154.8</ele>
        <time>2022-10-28T10:19:24Z</time>
      </trkpt>
      <trkpt lat="44.42037" lon="3.59695">
        <ele>1154.8</ele>
        <time>2022-10-28T10:19:25Z</time>
      </trkpt>
      <trkpt lat="44.42038" lon="3.59696">
        <ele>1155</ele>
        <time>2022-10-28T10:19:26Z</time>
      </trkpt>
      <trkpt lat="44.42038" lon="3.59696">
        <ele>1155</ele>
        <time>2022-10-28T10:19:27Z</time>
      </trkpt>
      <trkpt lat="44.42039" lon="3.59697">
        <ele>1155.2</ele>
        <time>2022-10-28T10:19:28Z</time>
      </trkpt>
      <trkpt lat="44.4204" lon="3.59698">
        <ele>1155.2</ele>
        <time>2022-10-28T10:19:29Z</time>
      </trkpt>
      <trkpt lat="44.42041" lon="3.59698">
        <ele>1155.4</ele>
        <time>2022-10-28T10:19:30Z</time>
      </trkpt>
      <trkpt lat="44.42042" lon="3.59698">
        <ele>1155.4</ele>
        <time>2022-10-28T10:19:31Z</time>
      </trkpt>
      <trkpt lat="44.42042" lon="3.59698">
        <ele>1155.4</ele>
        <time>2022-10-28T10:19:32Z</time>
      </trkpt>
      <trkpt lat="44.42043" lon="3.59697">
        <ele>1155.6</ele>
        <time>2022-10-28T10:19:33Z</time>
      </trkpt>
      <trkpt lat="44.42044" lon="3.59697">
        <ele>1155.6</ele>
        <time>2022-10-28T10:19:34Z</time>
      </trkpt>
      <trkpt lat="44.42045" lon="3.59697">
        <ele>1155.6</ele>
        <time>2022-10-28T10:19:35Z</time>
      </trkpt>
      <trkpt lat="44.42046" lon="3.59696">
        <ele>1155.8</ele>
        <time>2022-10-28T10:19:36Z</time>
      </trkpt>
      <trkpt lat="44.42047" lon="3.59696">
        <ele>1155.8</ele>
        <time>2022-10-28T10:19:37Z</time>
      </trkpt>
      <trkpt lat="44.42048" lon="3.59695">
        <ele>1155.8</ele>
        <time>2022-10-28T10:19:38Z</time>
      </trkpt>
      <trkpt lat="44.42049" lon="3.59695">
        <ele>1156</ele>
        <time>2022-10-28T10:19:39Z</time>
      </trkpt>
      <trkpt lat="44.4205" lon="3.59695">
        <ele>1156</ele>
        <time>2022-10-28T10:19:40Z</time>
      </trkpt>
      <trkpt lat="44.42051" lon="3.59695">
        <ele>1156.2</ele>
        <time>2022-10-28T10:19:41Z</time>
      </trkpt>
      <trkpt lat="44.42052" lon="3.59695">
        <ele>1156.4</ele>
        <time>2022-10-28T10:19:42Z</time>
      </trkpt>
      <trkpt lat="44.42052" lon="3.59694">
        <ele>1156.4</ele>
        <time>2022-10-28T10:19:43Z</time>
      </trkpt>
      <trkpt lat="44.42053" lon="3.59694">
        <ele>1156.6</ele>
        <time>2022-10-28T10:19:44Z</time>
      </trkpt>
      <trkpt lat="44.42054" lon="3.59694">
        <ele>1156.8</ele>
        <time>2022-10-28T10:19:45Z</time>
      </trkpt>
      <trkpt lat="44.42054" lon="3.59694">
        <ele>1156.8</ele>
        <time>2022-10-28T10:19:46Z</time>
      </trkpt>
      <trkpt lat="44.42055" lon="3.59694">
        <ele>1157</ele>
        <time>2022-10-28T10:19:47Z</time>
      </trkpt>
      <trkpt lat="44.42056" lon="3.59694">
        <ele>1157.2</ele>
        <time>2022-10-28T10:19:48Z</time>
      </trkpt>
      <trkpt lat="44.42056" lon="3.59695">
        <ele>1157.4</ele>
        <time>2022-10-28T10:19:49Z</time>
      </trkpt>
      <trkpt lat="44.42056" lon="3.59695">
        <ele>1157.6</ele>
        <time>2022-10-28T10:19:50Z</time>
      </trkpt>
      <trkpt lat="44.42056" lon="3.59695">
        <ele>1157.8</ele>
        <time>2022-10-28T10:19:51Z</time>
      </trkpt>
      <trkpt lat="44.42056" lon="3.59695">
        <ele>1157.8</ele>
        <time>2022-10-28T10:19:52Z</time>
      </trkpt>
      <trkpt lat="44.42056" lon="3.59694">
        <ele>1157.8</ele>
        <time>2022-10-28T10:19:53Z</time>
      </trkpt>
      <trkpt lat="44.42056" lon="3.59694">
        <ele>1157.8</ele>
        <time>2022-10-28T10:19:54Z</time>
      </trkpt>
      <trkpt lat="44.42058" lon="3.59698">
        <ele>1157.8</ele>
        <time>2022-10-28T10:20:16Z</time>
      </trkpt>
      <trkpt lat="44.42059" lon="3.59699">
        <ele>1157.8</ele>
        <time>2022-10-28T10:20:17Z</time>
      </trkpt>
      <trkpt lat="44.4206" lon="3.597">
        <ele>1157.8</ele>
        <time>2022-10-28T10:20:18Z</time>
      </trkpt>
      <trkpt lat="44.4206" lon="3.597">
        <ele>1157.8</ele>
        <time>2022-10-28T10:20:19Z</time>
      </trkpt>
      <trkpt lat="44.42061" lon="3.59701">
        <ele>1158</ele>
        <time>2022-10-28T10:20:20Z</time>
      </trkpt>
      <trkpt lat="44.42061" lon="3.59702">
        <ele>1158.2</ele>
        <time>2022-10-28T10:20:21Z</time>
      </trkpt>
      <trkpt lat="44.42061" lon="3.59702">
        <ele>1158.4</ele>
        <time>2022-10-28T10:20:22Z</time>
      </trkpt>
      <trkpt lat="44.42068" lon="3.59704">
        <ele>1159.4</ele>
        <time>2022-10-28T10:20:39Z</time>
      </trkpt>
      <trkpt lat="44.42068" lon="3.59704">
        <ele>1159.4</ele>
        <time>2022-10-28T10:20:40Z</time>
      </trkpt>
      <trkpt lat="44.42069" lon="3.59703">
        <ele>1159.4</ele>
        <time>2022-10-28T10:20:41Z</time>
      </trkpt>
      <trkpt lat="44.42069" lon="3.59703">
        <ele>1159.6</ele>
        <time>2022-10-28T10:20:42Z</time>
      </trkpt>
      <trkpt lat="44.4207" lon="3.59702">
        <ele>1159.6</ele>
        <time>2022-10-28T10:20:43Z</time>
      </trkpt>
      <trkpt lat="44.4207" lon="3.59702">
        <ele>1159.8</ele>
        <time>2022-10-28T10:20:44Z</time>
      </trkpt>
      <trkpt lat="44.4207" lon="3.59702">
        <ele>1160</ele>
        <time>2022-10-28T10:20:45Z</time>
      </trkpt>
      <trkpt lat="44.42071" lon="3.59701">
        <ele>1160</ele>
        <time>2022-10-28T10:20:46Z</time>
      </trkpt>
      <trkpt lat="44.42074" lon="3.59702">
        <ele>1160.4</ele>
        <time>2022-10-28T10:20:52Z</time>
      </trkpt>
      <trkpt lat="44.42074" lon="3.59702">
        <ele>1160.4</ele>
        <time>2022-10-28T10:20:53Z</time>
      </trkpt>
      <trkpt lat="44.42075" lon="3.59703">
        <ele>1160.4</ele>
        <time>2022-10-28T10:20:54Z</time>
      </trkpt>
      <trkpt lat="44.42075" lon="3.59703">
        <ele>1160.4</ele>
        <time>2022-10-28T10:20:55Z</time>
      </trkpt>
      <trkpt lat="44.42076" lon="3.59703">
        <ele>1160.4</ele>
        <time>2022-10-28T10:20:56Z</time>
      </trkpt>
      <trkpt lat="44.42076" lon="3.59703">
        <ele>1160.4</ele>
        <time>2022-10-28T10:20:57Z</time>
      </trkpt>
      <trkpt lat="44.42077" lon="3.59703">
        <ele>1160.4</ele>
        <time>2022-10-28T10:20:58Z</time>
      </trkpt>
      <trkpt lat="44.42078" lon="3.59704">
        <ele>1160.6</ele>
        <time>2022-10-28T10:20:59Z</time>
      </trkpt>
      <trkpt lat="44.42079" lon="3.59705">
        <ele>1160.6</ele>
        <time>2022-10-28T10:21:00Z</time>
      </trkpt>
      <trkpt lat="44.4208" lon="3.59706">
        <ele>1160.8</ele>
        <time>2022-10-28T10:21:01Z</time>
      </trkpt>
      <trkpt lat="44.42081" lon="3.59707">
        <ele>1160.8</ele>
        <time>2022-10-28T10:21:02Z</time>
      </trkpt>
      <trkpt lat="44.42081" lon="3.59707">
        <ele>1160.8</ele>
        <time>2022-10-28T10:21:03Z</time>
      </trkpt>
      <trkpt lat="44.42082" lon="3.59708">
        <ele>1160.8</ele>
        <time>2022-10-28T10:21:04Z</time>
      </trkpt>
      <trkpt lat="44.42083" lon="3.59709">
        <ele>1161</ele>
        <time>2022-10-28T10:21:05Z</time>
      </trkpt>
      <trkpt lat="44.42084" lon="3.59709">
        <ele>1161</ele>
        <time>2022-10-28T10:21:06Z</time>
      </trkpt>
      <trkpt lat="44.42085" lon="3.59709">
        <ele>1161.2</ele>
        <time>2022-10-28T10:21:07Z</time>
      </trkpt>
      <trkpt lat="44.42086" lon="3.59709">
        <ele>1161.2</ele>
        <time>2022-10-28T10:21:08Z</time>
      </trkpt>
      <trkpt lat="44.42087" lon="3.5971">
        <ele>1161.2</ele>
        <time>2022-10-28T10:21:09Z</time>
      </trkpt>
      <trkpt lat="44.42088" lon="3.5971">
        <ele>1161.2</ele>
        <time>2022-10-28T10:21:10Z</time>
      </trkpt>
      <trkpt lat="44.42088" lon="3.59711">
        <ele>1161.4</ele>
        <time>2022-10-28T10:21:11Z</time>
      </trkpt>
      <trkpt lat="44.42089" lon="3.59712">
        <ele>1161.4</ele>
        <time>2022-10-28T10:21:12Z</time>
      </trkpt>
      <trkpt lat="44.4209" lon="3.59713">
        <ele>1161.4</ele>
        <time>2022-10-28T10:21:13Z</time>
      </trkpt>
      <trkpt lat="44.4209" lon="3.59714">
        <ele>1161.4</ele>
        <time>2022-10-28T10:21:14Z</time>
      </trkpt>
      <trkpt lat="44.4209" lon="3.59714">
        <ele>1161.4</ele>
        <time>2022-10-28T10:21:15Z</time>
      </trkpt>
      <trkpt lat="44.4209" lon="3.59714">
        <ele>1161.4</ele>
        <time>2022-10-28T10:21:16Z</time>
      </trkpt>
      <trkpt lat="44.4209" lon="3.59714">
        <ele>1161.4</ele>
        <time>2022-10-28T10:21:17Z</time>
      </trkpt>
      <trkpt lat="44.4209" lon="3.59714">
        <ele>1161.4</ele>
        <time>2022-10-28T10:21:18Z</time>
      </trkpt>
      <trkpt lat="44.4209" lon="3.59714">
        <ele>1161.4</ele>
        <time>2022-10-28T10:21:19Z</time>
      </trkpt>
      <trkpt lat="44.42091" lon="3.59715">
        <ele>1161.4</ele>
        <time>2022-10-28T10:21:20Z</time>
      </trkpt>
      <trkpt lat="44.42091" lon="3.59716">
        <ele>1161.6</ele>
        <time>2022-10-28T10:21:21Z</time>
      </trkpt>
      <trkpt lat="44.42092" lon="3.59716">
        <ele>1161.6</ele>
        <time>2022-10-28T10:21:22Z</time>
      </trkpt>
      <trkpt lat="44.42093" lon="3.59716">
        <ele>1161.6</ele>
        <time>2022-10-28T10:21:23Z</time>
      </trkpt>
      <trkpt lat="44.42093" lon="3.59717">
        <ele>1161.6</ele>
        <time>2022-10-28T10:21:24Z</time>
      </trkpt>
      <trkpt lat="44.42093" lon="3.59718">
        <ele>1161.8</ele>
        <time>2022-10-28T10:21:25Z</time>
      </trkpt>
      <trkpt lat="44.42094" lon="3.59719">
        <ele>1161.8</ele>
        <time>2022-10-28T10:21:26Z</time>
      </trkpt>
      <trkpt lat="44.42095" lon="3.5972">
        <ele>1162</ele>
        <time>2022-10-28T10:21:27Z</time>
      </trkpt>
      <trkpt lat="44.42095" lon="3.5972">
        <ele>1162</ele>
        <time>2022-10-28T10:21:28Z</time>
      </trkpt>
      <trkpt lat="44.42095" lon="3.5972">
        <ele>1162</ele>
        <time>2022-10-28T10:21:29Z</time>
      </trkpt>
      <trkpt lat="44.42095" lon="3.5972">
        <ele>1162</ele>
        <time>2022-10-28T10:21:30Z</time>
      </trkpt>
      <trkpt lat="44.42095" lon="3.5972">
        <ele>1162</ele>
        <time>2022-10-28T10:21:31Z</time>
      </trkpt>
      <trkpt lat="44.42095" lon="3.5972">
        <ele>1162</ele>
        <time>2022-10-28T10:21:32Z</time>
      </trkpt>
      <trkpt lat="44.42095" lon="3.5972">
        <ele>1162</ele>
        <time>2022-10-28T10:21:33Z</time>
      </trkpt>
      <trkpt lat="44.42098" lon="3.59724">
        <ele>1162.2</ele>
        <time>2022-10-28T10:21:40Z</time>
      </trkpt>
      <trkpt lat="44.421" lon="3.59726">
        <ele>1162.2</ele>
        <time>2022-10-28T10:21:41Z</time>
      </trkpt>
      <trkpt lat="44.42104" lon="3.59728">
        <ele>1162.2</ele>
        <time>2022-10-28T10:21:42Z</time>
      </trkpt>
      <trkpt lat="44.42111" lon="3.5973">
        <ele>1162.2</ele>
        <time>2022-10-28T10:21:43Z</time>
      </trkpt>
      <trkpt lat="44.42113" lon="3.59732">
        <ele>1162.2</ele>
        <time>2022-10-28T10:21:44Z</time>
      </trkpt>
      <trkpt lat="44.42114" lon="3.59733">
        <ele>1162.2</ele>
        <time>2022-10-28T10:21:45Z</time>
      </trkpt>
      <trkpt lat="44.42116" lon="3.59735">
        <ele>1162.4</ele>
        <time>2022-10-28T10:21:46Z</time>
      </trkpt>
      <trkpt lat="44.42118" lon="3.59737">
        <ele>1162.6</ele>
        <time>2022-10-28T10:21:47Z</time>
      </trkpt>
      <trkpt lat="44.4212" lon="3.59739">
        <ele>1162.8</ele>
        <time>2022-10-28T10:21:48Z</time>
      </trkpt>
      <trkpt lat="44.42122" lon="3.5974">
        <ele>1163</ele>
        <time>2022-10-28T10:21:49Z</time>
      </trkpt>
      <trkpt lat="44.42124" lon="3.59742">
        <ele>1163.2</ele>
        <time>2022-10-28T10:21:50Z</time>
      </trkpt>
      <trkpt lat="44.42126" lon="3.59745">
        <ele>1163.4</ele>
        <time>2022-10-28T10:21:51Z</time>
      </trkpt>
      <trkpt lat="44.42128" lon="3.59747">
        <ele>1163.6</ele>
        <time>2022-10-28T10:21:52Z</time>
      </trkpt>
      <trkpt lat="44.42129" lon="3.59749">
        <ele>1163.6</ele>
        <time>2022-10-28T10:21:53Z</time>
      </trkpt>
      <trkpt lat="44.42131" lon="3.59751">
        <ele>1163.6</ele>
        <time>2022-10-28T10:21:54Z</time>
      </trkpt>
      <trkpt lat="44.42133" lon="3.59753">
        <ele>1163.8</ele>
        <time>2022-10-28T10:21:55Z</time>
      </trkpt>
      <trkpt lat="44.42135" lon="3.59755">
        <ele>1164</ele>
        <time>2022-10-28T10:21:56Z</time>
      </trkpt>
      <trkpt lat="44.42137" lon="3.59757">
        <ele>1164</ele>
        <time>2022-10-28T10:21:57Z</time>
      </trkpt>
      <trkpt lat="44.42139" lon="3.5976">
        <ele>1164</ele>
        <time>2022-10-28T10:21:58Z</time>
      </trkpt>
      <trkpt lat="44.42141" lon="3.59762">
        <ele>1164</ele>
        <time>2022-10-28T10:21:59Z</time>
      </trkpt>
      <trkpt lat="44.42143" lon="3.59765">
        <ele>1164</ele>
        <time>2022-10-28T10:22:00Z</time>
      </trkpt>
      <trkpt lat="44.42145" lon="3.59767">
        <ele>1164.2</ele>
        <time>2022-10-28T10:22:01Z</time>
      </trkpt>
      <trkpt lat="44.42147" lon="3.59769">
        <ele>1164.2</ele>
        <time>2022-10-28T10:22:02Z</time>
      </trkpt>
      <trkpt lat="44.42149" lon="3.59772">
        <ele>1164.2</ele>
        <time>2022-10-28T10:22:03Z</time>
      </trkpt>
      <trkpt lat="44.42151" lon="3.59775">
        <ele>1164.2</ele>
        <time>2022-10-28T10:22:04Z</time>
      </trkpt>
      <trkpt lat="44.42153" lon="3.59778">
        <ele>1164.2</ele>
        <time>2022-10-28T10:22:05Z</time>
      </trkpt>
      <trkpt lat="44.42155" lon="3.5978">
        <ele>1164.2</ele>
        <time>2022-10-28T10:22:06Z</time>
      </trkpt>
      <trkpt lat="44.42157" lon="3.59783">
        <ele>1164.4</ele>
        <time>2022-10-28T10:22:07Z</time>
      </trkpt>
      <trkpt lat="44.42158" lon="3.59786">
        <ele>1164.4</ele>
        <time>2022-10-28T10:22:08Z</time>
      </trkpt>
      <trkpt lat="44.4216" lon="3.59788">
        <ele>1164.4</ele>
        <time>2022-10-28T10:22:09Z</time>
      </trkpt>
      <trkpt lat="44.42163" lon="3.59791">
        <ele>1164.4</ele>
        <time>2022-10-28T10:22:10Z</time>
      </trkpt>
      <trkpt lat="44.42165" lon="3.59793">
        <ele>1164.4</ele>
        <time>2022-10-28T10:22:11Z</time>
      </trkpt>
      <trkpt lat="44.42166" lon="3.59796">
        <ele>1164.4</ele>
        <time>2022-10-28T10:22:12Z</time>
      </trkpt>
      <trkpt lat="44.42168" lon="3.59799">
        <ele>1164.6</ele>
        <time>2022-10-28T10:22:13Z</time>
      </trkpt>
      <trkpt lat="44.4217" lon="3.59802">
        <ele>1164.6</ele>
        <time>2022-10-28T10:22:14Z</time>
      </trkpt>
      <trkpt lat="44.42172" lon="3.59805">
        <ele>1164.6</ele>
        <time>2022-10-28T10:22:15Z</time>
      </trkpt>
      <trkpt lat="44.42174" lon="3.59808">
        <ele>1164.8</ele>
        <time>2022-10-28T10:22:16Z</time>
      </trkpt>
      <trkpt lat="44.42175" lon="3.59811">
        <ele>1164.8</ele>
        <time>2022-10-28T10:22:17Z</time>
      </trkpt>
      <trkpt lat="44.42177" lon="3.59814">
        <ele>1164.8</ele>
        <time>2022-10-28T10:22:18Z</time>
      </trkpt>
      <trkpt lat="44.42179" lon="3.59817">
        <ele>1164.8</ele>
        <time>2022-10-28T10:22:19Z</time>
      </trkpt>
      <trkpt lat="44.4218" lon="3.59819">
        <ele>1165</ele>
        <time>2022-10-28T10:22:20Z</time>
      </trkpt>
      <trkpt lat="44.42182" lon="3.59822">
        <ele>1165</ele>
        <time>2022-10-28T10:22:21Z</time>
      </trkpt>
      <trkpt lat="44.42184" lon="3.59825">
        <ele>1165</ele>
        <time>2022-10-28T10:22:22Z</time>
      </trkpt>
      <trkpt lat="44.42186" lon="3.59828">
        <ele>1165.2</ele>
        <time>2022-10-28T10:22:23Z</time>
      </trkpt>
      <trkpt lat="44.42187" lon="3.5983">
        <ele>1165.2</ele>
        <time>2022-10-28T10:22:24Z</time>
      </trkpt>
      <trkpt lat="44.42189" lon="3.59832">
        <ele>1165.4</ele>
        <time>2022-10-28T10:22:25Z</time>
      </trkpt>
      <trkpt lat="44.42191" lon="3.59834">
        <ele>1165.4</ele>
        <time>2022-10-28T10:22:26Z</time>
      </trkpt>
      <trkpt lat="44.42193" lon="3.59837">
        <ele>1165.6</ele>
        <time>2022-10-28T10:22:27Z</time>
      </trkpt>
      <trkpt lat="44.42195" lon="3.59839">
        <ele>1165.6</ele>
        <time>2022-10-28T10:22:28Z</time>
      </trkpt>
      <trkpt lat="44.42197" lon="3.59841">
        <ele>1165.8</ele>
        <time>2022-10-28T10:22:29Z</time>
      </trkpt>
      <trkpt lat="44.42198" lon="3.59843">
        <ele>1165.8</ele>
        <time>2022-10-28T10:22:30Z</time>
      </trkpt>
      <trkpt lat="44.422" lon="3.59845">
        <ele>1166</ele>
        <time>2022-10-28T10:22:31Z</time>
      </trkpt>
      <trkpt lat="44.42202" lon="3.59848">
        <ele>1166</ele>
        <time>2022-10-28T10:22:32Z</time>
      </trkpt>
      <trkpt lat="44.42204" lon="3.5985">
        <ele>1166</ele>
        <time>2022-10-28T10:22:33Z</time>
      </trkpt>
      <trkpt lat="44.42207" lon="3.59852">
        <ele>1166</ele>
        <time>2022-10-28T10:22:34Z</time>
      </trkpt>
      <trkpt lat="44.42209" lon="3.59854">
        <ele>1166.2</ele>
        <time>2022-10-28T10:22:35Z</time>
      </trkpt>
      <trkpt lat="44.42211" lon="3.59856">
        <ele>1166.2</ele>
        <time>2022-10-28T10:22:36Z</time>
      </trkpt>
      <trkpt lat="44.42214" lon="3.59858">
        <ele>1166.2</ele>
        <time>2022-10-28T10:22:37Z</time>
      </trkpt>
      <trkpt lat="44.42216" lon="3.5986">
        <ele>1166.4</ele>
        <time>2022-10-28T10:22:38Z</time>
      </trkpt>
      <trkpt lat="44.42218" lon="3.59862">
        <ele>1166.4</ele>
        <time>2022-10-28T10:22:39Z</time>
      </trkpt>
      <trkpt lat="44.42221" lon="3.59864">
        <ele>1166.6</ele>
        <time>2022-10-28T10:22:40Z</time>
      </trkpt>
      <trkpt lat="44.42223" lon="3.59865">
        <ele>1166.6</ele>
        <time>2022-10-28T10:22:41Z</time>
      </trkpt>
      <trkpt lat="44.42226" lon="3.59867">
        <ele>1166.6</ele>
        <time>2022-10-28T10:22:42Z</time>
      </trkpt>
      <trkpt lat="44.42228" lon="3.59869">
        <ele>1166.6</ele>
        <time>2022-10-28T10:22:43Z</time>
      </trkpt>
      <trkpt lat="44.42231" lon="3.5987">
        <ele>1166.6</ele>
        <time>2022-10-28T10:22:44Z</time>
      </trkpt>
      <trkpt lat="44.42233" lon="3.59871">
        <ele>1166.6</ele>
        <time>2022-10-28T10:22:45Z</time>
      </trkpt>
      <trkpt lat="44.42236" lon="3.59872">
        <ele>1166.8</ele>
        <time>2022-10-28T10:22:46Z</time>
      </trkpt>
      <trkpt lat="44.42239" lon="3.59873">
        <ele>1166.8</ele>
        <time>2022-10-28T10:22:47Z</time>
      </trkpt>
      <trkpt lat="44.42242" lon="3.59875">
        <ele>1166.8</ele>
        <time>2022-10-28T10:22:48Z</time>
      </trkpt>
      <trkpt lat="44.42244" lon="3.59876">
        <ele>1166.8</ele>
        <time>2022-10-28T10:22:49Z</time>
      </trkpt>
      <trkpt lat="44.42247" lon="3.59877">
        <ele>1166.8</ele>
        <time>2022-10-28T10:22:50Z</time>
      </trkpt>
      <trkpt lat="44.4225" lon="3.59878">
        <ele>1167</ele>
        <time>2022-10-28T10:22:51Z</time>
      </trkpt>
      <trkpt lat="44.42252" lon="3.59879">
        <ele>1167</ele>
        <time>2022-10-28T10:22:52Z</time>
      </trkpt>
      <trkpt lat="44.42255" lon="3.5988">
        <ele>1167</ele>
        <time>2022-10-28T10:22:53Z</time>
      </trkpt>
      <trkpt lat="44.42258" lon="3.59882">
        <ele>1167.2</ele>
        <time>2022-10-28T10:22:54Z</time>
      </trkpt>
      <trkpt lat="44.42261" lon="3.59883">
        <ele>1167.2</ele>
        <time>2022-10-28T10:22:55Z</time>
      </trkpt>
      <trkpt lat="44.42264" lon="3.59884">
        <ele>1167.2</ele>
        <time>2022-10-28T10:22:56Z</time>
      </trkpt>
      <trkpt lat="44.42267" lon="3.59886">
        <ele>1167.4</ele>
        <time>2022-10-28T10:22:57Z</time>
      </trkpt>
      <trkpt lat="44.4227" lon="3.59887">
        <ele>1167.4</ele>
        <time>2022-10-28T10:22:58Z</time>
      </trkpt>
      <trkpt lat="44.42272" lon="3.59888">
        <ele>1167.4</ele>
        <time>2022-10-28T10:22:59Z</time>
      </trkpt>
      <trkpt lat="44.42275" lon="3.59889">
        <ele>1167.4</ele>
        <time>2022-10-28T10:23:00Z</time>
      </trkpt>
      <trkpt lat="44.42278" lon="3.5989">
        <ele>1167.6</ele>
        <time>2022-10-28T10:23:01Z</time>
      </trkpt>
      <trkpt lat="44.4228" lon="3.59891">
        <ele>1167.6</ele>
        <time>2022-10-28T10:23:02Z</time>
      </trkpt>
      <trkpt lat="44.42284" lon="3.59893">
        <ele>1167.6</ele>
        <time>2022-10-28T10:23:03Z</time>
      </trkpt>
      <trkpt lat="44.42287" lon="3.59894">
        <ele>1167.6</ele>
        <time>2022-10-28T10:23:04Z</time>
      </trkpt>
      <trkpt lat="44.42289" lon="3.59895">
        <ele>1167.6</ele>
        <time>2022-10-28T10:23:05Z</time>
      </trkpt>
      <trkpt lat="44.42292" lon="3.59896">
        <ele>1167.8</ele>
        <time>2022-10-28T10:23:06Z</time>
      </trkpt>
      <trkpt lat="44.42295" lon="3.59896">
        <ele>1167.8</ele>
        <time>2022-10-28T10:23:07Z</time>
      </trkpt>
      <trkpt lat="44.42298" lon="3.59897">
        <ele>1168</ele>
        <time>2022-10-28T10:23:08Z</time>
      </trkpt>
      <trkpt lat="44.42301" lon="3.59898">
        <ele>1168</ele>
        <time>2022-10-28T10:23:09Z</time>
      </trkpt>
      <trkpt lat="44.42303" lon="3.59898">
        <ele>1168</ele>
        <time>2022-10-28T10:23:10Z</time>
      </trkpt>
      <trkpt lat="44.42306" lon="3.59899">
        <ele>1168.2</ele>
        <time>2022-10-28T10:23:11Z</time>
      </trkpt>
      <trkpt lat="44.42309" lon="3.59899">
        <ele>1168.2</ele>
        <time>2022-10-28T10:23:12Z</time>
      </trkpt>
      <trkpt lat="44.42312" lon="3.599">
        <ele>1168.4</ele>
        <time>2022-10-28T10:23:13Z</time>
      </trkpt>
      <trkpt lat="44.42315" lon="3.599">
        <ele>1168.4</ele>
        <time>2022-10-28T10:23:14Z</time>
      </trkpt>
      <trkpt lat="44.42318" lon="3.59901">
        <ele>1168.6</ele>
        <time>2022-10-28T10:23:15Z</time>
      </trkpt>
      <trkpt lat="44.42321" lon="3.59901">
        <ele>1168.6</ele>
        <time>2022-10-28T10:23:16Z</time>
      </trkpt>
      <trkpt lat="44.42324" lon="3.59901">
        <ele>1168.6</ele>
        <time>2022-10-28T10:23:17Z</time>
      </trkpt>
      <trkpt lat="44.42327" lon="3.59902">
        <ele>1168.6</ele>
        <time>2022-10-28T10:23:18Z</time>
      </trkpt>
      <trkpt lat="44.4233" lon="3.59902">
        <ele>1168.6</ele>
        <time>2022-10-28T10:23:19Z</time>
      </trkpt>
      <trkpt lat="44.42333" lon="3.59903">
        <ele>1168.8</ele>
        <time>2022-10-28T10:23:20Z</time>
      </trkpt>
      <trkpt lat="44.42336" lon="3.59903">
        <ele>1168.8</ele>
        <time>2022-10-28T10:23:21Z</time>
      </trkpt>
      <trkpt lat="44.42339" lon="3.59904">
        <ele>1168.8</ele>
        <time>2022-10-28T10:23:22Z</time>
      </trkpt>
      <trkpt lat="44.42342" lon="3.59905">
        <ele>1168.8</ele>
        <time>2022-10-28T10:23:23Z</time>
      </trkpt>
      <trkpt lat="44.42345" lon="3.59905">
        <ele>1168.8</ele>
        <time>2022-10-28T10:23:24Z</time>
      </trkpt>
      <trkpt lat="44.42349" lon="3.59906">
        <ele>1168.8</ele>
        <time>2022-10-28T10:23:25Z</time>
      </trkpt>
      <trkpt lat="44.42352" lon="3.59907">
        <ele>1169</ele>
        <time>2022-10-28T10:23:26Z</time>
      </trkpt>
      <trkpt lat="44.42355" lon="3.59908">
        <ele>1169</ele>
        <time>2022-10-28T10:23:27Z</time>
      </trkpt>
      <trkpt lat="44.42358" lon="3.59909">
        <ele>1169.2</ele>
        <time>2022-10-28T10:23:28Z</time>
      </trkpt>
      <trkpt lat="44.42361" lon="3.5991">
        <ele>1169.2</ele>
        <time>2022-10-28T10:23:29Z</time>
      </trkpt>
      <trkpt lat="44.42364" lon="3.5991">
        <ele>1169.4</ele>
        <time>2022-10-28T10:23:30Z</time>
      </trkpt>
      <trkpt lat="44.42368" lon="3.59911">
        <ele>1169.4</ele>
        <time>2022-10-28T10:23:31Z</time>
      </trkpt>
      <trkpt lat="44.42371" lon="3.59912">
        <ele>1169.4</ele>
        <time>2022-10-28T10:23:32Z</time>
      </trkpt>
      <trkpt lat="44.42374" lon="3.59913">
        <ele>1169.4</ele>
        <time>2022-10-28T10:23:33Z</time>
      </trkpt>
      <trkpt lat="44.42377" lon="3.59914">
        <ele>1169.6</ele>
        <time>2022-10-28T10:23:34Z</time>
      </trkpt>
      <trkpt lat="44.4238" lon="3.59915">
        <ele>1169.6</ele>
        <time>2022-10-28T10:23:35Z</time>
      </trkpt>
      <trkpt lat="44.42383" lon="3.59917">
        <ele>1169.8</ele>
        <time>2022-10-28T10:23:36Z</time>
      </trkpt>
      <trkpt lat="44.42387" lon="3.59918">
        <ele>1169.8</ele>
        <time>2022-10-28T10:23:37Z</time>
      </trkpt>
      <trkpt lat="44.4239" lon="3.5992">
        <ele>1170</ele>
        <time>2022-10-28T10:23:38Z</time>
      </trkpt>
      <trkpt lat="44.42393" lon="3.59922">
        <ele>1170</ele>
        <time>2022-10-28T10:23:39Z</time>
      </trkpt>
      <trkpt lat="44.42396" lon="3.59923">
        <ele>1170</ele>
        <time>2022-10-28T10:23:40Z</time>
      </trkpt>
      <trkpt lat="44.42399" lon="3.59925">
        <ele>1170.2</ele>
        <time>2022-10-28T10:23:41Z</time>
      </trkpt>
      <trkpt lat="44.42402" lon="3.59926">
        <ele>1170.2</ele>
        <time>2022-10-28T10:23:42Z</time>
      </trkpt>
      <trkpt lat="44.42405" lon="3.59928">
        <ele>1170.2</ele>
        <time>2022-10-28T10:23:43Z</time>
      </trkpt>
      <trkpt lat="44.42408" lon="3.5993">
        <ele>1170.4</ele>
        <time>2022-10-28T10:23:44Z</time>
      </trkpt>
      <trkpt lat="44.42411" lon="3.59932">
        <ele>1170.6</ele>
        <time>2022-10-28T10:23:45Z</time>
      </trkpt>
      <trkpt lat="44.42414" lon="3.59934">
        <ele>1170.6</ele>
        <time>2022-10-28T10:23:46Z</time>
      </trkpt>
      <trkpt lat="44.42417" lon="3.59936">
        <ele>1170.6</ele>
        <time>2022-10-28T10:23:47Z</time>
      </trkpt>
      <trkpt lat="44.4242" lon="3.59939">
        <ele>1170.6</ele>
        <time>2022-10-28T10:23:48Z</time>
      </trkpt>
      <trkpt lat="44.42423" lon="3.59941">
        <ele>1170.8</ele>
        <time>2022-10-28T10:23:49Z</time>
      </trkpt>
      <trkpt lat="44.42425" lon="3.59944">
        <ele>1171</ele>
        <time>2022-10-28T10:23:50Z</time>
      </trkpt>
      <trkpt lat="44.42428" lon="3.59947">
        <ele>1171</ele>
        <time>2022-10-28T10:23:51Z</time>
      </trkpt>
      <trkpt lat="44.4243" lon="3.5995">
        <ele>1171.2</ele>
        <time>2022-10-28T10:23:52Z</time>
      </trkpt>
      <trkpt lat="44.42433" lon="3.59953">
        <ele>1171.2</ele>
        <time>2022-10-28T10:23:53Z</time>
      </trkpt>
      <trkpt lat="44.42435" lon="3.59956">
        <ele>1171.4</ele>
        <time>2022-10-28T10:23:54Z</time>
      </trkpt>
      <trkpt lat="44.42438" lon="3.59959">
        <ele>1171.4</ele>
        <time>2022-10-28T10:23:55Z</time>
      </trkpt>
      <trkpt lat="44.4244" lon="3.59963">
        <ele>1171.6</ele>
        <time>2022-10-28T10:23:56Z</time>
      </trkpt>
      <trkpt lat="44.42442" lon="3.59966">
        <ele>1171.6</ele>
        <time>2022-10-28T10:23:57Z</time>
      </trkpt>
      <trkpt lat="44.42445" lon="3.59969">
        <ele>1171.8</ele>
        <time>2022-10-28T10:23:58Z</time>
      </trkpt>
      <trkpt lat="44.42448" lon="3.59972">
        <ele>1171.8</ele>
        <time>2022-10-28T10:23:59Z</time>
      </trkpt>
      <trkpt lat="44.4245" lon="3.59975">
        <ele>1172</ele>
        <time>2022-10-28T10:24:00Z</time>
      </trkpt>
      <trkpt lat="44.42452" lon="3.59978">
        <ele>1172</ele>
        <time>2022-10-28T10:24:01Z</time>
      </trkpt>
      <trkpt lat="44.42455" lon="3.59981">
        <ele>1172.2</ele>
        <time>2022-10-28T10:24:02Z</time>
      </trkpt>
      <trkpt lat="44.42457" lon="3.59985">
        <ele>1172.2</ele>
        <time>2022-10-28T10:24:03Z</time>
      </trkpt>
      <trkpt lat="44.42459" lon="3.59987">
        <ele>1172.4</ele>
        <time>2022-10-28T10:24:04Z</time>
      </trkpt>
      <trkpt lat="44.42461" lon="3.5999">
        <ele>1172.4</ele>
        <time>2022-10-28T10:24:05Z</time>
      </trkpt>
      <trkpt lat="44.42464" lon="3.59993">
        <ele>1172.6</ele>
        <time>2022-10-28T10:24:06Z</time>
      </trkpt>
      <trkpt lat="44.42466" lon="3.59996">
        <ele>1172.6</ele>
        <time>2022-10-28T10:24:07Z</time>
      </trkpt>
      <trkpt lat="44.42468" lon="3.59999">
        <ele>1172.8</ele>
        <time>2022-10-28T10:24:08Z</time>
      </trkpt>
      <trkpt lat="44.4247" lon="3.60002">
        <ele>1172.8</ele>
        <time>2022-10-28T10:24:09Z</time>
      </trkpt>
      <trkpt lat="44.42473" lon="3.60006">
        <ele>1173</ele>
        <time>2022-10-28T10:24:10Z</time>
      </trkpt>
      <trkpt lat="44.42476" lon="3.60009">
        <ele>1173</ele>
        <time>2022-10-28T10:24:11Z</time>
      </trkpt>
      <trkpt lat="44.42478" lon="3.60012">
        <ele>1173</ele>
        <time>2022-10-28T10:24:12Z</time>
      </trkpt>
      <trkpt lat="44.4248" lon="3.60016">
        <ele>1173.2</ele>
        <time>2022-10-28T10:24:13Z</time>
      </trkpt>
      <trkpt lat="44.42482" lon="3.60019">
        <ele>1173.2</ele>
        <time>2022-10-28T10:24:14Z</time>
      </trkpt>
      <trkpt lat="44.42485" lon="3.60022">
        <ele>1173.4</ele>
        <time>2022-10-28T10:24:15Z</time>
      </trkpt>
      <trkpt lat="44.42487" lon="3.60025">
        <ele>1173.4</ele>
        <time>2022-10-28T10:24:16Z</time>
      </trkpt>
      <trkpt lat="44.42489" lon="3.60028">
        <ele>1173.4</ele>
        <time>2022-10-28T10:24:17Z</time>
      </trkpt>
      <trkpt lat="44.42491" lon="3.60031">
        <ele>1173.4</ele>
        <time>2022-10-28T10:24:18Z</time>
      </trkpt>
      <trkpt lat="44.42493" lon="3.60034">
        <ele>1173.4</ele>
        <time>2022-10-28T10:24:19Z</time>
      </trkpt>
      <trkpt lat="44.42495" lon="3.60037">
        <ele>1173.4</ele>
        <time>2022-10-28T10:24:20Z</time>
      </trkpt>
      <trkpt lat="44.42497" lon="3.6004">
        <ele>1173.6</ele>
        <time>2022-10-28T10:24:21Z</time>
      </trkpt>
      <trkpt lat="44.425" lon="3.60043">
        <ele>1173.6</ele>
        <time>2022-10-28T10:24:22Z</time>
      </trkpt>
      <trkpt lat="44.42502" lon="3.60046">
        <ele>1173.6</ele>
        <time>2022-10-28T10:24:23Z</time>
      </trkpt>
      <trkpt lat="44.42504" lon="3.60049">
        <ele>1173.6</ele>
        <time>2022-10-28T10:24:24Z</time>
      </trkpt>
      <trkpt lat="44.42507" lon="3.60052">
        <ele>1173.6</ele>
        <time>2022-10-28T10:24:25Z</time>
      </trkpt>
      <trkpt lat="44.42509" lon="3.60055">
        <ele>1173.6</ele>
        <time>2022-10-28T10:24:26Z</time>
      </trkpt>
      <trkpt lat="44.42512" lon="3.60057">
        <ele>1173.6</ele>
        <time>2022-10-28T10:24:27Z</time>
      </trkpt>
      <trkpt lat="44.42514" lon="3.6006">
        <ele>1173.6</ele>
        <time>2022-10-28T10:24:28Z</time>
      </trkpt>
      <trkpt lat="44.42516" lon="3.60062">
        <ele>1173.8</ele>
        <time>2022-10-28T10:24:29Z</time>
      </trkpt>
      <trkpt lat="44.42518" lon="3.60065">
        <ele>1174</ele>
        <time>2022-10-28T10:24:30Z</time>
      </trkpt>
      <trkpt lat="44.4252" lon="3.60067">
        <ele>1174.2</ele>
        <time>2022-10-28T10:24:31Z</time>
      </trkpt>
      <trkpt lat="44.42521" lon="3.60069">
        <ele>1174.4</ele>
        <time>2022-10-28T10:24:32Z</time>
      </trkpt>
      <trkpt lat="44.42522" lon="3.60072">
        <ele>1174.6</ele>
        <time>2022-10-28T10:24:33Z</time>
      </trkpt>
      <trkpt lat="44.42523" lon="3.60074">
        <ele>1174.8</ele>
        <time>2022-10-28T10:24:34Z</time>
      </trkpt>
      <trkpt lat="44.42525" lon="3.60076">
        <ele>1175</ele>
        <time>2022-10-28T10:24:35Z</time>
      </trkpt>
      <trkpt lat="44.42526" lon="3.60078">
        <ele>1175.2</ele>
        <time>2022-10-28T10:24:36Z</time>
      </trkpt>
      <trkpt lat="44.42527" lon="3.6008">
        <ele>1175.4</ele>
        <time>2022-10-28T10:24:37Z</time>
      </trkpt>
      <trkpt lat="44.42529" lon="3.60082">
        <ele>1175.6</ele>
        <time>2022-10-28T10:24:38Z</time>
      </trkpt>
      <trkpt lat="44.42531" lon="3.60084">
        <ele>1175.8</ele>
        <time>2022-10-28T10:24:39Z</time>
      </trkpt>
      <trkpt lat="44.42532" lon="3.60086">
        <ele>1176</ele>
        <time>2022-10-28T10:24:40Z</time>
      </trkpt>
      <trkpt lat="44.42534" lon="3.60088">
        <ele>1176.2</ele>
        <time>2022-10-28T10:24:41Z</time>
      </trkpt>
      <trkpt lat="44.42535" lon="3.60091">
        <ele>1176.4</ele>
        <time>2022-10-28T10:24:42Z</time>
      </trkpt>
      <trkpt lat="44.42537" lon="3.60093">
        <ele>1176.6</ele>
        <time>2022-10-28T10:24:43Z</time>
      </trkpt>
      <trkpt lat="44.42538" lon="3.60095">
        <ele>1177</ele>
        <time>2022-10-28T10:24:44Z</time>
      </trkpt>
      <trkpt lat="44.4254" lon="3.60097">
        <ele>1177.2</ele>
        <time>2022-10-28T10:24:45Z</time>
      </trkpt>
      <trkpt lat="44.42541" lon="3.60099">
        <ele>1177.4</ele>
        <time>2022-10-28T10:24:46Z</time>
      </trkpt>
      <trkpt lat="44.42543" lon="3.60101">
        <ele>1177.6</ele>
        <time>2022-10-28T10:24:47Z</time>
      </trkpt>
      <trkpt lat="44.42545" lon="3.60103">
        <ele>1177.8</ele>
        <time>2022-10-28T10:24:48Z</time>
      </trkpt>
      <trkpt lat="44.42546" lon="3.60104">
        <ele>1178</ele>
        <time>2022-10-28T10:24:49Z</time>
      </trkpt>
      <trkpt lat="44.42548" lon="3.60106">
        <ele>1178.2</ele>
        <time>2022-10-28T10:24:50Z</time>
      </trkpt>
      <trkpt lat="44.4255" lon="3.60108">
        <ele>1178.2</ele>
        <time>2022-10-28T10:24:51Z</time>
      </trkpt>
      <trkpt lat="44.42551" lon="3.60109">
        <ele>1178.4</ele>
        <time>2022-10-28T10:24:52Z</time>
      </trkpt>
      <trkpt lat="44.42553" lon="3.60111">
        <ele>1178.6</ele>
        <time>2022-10-28T10:24:53Z</time>
      </trkpt>
      <trkpt lat="44.42554" lon="3.60114">
        <ele>1178.6</ele>
        <time>2022-10-28T10:24:54Z</time>
      </trkpt>
      <trkpt lat="44.42555" lon="3.60116">
        <ele>1178.8</ele>
        <time>2022-10-28T10:24:55Z</time>
      </trkpt>
      <trkpt lat="44.42556" lon="3.60118">
        <ele>1178.8</ele>
        <time>2022-10-28T10:24:56Z</time>
      </trkpt>
      <trkpt lat="44.42557" lon="3.6012">
        <ele>1179</ele>
        <time>2022-10-28T10:24:57Z</time>
      </trkpt>
      <trkpt lat="44.42558" lon="3.60122">
        <ele>1179.2</ele>
        <time>2022-10-28T10:24:58Z</time>
      </trkpt>
      <trkpt lat="44.42559" lon="3.60124">
        <ele>1179.4</ele>
        <time>2022-10-28T10:24:59Z</time>
      </trkpt>
      <trkpt lat="44.4256" lon="3.60126">
        <ele>1179.6</ele>
        <time>2022-10-28T10:25:00Z</time>
      </trkpt>
      <trkpt lat="44.42561" lon="3.60129">
        <ele>1179.8</ele>
        <time>2022-10-28T10:25:01Z</time>
      </trkpt>
      <trkpt lat="44.42562" lon="3.60131">
        <ele>1180</ele>
        <time>2022-10-28T10:25:02Z</time>
      </trkpt>
      <trkpt lat="44.42563" lon="3.60133">
        <ele>1180.2</ele>
        <time>2022-10-28T10:25:03Z</time>
      </trkpt>
      <trkpt lat="44.42564" lon="3.60135">
        <ele>1180.4</ele>
        <time>2022-10-28T10:25:04Z</time>
      </trkpt>
      <trkpt lat="44.42566" lon="3.60137">
        <ele>1180.6</ele>
        <time>2022-10-28T10:25:05Z</time>
      </trkpt>
      <trkpt lat="44.42567" lon="3.60139">
        <ele>1180.8</ele>
        <time>2022-10-28T10:25:06Z</time>
      </trkpt>
      <trkpt lat="44.42568" lon="3.60141">
        <ele>1181</ele>
        <time>2022-10-28T10:25:07Z</time>
      </trkpt>
      <trkpt lat="44.42569" lon="3.60143">
        <ele>1181</ele>
        <time>2022-10-28T10:25:08Z</time>
      </trkpt>
      <trkpt lat="44.4257" lon="3.60145">
        <ele>1181.2</ele>
        <time>2022-10-28T10:25:09Z</time>
      </trkpt>
      <trkpt lat="44.4257" lon="3.60147">
        <ele>1181.4</ele>
        <time>2022-10-28T10:25:10Z</time>
      </trkpt>
      <trkpt lat="44.42571" lon="3.60148">
        <ele>1181.6</ele>
        <time>2022-10-28T10:25:11Z</time>
      </trkpt>
      <trkpt lat="44.42572" lon="3.6015">
        <ele>1181.6</ele>
        <time>2022-10-28T10:25:12Z</time>
      </trkpt>
      <trkpt lat="44.42574" lon="3.60152">
        <ele>1181.8</ele>
        <time>2022-10-28T10:25:13Z</time>
      </trkpt>
      <trkpt lat="44.42575" lon="3.60153">
        <ele>1182</ele>
        <time>2022-10-28T10:25:14Z</time>
      </trkpt>
      <trkpt lat="44.42576" lon="3.60155">
        <ele>1182.2</ele>
        <time>2022-10-28T10:25:15Z</time>
      </trkpt>
      <trkpt lat="44.42578" lon="3.60157">
        <ele>1182.4</ele>
        <time>2022-10-28T10:25:16Z</time>
      </trkpt>
      <trkpt lat="44.42579" lon="3.60159">
        <ele>1182.4</ele>
        <time>2022-10-28T10:25:17Z</time>
      </trkpt>
      <trkpt lat="44.4258" lon="3.6016">
        <ele>1182.6</ele>
        <time>2022-10-28T10:25:18Z</time>
      </trkpt>
      <trkpt lat="44.42582" lon="3.60161">
        <ele>1182.8</ele>
        <time>2022-10-28T10:25:19Z</time>
      </trkpt>
      <trkpt lat="44.42583" lon="3.60163">
        <ele>1183</ele>
        <time>2022-10-28T10:25:20Z</time>
      </trkpt>
      <trkpt lat="44.42584" lon="3.60165">
        <ele>1183.2</ele>
        <time>2022-10-28T10:25:21Z</time>
      </trkpt>
      <trkpt lat="44.42585" lon="3.60167">
        <ele>1183.2</ele>
        <time>2022-10-28T10:25:22Z</time>
      </trkpt>
      <trkpt lat="44.42586" lon="3.60169">
        <ele>1183.4</ele>
        <time>2022-10-28T10:25:23Z</time>
      </trkpt>
      <trkpt lat="44.42586" lon="3.60172">
        <ele>1183.6</ele>
        <time>2022-10-28T10:25:24Z</time>
      </trkpt>
      <trkpt lat="44.42587" lon="3.60174">
        <ele>1183.6</ele>
        <time>2022-10-28T10:25:25Z</time>
      </trkpt>
      <trkpt lat="44.42587" lon="3.60176">
        <ele>1183.8</ele>
        <time>2022-10-28T10:25:26Z</time>
      </trkpt>
      <trkpt lat="44.42587" lon="3.60179">
        <ele>1184</ele>
        <time>2022-10-28T10:25:27Z</time>
      </trkpt>
      <trkpt lat="44.42588" lon="3.60181">
        <ele>1184</ele>
        <time>2022-10-28T10:25:28Z</time>
      </trkpt>
      <trkpt lat="44.42589" lon="3.60184">
        <ele>1184.2</ele>
        <time>2022-10-28T10:25:29Z</time>
      </trkpt>
      <trkpt lat="44.42589" lon="3.60186">
        <ele>1184.2</ele>
        <time>2022-10-28T10:25:30Z</time>
      </trkpt>
      <trkpt lat="44.4259" lon="3.60188">
        <ele>1184.4</ele>
        <time>2022-10-28T10:25:31Z</time>
      </trkpt>
      <trkpt lat="44.4259" lon="3.60191">
        <ele>1184.6</ele>
        <time>2022-10-28T10:25:32Z</time>
      </trkpt>
      <trkpt lat="44.42591" lon="3.60193">
        <ele>1184.6</ele>
        <time>2022-10-28T10:25:33Z</time>
      </trkpt>
      <trkpt lat="44.42591" lon="3.60195">
        <ele>1184.8</ele>
        <time>2022-10-28T10:25:34Z</time>
      </trkpt>
      <trkpt lat="44.42591" lon="3.60198">
        <ele>1185</ele>
        <time>2022-10-28T10:25:35Z</time>
      </trkpt>
      <trkpt lat="44.42592" lon="3.602">
        <ele>1185.2</ele>
        <time>2022-10-28T10:25:36Z</time>
      </trkpt>
      <trkpt lat="44.42592" lon="3.60202">
        <ele>1185.4</ele>
        <time>2022-10-28T10:25:37Z</time>
      </trkpt>
      <trkpt lat="44.42592" lon="3.60203">
        <ele>1185.6</ele>
        <time>2022-10-28T10:25:38Z</time>
      </trkpt>
      <trkpt lat="44.42593" lon="3.60205">
        <ele>1185.8</ele>
        <time>2022-10-28T10:25:39Z</time>
      </trkpt>
      <trkpt lat="44.42593" lon="3.60207">
        <ele>1186</ele>
        <time>2022-10-28T10:25:40Z</time>
      </trkpt>
      <trkpt lat="44.42594" lon="3.6021">
        <ele>1186</ele>
        <time>2022-10-28T10:25:41Z</time>
      </trkpt>
      <trkpt lat="44.42595" lon="3.60212">
        <ele>1186.2</ele>
        <time>2022-10-28T10:25:42Z</time>
      </trkpt>
      <trkpt lat="44.42595" lon="3.60214">
        <ele>1186.4</ele>
        <time>2022-10-28T10:25:43Z</time>
      </trkpt>
      <trkpt lat="44.42596" lon="3.60215">
        <ele>1186.6</ele>
        <time>2022-10-28T10:25:44Z</time>
      </trkpt>
      <trkpt lat="44.42596" lon="3.60217">
        <ele>1186.8</ele>
        <time>2022-10-28T10:25:45Z</time>
      </trkpt>
      <trkpt lat="44.42597" lon="3.60219">
        <ele>1187</ele>
        <time>2022-10-28T10:25:46Z</time>
      </trkpt>
      <trkpt lat="44.42598" lon="3.60221">
        <ele>1187</ele>
        <time>2022-10-28T10:25:47Z</time>
      </trkpt>
      <trkpt lat="44.42598" lon="3.60223">
        <ele>1187.2</ele>
        <time>2022-10-28T10:25:48Z</time>
      </trkpt>
      <trkpt lat="44.42599" lon="3.60225">
        <ele>1187.4</ele>
        <time>2022-10-28T10:25:49Z</time>
      </trkpt>
      <trkpt lat="44.426" lon="3.60227">
        <ele>1187.6</ele>
        <time>2022-10-28T10:25:50Z</time>
      </trkpt>
      <trkpt lat="44.42601" lon="3.60229">
        <ele>1187.8</ele>
        <time>2022-10-28T10:25:51Z</time>
      </trkpt>
      <trkpt lat="44.42602" lon="3.6023">
        <ele>1188</ele>
        <time>2022-10-28T10:25:52Z</time>
      </trkpt>
      <trkpt lat="44.42603" lon="3.60232">
        <ele>1188.2</ele>
        <time>2022-10-28T10:25:53Z</time>
      </trkpt>
      <trkpt lat="44.42603" lon="3.60234">
        <ele>1188.4</ele>
        <time>2022-10-28T10:25:54Z</time>
      </trkpt>
      <trkpt lat="44.42604" lon="3.60236">
        <ele>1188.6</ele>
        <time>2022-10-28T10:25:55Z</time>
      </trkpt>
      <trkpt lat="44.42605" lon="3.60237">
        <ele>1188.8</ele>
        <time>2022-10-28T10:25:56Z</time>
      </trkpt>
      <trkpt lat="44.42605" lon="3.60239">
        <ele>1189</ele>
        <time>2022-10-28T10:25:57Z</time>
      </trkpt>
      <trkpt lat="44.42606" lon="3.60241">
        <ele>1189.2</ele>
        <time>2022-10-28T10:25:58Z</time>
      </trkpt>
      <trkpt lat="44.42607" lon="3.60243">
        <ele>1189.4</ele>
        <time>2022-10-28T10:25:59Z</time>
      </trkpt>
      <trkpt lat="44.42607" lon="3.60245">
        <ele>1189.6</ele>
        <time>2022-10-28T10:26:00Z</time>
      </trkpt>
      <trkpt lat="44.42607" lon="3.60246">
        <ele>1189.8</ele>
        <time>2022-10-28T10:26:01Z</time>
      </trkpt>
      <trkpt lat="44.42607" lon="3.60248">
        <ele>1190</ele>
        <time>2022-10-28T10:26:02Z</time>
      </trkpt>
      <trkpt lat="44.42607" lon="3.60249">
        <ele>1190.2</ele>
        <time>2022-10-28T10:26:03Z</time>
      </trkpt>
      <trkpt lat="44.42608" lon="3.60251">
        <ele>1190.4</ele>
        <time>2022-10-28T10:26:04Z</time>
      </trkpt>
      <trkpt lat="44.42608" lon="3.60252">
        <ele>1190.6</ele>
        <time>2022-10-28T10:26:05Z</time>
      </trkpt>
      <trkpt lat="44.42609" lon="3.60253">
        <ele>1190.8</ele>
        <time>2022-10-28T10:26:06Z</time>
      </trkpt>
      <trkpt lat="44.4261" lon="3.60255">
        <ele>1191</ele>
        <time>2022-10-28T10:26:07Z</time>
      </trkpt>
      <trkpt lat="44.42611" lon="3.60256">
        <ele>1191.2</ele>
        <time>2022-10-28T10:26:08Z</time>
      </trkpt>
      <trkpt lat="44.42612" lon="3.60257">
        <ele>1191.4</ele>
        <time>2022-10-28T10:26:09Z</time>
      </trkpt>
      <trkpt lat="44.42612" lon="3.60258">
        <ele>1191.6</ele>
        <time>2022-10-28T10:26:10Z</time>
      </trkpt>
      <trkpt lat="44.42613" lon="3.6026">
        <ele>1191.8</ele>
        <time>2022-10-28T10:26:11Z</time>
      </trkpt>
      <trkpt lat="44.42614" lon="3.60261">
        <ele>1192</ele>
        <time>2022-10-28T10:26:12Z</time>
      </trkpt>
      <trkpt lat="44.42615" lon="3.60262">
        <ele>1192.2</ele>
        <time>2022-10-28T10:26:13Z</time>
      </trkpt>
      <trkpt lat="44.42616" lon="3.60264">
        <ele>1192.4</ele>
        <time>2022-10-28T10:26:14Z</time>
      </trkpt>
      <trkpt lat="44.42617" lon="3.60266">
        <ele>1192.6</ele>
        <time>2022-10-28T10:26:15Z</time>
      </trkpt>
      <trkpt lat="44.42617" lon="3.60267">
        <ele>1192.8</ele>
        <time>2022-10-28T10:26:16Z</time>
      </trkpt>
      <trkpt lat="44.42618" lon="3.60269">
        <ele>1192.8</ele>
        <time>2022-10-28T10:26:17Z</time>
      </trkpt>
      <trkpt lat="44.42618" lon="3.6027">
        <ele>1193</ele>
        <time>2022-10-28T10:26:18Z</time>
      </trkpt>
      <trkpt lat="44.42619" lon="3.60272">
        <ele>1193.2</ele>
        <time>2022-10-28T10:26:19Z</time>
      </trkpt>
      <trkpt lat="44.42619" lon="3.60274">
        <ele>1193.4</ele>
        <time>2022-10-28T10:26:20Z</time>
      </trkpt>
      <trkpt lat="44.4262" lon="3.60275">
        <ele>1193.4</ele>
        <time>2022-10-28T10:26:21Z</time>
      </trkpt>
      <trkpt lat="44.4262" lon="3.60277">
        <ele>1193.6</ele>
        <time>2022-10-28T10:26:22Z</time>
      </trkpt>
      <trkpt lat="44.42621" lon="3.60279">
        <ele>1193.8</ele>
        <time>2022-10-28T10:26:23Z</time>
      </trkpt>
      <trkpt lat="44.42622" lon="3.6028">
        <ele>1194</ele>
        <time>2022-10-28T10:26:24Z</time>
      </trkpt>
      <trkpt lat="44.42622" lon="3.60282">
        <ele>1194</ele>
        <time>2022-10-28T10:26:25Z</time>
      </trkpt>
      <trkpt lat="44.42623" lon="3.60284">
        <ele>1194.2</ele>
        <time>2022-10-28T10:26:26Z</time>
      </trkpt>
      <trkpt lat="44.42624" lon="3.60285">
        <ele>1194.4</ele>
        <time>2022-10-28T10:26:27Z</time>
      </trkpt>
      <trkpt lat="44.42625" lon="3.60287">
        <ele>1194.6</ele>
        <time>2022-10-28T10:26:28Z</time>
      </trkpt>
      <trkpt lat="44.42625" lon="3.60288">
        <ele>1194.8</ele>
        <time>2022-10-28T10:26:29Z</time>
      </trkpt>
      <trkpt lat="44.42627" lon="3.60288">
        <ele>1195</ele>
        <time>2022-10-28T10:26:30Z</time>
      </trkpt>
      <trkpt lat="44.42628" lon="3.60289">
        <ele>1195.2</ele>
        <time>2022-10-28T10:26:31Z</time>
      </trkpt>
      <trkpt lat="44.42629" lon="3.6029">
        <ele>1195.2</ele>
        <time>2022-10-28T10:26:32Z</time>
      </trkpt>
      <trkpt lat="44.4263" lon="3.60291">
        <ele>1195.4</ele>
        <time>2022-10-28T10:26:33Z</time>
      </trkpt>
      <trkpt lat="44.42632" lon="3.60292">
        <ele>1195.6</ele>
        <time>2022-10-28T10:26:34Z</time>
      </trkpt>
      <trkpt lat="44.42633" lon="3.60292">
        <ele>1195.8</ele>
        <time>2022-10-28T10:26:35Z</time>
      </trkpt>
      <trkpt lat="44.42634" lon="3.60293">
        <ele>1196</ele>
        <time>2022-10-28T10:26:36Z</time>
      </trkpt>
      <trkpt lat="44.42635" lon="3.60293">
        <ele>1196.2</ele>
        <time>2022-10-28T10:26:37Z</time>
      </trkpt>
      <trkpt lat="44.42637" lon="3.60293">
        <ele>1196.4</ele>
        <time>2022-10-28T10:26:38Z</time>
      </trkpt>
      <trkpt lat="44.42638" lon="3.60294">
        <ele>1196.6</ele>
        <time>2022-10-28T10:26:39Z</time>
      </trkpt>
      <trkpt lat="44.4264" lon="3.60294">
        <ele>1196.6</ele>
        <time>2022-10-28T10:26:40Z</time>
      </trkpt>
      <trkpt lat="44.42641" lon="3.60294">
        <ele>1196.8</ele>
        <time>2022-10-28T10:26:41Z</time>
      </trkpt>
      <trkpt lat="44.42642" lon="3.60294">
        <ele>1197</ele>
        <time>2022-10-28T10:26:42Z</time>
      </trkpt>
      <trkpt lat="44.42644" lon="3.60295">
        <ele>1197.4</ele>
        <time>2022-10-28T10:26:43Z</time>
      </trkpt>
      <trkpt lat="44.42645" lon="3.60295">
        <ele>1197.6</ele>
        <time>2022-10-28T10:26:44Z</time>
      </trkpt>
      <trkpt lat="44.42646" lon="3.60295">
        <ele>1197.8</ele>
        <time>2022-10-28T10:26:45Z</time>
      </trkpt>
      <trkpt lat="44.42648" lon="3.60295">
        <ele>1198</ele>
        <time>2022-10-28T10:26:46Z</time>
      </trkpt>
      <trkpt lat="44.42649" lon="3.60296">
        <ele>1198.2</ele>
        <time>2022-10-28T10:26:47Z</time>
      </trkpt>
      <trkpt lat="44.4265" lon="3.60296">
        <ele>1198.4</ele>
        <time>2022-10-28T10:26:48Z</time>
      </trkpt>
      <trkpt lat="44.42652" lon="3.60297">
        <ele>1198.6</ele>
        <time>2022-10-28T10:26:49Z</time>
      </trkpt>
      <trkpt lat="44.42653" lon="3.60297">
        <ele>1198.6</ele>
        <time>2022-10-28T10:26:50Z</time>
      </trkpt>
      <trkpt lat="44.42654" lon="3.60298">
        <ele>1198.8</ele>
        <time>2022-10-28T10:26:51Z</time>
      </trkpt>
      <trkpt lat="44.42656" lon="3.60299">
        <ele>1199</ele>
        <time>2022-10-28T10:26:52Z</time>
      </trkpt>
      <trkpt lat="44.42657" lon="3.603">
        <ele>1199.2</ele>
        <time>2022-10-28T10:26:53Z</time>
      </trkpt>
      <trkpt lat="44.42658" lon="3.60301">
        <ele>1199.2</ele>
        <time>2022-10-28T10:26:54Z</time>
      </trkpt>
      <trkpt lat="44.42659" lon="3.60303">
        <ele>1199.4</ele>
        <time>2022-10-28T10:26:55Z</time>
      </trkpt>
      <trkpt lat="44.42659" lon="3.60304">
        <ele>1199.6</ele>
        <time>2022-10-28T10:26:56Z</time>
      </trkpt>
      <trkpt lat="44.4266" lon="3.60306">
        <ele>1199.6</ele>
        <time>2022-10-28T10:26:57Z</time>
      </trkpt>
      <trkpt lat="44.42661" lon="3.60307">
        <ele>1199.8</ele>
        <time>2022-10-28T10:26:58Z</time>
      </trkpt>
      <trkpt lat="44.42662" lon="3.60309">
        <ele>1199.8</ele>
        <time>2022-10-28T10:26:59Z</time>
      </trkpt>
      <trkpt lat="44.42663" lon="3.60311">
        <ele>1200</ele>
        <time>2022-10-28T10:27:00Z</time>
      </trkpt>
      <trkpt lat="44.42663" lon="3.60312">
        <ele>1200.2</ele>
        <time>2022-10-28T10:27:01Z</time>
      </trkpt>
      <trkpt lat="44.42664" lon="3.60314">
        <ele>1200.4</ele>
        <time>2022-10-28T10:27:02Z</time>
      </trkpt>
      <trkpt lat="44.42665" lon="3.60315">
        <ele>1200.6</ele>
        <time>2022-10-28T10:27:03Z</time>
      </trkpt>
      <trkpt lat="44.42665" lon="3.60317">
        <ele>1200.6</ele>
        <time>2022-10-28T10:27:04Z</time>
      </trkpt>
      <trkpt lat="44.42666" lon="3.60318">
        <ele>1200.8</ele>
        <time>2022-10-28T10:27:05Z</time>
      </trkpt>
      <trkpt lat="44.42667" lon="3.6032">
        <ele>1201</ele>
        <time>2022-10-28T10:27:06Z</time>
      </trkpt>
      <trkpt lat="44.42668" lon="3.60321">
        <ele>1201.2</ele>
        <time>2022-10-28T10:27:07Z</time>
      </trkpt>
      <trkpt lat="44.42669" lon="3.60322">
        <ele>1201.4</ele>
        <time>2022-10-28T10:27:08Z</time>
      </trkpt>
      <trkpt lat="44.4267" lon="3.60324">
        <ele>1201.6</ele>
        <time>2022-10-28T10:27:09Z</time>
      </trkpt>
      <trkpt lat="44.4267" lon="3.60325">
        <ele>1201.8</ele>
        <time>2022-10-28T10:27:10Z</time>
      </trkpt>
      <trkpt lat="44.42671" lon="3.60327">
        <ele>1202</ele>
        <time>2022-10-28T10:27:11Z</time>
      </trkpt>
      <trkpt lat="44.42672" lon="3.60328">
        <ele>1202.2</ele>
        <time>2022-10-28T10:27:12Z</time>
      </trkpt>
      <trkpt lat="44.42673" lon="3.60329">
        <ele>1202.4</ele>
        <time>2022-10-28T10:27:13Z</time>
      </trkpt>
      <trkpt lat="44.42674" lon="3.6033">
        <ele>1202.4</ele>
        <time>2022-10-28T10:27:14Z</time>
      </trkpt>
      <trkpt lat="44.42674" lon="3.60331">
        <ele>1202.6</ele>
        <time>2022-10-28T10:27:15Z</time>
      </trkpt>
      <trkpt lat="44.42675" lon="3.60332">
        <ele>1202.8</ele>
        <time>2022-10-28T10:27:16Z</time>
      </trkpt>
      <trkpt lat="44.42677" lon="3.60333">
        <ele>1203</ele>
        <time>2022-10-28T10:27:22Z</time>
      </trkpt>
      <trkpt lat="44.42678" lon="3.60334">
        <ele>1203</ele>
        <time>2022-10-28T10:27:23Z</time>
      </trkpt>
      <trkpt lat="44.42679" lon="3.60335">
        <ele>1203.2</ele>
        <time>2022-10-28T10:27:24Z</time>
      </trkpt>
      <trkpt lat="44.4268" lon="3.60336">
        <ele>1203.2</ele>
        <time>2022-10-28T10:27:25Z</time>
      </trkpt>
      <trkpt lat="44.4268" lon="3.60336">
        <ele>1203.4</ele>
        <time>2022-10-28T10:27:26Z</time>
      </trkpt>
      <trkpt lat="44.42681" lon="3.60337">
        <ele>1203.4</ele>
        <time>2022-10-28T10:27:27Z</time>
      </trkpt>
      <trkpt lat="44.42682" lon="3.60338">
        <ele>1203.6</ele>
        <time>2022-10-28T10:27:28Z</time>
      </trkpt>
      <trkpt lat="44.42682" lon="3.60339">
        <ele>1203.8</ele>
        <time>2022-10-28T10:27:29Z</time>
      </trkpt>
      <trkpt lat="44.42683" lon="3.6034">
        <ele>1203.8</ele>
        <time>2022-10-28T10:27:30Z</time>
      </trkpt>
      <trkpt lat="44.42684" lon="3.60341">
        <ele>1204</ele>
        <time>2022-10-28T10:27:31Z</time>
      </trkpt>
      <trkpt lat="44.42684" lon="3.60341">
        <ele>1204.2</ele>
        <time>2022-10-28T10:27:32Z</time>
      </trkpt>
      <trkpt lat="44.42685" lon="3.60342">
        <ele>1204.2</ele>
        <time>2022-10-28T10:27:33Z</time>
      </trkpt>
      <trkpt lat="44.42685" lon="3.60343">
        <ele>1204.4</ele>
        <time>2022-10-28T10:27:34Z</time>
      </trkpt>
      <trkpt lat="44.42686" lon="3.60344">
        <ele>1204.6</ele>
        <time>2022-10-28T10:27:35Z</time>
      </trkpt>
      <trkpt lat="44.42687" lon="3.60345">
        <ele>1204.8</ele>
        <time>2022-10-28T10:27:36Z</time>
      </trkpt>
      <trkpt lat="44.42687" lon="3.60345">
        <ele>1205</ele>
        <time>2022-10-28T10:27:37Z</time>
      </trkpt>
      <trkpt lat="44.42687" lon="3.60346">
        <ele>1205</ele>
        <time>2022-10-28T10:27:38Z</time>
      </trkpt>
      <trkpt lat="44.42688" lon="3.60346">
        <ele>1205.2</ele>
        <time>2022-10-28T10:27:39Z</time>
      </trkpt>
      <trkpt lat="44.42689" lon="3.60347">
        <ele>1205.4</ele>
        <time>2022-10-28T10:27:40Z</time>
      </trkpt>
      <trkpt lat="44.42689" lon="3.60348">
        <ele>1205.6</ele>
        <time>2022-10-28T10:27:41Z</time>
      </trkpt>
      <trkpt lat="44.4269" lon="3.60348">
        <ele>1205.8</ele>
        <time>2022-10-28T10:27:42Z</time>
      </trkpt>
      <trkpt lat="44.4269" lon="3.60349">
        <ele>1206</ele>
        <time>2022-10-28T10:27:43Z</time>
      </trkpt>
      <trkpt lat="44.4269" lon="3.6035">
        <ele>1206.2</ele>
        <time>2022-10-28T10:27:44Z</time>
      </trkpt>
      <trkpt lat="44.42691" lon="3.60351">
        <ele>1206.4</ele>
        <time>2022-10-28T10:27:45Z</time>
      </trkpt>
      <trkpt lat="44.42691" lon="3.60351">
        <ele>1206.6</ele>
        <time>2022-10-28T10:27:46Z</time>
      </trkpt>
      <trkpt lat="44.42692" lon="3.60352">
        <ele>1206.8</ele>
        <time>2022-10-28T10:27:47Z</time>
      </trkpt>
      <trkpt lat="44.42692" lon="3.60352">
        <ele>1207</ele>
        <time>2022-10-28T10:27:48Z</time>
      </trkpt>
      <trkpt lat="44.42692" lon="3.60352">
        <ele>1207</ele>
        <time>2022-10-28T10:27:49Z</time>
      </trkpt>
      <trkpt lat="44.42693" lon="3.60353">
        <ele>1207.2</ele>
        <time>2022-10-28T10:27:50Z</time>
      </trkpt>
      <trkpt lat="44.42694" lon="3.60353">
        <ele>1207.4</ele>
        <time>2022-10-28T10:27:51Z</time>
      </trkpt>
      <trkpt lat="44.42694" lon="3.60354">
        <ele>1207.4</ele>
        <time>2022-10-28T10:27:52Z</time>
      </trkpt>
      <trkpt lat="44.42694" lon="3.60355">
        <ele>1207.6</ele>
        <time>2022-10-28T10:27:53Z</time>
      </trkpt>
      <trkpt lat="44.42695" lon="3.60355">
        <ele>1207.8</ele>
        <time>2022-10-28T10:27:54Z</time>
      </trkpt>
      <trkpt lat="44.42695" lon="3.60356">
        <ele>1207.8</ele>
        <time>2022-10-28T10:27:55Z</time>
      </trkpt>
      <trkpt lat="44.42696" lon="3.60356">
        <ele>1208</ele>
        <time>2022-10-28T10:27:56Z</time>
      </trkpt>
      <trkpt lat="44.42696" lon="3.60357">
        <ele>1208.2</ele>
        <time>2022-10-28T10:27:57Z</time>
      </trkpt>
      <trkpt lat="44.42696" lon="3.60358">
        <ele>1208.2</ele>
        <time>2022-10-28T10:27:58Z</time>
      </trkpt>
      <trkpt lat="44.42697" lon="3.60358">
        <ele>1208.4</ele>
        <time>2022-10-28T10:27:59Z</time>
      </trkpt>
      <trkpt lat="44.42697" lon="3.60359">
        <ele>1208.6</ele>
        <time>2022-10-28T10:28:00Z</time>
      </trkpt>
      <trkpt lat="44.42706" lon="3.60367">
        <ele>1209.2</ele>
        <time>2022-10-28T10:28:17Z</time>
      </trkpt>
      <trkpt lat="44.42707" lon="3.60368">
        <ele>1209.2</ele>
        <time>2022-10-28T10:28:18Z</time>
      </trkpt>
      <trkpt lat="44.42707" lon="3.60368">
        <ele>1209.2</ele>
        <time>2022-10-28T10:28:19Z</time>
      </trkpt>
      <trkpt lat="44.42708" lon="3.60369">
        <ele>1209.4</ele>
        <time>2022-10-28T10:28:20Z</time>
      </trkpt>
      <trkpt lat="44.42709" lon="3.60369">
        <ele>1209.4</ele>
        <time>2022-10-28T10:28:21Z</time>
      </trkpt>
      <trkpt lat="44.4271" lon="3.6037">
        <ele>1209.4</ele>
        <time>2022-10-28T10:28:22Z</time>
      </trkpt>
      <trkpt lat="44.42711" lon="3.6037">
        <ele>1209.6</ele>
        <time>2022-10-28T10:28:23Z</time>
      </trkpt>
      <trkpt lat="44.42712" lon="3.60371">
        <ele>1209.8</ele>
        <time>2022-10-28T10:28:24Z</time>
      </trkpt>
      <trkpt lat="44.42712" lon="3.60371">
        <ele>1210</ele>
        <time>2022-10-28T10:28:25Z</time>
      </trkpt>
      <trkpt lat="44.42713" lon="3.60371">
        <ele>1210</ele>
        <time>2022-10-28T10:28:26Z</time>
      </trkpt>
      <trkpt lat="44.42714" lon="3.60372">
        <ele>1210.2</ele>
        <time>2022-10-28T10:28:27Z</time>
      </trkpt>
      <trkpt lat="44.42715" lon="3.60372">
        <ele>1210.4</ele>
        <time>2022-10-28T10:28:28Z</time>
      </trkpt>
      <trkpt lat="44.42715" lon="3.60373">
        <ele>1210.6</ele>
        <time>2022-10-28T10:28:29Z</time>
      </trkpt>
      <trkpt lat="44.42716" lon="3.60373">
        <ele>1210.8</ele>
        <time>2022-10-28T10:28:30Z</time>
      </trkpt>
      <trkpt lat="44.42717" lon="3.60374">
        <ele>1210.8</ele>
        <time>2022-10-28T10:28:31Z</time>
      </trkpt>
      <trkpt lat="44.42717" lon="3.60374">
        <ele>1211</ele>
        <time>2022-10-28T10:28:32Z</time>
      </trkpt>
      <trkpt lat="44.42718" lon="3.60374">
        <ele>1211.2</ele>
        <time>2022-10-28T10:28:33Z</time>
      </trkpt>
      <trkpt lat="44.42718" lon="3.60374">
        <ele>1211.2</ele>
        <time>2022-10-28T10:28:34Z</time>
      </trkpt>
      <trkpt lat="44.42718" lon="3.60374">
        <ele>1211.4</ele>
        <time>2022-10-28T10:28:35Z</time>
      </trkpt>
      <trkpt lat="44.42718" lon="3.60374">
        <ele>1211.4</ele>
        <time>2022-10-28T10:28:36Z</time>
      </trkpt>
      <trkpt lat="44.42718" lon="3.60374">
        <ele>1211.4</ele>
        <time>2022-10-28T10:28:37Z</time>
      </trkpt>
      <trkpt lat="44.42719" lon="3.60375">
        <ele>1211.6</ele>
        <time>2022-10-28T10:28:39Z</time>
      </trkpt>
      <trkpt lat="44.4272" lon="3.60375">
        <ele>1211.6</ele>
        <time>2022-10-28T10:28:40Z</time>
      </trkpt>
      <trkpt lat="44.42721" lon="3.60376">
        <ele>1211.8</ele>
        <time>2022-10-28T10:28:41Z</time>
      </trkpt>
      <trkpt lat="44.42722" lon="3.60376">
        <ele>1212</ele>
        <time>2022-10-28T10:28:42Z</time>
      </trkpt>
      <trkpt lat="44.42723" lon="3.60377">
        <ele>1212.2</ele>
        <time>2022-10-28T10:28:43Z</time>
      </trkpt>
      <trkpt lat="44.42724" lon="3.60377">
        <ele>1212.4</ele>
        <time>2022-10-28T10:28:44Z</time>
      </trkpt>
      <trkpt lat="44.42724" lon="3.60378">
        <ele>1212.6</ele>
        <time>2022-10-28T10:28:45Z</time>
      </trkpt>
      <trkpt lat="44.42725" lon="3.60379">
        <ele>1212.6</ele>
        <time>2022-10-28T10:28:46Z</time>
      </trkpt>
      <trkpt lat="44.42726" lon="3.60379">
        <ele>1212.8</ele>
        <time>2022-10-28T10:28:47Z</time>
      </trkpt>
      <trkpt lat="44.42726" lon="3.6038">
        <ele>1213</ele>
        <time>2022-10-28T10:28:48Z</time>
      </trkpt>
      <trkpt lat="44.42727" lon="3.60381">
        <ele>1213</ele>
        <time>2022-10-28T10:28:49Z</time>
      </trkpt>
      <trkpt lat="44.42728" lon="3.60382">
        <ele>1213.2</ele>
        <time>2022-10-28T10:28:50Z</time>
      </trkpt>
      <trkpt lat="44.42728" lon="3.60382">
        <ele>1213.4</ele>
        <time>2022-10-28T10:28:51Z</time>
      </trkpt>
      <trkpt lat="44.42729" lon="3.60383">
        <ele>1213.6</ele>
        <time>2022-10-28T10:28:52Z</time>
      </trkpt>
      <trkpt lat="44.4273" lon="3.60384">
        <ele>1213.8</ele>
        <time>2022-10-28T10:28:53Z</time>
      </trkpt>
      <trkpt lat="44.4273" lon="3.60385">
        <ele>1214</ele>
        <time>2022-10-28T10:28:54Z</time>
      </trkpt>
      <trkpt lat="44.42731" lon="3.60385">
        <ele>1214.2</ele>
        <time>2022-10-28T10:28:55Z</time>
      </trkpt>
      <trkpt lat="44.42731" lon="3.60386">
        <ele>1214.4</ele>
        <time>2022-10-28T10:28:56Z</time>
      </trkpt>
      <trkpt lat="44.42732" lon="3.60387">
        <ele>1214.4</ele>
        <time>2022-10-28T10:28:57Z</time>
      </trkpt>
      <trkpt lat="44.42733" lon="3.60387">
        <ele>1214.6</ele>
        <time>2022-10-28T10:28:58Z</time>
      </trkpt>
      <trkpt lat="44.42733" lon="3.60388">
        <ele>1214.8</ele>
        <time>2022-10-28T10:28:59Z</time>
      </trkpt>
      <trkpt lat="44.42734" lon="3.60389">
        <ele>1215</ele>
        <time>2022-10-28T10:29:00Z</time>
      </trkpt>
      <trkpt lat="44.42735" lon="3.60389">
        <ele>1215.2</ele>
        <time>2022-10-28T10:29:01Z</time>
      </trkpt>
      <trkpt lat="44.42735" lon="3.6039">
        <ele>1215.4</ele>
        <time>2022-10-28T10:29:02Z</time>
      </trkpt>
      <trkpt lat="44.42736" lon="3.6039">
        <ele>1215.6</ele>
        <time>2022-10-28T10:29:03Z</time>
      </trkpt>
      <trkpt lat="44.42737" lon="3.60391">
        <ele>1215.8</ele>
        <time>2022-10-28T10:29:04Z</time>
      </trkpt>
      <trkpt lat="44.42737" lon="3.60392">
        <ele>1216</ele>
        <time>2022-10-28T10:29:05Z</time>
      </trkpt>
      <trkpt lat="44.42738" lon="3.60393">
        <ele>1216</ele>
        <time>2022-10-28T10:29:06Z</time>
      </trkpt>
      <trkpt lat="44.42739" lon="3.60394">
        <ele>1216.2</ele>
        <time>2022-10-28T10:29:07Z</time>
      </trkpt>
      <trkpt lat="44.42739" lon="3.60395">
        <ele>1216.4</ele>
        <time>2022-10-28T10:29:08Z</time>
      </trkpt>
      <trkpt lat="44.4274" lon="3.60396">
        <ele>1216.6</ele>
        <time>2022-10-28T10:29:09Z</time>
      </trkpt>
      <trkpt lat="44.42741" lon="3.60396">
        <ele>1216.8</ele>
        <time>2022-10-28T10:29:10Z</time>
      </trkpt>
      <trkpt lat="44.42741" lon="3.60397">
        <ele>1217</ele>
        <time>2022-10-28T10:29:11Z</time>
      </trkpt>
      <trkpt lat="44.42742" lon="3.60398">
        <ele>1217</ele>
        <time>2022-10-28T10:29:12Z</time>
      </trkpt>
      <trkpt lat="44.42742" lon="3.60399">
        <ele>1217.2</ele>
        <time>2022-10-28T10:29:13Z</time>
      </trkpt>
      <trkpt lat="44.42743" lon="3.604">
        <ele>1217.4</ele>
        <time>2022-10-28T10:29:14Z</time>
      </trkpt>
      <trkpt lat="44.42744" lon="3.604">
        <ele>1217.6</ele>
        <time>2022-10-28T10:29:15Z</time>
      </trkpt>
      <trkpt lat="44.42745" lon="3.60401">
        <ele>1217.6</ele>
        <time>2022-10-28T10:29:16Z</time>
      </trkpt>
      <trkpt lat="44.42745" lon="3.60402">
        <ele>1217.8</ele>
        <time>2022-10-28T10:29:17Z</time>
      </trkpt>
      <trkpt lat="44.42746" lon="3.60403">
        <ele>1218</ele>
        <time>2022-10-28T10:29:18Z</time>
      </trkpt>
      <trkpt lat="44.42747" lon="3.60404">
        <ele>1218.2</ele>
        <time>2022-10-28T10:29:19Z</time>
      </trkpt>
      <trkpt lat="44.42748" lon="3.60404">
        <ele>1218.2</ele>
        <time>2022-10-28T10:29:20Z</time>
      </trkpt>
      <trkpt lat="44.42749" lon="3.60405">
        <ele>1218.4</ele>
        <time>2022-10-28T10:29:21Z</time>
      </trkpt>
      <trkpt lat="44.42749" lon="3.60406">
        <ele>1218.6</ele>
        <time>2022-10-28T10:29:22Z</time>
      </trkpt>
      <trkpt lat="44.4275" lon="3.60406">
        <ele>1218.8</ele>
        <time>2022-10-28T10:29:23Z</time>
      </trkpt>
      <trkpt lat="44.4275" lon="3.60407">
        <ele>1219</ele>
        <time>2022-10-28T10:29:24Z</time>
      </trkpt>
      <trkpt lat="44.42751" lon="3.60408">
        <ele>1219</ele>
        <time>2022-10-28T10:29:25Z</time>
      </trkpt>
      <trkpt lat="44.42752" lon="3.60409">
        <ele>1219.2</ele>
        <time>2022-10-28T10:29:26Z</time>
      </trkpt>
      <trkpt lat="44.42752" lon="3.6041">
        <ele>1219.4</ele>
        <time>2022-10-28T10:29:27Z</time>
      </trkpt>
      <trkpt lat="44.42753" lon="3.60411">
        <ele>1219.6</ele>
        <time>2022-10-28T10:29:28Z</time>
      </trkpt>
      <trkpt lat="44.42754" lon="3.60412">
        <ele>1219.8</ele>
        <time>2022-10-28T10:29:29Z</time>
      </trkpt>
      <trkpt lat="44.42754" lon="3.60414">
        <ele>1220</ele>
        <time>2022-10-28T10:29:30Z</time>
      </trkpt>
      <trkpt lat="44.42755" lon="3.60415">
        <ele>1220.2</ele>
        <time>2022-10-28T10:29:31Z</time>
      </trkpt>
      <trkpt lat="44.42755" lon="3.60416">
        <ele>1220.4</ele>
        <time>2022-10-28T10:29:32Z</time>
      </trkpt>
      <trkpt lat="44.42756" lon="3.60417">
        <ele>1220.6</ele>
        <time>2022-10-28T10:29:33Z</time>
      </trkpt>
      <trkpt lat="44.42757" lon="3.60418">
        <ele>1220.6</ele>
        <time>2022-10-28T10:29:34Z</time>
      </trkpt>
      <trkpt lat="44.42757" lon="3.60419">
        <ele>1220.8</ele>
        <time>2022-10-28T10:29:35Z</time>
      </trkpt>
      <trkpt lat="44.42758" lon="3.60419">
        <ele>1221</ele>
        <time>2022-10-28T10:29:36Z</time>
      </trkpt>
      <trkpt lat="44.42759" lon="3.6042">
        <ele>1221.2</ele>
        <time>2022-10-28T10:29:37Z</time>
      </trkpt>
      <trkpt lat="44.4276" lon="3.60421">
        <ele>1221.4</ele>
        <time>2022-10-28T10:29:38Z</time>
      </trkpt>
      <trkpt lat="44.42761" lon="3.60421">
        <ele>1221.4</ele>
        <time>2022-10-28T10:29:39Z</time>
      </trkpt>
      <trkpt lat="44.42762" lon="3.60422">
        <ele>1221.6</ele>
        <time>2022-10-28T10:29:40Z</time>
      </trkpt>
      <trkpt lat="44.42763" lon="3.60423">
        <ele>1221.6</ele>
        <time>2022-10-28T10:29:41Z</time>
      </trkpt>
      <trkpt lat="44.42763" lon="3.60423">
        <ele>1221.8</ele>
        <time>2022-10-28T10:29:42Z</time>
      </trkpt>
      <trkpt lat="44.42764" lon="3.60424">
        <ele>1222</ele>
        <time>2022-10-28T10:29:43Z</time>
      </trkpt>
      <trkpt lat="44.42765" lon="3.60425">
        <ele>1222.2</ele>
        <time>2022-10-28T10:29:44Z</time>
      </trkpt>
      <trkpt lat="44.42766" lon="3.60426">
        <ele>1222.2</ele>
        <time>2022-10-28T10:29:45Z</time>
      </trkpt>
      <trkpt lat="44.42766" lon="3.60427">
        <ele>1222.4</ele>
        <time>2022-10-28T10:29:46Z</time>
      </trkpt>
      <trkpt lat="44.42767" lon="3.60427">
        <ele>1222.6</ele>
        <time>2022-10-28T10:29:47Z</time>
      </trkpt>
      <trkpt lat="44.42768" lon="3.60428">
        <ele>1222.8</ele>
        <time>2022-10-28T10:29:48Z</time>
      </trkpt>
      <trkpt lat="44.42768" lon="3.60428">
        <ele>1223</ele>
        <time>2022-10-28T10:29:49Z</time>
      </trkpt>
      <trkpt lat="44.42769" lon="3.60429">
        <ele>1223.2</ele>
        <time>2022-10-28T10:29:50Z</time>
      </trkpt>
      <trkpt lat="44.4277" lon="3.6043">
        <ele>1223.4</ele>
        <time>2022-10-28T10:29:51Z</time>
      </trkpt>
      <trkpt lat="44.4277" lon="3.6043">
        <ele>1223.4</ele>
        <time>2022-10-28T10:29:52Z</time>
      </trkpt>
      <trkpt lat="44.42771" lon="3.60431">
        <ele>1223.6</ele>
        <time>2022-10-28T10:29:53Z</time>
      </trkpt>
      <trkpt lat="44.42771" lon="3.60431">
        <ele>1223.8</ele>
        <time>2022-10-28T10:29:54Z</time>
      </trkpt>
      <trkpt lat="44.42772" lon="3.60432">
        <ele>1224</ele>
        <time>2022-10-28T10:29:55Z</time>
      </trkpt>
      <trkpt lat="44.42773" lon="3.60433">
        <ele>1224.2</ele>
        <time>2022-10-28T10:29:56Z</time>
      </trkpt>
      <trkpt lat="44.42773" lon="3.60434">
        <ele>1224.2</ele>
        <time>2022-10-28T10:29:57Z</time>
      </trkpt>
      <trkpt lat="44.42774" lon="3.60435">
        <ele>1224.4</ele>
        <time>2022-10-28T10:29:58Z</time>
      </trkpt>
      <trkpt lat="44.42775" lon="3.60436">
        <ele>1224.6</ele>
        <time>2022-10-28T10:29:59Z</time>
      </trkpt>
      <trkpt lat="44.42776" lon="3.60437">
        <ele>1224.6</ele>
        <time>2022-10-28T10:30:00Z</time>
      </trkpt>
      <trkpt lat="44.42776" lon="3.60438">
        <ele>1224.8</ele>
        <time>2022-10-28T10:30:01Z</time>
      </trkpt>
      <trkpt lat="44.42777" lon="3.6044">
        <ele>1225.2</ele>
        <time>2022-10-28T10:30:03Z</time>
      </trkpt>
      <trkpt lat="44.42777" lon="3.60441">
        <ele>1225.2</ele>
        <time>2022-10-28T10:30:04Z</time>
      </trkpt>
      <trkpt lat="44.42778" lon="3.60442">
        <ele>1225.4</ele>
        <time>2022-10-28T10:30:05Z</time>
      </trkpt>
      <trkpt lat="44.42778" lon="3.60443">
        <ele>1225.6</ele>
        <time>2022-10-28T10:30:06Z</time>
      </trkpt>
      <trkpt lat="44.42779" lon="3.60444">
        <ele>1225.6</ele>
        <time>2022-10-28T10:30:07Z</time>
      </trkpt>
      <trkpt lat="44.42779" lon="3.60445">
        <ele>1225.8</ele>
        <time>2022-10-28T10:30:08Z</time>
      </trkpt>
      <trkpt lat="44.4278" lon="3.60445">
        <ele>1226</ele>
        <time>2022-10-28T10:30:09Z</time>
      </trkpt>
      <trkpt lat="44.4278" lon="3.60446">
        <ele>1226.2</ele>
        <time>2022-10-28T10:30:10Z</time>
      </trkpt>
      <trkpt lat="44.42781" lon="3.60447">
        <ele>1226.4</ele>
        <time>2022-10-28T10:30:11Z</time>
      </trkpt>
      <trkpt lat="44.42782" lon="3.60448">
        <ele>1226.6</ele>
        <time>2022-10-28T10:30:12Z</time>
      </trkpt>
      <trkpt lat="44.42783" lon="3.60448">
        <ele>1226.6</ele>
        <time>2022-10-28T10:30:13Z</time>
      </trkpt>
      <trkpt lat="44.42784" lon="3.60449">
        <ele>1226.8</ele>
        <time>2022-10-28T10:30:14Z</time>
      </trkpt>
      <trkpt lat="44.42784" lon="3.60449">
        <ele>1226.8</ele>
        <time>2022-10-28T10:30:15Z</time>
      </trkpt>
      <trkpt lat="44.42785" lon="3.6045">
        <ele>1227</ele>
        <time>2022-10-28T10:30:16Z</time>
      </trkpt>
      <trkpt lat="44.42786" lon="3.6045">
        <ele>1227</ele>
        <time>2022-10-28T10:30:17Z</time>
      </trkpt>
      <trkpt lat="44.42787" lon="3.60451">
        <ele>1227.2</ele>
        <time>2022-10-28T10:30:18Z</time>
      </trkpt>
      <trkpt lat="44.42788" lon="3.60451">
        <ele>1227.2</ele>
        <time>2022-10-28T10:30:19Z</time>
      </trkpt>
      <trkpt lat="44.42789" lon="3.60451">
        <ele>1227.4</ele>
        <time>2022-10-28T10:30:20Z</time>
      </trkpt>
      <trkpt lat="44.4279" lon="3.60451">
        <ele>1227.4</ele>
        <time>2022-10-28T10:30:21Z</time>
      </trkpt>
      <trkpt lat="44.42791" lon="3.60451">
        <ele>1227.6</ele>
        <time>2022-10-28T10:30:22Z</time>
      </trkpt>
      <trkpt lat="44.42792" lon="3.60451">
        <ele>1227.8</ele>
        <time>2022-10-28T10:30:23Z</time>
      </trkpt>
      <trkpt lat="44.42793" lon="3.6045">
        <ele>1227.8</ele>
        <time>2022-10-28T10:30:24Z</time>
      </trkpt>
      <trkpt lat="44.42794" lon="3.6045">
        <ele>1228</ele>
        <time>2022-10-28T10:30:25Z</time>
      </trkpt>
      <trkpt lat="44.42795" lon="3.6045">
        <ele>1228.2</ele>
        <time>2022-10-28T10:30:26Z</time>
      </trkpt>
      <trkpt lat="44.42796" lon="3.6045">
        <ele>1228.4</ele>
        <time>2022-10-28T10:30:27Z</time>
      </trkpt>
      <trkpt lat="44.42797" lon="3.6045">
        <ele>1228.6</ele>
        <time>2022-10-28T10:30:28Z</time>
      </trkpt>
      <trkpt lat="44.42798" lon="3.60451">
        <ele>1228.6</ele>
        <time>2022-10-28T10:30:29Z</time>
      </trkpt>
      <trkpt lat="44.42799" lon="3.60451">
        <ele>1228.8</ele>
        <time>2022-10-28T10:30:30Z</time>
      </trkpt>
      <trkpt lat="44.428" lon="3.60452">
        <ele>1229</ele>
        <time>2022-10-28T10:30:31Z</time>
      </trkpt>
      <trkpt lat="44.42801" lon="3.60452">
        <ele>1229.2</ele>
        <time>2022-10-28T10:30:32Z</time>
      </trkpt>
      <trkpt lat="44.42802" lon="3.60453">
        <ele>1229.4</ele>
        <time>2022-10-28T10:30:33Z</time>
      </trkpt>
      <trkpt lat="44.42803" lon="3.60453">
        <ele>1229.6</ele>
        <time>2022-10-28T10:30:34Z</time>
      </trkpt>
      <trkpt lat="44.42804" lon="3.60454">
        <ele>1229.6</ele>
        <time>2022-10-28T10:30:35Z</time>
      </trkpt>
      <trkpt lat="44.42805" lon="3.60454">
        <ele>1229.8</ele>
        <time>2022-10-28T10:30:36Z</time>
      </trkpt>
      <trkpt lat="44.42806" lon="3.60455">
        <ele>1230</ele>
        <time>2022-10-28T10:30:37Z</time>
      </trkpt>
      <trkpt lat="44.42807" lon="3.60456">
        <ele>1230.2</ele>
        <time>2022-10-28T10:30:38Z</time>
      </trkpt>
      <trkpt lat="44.42807" lon="3.60456">
        <ele>1230.2</ele>
        <time>2022-10-28T10:30:39Z</time>
      </trkpt>
      <trkpt lat="44.42808" lon="3.60457">
        <ele>1230.4</ele>
        <time>2022-10-28T10:30:40Z</time>
      </trkpt>
      <trkpt lat="44.42809" lon="3.60457">
        <ele>1230.6</ele>
        <time>2022-10-28T10:30:41Z</time>
      </trkpt>
      <trkpt lat="44.4281" lon="3.60458">
        <ele>1230.8</ele>
        <time>2022-10-28T10:30:42Z</time>
      </trkpt>
      <trkpt lat="44.42811" lon="3.60458">
        <ele>1230.8</ele>
        <time>2022-10-28T10:30:43Z</time>
      </trkpt>
      <trkpt lat="44.42812" lon="3.60459">
        <ele>1231</ele>
        <time>2022-10-28T10:30:44Z</time>
      </trkpt>
      <trkpt lat="44.42813" lon="3.6046">
        <ele>1231.2</ele>
        <time>2022-10-28T10:30:45Z</time>
      </trkpt>
      <trkpt lat="44.42814" lon="3.6046">
        <ele>1231.4</ele>
        <time>2022-10-28T10:30:46Z</time>
      </trkpt>
      <trkpt lat="44.42815" lon="3.60461">
        <ele>1231.6</ele>
        <time>2022-10-28T10:30:47Z</time>
      </trkpt>
      <trkpt lat="44.42816" lon="3.60462">
        <ele>1231.6</ele>
        <time>2022-10-28T10:30:48Z</time>
      </trkpt>
      <trkpt lat="44.42817" lon="3.60462">
        <ele>1231.8</ele>
        <time>2022-10-28T10:30:49Z</time>
      </trkpt>
      <trkpt lat="44.42818" lon="3.60463">
        <ele>1232</ele>
        <time>2022-10-28T10:30:50Z</time>
      </trkpt>
      <trkpt lat="44.42818" lon="3.60463">
        <ele>1232.2</ele>
        <time>2022-10-28T10:30:51Z</time>
      </trkpt>
      <trkpt lat="44.4282" lon="3.60464">
        <ele>1232.4</ele>
        <time>2022-10-28T10:30:52Z</time>
      </trkpt>
      <trkpt lat="44.42821" lon="3.60464">
        <ele>1232.4</ele>
        <time>2022-10-28T10:30:53Z</time>
      </trkpt>
      <trkpt lat="44.42822" lon="3.60465">
        <ele>1232.6</ele>
        <time>2022-10-28T10:30:54Z</time>
      </trkpt>
      <trkpt lat="44.42823" lon="3.60465">
        <ele>1232.8</ele>
        <time>2022-10-28T10:30:55Z</time>
      </trkpt>
      <trkpt lat="44.42823" lon="3.60466">
        <ele>1233</ele>
        <time>2022-10-28T10:30:56Z</time>
      </trkpt>
      <trkpt lat="44.42824" lon="3.60466">
        <ele>1233.2</ele>
        <time>2022-10-28T10:30:57Z</time>
      </trkpt>
      <trkpt lat="44.42825" lon="3.60467">
        <ele>1233.4</ele>
        <time>2022-10-28T10:30:58Z</time>
      </trkpt>
      <trkpt lat="44.42827" lon="3.60467">
        <ele>1233.4</ele>
        <time>2022-10-28T10:30:59Z</time>
      </trkpt>
      <trkpt lat="44.42828" lon="3.60468">
        <ele>1233.6</ele>
        <time>2022-10-28T10:31:00Z</time>
      </trkpt>
      <trkpt lat="44.42829" lon="3.60469">
        <ele>1233.8</ele>
        <time>2022-10-28T10:31:01Z</time>
      </trkpt>
      <trkpt lat="44.4283" lon="3.60469">
        <ele>1234</ele>
        <time>2022-10-28T10:31:02Z</time>
      </trkpt>
      <trkpt lat="44.42831" lon="3.60469">
        <ele>1234</ele>
        <time>2022-10-28T10:31:03Z</time>
      </trkpt>
      <trkpt lat="44.42831" lon="3.6047">
        <ele>1234.2</ele>
        <time>2022-10-28T10:31:04Z</time>
      </trkpt>
      <trkpt lat="44.42832" lon="3.60471">
        <ele>1234.4</ele>
        <time>2022-10-28T10:31:05Z</time>
      </trkpt>
      <trkpt lat="44.42833" lon="3.60471">
        <ele>1234.6</ele>
        <time>2022-10-28T10:31:06Z</time>
      </trkpt>
      <trkpt lat="44.42834" lon="3.60472">
        <ele>1234.6</ele>
        <time>2022-10-28T10:31:07Z</time>
      </trkpt>
      <trkpt lat="44.42835" lon="3.60473">
        <ele>1234.8</ele>
        <time>2022-10-28T10:31:08Z</time>
      </trkpt>
      <trkpt lat="44.42836" lon="3.60473">
        <ele>1234.8</ele>
        <time>2022-10-28T10:31:09Z</time>
      </trkpt>
      <trkpt lat="44.42837" lon="3.60474">
        <ele>1235</ele>
        <time>2022-10-28T10:31:10Z</time>
      </trkpt>
      <trkpt lat="44.42837" lon="3.60475">
        <ele>1235.2</ele>
        <time>2022-10-28T10:31:11Z</time>
      </trkpt>
      <trkpt lat="44.42838" lon="3.60476">
        <ele>1235.2</ele>
        <time>2022-10-28T10:31:12Z</time>
      </trkpt>
      <trkpt lat="44.42839" lon="3.60477">
        <ele>1235.4</ele>
        <time>2022-10-28T10:31:13Z</time>
      </trkpt>
      <trkpt lat="44.4284" lon="3.60478">
        <ele>1235.6</ele>
        <time>2022-10-28T10:31:14Z</time>
      </trkpt>
      <trkpt lat="44.42841" lon="3.60478">
        <ele>1235.6</ele>
        <time>2022-10-28T10:31:15Z</time>
      </trkpt>
      <trkpt lat="44.42842" lon="3.60479">
        <ele>1235.8</ele>
        <time>2022-10-28T10:31:16Z</time>
      </trkpt>
      <trkpt lat="44.42843" lon="3.6048">
        <ele>1236</ele>
        <time>2022-10-28T10:31:17Z</time>
      </trkpt>
      <trkpt lat="44.42844" lon="3.60481">
        <ele>1236.2</ele>
        <time>2022-10-28T10:31:18Z</time>
      </trkpt>
      <trkpt lat="44.42844" lon="3.60481">
        <ele>1236.4</ele>
        <time>2022-10-28T10:31:19Z</time>
      </trkpt>
      <trkpt lat="44.42845" lon="3.60482">
        <ele>1236.6</ele>
        <time>2022-10-28T10:31:20Z</time>
      </trkpt>
      <trkpt lat="44.42846" lon="3.60483">
        <ele>1236.6</ele>
        <time>2022-10-28T10:31:21Z</time>
      </trkpt>
      <trkpt lat="44.42847" lon="3.60484">
        <ele>1236.8</ele>
        <time>2022-10-28T10:31:22Z</time>
      </trkpt>
      <trkpt lat="44.42848" lon="3.60484">
        <ele>1237</ele>
        <time>2022-10-28T10:31:23Z</time>
      </trkpt>
      <trkpt lat="44.42849" lon="3.60485">
        <ele>1237</ele>
        <time>2022-10-28T10:31:24Z</time>
      </trkpt>
      <trkpt lat="44.4285" lon="3.60486">
        <ele>1237.2</ele>
        <time>2022-10-28T10:31:25Z</time>
      </trkpt>
      <trkpt lat="44.4285" lon="3.60486">
        <ele>1237.4</ele>
        <time>2022-10-28T10:31:26Z</time>
      </trkpt>
      <trkpt lat="44.42851" lon="3.60487">
        <ele>1237.6</ele>
        <time>2022-10-28T10:31:27Z</time>
      </trkpt>
      <trkpt lat="44.42852" lon="3.60488">
        <ele>1237.8</ele>
        <time>2022-10-28T10:31:28Z</time>
      </trkpt>
      <trkpt lat="44.42853" lon="3.60488">
        <ele>1238</ele>
        <time>2022-10-28T10:31:29Z</time>
      </trkpt>
      <trkpt lat="44.42854" lon="3.60489">
        <ele>1238.2</ele>
        <time>2022-10-28T10:31:30Z</time>
      </trkpt>
      <trkpt lat="44.42855" lon="3.6049">
        <ele>1238.2</ele>
        <time>2022-10-28T10:31:31Z</time>
      </trkpt>
      <trkpt lat="44.42856" lon="3.60491">
        <ele>1238.4</ele>
        <time>2022-10-28T10:31:32Z</time>
      </trkpt>
      <trkpt lat="44.42857" lon="3.60492">
        <ele>1238.4</ele>
        <time>2022-10-28T10:31:33Z</time>
      </trkpt>
      <trkpt lat="44.42858" lon="3.60493">
        <ele>1238.6</ele>
        <time>2022-10-28T10:31:34Z</time>
      </trkpt>
      <trkpt lat="44.42859" lon="3.60493">
        <ele>1238.6</ele>
        <time>2022-10-28T10:31:35Z</time>
      </trkpt>
      <trkpt lat="44.4286" lon="3.60494">
        <ele>1238.8</ele>
        <time>2022-10-28T10:31:36Z</time>
      </trkpt>
      <trkpt lat="44.42861" lon="3.60495">
        <ele>1239</ele>
        <time>2022-10-28T10:31:37Z</time>
      </trkpt>
      <trkpt lat="44.42862" lon="3.60496">
        <ele>1239</ele>
        <time>2022-10-28T10:31:38Z</time>
      </trkpt>
      <trkpt lat="44.42863" lon="3.60497">
        <ele>1239.2</ele>
        <time>2022-10-28T10:31:39Z</time>
      </trkpt>
      <trkpt lat="44.42864" lon="3.60498">
        <ele>1239.2</ele>
        <time>2022-10-28T10:31:40Z</time>
      </trkpt>
      <trkpt lat="44.42865" lon="3.60499">
        <ele>1239.4</ele>
        <time>2022-10-28T10:31:41Z</time>
      </trkpt>
      <trkpt lat="44.42866" lon="3.605">
        <ele>1239.4</ele>
        <time>2022-10-28T10:31:42Z</time>
      </trkpt>
      <trkpt lat="44.42867" lon="3.605">
        <ele>1239.6</ele>
        <time>2022-10-28T10:31:43Z</time>
      </trkpt>
      <trkpt lat="44.42868" lon="3.60501">
        <ele>1239.8</ele>
        <time>2022-10-28T10:31:44Z</time>
      </trkpt>
      <trkpt lat="44.42869" lon="3.60502">
        <ele>1239.8</ele>
        <time>2022-10-28T10:31:45Z</time>
      </trkpt>
      <trkpt lat="44.42869" lon="3.60503">
        <ele>1240</ele>
        <time>2022-10-28T10:31:46Z</time>
      </trkpt>
      <trkpt lat="44.4287" lon="3.60504">
        <ele>1240.2</ele>
        <time>2022-10-28T10:31:47Z</time>
      </trkpt>
      <trkpt lat="44.42871" lon="3.60505">
        <ele>1240.2</ele>
        <time>2022-10-28T10:31:48Z</time>
      </trkpt>
      <trkpt lat="44.42872" lon="3.60506">
        <ele>1240.4</ele>
        <time>2022-10-28T10:31:49Z</time>
      </trkpt>
      <trkpt lat="44.42873" lon="3.60507">
        <ele>1240.6</ele>
        <time>2022-10-28T10:31:50Z</time>
      </trkpt>
      <trkpt lat="44.42874" lon="3.60507">
        <ele>1240.8</ele>
        <time>2022-10-28T10:31:51Z</time>
      </trkpt>
      <trkpt lat="44.42874" lon="3.60508">
        <ele>1241</ele>
        <time>2022-10-28T10:31:52Z</time>
      </trkpt>
      <trkpt lat="44.42875" lon="3.60509">
        <ele>1241.4</ele>
        <time>2022-10-28T10:31:53Z</time>
      </trkpt>
      <trkpt lat="44.42876" lon="3.6051">
        <ele>1241.6</ele>
        <time>2022-10-28T10:31:54Z</time>
      </trkpt>
      <trkpt lat="44.42877" lon="3.60511">
        <ele>1241.8</ele>
        <time>2022-10-28T10:31:55Z</time>
      </trkpt>
      <trkpt lat="44.42878" lon="3.60511">
        <ele>1242</ele>
        <time>2022-10-28T10:31:56Z</time>
      </trkpt>
      <trkpt lat="44.42878" lon="3.60512">
        <ele>1242.2</ele>
        <time>2022-10-28T10:31:57Z</time>
      </trkpt>
      <trkpt lat="44.42879" lon="3.60513">
        <ele>1242.2</ele>
        <time>2022-10-28T10:31:58Z</time>
      </trkpt>
      <trkpt lat="44.4288" lon="3.60513">
        <ele>1242.4</ele>
        <time>2022-10-28T10:31:59Z</time>
      </trkpt>
      <trkpt lat="44.42881" lon="3.60514">
        <ele>1242.4</ele>
        <time>2022-10-28T10:32:00Z</time>
      </trkpt>
      <trkpt lat="44.42882" lon="3.60515">
        <ele>1242.6</ele>
        <time>2022-10-28T10:32:01Z</time>
      </trkpt>
      <trkpt lat="44.42883" lon="3.60516">
        <ele>1242.6</ele>
        <time>2022-10-28T10:32:02Z</time>
      </trkpt>
      <trkpt lat="44.42884" lon="3.60517">
        <ele>1242.6</ele>
        <time>2022-10-28T10:32:03Z</time>
      </trkpt>
      <trkpt lat="44.42884" lon="3.60518">
        <ele>1242.8</ele>
        <time>2022-10-28T10:32:04Z</time>
      </trkpt>
      <trkpt lat="44.42885" lon="3.60519">
        <ele>1242.8</ele>
        <time>2022-10-28T10:32:05Z</time>
      </trkpt>
      <trkpt lat="44.42887" lon="3.6052">
        <ele>1243</ele>
        <time>2022-10-28T10:32:06Z</time>
      </trkpt>
      <trkpt lat="44.42887" lon="3.60521">
        <ele>1243</ele>
        <time>2022-10-28T10:32:07Z</time>
      </trkpt>
      <trkpt lat="44.42888" lon="3.60522">
        <ele>1243.2</ele>
        <time>2022-10-28T10:32:08Z</time>
      </trkpt>
      <trkpt lat="44.42889" lon="3.60523">
        <ele>1243.2</ele>
        <time>2022-10-28T10:32:09Z</time>
      </trkpt>
      <trkpt lat="44.42889" lon="3.60524">
        <ele>1243.4</ele>
        <time>2022-10-28T10:32:10Z</time>
      </trkpt>
      <trkpt lat="44.4289" lon="3.60526">
        <ele>1243.6</ele>
        <time>2022-10-28T10:32:11Z</time>
      </trkpt>
      <trkpt lat="44.42891" lon="3.60527">
        <ele>1243.6</ele>
        <time>2022-10-28T10:32:12Z</time>
      </trkpt>
      <trkpt lat="44.42891" lon="3.60528">
        <ele>1243.8</ele>
        <time>2022-10-28T10:32:13Z</time>
      </trkpt>
      <trkpt lat="44.42892" lon="3.60529">
        <ele>1244</ele>
        <time>2022-10-28T10:32:14Z</time>
      </trkpt>
      <trkpt lat="44.42892" lon="3.6053">
        <ele>1244</ele>
        <time>2022-10-28T10:32:15Z</time>
      </trkpt>
      <trkpt lat="44.42893" lon="3.60531">
        <ele>1244.2</ele>
        <time>2022-10-28T10:32:16Z</time>
      </trkpt>
      <trkpt lat="44.42893" lon="3.60532">
        <ele>1244.4</ele>
        <time>2022-10-28T10:32:17Z</time>
      </trkpt>
      <trkpt lat="44.42894" lon="3.60533">
        <ele>1244.4</ele>
        <time>2022-10-28T10:32:18Z</time>
      </trkpt>
      <trkpt lat="44.42895" lon="3.60534">
        <ele>1244.6</ele>
        <time>2022-10-28T10:32:19Z</time>
      </trkpt>
      <trkpt lat="44.42895" lon="3.60535">
        <ele>1244.6</ele>
        <time>2022-10-28T10:32:20Z</time>
      </trkpt>
      <trkpt lat="44.42896" lon="3.60537">
        <ele>1244.8</ele>
        <time>2022-10-28T10:32:21Z</time>
      </trkpt>
      <trkpt lat="44.42896" lon="3.60538">
        <ele>1245</ele>
        <time>2022-10-28T10:32:22Z</time>
      </trkpt>
      <trkpt lat="44.42896" lon="3.60539">
        <ele>1245</ele>
        <time>2022-10-28T10:32:23Z</time>
      </trkpt>
      <trkpt lat="44.42897" lon="3.6054">
        <ele>1245.2</ele>
        <time>2022-10-28T10:32:24Z</time>
      </trkpt>
      <trkpt lat="44.42898" lon="3.60542">
        <ele>1245.2</ele>
        <time>2022-10-28T10:32:25Z</time>
      </trkpt>
      <trkpt lat="44.42898" lon="3.60543">
        <ele>1245.4</ele>
        <time>2022-10-28T10:32:26Z</time>
      </trkpt>
      <trkpt lat="44.42898" lon="3.60544">
        <ele>1245.4</ele>
        <time>2022-10-28T10:32:27Z</time>
      </trkpt>
      <trkpt lat="44.42899" lon="3.60545">
        <ele>1245.6</ele>
        <time>2022-10-28T10:32:28Z</time>
      </trkpt>
      <trkpt lat="44.42899" lon="3.60545">
        <ele>1245.6</ele>
        <time>2022-10-28T10:32:29Z</time>
      </trkpt>
      <trkpt lat="44.42899" lon="3.60545">
        <ele>1245.6</ele>
        <time>2022-10-28T10:32:30Z</time>
      </trkpt>
      <trkpt lat="44.42899" lon="3.60545">
        <ele>1245.6</ele>
        <time>2022-10-28T10:32:31Z</time>
      </trkpt>
      <trkpt lat="44.42899" lon="3.60545">
        <ele>1245.8</ele>
        <time>2022-10-28T10:32:32Z</time>
      </trkpt>
      <trkpt lat="44.42899" lon="3.60545">
        <ele>1245.8</ele>
        <time>2022-10-28T10:32:33Z</time>
      </trkpt>
      <trkpt lat="44.429" lon="3.60546">
        <ele>1245.8</ele>
        <time>2022-10-28T10:32:35Z</time>
      </trkpt>
      <trkpt lat="44.42901" lon="3.60547">
        <ele>1246</ele>
        <time>2022-10-28T10:32:36Z</time>
      </trkpt>
      <trkpt lat="44.42902" lon="3.60548">
        <ele>1246</ele>
        <time>2022-10-28T10:32:37Z</time>
      </trkpt>
      <trkpt lat="44.42902" lon="3.6055">
        <ele>1246</ele>
        <time>2022-10-28T10:32:38Z</time>
      </trkpt>
      <trkpt lat="44.42904" lon="3.60551">
        <ele>1246.2</ele>
        <time>2022-10-28T10:32:39Z</time>
      </trkpt>
      <trkpt lat="44.42905" lon="3.60552">
        <ele>1246.4</ele>
        <time>2022-10-28T10:32:40Z</time>
      </trkpt>
      <trkpt lat="44.42906" lon="3.60554">
        <ele>1246.4</ele>
        <time>2022-10-28T10:32:41Z</time>
      </trkpt>
      <trkpt lat="44.42907" lon="3.60555">
        <ele>1246.6</ele>
        <time>2022-10-28T10:32:42Z</time>
      </trkpt>
      <trkpt lat="44.42909" lon="3.60556">
        <ele>1246.6</ele>
        <time>2022-10-28T10:32:43Z</time>
      </trkpt>
      <trkpt lat="44.4291" lon="3.60557">
        <ele>1246.8</ele>
        <time>2022-10-28T10:32:44Z</time>
      </trkpt>
      <trkpt lat="44.42911" lon="3.60558">
        <ele>1246.8</ele>
        <time>2022-10-28T10:32:45Z</time>
      </trkpt>
      <trkpt lat="44.42913" lon="3.60559">
        <ele>1247</ele>
        <time>2022-10-28T10:32:46Z</time>
      </trkpt>
      <trkpt lat="44.42914" lon="3.60561">
        <ele>1247</ele>
        <time>2022-10-28T10:32:47Z</time>
      </trkpt>
      <trkpt lat="44.42915" lon="3.60562">
        <ele>1247.2</ele>
        <time>2022-10-28T10:32:48Z</time>
      </trkpt>
      <trkpt lat="44.42916" lon="3.60563">
        <ele>1247.2</ele>
        <time>2022-10-28T10:32:49Z</time>
      </trkpt>
      <trkpt lat="44.42918" lon="3.60564">
        <ele>1247.4</ele>
        <time>2022-10-28T10:32:50Z</time>
      </trkpt>
      <trkpt lat="44.42919" lon="3.60566">
        <ele>1247.4</ele>
        <time>2022-10-28T10:32:51Z</time>
      </trkpt>
      <trkpt lat="44.4292" lon="3.60567">
        <ele>1247.6</ele>
        <time>2022-10-28T10:32:52Z</time>
      </trkpt>
      <trkpt lat="44.42921" lon="3.60569">
        <ele>1247.8</ele>
        <time>2022-10-28T10:32:53Z</time>
      </trkpt>
      <trkpt lat="44.42922" lon="3.6057">
        <ele>1247.8</ele>
        <time>2022-10-28T10:32:54Z</time>
      </trkpt>
      <trkpt lat="44.42924" lon="3.60571">
        <ele>1248</ele>
        <time>2022-10-28T10:32:55Z</time>
      </trkpt>
      <trkpt lat="44.42925" lon="3.60573">
        <ele>1248</ele>
        <time>2022-10-28T10:32:56Z</time>
      </trkpt>
      <trkpt lat="44.42926" lon="3.60574">
        <ele>1248.2</ele>
        <time>2022-10-28T10:32:57Z</time>
      </trkpt>
      <trkpt lat="44.42927" lon="3.60576">
        <ele>1248.4</ele>
        <time>2022-10-28T10:32:58Z</time>
      </trkpt>
      <trkpt lat="44.42928" lon="3.60577">
        <ele>1248.4</ele>
        <time>2022-10-28T10:32:59Z</time>
      </trkpt>
      <trkpt lat="44.42929" lon="3.60578">
        <ele>1248.4</ele>
        <time>2022-10-28T10:33:00Z</time>
      </trkpt>
      <trkpt lat="44.4293" lon="3.6058">
        <ele>1248.6</ele>
        <time>2022-10-28T10:33:01Z</time>
      </trkpt>
      <trkpt lat="44.42931" lon="3.60581">
        <ele>1248.6</ele>
        <time>2022-10-28T10:33:02Z</time>
      </trkpt>
      <trkpt lat="44.42933" lon="3.60583">
        <ele>1248.6</ele>
        <time>2022-10-28T10:33:03Z</time>
      </trkpt>
      <trkpt lat="44.42934" lon="3.60584">
        <ele>1248.8</ele>
        <time>2022-10-28T10:33:04Z</time>
      </trkpt>
      <trkpt lat="44.42935" lon="3.60586">
        <ele>1248.8</ele>
        <time>2022-10-28T10:33:05Z</time>
      </trkpt>
      <trkpt lat="44.42936" lon="3.60588">
        <ele>1249</ele>
        <time>2022-10-28T10:33:06Z</time>
      </trkpt>
      <trkpt lat="44.42937" lon="3.6059">
        <ele>1249</ele>
        <time>2022-10-28T10:33:07Z</time>
      </trkpt>
      <trkpt lat="44.42938" lon="3.60592">
        <ele>1249.2</ele>
        <time>2022-10-28T10:33:08Z</time>
      </trkpt>
      <trkpt lat="44.42938" lon="3.60594">
        <ele>1249.2</ele>
        <time>2022-10-28T10:33:09Z</time>
      </trkpt>
      <trkpt lat="44.42939" lon="3.60595">
        <ele>1249.4</ele>
        <time>2022-10-28T10:33:10Z</time>
      </trkpt>
      <trkpt lat="44.42939" lon="3.60597">
        <ele>1249.6</ele>
        <time>2022-10-28T10:33:11Z</time>
      </trkpt>
      <trkpt lat="44.42941" lon="3.60599">
        <ele>1249.8</ele>
        <time>2022-10-28T10:33:12Z</time>
      </trkpt>
      <trkpt lat="44.42942" lon="3.606">
        <ele>1249.8</ele>
        <time>2022-10-28T10:33:13Z</time>
      </trkpt>
      <trkpt lat="44.42943" lon="3.60602">
        <ele>1250</ele>
        <time>2022-10-28T10:33:14Z</time>
      </trkpt>
      <trkpt lat="44.42944" lon="3.60603">
        <ele>1250.2</ele>
        <time>2022-10-28T10:33:15Z</time>
      </trkpt>
      <trkpt lat="44.42945" lon="3.60605">
        <ele>1250.2</ele>
        <time>2022-10-28T10:33:16Z</time>
      </trkpt>
      <trkpt lat="44.42947" lon="3.60606">
        <ele>1250.2</ele>
        <time>2022-10-28T10:33:17Z</time>
      </trkpt>
      <trkpt lat="44.42948" lon="3.60608">
        <ele>1250.4</ele>
        <time>2022-10-28T10:33:18Z</time>
      </trkpt>
      <trkpt lat="44.42951" lon="3.6061">
        <ele>1250.4</ele>
        <time>2022-10-28T10:33:19Z</time>
      </trkpt>
      <trkpt lat="44.42955" lon="3.60613">
        <ele>1250.6</ele>
        <time>2022-10-28T10:33:20Z</time>
      </trkpt>
      <trkpt lat="44.42957" lon="3.60614">
        <ele>1250.6</ele>
        <time>2022-10-28T10:33:21Z</time>
      </trkpt>
      <trkpt lat="44.42958" lon="3.60615">
        <ele>1250.8</ele>
        <time>2022-10-28T10:33:22Z</time>
      </trkpt>
      <trkpt lat="44.42959" lon="3.60617">
        <ele>1250.8</ele>
        <time>2022-10-28T10:33:23Z</time>
      </trkpt>
      <trkpt lat="44.4296" lon="3.60618">
        <ele>1251</ele>
        <time>2022-10-28T10:33:24Z</time>
      </trkpt>
      <trkpt lat="44.42962" lon="3.60619">
        <ele>1251</ele>
        <time>2022-10-28T10:33:25Z</time>
      </trkpt>
      <trkpt lat="44.42963" lon="3.6062">
        <ele>1251.2</ele>
        <time>2022-10-28T10:33:26Z</time>
      </trkpt>
      <trkpt lat="44.42965" lon="3.60621">
        <ele>1251.2</ele>
        <time>2022-10-28T10:33:27Z</time>
      </trkpt>
      <trkpt lat="44.42966" lon="3.60622">
        <ele>1251.4</ele>
        <time>2022-10-28T10:33:28Z</time>
      </trkpt>
      <trkpt lat="44.42967" lon="3.60624">
        <ele>1251.6</ele>
        <time>2022-10-28T10:33:29Z</time>
      </trkpt>
      <trkpt lat="44.42969" lon="3.60625">
        <ele>1251.8</ele>
        <time>2022-10-28T10:33:30Z</time>
      </trkpt>
      <trkpt lat="44.4297" lon="3.60626">
        <ele>1252</ele>
        <time>2022-10-28T10:33:31Z</time>
      </trkpt>
      <trkpt lat="44.42971" lon="3.60627">
        <ele>1252</ele>
        <time>2022-10-28T10:33:32Z</time>
      </trkpt>
      <trkpt lat="44.42972" lon="3.60627">
        <ele>1252.2</ele>
        <time>2022-10-28T10:33:33Z</time>
      </trkpt>
      <trkpt lat="44.42974" lon="3.60628">
        <ele>1252.4</ele>
        <time>2022-10-28T10:33:34Z</time>
      </trkpt>
      <trkpt lat="44.42975" lon="3.60629">
        <ele>1252.6</ele>
        <time>2022-10-28T10:33:35Z</time>
      </trkpt>
      <trkpt lat="44.42976" lon="3.6063">
        <ele>1252.8</ele>
        <time>2022-10-28T10:33:36Z</time>
      </trkpt>
      <trkpt lat="44.42978" lon="3.60632">
        <ele>1252.8</ele>
        <time>2022-10-28T10:33:37Z</time>
      </trkpt>
      <trkpt lat="44.42979" lon="3.60633">
        <ele>1253</ele>
        <time>2022-10-28T10:33:38Z</time>
      </trkpt>
      <trkpt lat="44.4298" lon="3.60634">
        <ele>1253.2</ele>
        <time>2022-10-28T10:33:39Z</time>
      </trkpt>
      <trkpt lat="44.42981" lon="3.60635">
        <ele>1253.4</ele>
        <time>2022-10-28T10:33:40Z</time>
      </trkpt>
      <trkpt lat="44.42983" lon="3.60636">
        <ele>1253.6</ele>
        <time>2022-10-28T10:33:41Z</time>
      </trkpt>
      <trkpt lat="44.42984" lon="3.60637">
        <ele>1253.6</ele>
        <time>2022-10-28T10:33:42Z</time>
      </trkpt>
      <trkpt lat="44.42985" lon="3.60638">
        <ele>1253.8</ele>
        <time>2022-10-28T10:33:43Z</time>
      </trkpt>
      <trkpt lat="44.42987" lon="3.60639">
        <ele>1254</ele>
        <time>2022-10-28T10:33:44Z</time>
      </trkpt>
      <trkpt lat="44.42988" lon="3.6064">
        <ele>1254.2</ele>
        <time>2022-10-28T10:33:45Z</time>
      </trkpt>
      <trkpt lat="44.42989" lon="3.60641">
        <ele>1254.2</ele>
        <time>2022-10-28T10:33:46Z</time>
      </trkpt>
      <trkpt lat="44.42989" lon="3.60642">
        <ele>1254.4</ele>
        <time>2022-10-28T10:33:47Z</time>
      </trkpt>
      <trkpt lat="44.42991" lon="3.60643">
        <ele>1254.6</ele>
        <time>2022-10-28T10:33:48Z</time>
      </trkpt>
      <trkpt lat="44.42992" lon="3.60644">
        <ele>1254.8</ele>
        <time>2022-10-28T10:33:49Z</time>
      </trkpt>
      <trkpt lat="44.42993" lon="3.60645">
        <ele>1254.8</ele>
        <time>2022-10-28T10:33:50Z</time>
      </trkpt>
      <trkpt lat="44.42995" lon="3.60646">
        <ele>1255</ele>
        <time>2022-10-28T10:33:51Z</time>
      </trkpt>
      <trkpt lat="44.42996" lon="3.60647">
        <ele>1255</ele>
        <time>2022-10-28T10:33:52Z</time>
      </trkpt>
      <trkpt lat="44.42997" lon="3.60648">
        <ele>1255</ele>
        <time>2022-10-28T10:33:53Z</time>
      </trkpt>
      <trkpt lat="44.42999" lon="3.60649">
        <ele>1255.2</ele>
        <time>2022-10-28T10:33:54Z</time>
      </trkpt>
      <trkpt lat="44.43" lon="3.6065">
        <ele>1255.2</ele>
        <time>2022-10-28T10:33:55Z</time>
      </trkpt>
      <trkpt lat="44.43001" lon="3.60651">
        <ele>1255.4</ele>
        <time>2022-10-28T10:33:56Z</time>
      </trkpt>
      <trkpt lat="44.43003" lon="3.60652">
        <ele>1255.6</ele>
        <time>2022-10-28T10:33:57Z</time>
      </trkpt>
      <trkpt lat="44.43004" lon="3.60652">
        <ele>1255.6</ele>
        <time>2022-10-28T10:33:58Z</time>
      </trkpt>
      <trkpt lat="44.43005" lon="3.60653">
        <ele>1255.8</ele>
        <time>2022-10-28T10:33:59Z</time>
      </trkpt>
      <trkpt lat="44.43006" lon="3.60654">
        <ele>1255.8</ele>
        <time>2022-10-28T10:34:00Z</time>
      </trkpt>
      <trkpt lat="44.43008" lon="3.60655">
        <ele>1256</ele>
        <time>2022-10-28T10:34:01Z</time>
      </trkpt>
      <trkpt lat="44.43009" lon="3.60656">
        <ele>1256</ele>
        <time>2022-10-28T10:34:02Z</time>
      </trkpt>
      <trkpt lat="44.4301" lon="3.60657">
        <ele>1256.2</ele>
        <time>2022-10-28T10:34:03Z</time>
      </trkpt>
      <trkpt lat="44.43011" lon="3.60657">
        <ele>1256.4</ele>
        <time>2022-10-28T10:34:04Z</time>
      </trkpt>
      <trkpt lat="44.43013" lon="3.60657">
        <ele>1256.4</ele>
        <time>2022-10-28T10:34:05Z</time>
      </trkpt>
      <trkpt lat="44.43013" lon="3.60656">
        <ele>1256.4</ele>
        <time>2022-10-28T10:34:06Z</time>
      </trkpt>
      <trkpt lat="44.43014" lon="3.60655">
        <ele>1256.4</ele>
        <time>2022-10-28T10:34:07Z</time>
      </trkpt>
      <trkpt lat="44.43015" lon="3.60654">
        <ele>1256.4</ele>
        <time>2022-10-28T10:34:08Z</time>
      </trkpt>
      <trkpt lat="44.43015" lon="3.60653">
        <ele>1256.6</ele>
        <time>2022-10-28T10:34:09Z</time>
      </trkpt>
      <trkpt lat="44.43016" lon="3.60652">
        <ele>1256.6</ele>
        <time>2022-10-28T10:34:10Z</time>
      </trkpt>
      <trkpt lat="44.43016" lon="3.60651">
        <ele>1256.6</ele>
        <time>2022-10-28T10:34:11Z</time>
      </trkpt>
      <trkpt lat="44.43016" lon="3.60649">
        <ele>1256.6</ele>
        <time>2022-10-28T10:34:12Z</time>
      </trkpt>
      <trkpt lat="44.43015" lon="3.60648">
        <ele>1256.6</ele>
        <time>2022-10-28T10:34:13Z</time>
      </trkpt>
      <trkpt lat="44.43015" lon="3.60646">
        <ele>1256.6</ele>
        <time>2022-10-28T10:34:14Z</time>
      </trkpt>
      <trkpt lat="44.43015" lon="3.60645">
        <ele>1256.6</ele>
        <time>2022-10-28T10:34:15Z</time>
      </trkpt>
      <trkpt lat="44.43015" lon="3.60645">
        <ele>1256.6</ele>
        <time>2022-10-28T10:34:16Z</time>
      </trkpt>
      <trkpt lat="44.43015" lon="3.60644">
        <ele>1256.6</ele>
        <time>2022-10-28T10:34:17Z</time>
      </trkpt>
      <trkpt lat="44.43014" lon="3.60647">
        <ele>1256.6</ele>
        <time>2022-10-28T10:34:38Z</time>
      </trkpt>
      <trkpt lat="44.43013" lon="3.60649">
        <ele>1256.6</ele>
        <time>2022-10-28T10:34:39Z</time>
      </trkpt>
      <trkpt lat="44.43013" lon="3.60652">
        <ele>1256.6</ele>
        <time>2022-10-28T10:34:40Z</time>
      </trkpt>
      <trkpt lat="44.43014" lon="3.60654">
        <ele>1256.6</ele>
        <time>2022-10-28T10:34:41Z</time>
      </trkpt>
      <trkpt lat="44.43015" lon="3.60655">
        <ele>1256.6</ele>
        <time>2022-10-28T10:34:42Z</time>
      </trkpt>
      <trkpt lat="44.43016" lon="3.60657">
        <ele>1256.6</ele>
        <time>2022-10-28T10:34:43Z</time>
      </trkpt>
      <trkpt lat="44.43016" lon="3.60659">
        <ele>1256.6</ele>
        <time>2022-10-28T10:34:44Z</time>
      </trkpt>
      <trkpt lat="44.43017" lon="3.60661">
        <ele>1256.6</ele>
        <time>2022-10-28T10:34:45Z</time>
      </trkpt>
      <trkpt lat="44.43017" lon="3.60663">
        <ele>1256.6</ele>
        <time>2022-10-28T10:34:46Z</time>
      </trkpt>
      <trkpt lat="44.43018" lon="3.60666">
        <ele>1256.6</ele>
        <time>2022-10-28T10:34:47Z</time>
      </trkpt>
      <trkpt lat="44.4302" lon="3.60668">
        <ele>1256.6</ele>
        <time>2022-10-28T10:34:48Z</time>
      </trkpt>
      <trkpt lat="44.43021" lon="3.6067">
        <ele>1256.6</ele>
        <time>2022-10-28T10:34:49Z</time>
      </trkpt>
      <trkpt lat="44.43023" lon="3.60672">
        <ele>1256.6</ele>
        <time>2022-10-28T10:34:50Z</time>
      </trkpt>
      <trkpt lat="44.43024" lon="3.60674">
        <ele>1256.8</ele>
        <time>2022-10-28T10:34:51Z</time>
      </trkpt>
      <trkpt lat="44.43026" lon="3.60676">
        <ele>1256.8</ele>
        <time>2022-10-28T10:34:52Z</time>
      </trkpt>
      <trkpt lat="44.43027" lon="3.60678">
        <ele>1256.8</ele>
        <time>2022-10-28T10:34:53Z</time>
      </trkpt>
      <trkpt lat="44.43029" lon="3.6068">
        <ele>1256.8</ele>
        <time>2022-10-28T10:34:54Z</time>
      </trkpt>
      <trkpt lat="44.4303" lon="3.60682">
        <ele>1256.8</ele>
        <time>2022-10-28T10:34:55Z</time>
      </trkpt>
      <trkpt lat="44.43032" lon="3.60683">
        <ele>1257</ele>
        <time>2022-10-28T10:34:56Z</time>
      </trkpt>
      <trkpt lat="44.43034" lon="3.60685">
        <ele>1257</ele>
        <time>2022-10-28T10:34:57Z</time>
      </trkpt>
      <trkpt lat="44.43036" lon="3.60687">
        <ele>1257.2</ele>
        <time>2022-10-28T10:34:58Z</time>
      </trkpt>
      <trkpt lat="44.43037" lon="3.60689">
        <ele>1257.2</ele>
        <time>2022-10-28T10:34:59Z</time>
      </trkpt>
      <trkpt lat="44.43039" lon="3.60691">
        <ele>1257.2</ele>
        <time>2022-10-28T10:35:00Z</time>
      </trkpt>
      <trkpt lat="44.4304" lon="3.60693">
        <ele>1257.4</ele>
        <time>2022-10-28T10:35:01Z</time>
      </trkpt>
      <trkpt lat="44.43042" lon="3.60695">
        <ele>1257.4</ele>
        <time>2022-10-28T10:35:02Z</time>
      </trkpt>
      <trkpt lat="44.43043" lon="3.60697">
        <ele>1257.4</ele>
        <time>2022-10-28T10:35:03Z</time>
      </trkpt>
      <trkpt lat="44.43044" lon="3.60698">
        <ele>1257.6</ele>
        <time>2022-10-28T10:35:04Z</time>
      </trkpt>
      <trkpt lat="44.43045" lon="3.607">
        <ele>1257.6</ele>
        <time>2022-10-28T10:35:05Z</time>
      </trkpt>
      <trkpt lat="44.43047" lon="3.60701">
        <ele>1257.6</ele>
        <time>2022-10-28T10:35:06Z</time>
      </trkpt>
      <trkpt lat="44.43049" lon="3.60703">
        <ele>1257.8</ele>
        <time>2022-10-28T10:35:07Z</time>
      </trkpt>
      <trkpt lat="44.4305" lon="3.60705">
        <ele>1257.8</ele>
        <time>2022-10-28T10:35:08Z</time>
      </trkpt>
      <trkpt lat="44.43052" lon="3.60707">
        <ele>1258</ele>
        <time>2022-10-28T10:35:09Z</time>
      </trkpt>
      <trkpt lat="44.43053" lon="3.60708">
        <ele>1258</ele>
        <time>2022-10-28T10:35:10Z</time>
      </trkpt>
      <trkpt lat="44.43055" lon="3.6071">
        <ele>1258.2</ele>
        <time>2022-10-28T10:35:11Z</time>
      </trkpt>
      <trkpt lat="44.43056" lon="3.60712">
        <ele>1258.4</ele>
        <time>2022-10-28T10:35:12Z</time>
      </trkpt>
      <trkpt lat="44.43057" lon="3.60713">
        <ele>1258.4</ele>
        <time>2022-10-28T10:35:13Z</time>
      </trkpt>
      <trkpt lat="44.43059" lon="3.60715">
        <ele>1258.6</ele>
        <time>2022-10-28T10:35:14Z</time>
      </trkpt>
      <trkpt lat="44.4306" lon="3.60717">
        <ele>1258.6</ele>
        <time>2022-10-28T10:35:15Z</time>
      </trkpt>
      <trkpt lat="44.43062" lon="3.60718">
        <ele>1258.8</ele>
        <time>2022-10-28T10:35:16Z</time>
      </trkpt>
      <trkpt lat="44.43062" lon="3.60719">
        <ele>1258.8</ele>
        <time>2022-10-28T10:35:17Z</time>
      </trkpt>
      <trkpt lat="44.43062" lon="3.6072">
        <ele>1259</ele>
        <time>2022-10-28T10:35:31Z</time>
      </trkpt>
      <trkpt lat="44.43062" lon="3.6072">
        <ele>1259</ele>
        <time>2022-10-28T10:35:32Z</time>
      </trkpt>
      <trkpt lat="44.43063" lon="3.60721">
        <ele>1259.2</ele>
        <time>2022-10-28T10:35:33Z</time>
      </trkpt>
      <trkpt lat="44.43064" lon="3.60723">
        <ele>1259.2</ele>
        <time>2022-10-28T10:35:34Z</time>
      </trkpt>
      <trkpt lat="44.43065" lon="3.60725">
        <ele>1259.2</ele>
        <time>2022-10-28T10:35:35Z</time>
      </trkpt>
      <trkpt lat="44.43065" lon="3.60726">
        <ele>1259.4</ele>
        <time>2022-10-28T10:35:36Z</time>
      </trkpt>
      <trkpt lat="44.43066" lon="3.60727">
        <ele>1259.4</ele>
        <time>2022-10-28T10:35:37Z</time>
      </trkpt>
      <trkpt lat="44.43067" lon="3.60728">
        <ele>1259.4</ele>
        <time>2022-10-28T10:35:38Z</time>
      </trkpt>
      <trkpt lat="44.43067" lon="3.60728">
        <ele>1259.6</ele>
        <time>2022-10-28T10:35:39Z</time>
      </trkpt>
      <trkpt lat="44.43068" lon="3.60729">
        <ele>1259.6</ele>
        <time>2022-10-28T10:35:40Z</time>
      </trkpt>
      <trkpt lat="44.43069" lon="3.6073">
        <ele>1259.8</ele>
        <time>2022-10-28T10:35:41Z</time>
      </trkpt>
      <trkpt lat="44.43069" lon="3.60731">
        <ele>1260</ele>
        <time>2022-10-28T10:35:42Z</time>
      </trkpt>
      <trkpt lat="44.4307" lon="3.60731">
        <ele>1260.2</ele>
        <time>2022-10-28T10:35:43Z</time>
      </trkpt>
      <trkpt lat="44.4307" lon="3.60731">
        <ele>1260.4</ele>
        <time>2022-10-28T10:35:44Z</time>
      </trkpt>
      <trkpt lat="44.43071" lon="3.60732">
        <ele>1260.6</ele>
        <time>2022-10-28T10:35:45Z</time>
      </trkpt>
      <trkpt lat="44.43071" lon="3.60732">
        <ele>1260.8</ele>
        <time>2022-10-28T10:35:46Z</time>
      </trkpt>
      <trkpt lat="44.43072" lon="3.60733">
        <ele>1261</ele>
        <time>2022-10-28T10:35:47Z</time>
      </trkpt>
      <trkpt lat="44.43073" lon="3.60733">
        <ele>1261.2</ele>
        <time>2022-10-28T10:35:48Z</time>
      </trkpt>
      <trkpt lat="44.43073" lon="3.60734">
        <ele>1261.4</ele>
        <time>2022-10-28T10:35:49Z</time>
      </trkpt>
      <trkpt lat="44.43074" lon="3.60734">
        <ele>1261.6</ele>
        <time>2022-10-28T10:35:50Z</time>
      </trkpt>
      <trkpt lat="44.43074" lon="3.60734">
        <ele>1261.8</ele>
        <time>2022-10-28T10:35:51Z</time>
      </trkpt>
      <trkpt lat="44.43075" lon="3.60735">
        <ele>1262</ele>
        <time>2022-10-28T10:35:52Z</time>
      </trkpt>
      <trkpt lat="44.43075" lon="3.60735">
        <ele>1262.2</ele>
        <time>2022-10-28T10:35:53Z</time>
      </trkpt>
      <trkpt lat="44.43076" lon="3.60736">
        <ele>1262.4</ele>
        <time>2022-10-28T10:35:54Z</time>
      </trkpt>
      <trkpt lat="44.43076" lon="3.60736">
        <ele>1262.6</ele>
        <time>2022-10-28T10:35:55Z</time>
      </trkpt>
      <trkpt lat="44.43088" lon="3.60752">
        <ele>1264</ele>
        <time>2022-10-28T10:36:27Z</time>
      </trkpt>
      <trkpt lat="44.43089" lon="3.60753">
        <ele>1264</ele>
        <time>2022-10-28T10:36:28Z</time>
      </trkpt>
      <trkpt lat="44.43089" lon="3.60753">
        <ele>1264</ele>
        <time>2022-10-28T10:36:29Z</time>
      </trkpt>
      <trkpt lat="44.4309" lon="3.60753">
        <ele>1264</ele>
        <time>2022-10-28T10:36:30Z</time>
      </trkpt>
      <trkpt lat="44.43091" lon="3.60754">
        <ele>1264</ele>
        <time>2022-10-28T10:36:31Z</time>
      </trkpt>
      <trkpt lat="44.43092" lon="3.60754">
        <ele>1264</ele>
        <time>2022-10-28T10:36:32Z</time>
      </trkpt>
      <trkpt lat="44.43093" lon="3.60754">
        <ele>1264.2</ele>
        <time>2022-10-28T10:36:33Z</time>
      </trkpt>
      <trkpt lat="44.43093" lon="3.60755">
        <ele>1264.2</ele>
        <time>2022-10-28T10:36:34Z</time>
      </trkpt>
      <trkpt lat="44.43094" lon="3.60755">
        <ele>1264.4</ele>
        <time>2022-10-28T10:36:35Z</time>
      </trkpt>
      <trkpt lat="44.43095" lon="3.60755">
        <ele>1264.4</ele>
        <time>2022-10-28T10:36:36Z</time>
      </trkpt>
      <trkpt lat="44.43096" lon="3.60755">
        <ele>1264.6</ele>
        <time>2022-10-28T10:36:37Z</time>
      </trkpt>
      <trkpt lat="44.43097" lon="3.60755">
        <ele>1264.6</ele>
        <time>2022-10-28T10:36:38Z</time>
      </trkpt>
      <trkpt lat="44.43098" lon="3.60756">
        <ele>1264.8</ele>
        <time>2022-10-28T10:36:39Z</time>
      </trkpt>
      <trkpt lat="44.43098" lon="3.60756">
        <ele>1264.8</ele>
        <time>2022-10-28T10:36:40Z</time>
      </trkpt>
      <trkpt lat="44.43099" lon="3.60757">
        <ele>1265</ele>
        <time>2022-10-28T10:36:41Z</time>
      </trkpt>
      <trkpt lat="44.431" lon="3.60757">
        <ele>1265.2</ele>
        <time>2022-10-28T10:36:42Z</time>
      </trkpt>
      <trkpt lat="44.43101" lon="3.60758">
        <ele>1265.2</ele>
        <time>2022-10-28T10:36:43Z</time>
      </trkpt>
      <trkpt lat="44.43102" lon="3.60758">
        <ele>1265.4</ele>
        <time>2022-10-28T10:36:44Z</time>
      </trkpt>
      <trkpt lat="44.43103" lon="3.60759">
        <ele>1265.6</ele>
        <time>2022-10-28T10:36:45Z</time>
      </trkpt>
      <trkpt lat="44.43104" lon="3.60759">
        <ele>1265.8</ele>
        <time>2022-10-28T10:36:46Z</time>
      </trkpt>
      <trkpt lat="44.43104" lon="3.6076">
        <ele>1266</ele>
        <time>2022-10-28T10:36:47Z</time>
      </trkpt>
      <trkpt lat="44.43105" lon="3.6076">
        <ele>1266</ele>
        <time>2022-10-28T10:36:48Z</time>
      </trkpt>
      <trkpt lat="44.43106" lon="3.60761">
        <ele>1266.2</ele>
        <time>2022-10-28T10:36:49Z</time>
      </trkpt>
      <trkpt lat="44.43106" lon="3.60761">
        <ele>1266.2</ele>
        <time>2022-10-28T10:36:50Z</time>
      </trkpt>
      <trkpt lat="44.43106" lon="3.60761">
        <ele>1266.2</ele>
        <time>2022-10-28T10:36:51Z</time>
      </trkpt>
      <trkpt lat="44.43106" lon="3.60761">
        <ele>1266.4</ele>
        <time>2022-10-28T10:36:52Z</time>
      </trkpt>
      <trkpt lat="44.43106" lon="3.60761">
        <ele>1266.4</ele>
        <time>2022-10-28T10:36:53Z</time>
      </trkpt>
      <trkpt lat="44.43107" lon="3.60761">
        <ele>1266.4</ele>
        <time>2022-10-28T10:36:54Z</time>
      </trkpt>
      <trkpt lat="44.43108" lon="3.60762">
        <ele>1266.6</ele>
        <time>2022-10-28T10:36:55Z</time>
      </trkpt>
      <trkpt lat="44.43109" lon="3.60762">
        <ele>1266.6</ele>
        <time>2022-10-28T10:36:56Z</time>
      </trkpt>
      <trkpt lat="44.4311" lon="3.60762">
        <ele>1266.8</ele>
        <time>2022-10-28T10:36:57Z</time>
      </trkpt>
      <trkpt lat="44.43111" lon="3.60763">
        <ele>1266.8</ele>
        <time>2022-10-28T10:36:58Z</time>
      </trkpt>
      <trkpt lat="44.43113" lon="3.60764">
        <ele>1266.8</ele>
        <time>2022-10-28T10:36:59Z</time>
      </trkpt>
      <trkpt lat="44.43114" lon="3.60765">
        <ele>1267</ele>
        <time>2022-10-28T10:37:00Z</time>
      </trkpt>
      <trkpt lat="44.43115" lon="3.60766">
        <ele>1267.2</ele>
        <time>2022-10-28T10:37:01Z</time>
      </trkpt>
      <trkpt lat="44.43116" lon="3.60768">
        <ele>1267.4</ele>
        <time>2022-10-28T10:37:02Z</time>
      </trkpt>
      <trkpt lat="44.43116" lon="3.60769">
        <ele>1267.4</ele>
        <time>2022-10-28T10:37:03Z</time>
      </trkpt>
      <trkpt lat="44.43117" lon="3.6077">
        <ele>1267.6</ele>
        <time>2022-10-28T10:37:04Z</time>
      </trkpt>
      <trkpt lat="44.43118" lon="3.60771">
        <ele>1267.8</ele>
        <time>2022-10-28T10:37:05Z</time>
      </trkpt>
      <trkpt lat="44.43119" lon="3.60772">
        <ele>1267.8</ele>
        <time>2022-10-28T10:37:06Z</time>
      </trkpt>
      <trkpt lat="44.4312" lon="3.60773">
        <ele>1268</ele>
        <time>2022-10-28T10:37:07Z</time>
      </trkpt>
      <trkpt lat="44.43121" lon="3.60774">
        <ele>1268</ele>
        <time>2022-10-28T10:37:08Z</time>
      </trkpt>
      <trkpt lat="44.43122" lon="3.60774">
        <ele>1268.2</ele>
        <time>2022-10-28T10:37:09Z</time>
      </trkpt>
      <trkpt lat="44.43123" lon="3.60775">
        <ele>1268.2</ele>
        <time>2022-10-28T10:37:10Z</time>
      </trkpt>
      <trkpt lat="44.43124" lon="3.60777">
        <ele>1268.4</ele>
        <time>2022-10-28T10:37:11Z</time>
      </trkpt>
      <trkpt lat="44.43125" lon="3.60778">
        <ele>1268.4</ele>
        <time>2022-10-28T10:37:12Z</time>
      </trkpt>
      <trkpt lat="44.43127" lon="3.60779">
        <ele>1268.6</ele>
        <time>2022-10-28T10:37:13Z</time>
      </trkpt>
      <trkpt lat="44.43128" lon="3.6078">
        <ele>1268.8</ele>
        <time>2022-10-28T10:37:14Z</time>
      </trkpt>
      <trkpt lat="44.43129" lon="3.60781">
        <ele>1268.8</ele>
        <time>2022-10-28T10:37:15Z</time>
      </trkpt>
      <trkpt lat="44.4313" lon="3.60782">
        <ele>1269</ele>
        <time>2022-10-28T10:37:16Z</time>
      </trkpt>
      <trkpt lat="44.43131" lon="3.60783">
        <ele>1269.2</ele>
        <time>2022-10-28T10:37:17Z</time>
      </trkpt>
      <trkpt lat="44.43133" lon="3.60785">
        <ele>1269.2</ele>
        <time>2022-10-28T10:37:18Z</time>
      </trkpt>
      <trkpt lat="44.43134" lon="3.60786">
        <ele>1269.4</ele>
        <time>2022-10-28T10:37:19Z</time>
      </trkpt>
      <trkpt lat="44.43135" lon="3.60787">
        <ele>1269.6</ele>
        <time>2022-10-28T10:37:20Z</time>
      </trkpt>
      <trkpt lat="44.43136" lon="3.60789">
        <ele>1269.8</ele>
        <time>2022-10-28T10:37:21Z</time>
      </trkpt>
      <trkpt lat="44.43137" lon="3.6079">
        <ele>1270</ele>
        <time>2022-10-28T10:37:22Z</time>
      </trkpt>
      <trkpt lat="44.43139" lon="3.60791">
        <ele>1270</ele>
        <time>2022-10-28T10:37:23Z</time>
      </trkpt>
      <trkpt lat="44.4314" lon="3.60792">
        <ele>1270.2</ele>
        <time>2022-10-28T10:37:24Z</time>
      </trkpt>
      <trkpt lat="44.43141" lon="3.60793">
        <ele>1270.2</ele>
        <time>2022-10-28T10:37:25Z</time>
      </trkpt>
      <trkpt lat="44.43142" lon="3.60794">
        <ele>1270.4</ele>
        <time>2022-10-28T10:37:26Z</time>
      </trkpt>
      <trkpt lat="44.43143" lon="3.60795">
        <ele>1270.6</ele>
        <time>2022-10-28T10:37:27Z</time>
      </trkpt>
      <trkpt lat="44.43144" lon="3.60796">
        <ele>1270.6</ele>
        <time>2022-10-28T10:37:28Z</time>
      </trkpt>
      <trkpt lat="44.43145" lon="3.60797">
        <ele>1270.8</ele>
        <time>2022-10-28T10:37:29Z</time>
      </trkpt>
      <trkpt lat="44.43146" lon="3.60797">
        <ele>1270.8</ele>
        <time>2022-10-28T10:37:30Z</time>
      </trkpt>
      <trkpt lat="44.43147" lon="3.60798">
        <ele>1271</ele>
        <time>2022-10-28T10:37:31Z</time>
      </trkpt>
      <trkpt lat="44.43148" lon="3.60799">
        <ele>1271</ele>
        <time>2022-10-28T10:37:32Z</time>
      </trkpt>
      <trkpt lat="44.43149" lon="3.608">
        <ele>1271.2</ele>
        <time>2022-10-28T10:37:33Z</time>
      </trkpt>
      <trkpt lat="44.4315" lon="3.60801">
        <ele>1271.4</ele>
        <time>2022-10-28T10:37:34Z</time>
      </trkpt>
      <trkpt lat="44.43151" lon="3.60802">
        <ele>1271.6</ele>
        <time>2022-10-28T10:37:35Z</time>
      </trkpt>
      <trkpt lat="44.43152" lon="3.60803">
        <ele>1271.8</ele>
        <time>2022-10-28T10:37:36Z</time>
      </trkpt>
      <trkpt lat="44.43153" lon="3.60804">
        <ele>1271.8</ele>
        <time>2022-10-28T10:37:37Z</time>
      </trkpt>
      <trkpt lat="44.43154" lon="3.60805">
        <ele>1272</ele>
        <time>2022-10-28T10:37:38Z</time>
      </trkpt>
      <trkpt lat="44.43156" lon="3.60806">
        <ele>1272.2</ele>
        <time>2022-10-28T10:37:39Z</time>
      </trkpt>
      <trkpt lat="44.43157" lon="3.60807">
        <ele>1272.4</ele>
        <time>2022-10-28T10:37:40Z</time>
      </trkpt>
      <trkpt lat="44.43158" lon="3.60808">
        <ele>1272.4</ele>
        <time>2022-10-28T10:37:41Z</time>
      </trkpt>
      <trkpt lat="44.43159" lon="3.60808">
        <ele>1272.6</ele>
        <time>2022-10-28T10:37:42Z</time>
      </trkpt>
      <trkpt lat="44.43161" lon="3.60809">
        <ele>1272.6</ele>
        <time>2022-10-28T10:37:43Z</time>
      </trkpt>
      <trkpt lat="44.43161" lon="3.6081">
        <ele>1272.8</ele>
        <time>2022-10-28T10:37:44Z</time>
      </trkpt>
      <trkpt lat="44.43162" lon="3.60811">
        <ele>1273</ele>
        <time>2022-10-28T10:37:45Z</time>
      </trkpt>
      <trkpt lat="44.43163" lon="3.60812">
        <ele>1273</ele>
        <time>2022-10-28T10:37:46Z</time>
      </trkpt>
      <trkpt lat="44.43164" lon="3.60813">
        <ele>1273.2</ele>
        <time>2022-10-28T10:37:47Z</time>
      </trkpt>
      <trkpt lat="44.43165" lon="3.60814">
        <ele>1273.2</ele>
        <time>2022-10-28T10:37:48Z</time>
      </trkpt>
      <trkpt lat="44.43167" lon="3.60815">
        <ele>1273.4</ele>
        <time>2022-10-28T10:37:49Z</time>
      </trkpt>
      <trkpt lat="44.43167" lon="3.60816">
        <ele>1273.4</ele>
        <time>2022-10-28T10:37:50Z</time>
      </trkpt>
      <trkpt lat="44.43168" lon="3.60817">
        <ele>1273.6</ele>
        <time>2022-10-28T10:37:51Z</time>
      </trkpt>
      <trkpt lat="44.4317" lon="3.60818">
        <ele>1273.8</ele>
        <time>2022-10-28T10:37:52Z</time>
      </trkpt>
      <trkpt lat="44.4317" lon="3.60819">
        <ele>1273.8</ele>
        <time>2022-10-28T10:37:53Z</time>
      </trkpt>
      <trkpt lat="44.43171" lon="3.6082">
        <ele>1274</ele>
        <time>2022-10-28T10:37:54Z</time>
      </trkpt>
      <trkpt lat="44.43171" lon="3.6082">
        <ele>1274</ele>
        <time>2022-10-28T10:37:55Z</time>
      </trkpt>
      <trkpt lat="44.43171" lon="3.6082">
        <ele>1274</ele>
        <time>2022-10-28T10:37:58Z</time>
      </trkpt>
      <trkpt lat="44.43172" lon="3.6082">
        <ele>1274.2</ele>
        <time>2022-10-28T10:37:59Z</time>
      </trkpt>
      <trkpt lat="44.43172" lon="3.6082">
        <ele>1274.2</ele>
        <time>2022-10-28T10:38:00Z</time>
      </trkpt>
      <trkpt lat="44.43173" lon="3.6082">
        <ele>1274.2</ele>
        <time>2022-10-28T10:38:01Z</time>
      </trkpt>
      <trkpt lat="44.43173" lon="3.6082">
        <ele>1274.4</ele>
        <time>2022-10-28T10:38:02Z</time>
      </trkpt>
      <trkpt lat="44.43173" lon="3.6082">
        <ele>1274.4</ele>
        <time>2022-10-28T10:38:03Z</time>
      </trkpt>
      <trkpt lat="44.4317" lon="3.60819">
        <ele>1274.6</ele>
        <time>2022-10-28T10:39:00Z</time>
      </trkpt>
      <trkpt lat="44.43169" lon="3.60819">
        <ele>1274.6</ele>
        <time>2022-10-28T10:39:01Z</time>
      </trkpt>
      <trkpt lat="44.43168" lon="3.60818">
        <ele>1274.6</ele>
        <time>2022-10-28T10:39:02Z</time>
      </trkpt>
      <trkpt lat="44.43168" lon="3.60819">
        <ele>1274.6</ele>
        <time>2022-10-28T10:39:03Z</time>
      </trkpt>
      <trkpt lat="44.43168" lon="3.60819">
        <ele>1274.6</ele>
        <time>2022-10-28T10:39:04Z</time>
      </trkpt>
      <trkpt lat="44.43168" lon="3.60819">
        <ele>1274.6</ele>
        <time>2022-10-28T10:39:05Z</time>
      </trkpt>
      <trkpt lat="44.43171" lon="3.60821">
        <ele>1274.8</ele>
        <time>2022-10-28T10:39:14Z</time>
      </trkpt>
      <trkpt lat="44.43172" lon="3.60822">
        <ele>1274.8</ele>
        <time>2022-10-28T10:39:15Z</time>
      </trkpt>
      <trkpt lat="44.43174" lon="3.60824">
        <ele>1274.8</ele>
        <time>2022-10-28T10:39:16Z</time>
      </trkpt>
      <trkpt lat="44.43175" lon="3.60824">
        <ele>1274.8</ele>
        <time>2022-10-28T10:39:17Z</time>
      </trkpt>
      <trkpt lat="44.43176" lon="3.60825">
        <ele>1275</ele>
        <time>2022-10-28T10:39:18Z</time>
      </trkpt>
      <trkpt lat="44.43176" lon="3.60825">
        <ele>1275</ele>
        <time>2022-10-28T10:39:19Z</time>
      </trkpt>
      <trkpt lat="44.43176" lon="3.60825">
        <ele>1275</ele>
        <time>2022-10-28T10:39:20Z</time>
      </trkpt>
      <trkpt lat="44.43176" lon="3.60825">
        <ele>1275</ele>
        <time>2022-10-28T10:39:21Z</time>
      </trkpt>
      <trkpt lat="44.43176" lon="3.60825">
        <ele>1275</ele>
        <time>2022-10-28T10:39:22Z</time>
      </trkpt>
      <trkpt lat="44.43176" lon="3.60825">
        <ele>1275.2</ele>
        <time>2022-10-28T10:39:23Z</time>
      </trkpt>
      <trkpt lat="44.43177" lon="3.60826">
        <ele>1275.4</ele>
        <time>2022-10-28T10:40:28Z</time>
      </trkpt>
      <trkpt lat="44.43179" lon="3.60827">
        <ele>1275.4</ele>
        <time>2022-10-28T10:40:29Z</time>
      </trkpt>
      <trkpt lat="44.4318" lon="3.60828">
        <ele>1275.4</ele>
        <time>2022-10-28T10:40:30Z</time>
      </trkpt>
      <trkpt lat="44.43182" lon="3.60829">
        <ele>1275.4</ele>
        <time>2022-10-28T10:40:31Z</time>
      </trkpt>
      <trkpt lat="44.43182" lon="3.60829">
        <ele>1275.6</ele>
        <time>2022-10-28T10:40:32Z</time>
      </trkpt>
      <trkpt lat="44.43183" lon="3.60829">
        <ele>1275.6</ele>
        <time>2022-10-28T10:40:33Z</time>
      </trkpt>
      <trkpt lat="44.43184" lon="3.60829">
        <ele>1275.6</ele>
        <time>2022-10-28T10:40:34Z</time>
      </trkpt>
      <trkpt lat="44.43185" lon="3.6083">
        <ele>1275.8</ele>
        <time>2022-10-28T10:40:35Z</time>
      </trkpt>
      <trkpt lat="44.43185" lon="3.60831">
        <ele>1276</ele>
        <time>2022-10-28T10:40:36Z</time>
      </trkpt>
      <trkpt lat="44.43186" lon="3.60831">
        <ele>1276</ele>
        <time>2022-10-28T10:40:37Z</time>
      </trkpt>
      <trkpt lat="44.43187" lon="3.60832">
        <ele>1276.2</ele>
        <time>2022-10-28T10:40:38Z</time>
      </trkpt>
      <trkpt lat="44.43188" lon="3.60833">
        <ele>1276.4</ele>
        <time>2022-10-28T10:40:39Z</time>
      </trkpt>
      <trkpt lat="44.43189" lon="3.60833">
        <ele>1276.6</ele>
        <time>2022-10-28T10:40:40Z</time>
      </trkpt>
      <trkpt lat="44.4319" lon="3.60834">
        <ele>1276.8</ele>
        <time>2022-10-28T10:40:41Z</time>
      </trkpt>
      <trkpt lat="44.43192" lon="3.60835">
        <ele>1277</ele>
        <time>2022-10-28T10:40:42Z</time>
      </trkpt>
      <trkpt lat="44.43193" lon="3.60836">
        <ele>1277.2</ele>
        <time>2022-10-28T10:40:43Z</time>
      </trkpt>
      <trkpt lat="44.43194" lon="3.60836">
        <ele>1277.4</ele>
        <time>2022-10-28T10:40:44Z</time>
      </trkpt>
      <trkpt lat="44.43195" lon="3.60837">
        <ele>1277.6</ele>
        <time>2022-10-28T10:40:45Z</time>
      </trkpt>
      <trkpt lat="44.43196" lon="3.60837">
        <ele>1277.8</ele>
        <time>2022-10-28T10:40:46Z</time>
      </trkpt>
      <trkpt lat="44.43197" lon="3.60838">
        <ele>1278</ele>
        <time>2022-10-28T10:40:47Z</time>
      </trkpt>
      <trkpt lat="44.43198" lon="3.6084">
        <ele>1278.4</ele>
        <time>2022-10-28T10:40:48Z</time>
      </trkpt>
      <trkpt lat="44.432" lon="3.60841">
        <ele>1278.6</ele>
        <time>2022-10-28T10:40:49Z</time>
      </trkpt>
      <trkpt lat="44.432" lon="3.60842">
        <ele>1278.8</ele>
        <time>2022-10-28T10:40:50Z</time>
      </trkpt>
      <trkpt lat="44.43201" lon="3.60843">
        <ele>1279</ele>
        <time>2022-10-28T10:40:51Z</time>
      </trkpt>
      <trkpt lat="44.43202" lon="3.60845">
        <ele>1279</ele>
        <time>2022-10-28T10:40:52Z</time>
      </trkpt>
      <trkpt lat="44.43203" lon="3.60846">
        <ele>1279.2</ele>
        <time>2022-10-28T10:40:53Z</time>
      </trkpt>
      <trkpt lat="44.43204" lon="3.60847">
        <ele>1279.4</ele>
        <time>2022-10-28T10:40:54Z</time>
      </trkpt>
      <trkpt lat="44.43205" lon="3.60849">
        <ele>1279.6</ele>
        <time>2022-10-28T10:40:55Z</time>
      </trkpt>
      <trkpt lat="44.43205" lon="3.6085">
        <ele>1279.8</ele>
        <time>2022-10-28T10:40:56Z</time>
      </trkpt>
      <trkpt lat="44.43206" lon="3.60852">
        <ele>1279.8</ele>
        <time>2022-10-28T10:40:57Z</time>
      </trkpt>
      <trkpt lat="44.43207" lon="3.60853">
        <ele>1280</ele>
        <time>2022-10-28T10:40:58Z</time>
      </trkpt>
      <trkpt lat="44.43208" lon="3.60855">
        <ele>1280.2</ele>
        <time>2022-10-28T10:40:59Z</time>
      </trkpt>
      <trkpt lat="44.4321" lon="3.60856">
        <ele>1280.4</ele>
        <time>2022-10-28T10:41:00Z</time>
      </trkpt>
      <trkpt lat="44.43211" lon="3.60856">
        <ele>1280.6</ele>
        <time>2022-10-28T10:41:01Z</time>
      </trkpt>
      <trkpt lat="44.43212" lon="3.60857">
        <ele>1280.8</ele>
        <time>2022-10-28T10:41:02Z</time>
      </trkpt>
      <trkpt lat="44.43213" lon="3.60858">
        <ele>1281</ele>
        <time>2022-10-28T10:41:03Z</time>
      </trkpt>
      <trkpt lat="44.43214" lon="3.60859">
        <ele>1281.2</ele>
        <time>2022-10-28T10:41:04Z</time>
      </trkpt>
      <trkpt lat="44.43215" lon="3.6086">
        <ele>1281.4</ele>
        <time>2022-10-28T10:41:05Z</time>
      </trkpt>
      <trkpt lat="44.43216" lon="3.60862">
        <ele>1281.6</ele>
        <time>2022-10-28T10:41:06Z</time>
      </trkpt>
      <trkpt lat="44.43217" lon="3.60863">
        <ele>1281.8</ele>
        <time>2022-10-28T10:41:07Z</time>
      </trkpt>
      <trkpt lat="44.43217" lon="3.60864">
        <ele>1282</ele>
        <time>2022-10-28T10:41:08Z</time>
      </trkpt>
      <trkpt lat="44.43219" lon="3.60865">
        <ele>1282.2</ele>
        <time>2022-10-28T10:41:09Z</time>
      </trkpt>
      <trkpt lat="44.4322" lon="3.60866">
        <ele>1282.4</ele>
        <time>2022-10-28T10:41:10Z</time>
      </trkpt>
      <trkpt lat="44.43221" lon="3.60867">
        <ele>1282.4</ele>
        <time>2022-10-28T10:41:11Z</time>
      </trkpt>
      <trkpt lat="44.43222" lon="3.60867">
        <ele>1282.6</ele>
        <time>2022-10-28T10:41:12Z</time>
      </trkpt>
      <trkpt lat="44.43223" lon="3.60868">
        <ele>1282.8</ele>
        <time>2022-10-28T10:41:13Z</time>
      </trkpt>
      <trkpt lat="44.43224" lon="3.60868">
        <ele>1282.8</ele>
        <time>2022-10-28T10:41:14Z</time>
      </trkpt>
      <trkpt lat="44.43225" lon="3.60869">
        <ele>1283</ele>
        <time>2022-10-28T10:41:15Z</time>
      </trkpt>
      <trkpt lat="44.43226" lon="3.60869">
        <ele>1283.2</ele>
        <time>2022-10-28T10:41:16Z</time>
      </trkpt>
      <trkpt lat="44.43227" lon="3.6087">
        <ele>1283.4</ele>
        <time>2022-10-28T10:41:17Z</time>
      </trkpt>
      <trkpt lat="44.43228" lon="3.6087">
        <ele>1283.4</ele>
        <time>2022-10-28T10:41:18Z</time>
      </trkpt>
      <trkpt lat="44.43229" lon="3.6087">
        <ele>1283.6</ele>
        <time>2022-10-28T10:41:19Z</time>
      </trkpt>
      <trkpt lat="44.4323" lon="3.60871">
        <ele>1283.8</ele>
        <time>2022-10-28T10:41:20Z</time>
      </trkpt>
      <trkpt lat="44.43231" lon="3.60871">
        <ele>1283.8</ele>
        <time>2022-10-28T10:41:21Z</time>
      </trkpt>
      <trkpt lat="44.43232" lon="3.60871">
        <ele>1284</ele>
        <time>2022-10-28T10:41:22Z</time>
      </trkpt>
      <trkpt lat="44.43233" lon="3.60871">
        <ele>1284</ele>
        <time>2022-10-28T10:41:23Z</time>
      </trkpt>
      <trkpt lat="44.43233" lon="3.60872">
        <ele>1284.2</ele>
        <time>2022-10-28T10:41:24Z</time>
      </trkpt>
      <trkpt lat="44.43234" lon="3.60871">
        <ele>1284.4</ele>
        <time>2022-10-28T10:41:28Z</time>
      </trkpt>
      <trkpt lat="44.43235" lon="3.60871">
        <ele>1284.4</ele>
        <time>2022-10-28T10:41:29Z</time>
      </trkpt>
      <trkpt lat="44.43235" lon="3.60871">
        <ele>1284.4</ele>
        <time>2022-10-28T10:41:30Z</time>
      </trkpt>
      <trkpt lat="44.43236" lon="3.60871">
        <ele>1284.4</ele>
        <time>2022-10-28T10:41:31Z</time>
      </trkpt>
      <trkpt lat="44.43237" lon="3.60871">
        <ele>1284.6</ele>
        <time>2022-10-28T10:41:32Z</time>
      </trkpt>
      <trkpt lat="44.43238" lon="3.60871">
        <ele>1284.6</ele>
        <time>2022-10-28T10:41:33Z</time>
      </trkpt>
      <trkpt lat="44.43239" lon="3.60871">
        <ele>1284.8</ele>
        <time>2022-10-28T10:41:34Z</time>
      </trkpt>
      <trkpt lat="44.4324" lon="3.60871">
        <ele>1285</ele>
        <time>2022-10-28T10:41:35Z</time>
      </trkpt>
      <trkpt lat="44.43241" lon="3.60872">
        <ele>1285</ele>
        <time>2022-10-28T10:41:36Z</time>
      </trkpt>
      <trkpt lat="44.43241" lon="3.60872">
        <ele>1285.2</ele>
        <time>2022-10-28T10:41:37Z</time>
      </trkpt>
      <trkpt lat="44.43242" lon="3.60873">
        <ele>1285.4</ele>
        <time>2022-10-28T10:41:38Z</time>
      </trkpt>
      <trkpt lat="44.43243" lon="3.60873">
        <ele>1285.4</ele>
        <time>2022-10-28T10:41:39Z</time>
      </trkpt>
      <trkpt lat="44.43243" lon="3.60874">
        <ele>1285.6</ele>
        <time>2022-10-28T10:41:40Z</time>
      </trkpt>
      <trkpt lat="44.43244" lon="3.60875">
        <ele>1285.8</ele>
        <time>2022-10-28T10:41:41Z</time>
      </trkpt>
      <trkpt lat="44.43244" lon="3.60875">
        <ele>1285.8</ele>
        <time>2022-10-28T10:41:42Z</time>
      </trkpt>
      <trkpt lat="44.43245" lon="3.60876">
        <ele>1286</ele>
        <time>2022-10-28T10:41:43Z</time>
      </trkpt>
      <trkpt lat="44.43246" lon="3.60876">
        <ele>1286</ele>
        <time>2022-10-28T10:41:44Z</time>
      </trkpt>
      <trkpt lat="44.43246" lon="3.60877">
        <ele>1286</ele>
        <time>2022-10-28T10:41:45Z</time>
      </trkpt>
      <trkpt lat="44.43247" lon="3.60878">
        <ele>1286.2</ele>
        <time>2022-10-28T10:41:46Z</time>
      </trkpt>
      <trkpt lat="44.43247" lon="3.60879">
        <ele>1286.2</ele>
        <time>2022-10-28T10:41:47Z</time>
      </trkpt>
      <trkpt lat="44.43248" lon="3.60879">
        <ele>1286.4</ele>
        <time>2022-10-28T10:41:48Z</time>
      </trkpt>
      <trkpt lat="44.43248" lon="3.6088">
        <ele>1286.6</ele>
        <time>2022-10-28T10:41:49Z</time>
      </trkpt>
      <trkpt lat="44.43249" lon="3.60881">
        <ele>1286.6</ele>
        <time>2022-10-28T10:41:50Z</time>
      </trkpt>
      <trkpt lat="44.4325" lon="3.60881">
        <ele>1286.8</ele>
        <time>2022-10-28T10:41:51Z</time>
      </trkpt>
      <trkpt lat="44.43251" lon="3.60882">
        <ele>1287</ele>
        <time>2022-10-28T10:41:52Z</time>
      </trkpt>
      <trkpt lat="44.43251" lon="3.60882">
        <ele>1287</ele>
        <time>2022-10-28T10:41:53Z</time>
      </trkpt>
      <trkpt lat="44.43252" lon="3.60882">
        <ele>1287.2</ele>
        <time>2022-10-28T10:41:54Z</time>
      </trkpt>
      <trkpt lat="44.43252" lon="3.60882">
        <ele>1287.2</ele>
        <time>2022-10-28T10:41:55Z</time>
      </trkpt>
      <trkpt lat="44.43253" lon="3.60883">
        <ele>1287.4</ele>
        <time>2022-10-28T10:41:56Z</time>
      </trkpt>
      <trkpt lat="44.43254" lon="3.60883">
        <ele>1287.6</ele>
        <time>2022-10-28T10:41:57Z</time>
      </trkpt>
      <trkpt lat="44.43255" lon="3.60883">
        <ele>1287.6</ele>
        <time>2022-10-28T10:41:58Z</time>
      </trkpt>
      <trkpt lat="44.43256" lon="3.60884">
        <ele>1287.8</ele>
        <time>2022-10-28T10:41:59Z</time>
      </trkpt>
      <trkpt lat="44.43257" lon="3.60884">
        <ele>1288</ele>
        <time>2022-10-28T10:42:00Z</time>
      </trkpt>
      <trkpt lat="44.43258" lon="3.60884">
        <ele>1288.2</ele>
        <time>2022-10-28T10:42:01Z</time>
      </trkpt>
      <trkpt lat="44.43259" lon="3.60885">
        <ele>1288.4</ele>
        <time>2022-10-28T10:42:02Z</time>
      </trkpt>
      <trkpt lat="44.4326" lon="3.60884">
        <ele>1288.4</ele>
        <time>2022-10-28T10:42:03Z</time>
      </trkpt>
      <trkpt lat="44.43261" lon="3.60885">
        <ele>1288.6</ele>
        <time>2022-10-28T10:42:04Z</time>
      </trkpt>
      <trkpt lat="44.43262" lon="3.60885">
        <ele>1288.6</ele>
        <time>2022-10-28T10:42:05Z</time>
      </trkpt>
      <trkpt lat="44.43263" lon="3.60885">
        <ele>1288.8</ele>
        <time>2022-10-28T10:42:06Z</time>
      </trkpt>
      <trkpt lat="44.43263" lon="3.60885">
        <ele>1288.8</ele>
        <time>2022-10-28T10:42:07Z</time>
      </trkpt>
      <trkpt lat="44.43263" lon="3.60885">
        <ele>1288.8</ele>
        <time>2022-10-28T10:42:08Z</time>
      </trkpt>
      <trkpt lat="44.43263" lon="3.60885">
        <ele>1288.8</ele>
        <time>2022-10-28T10:42:09Z</time>
      </trkpt>
      <trkpt lat="44.43263" lon="3.60885">
        <ele>1288.8</ele>
        <time>2022-10-28T10:42:10Z</time>
      </trkpt>
      <trkpt lat="44.43263" lon="3.60885">
        <ele>1289</ele>
        <time>2022-10-28T10:42:11Z</time>
      </trkpt>
      <trkpt lat="44.43264" lon="3.60884">
        <ele>1289</ele>
        <time>2022-10-28T10:42:12Z</time>
      </trkpt>
      <trkpt lat="44.43264" lon="3.60884">
        <ele>1289</ele>
        <time>2022-10-28T10:42:13Z</time>
      </trkpt>
      <trkpt lat="44.43265" lon="3.60884">
        <ele>1289.2</ele>
        <time>2022-10-28T10:42:14Z</time>
      </trkpt>
      <trkpt lat="44.43266" lon="3.60883">
        <ele>1289.2</ele>
        <time>2022-10-28T10:42:15Z</time>
      </trkpt>
      <trkpt lat="44.43267" lon="3.60883">
        <ele>1289.4</ele>
        <time>2022-10-28T10:42:16Z</time>
      </trkpt>
      <trkpt lat="44.43268" lon="3.60883">
        <ele>1289.4</ele>
        <time>2022-10-28T10:42:17Z</time>
      </trkpt>
      <trkpt lat="44.43269" lon="3.60882">
        <ele>1289.6</ele>
        <time>2022-10-28T10:42:18Z</time>
      </trkpt>
      <trkpt lat="44.4327" lon="3.60882">
        <ele>1289.6</ele>
        <time>2022-10-28T10:42:19Z</time>
      </trkpt>
      <trkpt lat="44.4327" lon="3.60882">
        <ele>1289.8</ele>
        <time>2022-10-28T10:42:20Z</time>
      </trkpt>
      <trkpt lat="44.43271" lon="3.60882">
        <ele>1289.8</ele>
        <time>2022-10-28T10:42:21Z</time>
      </trkpt>
      <trkpt lat="44.43271" lon="3.60882">
        <ele>1290</ele>
        <time>2022-10-28T10:42:22Z</time>
      </trkpt>
      <trkpt lat="44.43272" lon="3.60881">
        <ele>1290.2</ele>
        <time>2022-10-28T10:42:23Z</time>
      </trkpt>
      <trkpt lat="44.43273" lon="3.60881">
        <ele>1290.2</ele>
        <time>2022-10-28T10:42:24Z</time>
      </trkpt>
      <trkpt lat="44.43275" lon="3.6088">
        <ele>1290.4</ele>
        <time>2022-10-28T10:42:25Z</time>
      </trkpt>
      <trkpt lat="44.43276" lon="3.6088">
        <ele>1290.4</ele>
        <time>2022-10-28T10:42:26Z</time>
      </trkpt>
      <trkpt lat="44.43277" lon="3.6088">
        <ele>1290.6</ele>
        <time>2022-10-28T10:42:27Z</time>
      </trkpt>
      <trkpt lat="44.43278" lon="3.60881">
        <ele>1290.6</ele>
        <time>2022-10-28T10:42:28Z</time>
      </trkpt>
      <trkpt lat="44.43279" lon="3.60881">
        <ele>1290.8</ele>
        <time>2022-10-28T10:42:29Z</time>
      </trkpt>
      <trkpt lat="44.4328" lon="3.60882">
        <ele>1290.8</ele>
        <time>2022-10-28T10:42:30Z</time>
      </trkpt>
      <trkpt lat="44.43281" lon="3.60883">
        <ele>1291</ele>
        <time>2022-10-28T10:42:31Z</time>
      </trkpt>
      <trkpt lat="44.43281" lon="3.60884">
        <ele>1291</ele>
        <time>2022-10-28T10:42:32Z</time>
      </trkpt>
      <trkpt lat="44.43281" lon="3.60885">
        <ele>1291</ele>
        <time>2022-10-28T10:42:33Z</time>
      </trkpt>
      <trkpt lat="44.43282" lon="3.60885">
        <ele>1291</ele>
        <time>2022-10-28T10:42:34Z</time>
      </trkpt>
      <trkpt lat="44.43282" lon="3.60886">
        <ele>1291.2</ele>
        <time>2022-10-28T10:42:35Z</time>
      </trkpt>
      <trkpt lat="44.43283" lon="3.60887">
        <ele>1291.4</ele>
        <time>2022-10-28T10:42:36Z</time>
      </trkpt>
      <trkpt lat="44.43284" lon="3.60887">
        <ele>1291.6</ele>
        <time>2022-10-28T10:42:37Z</time>
      </trkpt>
      <trkpt lat="44.43285" lon="3.60888">
        <ele>1291.8</ele>
        <time>2022-10-28T10:42:38Z</time>
      </trkpt>
      <trkpt lat="44.43285" lon="3.60888">
        <ele>1292</ele>
        <time>2022-10-28T10:42:39Z</time>
      </trkpt>
      <trkpt lat="44.43286" lon="3.60889">
        <ele>1292.2</ele>
        <time>2022-10-28T10:42:40Z</time>
      </trkpt>
      <trkpt lat="44.43287" lon="3.60889">
        <ele>1292.4</ele>
        <time>2022-10-28T10:42:41Z</time>
      </trkpt>
      <trkpt lat="44.43287" lon="3.6089">
        <ele>1292.6</ele>
        <time>2022-10-28T10:42:42Z</time>
      </trkpt>
      <trkpt lat="44.43288" lon="3.6089">
        <ele>1292.8</ele>
        <time>2022-10-28T10:42:43Z</time>
      </trkpt>
      <trkpt lat="44.43289" lon="3.60891">
        <ele>1293</ele>
        <time>2022-10-28T10:42:44Z</time>
      </trkpt>
      <trkpt lat="44.43289" lon="3.60891">
        <ele>1293.2</ele>
        <time>2022-10-28T10:42:45Z</time>
      </trkpt>
      <trkpt lat="44.4329" lon="3.60892">
        <ele>1293.4</ele>
        <time>2022-10-28T10:42:46Z</time>
      </trkpt>
      <trkpt lat="44.4329" lon="3.60893">
        <ele>1293.6</ele>
        <time>2022-10-28T10:42:47Z</time>
      </trkpt>
      <trkpt lat="44.43291" lon="3.60894">
        <ele>1293.8</ele>
        <time>2022-10-28T10:42:48Z</time>
      </trkpt>
      <trkpt lat="44.43292" lon="3.60894">
        <ele>1294</ele>
        <time>2022-10-28T10:42:49Z</time>
      </trkpt>
      <trkpt lat="44.43293" lon="3.60895">
        <ele>1294.2</ele>
        <time>2022-10-28T10:42:50Z</time>
      </trkpt>
      <trkpt lat="44.43293" lon="3.60895">
        <ele>1294.4</ele>
        <time>2022-10-28T10:42:51Z</time>
      </trkpt>
      <trkpt lat="44.43294" lon="3.60895">
        <ele>1294.6</ele>
        <time>2022-10-28T10:42:52Z</time>
      </trkpt>
      <trkpt lat="44.43295" lon="3.60895">
        <ele>1294.8</ele>
        <time>2022-10-28T10:42:53Z</time>
      </trkpt>
      <trkpt lat="44.43295" lon="3.60896">
        <ele>1294.8</ele>
        <time>2022-10-28T10:42:54Z</time>
      </trkpt>
      <trkpt lat="44.43296" lon="3.60896">
        <ele>1295</ele>
        <time>2022-10-28T10:42:55Z</time>
      </trkpt>
      <trkpt lat="44.43297" lon="3.60896">
        <ele>1295.2</ele>
        <time>2022-10-28T10:42:56Z</time>
      </trkpt>
      <trkpt lat="44.43298" lon="3.60897">
        <ele>1295.2</ele>
        <time>2022-10-28T10:42:57Z</time>
      </trkpt>
      <trkpt lat="44.43299" lon="3.60897">
        <ele>1295.4</ele>
        <time>2022-10-28T10:42:58Z</time>
      </trkpt>
      <trkpt lat="44.433" lon="3.60897">
        <ele>1295.6</ele>
        <time>2022-10-28T10:42:59Z</time>
      </trkpt>
      <trkpt lat="44.433" lon="3.60897">
        <ele>1295.6</ele>
        <time>2022-10-28T10:43:00Z</time>
      </trkpt>
      <trkpt lat="44.43301" lon="3.60897">
        <ele>1295.8</ele>
        <time>2022-10-28T10:43:01Z</time>
      </trkpt>
      <trkpt lat="44.43302" lon="3.60897">
        <ele>1295.8</ele>
        <time>2022-10-28T10:43:02Z</time>
      </trkpt>
      <trkpt lat="44.43303" lon="3.60897">
        <ele>1296</ele>
        <time>2022-10-28T10:43:03Z</time>
      </trkpt>
      <trkpt lat="44.43304" lon="3.60897">
        <ele>1296.2</ele>
        <time>2022-10-28T10:43:04Z</time>
      </trkpt>
      <trkpt lat="44.43305" lon="3.60897">
        <ele>1296.2</ele>
        <time>2022-10-28T10:43:05Z</time>
      </trkpt>
      <trkpt lat="44.43305" lon="3.60896">
        <ele>1296.4</ele>
        <time>2022-10-28T10:43:06Z</time>
      </trkpt>
      <trkpt lat="44.43305" lon="3.60896">
        <ele>1296.4</ele>
        <time>2022-10-28T10:43:07Z</time>
      </trkpt>
      <trkpt lat="44.43306" lon="3.60895">
        <ele>1296.6</ele>
        <time>2022-10-28T10:43:08Z</time>
      </trkpt>
      <trkpt lat="44.43307" lon="3.60895">
        <ele>1296.6</ele>
        <time>2022-10-28T10:43:09Z</time>
      </trkpt>
      <trkpt lat="44.43307" lon="3.60894">
        <ele>1296.8</ele>
        <time>2022-10-28T10:43:10Z</time>
      </trkpt>
      <trkpt lat="44.43308" lon="3.60894">
        <ele>1297</ele>
        <time>2022-10-28T10:43:11Z</time>
      </trkpt>
      <trkpt lat="44.43309" lon="3.60894">
        <ele>1297.2</ele>
        <time>2022-10-28T10:43:12Z</time>
      </trkpt>
      <trkpt lat="44.4331" lon="3.60894">
        <ele>1297.2</ele>
        <time>2022-10-28T10:43:13Z</time>
      </trkpt>
      <trkpt lat="44.43311" lon="3.60895">
        <ele>1297.4</ele>
        <time>2022-10-28T10:43:14Z</time>
      </trkpt>
      <trkpt lat="44.43312" lon="3.60895">
        <ele>1297.6</ele>
        <time>2022-10-28T10:43:15Z</time>
      </trkpt>
      <trkpt lat="44.43312" lon="3.60896">
        <ele>1297.8</ele>
        <time>2022-10-28T10:43:16Z</time>
      </trkpt>
      <trkpt lat="44.43313" lon="3.60896">
        <ele>1298</ele>
        <time>2022-10-28T10:43:18Z</time>
      </trkpt>
      <trkpt lat="44.43314" lon="3.60897">
        <ele>1298</ele>
        <time>2022-10-28T10:43:19Z</time>
      </trkpt>
      <trkpt lat="44.43315" lon="3.60897">
        <ele>1298.2</ele>
        <time>2022-10-28T10:43:20Z</time>
      </trkpt>
      <trkpt lat="44.43315" lon="3.60898">
        <ele>1298.4</ele>
        <time>2022-10-28T10:43:21Z</time>
      </trkpt>
      <trkpt lat="44.43316" lon="3.60898">
        <ele>1298.6</ele>
        <time>2022-10-28T10:43:22Z</time>
      </trkpt>
      <trkpt lat="44.43317" lon="3.60898">
        <ele>1298.8</ele>
        <time>2022-10-28T10:43:23Z</time>
      </trkpt>
      <trkpt lat="44.43318" lon="3.60898">
        <ele>1299</ele>
        <time>2022-10-28T10:43:24Z</time>
      </trkpt>
      <trkpt lat="44.43319" lon="3.60898">
        <ele>1299.2</ele>
        <time>2022-10-28T10:43:25Z</time>
      </trkpt>
      <trkpt lat="44.4332" lon="3.60899">
        <ele>1299.2</ele>
        <time>2022-10-28T10:43:26Z</time>
      </trkpt>
      <trkpt lat="44.4332" lon="3.60899">
        <ele>1299.4</ele>
        <time>2022-10-28T10:43:27Z</time>
      </trkpt>
      <trkpt lat="44.43321" lon="3.60899">
        <ele>1299.6</ele>
        <time>2022-10-28T10:43:28Z</time>
      </trkpt>
      <trkpt lat="44.43322" lon="3.60899">
        <ele>1299.6</ele>
        <time>2022-10-28T10:43:29Z</time>
      </trkpt>
      <trkpt lat="44.43322" lon="3.60898">
        <ele>1299.8</ele>
        <time>2022-10-28T10:43:30Z</time>
      </trkpt>
      <trkpt lat="44.43323" lon="3.60898">
        <ele>1300</ele>
        <time>2022-10-28T10:43:31Z</time>
      </trkpt>
      <trkpt lat="44.43324" lon="3.60898">
        <ele>1300.2</ele>
        <time>2022-10-28T10:43:32Z</time>
      </trkpt>
      <trkpt lat="44.43324" lon="3.60898">
        <ele>1300.4</ele>
        <time>2022-10-28T10:43:33Z</time>
      </trkpt>
      <trkpt lat="44.43325" lon="3.60898">
        <ele>1300.4</ele>
        <time>2022-10-28T10:43:34Z</time>
      </trkpt>
      <trkpt lat="44.43326" lon="3.60898">
        <ele>1300.6</ele>
        <time>2022-10-28T10:43:35Z</time>
      </trkpt>
      <trkpt lat="44.43326" lon="3.60899">
        <ele>1300.8</ele>
        <time>2022-10-28T10:43:36Z</time>
      </trkpt>
      <trkpt lat="44.43327" lon="3.60898">
        <ele>1301</ele>
        <time>2022-10-28T10:43:37Z</time>
      </trkpt>
      <trkpt lat="44.43328" lon="3.60898">
        <ele>1301</ele>
        <time>2022-10-28T10:43:38Z</time>
      </trkpt>
      <trkpt lat="44.43328" lon="3.60898">
        <ele>1301.2</ele>
        <time>2022-10-28T10:43:39Z</time>
      </trkpt>
      <trkpt lat="44.43329" lon="3.60898">
        <ele>1301.4</ele>
        <time>2022-10-28T10:43:40Z</time>
      </trkpt>
      <trkpt lat="44.4333" lon="3.60898">
        <ele>1301.4</ele>
        <time>2022-10-28T10:43:41Z</time>
      </trkpt>
      <trkpt lat="44.4333" lon="3.60898">
        <ele>1301.6</ele>
        <time>2022-10-28T10:43:42Z</time>
      </trkpt>
      <trkpt lat="44.43331" lon="3.60898">
        <ele>1301.6</ele>
        <time>2022-10-28T10:43:43Z</time>
      </trkpt>
      <trkpt lat="44.43332" lon="3.60898">
        <ele>1301.8</ele>
        <time>2022-10-28T10:43:44Z</time>
      </trkpt>
      <trkpt lat="44.43333" lon="3.60898">
        <ele>1302</ele>
        <time>2022-10-28T10:43:45Z</time>
      </trkpt>
      <trkpt lat="44.43334" lon="3.60898">
        <ele>1302.2</ele>
        <time>2022-10-28T10:43:46Z</time>
      </trkpt>
      <trkpt lat="44.43334" lon="3.60898">
        <ele>1302.4</ele>
        <time>2022-10-28T10:43:47Z</time>
      </trkpt>
      <trkpt lat="44.43336" lon="3.60898">
        <ele>1302.8</ele>
        <time>2022-10-28T10:43:49Z</time>
      </trkpt>
      <trkpt lat="44.43337" lon="3.60898">
        <ele>1302.8</ele>
        <time>2022-10-28T10:43:50Z</time>
      </trkpt>
      <trkpt lat="44.43338" lon="3.60898">
        <ele>1303</ele>
        <time>2022-10-28T10:43:51Z</time>
      </trkpt>
      <trkpt lat="44.43338" lon="3.60899">
        <ele>1303.2</ele>
        <time>2022-10-28T10:43:52Z</time>
      </trkpt>
      <trkpt lat="44.43339" lon="3.60899">
        <ele>1303.4</ele>
        <time>2022-10-28T10:43:53Z</time>
      </trkpt>
      <trkpt lat="44.4334" lon="3.60899">
        <ele>1303.6</ele>
        <time>2022-10-28T10:43:54Z</time>
      </trkpt>
      <trkpt lat="44.43341" lon="3.60899">
        <ele>1303.8</ele>
        <time>2022-10-28T10:43:55Z</time>
      </trkpt>
      <trkpt lat="44.43341" lon="3.60899">
        <ele>1303.8</ele>
        <time>2022-10-28T10:43:56Z</time>
      </trkpt>
      <trkpt lat="44.43342" lon="3.60899">
        <ele>1304.2</ele>
        <time>2022-10-28T10:43:57Z</time>
      </trkpt>
      <trkpt lat="44.43343" lon="3.60899">
        <ele>1304.4</ele>
        <time>2022-10-28T10:43:58Z</time>
      </trkpt>
      <trkpt lat="44.43344" lon="3.60899">
        <ele>1304.6</ele>
        <time>2022-10-28T10:43:59Z</time>
      </trkpt>
      <trkpt lat="44.43345" lon="3.60899">
        <ele>1304.8</ele>
        <time>2022-10-28T10:44:00Z</time>
      </trkpt>
      <trkpt lat="44.43345" lon="3.609">
        <ele>1305</ele>
        <time>2022-10-28T10:44:01Z</time>
      </trkpt>
      <trkpt lat="44.43346" lon="3.609">
        <ele>1305.2</ele>
        <time>2022-10-28T10:44:02Z</time>
      </trkpt>
      <trkpt lat="44.43347" lon="3.609">
        <ele>1305.4</ele>
        <time>2022-10-28T10:44:03Z</time>
      </trkpt>
      <trkpt lat="44.43347" lon="3.609">
        <ele>1305.6</ele>
        <time>2022-10-28T10:44:04Z</time>
      </trkpt>
      <trkpt lat="44.43348" lon="3.609">
        <ele>1305.8</ele>
        <time>2022-10-28T10:44:05Z</time>
      </trkpt>
      <trkpt lat="44.43349" lon="3.609">
        <ele>1306</ele>
        <time>2022-10-28T10:44:06Z</time>
      </trkpt>
      <trkpt lat="44.4335" lon="3.60901">
        <ele>1306</ele>
        <time>2022-10-28T10:44:07Z</time>
      </trkpt>
      <trkpt lat="44.4335" lon="3.609">
        <ele>1306.2</ele>
        <time>2022-10-28T10:44:08Z</time>
      </trkpt>
      <trkpt lat="44.43351" lon="3.609">
        <ele>1306.4</ele>
        <time>2022-10-28T10:44:09Z</time>
      </trkpt>
      <trkpt lat="44.43352" lon="3.609">
        <ele>1306.6</ele>
        <time>2022-10-28T10:44:10Z</time>
      </trkpt>
      <trkpt lat="44.43352" lon="3.60899">
        <ele>1306.6</ele>
        <time>2022-10-28T10:44:11Z</time>
      </trkpt>
      <trkpt lat="44.43353" lon="3.60899">
        <ele>1306.8</ele>
        <time>2022-10-28T10:44:12Z</time>
      </trkpt>
      <trkpt lat="44.43353" lon="3.60898">
        <ele>1307</ele>
        <time>2022-10-28T10:44:13Z</time>
      </trkpt>
      <trkpt lat="44.43354" lon="3.60898">
        <ele>1307.2</ele>
        <time>2022-10-28T10:44:14Z</time>
      </trkpt>
      <trkpt lat="44.43355" lon="3.60898">
        <ele>1307.4</ele>
        <time>2022-10-28T10:44:15Z</time>
      </trkpt>
      <trkpt lat="44.43355" lon="3.60897">
        <ele>1307.4</ele>
        <time>2022-10-28T10:44:16Z</time>
      </trkpt>
      <trkpt lat="44.43356" lon="3.60897">
        <ele>1307.6</ele>
        <time>2022-10-28T10:44:17Z</time>
      </trkpt>
      <trkpt lat="44.43357" lon="3.60898">
        <ele>1307.8</ele>
        <time>2022-10-28T10:44:18Z</time>
      </trkpt>
      <trkpt lat="44.43358" lon="3.60897">
        <ele>1308</ele>
        <time>2022-10-28T10:44:19Z</time>
      </trkpt>
      <trkpt lat="44.43359" lon="3.60897">
        <ele>1308.2</ele>
        <time>2022-10-28T10:44:20Z</time>
      </trkpt>
      <trkpt lat="44.43359" lon="3.60897">
        <ele>1308.4</ele>
        <time>2022-10-28T10:44:21Z</time>
      </trkpt>
      <trkpt lat="44.4336" lon="3.60897">
        <ele>1308.6</ele>
        <time>2022-10-28T10:44:22Z</time>
      </trkpt>
      <trkpt lat="44.43361" lon="3.60897">
        <ele>1308.6</ele>
        <time>2022-10-28T10:44:23Z</time>
      </trkpt>
      <trkpt lat="44.43362" lon="3.60897">
        <ele>1308.8</ele>
        <time>2022-10-28T10:44:24Z</time>
      </trkpt>
      <trkpt lat="44.43362" lon="3.60897">
        <ele>1309</ele>
        <time>2022-10-28T10:44:25Z</time>
      </trkpt>
      <trkpt lat="44.43363" lon="3.60897">
        <ele>1309</ele>
        <time>2022-10-28T10:44:26Z</time>
      </trkpt>
      <trkpt lat="44.43364" lon="3.60897">
        <ele>1309.2</ele>
        <time>2022-10-28T10:44:27Z</time>
      </trkpt>
      <trkpt lat="44.43365" lon="3.60897">
        <ele>1309.4</ele>
        <time>2022-10-28T10:44:28Z</time>
      </trkpt>
      <trkpt lat="44.43366" lon="3.60897">
        <ele>1309.4</ele>
        <time>2022-10-28T10:44:29Z</time>
      </trkpt>
      <trkpt lat="44.43367" lon="3.60898">
        <ele>1309.6</ele>
        <time>2022-10-28T10:44:30Z</time>
      </trkpt>
      <trkpt lat="44.43368" lon="3.60898">
        <ele>1309.6</ele>
        <time>2022-10-28T10:44:31Z</time>
      </trkpt>
      <trkpt lat="44.43368" lon="3.60899">
        <ele>1309.8</ele>
        <time>2022-10-28T10:44:32Z</time>
      </trkpt>
      <trkpt lat="44.43369" lon="3.60899">
        <ele>1309.8</ele>
        <time>2022-10-28T10:44:33Z</time>
      </trkpt>
      <trkpt lat="44.4337" lon="3.60899">
        <ele>1310</ele>
        <time>2022-10-28T10:44:34Z</time>
      </trkpt>
      <trkpt lat="44.4337" lon="3.609">
        <ele>1310</ele>
        <time>2022-10-28T10:44:35Z</time>
      </trkpt>
      <trkpt lat="44.43371" lon="3.609">
        <ele>1310.2</ele>
        <time>2022-10-28T10:44:36Z</time>
      </trkpt>
      <trkpt lat="44.43372" lon="3.609">
        <ele>1310.4</ele>
        <time>2022-10-28T10:44:37Z</time>
      </trkpt>
      <trkpt lat="44.43373" lon="3.609">
        <ele>1310.6</ele>
        <time>2022-10-28T10:44:38Z</time>
      </trkpt>
      <trkpt lat="44.43374" lon="3.609">
        <ele>1310.8</ele>
        <time>2022-10-28T10:44:39Z</time>
      </trkpt>
      <trkpt lat="44.43374" lon="3.60901">
        <ele>1311</ele>
        <time>2022-10-28T10:44:40Z</time>
      </trkpt>
      <trkpt lat="44.43375" lon="3.60901">
        <ele>1311</ele>
        <time>2022-10-28T10:44:41Z</time>
      </trkpt>
      <trkpt lat="44.43376" lon="3.60901">
        <ele>1311.2</ele>
        <time>2022-10-28T10:44:42Z</time>
      </trkpt>
      <trkpt lat="44.43377" lon="3.60901">
        <ele>1311.4</ele>
        <time>2022-10-28T10:44:43Z</time>
      </trkpt>
      <trkpt lat="44.43378" lon="3.60901">
        <ele>1311.6</ele>
        <time>2022-10-28T10:44:44Z</time>
      </trkpt>
      <trkpt lat="44.43379" lon="3.60901">
        <ele>1311.6</ele>
        <time>2022-10-28T10:44:45Z</time>
      </trkpt>
      <trkpt lat="44.4338" lon="3.609">
        <ele>1311.8</ele>
        <time>2022-10-28T10:44:46Z</time>
      </trkpt>
      <trkpt lat="44.43381" lon="3.609">
        <ele>1311.8</ele>
        <time>2022-10-28T10:44:47Z</time>
      </trkpt>
      <trkpt lat="44.43382" lon="3.609">
        <ele>1312</ele>
        <time>2022-10-28T10:44:48Z</time>
      </trkpt>
      <trkpt lat="44.43383" lon="3.60899">
        <ele>1312</ele>
        <time>2022-10-28T10:44:49Z</time>
      </trkpt>
      <trkpt lat="44.43384" lon="3.60899">
        <ele>1312.2</ele>
        <time>2022-10-28T10:44:50Z</time>
      </trkpt>
      <trkpt lat="44.43385" lon="3.60899">
        <ele>1312.4</ele>
        <time>2022-10-28T10:44:51Z</time>
      </trkpt>
      <trkpt lat="44.43386" lon="3.60899">
        <ele>1312.6</ele>
        <time>2022-10-28T10:44:52Z</time>
      </trkpt>
      <trkpt lat="44.43387" lon="3.60899">
        <ele>1312.8</ele>
        <time>2022-10-28T10:44:53Z</time>
      </trkpt>
      <trkpt lat="44.43388" lon="3.60899">
        <ele>1313</ele>
        <time>2022-10-28T10:44:54Z</time>
      </trkpt>
      <trkpt lat="44.43389" lon="3.60899">
        <ele>1313.2</ele>
        <time>2022-10-28T10:44:55Z</time>
      </trkpt>
      <trkpt lat="44.43389" lon="3.609">
        <ele>1313.4</ele>
        <time>2022-10-28T10:44:56Z</time>
      </trkpt>
      <trkpt lat="44.4339" lon="3.609">
        <ele>1313.6</ele>
        <time>2022-10-28T10:44:57Z</time>
      </trkpt>
      <trkpt lat="44.43391" lon="3.609">
        <ele>1313.8</ele>
        <time>2022-10-28T10:44:58Z</time>
      </trkpt>
      <trkpt lat="44.43391" lon="3.60901">
        <ele>1313.8</ele>
        <time>2022-10-28T10:44:59Z</time>
      </trkpt>
      <trkpt lat="44.43392" lon="3.60901">
        <ele>1314</ele>
        <time>2022-10-28T10:45:00Z</time>
      </trkpt>
      <trkpt lat="44.43392" lon="3.60901">
        <ele>1314.2</ele>
        <time>2022-10-28T10:45:01Z</time>
      </trkpt>
      <trkpt lat="44.43392" lon="3.60901">
        <ele>1314.2</ele>
        <time>2022-10-28T10:45:02Z</time>
      </trkpt>
      <trkpt lat="44.43392" lon="3.60901">
        <ele>1314.2</ele>
        <time>2022-10-28T10:45:03Z</time>
      </trkpt>
      <trkpt lat="44.43392" lon="3.60901">
        <ele>1314.4</ele>
        <time>2022-10-28T10:45:04Z</time>
      </trkpt>
      <trkpt lat="44.43401" lon="3.60903">
        <ele>1314.2</ele>
        <time>2022-10-28T10:46:51Z</time>
      </trkpt>
      <trkpt lat="44.43402" lon="3.60903">
        <ele>1314.2</ele>
        <time>2022-10-28T10:46:52Z</time>
      </trkpt>
      <trkpt lat="44.43403" lon="3.60903">
        <ele>1314.2</ele>
        <time>2022-10-28T10:46:53Z</time>
      </trkpt>
      <trkpt lat="44.43404" lon="3.60903">
        <ele>1314.4</ele>
        <time>2022-10-28T10:46:54Z</time>
      </trkpt>
      <trkpt lat="44.43405" lon="3.60903">
        <ele>1314.4</ele>
        <time>2022-10-28T10:46:55Z</time>
      </trkpt>
      <trkpt lat="44.43406" lon="3.60903">
        <ele>1314.6</ele>
        <time>2022-10-28T10:46:56Z</time>
      </trkpt>
      <trkpt lat="44.43407" lon="3.60903">
        <ele>1314.8</ele>
        <time>2022-10-28T10:46:57Z</time>
      </trkpt>
      <trkpt lat="44.43407" lon="3.60903">
        <ele>1315</ele>
        <time>2022-10-28T10:46:58Z</time>
      </trkpt>
      <trkpt lat="44.43408" lon="3.60903">
        <ele>1315.2</ele>
        <time>2022-10-28T10:46:59Z</time>
      </trkpt>
      <trkpt lat="44.43409" lon="3.60903">
        <ele>1315.2</ele>
        <time>2022-10-28T10:47:00Z</time>
      </trkpt>
      <trkpt lat="44.4341" lon="3.60903">
        <ele>1315.4</ele>
        <time>2022-10-28T10:47:01Z</time>
      </trkpt>
      <trkpt lat="44.43411" lon="3.60904">
        <ele>1315.6</ele>
        <time>2022-10-28T10:47:02Z</time>
      </trkpt>
      <trkpt lat="44.43412" lon="3.60904">
        <ele>1315.8</ele>
        <time>2022-10-28T10:47:03Z</time>
      </trkpt>
      <trkpt lat="44.43414" lon="3.60905">
        <ele>1316</ele>
        <time>2022-10-28T10:47:04Z</time>
      </trkpt>
      <trkpt lat="44.43415" lon="3.60905">
        <ele>1316.2</ele>
        <time>2022-10-28T10:47:05Z</time>
      </trkpt>
      <trkpt lat="44.43415" lon="3.60906">
        <ele>1316.4</ele>
        <time>2022-10-28T10:47:06Z</time>
      </trkpt>
      <trkpt lat="44.43416" lon="3.60906">
        <ele>1316.4</ele>
        <time>2022-10-28T10:47:07Z</time>
      </trkpt>
      <trkpt lat="44.43416" lon="3.60906">
        <ele>1316.6</ele>
        <time>2022-10-28T10:47:08Z</time>
      </trkpt>
      <trkpt lat="44.43416" lon="3.60906">
        <ele>1316.6</ele>
        <time>2022-10-28T10:47:09Z</time>
      </trkpt>
      <trkpt lat="44.43416" lon="3.60906">
        <ele>1316.6</ele>
        <time>2022-10-28T10:47:10Z</time>
      </trkpt>
      <trkpt lat="44.43416" lon="3.60906">
        <ele>1316.6</ele>
        <time>2022-10-28T10:47:11Z</time>
      </trkpt>
      <trkpt lat="44.43416" lon="3.60906">
        <ele>1316.8</ele>
        <time>2022-10-28T10:47:12Z</time>
      </trkpt>
      <trkpt lat="44.43418" lon="3.60907">
        <ele>1317</ele>
        <time>2022-10-28T10:47:17Z</time>
      </trkpt>
      <trkpt lat="44.43419" lon="3.60907">
        <ele>1317</ele>
        <time>2022-10-28T10:47:18Z</time>
      </trkpt>
      <trkpt lat="44.4342" lon="3.60908">
        <ele>1317</ele>
        <time>2022-10-28T10:47:19Z</time>
      </trkpt>
      <trkpt lat="44.43421" lon="3.60908">
        <ele>1317</ele>
        <time>2022-10-28T10:47:20Z</time>
      </trkpt>
      <trkpt lat="44.43422" lon="3.60909">
        <ele>1317.2</ele>
        <time>2022-10-28T10:47:21Z</time>
      </trkpt>
      <trkpt lat="44.43423" lon="3.60909">
        <ele>1317.2</ele>
        <time>2022-10-28T10:47:22Z</time>
      </trkpt>
      <trkpt lat="44.43424" lon="3.6091">
        <ele>1317.4</ele>
        <time>2022-10-28T10:47:23Z</time>
      </trkpt>
      <trkpt lat="44.43425" lon="3.6091">
        <ele>1317.6</ele>
        <time>2022-10-28T10:47:24Z</time>
      </trkpt>
      <trkpt lat="44.43426" lon="3.60911">
        <ele>1317.6</ele>
        <time>2022-10-28T10:47:25Z</time>
      </trkpt>
      <trkpt lat="44.43427" lon="3.60911">
        <ele>1317.8</ele>
        <time>2022-10-28T10:47:26Z</time>
      </trkpt>
      <trkpt lat="44.43428" lon="3.60912">
        <ele>1317.8</ele>
        <time>2022-10-28T10:47:27Z</time>
      </trkpt>
      <trkpt lat="44.43429" lon="3.60913">
        <ele>1318</ele>
        <time>2022-10-28T10:47:28Z</time>
      </trkpt>
      <trkpt lat="44.4343" lon="3.60913">
        <ele>1318.2</ele>
        <time>2022-10-28T10:47:29Z</time>
      </trkpt>
      <trkpt lat="44.43431" lon="3.60913">
        <ele>1318.2</ele>
        <time>2022-10-28T10:47:30Z</time>
      </trkpt>
      <trkpt lat="44.43431" lon="3.60913">
        <ele>1318.4</ele>
        <time>2022-10-28T10:47:31Z</time>
      </trkpt>
      <trkpt lat="44.43432" lon="3.60914">
        <ele>1318.6</ele>
        <time>2022-10-28T10:47:32Z</time>
      </trkpt>
      <trkpt lat="44.43433" lon="3.60914">
        <ele>1318.8</ele>
        <time>2022-10-28T10:47:33Z</time>
      </trkpt>
      <trkpt lat="44.43435" lon="3.60915">
        <ele>1318.8</ele>
        <time>2022-10-28T10:47:34Z</time>
      </trkpt>
      <trkpt lat="44.43436" lon="3.60915">
        <ele>1319</ele>
        <time>2022-10-28T10:47:35Z</time>
      </trkpt>
      <trkpt lat="44.43436" lon="3.60916">
        <ele>1319.2</ele>
        <time>2022-10-28T10:47:36Z</time>
      </trkpt>
      <trkpt lat="44.43438" lon="3.60916">
        <ele>1319.4</ele>
        <time>2022-10-28T10:47:37Z</time>
      </trkpt>
      <trkpt lat="44.43439" lon="3.60917">
        <ele>1319.4</ele>
        <time>2022-10-28T10:47:38Z</time>
      </trkpt>
      <trkpt lat="44.4344" lon="3.60917">
        <ele>1319.6</ele>
        <time>2022-10-28T10:47:39Z</time>
      </trkpt>
      <trkpt lat="44.43441" lon="3.60917">
        <ele>1319.8</ele>
        <time>2022-10-28T10:47:40Z</time>
      </trkpt>
      <trkpt lat="44.43442" lon="3.60918">
        <ele>1320</ele>
        <time>2022-10-28T10:47:41Z</time>
      </trkpt>
      <trkpt lat="44.43442" lon="3.60918">
        <ele>1320.2</ele>
        <time>2022-10-28T10:47:42Z</time>
      </trkpt>
      <trkpt lat="44.43443" lon="3.60919">
        <ele>1320.2</ele>
        <time>2022-10-28T10:47:43Z</time>
      </trkpt>
      <trkpt lat="44.43444" lon="3.6092">
        <ele>1320.4</ele>
        <time>2022-10-28T10:47:44Z</time>
      </trkpt>
      <trkpt lat="44.43445" lon="3.60921">
        <ele>1320.6</ele>
        <time>2022-10-28T10:47:45Z</time>
      </trkpt>
      <trkpt lat="44.43446" lon="3.60921">
        <ele>1320.8</ele>
        <time>2022-10-28T10:47:46Z</time>
      </trkpt>
      <trkpt lat="44.43447" lon="3.60921">
        <ele>1321</ele>
        <time>2022-10-28T10:47:47Z</time>
      </trkpt>
      <trkpt lat="44.43447" lon="3.60922">
        <ele>1321.2</ele>
        <time>2022-10-28T10:47:48Z</time>
      </trkpt>
      <trkpt lat="44.43448" lon="3.60922">
        <ele>1321.2</ele>
        <time>2022-10-28T10:47:49Z</time>
      </trkpt>
      <trkpt lat="44.43449" lon="3.60923">
        <ele>1321.4</ele>
        <time>2022-10-28T10:47:50Z</time>
      </trkpt>
      <trkpt lat="44.4345" lon="3.60924">
        <ele>1321.6</ele>
        <time>2022-10-28T10:47:51Z</time>
      </trkpt>
      <trkpt lat="44.43451" lon="3.60925">
        <ele>1321.8</ele>
        <time>2022-10-28T10:47:52Z</time>
      </trkpt>
      <trkpt lat="44.43452" lon="3.60926">
        <ele>1321.8</ele>
        <time>2022-10-28T10:47:53Z</time>
      </trkpt>
      <trkpt lat="44.43453" lon="3.60926">
        <ele>1322</ele>
        <time>2022-10-28T10:47:54Z</time>
      </trkpt>
      <trkpt lat="44.43454" lon="3.60927">
        <ele>1322.2</ele>
        <time>2022-10-28T10:47:55Z</time>
      </trkpt>
      <trkpt lat="44.43455" lon="3.60928">
        <ele>1322.4</ele>
        <time>2022-10-28T10:47:56Z</time>
      </trkpt>
      <trkpt lat="44.43456" lon="3.60929">
        <ele>1322.4</ele>
        <time>2022-10-28T10:47:57Z</time>
      </trkpt>
      <trkpt lat="44.43457" lon="3.6093">
        <ele>1322.6</ele>
        <time>2022-10-28T10:47:58Z</time>
      </trkpt>
      <trkpt lat="44.43458" lon="3.60931">
        <ele>1322.8</ele>
        <time>2022-10-28T10:47:59Z</time>
      </trkpt>
      <trkpt lat="44.43459" lon="3.60932">
        <ele>1323</ele>
        <time>2022-10-28T10:48:00Z</time>
      </trkpt>
      <trkpt lat="44.4346" lon="3.60932">
        <ele>1323.2</ele>
        <time>2022-10-28T10:48:01Z</time>
      </trkpt>
      <trkpt lat="44.4346" lon="3.60933">
        <ele>1323.4</ele>
        <time>2022-10-28T10:48:02Z</time>
      </trkpt>
      <trkpt lat="44.43461" lon="3.60934">
        <ele>1323.6</ele>
        <time>2022-10-28T10:48:03Z</time>
      </trkpt>
      <trkpt lat="44.43462" lon="3.60934">
        <ele>1323.6</ele>
        <time>2022-10-28T10:48:04Z</time>
      </trkpt>
      <trkpt lat="44.43462" lon="3.60934">
        <ele>1323.8</ele>
        <time>2022-10-28T10:48:05Z</time>
      </trkpt>
      <trkpt lat="44.43462" lon="3.60934">
        <ele>1323.8</ele>
        <time>2022-10-28T10:48:06Z</time>
      </trkpt>
      <trkpt lat="44.43462" lon="3.60934">
        <ele>1324</ele>
        <time>2022-10-28T10:48:07Z</time>
      </trkpt>
      <trkpt lat="44.43462" lon="3.60934">
        <ele>1324</ele>
        <time>2022-10-28T10:48:08Z</time>
      </trkpt>
      <trkpt lat="44.43462" lon="3.60934">
        <ele>1324</ele>
        <time>2022-10-28T10:48:09Z</time>
      </trkpt>
      <trkpt lat="44.43462" lon="3.60935">
        <ele>1324.4</ele>
        <time>2022-10-28T10:48:30Z</time>
      </trkpt>
      <trkpt lat="44.43463" lon="3.60935">
        <ele>1324.4</ele>
        <time>2022-10-28T10:48:31Z</time>
      </trkpt>
      <trkpt lat="44.43464" lon="3.60936">
        <ele>1324.4</ele>
        <time>2022-10-28T10:48:32Z</time>
      </trkpt>
      <trkpt lat="44.43465" lon="3.60937">
        <ele>1324.6</ele>
        <time>2022-10-28T10:48:33Z</time>
      </trkpt>
      <trkpt lat="44.43466" lon="3.60938">
        <ele>1324.6</ele>
        <time>2022-10-28T10:48:34Z</time>
      </trkpt>
      <trkpt lat="44.43467" lon="3.60938">
        <ele>1324.8</ele>
        <time>2022-10-28T10:48:35Z</time>
      </trkpt>
      <trkpt lat="44.43468" lon="3.60939">
        <ele>1325</ele>
        <time>2022-10-28T10:48:36Z</time>
      </trkpt>
      <trkpt lat="44.43469" lon="3.6094">
        <ele>1325</ele>
        <time>2022-10-28T10:48:37Z</time>
      </trkpt>
      <trkpt lat="44.4347" lon="3.60941">
        <ele>1325.2</ele>
        <time>2022-10-28T10:48:38Z</time>
      </trkpt>
      <trkpt lat="44.4347" lon="3.60941">
        <ele>1325.4</ele>
        <time>2022-10-28T10:48:39Z</time>
      </trkpt>
      <trkpt lat="44.43471" lon="3.60942">
        <ele>1325.6</ele>
        <time>2022-10-28T10:48:40Z</time>
      </trkpt>
      <trkpt lat="44.43472" lon="3.60943">
        <ele>1325.6</ele>
        <time>2022-10-28T10:48:41Z</time>
      </trkpt>
      <trkpt lat="44.43473" lon="3.60943">
        <ele>1325.8</ele>
        <time>2022-10-28T10:48:42Z</time>
      </trkpt>
      <trkpt lat="44.43474" lon="3.60943">
        <ele>1326</ele>
        <time>2022-10-28T10:48:43Z</time>
      </trkpt>
      <trkpt lat="44.43475" lon="3.60944">
        <ele>1326.2</ele>
        <time>2022-10-28T10:48:44Z</time>
      </trkpt>
      <trkpt lat="44.43476" lon="3.60944">
        <ele>1326.4</ele>
        <time>2022-10-28T10:48:45Z</time>
      </trkpt>
      <trkpt lat="44.43476" lon="3.60945">
        <ele>1326.6</ele>
        <time>2022-10-28T10:48:46Z</time>
      </trkpt>
      <trkpt lat="44.43477" lon="3.60946">
        <ele>1326.8</ele>
        <time>2022-10-28T10:48:47Z</time>
      </trkpt>
      <trkpt lat="44.43478" lon="3.60947">
        <ele>1327</ele>
        <time>2022-10-28T10:48:48Z</time>
      </trkpt>
      <trkpt lat="44.43478" lon="3.60947">
        <ele>1327.2</ele>
        <time>2022-10-28T10:48:49Z</time>
      </trkpt>
      <trkpt lat="44.43479" lon="3.60947">
        <ele>1327.4</ele>
        <time>2022-10-28T10:48:50Z</time>
      </trkpt>
      <trkpt lat="44.4348" lon="3.60947">
        <ele>1327.6</ele>
        <time>2022-10-28T10:48:51Z</time>
      </trkpt>
      <trkpt lat="44.43481" lon="3.60947">
        <ele>1327.6</ele>
        <time>2022-10-28T10:48:52Z</time>
      </trkpt>
      <trkpt lat="44.43482" lon="3.60948">
        <ele>1327.8</ele>
        <time>2022-10-28T10:48:53Z</time>
      </trkpt>
      <trkpt lat="44.43483" lon="3.60949">
        <ele>1328</ele>
        <time>2022-10-28T10:48:54Z</time>
      </trkpt>
      <trkpt lat="44.43484" lon="3.6095">
        <ele>1328.2</ele>
        <time>2022-10-28T10:48:55Z</time>
      </trkpt>
      <trkpt lat="44.43485" lon="3.6095">
        <ele>1328.4</ele>
        <time>2022-10-28T10:48:56Z</time>
      </trkpt>
      <trkpt lat="44.43486" lon="3.60951">
        <ele>1328.4</ele>
        <time>2022-10-28T10:48:57Z</time>
      </trkpt>
      <trkpt lat="44.43487" lon="3.60951">
        <ele>1328.6</ele>
        <time>2022-10-28T10:48:58Z</time>
      </trkpt>
      <trkpt lat="44.43488" lon="3.60952">
        <ele>1328.8</ele>
        <time>2022-10-28T10:48:59Z</time>
      </trkpt>
      <trkpt lat="44.43489" lon="3.60952">
        <ele>1329</ele>
        <time>2022-10-28T10:49:00Z</time>
      </trkpt>
      <trkpt lat="44.4349" lon="3.60953">
        <ele>1329.2</ele>
        <time>2022-10-28T10:49:01Z</time>
      </trkpt>
      <trkpt lat="44.4349" lon="3.60953">
        <ele>1329.4</ele>
        <time>2022-10-28T10:49:02Z</time>
      </trkpt>
      <trkpt lat="44.43491" lon="3.60953">
        <ele>1329.6</ele>
        <time>2022-10-28T10:49:03Z</time>
      </trkpt>
      <trkpt lat="44.43493" lon="3.60954">
        <ele>1329.8</ele>
        <time>2022-10-28T10:49:04Z</time>
      </trkpt>
      <trkpt lat="44.43494" lon="3.60954">
        <ele>1330</ele>
        <time>2022-10-28T10:49:05Z</time>
      </trkpt>
      <trkpt lat="44.43494" lon="3.60955">
        <ele>1330.2</ele>
        <time>2022-10-28T10:49:06Z</time>
      </trkpt>
      <trkpt lat="44.43495" lon="3.60956">
        <ele>1330.2</ele>
        <time>2022-10-28T10:49:07Z</time>
      </trkpt>
      <trkpt lat="44.43496" lon="3.60957">
        <ele>1330.4</ele>
        <time>2022-10-28T10:49:08Z</time>
      </trkpt>
      <trkpt lat="44.43497" lon="3.60957">
        <ele>1330.6</ele>
        <time>2022-10-28T10:49:09Z</time>
      </trkpt>
      <trkpt lat="44.43498" lon="3.60958">
        <ele>1330.8</ele>
        <time>2022-10-28T10:49:10Z</time>
      </trkpt>
      <trkpt lat="44.43498" lon="3.60959">
        <ele>1331</ele>
        <time>2022-10-28T10:49:11Z</time>
      </trkpt>
      <trkpt lat="44.43499" lon="3.6096">
        <ele>1331.2</ele>
        <time>2022-10-28T10:49:12Z</time>
      </trkpt>
      <trkpt lat="44.43499" lon="3.60961">
        <ele>1331.4</ele>
        <time>2022-10-28T10:49:13Z</time>
      </trkpt>
      <trkpt lat="44.435" lon="3.60962">
        <ele>1331.6</ele>
        <time>2022-10-28T10:49:14Z</time>
      </trkpt>
      <trkpt lat="44.435" lon="3.60963">
        <ele>1331.6</ele>
        <time>2022-10-28T10:49:15Z</time>
      </trkpt>
      <trkpt lat="44.43501" lon="3.60964">
        <ele>1331.8</ele>
        <time>2022-10-28T10:49:16Z</time>
      </trkpt>
      <trkpt lat="44.43502" lon="3.60964">
        <ele>1332</ele>
        <time>2022-10-28T10:49:17Z</time>
      </trkpt>
      <trkpt lat="44.43503" lon="3.60965">
        <ele>1332</ele>
        <time>2022-10-28T10:49:18Z</time>
      </trkpt>
      <trkpt lat="44.43504" lon="3.60966">
        <ele>1332.2</ele>
        <time>2022-10-28T10:49:19Z</time>
      </trkpt>
      <trkpt lat="44.43505" lon="3.60967">
        <ele>1332.4</ele>
        <time>2022-10-28T10:49:20Z</time>
      </trkpt>
      <trkpt lat="44.43506" lon="3.60968">
        <ele>1332.6</ele>
        <time>2022-10-28T10:49:21Z</time>
      </trkpt>
      <trkpt lat="44.43507" lon="3.60969">
        <ele>1332.8</ele>
        <time>2022-10-28T10:49:22Z</time>
      </trkpt>
      <trkpt lat="44.43507" lon="3.6097">
        <ele>1332.8</ele>
        <time>2022-10-28T10:49:23Z</time>
      </trkpt>
      <trkpt lat="44.43509" lon="3.60971">
        <ele>1333.2</ele>
        <time>2022-10-28T10:49:24Z</time>
      </trkpt>
      <trkpt lat="44.4351" lon="3.60972">
        <ele>1333.4</ele>
        <time>2022-10-28T10:49:25Z</time>
      </trkpt>
      <trkpt lat="44.43511" lon="3.60973">
        <ele>1333.6</ele>
        <time>2022-10-28T10:49:26Z</time>
      </trkpt>
      <trkpt lat="44.43511" lon="3.60974">
        <ele>1333.8</ele>
        <time>2022-10-28T10:49:27Z</time>
      </trkpt>
      <trkpt lat="44.43512" lon="3.60975">
        <ele>1334</ele>
        <time>2022-10-28T10:49:28Z</time>
      </trkpt>
      <trkpt lat="44.43513" lon="3.60976">
        <ele>1334.2</ele>
        <time>2022-10-28T10:49:29Z</time>
      </trkpt>
      <trkpt lat="44.43513" lon="3.60977">
        <ele>1334.4</ele>
        <time>2022-10-28T10:49:30Z</time>
      </trkpt>
      <trkpt lat="44.43514" lon="3.60978">
        <ele>1334.6</ele>
        <time>2022-10-28T10:49:31Z</time>
      </trkpt>
      <trkpt lat="44.43514" lon="3.60979">
        <ele>1334.8</ele>
        <time>2022-10-28T10:49:32Z</time>
      </trkpt>
      <trkpt lat="44.43515" lon="3.6098">
        <ele>1335</ele>
        <time>2022-10-28T10:49:33Z</time>
      </trkpt>
      <trkpt lat="44.43515" lon="3.60981">
        <ele>1335</ele>
        <time>2022-10-28T10:49:34Z</time>
      </trkpt>
      <trkpt lat="44.43516" lon="3.60983">
        <ele>1335.2</ele>
        <time>2022-10-28T10:49:35Z</time>
      </trkpt>
      <trkpt lat="44.43516" lon="3.60984">
        <ele>1335.4</ele>
        <time>2022-10-28T10:49:36Z</time>
      </trkpt>
      <trkpt lat="44.43517" lon="3.60985">
        <ele>1335.4</ele>
        <time>2022-10-28T10:49:37Z</time>
      </trkpt>
      <trkpt lat="44.43517" lon="3.60986">
        <ele>1335.6</ele>
        <time>2022-10-28T10:49:38Z</time>
      </trkpt>
      <trkpt lat="44.43519" lon="3.60988">
        <ele>1336</ele>
        <time>2022-10-28T10:49:42Z</time>
      </trkpt>
      <trkpt lat="44.43519" lon="3.6099">
        <ele>1336</ele>
        <time>2022-10-28T10:49:43Z</time>
      </trkpt>
      <trkpt lat="44.4352" lon="3.60992">
        <ele>1336</ele>
        <time>2022-10-28T10:49:44Z</time>
      </trkpt>
      <trkpt lat="44.43522" lon="3.60994">
        <ele>1336</ele>
        <time>2022-10-28T10:49:45Z</time>
      </trkpt>
      <trkpt lat="44.43523" lon="3.60996">
        <ele>1336.2</ele>
        <time>2022-10-28T10:49:46Z</time>
      </trkpt>
      <trkpt lat="44.43524" lon="3.60998">
        <ele>1336.2</ele>
        <time>2022-10-28T10:49:47Z</time>
      </trkpt>
      <trkpt lat="44.43525" lon="3.60999">
        <ele>1336.4</ele>
        <time>2022-10-28T10:49:48Z</time>
      </trkpt>
      <trkpt lat="44.43526" lon="3.61">
        <ele>1336.6</ele>
        <time>2022-10-28T10:49:49Z</time>
      </trkpt>
      <trkpt lat="44.43527" lon="3.61002">
        <ele>1336.8</ele>
        <time>2022-10-28T10:49:50Z</time>
      </trkpt>
      <trkpt lat="44.43528" lon="3.61004">
        <ele>1336.8</ele>
        <time>2022-10-28T10:49:51Z</time>
      </trkpt>
      <trkpt lat="44.43529" lon="3.61005">
        <ele>1337</ele>
        <time>2022-10-28T10:49:52Z</time>
      </trkpt>
      <trkpt lat="44.4353" lon="3.61006">
        <ele>1337.2</ele>
        <time>2022-10-28T10:49:53Z</time>
      </trkpt>
      <trkpt lat="44.43531" lon="3.61008">
        <ele>1337.4</ele>
        <time>2022-10-28T10:49:54Z</time>
      </trkpt>
      <trkpt lat="44.43532" lon="3.61009">
        <ele>1337.6</ele>
        <time>2022-10-28T10:49:55Z</time>
      </trkpt>
      <trkpt lat="44.43533" lon="3.61011">
        <ele>1337.8</ele>
        <time>2022-10-28T10:49:56Z</time>
      </trkpt>
      <trkpt lat="44.43534" lon="3.61012">
        <ele>1338</ele>
        <time>2022-10-28T10:49:57Z</time>
      </trkpt>
      <trkpt lat="44.43536" lon="3.61013">
        <ele>1338.2</ele>
        <time>2022-10-28T10:49:58Z</time>
      </trkpt>
      <trkpt lat="44.43537" lon="3.61014">
        <ele>1338.4</ele>
        <time>2022-10-28T10:49:59Z</time>
      </trkpt>
      <trkpt lat="44.43538" lon="3.61015">
        <ele>1338.6</ele>
        <time>2022-10-28T10:50:00Z</time>
      </trkpt>
      <trkpt lat="44.43539" lon="3.61017">
        <ele>1339</ele>
        <time>2022-10-28T10:50:01Z</time>
      </trkpt>
      <trkpt lat="44.4354" lon="3.61018">
        <ele>1339.2</ele>
        <time>2022-10-28T10:50:02Z</time>
      </trkpt>
      <trkpt lat="44.43541" lon="3.6102">
        <ele>1339.4</ele>
        <time>2022-10-28T10:50:03Z</time>
      </trkpt>
      <trkpt lat="44.43542" lon="3.61021">
        <ele>1339.4</ele>
        <time>2022-10-28T10:50:04Z</time>
      </trkpt>
      <trkpt lat="44.43542" lon="3.61023">
        <ele>1339.6</ele>
        <time>2022-10-28T10:50:05Z</time>
      </trkpt>
      <trkpt lat="44.43543" lon="3.61024">
        <ele>1339.8</ele>
        <time>2022-10-28T10:50:06Z</time>
      </trkpt>
      <trkpt lat="44.43544" lon="3.61026">
        <ele>1340</ele>
        <time>2022-10-28T10:50:07Z</time>
      </trkpt>
      <trkpt lat="44.43544" lon="3.61028">
        <ele>1340.2</ele>
        <time>2022-10-28T10:50:08Z</time>
      </trkpt>
      <trkpt lat="44.43546" lon="3.61029">
        <ele>1340.4</ele>
        <time>2022-10-28T10:50:09Z</time>
      </trkpt>
      <trkpt lat="44.43546" lon="3.61031">
        <ele>1340.6</ele>
        <time>2022-10-28T10:50:10Z</time>
      </trkpt>
      <trkpt lat="44.43547" lon="3.61032">
        <ele>1341</ele>
        <time>2022-10-28T10:50:11Z</time>
      </trkpt>
      <trkpt lat="44.43548" lon="3.61034">
        <ele>1341.2</ele>
        <time>2022-10-28T10:50:12Z</time>
      </trkpt>
      <trkpt lat="44.43549" lon="3.61036">
        <ele>1341.4</ele>
        <time>2022-10-28T10:50:13Z</time>
      </trkpt>
      <trkpt lat="44.4355" lon="3.61037">
        <ele>1341.6</ele>
        <time>2022-10-28T10:50:14Z</time>
      </trkpt>
      <trkpt lat="44.43551" lon="3.61038">
        <ele>1341.8</ele>
        <time>2022-10-28T10:50:15Z</time>
      </trkpt>
      <trkpt lat="44.43552" lon="3.6104">
        <ele>1342</ele>
        <time>2022-10-28T10:50:16Z</time>
      </trkpt>
      <trkpt lat="44.43554" lon="3.61041">
        <ele>1342.2</ele>
        <time>2022-10-28T10:50:17Z</time>
      </trkpt>
      <trkpt lat="44.43555" lon="3.61042">
        <ele>1342.4</ele>
        <time>2022-10-28T10:50:18Z</time>
      </trkpt>
      <trkpt lat="44.43556" lon="3.61043">
        <ele>1342.6</ele>
        <time>2022-10-28T10:50:19Z</time>
      </trkpt>
      <trkpt lat="44.43557" lon="3.61044">
        <ele>1342.8</ele>
        <time>2022-10-28T10:50:20Z</time>
      </trkpt>
      <trkpt lat="44.43558" lon="3.61044">
        <ele>1343.2</ele>
        <time>2022-10-28T10:50:21Z</time>
      </trkpt>
      <trkpt lat="44.43559" lon="3.61045">
        <ele>1343.4</ele>
        <time>2022-10-28T10:50:22Z</time>
      </trkpt>
      <trkpt lat="44.4356" lon="3.61046">
        <ele>1343.6</ele>
        <time>2022-10-28T10:50:23Z</time>
      </trkpt>
      <trkpt lat="44.4356" lon="3.61046">
        <ele>1343.8</ele>
        <time>2022-10-28T10:50:24Z</time>
      </trkpt>
      <trkpt lat="44.4356" lon="3.61047">
        <ele>1344</ele>
        <time>2022-10-28T10:50:25Z</time>
      </trkpt>
      <trkpt lat="44.43564" lon="3.61052">
        <ele>1344.4</ele>
        <time>2022-10-28T10:50:38Z</time>
      </trkpt>
      <trkpt lat="44.43565" lon="3.61053">
        <ele>1344.4</ele>
        <time>2022-10-28T10:50:39Z</time>
      </trkpt>
      <trkpt lat="44.43566" lon="3.61054">
        <ele>1344.6</ele>
        <time>2022-10-28T10:50:40Z</time>
      </trkpt>
      <trkpt lat="44.43567" lon="3.61055">
        <ele>1344.6</ele>
        <time>2022-10-28T10:50:41Z</time>
      </trkpt>
      <trkpt lat="44.43568" lon="3.61056">
        <ele>1344.8</ele>
        <time>2022-10-28T10:50:42Z</time>
      </trkpt>
      <trkpt lat="44.43568" lon="3.61057">
        <ele>1345</ele>
        <time>2022-10-28T10:50:43Z</time>
      </trkpt>
      <trkpt lat="44.4357" lon="3.61058">
        <ele>1345</ele>
        <time>2022-10-28T10:50:44Z</time>
      </trkpt>
      <trkpt lat="44.43571" lon="3.61059">
        <ele>1345.2</ele>
        <time>2022-10-28T10:50:45Z</time>
      </trkpt>
      <trkpt lat="44.43571" lon="3.6106">
        <ele>1345.4</ele>
        <time>2022-10-28T10:50:46Z</time>
      </trkpt>
      <trkpt lat="44.43573" lon="3.61061">
        <ele>1345.6</ele>
        <time>2022-10-28T10:50:47Z</time>
      </trkpt>
      <trkpt lat="44.43573" lon="3.61062">
        <ele>1346</ele>
        <time>2022-10-28T10:50:48Z</time>
      </trkpt>
      <trkpt lat="44.43574" lon="3.61063">
        <ele>1346.4</ele>
        <time>2022-10-28T10:50:49Z</time>
      </trkpt>
      <trkpt lat="44.43575" lon="3.61065">
        <ele>1346.6</ele>
        <time>2022-10-28T10:50:50Z</time>
      </trkpt>
      <trkpt lat="44.43576" lon="3.61066">
        <ele>1347</ele>
        <time>2022-10-28T10:50:51Z</time>
      </trkpt>
      <trkpt lat="44.43577" lon="3.61067">
        <ele>1347.2</ele>
        <time>2022-10-28T10:50:52Z</time>
      </trkpt>
      <trkpt lat="44.43578" lon="3.61068">
        <ele>1347.4</ele>
        <time>2022-10-28T10:50:53Z</time>
      </trkpt>
      <trkpt lat="44.43579" lon="3.61069">
        <ele>1347.6</ele>
        <time>2022-10-28T10:50:54Z</time>
      </trkpt>
      <trkpt lat="44.4358" lon="3.6107">
        <ele>1347.8</ele>
        <time>2022-10-28T10:50:55Z</time>
      </trkpt>
      <trkpt lat="44.4358" lon="3.61071">
        <ele>1348</ele>
        <time>2022-10-28T10:50:56Z</time>
      </trkpt>
      <trkpt lat="44.43581" lon="3.61072">
        <ele>1348</ele>
        <time>2022-10-28T10:50:57Z</time>
      </trkpt>
      <trkpt lat="44.43582" lon="3.61073">
        <ele>1348.2</ele>
        <time>2022-10-28T10:50:58Z</time>
      </trkpt>
      <trkpt lat="44.43582" lon="3.61074">
        <ele>1348.4</ele>
        <time>2022-10-28T10:50:59Z</time>
      </trkpt>
      <trkpt lat="44.43583" lon="3.61076">
        <ele>1348.6</ele>
        <time>2022-10-28T10:51:00Z</time>
      </trkpt>
      <trkpt lat="44.43584" lon="3.61077">
        <ele>1348.8</ele>
        <time>2022-10-28T10:51:01Z</time>
      </trkpt>
      <trkpt lat="44.43585" lon="3.61078">
        <ele>1349</ele>
        <time>2022-10-28T10:51:02Z</time>
      </trkpt>
      <trkpt lat="44.43586" lon="3.6108">
        <ele>1349.2</ele>
        <time>2022-10-28T10:51:03Z</time>
      </trkpt>
      <trkpt lat="44.43587" lon="3.61081">
        <ele>1349.4</ele>
        <time>2022-10-28T10:51:04Z</time>
      </trkpt>
      <trkpt lat="44.43588" lon="3.61083">
        <ele>1349.6</ele>
        <time>2022-10-28T10:51:05Z</time>
      </trkpt>
      <trkpt lat="44.43589" lon="3.61084">
        <ele>1350</ele>
        <time>2022-10-28T10:51:06Z</time>
      </trkpt>
      <trkpt lat="44.4359" lon="3.61085">
        <ele>1350.2</ele>
        <time>2022-10-28T10:51:07Z</time>
      </trkpt>
      <trkpt lat="44.43591" lon="3.61086">
        <ele>1350.4</ele>
        <time>2022-10-28T10:51:08Z</time>
      </trkpt>
      <trkpt lat="44.43592" lon="3.61087">
        <ele>1350.6</ele>
        <time>2022-10-28T10:51:09Z</time>
      </trkpt>
      <trkpt lat="44.43593" lon="3.61088">
        <ele>1350.8</ele>
        <time>2022-10-28T10:51:10Z</time>
      </trkpt>
      <trkpt lat="44.43594" lon="3.6109">
        <ele>1351</ele>
        <time>2022-10-28T10:51:11Z</time>
      </trkpt>
      <trkpt lat="44.43595" lon="3.61091">
        <ele>1351.2</ele>
        <time>2022-10-28T10:51:12Z</time>
      </trkpt>
      <trkpt lat="44.43596" lon="3.61093">
        <ele>1351.4</ele>
        <time>2022-10-28T10:51:13Z</time>
      </trkpt>
      <trkpt lat="44.43597" lon="3.61094">
        <ele>1351.6</ele>
        <time>2022-10-28T10:51:14Z</time>
      </trkpt>
      <trkpt lat="44.43598" lon="3.61096">
        <ele>1352</ele>
        <time>2022-10-28T10:51:15Z</time>
      </trkpt>
      <trkpt lat="44.43599" lon="3.61097">
        <ele>1352.2</ele>
        <time>2022-10-28T10:51:16Z</time>
      </trkpt>
      <trkpt lat="44.436" lon="3.61099">
        <ele>1352.2</ele>
        <time>2022-10-28T10:51:17Z</time>
      </trkpt>
      <trkpt lat="44.43601" lon="3.611">
        <ele>1352.4</ele>
        <time>2022-10-28T10:51:18Z</time>
      </trkpt>
      <trkpt lat="44.43602" lon="3.61102">
        <ele>1352.6</ele>
        <time>2022-10-28T10:51:19Z</time>
      </trkpt>
      <trkpt lat="44.43602" lon="3.61103">
        <ele>1352.6</ele>
        <time>2022-10-28T10:51:20Z</time>
      </trkpt>
      <trkpt lat="44.43603" lon="3.61105">
        <ele>1352.8</ele>
        <time>2022-10-28T10:51:21Z</time>
      </trkpt>
      <trkpt lat="44.43604" lon="3.61106">
        <ele>1352.8</ele>
        <time>2022-10-28T10:51:22Z</time>
      </trkpt>
      <trkpt lat="44.43605" lon="3.61108">
        <ele>1353</ele>
        <time>2022-10-28T10:51:23Z</time>
      </trkpt>
      <trkpt lat="44.43605" lon="3.61109">
        <ele>1353.2</ele>
        <time>2022-10-28T10:51:24Z</time>
      </trkpt>
      <trkpt lat="44.43605" lon="3.61109">
        <ele>1353.2</ele>
        <time>2022-10-28T10:51:25Z</time>
      </trkpt>
      <trkpt lat="44.43609" lon="3.61113">
        <ele>1353.6</ele>
        <time>2022-10-28T10:51:35Z</time>
      </trkpt>
      <trkpt lat="44.4361" lon="3.61113">
        <ele>1353.6</ele>
        <time>2022-10-28T10:51:36Z</time>
      </trkpt>
      <trkpt lat="44.43611" lon="3.61114">
        <ele>1353.8</ele>
        <time>2022-10-28T10:51:37Z</time>
      </trkpt>
      <trkpt lat="44.43612" lon="3.61114">
        <ele>1353.8</ele>
        <time>2022-10-28T10:51:38Z</time>
      </trkpt>
      <trkpt lat="44.43613" lon="3.61115">
        <ele>1353.8</ele>
        <time>2022-10-28T10:51:39Z</time>
      </trkpt>
      <trkpt lat="44.43614" lon="3.61115">
        <ele>1354</ele>
        <time>2022-10-28T10:51:40Z</time>
      </trkpt>
      <trkpt lat="44.43615" lon="3.61116">
        <ele>1354.2</ele>
        <time>2022-10-28T10:51:41Z</time>
      </trkpt>
      <trkpt lat="44.43616" lon="3.61116">
        <ele>1354.2</ele>
        <time>2022-10-28T10:51:42Z</time>
      </trkpt>
      <trkpt lat="44.43617" lon="3.61117">
        <ele>1354.4</ele>
        <time>2022-10-28T10:51:43Z</time>
      </trkpt>
      <trkpt lat="44.43618" lon="3.61117">
        <ele>1354.6</ele>
        <time>2022-10-28T10:51:44Z</time>
      </trkpt>
      <trkpt lat="44.43619" lon="3.61118">
        <ele>1354.8</ele>
        <time>2022-10-28T10:51:45Z</time>
      </trkpt>
      <trkpt lat="44.4362" lon="3.61118">
        <ele>1354.8</ele>
        <time>2022-10-28T10:51:46Z</time>
      </trkpt>
      <trkpt lat="44.43621" lon="3.61119">
        <ele>1355</ele>
        <time>2022-10-28T10:51:47Z</time>
      </trkpt>
      <trkpt lat="44.43622" lon="3.61119">
        <ele>1355.2</ele>
        <time>2022-10-28T10:51:48Z</time>
      </trkpt>
      <trkpt lat="44.43623" lon="3.61119">
        <ele>1355.4</ele>
        <time>2022-10-28T10:51:49Z</time>
      </trkpt>
      <trkpt lat="44.43624" lon="3.6112">
        <ele>1355.6</ele>
        <time>2022-10-28T10:51:50Z</time>
      </trkpt>
      <trkpt lat="44.43625" lon="3.61121">
        <ele>1355.6</ele>
        <time>2022-10-28T10:51:51Z</time>
      </trkpt>
      <trkpt lat="44.43626" lon="3.61122">
        <ele>1355.8</ele>
        <time>2022-10-28T10:51:52Z</time>
      </trkpt>
      <trkpt lat="44.43627" lon="3.61123">
        <ele>1356</ele>
        <time>2022-10-28T10:51:53Z</time>
      </trkpt>
      <trkpt lat="44.43628" lon="3.61124">
        <ele>1356</ele>
        <time>2022-10-28T10:51:54Z</time>
      </trkpt>
      <trkpt lat="44.43629" lon="3.61125">
        <ele>1356.2</ele>
        <time>2022-10-28T10:51:55Z</time>
      </trkpt>
      <trkpt lat="44.4363" lon="3.61126">
        <ele>1356.4</ele>
        <time>2022-10-28T10:51:56Z</time>
      </trkpt>
      <trkpt lat="44.43631" lon="3.61126">
        <ele>1356.6</ele>
        <time>2022-10-28T10:51:57Z</time>
      </trkpt>
      <trkpt lat="44.43632" lon="3.61127">
        <ele>1356.6</ele>
        <time>2022-10-28T10:51:58Z</time>
      </trkpt>
      <trkpt lat="44.43633" lon="3.61128">
        <ele>1356.8</ele>
        <time>2022-10-28T10:51:59Z</time>
      </trkpt>
      <trkpt lat="44.43634" lon="3.61129">
        <ele>1357</ele>
        <time>2022-10-28T10:52:00Z</time>
      </trkpt>
      <trkpt lat="44.43635" lon="3.6113">
        <ele>1357.2</ele>
        <time>2022-10-28T10:52:01Z</time>
      </trkpt>
      <trkpt lat="44.43636" lon="3.61131">
        <ele>1357.4</ele>
        <time>2022-10-28T10:52:02Z</time>
      </trkpt>
      <trkpt lat="44.43637" lon="3.61131">
        <ele>1357.6</ele>
        <time>2022-10-28T10:52:03Z</time>
      </trkpt>
      <trkpt lat="44.43638" lon="3.61132">
        <ele>1358</ele>
        <time>2022-10-28T10:52:04Z</time>
      </trkpt>
      <trkpt lat="44.43639" lon="3.61133">
        <ele>1358.2</ele>
        <time>2022-10-28T10:52:05Z</time>
      </trkpt>
      <trkpt lat="44.4364" lon="3.61133">
        <ele>1358.4</ele>
        <time>2022-10-28T10:52:06Z</time>
      </trkpt>
      <trkpt lat="44.43641" lon="3.61134">
        <ele>1358.6</ele>
        <time>2022-10-28T10:52:07Z</time>
      </trkpt>
      <trkpt lat="44.43642" lon="3.61135">
        <ele>1358.8</ele>
        <time>2022-10-28T10:52:08Z</time>
      </trkpt>
      <trkpt lat="44.43642" lon="3.61136">
        <ele>1359</ele>
        <time>2022-10-28T10:52:09Z</time>
      </trkpt>
      <trkpt lat="44.43643" lon="3.61138">
        <ele>1359.2</ele>
        <time>2022-10-28T10:52:10Z</time>
      </trkpt>
      <trkpt lat="44.43644" lon="3.61139">
        <ele>1359.4</ele>
        <time>2022-10-28T10:52:11Z</time>
      </trkpt>
      <trkpt lat="44.43645" lon="3.61141">
        <ele>1359.6</ele>
        <time>2022-10-28T10:52:12Z</time>
      </trkpt>
      <trkpt lat="44.43646" lon="3.61142">
        <ele>1359.8</ele>
        <time>2022-10-28T10:52:13Z</time>
      </trkpt>
      <trkpt lat="44.43647" lon="3.61144">
        <ele>1360</ele>
        <time>2022-10-28T10:52:14Z</time>
      </trkpt>
      <trkpt lat="44.43647" lon="3.61145">
        <ele>1360</ele>
        <time>2022-10-28T10:52:15Z</time>
      </trkpt>
      <trkpt lat="44.43648" lon="3.61147">
        <ele>1360.2</ele>
        <time>2022-10-28T10:52:16Z</time>
      </trkpt>
      <trkpt lat="44.43649" lon="3.61148">
        <ele>1360.4</ele>
        <time>2022-10-28T10:52:17Z</time>
      </trkpt>
      <trkpt lat="44.4365" lon="3.61149">
        <ele>1360.6</ele>
        <time>2022-10-28T10:52:18Z</time>
      </trkpt>
      <trkpt lat="44.43651" lon="3.6115">
        <ele>1360.8</ele>
        <time>2022-10-28T10:52:19Z</time>
      </trkpt>
      <trkpt lat="44.43652" lon="3.61151">
        <ele>1361</ele>
        <time>2022-10-28T10:52:20Z</time>
      </trkpt>
      <trkpt lat="44.43654" lon="3.61151">
        <ele>1361.2</ele>
        <time>2022-10-28T10:52:21Z</time>
      </trkpt>
      <trkpt lat="44.43655" lon="3.61152">
        <ele>1361.4</ele>
        <time>2022-10-28T10:52:22Z</time>
      </trkpt>
      <trkpt lat="44.43656" lon="3.61153">
        <ele>1361.6</ele>
        <time>2022-10-28T10:52:23Z</time>
      </trkpt>
      <trkpt lat="44.43657" lon="3.61153">
        <ele>1361.8</ele>
        <time>2022-10-28T10:52:24Z</time>
      </trkpt>
      <trkpt lat="44.43658" lon="3.61154">
        <ele>1362</ele>
        <time>2022-10-28T10:52:25Z</time>
      </trkpt>
      <trkpt lat="44.43659" lon="3.61155">
        <ele>1362.2</ele>
        <time>2022-10-28T10:52:26Z</time>
      </trkpt>
      <trkpt lat="44.43659" lon="3.61157">
        <ele>1362.4</ele>
        <time>2022-10-28T10:52:27Z</time>
      </trkpt>
      <trkpt lat="44.4366" lon="3.61158">
        <ele>1362.6</ele>
        <time>2022-10-28T10:52:28Z</time>
      </trkpt>
      <trkpt lat="44.43661" lon="3.6116">
        <ele>1362.8</ele>
        <time>2022-10-28T10:52:29Z</time>
      </trkpt>
      <trkpt lat="44.43661" lon="3.61161">
        <ele>1363.2</ele>
        <time>2022-10-28T10:52:30Z</time>
      </trkpt>
      <trkpt lat="44.43662" lon="3.61162">
        <ele>1363.4</ele>
        <time>2022-10-28T10:52:31Z</time>
      </trkpt>
      <trkpt lat="44.43663" lon="3.61162">
        <ele>1363.6</ele>
        <time>2022-10-28T10:52:32Z</time>
      </trkpt>
      <trkpt lat="44.43664" lon="3.61163">
        <ele>1363.8</ele>
        <time>2022-10-28T10:52:33Z</time>
      </trkpt>
      <trkpt lat="44.43664" lon="3.61163">
        <ele>1363.8</ele>
        <time>2022-10-28T10:52:34Z</time>
      </trkpt>
      <trkpt lat="44.43665" lon="3.61163">
        <ele>1364</ele>
        <time>2022-10-28T10:52:35Z</time>
      </trkpt>
      <trkpt lat="44.43665" lon="3.61163">
        <ele>1364.2</ele>
        <time>2022-10-28T10:52:36Z</time>
      </trkpt>
      <trkpt lat="44.43665" lon="3.61164">
        <ele>1364.2</ele>
        <time>2022-10-28T10:52:37Z</time>
      </trkpt>
      <trkpt lat="44.43666" lon="3.61164">
        <ele>1364.4</ele>
        <time>2022-10-28T10:52:38Z</time>
      </trkpt>
      <trkpt lat="44.43666" lon="3.61164">
        <ele>1364.4</ele>
        <time>2022-10-28T10:52:39Z</time>
      </trkpt>
      <trkpt lat="44.43667" lon="3.61164">
        <ele>1364.6</ele>
        <time>2022-10-28T10:52:40Z</time>
      </trkpt>
      <trkpt lat="44.4367" lon="3.61168">
        <ele>1365</ele>
        <time>2022-10-28T10:53:24Z</time>
      </trkpt>
      <trkpt lat="44.43671" lon="3.6117">
        <ele>1365</ele>
        <time>2022-10-28T10:53:25Z</time>
      </trkpt>
      <trkpt lat="44.43672" lon="3.61172">
        <ele>1365</ele>
        <time>2022-10-28T10:53:26Z</time>
      </trkpt>
      <trkpt lat="44.43674" lon="3.61173">
        <ele>1365.2</ele>
        <time>2022-10-28T10:53:27Z</time>
      </trkpt>
      <trkpt lat="44.43675" lon="3.61175">
        <ele>1365.4</ele>
        <time>2022-10-28T10:53:28Z</time>
      </trkpt>
      <trkpt lat="44.43676" lon="3.61176">
        <ele>1365.6</ele>
        <time>2022-10-28T10:53:29Z</time>
      </trkpt>
      <trkpt lat="44.43677" lon="3.61177">
        <ele>1365.6</ele>
        <time>2022-10-28T10:53:30Z</time>
      </trkpt>
      <trkpt lat="44.43678" lon="3.61178">
        <ele>1365.8</ele>
        <time>2022-10-28T10:53:31Z</time>
      </trkpt>
      <trkpt lat="44.43679" lon="3.61179">
        <ele>1366</ele>
        <time>2022-10-28T10:53:32Z</time>
      </trkpt>
      <trkpt lat="44.4368" lon="3.6118">
        <ele>1366.4</ele>
        <time>2022-10-28T10:53:33Z</time>
      </trkpt>
      <trkpt lat="44.4368" lon="3.61181">
        <ele>1366.6</ele>
        <time>2022-10-28T10:53:34Z</time>
      </trkpt>
      <trkpt lat="44.43681" lon="3.61182">
        <ele>1366.8</ele>
        <time>2022-10-28T10:53:35Z</time>
      </trkpt>
      <trkpt lat="44.43682" lon="3.61183">
        <ele>1367.2</ele>
        <time>2022-10-28T10:53:36Z</time>
      </trkpt>
      <trkpt lat="44.43683" lon="3.61184">
        <ele>1367.4</ele>
        <time>2022-10-28T10:53:37Z</time>
      </trkpt>
      <trkpt lat="44.43684" lon="3.61185">
        <ele>1367.8</ele>
        <time>2022-10-28T10:53:38Z</time>
      </trkpt>
      <trkpt lat="44.43685" lon="3.61186">
        <ele>1368</ele>
        <time>2022-10-28T10:53:39Z</time>
      </trkpt>
      <trkpt lat="44.43686" lon="3.61187">
        <ele>1368.2</ele>
        <time>2022-10-28T10:53:40Z</time>
      </trkpt>
      <trkpt lat="44.43687" lon="3.61188">
        <ele>1368.2</ele>
        <time>2022-10-28T10:53:41Z</time>
      </trkpt>
      <trkpt lat="44.43688" lon="3.61189">
        <ele>1368.4</ele>
        <time>2022-10-28T10:53:42Z</time>
      </trkpt>
      <trkpt lat="44.43689" lon="3.6119">
        <ele>1368.6</ele>
        <time>2022-10-28T10:53:43Z</time>
      </trkpt>
      <trkpt lat="44.4369" lon="3.61191">
        <ele>1368.8</ele>
        <time>2022-10-28T10:53:44Z</time>
      </trkpt>
      <trkpt lat="44.43691" lon="3.61191">
        <ele>1369</ele>
        <time>2022-10-28T10:53:45Z</time>
      </trkpt>
      <trkpt lat="44.43691" lon="3.61192">
        <ele>1369.2</ele>
        <time>2022-10-28T10:53:46Z</time>
      </trkpt>
      <trkpt lat="44.43692" lon="3.61193">
        <ele>1369.4</ele>
        <time>2022-10-28T10:53:47Z</time>
      </trkpt>
      <trkpt lat="44.43693" lon="3.61194">
        <ele>1369.6</ele>
        <time>2022-10-28T10:53:48Z</time>
      </trkpt>
      <trkpt lat="44.43694" lon="3.61196">
        <ele>1369.8</ele>
        <time>2022-10-28T10:53:49Z</time>
      </trkpt>
      <trkpt lat="44.43695" lon="3.61197">
        <ele>1370</ele>
        <time>2022-10-28T10:53:50Z</time>
      </trkpt>
      <trkpt lat="44.43696" lon="3.61198">
        <ele>1370.2</ele>
        <time>2022-10-28T10:53:51Z</time>
      </trkpt>
      <trkpt lat="44.43696" lon="3.61199">
        <ele>1370.4</ele>
        <time>2022-10-28T10:53:52Z</time>
      </trkpt>
      <trkpt lat="44.43697" lon="3.612">
        <ele>1370.6</ele>
        <time>2022-10-28T10:53:53Z</time>
      </trkpt>
      <trkpt lat="44.43698" lon="3.61201">
        <ele>1371</ele>
        <time>2022-10-28T10:53:54Z</time>
      </trkpt>
      <trkpt lat="44.43699" lon="3.61202">
        <ele>1371.2</ele>
        <time>2022-10-28T10:53:55Z</time>
      </trkpt>
      <trkpt lat="44.437" lon="3.61203">
        <ele>1371.4</ele>
        <time>2022-10-28T10:53:56Z</time>
      </trkpt>
      <trkpt lat="44.43702" lon="3.61204">
        <ele>1371.6</ele>
        <time>2022-10-28T10:53:57Z</time>
      </trkpt>
      <trkpt lat="44.43703" lon="3.61205">
        <ele>1371.8</ele>
        <time>2022-10-28T10:53:58Z</time>
      </trkpt>
      <trkpt lat="44.43704" lon="3.61206">
        <ele>1372</ele>
        <time>2022-10-28T10:53:59Z</time>
      </trkpt>
      <trkpt lat="44.43705" lon="3.61207">
        <ele>1372.2</ele>
        <time>2022-10-28T10:54:00Z</time>
      </trkpt>
      <trkpt lat="44.43706" lon="3.61208">
        <ele>1372.4</ele>
        <time>2022-10-28T10:54:01Z</time>
      </trkpt>
      <trkpt lat="44.43707" lon="3.61208">
        <ele>1372.6</ele>
        <time>2022-10-28T10:54:02Z</time>
      </trkpt>
      <trkpt lat="44.43708" lon="3.61209">
        <ele>1372.8</ele>
        <time>2022-10-28T10:54:03Z</time>
      </trkpt>
      <trkpt lat="44.43709" lon="3.6121">
        <ele>1373</ele>
        <time>2022-10-28T10:54:04Z</time>
      </trkpt>
      <trkpt lat="44.4371" lon="3.61211">
        <ele>1373.2</ele>
        <time>2022-10-28T10:54:05Z</time>
      </trkpt>
      <trkpt lat="44.43711" lon="3.61211">
        <ele>1373.4</ele>
        <time>2022-10-28T10:54:06Z</time>
      </trkpt>
      <trkpt lat="44.43712" lon="3.61212">
        <ele>1373.6</ele>
        <time>2022-10-28T10:54:07Z</time>
      </trkpt>
      <trkpt lat="44.43713" lon="3.61213">
        <ele>1373.8</ele>
        <time>2022-10-28T10:54:08Z</time>
      </trkpt>
      <trkpt lat="44.43714" lon="3.61214">
        <ele>1374.2</ele>
        <time>2022-10-28T10:54:09Z</time>
      </trkpt>
      <trkpt lat="44.43715" lon="3.61214">
        <ele>1374.4</ele>
        <time>2022-10-28T10:54:10Z</time>
      </trkpt>
      <trkpt lat="44.43716" lon="3.61215">
        <ele>1374.6</ele>
        <time>2022-10-28T10:54:11Z</time>
      </trkpt>
      <trkpt lat="44.43717" lon="3.61216">
        <ele>1374.8</ele>
        <time>2022-10-28T10:54:12Z</time>
      </trkpt>
      <trkpt lat="44.43718" lon="3.61216">
        <ele>1375</ele>
        <time>2022-10-28T10:54:13Z</time>
      </trkpt>
      <trkpt lat="44.43719" lon="3.61217">
        <ele>1375.2</ele>
        <time>2022-10-28T10:54:14Z</time>
      </trkpt>
      <trkpt lat="44.4372" lon="3.61218">
        <ele>1375.4</ele>
        <time>2022-10-28T10:54:15Z</time>
      </trkpt>
      <trkpt lat="44.43721" lon="3.61219">
        <ele>1375.6</ele>
        <time>2022-10-28T10:54:16Z</time>
      </trkpt>
      <trkpt lat="44.43723" lon="3.6122">
        <ele>1375.8</ele>
        <time>2022-10-28T10:54:17Z</time>
      </trkpt>
      <trkpt lat="44.43724" lon="3.61221">
        <ele>1376</ele>
        <time>2022-10-28T10:54:18Z</time>
      </trkpt>
      <trkpt lat="44.43725" lon="3.61221">
        <ele>1376.4</ele>
        <time>2022-10-28T10:54:19Z</time>
      </trkpt>
      <trkpt lat="44.43726" lon="3.61221">
        <ele>1376.6</ele>
        <time>2022-10-28T10:54:20Z</time>
      </trkpt>
      <trkpt lat="44.43727" lon="3.61222">
        <ele>1376.8</ele>
        <time>2022-10-28T10:54:21Z</time>
      </trkpt>
      <trkpt lat="44.43728" lon="3.61222">
        <ele>1377</ele>
        <time>2022-10-28T10:54:22Z</time>
      </trkpt>
      <trkpt lat="44.43729" lon="3.61222">
        <ele>1377.2</ele>
        <time>2022-10-28T10:54:23Z</time>
      </trkpt>
      <trkpt lat="44.4373" lon="3.61222">
        <ele>1377.6</ele>
        <time>2022-10-28T10:54:24Z</time>
      </trkpt>
      <trkpt lat="44.43731" lon="3.61223">
        <ele>1377.6</ele>
        <time>2022-10-28T10:54:25Z</time>
      </trkpt>
      <trkpt lat="44.43732" lon="3.61223">
        <ele>1377.8</ele>
        <time>2022-10-28T10:54:26Z</time>
      </trkpt>
      <trkpt lat="44.43732" lon="3.61224">
        <ele>1378</ele>
        <time>2022-10-28T10:54:27Z</time>
      </trkpt>
      <trkpt lat="44.43732" lon="3.61224">
        <ele>1378</ele>
        <time>2022-10-28T10:54:28Z</time>
      </trkpt>
      <trkpt lat="44.43734" lon="3.61226">
        <ele>1378.2</ele>
        <time>2022-10-28T10:54:54Z</time>
      </trkpt>
      <trkpt lat="44.43735" lon="3.61227">
        <ele>1378.2</ele>
        <time>2022-10-28T10:54:55Z</time>
      </trkpt>
      <trkpt lat="44.43737" lon="3.61228">
        <ele>1378.2</ele>
        <time>2022-10-28T10:54:56Z</time>
      </trkpt>
      <trkpt lat="44.43739" lon="3.61228">
        <ele>1378.4</ele>
        <time>2022-10-28T10:54:57Z</time>
      </trkpt>
      <trkpt lat="44.4374" lon="3.61228">
        <ele>1378.4</ele>
        <time>2022-10-28T10:54:58Z</time>
      </trkpt>
      <trkpt lat="44.43741" lon="3.61228">
        <ele>1378.6</ele>
        <time>2022-10-28T10:54:59Z</time>
      </trkpt>
      <trkpt lat="44.43742" lon="3.61228">
        <ele>1378.8</ele>
        <time>2022-10-28T10:55:00Z</time>
      </trkpt>
      <trkpt lat="44.43744" lon="3.61229">
        <ele>1379</ele>
        <time>2022-10-28T10:55:01Z</time>
      </trkpt>
      <trkpt lat="44.43745" lon="3.61229">
        <ele>1379.2</ele>
        <time>2022-10-28T10:55:02Z</time>
      </trkpt>
      <trkpt lat="44.43746" lon="3.6123">
        <ele>1379.4</ele>
        <time>2022-10-28T10:55:03Z</time>
      </trkpt>
      <trkpt lat="44.43747" lon="3.61232">
        <ele>1379.6</ele>
        <time>2022-10-28T10:55:04Z</time>
      </trkpt>
      <trkpt lat="44.43748" lon="3.61233">
        <ele>1379.6</ele>
        <time>2022-10-28T10:55:05Z</time>
      </trkpt>
      <trkpt lat="44.43749" lon="3.61234">
        <ele>1379.8</ele>
        <time>2022-10-28T10:55:06Z</time>
      </trkpt>
      <trkpt lat="44.4375" lon="3.61236">
        <ele>1380</ele>
        <time>2022-10-28T10:55:07Z</time>
      </trkpt>
      <trkpt lat="44.43751" lon="3.61237">
        <ele>1380.2</ele>
        <time>2022-10-28T10:55:08Z</time>
      </trkpt>
      <trkpt lat="44.43753" lon="3.61238">
        <ele>1380.4</ele>
        <time>2022-10-28T10:55:09Z</time>
      </trkpt>
      <trkpt lat="44.43754" lon="3.61239">
        <ele>1380.6</ele>
        <time>2022-10-28T10:55:10Z</time>
      </trkpt>
      <trkpt lat="44.43756" lon="3.6124">
        <ele>1380.8</ele>
        <time>2022-10-28T10:55:11Z</time>
      </trkpt>
      <trkpt lat="44.43757" lon="3.61241">
        <ele>1381</ele>
        <time>2022-10-28T10:55:12Z</time>
      </trkpt>
      <trkpt lat="44.43759" lon="3.61241">
        <ele>1381.2</ele>
        <time>2022-10-28T10:55:13Z</time>
      </trkpt>
      <trkpt lat="44.4376" lon="3.61242">
        <ele>1381.4</ele>
        <time>2022-10-28T10:55:14Z</time>
      </trkpt>
      <trkpt lat="44.43761" lon="3.61243">
        <ele>1381.6</ele>
        <time>2022-10-28T10:55:15Z</time>
      </trkpt>
      <trkpt lat="44.43763" lon="3.61244">
        <ele>1381.8</ele>
        <time>2022-10-28T10:55:16Z</time>
      </trkpt>
      <trkpt lat="44.43764" lon="3.61245">
        <ele>1382.2</ele>
        <time>2022-10-28T10:55:17Z</time>
      </trkpt>
      <trkpt lat="44.43765" lon="3.61246">
        <ele>1382.4</ele>
        <time>2022-10-28T10:55:18Z</time>
      </trkpt>
      <trkpt lat="44.43766" lon="3.61247">
        <ele>1382.6</ele>
        <time>2022-10-28T10:55:19Z</time>
      </trkpt>
      <trkpt lat="44.43767" lon="3.61249">
        <ele>1382.8</ele>
        <time>2022-10-28T10:55:20Z</time>
      </trkpt>
      <trkpt lat="44.43768" lon="3.6125">
        <ele>1383</ele>
        <time>2022-10-28T10:55:21Z</time>
      </trkpt>
      <trkpt lat="44.43769" lon="3.61251">
        <ele>1383.2</ele>
        <time>2022-10-28T10:55:22Z</time>
      </trkpt>
      <trkpt lat="44.43771" lon="3.61252">
        <ele>1383.4</ele>
        <time>2022-10-28T10:55:23Z</time>
      </trkpt>
      <trkpt lat="44.43772" lon="3.61254">
        <ele>1383.8</ele>
        <time>2022-10-28T10:55:24Z</time>
      </trkpt>
      <trkpt lat="44.43773" lon="3.61255">
        <ele>1384</ele>
        <time>2022-10-28T10:55:25Z</time>
      </trkpt>
      <trkpt lat="44.43774" lon="3.61256">
        <ele>1384.2</ele>
        <time>2022-10-28T10:55:26Z</time>
      </trkpt>
      <trkpt lat="44.43775" lon="3.61257">
        <ele>1384.4</ele>
        <time>2022-10-28T10:55:27Z</time>
      </trkpt>
      <trkpt lat="44.43776" lon="3.61259">
        <ele>1384.6</ele>
        <time>2022-10-28T10:55:28Z</time>
      </trkpt>
      <trkpt lat="44.43776" lon="3.61261">
        <ele>1384.8</ele>
        <time>2022-10-28T10:55:29Z</time>
      </trkpt>
      <trkpt lat="44.43777" lon="3.61262">
        <ele>1385</ele>
        <time>2022-10-28T10:55:30Z</time>
      </trkpt>
      <trkpt lat="44.43778" lon="3.61264">
        <ele>1385.2</ele>
        <time>2022-10-28T10:55:31Z</time>
      </trkpt>
      <trkpt lat="44.43779" lon="3.61265">
        <ele>1385.4</ele>
        <time>2022-10-28T10:55:32Z</time>
      </trkpt>
      <trkpt lat="44.4378" lon="3.61266">
        <ele>1385.6</ele>
        <time>2022-10-28T10:55:33Z</time>
      </trkpt>
      <trkpt lat="44.43781" lon="3.61267">
        <ele>1385.8</ele>
        <time>2022-10-28T10:55:34Z</time>
      </trkpt>
      <trkpt lat="44.43782" lon="3.61268">
        <ele>1386</ele>
        <time>2022-10-28T10:55:35Z</time>
      </trkpt>
      <trkpt lat="44.43783" lon="3.6127">
        <ele>1386.2</ele>
        <time>2022-10-28T10:55:36Z</time>
      </trkpt>
      <trkpt lat="44.43784" lon="3.61271">
        <ele>1386.4</ele>
        <time>2022-10-28T10:55:37Z</time>
      </trkpt>
      <trkpt lat="44.43785" lon="3.61273">
        <ele>1386.6</ele>
        <time>2022-10-28T10:55:38Z</time>
      </trkpt>
      <trkpt lat="44.43786" lon="3.61274">
        <ele>1386.8</ele>
        <time>2022-10-28T10:55:39Z</time>
      </trkpt>
      <trkpt lat="44.43787" lon="3.61275">
        <ele>1387</ele>
        <time>2022-10-28T10:55:40Z</time>
      </trkpt>
      <trkpt lat="44.43788" lon="3.61276">
        <ele>1387.2</ele>
        <time>2022-10-28T10:55:41Z</time>
      </trkpt>
      <trkpt lat="44.43789" lon="3.61277">
        <ele>1387.4</ele>
        <time>2022-10-28T10:55:42Z</time>
      </trkpt>
      <trkpt lat="44.43791" lon="3.61279">
        <ele>1387.6</ele>
        <time>2022-10-28T10:55:43Z</time>
      </trkpt>
      <trkpt lat="44.43792" lon="3.6128">
        <ele>1387.8</ele>
        <time>2022-10-28T10:55:44Z</time>
      </trkpt>
      <trkpt lat="44.43793" lon="3.61281">
        <ele>1388</ele>
        <time>2022-10-28T10:55:45Z</time>
      </trkpt>
      <trkpt lat="44.43794" lon="3.61283">
        <ele>1388.2</ele>
        <time>2022-10-28T10:55:46Z</time>
      </trkpt>
      <trkpt lat="44.43795" lon="3.61283">
        <ele>1388.4</ele>
        <time>2022-10-28T10:55:47Z</time>
      </trkpt>
      <trkpt lat="44.43797" lon="3.61284">
        <ele>1388.8</ele>
        <time>2022-10-28T10:55:48Z</time>
      </trkpt>
      <trkpt lat="44.43798" lon="3.61285">
        <ele>1389</ele>
        <time>2022-10-28T10:55:49Z</time>
      </trkpt>
      <trkpt lat="44.43799" lon="3.61286">
        <ele>1389.2</ele>
        <time>2022-10-28T10:55:50Z</time>
      </trkpt>
      <trkpt lat="44.438" lon="3.61287">
        <ele>1389.4</ele>
        <time>2022-10-28T10:55:51Z</time>
      </trkpt>
      <trkpt lat="44.43802" lon="3.61288">
        <ele>1389.6</ele>
        <time>2022-10-28T10:55:52Z</time>
      </trkpt>
      <trkpt lat="44.43803" lon="3.61289">
        <ele>1389.8</ele>
        <time>2022-10-28T10:55:53Z</time>
      </trkpt>
      <trkpt lat="44.43804" lon="3.61289">
        <ele>1390</ele>
        <time>2022-10-28T10:55:54Z</time>
      </trkpt>
      <trkpt lat="44.43806" lon="3.6129">
        <ele>1390.2</ele>
        <time>2022-10-28T10:55:55Z</time>
      </trkpt>
      <trkpt lat="44.43807" lon="3.61291">
        <ele>1390.4</ele>
        <time>2022-10-28T10:55:56Z</time>
      </trkpt>
      <trkpt lat="44.43809" lon="3.61292">
        <ele>1390.6</ele>
        <time>2022-10-28T10:55:57Z</time>
      </trkpt>
      <trkpt lat="44.4381" lon="3.61293">
        <ele>1390.8</ele>
        <time>2022-10-28T10:55:58Z</time>
      </trkpt>
      <trkpt lat="44.43811" lon="3.61294">
        <ele>1391</ele>
        <time>2022-10-28T10:55:59Z</time>
      </trkpt>
      <trkpt lat="44.43812" lon="3.61295">
        <ele>1391.2</ele>
        <time>2022-10-28T10:56:00Z</time>
      </trkpt>
      <trkpt lat="44.43814" lon="3.61296">
        <ele>1391.4</ele>
        <time>2022-10-28T10:56:01Z</time>
      </trkpt>
      <trkpt lat="44.43815" lon="3.61296">
        <ele>1391.6</ele>
        <time>2022-10-28T10:56:02Z</time>
      </trkpt>
      <trkpt lat="44.43816" lon="3.61297">
        <ele>1391.8</ele>
        <time>2022-10-28T10:56:03Z</time>
      </trkpt>
      <trkpt lat="44.43818" lon="3.61297">
        <ele>1392</ele>
        <time>2022-10-28T10:56:04Z</time>
      </trkpt>
      <trkpt lat="44.43819" lon="3.61298">
        <ele>1392.2</ele>
        <time>2022-10-28T10:56:05Z</time>
      </trkpt>
      <trkpt lat="44.4382" lon="3.61299">
        <ele>1392.4</ele>
        <time>2022-10-28T10:56:06Z</time>
      </trkpt>
      <trkpt lat="44.43821" lon="3.61301">
        <ele>1392.6</ele>
        <time>2022-10-28T10:56:07Z</time>
      </trkpt>
      <trkpt lat="44.43822" lon="3.61302">
        <ele>1392.8</ele>
        <time>2022-10-28T10:56:08Z</time>
      </trkpt>
      <trkpt lat="44.43823" lon="3.61303">
        <ele>1393</ele>
        <time>2022-10-28T10:56:09Z</time>
      </trkpt>
      <trkpt lat="44.43824" lon="3.61304">
        <ele>1393.2</ele>
        <time>2022-10-28T10:56:10Z</time>
      </trkpt>
      <trkpt lat="44.43825" lon="3.61305">
        <ele>1393.4</ele>
        <time>2022-10-28T10:56:11Z</time>
      </trkpt>
      <trkpt lat="44.43827" lon="3.61306">
        <ele>1393.6</ele>
        <time>2022-10-28T10:56:12Z</time>
      </trkpt>
      <trkpt lat="44.43828" lon="3.61308">
        <ele>1393.8</ele>
        <time>2022-10-28T10:56:13Z</time>
      </trkpt>
      <trkpt lat="44.43844" lon="3.61315">
        <ele>1394</ele>
        <time>2022-10-28T10:56:14Z</time>
      </trkpt>
      <trkpt lat="44.43888" lon="3.61332">
        <ele>1394.2</ele>
        <time>2022-10-28T10:56:15Z</time>
      </trkpt>
      <trkpt lat="44.43919" lon="3.61344">
        <ele>1394.4</ele>
        <time>2022-10-28T10:56:16Z</time>
      </trkpt>
      <trkpt lat="44.43924" lon="3.61345">
        <ele>1394.6</ele>
        <time>2022-10-28T10:56:17Z</time>
      </trkpt>
      <trkpt lat="44.43929" lon="3.61346">
        <ele>1394.8</ele>
        <time>2022-10-28T10:56:18Z</time>
      </trkpt>
      <trkpt lat="44.43932" lon="3.61348">
        <ele>1395</ele>
        <time>2022-10-28T10:56:19Z</time>
      </trkpt>
      <trkpt lat="44.43935" lon="3.6135">
        <ele>1395.2</ele>
        <time>2022-10-28T10:56:20Z</time>
      </trkpt>
      <trkpt lat="44.43937" lon="3.61352">
        <ele>1395.4</ele>
        <time>2022-10-28T10:56:21Z</time>
      </trkpt>
      <trkpt lat="44.43939" lon="3.61354">
        <ele>1395.6</ele>
        <time>2022-10-28T10:56:22Z</time>
      </trkpt>
      <trkpt lat="44.4394" lon="3.61355">
        <ele>1395.8</ele>
        <time>2022-10-28T10:56:23Z</time>
      </trkpt>
      <trkpt lat="44.43941" lon="3.61356">
        <ele>1396</ele>
        <time>2022-10-28T10:56:24Z</time>
      </trkpt>
      <trkpt lat="44.43943" lon="3.61357">
        <ele>1396.2</ele>
        <time>2022-10-28T10:56:25Z</time>
      </trkpt>
      <trkpt lat="44.43945" lon="3.61359">
        <ele>1396.4</ele>
        <time>2022-10-28T10:56:26Z</time>
      </trkpt>
      <trkpt lat="44.43946" lon="3.6136">
        <ele>1396.6</ele>
        <time>2022-10-28T10:56:27Z</time>
      </trkpt>
      <trkpt lat="44.43947" lon="3.61361">
        <ele>1396.8</ele>
        <time>2022-10-28T10:56:28Z</time>
      </trkpt>
      <trkpt lat="44.43949" lon="3.61363">
        <ele>1397</ele>
        <time>2022-10-28T10:56:29Z</time>
      </trkpt>
      <trkpt lat="44.4395" lon="3.61365">
        <ele>1397.2</ele>
        <time>2022-10-28T10:56:30Z</time>
      </trkpt>
      <trkpt lat="44.43952" lon="3.61366">
        <ele>1397.4</ele>
        <time>2022-10-28T10:56:31Z</time>
      </trkpt>
      <trkpt lat="44.43953" lon="3.61368">
        <ele>1397.6</ele>
        <time>2022-10-28T10:56:32Z</time>
      </trkpt>
      <trkpt lat="44.43955" lon="3.61369">
        <ele>1397.8</ele>
        <time>2022-10-28T10:56:33Z</time>
      </trkpt>
      <trkpt lat="44.43957" lon="3.61371">
        <ele>1398</ele>
        <time>2022-10-28T10:56:34Z</time>
      </trkpt>
      <trkpt lat="44.43958" lon="3.61372">
        <ele>1398.2</ele>
        <time>2022-10-28T10:56:35Z</time>
      </trkpt>
      <trkpt lat="44.43959" lon="3.61374">
        <ele>1398.2</ele>
        <time>2022-10-28T10:56:36Z</time>
      </trkpt>
      <trkpt lat="44.4396" lon="3.61376">
        <ele>1398.4</ele>
        <time>2022-10-28T10:56:37Z</time>
      </trkpt>
      <trkpt lat="44.43962" lon="3.61378">
        <ele>1398.6</ele>
        <time>2022-10-28T10:56:38Z</time>
      </trkpt>
      <trkpt lat="44.43964" lon="3.61379">
        <ele>1398.8</ele>
        <time>2022-10-28T10:56:39Z</time>
      </trkpt>
      <trkpt lat="44.43965" lon="3.6138">
        <ele>1399</ele>
        <time>2022-10-28T10:56:40Z</time>
      </trkpt>
      <trkpt lat="44.43967" lon="3.61381">
        <ele>1399.2</ele>
        <time>2022-10-28T10:56:41Z</time>
      </trkpt>
      <trkpt lat="44.43969" lon="3.61382">
        <ele>1399.4</ele>
        <time>2022-10-28T10:56:42Z</time>
      </trkpt>
      <trkpt lat="44.4397" lon="3.61383">
        <ele>1399.4</ele>
        <time>2022-10-28T10:56:43Z</time>
      </trkpt>
      <trkpt lat="44.43972" lon="3.61384">
        <ele>1399.6</ele>
        <time>2022-10-28T10:56:44Z</time>
      </trkpt>
      <trkpt lat="44.43973" lon="3.61385">
        <ele>1399.8</ele>
        <time>2022-10-28T10:56:45Z</time>
      </trkpt>
      <trkpt lat="44.43975" lon="3.61386">
        <ele>1400</ele>
        <time>2022-10-28T10:56:46Z</time>
      </trkpt>
      <trkpt lat="44.43977" lon="3.61387">
        <ele>1400</ele>
        <time>2022-10-28T10:56:47Z</time>
      </trkpt>
      <trkpt lat="44.43979" lon="3.61388">
        <ele>1400.2</ele>
        <time>2022-10-28T10:56:48Z</time>
      </trkpt>
      <trkpt lat="44.4398" lon="3.61388">
        <ele>1400.4</ele>
        <time>2022-10-28T10:56:49Z</time>
      </trkpt>
      <trkpt lat="44.43982" lon="3.61389">
        <ele>1400.4</ele>
        <time>2022-10-28T10:56:50Z</time>
      </trkpt>
      <trkpt lat="44.43984" lon="3.6139">
        <ele>1400.6</ele>
        <time>2022-10-28T10:56:51Z</time>
      </trkpt>
      <trkpt lat="44.43985" lon="3.61391">
        <ele>1400.6</ele>
        <time>2022-10-28T10:56:52Z</time>
      </trkpt>
      <trkpt lat="44.43987" lon="3.61392">
        <ele>1400.8</ele>
        <time>2022-10-28T10:56:53Z</time>
      </trkpt>
      <trkpt lat="44.43988" lon="3.61393">
        <ele>1401</ele>
        <time>2022-10-28T10:56:54Z</time>
      </trkpt>
      <trkpt lat="44.4399" lon="3.61394">
        <ele>1401</ele>
        <time>2022-10-28T10:56:55Z</time>
      </trkpt>
      <trkpt lat="44.43991" lon="3.61396">
        <ele>1401.2</ele>
        <time>2022-10-28T10:56:56Z</time>
      </trkpt>
      <trkpt lat="44.43993" lon="3.61397">
        <ele>1401.2</ele>
        <time>2022-10-28T10:56:57Z</time>
      </trkpt>
      <trkpt lat="44.43994" lon="3.61399">
        <ele>1401.4</ele>
        <time>2022-10-28T10:56:58Z</time>
      </trkpt>
      <trkpt lat="44.43995" lon="3.61401">
        <ele>1401.6</ele>
        <time>2022-10-28T10:56:59Z</time>
      </trkpt>
      <trkpt lat="44.43995" lon="3.61403">
        <ele>1401.6</ele>
        <time>2022-10-28T10:57:00Z</time>
      </trkpt>
      <trkpt lat="44.43996" lon="3.61405">
        <ele>1401.8</ele>
        <time>2022-10-28T10:57:01Z</time>
      </trkpt>
      <trkpt lat="44.43997" lon="3.61407">
        <ele>1402</ele>
        <time>2022-10-28T10:57:02Z</time>
      </trkpt>
      <trkpt lat="44.43997" lon="3.61409">
        <ele>1402.2</ele>
        <time>2022-10-28T10:57:03Z</time>
      </trkpt>
      <trkpt lat="44.43998" lon="3.61411">
        <ele>1402.4</ele>
        <time>2022-10-28T10:57:04Z</time>
      </trkpt>
      <trkpt lat="44.43999" lon="3.61413">
        <ele>1402.4</ele>
        <time>2022-10-28T10:57:05Z</time>
      </trkpt>
      <trkpt lat="44.44" lon="3.61415">
        <ele>1402.6</ele>
        <time>2022-10-28T10:57:06Z</time>
      </trkpt>
      <trkpt lat="44.44" lon="3.61418">
        <ele>1402.8</ele>
        <time>2022-10-28T10:57:07Z</time>
      </trkpt>
      <trkpt lat="44.44001" lon="3.6142">
        <ele>1403</ele>
        <time>2022-10-28T10:57:08Z</time>
      </trkpt>
      <trkpt lat="44.44001" lon="3.61423">
        <ele>1403.2</ele>
        <time>2022-10-28T10:57:09Z</time>
      </trkpt>
      <trkpt lat="44.44002" lon="3.61425">
        <ele>1403.4</ele>
        <time>2022-10-28T10:57:10Z</time>
      </trkpt>
      <trkpt lat="44.44003" lon="3.61428">
        <ele>1403.4</ele>
        <time>2022-10-28T10:57:11Z</time>
      </trkpt>
      <trkpt lat="44.44004" lon="3.6143">
        <ele>1403.6</ele>
        <time>2022-10-28T10:57:12Z</time>
      </trkpt>
      <trkpt lat="44.44004" lon="3.61432">
        <ele>1403.8</ele>
        <time>2022-10-28T10:57:13Z</time>
      </trkpt>
      <trkpt lat="44.44005" lon="3.61434">
        <ele>1403.8</ele>
        <time>2022-10-28T10:57:14Z</time>
      </trkpt>
      <trkpt lat="44.44006" lon="3.61435">
        <ele>1404</ele>
        <time>2022-10-28T10:57:15Z</time>
      </trkpt>
      <trkpt lat="44.44007" lon="3.61437">
        <ele>1404.2</ele>
        <time>2022-10-28T10:57:16Z</time>
      </trkpt>
      <trkpt lat="44.44008" lon="3.61439">
        <ele>1404.4</ele>
        <time>2022-10-28T10:57:17Z</time>
      </trkpt>
      <trkpt lat="44.44009" lon="3.61441">
        <ele>1404.4</ele>
        <time>2022-10-28T10:57:18Z</time>
      </trkpt>
      <trkpt lat="44.44009" lon="3.61443">
        <ele>1404.6</ele>
        <time>2022-10-28T10:57:19Z</time>
      </trkpt>
      <trkpt lat="44.4401" lon="3.61446">
        <ele>1404.8</ele>
        <time>2022-10-28T10:57:20Z</time>
      </trkpt>
      <trkpt lat="44.44011" lon="3.61448">
        <ele>1404.8</ele>
        <time>2022-10-28T10:57:21Z</time>
      </trkpt>
      <trkpt lat="44.44012" lon="3.6145">
        <ele>1405</ele>
        <time>2022-10-28T10:57:22Z</time>
      </trkpt>
      <trkpt lat="44.44013" lon="3.61452">
        <ele>1405</ele>
        <time>2022-10-28T10:57:23Z</time>
      </trkpt>
      <trkpt lat="44.44015" lon="3.61454">
        <ele>1405.2</ele>
        <time>2022-10-28T10:57:24Z</time>
      </trkpt>
      <trkpt lat="44.44016" lon="3.61456">
        <ele>1405.2</ele>
        <time>2022-10-28T10:57:25Z</time>
      </trkpt>
      <trkpt lat="44.44018" lon="3.61457">
        <ele>1405.4</ele>
        <time>2022-10-28T10:57:26Z</time>
      </trkpt>
      <trkpt lat="44.44019" lon="3.61459">
        <ele>1405.4</ele>
        <time>2022-10-28T10:57:27Z</time>
      </trkpt>
      <trkpt lat="44.4402" lon="3.61462">
        <ele>1405.4</ele>
        <time>2022-10-28T10:57:28Z</time>
      </trkpt>
      <trkpt lat="44.4402" lon="3.61464">
        <ele>1405.6</ele>
        <time>2022-10-28T10:57:29Z</time>
      </trkpt>
      <trkpt lat="44.44021" lon="3.61467">
        <ele>1405.6</ele>
        <time>2022-10-28T10:57:30Z</time>
      </trkpt>
      <trkpt lat="44.44022" lon="3.61469">
        <ele>1405.8</ele>
        <time>2022-10-28T10:57:31Z</time>
      </trkpt>
      <trkpt lat="44.44023" lon="3.61471">
        <ele>1405.8</ele>
        <time>2022-10-28T10:57:32Z</time>
      </trkpt>
      <trkpt lat="44.44024" lon="3.61473">
        <ele>1406</ele>
        <time>2022-10-28T10:57:33Z</time>
      </trkpt>
      <trkpt lat="44.44025" lon="3.61475">
        <ele>1406</ele>
        <time>2022-10-28T10:57:34Z</time>
      </trkpt>
      <trkpt lat="44.44027" lon="3.61477">
        <ele>1406</ele>
        <time>2022-10-28T10:57:35Z</time>
      </trkpt>
      <trkpt lat="44.44027" lon="3.61479">
        <ele>1406.2</ele>
        <time>2022-10-28T10:57:36Z</time>
      </trkpt>
      <trkpt lat="44.44029" lon="3.61482">
        <ele>1406.2</ele>
        <time>2022-10-28T10:57:37Z</time>
      </trkpt>
      <trkpt lat="44.4403" lon="3.61484">
        <ele>1406.2</ele>
        <time>2022-10-28T10:57:38Z</time>
      </trkpt>
      <trkpt lat="44.44031" lon="3.61485">
        <ele>1406.4</ele>
        <time>2022-10-28T10:57:39Z</time>
      </trkpt>
      <trkpt lat="44.44032" lon="3.61486">
        <ele>1406.4</ele>
        <time>2022-10-28T10:57:40Z</time>
      </trkpt>
      <trkpt lat="44.44034" lon="3.61488">
        <ele>1406.4</ele>
        <time>2022-10-28T10:57:41Z</time>
      </trkpt>
      <trkpt lat="44.44035" lon="3.61489">
        <ele>1406.4</ele>
        <time>2022-10-28T10:57:42Z</time>
      </trkpt>
      <trkpt lat="44.44036" lon="3.61491">
        <ele>1406.4</ele>
        <time>2022-10-28T10:57:43Z</time>
      </trkpt>
      <trkpt lat="44.44036" lon="3.61494">
        <ele>1406.6</ele>
        <time>2022-10-28T10:57:44Z</time>
      </trkpt>
      <trkpt lat="44.44037" lon="3.61496">
        <ele>1406.6</ele>
        <time>2022-10-28T10:57:45Z</time>
      </trkpt>
      <trkpt lat="44.44039" lon="3.61498">
        <ele>1406.6</ele>
        <time>2022-10-28T10:57:46Z</time>
      </trkpt>
      <trkpt lat="44.4404" lon="3.61501">
        <ele>1406.6</ele>
        <time>2022-10-28T10:57:47Z</time>
      </trkpt>
      <trkpt lat="44.44041" lon="3.61503">
        <ele>1406.6</ele>
        <time>2022-10-28T10:57:48Z</time>
      </trkpt>
      <trkpt lat="44.44042" lon="3.61505">
        <ele>1406.8</ele>
        <time>2022-10-28T10:57:49Z</time>
      </trkpt>
      <trkpt lat="44.44044" lon="3.61507">
        <ele>1406.8</ele>
        <time>2022-10-28T10:57:50Z</time>
      </trkpt>
      <trkpt lat="44.44045" lon="3.61509">
        <ele>1406.8</ele>
        <time>2022-10-28T10:57:51Z</time>
      </trkpt>
      <trkpt lat="44.44047" lon="3.61511">
        <ele>1406.8</ele>
        <time>2022-10-28T10:57:52Z</time>
      </trkpt>
      <trkpt lat="44.44048" lon="3.61513">
        <ele>1406.8</ele>
        <time>2022-10-28T10:57:53Z</time>
      </trkpt>
      <trkpt lat="44.44049" lon="3.61515">
        <ele>1406.8</ele>
        <time>2022-10-28T10:57:54Z</time>
      </trkpt>
      <trkpt lat="44.44051" lon="3.61517">
        <ele>1406.8</ele>
        <time>2022-10-28T10:57:55Z</time>
      </trkpt>
      <trkpt lat="44.44052" lon="3.61518">
        <ele>1406.8</ele>
        <time>2022-10-28T10:57:56Z</time>
      </trkpt>
      <trkpt lat="44.44053" lon="3.61519">
        <ele>1406.8</ele>
        <time>2022-10-28T10:57:57Z</time>
      </trkpt>
      <trkpt lat="44.44053" lon="3.61519">
        <ele>1406.8</ele>
        <time>2022-10-28T10:57:58Z</time>
      </trkpt>
      <trkpt lat="44.44053" lon="3.61519">
        <ele>1406.8</ele>
        <time>2022-10-28T10:57:59Z</time>
      </trkpt>
      <trkpt lat="44.44053" lon="3.61519">
        <ele>1406.8</ele>
        <time>2022-10-28T10:58:00Z</time>
      </trkpt>
      <trkpt lat="44.44053" lon="3.61519">
        <ele>1406.8</ele>
        <time>2022-10-28T10:58:01Z</time>
      </trkpt>
      <trkpt lat="44.44053" lon="3.6152">
        <ele>1406.8</ele>
        <time>2022-10-28T10:58:02Z</time>
      </trkpt>
      <trkpt lat="44.44054" lon="3.61521">
        <ele>1407</ele>
        <time>2022-10-28T10:58:03Z</time>
      </trkpt>
      <trkpt lat="44.44055" lon="3.61522">
        <ele>1407</ele>
        <time>2022-10-28T10:58:04Z</time>
      </trkpt>
      <trkpt lat="44.44056" lon="3.61523">
        <ele>1407</ele>
        <time>2022-10-28T10:58:05Z</time>
      </trkpt>
      <trkpt lat="44.44057" lon="3.61525">
        <ele>1407</ele>
        <time>2022-10-28T10:58:06Z</time>
      </trkpt>
      <trkpt lat="44.44058" lon="3.61527">
        <ele>1407</ele>
        <time>2022-10-28T10:58:07Z</time>
      </trkpt>
      <trkpt lat="44.44058" lon="3.61528">
        <ele>1407</ele>
        <time>2022-10-28T10:58:08Z</time>
      </trkpt>
      <trkpt lat="44.44059" lon="3.61529">
        <ele>1407</ele>
        <time>2022-10-28T10:58:09Z</time>
      </trkpt>
      <trkpt lat="44.44059" lon="3.61531">
        <ele>1407</ele>
        <time>2022-10-28T10:58:10Z</time>
      </trkpt>
      <trkpt lat="44.4406" lon="3.61532">
        <ele>1407</ele>
        <time>2022-10-28T10:58:11Z</time>
      </trkpt>
      <trkpt lat="44.44061" lon="3.61534">
        <ele>1407</ele>
        <time>2022-10-28T10:58:12Z</time>
      </trkpt>
      <trkpt lat="44.44062" lon="3.61536">
        <ele>1407</ele>
        <time>2022-10-28T10:58:13Z</time>
      </trkpt>
      <trkpt lat="44.44063" lon="3.61538">
        <ele>1406.8</ele>
        <time>2022-10-28T10:58:14Z</time>
      </trkpt>
      <trkpt lat="44.44064" lon="3.6154">
        <ele>1406.8</ele>
        <time>2022-10-28T10:58:15Z</time>
      </trkpt>
      <trkpt lat="44.44064" lon="3.61542">
        <ele>1406.8</ele>
        <time>2022-10-28T10:58:16Z</time>
      </trkpt>
      <trkpt lat="44.44065" lon="3.61545">
        <ele>1406.6</ele>
        <time>2022-10-28T10:58:17Z</time>
      </trkpt>
      <trkpt lat="44.44066" lon="3.61549">
        <ele>1406.6</ele>
        <time>2022-10-28T10:58:18Z</time>
      </trkpt>
      <trkpt lat="44.44067" lon="3.61553">
        <ele>1406.6</ele>
        <time>2022-10-28T10:58:19Z</time>
      </trkpt>
      <trkpt lat="44.44069" lon="3.61557">
        <ele>1406.4</ele>
        <time>2022-10-28T10:58:20Z</time>
      </trkpt>
      <trkpt lat="44.44071" lon="3.6156">
        <ele>1406.4</ele>
        <time>2022-10-28T10:58:21Z</time>
      </trkpt>
      <trkpt lat="44.44073" lon="3.61564">
        <ele>1406.2</ele>
        <time>2022-10-28T10:58:22Z</time>
      </trkpt>
      <trkpt lat="44.44075" lon="3.61568">
        <ele>1406.2</ele>
        <time>2022-10-28T10:58:23Z</time>
      </trkpt>
      <trkpt lat="44.44078" lon="3.61572">
        <ele>1406</ele>
        <time>2022-10-28T10:58:24Z</time>
      </trkpt>
      <trkpt lat="44.4408" lon="3.61576">
        <ele>1406</ele>
        <time>2022-10-28T10:58:25Z</time>
      </trkpt>
      <trkpt lat="44.44082" lon="3.6158">
        <ele>1405.8</ele>
        <time>2022-10-28T10:58:26Z</time>
      </trkpt>
      <trkpt lat="44.44084" lon="3.61583">
        <ele>1405.8</ele>
        <time>2022-10-28T10:58:27Z</time>
      </trkpt>
      <trkpt lat="44.44086" lon="3.61586">
        <ele>1405.6</ele>
        <time>2022-10-28T10:58:28Z</time>
      </trkpt>
      <trkpt lat="44.44088" lon="3.61589">
        <ele>1405.4</ele>
        <time>2022-10-28T10:58:29Z</time>
      </trkpt>
      <trkpt lat="44.4409" lon="3.61593">
        <ele>1405.2</ele>
        <time>2022-10-28T10:58:30Z</time>
      </trkpt>
      <trkpt lat="44.44092" lon="3.61596">
        <ele>1405.2</ele>
        <time>2022-10-28T10:58:31Z</time>
      </trkpt>
      <trkpt lat="44.44094" lon="3.616">
        <ele>1405.2</ele>
        <time>2022-10-28T10:58:32Z</time>
      </trkpt>
      <trkpt lat="44.44095" lon="3.61603">
        <ele>1405.2</ele>
        <time>2022-10-28T10:58:33Z</time>
      </trkpt>
      <trkpt lat="44.44096" lon="3.61606">
        <ele>1405.2</ele>
        <time>2022-10-28T10:58:34Z</time>
      </trkpt>
      <trkpt lat="44.44098" lon="3.61608">
        <ele>1405.2</ele>
        <time>2022-10-28T10:58:35Z</time>
      </trkpt>
      <trkpt lat="44.44099" lon="3.6161">
        <ele>1405.4</ele>
        <time>2022-10-28T10:58:36Z</time>
      </trkpt>
      <trkpt lat="44.441" lon="3.61612">
        <ele>1405.4</ele>
        <time>2022-10-28T10:58:37Z</time>
      </trkpt>
      <trkpt lat="44.44101" lon="3.61615">
        <ele>1405.4</ele>
        <time>2022-10-28T10:58:38Z</time>
      </trkpt>
      <trkpt lat="44.44102" lon="3.61617">
        <ele>1405.6</ele>
        <time>2022-10-28T10:58:39Z</time>
      </trkpt>
      <trkpt lat="44.44103" lon="3.61619">
        <ele>1405.6</ele>
        <time>2022-10-28T10:58:40Z</time>
      </trkpt>
      <trkpt lat="44.44104" lon="3.61621">
        <ele>1405.6</ele>
        <time>2022-10-28T10:58:41Z</time>
      </trkpt>
      <trkpt lat="44.44105" lon="3.61624">
        <ele>1405.6</ele>
        <time>2022-10-28T10:58:42Z</time>
      </trkpt>
      <trkpt lat="44.44106" lon="3.61627">
        <ele>1405.8</ele>
        <time>2022-10-28T10:58:43Z</time>
      </trkpt>
      <trkpt lat="44.44108" lon="3.61629">
        <ele>1405.8</ele>
        <time>2022-10-28T10:58:44Z</time>
      </trkpt>
      <trkpt lat="44.44109" lon="3.61632">
        <ele>1405.8</ele>
        <time>2022-10-28T10:58:45Z</time>
      </trkpt>
      <trkpt lat="44.44111" lon="3.61635">
        <ele>1406</ele>
        <time>2022-10-28T10:58:46Z</time>
      </trkpt>
      <trkpt lat="44.44112" lon="3.61637">
        <ele>1406</ele>
        <time>2022-10-28T10:58:47Z</time>
      </trkpt>
      <trkpt lat="44.44114" lon="3.6164">
        <ele>1406</ele>
        <time>2022-10-28T10:58:48Z</time>
      </trkpt>
      <trkpt lat="44.44115" lon="3.61643">
        <ele>1406.2</ele>
        <time>2022-10-28T10:58:49Z</time>
      </trkpt>
      <trkpt lat="44.44116" lon="3.61645">
        <ele>1406.2</ele>
        <time>2022-10-28T10:58:50Z</time>
      </trkpt>
      <trkpt lat="44.44118" lon="3.61648">
        <ele>1406.2</ele>
        <time>2022-10-28T10:58:51Z</time>
      </trkpt>
      <trkpt lat="44.44119" lon="3.6165">
        <ele>1406.2</ele>
        <time>2022-10-28T10:58:52Z</time>
      </trkpt>
      <trkpt lat="44.4412" lon="3.61653">
        <ele>1406.4</ele>
        <time>2022-10-28T10:58:53Z</time>
      </trkpt>
      <trkpt lat="44.44122" lon="3.61655">
        <ele>1406.4</ele>
        <time>2022-10-28T10:58:54Z</time>
      </trkpt>
      <trkpt lat="44.44123" lon="3.61658">
        <ele>1406.4</ele>
        <time>2022-10-28T10:58:55Z</time>
      </trkpt>
      <trkpt lat="44.44124" lon="3.61661">
        <ele>1406.4</ele>
        <time>2022-10-28T10:58:56Z</time>
      </trkpt>
      <trkpt lat="44.44125" lon="3.61664">
        <ele>1406.4</ele>
        <time>2022-10-28T10:58:57Z</time>
      </trkpt>
      <trkpt lat="44.44126" lon="3.61667">
        <ele>1406.6</ele>
        <time>2022-10-28T10:58:58Z</time>
      </trkpt>
      <trkpt lat="44.44127" lon="3.6167">
        <ele>1406.6</ele>
        <time>2022-10-28T10:58:59Z</time>
      </trkpt>
      <trkpt lat="44.44128" lon="3.61673">
        <ele>1406.8</ele>
        <time>2022-10-28T10:59:00Z</time>
      </trkpt>
      <trkpt lat="44.44129" lon="3.61676">
        <ele>1407</ele>
        <time>2022-10-28T10:59:01Z</time>
      </trkpt>
      <trkpt lat="44.4413" lon="3.61679">
        <ele>1407.2</ele>
        <time>2022-10-28T10:59:02Z</time>
      </trkpt>
      <trkpt lat="44.4413" lon="3.61682">
        <ele>1407.4</ele>
        <time>2022-10-28T10:59:03Z</time>
      </trkpt>
      <trkpt lat="44.44131" lon="3.61684">
        <ele>1407.6</ele>
        <time>2022-10-28T10:59:04Z</time>
      </trkpt>
      <trkpt lat="44.44131" lon="3.61687">
        <ele>1407.8</ele>
        <time>2022-10-28T10:59:05Z</time>
      </trkpt>
      <trkpt lat="44.44132" lon="3.61689">
        <ele>1408</ele>
        <time>2022-10-28T10:59:06Z</time>
      </trkpt>
      <trkpt lat="44.44133" lon="3.61691">
        <ele>1408.2</ele>
        <time>2022-10-28T10:59:07Z</time>
      </trkpt>
      <trkpt lat="44.44134" lon="3.61693">
        <ele>1408.4</ele>
        <time>2022-10-28T10:59:08Z</time>
      </trkpt>
      <trkpt lat="44.44136" lon="3.61694">
        <ele>1408.8</ele>
        <time>2022-10-28T10:59:09Z</time>
      </trkpt>
      <trkpt lat="44.44137" lon="3.61695">
        <ele>1409</ele>
        <time>2022-10-28T10:59:10Z</time>
      </trkpt>
      <trkpt lat="44.44137" lon="3.61697">
        <ele>1409.4</ele>
        <time>2022-10-28T10:59:11Z</time>
      </trkpt>
      <trkpt lat="44.44138" lon="3.61699">
        <ele>1409.6</ele>
        <time>2022-10-28T10:59:12Z</time>
      </trkpt>
      <trkpt lat="44.44139" lon="3.61701">
        <ele>1409.8</ele>
        <time>2022-10-28T10:59:13Z</time>
      </trkpt>
      <trkpt lat="44.44139" lon="3.61703">
        <ele>1410.2</ele>
        <time>2022-10-28T10:59:14Z</time>
      </trkpt>
      <trkpt lat="44.4414" lon="3.61705">
        <ele>1410.4</ele>
        <time>2022-10-28T10:59:15Z</time>
      </trkpt>
      <trkpt lat="44.44141" lon="3.61707">
        <ele>1410.6</ele>
        <time>2022-10-28T10:59:16Z</time>
      </trkpt>
      <trkpt lat="44.44142" lon="3.6171">
        <ele>1410.8</ele>
        <time>2022-10-28T10:59:17Z</time>
      </trkpt>
      <trkpt lat="44.44143" lon="3.61713">
        <ele>1411</ele>
        <time>2022-10-28T10:59:18Z</time>
      </trkpt>
      <trkpt lat="44.44144" lon="3.61716">
        <ele>1411.2</ele>
        <time>2022-10-28T10:59:19Z</time>
      </trkpt>
      <trkpt lat="44.44144" lon="3.61718">
        <ele>1411.4</ele>
        <time>2022-10-28T10:59:20Z</time>
      </trkpt>
      <trkpt lat="44.44145" lon="3.6172">
        <ele>1411.6</ele>
        <time>2022-10-28T10:59:21Z</time>
      </trkpt>
      <trkpt lat="44.44146" lon="3.61722">
        <ele>1411.8</ele>
        <time>2022-10-28T10:59:22Z</time>
      </trkpt>
      <trkpt lat="44.44148" lon="3.61724">
        <ele>1411.8</ele>
        <time>2022-10-28T10:59:23Z</time>
      </trkpt>
      <trkpt lat="44.4415" lon="3.61726">
        <ele>1412</ele>
        <time>2022-10-28T10:59:24Z</time>
      </trkpt>
      <trkpt lat="44.44151" lon="3.61728">
        <ele>1412.2</ele>
        <time>2022-10-28T10:59:25Z</time>
      </trkpt>
      <trkpt lat="44.44153" lon="3.6173">
        <ele>1412.4</ele>
        <time>2022-10-28T10:59:26Z</time>
      </trkpt>
      <trkpt lat="44.44154" lon="3.61731">
        <ele>1412.4</ele>
        <time>2022-10-28T10:59:27Z</time>
      </trkpt>
      <trkpt lat="44.44156" lon="3.61733">
        <ele>1412.6</ele>
        <time>2022-10-28T10:59:28Z</time>
      </trkpt>
      <trkpt lat="44.44157" lon="3.61735">
        <ele>1412.8</ele>
        <time>2022-10-28T10:59:29Z</time>
      </trkpt>
      <trkpt lat="44.44159" lon="3.61738">
        <ele>1413</ele>
        <time>2022-10-28T10:59:30Z</time>
      </trkpt>
      <trkpt lat="44.4416" lon="3.6174">
        <ele>1413</ele>
        <time>2022-10-28T10:59:31Z</time>
      </trkpt>
      <trkpt lat="44.4416" lon="3.61742">
        <ele>1413.2</ele>
        <time>2022-10-28T10:59:32Z</time>
      </trkpt>
      <trkpt lat="44.44161" lon="3.61745">
        <ele>1413.2</ele>
        <time>2022-10-28T10:59:33Z</time>
      </trkpt>
      <trkpt lat="44.44163" lon="3.61747">
        <ele>1413.4</ele>
        <time>2022-10-28T10:59:34Z</time>
      </trkpt>
      <trkpt lat="44.44164" lon="3.61749">
        <ele>1413.4</ele>
        <time>2022-10-28T10:59:35Z</time>
      </trkpt>
      <trkpt lat="44.44165" lon="3.61752">
        <ele>1413.6</ele>
        <time>2022-10-28T10:59:36Z</time>
      </trkpt>
      <trkpt lat="44.44166" lon="3.61754">
        <ele>1413.8</ele>
        <time>2022-10-28T10:59:37Z</time>
      </trkpt>
      <trkpt lat="44.44167" lon="3.61757">
        <ele>1413.8</ele>
        <time>2022-10-28T10:59:38Z</time>
      </trkpt>
      <trkpt lat="44.44168" lon="3.61759">
        <ele>1414</ele>
        <time>2022-10-28T10:59:39Z</time>
      </trkpt>
      <trkpt lat="44.44169" lon="3.61762">
        <ele>1414.2</ele>
        <time>2022-10-28T10:59:40Z</time>
      </trkpt>
      <trkpt lat="44.44169" lon="3.61765">
        <ele>1414.2</ele>
        <time>2022-10-28T10:59:41Z</time>
      </trkpt>
      <trkpt lat="44.4417" lon="3.61767">
        <ele>1414.4</ele>
        <time>2022-10-28T10:59:42Z</time>
      </trkpt>
      <trkpt lat="44.4417" lon="3.6177">
        <ele>1414.6</ele>
        <time>2022-10-28T10:59:43Z</time>
      </trkpt>
      <trkpt lat="44.44171" lon="3.61772">
        <ele>1414.6</ele>
        <time>2022-10-28T10:59:44Z</time>
      </trkpt>
      <trkpt lat="44.44172" lon="3.61774">
        <ele>1414.8</ele>
        <time>2022-10-28T10:59:45Z</time>
      </trkpt>
      <trkpt lat="44.44172" lon="3.61776">
        <ele>1415</ele>
        <time>2022-10-28T10:59:46Z</time>
      </trkpt>
      <trkpt lat="44.44172" lon="3.61778">
        <ele>1415.2</ele>
        <time>2022-10-28T10:59:47Z</time>
      </trkpt>
      <trkpt lat="44.44173" lon="3.6178">
        <ele>1415.6</ele>
        <time>2022-10-28T10:59:48Z</time>
      </trkpt>
      <trkpt lat="44.44174" lon="3.61782">
        <ele>1415.8</ele>
        <time>2022-10-28T10:59:49Z</time>
      </trkpt>
      <trkpt lat="44.44174" lon="3.61784">
        <ele>1416</ele>
        <time>2022-10-28T10:59:50Z</time>
      </trkpt>
      <trkpt lat="44.44175" lon="3.61786">
        <ele>1416.4</ele>
        <time>2022-10-28T10:59:51Z</time>
      </trkpt>
      <trkpt lat="44.44176" lon="3.61788">
        <ele>1416.6</ele>
        <time>2022-10-28T10:59:52Z</time>
      </trkpt>
      <trkpt lat="44.44177" lon="3.6179">
        <ele>1417</ele>
        <time>2022-10-28T10:59:53Z</time>
      </trkpt>
      <trkpt lat="44.44178" lon="3.61792">
        <ele>1417.2</ele>
        <time>2022-10-28T10:59:54Z</time>
      </trkpt>
      <trkpt lat="44.44179" lon="3.61794">
        <ele>1417.4</ele>
        <time>2022-10-28T10:59:55Z</time>
      </trkpt>
      <trkpt lat="44.44179" lon="3.61796">
        <ele>1417.6</ele>
        <time>2022-10-28T10:59:56Z</time>
      </trkpt>
      <trkpt lat="44.4418" lon="3.61798">
        <ele>1417.8</ele>
        <time>2022-10-28T10:59:57Z</time>
      </trkpt>
      <trkpt lat="44.44182" lon="3.618">
        <ele>1418</ele>
        <time>2022-10-28T10:59:58Z</time>
      </trkpt>
      <trkpt lat="44.44183" lon="3.61802">
        <ele>1418.2</ele>
        <time>2022-10-28T10:59:59Z</time>
      </trkpt>
      <trkpt lat="44.44184" lon="3.61804">
        <ele>1418.4</ele>
        <time>2022-10-28T11:00:00Z</time>
      </trkpt>
      <trkpt lat="44.44185" lon="3.61806">
        <ele>1418.6</ele>
        <time>2022-10-28T11:00:01Z</time>
      </trkpt>
      <trkpt lat="44.44186" lon="3.61807">
        <ele>1418.8</ele>
        <time>2022-10-28T11:00:02Z</time>
      </trkpt>
      <trkpt lat="44.44188" lon="3.61809">
        <ele>1418.8</ele>
        <time>2022-10-28T11:00:03Z</time>
      </trkpt>
      <trkpt lat="44.44189" lon="3.61811">
        <ele>1419</ele>
        <time>2022-10-28T11:00:04Z</time>
      </trkpt>
      <trkpt lat="44.4419" lon="3.61813">
        <ele>1419.2</ele>
        <time>2022-10-28T11:00:05Z</time>
      </trkpt>
      <trkpt lat="44.44192" lon="3.61815">
        <ele>1419.4</ele>
        <time>2022-10-28T11:00:06Z</time>
      </trkpt>
      <trkpt lat="44.44193" lon="3.61816">
        <ele>1419.6</ele>
        <time>2022-10-28T11:00:07Z</time>
      </trkpt>
      <trkpt lat="44.44195" lon="3.61817">
        <ele>1419.6</ele>
        <time>2022-10-28T11:00:08Z</time>
      </trkpt>
      <trkpt lat="44.44196" lon="3.61819">
        <ele>1419.8</ele>
        <time>2022-10-28T11:00:09Z</time>
      </trkpt>
      <trkpt lat="44.44197" lon="3.6182">
        <ele>1420</ele>
        <time>2022-10-28T11:00:10Z</time>
      </trkpt>
      <trkpt lat="44.44199" lon="3.61821">
        <ele>1420.2</ele>
        <time>2022-10-28T11:00:11Z</time>
      </trkpt>
      <trkpt lat="44.442" lon="3.61822">
        <ele>1420.4</ele>
        <time>2022-10-28T11:00:12Z</time>
      </trkpt>
      <trkpt lat="44.44201" lon="3.61824">
        <ele>1420.6</ele>
        <time>2022-10-28T11:00:13Z</time>
      </trkpt>
      <trkpt lat="44.44203" lon="3.61825">
        <ele>1420.8</ele>
        <time>2022-10-28T11:00:14Z</time>
      </trkpt>
      <trkpt lat="44.44204" lon="3.61827">
        <ele>1421</ele>
        <time>2022-10-28T11:00:15Z</time>
      </trkpt>
      <trkpt lat="44.44205" lon="3.61829">
        <ele>1421</ele>
        <time>2022-10-28T11:00:16Z</time>
      </trkpt>
      <trkpt lat="44.44206" lon="3.61831">
        <ele>1421.2</ele>
        <time>2022-10-28T11:00:17Z</time>
      </trkpt>
      <trkpt lat="44.44207" lon="3.61833">
        <ele>1421.2</ele>
        <time>2022-10-28T11:00:18Z</time>
      </trkpt>
      <trkpt lat="44.44208" lon="3.61835">
        <ele>1421.4</ele>
        <time>2022-10-28T11:00:19Z</time>
      </trkpt>
      <trkpt lat="44.44209" lon="3.61837">
        <ele>1421.4</ele>
        <time>2022-10-28T11:00:20Z</time>
      </trkpt>
      <trkpt lat="44.44209" lon="3.6184">
        <ele>1421.6</ele>
        <time>2022-10-28T11:00:21Z</time>
      </trkpt>
      <trkpt lat="44.4421" lon="3.61843">
        <ele>1421.6</ele>
        <time>2022-10-28T11:00:22Z</time>
      </trkpt>
      <trkpt lat="44.4421" lon="3.61845">
        <ele>1421.8</ele>
        <time>2022-10-28T11:00:23Z</time>
      </trkpt>
      <trkpt lat="44.4421" lon="3.61848">
        <ele>1421.8</ele>
        <time>2022-10-28T11:00:24Z</time>
      </trkpt>
      <trkpt lat="44.44209" lon="3.6185">
        <ele>1422</ele>
        <time>2022-10-28T11:00:25Z</time>
      </trkpt>
      <trkpt lat="44.44209" lon="3.61852">
        <ele>1422</ele>
        <time>2022-10-28T11:00:26Z</time>
      </trkpt>
      <trkpt lat="44.44209" lon="3.61855">
        <ele>1422.2</ele>
        <time>2022-10-28T11:00:27Z</time>
      </trkpt>
      <trkpt lat="44.4421" lon="3.61858">
        <ele>1422.2</ele>
        <time>2022-10-28T11:00:28Z</time>
      </trkpt>
      <trkpt lat="44.4421" lon="3.6186">
        <ele>1422.4</ele>
        <time>2022-10-28T11:00:29Z</time>
      </trkpt>
      <trkpt lat="44.44211" lon="3.61862">
        <ele>1422.6</ele>
        <time>2022-10-28T11:00:30Z</time>
      </trkpt>
      <trkpt lat="44.44212" lon="3.61865">
        <ele>1422.8</ele>
        <time>2022-10-28T11:00:31Z</time>
      </trkpt>
      <trkpt lat="44.44213" lon="3.61867">
        <ele>1422.8</ele>
        <time>2022-10-28T11:00:32Z</time>
      </trkpt>
      <trkpt lat="44.44214" lon="3.61869">
        <ele>1423</ele>
        <time>2022-10-28T11:00:33Z</time>
      </trkpt>
      <trkpt lat="44.44215" lon="3.61871">
        <ele>1423.2</ele>
        <time>2022-10-28T11:00:34Z</time>
      </trkpt>
      <trkpt lat="44.44217" lon="3.61873">
        <ele>1423.2</ele>
        <time>2022-10-28T11:00:35Z</time>
      </trkpt>
      <trkpt lat="44.44218" lon="3.61874">
        <ele>1423.4</ele>
        <time>2022-10-28T11:00:36Z</time>
      </trkpt>
      <trkpt lat="44.44219" lon="3.61876">
        <ele>1423.4</ele>
        <time>2022-10-28T11:00:37Z</time>
      </trkpt>
      <trkpt lat="44.44221" lon="3.61878">
        <ele>1423.6</ele>
        <time>2022-10-28T11:00:38Z</time>
      </trkpt>
      <trkpt lat="44.44222" lon="3.61879">
        <ele>1423.8</ele>
        <time>2022-10-28T11:00:39Z</time>
      </trkpt>
      <trkpt lat="44.44223" lon="3.61881">
        <ele>1423.8</ele>
        <time>2022-10-28T11:00:40Z</time>
      </trkpt>
      <trkpt lat="44.44224" lon="3.61883">
        <ele>1424</ele>
        <time>2022-10-28T11:00:41Z</time>
      </trkpt>
      <trkpt lat="44.44225" lon="3.61885">
        <ele>1424.2</ele>
        <time>2022-10-28T11:00:42Z</time>
      </trkpt>
      <trkpt lat="44.44226" lon="3.61886">
        <ele>1424.2</ele>
        <time>2022-10-28T11:00:43Z</time>
      </trkpt>
      <trkpt lat="44.44227" lon="3.61888">
        <ele>1424.4</ele>
        <time>2022-10-28T11:00:44Z</time>
      </trkpt>
      <trkpt lat="44.44227" lon="3.6189">
        <ele>1424.6</ele>
        <time>2022-10-28T11:00:45Z</time>
      </trkpt>
      <trkpt lat="44.44228" lon="3.61892">
        <ele>1424.8</ele>
        <time>2022-10-28T11:00:46Z</time>
      </trkpt>
      <trkpt lat="44.44229" lon="3.61894">
        <ele>1424.8</ele>
        <time>2022-10-28T11:00:47Z</time>
      </trkpt>
      <trkpt lat="44.4423" lon="3.61896">
        <ele>1425</ele>
        <time>2022-10-28T11:00:48Z</time>
      </trkpt>
      <trkpt lat="44.44231" lon="3.61898">
        <ele>1425.2</ele>
        <time>2022-10-28T11:00:49Z</time>
      </trkpt>
      <trkpt lat="44.44232" lon="3.619">
        <ele>1425.4</ele>
        <time>2022-10-28T11:00:50Z</time>
      </trkpt>
      <trkpt lat="44.44233" lon="3.61902">
        <ele>1425.4</ele>
        <time>2022-10-28T11:00:51Z</time>
      </trkpt>
      <trkpt lat="44.44234" lon="3.61904">
        <ele>1425.6</ele>
        <time>2022-10-28T11:00:52Z</time>
      </trkpt>
      <trkpt lat="44.44236" lon="3.61906">
        <ele>1425.8</ele>
        <time>2022-10-28T11:00:53Z</time>
      </trkpt>
      <trkpt lat="44.44237" lon="3.61908">
        <ele>1425.8</ele>
        <time>2022-10-28T11:00:54Z</time>
      </trkpt>
      <trkpt lat="44.44238" lon="3.61909">
        <ele>1426</ele>
        <time>2022-10-28T11:00:55Z</time>
      </trkpt>
      <trkpt lat="44.4424" lon="3.61911">
        <ele>1426.2</ele>
        <time>2022-10-28T11:00:56Z</time>
      </trkpt>
      <trkpt lat="44.44241" lon="3.61913">
        <ele>1426.4</ele>
        <time>2022-10-28T11:00:57Z</time>
      </trkpt>
      <trkpt lat="44.44242" lon="3.61915">
        <ele>1426.6</ele>
        <time>2022-10-28T11:00:58Z</time>
      </trkpt>
      <trkpt lat="44.44243" lon="3.61916">
        <ele>1426.8</ele>
        <time>2022-10-28T11:00:59Z</time>
      </trkpt>
      <trkpt lat="44.44245" lon="3.61918">
        <ele>1427</ele>
        <time>2022-10-28T11:01:00Z</time>
      </trkpt>
      <trkpt lat="44.44246" lon="3.6192">
        <ele>1427</ele>
        <time>2022-10-28T11:01:01Z</time>
      </trkpt>
      <trkpt lat="44.44247" lon="3.61921">
        <ele>1427.2</ele>
        <time>2022-10-28T11:01:02Z</time>
      </trkpt>
      <trkpt lat="44.44249" lon="3.61923">
        <ele>1427.4</ele>
        <time>2022-10-28T11:01:03Z</time>
      </trkpt>
      <trkpt lat="44.4425" lon="3.61925">
        <ele>1427.6</ele>
        <time>2022-10-28T11:01:04Z</time>
      </trkpt>
      <trkpt lat="44.44251" lon="3.61927">
        <ele>1427.8</ele>
        <time>2022-10-28T11:01:05Z</time>
      </trkpt>
      <trkpt lat="44.44252" lon="3.61929">
        <ele>1428</ele>
        <time>2022-10-28T11:01:06Z</time>
      </trkpt>
      <trkpt lat="44.44253" lon="3.61931">
        <ele>1428</ele>
        <time>2022-10-28T11:01:07Z</time>
      </trkpt>
      <trkpt lat="44.44254" lon="3.61933">
        <ele>1428.2</ele>
        <time>2022-10-28T11:01:08Z</time>
      </trkpt>
      <trkpt lat="44.44254" lon="3.61935">
        <ele>1428.4</ele>
        <time>2022-10-28T11:01:09Z</time>
      </trkpt>
      <trkpt lat="44.44256" lon="3.61937">
        <ele>1428.8</ele>
        <time>2022-10-28T11:01:10Z</time>
      </trkpt>
      <trkpt lat="44.44257" lon="3.61939">
        <ele>1429</ele>
        <time>2022-10-28T11:01:11Z</time>
      </trkpt>
      <trkpt lat="44.44258" lon="3.61941">
        <ele>1429.2</ele>
        <time>2022-10-28T11:01:12Z</time>
      </trkpt>
      <trkpt lat="44.44259" lon="3.61943">
        <ele>1429.6</ele>
        <time>2022-10-28T11:01:13Z</time>
      </trkpt>
      <trkpt lat="44.4426" lon="3.61945">
        <ele>1429.8</ele>
        <time>2022-10-28T11:01:14Z</time>
      </trkpt>
      <trkpt lat="44.44261" lon="3.61947">
        <ele>1430</ele>
        <time>2022-10-28T11:01:15Z</time>
      </trkpt>
      <trkpt lat="44.44262" lon="3.61949">
        <ele>1430.2</ele>
        <time>2022-10-28T11:01:16Z</time>
      </trkpt>
      <trkpt lat="44.44263" lon="3.61951">
        <ele>1430.4</ele>
        <time>2022-10-28T11:01:17Z</time>
      </trkpt>
      <trkpt lat="44.44264" lon="3.61953">
        <ele>1430.6</ele>
        <time>2022-10-28T11:01:18Z</time>
      </trkpt>
      <trkpt lat="44.44264" lon="3.61956">
        <ele>1430.6</ele>
        <time>2022-10-28T11:01:19Z</time>
      </trkpt>
      <trkpt lat="44.44266" lon="3.61958">
        <ele>1430.8</ele>
        <time>2022-10-28T11:01:20Z</time>
      </trkpt>
      <trkpt lat="44.44267" lon="3.61959">
        <ele>1430.8</ele>
        <time>2022-10-28T11:01:21Z</time>
      </trkpt>
      <trkpt lat="44.44268" lon="3.61961">
        <ele>1431</ele>
        <time>2022-10-28T11:01:22Z</time>
      </trkpt>
      <trkpt lat="44.44269" lon="3.61963">
        <ele>1431.2</ele>
        <time>2022-10-28T11:01:23Z</time>
      </trkpt>
      <trkpt lat="44.4427" lon="3.61965">
        <ele>1431.4</ele>
        <time>2022-10-28T11:01:24Z</time>
      </trkpt>
      <trkpt lat="44.44271" lon="3.61967">
        <ele>1431.6</ele>
        <time>2022-10-28T11:01:25Z</time>
      </trkpt>
      <trkpt lat="44.44271" lon="3.61969">
        <ele>1431.6</ele>
        <time>2022-10-28T11:01:26Z</time>
      </trkpt>
      <trkpt lat="44.44272" lon="3.61971">
        <ele>1431.8</ele>
        <time>2022-10-28T11:01:27Z</time>
      </trkpt>
      <trkpt lat="44.44273" lon="3.61974">
        <ele>1432</ele>
        <time>2022-10-28T11:01:28Z</time>
      </trkpt>
      <trkpt lat="44.44273" lon="3.61976">
        <ele>1432.2</ele>
        <time>2022-10-28T11:01:29Z</time>
      </trkpt>
      <trkpt lat="44.44274" lon="3.61979">
        <ele>1432.2</ele>
        <time>2022-10-28T11:01:30Z</time>
      </trkpt>
      <trkpt lat="44.44275" lon="3.61981">
        <ele>1432.4</ele>
        <time>2022-10-28T11:01:31Z</time>
      </trkpt>
      <trkpt lat="44.44276" lon="3.61983">
        <ele>1432.6</ele>
        <time>2022-10-28T11:01:32Z</time>
      </trkpt>
      <trkpt lat="44.44276" lon="3.61986">
        <ele>1432.8</ele>
        <time>2022-10-28T11:01:33Z</time>
      </trkpt>
      <trkpt lat="44.44277" lon="3.61989">
        <ele>1432.8</ele>
        <time>2022-10-28T11:01:34Z</time>
      </trkpt>
      <trkpt lat="44.44277" lon="3.61991">
        <ele>1433</ele>
        <time>2022-10-28T11:01:35Z</time>
      </trkpt>
      <trkpt lat="44.44278" lon="3.61994">
        <ele>1433.2</ele>
        <time>2022-10-28T11:01:36Z</time>
      </trkpt>
      <trkpt lat="44.44279" lon="3.61996">
        <ele>1433.4</ele>
        <time>2022-10-28T11:01:37Z</time>
      </trkpt>
      <trkpt lat="44.44279" lon="3.61998">
        <ele>1433.4</ele>
        <time>2022-10-28T11:01:38Z</time>
      </trkpt>
      <trkpt lat="44.4428" lon="3.62001">
        <ele>1433.6</ele>
        <time>2022-10-28T11:01:39Z</time>
      </trkpt>
      <trkpt lat="44.4428" lon="3.62003">
        <ele>1433.8</ele>
        <time>2022-10-28T11:01:40Z</time>
      </trkpt>
      <trkpt lat="44.4428" lon="3.62006">
        <ele>1433.8</ele>
        <time>2022-10-28T11:01:41Z</time>
      </trkpt>
      <trkpt lat="44.44281" lon="3.62008">
        <ele>1434</ele>
        <time>2022-10-28T11:01:42Z</time>
      </trkpt>
      <trkpt lat="44.44281" lon="3.62011">
        <ele>1434.2</ele>
        <time>2022-10-28T11:01:43Z</time>
      </trkpt>
      <trkpt lat="44.44282" lon="3.62013">
        <ele>1434.2</ele>
        <time>2022-10-28T11:01:44Z</time>
      </trkpt>
      <trkpt lat="44.44283" lon="3.62016">
        <ele>1434.4</ele>
        <time>2022-10-28T11:01:45Z</time>
      </trkpt>
      <trkpt lat="44.44284" lon="3.62018">
        <ele>1434.6</ele>
        <time>2022-10-28T11:01:46Z</time>
      </trkpt>
      <trkpt lat="44.44285" lon="3.6202">
        <ele>1434.6</ele>
        <time>2022-10-28T11:01:47Z</time>
      </trkpt>
      <trkpt lat="44.44286" lon="3.62023">
        <ele>1434.8</ele>
        <time>2022-10-28T11:01:48Z</time>
      </trkpt>
      <trkpt lat="44.44286" lon="3.62026">
        <ele>1435</ele>
        <time>2022-10-28T11:01:49Z</time>
      </trkpt>
      <trkpt lat="44.44287" lon="3.62028">
        <ele>1435</ele>
        <time>2022-10-28T11:01:50Z</time>
      </trkpt>
      <trkpt lat="44.44288" lon="3.62031">
        <ele>1435.2</ele>
        <time>2022-10-28T11:01:51Z</time>
      </trkpt>
      <trkpt lat="44.44289" lon="3.62034">
        <ele>1435.4</ele>
        <time>2022-10-28T11:01:52Z</time>
      </trkpt>
      <trkpt lat="44.44289" lon="3.62036">
        <ele>1435.6</ele>
        <time>2022-10-28T11:01:53Z</time>
      </trkpt>
      <trkpt lat="44.4429" lon="3.62039">
        <ele>1435.8</ele>
        <time>2022-10-28T11:01:54Z</time>
      </trkpt>
      <trkpt lat="44.44291" lon="3.62041">
        <ele>1435.8</ele>
        <time>2022-10-28T11:01:55Z</time>
      </trkpt>
      <trkpt lat="44.44292" lon="3.62043">
        <ele>1436</ele>
        <time>2022-10-28T11:01:56Z</time>
      </trkpt>
      <trkpt lat="44.44293" lon="3.62045">
        <ele>1436.2</ele>
        <time>2022-10-28T11:01:57Z</time>
      </trkpt>
      <trkpt lat="44.44295" lon="3.62047">
        <ele>1436.2</ele>
        <time>2022-10-28T11:01:58Z</time>
      </trkpt>
      <trkpt lat="44.44296" lon="3.62049">
        <ele>1436.4</ele>
        <time>2022-10-28T11:01:59Z</time>
      </trkpt>
      <trkpt lat="44.44298" lon="3.62051">
        <ele>1436.4</ele>
        <time>2022-10-28T11:02:00Z</time>
      </trkpt>
      <trkpt lat="44.44299" lon="3.62053">
        <ele>1436.6</ele>
        <time>2022-10-28T11:02:01Z</time>
      </trkpt>
      <trkpt lat="44.44301" lon="3.62055">
        <ele>1436.6</ele>
        <time>2022-10-28T11:02:02Z</time>
      </trkpt>
      <trkpt lat="44.44303" lon="3.62057">
        <ele>1436.8</ele>
        <time>2022-10-28T11:02:03Z</time>
      </trkpt>
      <trkpt lat="44.44305" lon="3.62059">
        <ele>1436.8</ele>
        <time>2022-10-28T11:02:04Z</time>
      </trkpt>
      <trkpt lat="44.44307" lon="3.62061">
        <ele>1437</ele>
        <time>2022-10-28T11:02:05Z</time>
      </trkpt>
      <trkpt lat="44.44309" lon="3.62063">
        <ele>1437</ele>
        <time>2022-10-28T11:02:06Z</time>
      </trkpt>
      <trkpt lat="44.44312" lon="3.62065">
        <ele>1437.2</ele>
        <time>2022-10-28T11:02:07Z</time>
      </trkpt>
      <trkpt lat="44.44314" lon="3.62066">
        <ele>1437.2</ele>
        <time>2022-10-28T11:02:08Z</time>
      </trkpt>
      <trkpt lat="44.44316" lon="3.62068">
        <ele>1437.2</ele>
        <time>2022-10-28T11:02:09Z</time>
      </trkpt>
      <trkpt lat="44.44318" lon="3.62071">
        <ele>1437.4</ele>
        <time>2022-10-28T11:02:10Z</time>
      </trkpt>
      <trkpt lat="44.4432" lon="3.62073">
        <ele>1437.4</ele>
        <time>2022-10-28T11:02:11Z</time>
      </trkpt>
      <trkpt lat="44.44322" lon="3.62074">
        <ele>1437.6</ele>
        <time>2022-10-28T11:02:12Z</time>
      </trkpt>
      <trkpt lat="44.44323" lon="3.62076">
        <ele>1437.6</ele>
        <time>2022-10-28T11:02:13Z</time>
      </trkpt>
      <trkpt lat="44.44325" lon="3.62079">
        <ele>1437.6</ele>
        <time>2022-10-28T11:02:14Z</time>
      </trkpt>
      <trkpt lat="44.44327" lon="3.62081">
        <ele>1437.8</ele>
        <time>2022-10-28T11:02:15Z</time>
      </trkpt>
      <trkpt lat="44.44329" lon="3.62083">
        <ele>1437.8</ele>
        <time>2022-10-28T11:02:16Z</time>
      </trkpt>
      <trkpt lat="44.44331" lon="3.62086">
        <ele>1437.8</ele>
        <time>2022-10-28T11:02:17Z</time>
      </trkpt>
      <trkpt lat="44.44333" lon="3.62088">
        <ele>1438</ele>
        <time>2022-10-28T11:02:18Z</time>
      </trkpt>
      <trkpt lat="44.44335" lon="3.6209">
        <ele>1438</ele>
        <time>2022-10-28T11:02:19Z</time>
      </trkpt>
      <trkpt lat="44.44337" lon="3.62093">
        <ele>1438</ele>
        <time>2022-10-28T11:02:20Z</time>
      </trkpt>
      <trkpt lat="44.4434" lon="3.62096">
        <ele>1438</ele>
        <time>2022-10-28T11:02:21Z</time>
      </trkpt>
      <trkpt lat="44.44343" lon="3.62099">
        <ele>1438.2</ele>
        <time>2022-10-28T11:02:22Z</time>
      </trkpt>
      <trkpt lat="44.44345" lon="3.62101">
        <ele>1438.2</ele>
        <time>2022-10-28T11:02:23Z</time>
      </trkpt>
      <trkpt lat="44.44348" lon="3.62104">
        <ele>1438.2</ele>
        <time>2022-10-28T11:02:24Z</time>
      </trkpt>
      <trkpt lat="44.44351" lon="3.62107">
        <ele>1438.2</ele>
        <time>2022-10-28T11:02:25Z</time>
      </trkpt>
      <trkpt lat="44.44353" lon="3.62109">
        <ele>1438</ele>
        <time>2022-10-28T11:02:26Z</time>
      </trkpt>
      <trkpt lat="44.44356" lon="3.62112">
        <ele>1438.2</ele>
        <time>2022-10-28T11:02:27Z</time>
      </trkpt>
      <trkpt lat="44.44359" lon="3.62114">
        <ele>1438.2</ele>
        <time>2022-10-28T11:02:28Z</time>
      </trkpt>
      <trkpt lat="44.44362" lon="3.62117">
        <ele>1438.2</ele>
        <time>2022-10-28T11:02:29Z</time>
      </trkpt>
      <trkpt lat="44.44365" lon="3.62119">
        <ele>1438.2</ele>
        <time>2022-10-28T11:02:30Z</time>
      </trkpt>
      <trkpt lat="44.44368" lon="3.62122">
        <ele>1438.2</ele>
        <time>2022-10-28T11:02:31Z</time>
      </trkpt>
      <trkpt lat="44.44371" lon="3.62126">
        <ele>1438.2</ele>
        <time>2022-10-28T11:02:32Z</time>
      </trkpt>
      <trkpt lat="44.44374" lon="3.62129">
        <ele>1438</ele>
        <time>2022-10-28T11:02:33Z</time>
      </trkpt>
      <trkpt lat="44.44377" lon="3.62133">
        <ele>1438</ele>
        <time>2022-10-28T11:02:34Z</time>
      </trkpt>
      <trkpt lat="44.44381" lon="3.62136">
        <ele>1438</ele>
        <time>2022-10-28T11:02:35Z</time>
      </trkpt>
      <trkpt lat="44.44385" lon="3.6214">
        <ele>1437.8</ele>
        <time>2022-10-28T11:02:36Z</time>
      </trkpt>
      <trkpt lat="44.44389" lon="3.62143">
        <ele>1437.8</ele>
        <time>2022-10-28T11:02:37Z</time>
      </trkpt>
      <trkpt lat="44.44393" lon="3.62147">
        <ele>1437.6</ele>
        <time>2022-10-28T11:02:38Z</time>
      </trkpt>
      <trkpt lat="44.44397" lon="3.62151">
        <ele>1437.6</ele>
        <time>2022-10-28T11:02:39Z</time>
      </trkpt>
      <trkpt lat="44.444" lon="3.62156">
        <ele>1437.4</ele>
        <time>2022-10-28T11:02:40Z</time>
      </trkpt>
      <trkpt lat="44.44403" lon="3.62161">
        <ele>1437.4</ele>
        <time>2022-10-28T11:02:41Z</time>
      </trkpt>
      <trkpt lat="44.44405" lon="3.62165">
        <ele>1437.4</ele>
        <time>2022-10-28T11:02:42Z</time>
      </trkpt>
      <trkpt lat="44.44408" lon="3.6217">
        <ele>1437.2</ele>
        <time>2022-10-28T11:02:43Z</time>
      </trkpt>
      <trkpt lat="44.4441" lon="3.62175">
        <ele>1437.2</ele>
        <time>2022-10-28T11:02:44Z</time>
      </trkpt>
      <trkpt lat="44.44413" lon="3.6218">
        <ele>1437.2</ele>
        <time>2022-10-28T11:02:45Z</time>
      </trkpt>
      <trkpt lat="44.44416" lon="3.62185">
        <ele>1437.4</ele>
        <time>2022-10-28T11:02:46Z</time>
      </trkpt>
      <trkpt lat="44.44419" lon="3.62189">
        <ele>1437.2</ele>
        <time>2022-10-28T11:02:47Z</time>
      </trkpt>
      <trkpt lat="44.44422" lon="3.62193">
        <ele>1437.2</ele>
        <time>2022-10-28T11:02:48Z</time>
      </trkpt>
      <trkpt lat="44.44426" lon="3.62197">
        <ele>1437.2</ele>
        <time>2022-10-28T11:02:49Z</time>
      </trkpt>
      <trkpt lat="44.44429" lon="3.62202">
        <ele>1437.2</ele>
        <time>2022-10-28T11:02:50Z</time>
      </trkpt>
      <trkpt lat="44.44432" lon="3.62206">
        <ele>1437.2</ele>
        <time>2022-10-28T11:02:51Z</time>
      </trkpt>
      <trkpt lat="44.44435" lon="3.62211">
        <ele>1437.2</ele>
        <time>2022-10-28T11:02:52Z</time>
      </trkpt>
      <trkpt lat="44.44438" lon="3.62216">
        <ele>1437.4</ele>
        <time>2022-10-28T11:02:53Z</time>
      </trkpt>
      <trkpt lat="44.44441" lon="3.6222">
        <ele>1437.6</ele>
        <time>2022-10-28T11:02:54Z</time>
      </trkpt>
      <trkpt lat="44.44444" lon="3.62224">
        <ele>1437.6</ele>
        <time>2022-10-28T11:02:55Z</time>
      </trkpt>
      <trkpt lat="44.44447" lon="3.62228">
        <ele>1437.6</ele>
        <time>2022-10-28T11:02:56Z</time>
      </trkpt>
      <trkpt lat="44.4445" lon="3.62232">
        <ele>1437.4</ele>
        <time>2022-10-28T11:02:57Z</time>
      </trkpt>
      <trkpt lat="44.44453" lon="3.62236">
        <ele>1437.4</ele>
        <time>2022-10-28T11:02:58Z</time>
      </trkpt>
      <trkpt lat="44.44456" lon="3.6224">
        <ele>1437.4</ele>
        <time>2022-10-28T11:02:59Z</time>
      </trkpt>
      <trkpt lat="44.44459" lon="3.62244">
        <ele>1437.2</ele>
        <time>2022-10-28T11:03:00Z</time>
      </trkpt>
      <trkpt lat="44.44461" lon="3.62249">
        <ele>1437.2</ele>
        <time>2022-10-28T11:03:01Z</time>
      </trkpt>
      <trkpt lat="44.44462" lon="3.62253">
        <ele>1437.2</ele>
        <time>2022-10-28T11:03:02Z</time>
      </trkpt>
      <trkpt lat="44.44464" lon="3.62257">
        <ele>1437.2</ele>
        <time>2022-10-28T11:03:03Z</time>
      </trkpt>
      <trkpt lat="44.44466" lon="3.62261">
        <ele>1437.2</ele>
        <time>2022-10-28T11:03:04Z</time>
      </trkpt>
      <trkpt lat="44.44468" lon="3.62265">
        <ele>1437.2</ele>
        <time>2022-10-28T11:03:05Z</time>
      </trkpt>
      <trkpt lat="44.4447" lon="3.62269">
        <ele>1437.2</ele>
        <time>2022-10-28T11:03:06Z</time>
      </trkpt>
      <trkpt lat="44.44472" lon="3.62273">
        <ele>1437.2</ele>
        <time>2022-10-28T11:03:07Z</time>
      </trkpt>
      <trkpt lat="44.44475" lon="3.62278">
        <ele>1437.2</ele>
        <time>2022-10-28T11:03:08Z</time>
      </trkpt>
      <trkpt lat="44.44477" lon="3.62282">
        <ele>1437.2</ele>
        <time>2022-10-28T11:03:09Z</time>
      </trkpt>
      <trkpt lat="44.4448" lon="3.62286">
        <ele>1437.2</ele>
        <time>2022-10-28T11:03:10Z</time>
      </trkpt>
      <trkpt lat="44.44483" lon="3.6229">
        <ele>1437.2</ele>
        <time>2022-10-28T11:03:11Z</time>
      </trkpt>
      <trkpt lat="44.44486" lon="3.62294">
        <ele>1437.4</ele>
        <time>2022-10-28T11:03:12Z</time>
      </trkpt>
      <trkpt lat="44.44489" lon="3.62299">
        <ele>1437.4</ele>
        <time>2022-10-28T11:03:13Z</time>
      </trkpt>
      <trkpt lat="44.44492" lon="3.62303">
        <ele>1437.4</ele>
        <time>2022-10-28T11:03:14Z</time>
      </trkpt>
      <trkpt lat="44.44495" lon="3.62307">
        <ele>1437.4</ele>
        <time>2022-10-28T11:03:15Z</time>
      </trkpt>
      <trkpt lat="44.44497" lon="3.62311">
        <ele>1437.4</ele>
        <time>2022-10-28T11:03:16Z</time>
      </trkpt>
      <trkpt lat="44.445" lon="3.62316">
        <ele>1437.4</ele>
        <time>2022-10-28T11:03:17Z</time>
      </trkpt>
      <trkpt lat="44.44503" lon="3.6232">
        <ele>1437.4</ele>
        <time>2022-10-28T11:03:18Z</time>
      </trkpt>
      <trkpt lat="44.44506" lon="3.62324">
        <ele>1437.6</ele>
        <time>2022-10-28T11:03:19Z</time>
      </trkpt>
      <trkpt lat="44.44509" lon="3.62329">
        <ele>1437.6</ele>
        <time>2022-10-28T11:03:20Z</time>
      </trkpt>
      <trkpt lat="44.44511" lon="3.62333">
        <ele>1437.6</ele>
        <time>2022-10-28T11:03:21Z</time>
      </trkpt>
      <trkpt lat="44.44513" lon="3.62338">
        <ele>1437.8</ele>
        <time>2022-10-28T11:03:22Z</time>
      </trkpt>
      <trkpt lat="44.44515" lon="3.62343">
        <ele>1437.8</ele>
        <time>2022-10-28T11:03:23Z</time>
      </trkpt>
      <trkpt lat="44.44517" lon="3.62348">
        <ele>1437.8</ele>
        <time>2022-10-28T11:03:24Z</time>
      </trkpt>
      <trkpt lat="44.44518" lon="3.62353">
        <ele>1438</ele>
        <time>2022-10-28T11:03:25Z</time>
      </trkpt>
      <trkpt lat="44.44519" lon="3.62357">
        <ele>1438</ele>
        <time>2022-10-28T11:03:26Z</time>
      </trkpt>
      <trkpt lat="44.4452" lon="3.6236">
        <ele>1438</ele>
        <time>2022-10-28T11:03:27Z</time>
      </trkpt>
      <trkpt lat="44.4452" lon="3.62362">
        <ele>1437.8</ele>
        <time>2022-10-28T11:03:28Z</time>
      </trkpt>
      <trkpt lat="44.44521" lon="3.62359">
        <ele>1437.8</ele>
        <time>2022-10-28T11:04:41Z</time>
      </trkpt>
      <trkpt lat="44.44521" lon="3.62358">
        <ele>1437.8</ele>
        <time>2022-10-28T11:04:42Z</time>
      </trkpt>
      <trkpt lat="44.4452" lon="3.62356">
        <ele>1437.8</ele>
        <time>2022-10-28T11:04:43Z</time>
      </trkpt>
      <trkpt lat="44.44519" lon="3.62354">
        <ele>1437.6</ele>
        <time>2022-10-28T11:04:44Z</time>
      </trkpt>
      <trkpt lat="44.44518" lon="3.62353">
        <ele>1437.6</ele>
        <time>2022-10-28T11:04:45Z</time>
      </trkpt>
      <trkpt lat="44.44518" lon="3.62353">
        <ele>1437.6</ele>
        <time>2022-10-28T11:04:46Z</time>
      </trkpt>
      <trkpt lat="44.44518" lon="3.62354">
        <ele>1437.6</ele>
        <time>2022-10-28T11:04:47Z</time>
      </trkpt>
      <trkpt lat="44.44518" lon="3.62355">
        <ele>1437.6</ele>
        <time>2022-10-28T11:04:48Z</time>
      </trkpt>
      <trkpt lat="44.44518" lon="3.62357">
        <ele>1437.8</ele>
        <time>2022-10-28T11:04:49Z</time>
      </trkpt>
      <trkpt lat="44.44519" lon="3.62359">
        <ele>1437.8</ele>
        <time>2022-10-28T11:04:50Z</time>
      </trkpt>
      <trkpt lat="44.4452" lon="3.62363">
        <ele>1437.8</ele>
        <time>2022-10-28T11:04:51Z</time>
      </trkpt>
      <trkpt lat="44.44521" lon="3.62368">
        <ele>1438</ele>
        <time>2022-10-28T11:04:52Z</time>
      </trkpt>
      <trkpt lat="44.44523" lon="3.62373">
        <ele>1438</ele>
        <time>2022-10-28T11:04:53Z</time>
      </trkpt>
      <trkpt lat="44.44524" lon="3.62378">
        <ele>1438</ele>
        <time>2022-10-28T11:04:54Z</time>
      </trkpt>
      <trkpt lat="44.44525" lon="3.62384">
        <ele>1437.8</ele>
        <time>2022-10-28T11:04:55Z</time>
      </trkpt>
      <trkpt lat="44.44527" lon="3.62389">
        <ele>1437.8</ele>
        <time>2022-10-28T11:04:56Z</time>
      </trkpt>
      <trkpt lat="44.44528" lon="3.62392">
        <ele>1437.8</ele>
        <time>2022-10-28T11:04:57Z</time>
      </trkpt>
      <trkpt lat="44.44529" lon="3.62395">
        <ele>1437.6</ele>
        <time>2022-10-28T11:04:58Z</time>
      </trkpt>
      <trkpt lat="44.44528" lon="3.62396">
        <ele>1437.4</ele>
        <time>2022-10-28T11:04:59Z</time>
      </trkpt>
      <trkpt lat="44.44528" lon="3.62397">
        <ele>1437.4</ele>
        <time>2022-10-28T11:05:00Z</time>
      </trkpt>
      <trkpt lat="44.44527" lon="3.62396">
        <ele>1437.6</ele>
        <time>2022-10-28T11:05:01Z</time>
      </trkpt>
      <trkpt lat="44.44526" lon="3.62394">
        <ele>1437.6</ele>
        <time>2022-10-28T11:05:02Z</time>
      </trkpt>
      <trkpt lat="44.44526" lon="3.62392">
        <ele>1437.6</ele>
        <time>2022-10-28T11:05:03Z</time>
      </trkpt>
      <trkpt lat="44.44526" lon="3.6239">
        <ele>1437.6</ele>
        <time>2022-10-28T11:05:04Z</time>
      </trkpt>
      <trkpt lat="44.44526" lon="3.62387">
        <ele>1437.6</ele>
        <time>2022-10-28T11:05:05Z</time>
      </trkpt>
      <trkpt lat="44.44526" lon="3.62384">
        <ele>1437.6</ele>
        <time>2022-10-28T11:05:06Z</time>
      </trkpt>
      <trkpt lat="44.44525" lon="3.6238">
        <ele>1437.6</ele>
        <time>2022-10-28T11:05:07Z</time>
      </trkpt>
      <trkpt lat="44.44524" lon="3.62377">
        <ele>1437.8</ele>
        <time>2022-10-28T11:05:08Z</time>
      </trkpt>
      <trkpt lat="44.44523" lon="3.62374">
        <ele>1437.8</ele>
        <time>2022-10-28T11:05:09Z</time>
      </trkpt>
      <trkpt lat="44.44522" lon="3.62372">
        <ele>1437.8</ele>
        <time>2022-10-28T11:05:10Z</time>
      </trkpt>
      <trkpt lat="44.4452" lon="3.6237">
        <ele>1437.8</ele>
        <time>2022-10-28T11:05:11Z</time>
      </trkpt>
      <trkpt lat="44.4452" lon="3.62369">
        <ele>1437.8</ele>
        <time>2022-10-28T11:05:12Z</time>
      </trkpt>
      <trkpt lat="44.44519" lon="3.62368">
        <ele>1437.8</ele>
        <time>2022-10-28T11:05:13Z</time>
      </trkpt>
      <trkpt lat="44.44519" lon="3.62367">
        <ele>1438</ele>
        <time>2022-10-28T11:05:14Z</time>
      </trkpt>
      <trkpt lat="44.44519" lon="3.62367">
        <ele>1438</ele>
        <time>2022-10-28T11:05:15Z</time>
      </trkpt>
      <trkpt lat="44.44519" lon="3.62367">
        <ele>1438</ele>
        <time>2022-10-28T11:05:16Z</time>
      </trkpt>
      <trkpt lat="44.44519" lon="3.62367">
        <ele>1438</ele>
        <time>2022-10-28T11:05:17Z</time>
      </trkpt>
      <trkpt lat="44.44519" lon="3.62367">
        <ele>1438</ele>
        <time>2022-10-28T11:05:18Z</time>
      </trkpt>
      <trkpt lat="44.44519" lon="3.62367">
        <ele>1438</ele>
        <time>2022-10-28T11:05:19Z</time>
      </trkpt>
      <trkpt lat="44.44519" lon="3.62364">
        <ele>1438</ele>
        <time>2022-10-28T11:05:31Z</time>
      </trkpt>
      <trkpt lat="44.44519" lon="3.62362">
        <ele>1437.8</ele>
        <time>2022-10-28T11:05:32Z</time>
      </trkpt>
      <trkpt lat="44.44519" lon="3.62361">
        <ele>1437.8</ele>
        <time>2022-10-28T11:05:33Z</time>
      </trkpt>
      <trkpt lat="44.44519" lon="3.62361">
        <ele>1438</ele>
        <time>2022-10-28T11:05:34Z</time>
      </trkpt>
      <trkpt lat="44.44519" lon="3.62361">
        <ele>1438</ele>
        <time>2022-10-28T11:05:35Z</time>
      </trkpt>
      <trkpt lat="44.44519" lon="3.62361">
        <ele>1438</ele>
        <time>2022-10-28T11:05:36Z</time>
      </trkpt>
      <trkpt lat="44.44519" lon="3.62361">
        <ele>1438</ele>
        <time>2022-10-28T11:05:37Z</time>
      </trkpt>
      <trkpt lat="44.44519" lon="3.62361">
        <ele>1438</ele>
        <time>2022-10-28T11:05:38Z</time>
      </trkpt>
      <trkpt lat="44.4452" lon="3.62364">
        <ele>1438.2</ele>
        <time>2022-10-28T11:05:45Z</time>
      </trkpt>
      <trkpt lat="44.4452" lon="3.62366">
        <ele>1438.2</ele>
        <time>2022-10-28T11:05:46Z</time>
      </trkpt>
      <trkpt lat="44.4452" lon="3.62368">
        <ele>1438.2</ele>
        <time>2022-10-28T11:05:47Z</time>
      </trkpt>
      <trkpt lat="44.44521" lon="3.62371">
        <ele>1438.2</ele>
        <time>2022-10-28T11:05:48Z</time>
      </trkpt>
      <trkpt lat="44.44522" lon="3.62374">
        <ele>1438.2</ele>
        <time>2022-10-28T11:05:49Z</time>
      </trkpt>
      <trkpt lat="44.44522" lon="3.62377">
        <ele>1438.2</ele>
        <time>2022-10-28T11:05:50Z</time>
      </trkpt>
      <trkpt lat="44.44523" lon="3.6238">
        <ele>1438.2</ele>
        <time>2022-10-28T11:05:51Z</time>
      </trkpt>
      <trkpt lat="44.44523" lon="3.62384">
        <ele>1438.2</ele>
        <time>2022-10-28T11:05:52Z</time>
      </trkpt>
      <trkpt lat="44.44524" lon="3.62388">
        <ele>1438.2</ele>
        <time>2022-10-28T11:05:53Z</time>
      </trkpt>
      <trkpt lat="44.44526" lon="3.62392">
        <ele>1438.2</ele>
        <time>2022-10-28T11:05:54Z</time>
      </trkpt>
      <trkpt lat="44.44527" lon="3.62396">
        <ele>1438</ele>
        <time>2022-10-28T11:05:55Z</time>
      </trkpt>
      <trkpt lat="44.44528" lon="3.624">
        <ele>1438</ele>
        <time>2022-10-28T11:05:56Z</time>
      </trkpt>
      <trkpt lat="44.4453" lon="3.62404">
        <ele>1437.8</ele>
        <time>2022-10-28T11:05:57Z</time>
      </trkpt>
      <trkpt lat="44.44531" lon="3.62408">
        <ele>1437.8</ele>
        <time>2022-10-28T11:05:58Z</time>
      </trkpt>
      <trkpt lat="44.44533" lon="3.62413">
        <ele>1437.8</ele>
        <time>2022-10-28T11:05:59Z</time>
      </trkpt>
      <trkpt lat="44.44535" lon="3.62417">
        <ele>1437.6</ele>
        <time>2022-10-28T11:06:00Z</time>
      </trkpt>
      <trkpt lat="44.44537" lon="3.62422">
        <ele>1437.4</ele>
        <time>2022-10-28T11:06:01Z</time>
      </trkpt>
      <trkpt lat="44.44539" lon="3.62427">
        <ele>1437.2</ele>
        <time>2022-10-28T11:06:02Z</time>
      </trkpt>
      <trkpt lat="44.44542" lon="3.62433">
        <ele>1437</ele>
        <time>2022-10-28T11:06:03Z</time>
      </trkpt>
      <trkpt lat="44.44543" lon="3.62439">
        <ele>1436.6</ele>
        <time>2022-10-28T11:06:04Z</time>
      </trkpt>
      <trkpt lat="44.44545" lon="3.62445">
        <ele>1436.4</ele>
        <time>2022-10-28T11:06:05Z</time>
      </trkpt>
      <trkpt lat="44.44547" lon="3.62451">
        <ele>1436</ele>
        <time>2022-10-28T11:06:06Z</time>
      </trkpt>
      <trkpt lat="44.4455" lon="3.62457">
        <ele>1435.8</ele>
        <time>2022-10-28T11:06:07Z</time>
      </trkpt>
      <trkpt lat="44.44551" lon="3.62463">
        <ele>1435.4</ele>
        <time>2022-10-28T11:06:08Z</time>
      </trkpt>
      <trkpt lat="44.44553" lon="3.62469">
        <ele>1435</ele>
        <time>2022-10-28T11:06:09Z</time>
      </trkpt>
      <trkpt lat="44.44556" lon="3.62475">
        <ele>1434.6</ele>
        <time>2022-10-28T11:06:10Z</time>
      </trkpt>
      <trkpt lat="44.44558" lon="3.6248">
        <ele>1434.4</ele>
        <time>2022-10-28T11:06:11Z</time>
      </trkpt>
      <trkpt lat="44.44561" lon="3.62486">
        <ele>1433.8</ele>
        <time>2022-10-28T11:06:12Z</time>
      </trkpt>
      <trkpt lat="44.44564" lon="3.62492">
        <ele>1433.4</ele>
        <time>2022-10-28T11:06:13Z</time>
      </trkpt>
      <trkpt lat="44.44566" lon="3.625">
        <ele>1433</ele>
        <time>2022-10-28T11:06:14Z</time>
      </trkpt>
      <trkpt lat="44.44569" lon="3.62508">
        <ele>1432.6</ele>
        <time>2022-10-28T11:06:15Z</time>
      </trkpt>
      <trkpt lat="44.44573" lon="3.62516">
        <ele>1432.2</ele>
        <time>2022-10-28T11:06:16Z</time>
      </trkpt>
      <trkpt lat="44.44578" lon="3.62525">
        <ele>1431.8</ele>
        <time>2022-10-28T11:06:17Z</time>
      </trkpt>
      <trkpt lat="44.44583" lon="3.62534">
        <ele>1431.6</ele>
        <time>2022-10-28T11:06:18Z</time>
      </trkpt>
      <trkpt lat="44.44587" lon="3.62542">
        <ele>1431.2</ele>
        <time>2022-10-28T11:06:19Z</time>
      </trkpt>
      <trkpt lat="44.44592" lon="3.62551">
        <ele>1431</ele>
        <time>2022-10-28T11:06:20Z</time>
      </trkpt>
      <trkpt lat="44.44596" lon="3.62558">
        <ele>1430.8</ele>
        <time>2022-10-28T11:06:21Z</time>
      </trkpt>
      <trkpt lat="44.44601" lon="3.62566">
        <ele>1430.4</ele>
        <time>2022-10-28T11:06:22Z</time>
      </trkpt>
      <trkpt lat="44.44605" lon="3.62574">
        <ele>1430.4</ele>
        <time>2022-10-28T11:06:23Z</time>
      </trkpt>
      <trkpt lat="44.44609" lon="3.6258">
        <ele>1430.2</ele>
        <time>2022-10-28T11:06:24Z</time>
      </trkpt>
      <trkpt lat="44.44614" lon="3.62585">
        <ele>1430</ele>
        <time>2022-10-28T11:06:25Z</time>
      </trkpt>
      <trkpt lat="44.44617" lon="3.6259">
        <ele>1430</ele>
        <time>2022-10-28T11:06:26Z</time>
      </trkpt>
      <trkpt lat="44.44621" lon="3.62594">
        <ele>1430</ele>
        <time>2022-10-28T11:06:27Z</time>
      </trkpt>
      <trkpt lat="44.44625" lon="3.62599">
        <ele>1430</ele>
        <time>2022-10-28T11:06:28Z</time>
      </trkpt>
      <trkpt lat="44.44628" lon="3.62603">
        <ele>1430</ele>
        <time>2022-10-28T11:06:29Z</time>
      </trkpt>
      <trkpt lat="44.44632" lon="3.62607">
        <ele>1430</ele>
        <time>2022-10-28T11:06:30Z</time>
      </trkpt>
      <trkpt lat="44.44635" lon="3.62611">
        <ele>1430</ele>
        <time>2022-10-28T11:06:31Z</time>
      </trkpt>
      <trkpt lat="44.44638" lon="3.62615">
        <ele>1430</ele>
        <time>2022-10-28T11:06:32Z</time>
      </trkpt>
      <trkpt lat="44.44641" lon="3.62619">
        <ele>1430.2</ele>
        <time>2022-10-28T11:06:33Z</time>
      </trkpt>
      <trkpt lat="44.44644" lon="3.62622">
        <ele>1430.4</ele>
        <time>2022-10-28T11:06:34Z</time>
      </trkpt>
      <trkpt lat="44.44646" lon="3.62625">
        <ele>1430.4</ele>
        <time>2022-10-28T11:06:35Z</time>
      </trkpt>
      <trkpt lat="44.44649" lon="3.62628">
        <ele>1430.6</ele>
        <time>2022-10-28T11:06:36Z</time>
      </trkpt>
      <trkpt lat="44.44652" lon="3.62631">
        <ele>1430.8</ele>
        <time>2022-10-28T11:06:37Z</time>
      </trkpt>
      <trkpt lat="44.44654" lon="3.62634">
        <ele>1431</ele>
        <time>2022-10-28T11:06:38Z</time>
      </trkpt>
      <trkpt lat="44.44655" lon="3.62637">
        <ele>1431.2</ele>
        <time>2022-10-28T11:06:39Z</time>
      </trkpt>
      <trkpt lat="44.44656" lon="3.62639">
        <ele>1431.4</ele>
        <time>2022-10-28T11:06:40Z</time>
      </trkpt>
      <trkpt lat="44.44658" lon="3.62642">
        <ele>1431.6</ele>
        <time>2022-10-28T11:06:41Z</time>
      </trkpt>
      <trkpt lat="44.44659" lon="3.62645">
        <ele>1431.8</ele>
        <time>2022-10-28T11:06:42Z</time>
      </trkpt>
      <trkpt lat="44.4466" lon="3.62647">
        <ele>1432</ele>
        <time>2022-10-28T11:06:43Z</time>
      </trkpt>
      <trkpt lat="44.44662" lon="3.6265">
        <ele>1432.2</ele>
        <time>2022-10-28T11:06:44Z</time>
      </trkpt>
      <trkpt lat="44.44663" lon="3.62652">
        <ele>1432.4</ele>
        <time>2022-10-28T11:06:45Z</time>
      </trkpt>
      <trkpt lat="44.44664" lon="3.62655">
        <ele>1432.6</ele>
        <time>2022-10-28T11:06:46Z</time>
      </trkpt>
      <trkpt lat="44.44665" lon="3.62657">
        <ele>1432.8</ele>
        <time>2022-10-28T11:06:47Z</time>
      </trkpt>
      <trkpt lat="44.44666" lon="3.6266">
        <ele>1433</ele>
        <time>2022-10-28T11:06:48Z</time>
      </trkpt>
      <trkpt lat="44.44667" lon="3.62662">
        <ele>1433.2</ele>
        <time>2022-10-28T11:06:49Z</time>
      </trkpt>
      <trkpt lat="44.44668" lon="3.62665">
        <ele>1433.4</ele>
        <time>2022-10-28T11:06:50Z</time>
      </trkpt>
      <trkpt lat="44.44669" lon="3.62668">
        <ele>1433.4</ele>
        <time>2022-10-28T11:06:51Z</time>
      </trkpt>
      <trkpt lat="44.44671" lon="3.6267">
        <ele>1433.6</ele>
        <time>2022-10-28T11:06:52Z</time>
      </trkpt>
      <trkpt lat="44.44672" lon="3.62673">
        <ele>1433.8</ele>
        <time>2022-10-28T11:06:53Z</time>
      </trkpt>
      <trkpt lat="44.44674" lon="3.62675">
        <ele>1434</ele>
        <time>2022-10-28T11:06:54Z</time>
      </trkpt>
      <trkpt lat="44.44675" lon="3.62677">
        <ele>1434.2</ele>
        <time>2022-10-28T11:06:55Z</time>
      </trkpt>
      <trkpt lat="44.44676" lon="3.6268">
        <ele>1434.4</ele>
        <time>2022-10-28T11:06:56Z</time>
      </trkpt>
      <trkpt lat="44.44678" lon="3.62682">
        <ele>1434.6</ele>
        <time>2022-10-28T11:06:57Z</time>
      </trkpt>
      <trkpt lat="44.44679" lon="3.62684">
        <ele>1434.6</ele>
        <time>2022-10-28T11:06:58Z</time>
      </trkpt>
      <trkpt lat="44.44681" lon="3.62686">
        <ele>1434.8</ele>
        <time>2022-10-28T11:06:59Z</time>
      </trkpt>
      <trkpt lat="44.44683" lon="3.62689">
        <ele>1435</ele>
        <time>2022-10-28T11:07:00Z</time>
      </trkpt>
      <trkpt lat="44.44685" lon="3.62691">
        <ele>1435.2</ele>
        <time>2022-10-28T11:07:01Z</time>
      </trkpt>
      <trkpt lat="44.44687" lon="3.62693">
        <ele>1435.4</ele>
        <time>2022-10-28T11:07:02Z</time>
      </trkpt>
      <trkpt lat="44.44689" lon="3.62695">
        <ele>1435.6</ele>
        <time>2022-10-28T11:07:03Z</time>
      </trkpt>
      <trkpt lat="44.44691" lon="3.62696">
        <ele>1435.8</ele>
        <time>2022-10-28T11:07:04Z</time>
      </trkpt>
      <trkpt lat="44.44693" lon="3.62698">
        <ele>1436</ele>
        <time>2022-10-28T11:07:05Z</time>
      </trkpt>
      <trkpt lat="44.44694" lon="3.627">
        <ele>1436.2</ele>
        <time>2022-10-28T11:07:06Z</time>
      </trkpt>
      <trkpt lat="44.44696" lon="3.62702">
        <ele>1436.4</ele>
        <time>2022-10-28T11:07:07Z</time>
      </trkpt>
      <trkpt lat="44.44698" lon="3.62704">
        <ele>1436.6</ele>
        <time>2022-10-28T11:07:08Z</time>
      </trkpt>
      <trkpt lat="44.447" lon="3.62705">
        <ele>1437</ele>
        <time>2022-10-28T11:07:09Z</time>
      </trkpt>
      <trkpt lat="44.44701" lon="3.62707">
        <ele>1437.2</ele>
        <time>2022-10-28T11:07:10Z</time>
      </trkpt>
      <trkpt lat="44.44703" lon="3.62708">
        <ele>1437.4</ele>
        <time>2022-10-28T11:07:11Z</time>
      </trkpt>
      <trkpt lat="44.44705" lon="3.62709">
        <ele>1437.6</ele>
        <time>2022-10-28T11:07:12Z</time>
      </trkpt>
      <trkpt lat="44.44707" lon="3.62711">
        <ele>1437.8</ele>
        <time>2022-10-28T11:07:13Z</time>
      </trkpt>
      <trkpt lat="44.44708" lon="3.62712">
        <ele>1438.2</ele>
        <time>2022-10-28T11:07:14Z</time>
      </trkpt>
      <trkpt lat="44.44709" lon="3.62714">
        <ele>1438.4</ele>
        <time>2022-10-28T11:07:15Z</time>
      </trkpt>
      <trkpt lat="44.44711" lon="3.62716">
        <ele>1438.6</ele>
        <time>2022-10-28T11:07:16Z</time>
      </trkpt>
      <trkpt lat="44.44712" lon="3.62718">
        <ele>1438.8</ele>
        <time>2022-10-28T11:07:17Z</time>
      </trkpt>
      <trkpt lat="44.44713" lon="3.62719">
        <ele>1439.2</ele>
        <time>2022-10-28T11:07:18Z</time>
      </trkpt>
      <trkpt lat="44.44715" lon="3.62721">
        <ele>1439.4</ele>
        <time>2022-10-28T11:07:19Z</time>
      </trkpt>
      <trkpt lat="44.44716" lon="3.62722">
        <ele>1439.6</ele>
        <time>2022-10-28T11:07:20Z</time>
      </trkpt>
      <trkpt lat="44.44717" lon="3.62724">
        <ele>1439.8</ele>
        <time>2022-10-28T11:07:21Z</time>
      </trkpt>
      <trkpt lat="44.44719" lon="3.62726">
        <ele>1440</ele>
        <time>2022-10-28T11:07:22Z</time>
      </trkpt>
      <trkpt lat="44.4472" lon="3.62727">
        <ele>1440.2</ele>
        <time>2022-10-28T11:07:23Z</time>
      </trkpt>
      <trkpt lat="44.44721" lon="3.62729">
        <ele>1440.4</ele>
        <time>2022-10-28T11:07:24Z</time>
      </trkpt>
      <trkpt lat="44.44723" lon="3.6273">
        <ele>1440.6</ele>
        <time>2022-10-28T11:07:25Z</time>
      </trkpt>
      <trkpt lat="44.44724" lon="3.62732">
        <ele>1440.8</ele>
        <time>2022-10-28T11:07:26Z</time>
      </trkpt>
      <trkpt lat="44.44725" lon="3.62733">
        <ele>1441</ele>
        <time>2022-10-28T11:07:27Z</time>
      </trkpt>
      <trkpt lat="44.44727" lon="3.62735">
        <ele>1441.4</ele>
        <time>2022-10-28T11:07:28Z</time>
      </trkpt>
      <trkpt lat="44.44728" lon="3.62736">
        <ele>1441.6</ele>
        <time>2022-10-28T11:07:29Z</time>
      </trkpt>
      <trkpt lat="44.44729" lon="3.62737">
        <ele>1441.8</ele>
        <time>2022-10-28T11:07:30Z</time>
      </trkpt>
      <trkpt lat="44.44731" lon="3.62739">
        <ele>1442</ele>
        <time>2022-10-28T11:07:31Z</time>
      </trkpt>
      <trkpt lat="44.44733" lon="3.6274">
        <ele>1442.2</ele>
        <time>2022-10-28T11:07:32Z</time>
      </trkpt>
      <trkpt lat="44.44734" lon="3.62741">
        <ele>1442.4</ele>
        <time>2022-10-28T11:07:33Z</time>
      </trkpt>
      <trkpt lat="44.44735" lon="3.62743">
        <ele>1442.6</ele>
        <time>2022-10-28T11:07:34Z</time>
      </trkpt>
      <trkpt lat="44.44737" lon="3.62744">
        <ele>1442.8</ele>
        <time>2022-10-28T11:07:35Z</time>
      </trkpt>
      <trkpt lat="44.44738" lon="3.62745">
        <ele>1443</ele>
        <time>2022-10-28T11:07:36Z</time>
      </trkpt>
      <trkpt lat="44.4474" lon="3.62747">
        <ele>1443</ele>
        <time>2022-10-28T11:07:37Z</time>
      </trkpt>
      <trkpt lat="44.44741" lon="3.62748">
        <ele>1443.2</ele>
        <time>2022-10-28T11:07:38Z</time>
      </trkpt>
      <trkpt lat="44.44742" lon="3.62749">
        <ele>1443.4</ele>
        <time>2022-10-28T11:07:39Z</time>
      </trkpt>
      <trkpt lat="44.44744" lon="3.62751">
        <ele>1443.6</ele>
        <time>2022-10-28T11:07:40Z</time>
      </trkpt>
      <trkpt lat="44.44745" lon="3.62752">
        <ele>1443.8</ele>
        <time>2022-10-28T11:07:41Z</time>
      </trkpt>
      <trkpt lat="44.44746" lon="3.62752">
        <ele>1444</ele>
        <time>2022-10-28T11:07:42Z</time>
      </trkpt>
      <trkpt lat="44.44748" lon="3.62753">
        <ele>1444.2</ele>
        <time>2022-10-28T11:07:43Z</time>
      </trkpt>
      <trkpt lat="44.4475" lon="3.62754">
        <ele>1444.4</ele>
        <time>2022-10-28T11:07:44Z</time>
      </trkpt>
      <trkpt lat="44.44751" lon="3.62756">
        <ele>1444.6</ele>
        <time>2022-10-28T11:07:45Z</time>
      </trkpt>
      <trkpt lat="44.44752" lon="3.62757">
        <ele>1444.8</ele>
        <time>2022-10-28T11:07:46Z</time>
      </trkpt>
      <trkpt lat="44.44754" lon="3.62759">
        <ele>1445</ele>
        <time>2022-10-28T11:07:47Z</time>
      </trkpt>
      <trkpt lat="44.44756" lon="3.6276">
        <ele>1445.2</ele>
        <time>2022-10-28T11:07:48Z</time>
      </trkpt>
      <trkpt lat="44.44757" lon="3.62761">
        <ele>1445.4</ele>
        <time>2022-10-28T11:07:49Z</time>
      </trkpt>
      <trkpt lat="44.44759" lon="3.62762">
        <ele>1445.4</ele>
        <time>2022-10-28T11:07:50Z</time>
      </trkpt>
      <trkpt lat="44.4476" lon="3.62763">
        <ele>1445.6</ele>
        <time>2022-10-28T11:07:51Z</time>
      </trkpt>
      <trkpt lat="44.44762" lon="3.62764">
        <ele>1445.8</ele>
        <time>2022-10-28T11:07:52Z</time>
      </trkpt>
      <trkpt lat="44.44763" lon="3.62765">
        <ele>1446</ele>
        <time>2022-10-28T11:07:53Z</time>
      </trkpt>
      <trkpt lat="44.44765" lon="3.62766">
        <ele>1446</ele>
        <time>2022-10-28T11:07:54Z</time>
      </trkpt>
      <trkpt lat="44.44767" lon="3.62766">
        <ele>1446.2</ele>
        <time>2022-10-28T11:07:55Z</time>
      </trkpt>
      <trkpt lat="44.44768" lon="3.62767">
        <ele>1446.4</ele>
        <time>2022-10-28T11:07:56Z</time>
      </trkpt>
      <trkpt lat="44.4477" lon="3.62768">
        <ele>1446.6</ele>
        <time>2022-10-28T11:07:57Z</time>
      </trkpt>
      <trkpt lat="44.44772" lon="3.62769">
        <ele>1446.8</ele>
        <time>2022-10-28T11:07:58Z</time>
      </trkpt>
      <trkpt lat="44.44773" lon="3.62769">
        <ele>1447</ele>
        <time>2022-10-28T11:07:59Z</time>
      </trkpt>
      <trkpt lat="44.44775" lon="3.62769">
        <ele>1447</ele>
        <time>2022-10-28T11:08:00Z</time>
      </trkpt>
      <trkpt lat="44.44776" lon="3.6277">
        <ele>1447.2</ele>
        <time>2022-10-28T11:08:01Z</time>
      </trkpt>
      <trkpt lat="44.44778" lon="3.62771">
        <ele>1447.4</ele>
        <time>2022-10-28T11:08:02Z</time>
      </trkpt>
      <trkpt lat="44.4478" lon="3.62771">
        <ele>1447.4</ele>
        <time>2022-10-28T11:08:03Z</time>
      </trkpt>
      <trkpt lat="44.44782" lon="3.62772">
        <ele>1447.6</ele>
        <time>2022-10-28T11:08:04Z</time>
      </trkpt>
      <trkpt lat="44.44784" lon="3.62772">
        <ele>1447.8</ele>
        <time>2022-10-28T11:08:05Z</time>
      </trkpt>
      <trkpt lat="44.44785" lon="3.62773">
        <ele>1447.8</ele>
        <time>2022-10-28T11:08:06Z</time>
      </trkpt>
      <trkpt lat="44.44787" lon="3.62774">
        <ele>1448</ele>
        <time>2022-10-28T11:08:07Z</time>
      </trkpt>
      <trkpt lat="44.44789" lon="3.62775">
        <ele>1448.2</ele>
        <time>2022-10-28T11:08:08Z</time>
      </trkpt>
      <trkpt lat="44.44791" lon="3.62775">
        <ele>1448.4</ele>
        <time>2022-10-28T11:08:09Z</time>
      </trkpt>
      <trkpt lat="44.44792" lon="3.62775">
        <ele>1448.4</ele>
        <time>2022-10-28T11:08:10Z</time>
      </trkpt>
      <trkpt lat="44.44794" lon="3.62775">
        <ele>1448.6</ele>
        <time>2022-10-28T11:08:11Z</time>
      </trkpt>
      <trkpt lat="44.44796" lon="3.62775">
        <ele>1448.8</ele>
        <time>2022-10-28T11:08:12Z</time>
      </trkpt>
      <trkpt lat="44.44797" lon="3.62775">
        <ele>1448.8</ele>
        <time>2022-10-28T11:08:13Z</time>
      </trkpt>
      <trkpt lat="44.44799" lon="3.62774">
        <ele>1449</ele>
        <time>2022-10-28T11:08:14Z</time>
      </trkpt>
      <trkpt lat="44.44801" lon="3.62774">
        <ele>1449</ele>
        <time>2022-10-28T11:08:15Z</time>
      </trkpt>
      <trkpt lat="44.44803" lon="3.62773">
        <ele>1449.2</ele>
        <time>2022-10-28T11:08:16Z</time>
      </trkpt>
      <trkpt lat="44.44805" lon="3.62773">
        <ele>1449.4</ele>
        <time>2022-10-28T11:08:17Z</time>
      </trkpt>
      <trkpt lat="44.44807" lon="3.62772">
        <ele>1449.4</ele>
        <time>2022-10-28T11:08:18Z</time>
      </trkpt>
      <trkpt lat="44.44808" lon="3.62772">
        <ele>1449.6</ele>
        <time>2022-10-28T11:08:19Z</time>
      </trkpt>
      <trkpt lat="44.4481" lon="3.62772">
        <ele>1449.8</ele>
        <time>2022-10-28T11:08:20Z</time>
      </trkpt>
      <trkpt lat="44.44812" lon="3.62772">
        <ele>1449.8</ele>
        <time>2022-10-28T11:08:21Z</time>
      </trkpt>
      <trkpt lat="44.44814" lon="3.62772">
        <ele>1450</ele>
        <time>2022-10-28T11:08:22Z</time>
      </trkpt>
      <trkpt lat="44.44815" lon="3.62772">
        <ele>1450.2</ele>
        <time>2022-10-28T11:08:23Z</time>
      </trkpt>
      <trkpt lat="44.44817" lon="3.62772">
        <ele>1450.2</ele>
        <time>2022-10-28T11:08:24Z</time>
      </trkpt>
      <trkpt lat="44.44819" lon="3.62772">
        <ele>1450.4</ele>
        <time>2022-10-28T11:08:25Z</time>
      </trkpt>
      <trkpt lat="44.4482" lon="3.62772">
        <ele>1450.6</ele>
        <time>2022-10-28T11:08:26Z</time>
      </trkpt>
      <trkpt lat="44.44822" lon="3.62772">
        <ele>1450.8</ele>
        <time>2022-10-28T11:08:27Z</time>
      </trkpt>
      <trkpt lat="44.44823" lon="3.62772">
        <ele>1451</ele>
        <time>2022-10-28T11:08:28Z</time>
      </trkpt>
      <trkpt lat="44.44825" lon="3.62772">
        <ele>1451</ele>
        <time>2022-10-28T11:08:29Z</time>
      </trkpt>
      <trkpt lat="44.44827" lon="3.62771">
        <ele>1451.2</ele>
        <time>2022-10-28T11:08:30Z</time>
      </trkpt>
      <trkpt lat="44.44829" lon="3.62771">
        <ele>1451.4</ele>
        <time>2022-10-28T11:08:31Z</time>
      </trkpt>
      <trkpt lat="44.44831" lon="3.62771">
        <ele>1451.6</ele>
        <time>2022-10-28T11:08:32Z</time>
      </trkpt>
      <trkpt lat="44.44833" lon="3.62771">
        <ele>1451.8</ele>
        <time>2022-10-28T11:08:33Z</time>
      </trkpt>
      <trkpt lat="44.44835" lon="3.6277">
        <ele>1451.8</ele>
        <time>2022-10-28T11:08:34Z</time>
      </trkpt>
      <trkpt lat="44.44836" lon="3.6277">
        <ele>1452</ele>
        <time>2022-10-28T11:08:35Z</time>
      </trkpt>
      <trkpt lat="44.44839" lon="3.6277">
        <ele>1452.2</ele>
        <time>2022-10-28T11:08:36Z</time>
      </trkpt>
      <trkpt lat="44.44841" lon="3.6277">
        <ele>1452.4</ele>
        <time>2022-10-28T11:08:37Z</time>
      </trkpt>
      <trkpt lat="44.44843" lon="3.62769">
        <ele>1452.4</ele>
        <time>2022-10-28T11:08:38Z</time>
      </trkpt>
      <trkpt lat="44.44845" lon="3.62768">
        <ele>1452.6</ele>
        <time>2022-10-28T11:08:39Z</time>
      </trkpt>
      <trkpt lat="44.44847" lon="3.62767">
        <ele>1452.8</ele>
        <time>2022-10-28T11:08:40Z</time>
      </trkpt>
      <trkpt lat="44.44849" lon="3.62766">
        <ele>1453</ele>
        <time>2022-10-28T11:08:41Z</time>
      </trkpt>
      <trkpt lat="44.44851" lon="3.62766">
        <ele>1453.2</ele>
        <time>2022-10-28T11:08:42Z</time>
      </trkpt>
      <trkpt lat="44.44853" lon="3.62765">
        <ele>1453.2</ele>
        <time>2022-10-28T11:08:43Z</time>
      </trkpt>
      <trkpt lat="44.44855" lon="3.62764">
        <ele>1453.4</ele>
        <time>2022-10-28T11:08:44Z</time>
      </trkpt>
      <trkpt lat="44.44856" lon="3.62763">
        <ele>1453.6</ele>
        <time>2022-10-28T11:08:45Z</time>
      </trkpt>
      <trkpt lat="44.44858" lon="3.62762">
        <ele>1453.8</ele>
        <time>2022-10-28T11:08:46Z</time>
      </trkpt>
      <trkpt lat="44.44861" lon="3.62761">
        <ele>1454</ele>
        <time>2022-10-28T11:08:47Z</time>
      </trkpt>
      <trkpt lat="44.44863" lon="3.62759">
        <ele>1454.2</ele>
        <time>2022-10-28T11:08:48Z</time>
      </trkpt>
      <trkpt lat="44.44865" lon="3.62757">
        <ele>1454.2</ele>
        <time>2022-10-28T11:08:49Z</time>
      </trkpt>
      <trkpt lat="44.44867" lon="3.62756">
        <ele>1454.4</ele>
        <time>2022-10-28T11:08:50Z</time>
      </trkpt>
      <trkpt lat="44.44869" lon="3.62754">
        <ele>1454.4</ele>
        <time>2022-10-28T11:08:51Z</time>
      </trkpt>
      <trkpt lat="44.44871" lon="3.62752">
        <ele>1454.6</ele>
        <time>2022-10-28T11:08:52Z</time>
      </trkpt>
      <trkpt lat="44.44873" lon="3.62751">
        <ele>1454.8</ele>
        <time>2022-10-28T11:08:53Z</time>
      </trkpt>
      <trkpt lat="44.44875" lon="3.62749">
        <ele>1455</ele>
        <time>2022-10-28T11:08:54Z</time>
      </trkpt>
      <trkpt lat="44.44876" lon="3.62747">
        <ele>1455</ele>
        <time>2022-10-28T11:08:55Z</time>
      </trkpt>
      <trkpt lat="44.44878" lon="3.62745">
        <ele>1455</ele>
        <time>2022-10-28T11:08:56Z</time>
      </trkpt>
      <trkpt lat="44.4488" lon="3.62743">
        <ele>1455.2</ele>
        <time>2022-10-28T11:08:57Z</time>
      </trkpt>
      <trkpt lat="44.44881" lon="3.62742">
        <ele>1455.2</ele>
        <time>2022-10-28T11:08:58Z</time>
      </trkpt>
      <trkpt lat="44.44883" lon="3.6274">
        <ele>1455.4</ele>
        <time>2022-10-28T11:08:59Z</time>
      </trkpt>
      <trkpt lat="44.44884" lon="3.62738">
        <ele>1455.4</ele>
        <time>2022-10-28T11:09:00Z</time>
      </trkpt>
      <trkpt lat="44.44885" lon="3.62738">
        <ele>1455.4</ele>
        <time>2022-10-28T11:09:01Z</time>
      </trkpt>
      <trkpt lat="44.44885" lon="3.62737">
        <ele>1455.6</ele>
        <time>2022-10-28T11:09:02Z</time>
      </trkpt>
      <trkpt lat="44.44888" lon="3.62735">
        <ele>1455.6</ele>
        <time>2022-10-28T11:09:03Z</time>
      </trkpt>
      <trkpt lat="44.44891" lon="3.62733">
        <ele>1455.8</ele>
        <time>2022-10-28T11:09:04Z</time>
      </trkpt>
      <trkpt lat="44.44892" lon="3.62732">
        <ele>1455.8</ele>
        <time>2022-10-28T11:09:05Z</time>
      </trkpt>
      <trkpt lat="44.44893" lon="3.62731">
        <ele>1456</ele>
        <time>2022-10-28T11:09:06Z</time>
      </trkpt>
      <trkpt lat="44.44895" lon="3.62729">
        <ele>1456.2</ele>
        <time>2022-10-28T11:09:07Z</time>
      </trkpt>
      <trkpt lat="44.44897" lon="3.62728">
        <ele>1456.2</ele>
        <time>2022-10-28T11:09:08Z</time>
      </trkpt>
      <trkpt lat="44.44898" lon="3.62727">
        <ele>1456.4</ele>
        <time>2022-10-28T11:09:09Z</time>
      </trkpt>
      <trkpt lat="44.449" lon="3.62726">
        <ele>1456.4</ele>
        <time>2022-10-28T11:09:10Z</time>
      </trkpt>
      <trkpt lat="44.44902" lon="3.62725">
        <ele>1456.6</ele>
        <time>2022-10-28T11:09:11Z</time>
      </trkpt>
      <trkpt lat="44.44903" lon="3.62724">
        <ele>1456.8</ele>
        <time>2022-10-28T11:09:12Z</time>
      </trkpt>
      <trkpt lat="44.44905" lon="3.62723">
        <ele>1457</ele>
        <time>2022-10-28T11:09:13Z</time>
      </trkpt>
      <trkpt lat="44.44907" lon="3.62722">
        <ele>1457</ele>
        <time>2022-10-28T11:09:14Z</time>
      </trkpt>
      <trkpt lat="44.44909" lon="3.62721">
        <ele>1457.2</ele>
        <time>2022-10-28T11:09:15Z</time>
      </trkpt>
      <trkpt lat="44.4491" lon="3.62721">
        <ele>1457.4</ele>
        <time>2022-10-28T11:09:16Z</time>
      </trkpt>
      <trkpt lat="44.44912" lon="3.6272">
        <ele>1457.6</ele>
        <time>2022-10-28T11:09:17Z</time>
      </trkpt>
      <trkpt lat="44.44914" lon="3.62719">
        <ele>1457.8</ele>
        <time>2022-10-28T11:09:18Z</time>
      </trkpt>
      <trkpt lat="44.44916" lon="3.62718">
        <ele>1458</ele>
        <time>2022-10-28T11:09:19Z</time>
      </trkpt>
      <trkpt lat="44.44917" lon="3.62718">
        <ele>1458.2</ele>
        <time>2022-10-28T11:09:20Z</time>
      </trkpt>
      <trkpt lat="44.44919" lon="3.62717">
        <ele>1458.2</ele>
        <time>2022-10-28T11:09:21Z</time>
      </trkpt>
      <trkpt lat="44.44921" lon="3.62717">
        <ele>1458.4</ele>
        <time>2022-10-28T11:09:22Z</time>
      </trkpt>
      <trkpt lat="44.44922" lon="3.62716">
        <ele>1458.6</ele>
        <time>2022-10-28T11:09:23Z</time>
      </trkpt>
      <trkpt lat="44.44924" lon="3.62716">
        <ele>1458.8</ele>
        <time>2022-10-28T11:09:24Z</time>
      </trkpt>
      <trkpt lat="44.44926" lon="3.62715">
        <ele>1459</ele>
        <time>2022-10-28T11:09:25Z</time>
      </trkpt>
      <trkpt lat="44.44928" lon="3.62715">
        <ele>1459</ele>
        <time>2022-10-28T11:09:26Z</time>
      </trkpt>
      <trkpt lat="44.4493" lon="3.62715">
        <ele>1459.2</ele>
        <time>2022-10-28T11:09:27Z</time>
      </trkpt>
      <trkpt lat="44.44932" lon="3.62715">
        <ele>1459.4</ele>
        <time>2022-10-28T11:09:28Z</time>
      </trkpt>
      <trkpt lat="44.44934" lon="3.62715">
        <ele>1459.6</ele>
        <time>2022-10-28T11:09:29Z</time>
      </trkpt>
      <trkpt lat="44.44936" lon="3.62715">
        <ele>1459.8</ele>
        <time>2022-10-28T11:09:30Z</time>
      </trkpt>
      <trkpt lat="44.44938" lon="3.62714">
        <ele>1460</ele>
        <time>2022-10-28T11:09:31Z</time>
      </trkpt>
      <trkpt lat="44.44939" lon="3.62713">
        <ele>1460</ele>
        <time>2022-10-28T11:09:32Z</time>
      </trkpt>
      <trkpt lat="44.44941" lon="3.62713">
        <ele>1460.2</ele>
        <time>2022-10-28T11:09:33Z</time>
      </trkpt>
      <trkpt lat="44.44943" lon="3.62712">
        <ele>1460.4</ele>
        <time>2022-10-28T11:09:34Z</time>
      </trkpt>
      <trkpt lat="44.44944" lon="3.62711">
        <ele>1460.6</ele>
        <time>2022-10-28T11:09:35Z</time>
      </trkpt>
      <trkpt lat="44.44945" lon="3.6271">
        <ele>1460.6</ele>
        <time>2022-10-28T11:09:36Z</time>
      </trkpt>
      <trkpt lat="44.44947" lon="3.62709">
        <ele>1460.8</ele>
        <time>2022-10-28T11:09:37Z</time>
      </trkpt>
      <trkpt lat="44.44948" lon="3.62706">
        <ele>1460.8</ele>
        <time>2022-10-28T11:09:38Z</time>
      </trkpt>
      <trkpt lat="44.4495" lon="3.62705">
        <ele>1460.8</ele>
        <time>2022-10-28T11:09:39Z</time>
      </trkpt>
      <trkpt lat="44.44951" lon="3.62702">
        <ele>1460.8</ele>
        <time>2022-10-28T11:09:40Z</time>
      </trkpt>
      <trkpt lat="44.44953" lon="3.627">
        <ele>1460.8</ele>
        <time>2022-10-28T11:09:41Z</time>
      </trkpt>
      <trkpt lat="44.44955" lon="3.62697">
        <ele>1460.8</ele>
        <time>2022-10-28T11:09:42Z</time>
      </trkpt>
      <trkpt lat="44.44957" lon="3.62696">
        <ele>1460.8</ele>
        <time>2022-10-28T11:09:43Z</time>
      </trkpt>
      <trkpt lat="44.44959" lon="3.62694">
        <ele>1460.8</ele>
        <time>2022-10-28T11:09:44Z</time>
      </trkpt>
      <trkpt lat="44.44961" lon="3.62693">
        <ele>1460.8</ele>
        <time>2022-10-28T11:09:45Z</time>
      </trkpt>
      <trkpt lat="44.44964" lon="3.62691">
        <ele>1460.8</ele>
        <time>2022-10-28T11:09:46Z</time>
      </trkpt>
      <trkpt lat="44.44967" lon="3.6269">
        <ele>1460.8</ele>
        <time>2022-10-28T11:09:47Z</time>
      </trkpt>
      <trkpt lat="44.44969" lon="3.62688">
        <ele>1461</ele>
        <time>2022-10-28T11:09:48Z</time>
      </trkpt>
      <trkpt lat="44.44972" lon="3.62686">
        <ele>1461</ele>
        <time>2022-10-28T11:09:49Z</time>
      </trkpt>
      <trkpt lat="44.44975" lon="3.62684">
        <ele>1461</ele>
        <time>2022-10-28T11:09:50Z</time>
      </trkpt>
      <trkpt lat="44.44978" lon="3.62682">
        <ele>1461.2</ele>
        <time>2022-10-28T11:09:51Z</time>
      </trkpt>
      <trkpt lat="44.44981" lon="3.62681">
        <ele>1461.2</ele>
        <time>2022-10-28T11:09:52Z</time>
      </trkpt>
      <trkpt lat="44.44984" lon="3.6268">
        <ele>1461.4</ele>
        <time>2022-10-28T11:09:53Z</time>
      </trkpt>
      <trkpt lat="44.44988" lon="3.62679">
        <ele>1461.4</ele>
        <time>2022-10-28T11:09:54Z</time>
      </trkpt>
      <trkpt lat="44.44991" lon="3.62678">
        <ele>1461.4</ele>
        <time>2022-10-28T11:09:55Z</time>
      </trkpt>
      <trkpt lat="44.44993" lon="3.62677">
        <ele>1461.4</ele>
        <time>2022-10-28T11:09:56Z</time>
      </trkpt>
      <trkpt lat="44.44995" lon="3.62676">
        <ele>1461.6</ele>
        <time>2022-10-28T11:09:57Z</time>
      </trkpt>
      <trkpt lat="44.44997" lon="3.62676">
        <ele>1461.6</ele>
        <time>2022-10-28T11:09:58Z</time>
      </trkpt>
      <trkpt lat="44.44999" lon="3.62676">
        <ele>1461.8</ele>
        <time>2022-10-28T11:09:59Z</time>
      </trkpt>
      <trkpt lat="44.45002" lon="3.62676">
        <ele>1462</ele>
        <time>2022-10-28T11:10:00Z</time>
      </trkpt>
      <trkpt lat="44.45004" lon="3.62676">
        <ele>1462</ele>
        <time>2022-10-28T11:10:01Z</time>
      </trkpt>
      <trkpt lat="44.45007" lon="3.62676">
        <ele>1462.2</ele>
        <time>2022-10-28T11:10:02Z</time>
      </trkpt>
      <trkpt lat="44.4501" lon="3.62675">
        <ele>1462.2</ele>
        <time>2022-10-28T11:10:03Z</time>
      </trkpt>
      <trkpt lat="44.45013" lon="3.62674">
        <ele>1462.2</ele>
        <time>2022-10-28T11:10:04Z</time>
      </trkpt>
      <trkpt lat="44.45016" lon="3.62673">
        <ele>1462.4</ele>
        <time>2022-10-28T11:10:05Z</time>
      </trkpt>
      <trkpt lat="44.45019" lon="3.62672">
        <ele>1462.4</ele>
        <time>2022-10-28T11:10:06Z</time>
      </trkpt>
      <trkpt lat="44.45022" lon="3.62672">
        <ele>1462.6</ele>
        <time>2022-10-28T11:10:07Z</time>
      </trkpt>
      <trkpt lat="44.45024" lon="3.62671">
        <ele>1462.6</ele>
        <time>2022-10-28T11:10:08Z</time>
      </trkpt>
      <trkpt lat="44.45027" lon="3.6267">
        <ele>1462.6</ele>
        <time>2022-10-28T11:10:09Z</time>
      </trkpt>
      <trkpt lat="44.45029" lon="3.6267">
        <ele>1462.8</ele>
        <time>2022-10-28T11:10:10Z</time>
      </trkpt>
      <trkpt lat="44.45032" lon="3.6267">
        <ele>1462.8</ele>
        <time>2022-10-28T11:10:11Z</time>
      </trkpt>
      <trkpt lat="44.45035" lon="3.62669">
        <ele>1463</ele>
        <time>2022-10-28T11:10:12Z</time>
      </trkpt>
      <trkpt lat="44.45037" lon="3.62668">
        <ele>1463</ele>
        <time>2022-10-28T11:10:13Z</time>
      </trkpt>
      <trkpt lat="44.4504" lon="3.62667">
        <ele>1463.2</ele>
        <time>2022-10-28T11:10:14Z</time>
      </trkpt>
      <trkpt lat="44.45043" lon="3.62666">
        <ele>1463.2</ele>
        <time>2022-10-28T11:10:15Z</time>
      </trkpt>
      <trkpt lat="44.45046" lon="3.62664">
        <ele>1463.4</ele>
        <time>2022-10-28T11:10:16Z</time>
      </trkpt>
      <trkpt lat="44.45049" lon="3.62663">
        <ele>1463.6</ele>
        <time>2022-10-28T11:10:17Z</time>
      </trkpt>
      <trkpt lat="44.45051" lon="3.62662">
        <ele>1463.6</ele>
        <time>2022-10-28T11:10:18Z</time>
      </trkpt>
      <trkpt lat="44.45054" lon="3.6266">
        <ele>1463.8</ele>
        <time>2022-10-28T11:10:19Z</time>
      </trkpt>
      <trkpt lat="44.45057" lon="3.62659">
        <ele>1463.8</ele>
        <time>2022-10-28T11:10:20Z</time>
      </trkpt>
      <trkpt lat="44.45059" lon="3.62658">
        <ele>1464</ele>
        <time>2022-10-28T11:10:21Z</time>
      </trkpt>
      <trkpt lat="44.45062" lon="3.62656">
        <ele>1464</ele>
        <time>2022-10-28T11:10:22Z</time>
      </trkpt>
      <trkpt lat="44.45064" lon="3.62654">
        <ele>1464.2</ele>
        <time>2022-10-28T11:10:23Z</time>
      </trkpt>
      <trkpt lat="44.45066" lon="3.62653">
        <ele>1464.4</ele>
        <time>2022-10-28T11:10:24Z</time>
      </trkpt>
      <trkpt lat="44.45068" lon="3.62651">
        <ele>1464.4</ele>
        <time>2022-10-28T11:10:25Z</time>
      </trkpt>
      <trkpt lat="44.4507" lon="3.6265">
        <ele>1464.6</ele>
        <time>2022-10-28T11:10:26Z</time>
      </trkpt>
      <trkpt lat="44.45073" lon="3.62649">
        <ele>1464.8</ele>
        <time>2022-10-28T11:10:27Z</time>
      </trkpt>
      <trkpt lat="44.45076" lon="3.62648">
        <ele>1464.8</ele>
        <time>2022-10-28T11:10:28Z</time>
      </trkpt>
      <trkpt lat="44.45079" lon="3.62646">
        <ele>1465</ele>
        <time>2022-10-28T11:10:29Z</time>
      </trkpt>
      <trkpt lat="44.45081" lon="3.62645">
        <ele>1465.2</ele>
        <time>2022-10-28T11:10:30Z</time>
      </trkpt>
      <trkpt lat="44.45083" lon="3.62643">
        <ele>1465.4</ele>
        <time>2022-10-28T11:10:31Z</time>
      </trkpt>
      <trkpt lat="44.45085" lon="3.62642">
        <ele>1465.6</ele>
        <time>2022-10-28T11:10:32Z</time>
      </trkpt>
      <trkpt lat="44.45087" lon="3.62641">
        <ele>1465.8</ele>
        <time>2022-10-28T11:10:33Z</time>
      </trkpt>
      <trkpt lat="44.4509" lon="3.62641">
        <ele>1466</ele>
        <time>2022-10-28T11:10:34Z</time>
      </trkpt>
      <trkpt lat="44.45092" lon="3.62641">
        <ele>1466.4</ele>
        <time>2022-10-28T11:10:35Z</time>
      </trkpt>
      <trkpt lat="44.45095" lon="3.62641">
        <ele>1466.6</ele>
        <time>2022-10-28T11:10:36Z</time>
      </trkpt>
      <trkpt lat="44.45097" lon="3.6264">
        <ele>1466.8</ele>
        <time>2022-10-28T11:10:37Z</time>
      </trkpt>
      <trkpt lat="44.45098" lon="3.62639">
        <ele>1467</ele>
        <time>2022-10-28T11:10:38Z</time>
      </trkpt>
      <trkpt lat="44.45099" lon="3.62638">
        <ele>1467.2</ele>
        <time>2022-10-28T11:10:39Z</time>
      </trkpt>
      <trkpt lat="44.45101" lon="3.62637">
        <ele>1467.4</ele>
        <time>2022-10-28T11:10:40Z</time>
      </trkpt>
      <trkpt lat="44.45103" lon="3.62636">
        <ele>1467.6</ele>
        <time>2022-10-28T11:10:41Z</time>
      </trkpt>
      <trkpt lat="44.45104" lon="3.62635">
        <ele>1467.8</ele>
        <time>2022-10-28T11:10:42Z</time>
      </trkpt>
      <trkpt lat="44.45106" lon="3.62633">
        <ele>1468</ele>
        <time>2022-10-28T11:10:43Z</time>
      </trkpt>
      <trkpt lat="44.45108" lon="3.62632">
        <ele>1468</ele>
        <time>2022-10-28T11:10:44Z</time>
      </trkpt>
      <trkpt lat="44.4511" lon="3.6263">
        <ele>1468.2</ele>
        <time>2022-10-28T11:10:45Z</time>
      </trkpt>
      <trkpt lat="44.45112" lon="3.62629">
        <ele>1468.4</ele>
        <time>2022-10-28T11:10:46Z</time>
      </trkpt>
      <trkpt lat="44.45114" lon="3.62628">
        <ele>1468.6</ele>
        <time>2022-10-28T11:10:47Z</time>
      </trkpt>
      <trkpt lat="44.45115" lon="3.62627">
        <ele>1468.8</ele>
        <time>2022-10-28T11:10:48Z</time>
      </trkpt>
      <trkpt lat="44.45117" lon="3.62626">
        <ele>1468.8</ele>
        <time>2022-10-28T11:10:49Z</time>
      </trkpt>
      <trkpt lat="44.45118" lon="3.62624">
        <ele>1469</ele>
        <time>2022-10-28T11:10:50Z</time>
      </trkpt>
      <trkpt lat="44.4512" lon="3.62623">
        <ele>1469.2</ele>
        <time>2022-10-28T11:10:51Z</time>
      </trkpt>
      <trkpt lat="44.45122" lon="3.62621">
        <ele>1469.4</ele>
        <time>2022-10-28T11:10:52Z</time>
      </trkpt>
      <trkpt lat="44.45123" lon="3.6262">
        <ele>1469.6</ele>
        <time>2022-10-28T11:10:53Z</time>
      </trkpt>
      <trkpt lat="44.45125" lon="3.62618">
        <ele>1469.8</ele>
        <time>2022-10-28T11:10:54Z</time>
      </trkpt>
      <trkpt lat="44.45127" lon="3.62616">
        <ele>1470</ele>
        <time>2022-10-28T11:10:55Z</time>
      </trkpt>
      <trkpt lat="44.45128" lon="3.62614">
        <ele>1470.2</ele>
        <time>2022-10-28T11:10:56Z</time>
      </trkpt>
      <trkpt lat="44.4513" lon="3.62612">
        <ele>1470.4</ele>
        <time>2022-10-28T11:10:57Z</time>
      </trkpt>
      <trkpt lat="44.45131" lon="3.6261">
        <ele>1470.6</ele>
        <time>2022-10-28T11:10:58Z</time>
      </trkpt>
      <trkpt lat="44.45133" lon="3.62607">
        <ele>1470.6</ele>
        <time>2022-10-28T11:10:59Z</time>
      </trkpt>
      <trkpt lat="44.45135" lon="3.62604">
        <ele>1470.8</ele>
        <time>2022-10-28T11:11:00Z</time>
      </trkpt>
      <trkpt lat="44.45137" lon="3.62601">
        <ele>1471</ele>
        <time>2022-10-28T11:11:01Z</time>
      </trkpt>
      <trkpt lat="44.45138" lon="3.62599">
        <ele>1471.2</ele>
        <time>2022-10-28T11:11:02Z</time>
      </trkpt>
      <trkpt lat="44.45139" lon="3.62597">
        <ele>1471.2</ele>
        <time>2022-10-28T11:11:03Z</time>
      </trkpt>
      <trkpt lat="44.45141" lon="3.62595">
        <ele>1471.4</ele>
        <time>2022-10-28T11:11:04Z</time>
      </trkpt>
      <trkpt lat="44.45143" lon="3.62593">
        <ele>1471.6</ele>
        <time>2022-10-28T11:11:05Z</time>
      </trkpt>
      <trkpt lat="44.45145" lon="3.62592">
        <ele>1471.6</ele>
        <time>2022-10-28T11:11:06Z</time>
      </trkpt>
      <trkpt lat="44.45146" lon="3.6259">
        <ele>1471.8</ele>
        <time>2022-10-28T11:11:07Z</time>
      </trkpt>
      <trkpt lat="44.45148" lon="3.62589">
        <ele>1471.8</ele>
        <time>2022-10-28T11:11:08Z</time>
      </trkpt>
      <trkpt lat="44.4515" lon="3.62587">
        <ele>1472</ele>
        <time>2022-10-28T11:11:09Z</time>
      </trkpt>
      <trkpt lat="44.45152" lon="3.62585">
        <ele>1472</ele>
        <time>2022-10-28T11:11:10Z</time>
      </trkpt>
      <trkpt lat="44.45153" lon="3.62584">
        <ele>1472.2</ele>
        <time>2022-10-28T11:11:11Z</time>
      </trkpt>
      <trkpt lat="44.45155" lon="3.62582">
        <ele>1472.2</ele>
        <time>2022-10-28T11:11:12Z</time>
      </trkpt>
      <trkpt lat="44.45157" lon="3.6258">
        <ele>1472.4</ele>
        <time>2022-10-28T11:11:13Z</time>
      </trkpt>
      <trkpt lat="44.45159" lon="3.62579">
        <ele>1472.4</ele>
        <time>2022-10-28T11:11:14Z</time>
      </trkpt>
      <trkpt lat="44.45161" lon="3.62577">
        <ele>1472.6</ele>
        <time>2022-10-28T11:11:15Z</time>
      </trkpt>
      <trkpt lat="44.45163" lon="3.62576">
        <ele>1472.6</ele>
        <time>2022-10-28T11:11:16Z</time>
      </trkpt>
      <trkpt lat="44.45164" lon="3.62574">
        <ele>1472.8</ele>
        <time>2022-10-28T11:11:17Z</time>
      </trkpt>
      <trkpt lat="44.45166" lon="3.62572">
        <ele>1473</ele>
        <time>2022-10-28T11:11:18Z</time>
      </trkpt>
      <trkpt lat="44.45168" lon="3.6257">
        <ele>1473</ele>
        <time>2022-10-28T11:11:19Z</time>
      </trkpt>
      <trkpt lat="44.4517" lon="3.62568">
        <ele>1473.2</ele>
        <time>2022-10-28T11:11:20Z</time>
      </trkpt>
      <trkpt lat="44.45173" lon="3.62566">
        <ele>1473.4</ele>
        <time>2022-10-28T11:11:21Z</time>
      </trkpt>
      <trkpt lat="44.45175" lon="3.62565">
        <ele>1473.4</ele>
        <time>2022-10-28T11:11:22Z</time>
      </trkpt>
      <trkpt lat="44.45177" lon="3.62564">
        <ele>1473.6</ele>
        <time>2022-10-28T11:11:23Z</time>
      </trkpt>
      <trkpt lat="44.45179" lon="3.62563">
        <ele>1473.8</ele>
        <time>2022-10-28T11:11:24Z</time>
      </trkpt>
      <trkpt lat="44.45181" lon="3.62563">
        <ele>1474</ele>
        <time>2022-10-28T11:11:25Z</time>
      </trkpt>
      <trkpt lat="44.45184" lon="3.62562">
        <ele>1474.2</ele>
        <time>2022-10-28T11:11:26Z</time>
      </trkpt>
      <trkpt lat="44.45186" lon="3.62562">
        <ele>1474.2</ele>
        <time>2022-10-28T11:11:27Z</time>
      </trkpt>
      <trkpt lat="44.45189" lon="3.62563">
        <ele>1474.4</ele>
        <time>2022-10-28T11:11:28Z</time>
      </trkpt>
      <trkpt lat="44.45192" lon="3.62563">
        <ele>1474.6</ele>
        <time>2022-10-28T11:11:29Z</time>
      </trkpt>
      <trkpt lat="44.45194" lon="3.62564">
        <ele>1474.6</ele>
        <time>2022-10-28T11:11:30Z</time>
      </trkpt>
      <trkpt lat="44.45197" lon="3.62565">
        <ele>1474.8</ele>
        <time>2022-10-28T11:11:31Z</time>
      </trkpt>
      <trkpt lat="44.45199" lon="3.62566">
        <ele>1475</ele>
        <time>2022-10-28T11:11:32Z</time>
      </trkpt>
      <trkpt lat="44.45201" lon="3.62567">
        <ele>1475</ele>
        <time>2022-10-28T11:11:33Z</time>
      </trkpt>
      <trkpt lat="44.45204" lon="3.62569">
        <ele>1475.2</ele>
        <time>2022-10-28T11:11:34Z</time>
      </trkpt>
      <trkpt lat="44.45206" lon="3.6257">
        <ele>1475.4</ele>
        <time>2022-10-28T11:11:35Z</time>
      </trkpt>
      <trkpt lat="44.45208" lon="3.62572">
        <ele>1475.6</ele>
        <time>2022-10-28T11:11:36Z</time>
      </trkpt>
      <trkpt lat="44.4521" lon="3.62574">
        <ele>1475.8</ele>
        <time>2022-10-28T11:11:37Z</time>
      </trkpt>
      <trkpt lat="44.45212" lon="3.62576">
        <ele>1475.8</ele>
        <time>2022-10-28T11:11:38Z</time>
      </trkpt>
      <trkpt lat="44.45214" lon="3.62578">
        <ele>1476</ele>
        <time>2022-10-28T11:11:39Z</time>
      </trkpt>
      <trkpt lat="44.45216" lon="3.6258">
        <ele>1476</ele>
        <time>2022-10-28T11:11:40Z</time>
      </trkpt>
      <trkpt lat="44.45218" lon="3.62582">
        <ele>1476.2</ele>
        <time>2022-10-28T11:11:41Z</time>
      </trkpt>
      <trkpt lat="44.4522" lon="3.62584">
        <ele>1476.4</ele>
        <time>2022-10-28T11:11:42Z</time>
      </trkpt>
      <trkpt lat="44.45222" lon="3.62585">
        <ele>1476.6</ele>
        <time>2022-10-28T11:11:43Z</time>
      </trkpt>
      <trkpt lat="44.45224" lon="3.62587">
        <ele>1476.6</ele>
        <time>2022-10-28T11:11:44Z</time>
      </trkpt>
      <trkpt lat="44.45227" lon="3.62589">
        <ele>1476.8</ele>
        <time>2022-10-28T11:11:45Z</time>
      </trkpt>
      <trkpt lat="44.45229" lon="3.62591">
        <ele>1476.8</ele>
        <time>2022-10-28T11:11:46Z</time>
      </trkpt>
      <trkpt lat="44.45231" lon="3.62593">
        <ele>1477</ele>
        <time>2022-10-28T11:11:47Z</time>
      </trkpt>
      <trkpt lat="44.45233" lon="3.62594">
        <ele>1477.2</ele>
        <time>2022-10-28T11:11:48Z</time>
      </trkpt>
      <trkpt lat="44.45234" lon="3.62596">
        <ele>1477.2</ele>
        <time>2022-10-28T11:11:49Z</time>
      </trkpt>
      <trkpt lat="44.45236" lon="3.62599">
        <ele>1477.4</ele>
        <time>2022-10-28T11:11:50Z</time>
      </trkpt>
      <trkpt lat="44.45237" lon="3.62601">
        <ele>1477.6</ele>
        <time>2022-10-28T11:11:51Z</time>
      </trkpt>
      <trkpt lat="44.45239" lon="3.62602">
        <ele>1477.6</ele>
        <time>2022-10-28T11:11:52Z</time>
      </trkpt>
      <trkpt lat="44.45241" lon="3.62604">
        <ele>1477.6</ele>
        <time>2022-10-28T11:11:53Z</time>
      </trkpt>
      <trkpt lat="44.45243" lon="3.62605">
        <ele>1477.8</ele>
        <time>2022-10-28T11:11:54Z</time>
      </trkpt>
      <trkpt lat="44.45245" lon="3.62606">
        <ele>1477.8</ele>
        <time>2022-10-28T11:11:55Z</time>
      </trkpt>
      <trkpt lat="44.45248" lon="3.62607">
        <ele>1477.8</ele>
        <time>2022-10-28T11:11:56Z</time>
      </trkpt>
      <trkpt lat="44.4525" lon="3.62608">
        <ele>1478</ele>
        <time>2022-10-28T11:11:57Z</time>
      </trkpt>
      <trkpt lat="44.45253" lon="3.62609">
        <ele>1478</ele>
        <time>2022-10-28T11:11:58Z</time>
      </trkpt>
      <trkpt lat="44.45256" lon="3.6261">
        <ele>1478</ele>
        <time>2022-10-28T11:11:59Z</time>
      </trkpt>
      <trkpt lat="44.45259" lon="3.62611">
        <ele>1478.2</ele>
        <time>2022-10-28T11:12:00Z</time>
      </trkpt>
      <trkpt lat="44.45262" lon="3.62612">
        <ele>1478.2</ele>
        <time>2022-10-28T11:12:01Z</time>
      </trkpt>
      <trkpt lat="44.45265" lon="3.62612">
        <ele>1478.2</ele>
        <time>2022-10-28T11:12:02Z</time>
      </trkpt>
      <trkpt lat="44.45268" lon="3.62613">
        <ele>1478.2</ele>
        <time>2022-10-28T11:12:03Z</time>
      </trkpt>
      <trkpt lat="44.45271" lon="3.62613">
        <ele>1478.2</ele>
        <time>2022-10-28T11:12:04Z</time>
      </trkpt>
      <trkpt lat="44.45274" lon="3.62613">
        <ele>1478.2</ele>
        <time>2022-10-28T11:12:05Z</time>
      </trkpt>
      <trkpt lat="44.45277" lon="3.62612">
        <ele>1478.4</ele>
        <time>2022-10-28T11:12:06Z</time>
      </trkpt>
      <trkpt lat="44.4528" lon="3.62612">
        <ele>1478.4</ele>
        <time>2022-10-28T11:12:07Z</time>
      </trkpt>
      <trkpt lat="44.45282" lon="3.62612">
        <ele>1478.4</ele>
        <time>2022-10-28T11:12:08Z</time>
      </trkpt>
      <trkpt lat="44.45285" lon="3.62612">
        <ele>1478.4</ele>
        <time>2022-10-28T11:12:09Z</time>
      </trkpt>
      <trkpt lat="44.45288" lon="3.62612">
        <ele>1478.4</ele>
        <time>2022-10-28T11:12:10Z</time>
      </trkpt>
      <trkpt lat="44.45291" lon="3.62613">
        <ele>1478.4</ele>
        <time>2022-10-28T11:12:11Z</time>
      </trkpt>
      <trkpt lat="44.45294" lon="3.62613">
        <ele>1478.4</ele>
        <time>2022-10-28T11:12:12Z</time>
      </trkpt>
      <trkpt lat="44.45298" lon="3.62613">
        <ele>1478.6</ele>
        <time>2022-10-28T11:12:13Z</time>
      </trkpt>
      <trkpt lat="44.453" lon="3.62613">
        <ele>1478.6</ele>
        <time>2022-10-28T11:12:14Z</time>
      </trkpt>
      <trkpt lat="44.45304" lon="3.62613">
        <ele>1478.6</ele>
        <time>2022-10-28T11:12:15Z</time>
      </trkpt>
      <trkpt lat="44.45307" lon="3.62613">
        <ele>1478.6</ele>
        <time>2022-10-28T11:12:16Z</time>
      </trkpt>
      <trkpt lat="44.45311" lon="3.62613">
        <ele>1478.6</ele>
        <time>2022-10-28T11:12:17Z</time>
      </trkpt>
      <trkpt lat="44.45314" lon="3.62613">
        <ele>1478.6</ele>
        <time>2022-10-28T11:12:18Z</time>
      </trkpt>
      <trkpt lat="44.45318" lon="3.62613">
        <ele>1478.6</ele>
        <time>2022-10-28T11:12:19Z</time>
      </trkpt>
      <trkpt lat="44.45321" lon="3.62613">
        <ele>1478.6</ele>
        <time>2022-10-28T11:12:20Z</time>
      </trkpt>
      <trkpt lat="44.45323" lon="3.62612">
        <ele>1478.6</ele>
        <time>2022-10-28T11:12:21Z</time>
      </trkpt>
      <trkpt lat="44.45326" lon="3.62612">
        <ele>1478.6</ele>
        <time>2022-10-28T11:12:22Z</time>
      </trkpt>
      <trkpt lat="44.45328" lon="3.62612">
        <ele>1478.6</ele>
        <time>2022-10-28T11:12:23Z</time>
      </trkpt>
      <trkpt lat="44.45331" lon="3.62611">
        <ele>1478.8</ele>
        <time>2022-10-28T11:12:24Z</time>
      </trkpt>
      <trkpt lat="44.45333" lon="3.62611">
        <ele>1478.8</ele>
        <time>2022-10-28T11:12:25Z</time>
      </trkpt>
      <trkpt lat="44.45336" lon="3.62611">
        <ele>1478.8</ele>
        <time>2022-10-28T11:12:26Z</time>
      </trkpt>
      <trkpt lat="44.45339" lon="3.6261">
        <ele>1478.8</ele>
        <time>2022-10-28T11:12:27Z</time>
      </trkpt>
      <trkpt lat="44.45341" lon="3.6261">
        <ele>1479</ele>
        <time>2022-10-28T11:12:28Z</time>
      </trkpt>
      <trkpt lat="44.45344" lon="3.6261">
        <ele>1479</ele>
        <time>2022-10-28T11:12:29Z</time>
      </trkpt>
      <trkpt lat="44.45347" lon="3.62609">
        <ele>1479</ele>
        <time>2022-10-28T11:12:30Z</time>
      </trkpt>
      <trkpt lat="44.45351" lon="3.62608">
        <ele>1479.2</ele>
        <time>2022-10-28T11:12:31Z</time>
      </trkpt>
      <trkpt lat="44.45354" lon="3.62608">
        <ele>1479.2</ele>
        <time>2022-10-28T11:12:32Z</time>
      </trkpt>
      <trkpt lat="44.45357" lon="3.62607">
        <ele>1479.4</ele>
        <time>2022-10-28T11:12:33Z</time>
      </trkpt>
      <trkpt lat="44.45361" lon="3.62607">
        <ele>1479.4</ele>
        <time>2022-10-28T11:12:34Z</time>
      </trkpt>
      <trkpt lat="44.45364" lon="3.62606">
        <ele>1479.4</ele>
        <time>2022-10-28T11:12:35Z</time>
      </trkpt>
      <trkpt lat="44.45367" lon="3.62606">
        <ele>1479.6</ele>
        <time>2022-10-28T11:12:36Z</time>
      </trkpt>
      <trkpt lat="44.4537" lon="3.62605">
        <ele>1479.6</ele>
        <time>2022-10-28T11:12:37Z</time>
      </trkpt>
      <trkpt lat="44.45374" lon="3.62605">
        <ele>1479.8</ele>
        <time>2022-10-28T11:12:38Z</time>
      </trkpt>
      <trkpt lat="44.45377" lon="3.62604">
        <ele>1479.8</ele>
        <time>2022-10-28T11:12:39Z</time>
      </trkpt>
      <trkpt lat="44.4538" lon="3.62603">
        <ele>1479.8</ele>
        <time>2022-10-28T11:12:40Z</time>
      </trkpt>
      <trkpt lat="44.45382" lon="3.62603">
        <ele>1480</ele>
        <time>2022-10-28T11:12:41Z</time>
      </trkpt>
      <trkpt lat="44.45385" lon="3.62602">
        <ele>1480</ele>
        <time>2022-10-28T11:12:42Z</time>
      </trkpt>
      <trkpt lat="44.45388" lon="3.62602">
        <ele>1480</ele>
        <time>2022-10-28T11:12:43Z</time>
      </trkpt>
      <trkpt lat="44.45391" lon="3.62601">
        <ele>1480</ele>
        <time>2022-10-28T11:12:44Z</time>
      </trkpt>
      <trkpt lat="44.45395" lon="3.62601">
        <ele>1480.2</ele>
        <time>2022-10-28T11:12:45Z</time>
      </trkpt>
      <trkpt lat="44.45398" lon="3.62601">
        <ele>1480.2</ele>
        <time>2022-10-28T11:12:46Z</time>
      </trkpt>
      <trkpt lat="44.45401" lon="3.62601">
        <ele>1480.4</ele>
        <time>2022-10-28T11:12:47Z</time>
      </trkpt>
      <trkpt lat="44.45403" lon="3.62601">
        <ele>1480.6</ele>
        <time>2022-10-28T11:12:48Z</time>
      </trkpt>
      <trkpt lat="44.45406" lon="3.62601">
        <ele>1480.6</ele>
        <time>2022-10-28T11:12:49Z</time>
      </trkpt>
      <trkpt lat="44.45409" lon="3.62601">
        <ele>1480.8</ele>
        <time>2022-10-28T11:12:50Z</time>
      </trkpt>
      <trkpt lat="44.45412" lon="3.62601">
        <ele>1481</ele>
        <time>2022-10-28T11:12:51Z</time>
      </trkpt>
      <trkpt lat="44.45415" lon="3.62601">
        <ele>1481</ele>
        <time>2022-10-28T11:12:52Z</time>
      </trkpt>
      <trkpt lat="44.45417" lon="3.62602">
        <ele>1481</ele>
        <time>2022-10-28T11:12:53Z</time>
      </trkpt>
      <trkpt lat="44.45421" lon="3.62602">
        <ele>1481.2</ele>
        <time>2022-10-28T11:12:54Z</time>
      </trkpt>
      <trkpt lat="44.45424" lon="3.62603">
        <ele>1481.2</ele>
        <time>2022-10-28T11:12:55Z</time>
      </trkpt>
      <trkpt lat="44.45427" lon="3.62603">
        <ele>1481.2</ele>
        <time>2022-10-28T11:12:56Z</time>
      </trkpt>
      <trkpt lat="44.4543" lon="3.62604">
        <ele>1481.2</ele>
        <time>2022-10-28T11:12:57Z</time>
      </trkpt>
      <trkpt lat="44.45433" lon="3.62605">
        <ele>1481.2</ele>
        <time>2022-10-28T11:12:58Z</time>
      </trkpt>
      <trkpt lat="44.45435" lon="3.62606">
        <ele>1481.4</ele>
        <time>2022-10-28T11:12:59Z</time>
      </trkpt>
      <trkpt lat="44.45437" lon="3.62606">
        <ele>1481.4</ele>
        <time>2022-10-28T11:13:00Z</time>
      </trkpt>
      <trkpt lat="44.4544" lon="3.62607">
        <ele>1481.2</ele>
        <time>2022-10-28T11:13:01Z</time>
      </trkpt>
      <trkpt lat="44.45442" lon="3.62607">
        <ele>1481.2</ele>
        <time>2022-10-28T11:13:02Z</time>
      </trkpt>
      <trkpt lat="44.45443" lon="3.62607">
        <ele>1481.2</ele>
        <time>2022-10-28T11:13:03Z</time>
      </trkpt>
      <trkpt lat="44.45444" lon="3.62607">
        <ele>1481.2</ele>
        <time>2022-10-28T11:13:04Z</time>
      </trkpt>
      <trkpt lat="44.45444" lon="3.62607">
        <ele>1481.2</ele>
        <time>2022-10-28T11:13:57Z</time>
      </trkpt>
      <trkpt lat="44.45445" lon="3.62607">
        <ele>1481.2</ele>
        <time>2022-10-28T11:13:58Z</time>
      </trkpt>
      <trkpt lat="44.45447" lon="3.62608">
        <ele>1481.2</ele>
        <time>2022-10-28T11:13:59Z</time>
      </trkpt>
      <trkpt lat="44.4545" lon="3.62608">
        <ele>1481</ele>
        <time>2022-10-28T11:14:00Z</time>
      </trkpt>
      <trkpt lat="44.45452" lon="3.62609">
        <ele>1481</ele>
        <time>2022-10-28T11:14:01Z</time>
      </trkpt>
      <trkpt lat="44.45454" lon="3.6261">
        <ele>1481</ele>
        <time>2022-10-28T11:14:02Z</time>
      </trkpt>
      <trkpt lat="44.45457" lon="3.62611">
        <ele>1480.8</ele>
        <time>2022-10-28T11:14:03Z</time>
      </trkpt>
      <trkpt lat="44.4546" lon="3.62612">
        <ele>1480.8</ele>
        <time>2022-10-28T11:14:04Z</time>
      </trkpt>
      <trkpt lat="44.45463" lon="3.62613">
        <ele>1480.8</ele>
        <time>2022-10-28T11:14:05Z</time>
      </trkpt>
      <trkpt lat="44.45466" lon="3.62614">
        <ele>1480.8</ele>
        <time>2022-10-28T11:14:06Z</time>
      </trkpt>
      <trkpt lat="44.4547" lon="3.62615">
        <ele>1480.6</ele>
        <time>2022-10-28T11:14:07Z</time>
      </trkpt>
      <trkpt lat="44.45473" lon="3.62617">
        <ele>1480.4</ele>
        <time>2022-10-28T11:14:08Z</time>
      </trkpt>
      <trkpt lat="44.45477" lon="3.62618">
        <ele>1480.4</ele>
        <time>2022-10-28T11:14:09Z</time>
      </trkpt>
      <trkpt lat="44.4548" lon="3.62619">
        <ele>1480.2</ele>
        <time>2022-10-28T11:14:10Z</time>
      </trkpt>
      <trkpt lat="44.45485" lon="3.6262">
        <ele>1480</ele>
        <time>2022-10-28T11:14:11Z</time>
      </trkpt>
      <trkpt lat="44.45489" lon="3.62621">
        <ele>1479.8</ele>
        <time>2022-10-28T11:14:12Z</time>
      </trkpt>
      <trkpt lat="44.45494" lon="3.62622">
        <ele>1479.6</ele>
        <time>2022-10-28T11:14:13Z</time>
      </trkpt>
      <trkpt lat="44.45499" lon="3.62622">
        <ele>1479.2</ele>
        <time>2022-10-28T11:14:14Z</time>
      </trkpt>
      <trkpt lat="44.45503" lon="3.62622">
        <ele>1479</ele>
        <time>2022-10-28T11:14:15Z</time>
      </trkpt>
      <trkpt lat="44.45507" lon="3.62623">
        <ele>1478.8</ele>
        <time>2022-10-28T11:14:16Z</time>
      </trkpt>
      <trkpt lat="44.4551" lon="3.62623">
        <ele>1478.6</ele>
        <time>2022-10-28T11:14:17Z</time>
      </trkpt>
      <trkpt lat="44.45513" lon="3.62624">
        <ele>1478.4</ele>
        <time>2022-10-28T11:14:18Z</time>
      </trkpt>
      <trkpt lat="44.45516" lon="3.62626">
        <ele>1478.4</ele>
        <time>2022-10-28T11:14:19Z</time>
      </trkpt>
      <trkpt lat="44.45518" lon="3.62627">
        <ele>1478.4</ele>
        <time>2022-10-28T11:14:20Z</time>
      </trkpt>
      <trkpt lat="44.45521" lon="3.62627">
        <ele>1478.2</ele>
        <time>2022-10-28T11:14:21Z</time>
      </trkpt>
      <trkpt lat="44.45524" lon="3.62628">
        <ele>1478</ele>
        <time>2022-10-28T11:14:22Z</time>
      </trkpt>
      <trkpt lat="44.45527" lon="3.62628">
        <ele>1477.8</ele>
        <time>2022-10-28T11:14:23Z</time>
      </trkpt>
      <trkpt lat="44.4553" lon="3.62629">
        <ele>1477.6</ele>
        <time>2022-10-28T11:14:24Z</time>
      </trkpt>
      <trkpt lat="44.45532" lon="3.62629">
        <ele>1477.4</ele>
        <time>2022-10-28T11:14:25Z</time>
      </trkpt>
      <trkpt lat="44.45535" lon="3.6263">
        <ele>1477.2</ele>
        <time>2022-10-28T11:14:26Z</time>
      </trkpt>
      <trkpt lat="44.45536" lon="3.6263">
        <ele>1477.2</ele>
        <time>2022-10-28T11:14:27Z</time>
      </trkpt>
      <trkpt lat="44.45537" lon="3.6263">
        <ele>1477</ele>
        <time>2022-10-28T11:14:28Z</time>
      </trkpt>
      <trkpt lat="44.45537" lon="3.6263">
        <ele>1477</ele>
        <time>2022-10-28T11:14:29Z</time>
      </trkpt>
      <trkpt lat="44.45537" lon="3.6263">
        <ele>1477</ele>
        <time>2022-10-28T11:14:30Z</time>
      </trkpt>
      <trkpt lat="44.45537" lon="3.6263">
        <ele>1477</ele>
        <time>2022-10-28T11:14:31Z</time>
      </trkpt>
      <trkpt lat="44.45537" lon="3.6263">
        <ele>1477</ele>
        <time>2022-10-28T11:14:32Z</time>
      </trkpt>
      <trkpt lat="44.45539" lon="3.62629">
        <ele>1476.8</ele>
        <time>2022-10-28T11:14:45Z</time>
      </trkpt>
      <trkpt lat="44.45541" lon="3.62628">
        <ele>1476.6</ele>
        <time>2022-10-28T11:14:46Z</time>
      </trkpt>
      <trkpt lat="44.45545" lon="3.62628">
        <ele>1476.6</ele>
        <time>2022-10-28T11:14:47Z</time>
      </trkpt>
      <trkpt lat="44.4555" lon="3.62627">
        <ele>1476.4</ele>
        <time>2022-10-28T11:14:48Z</time>
      </trkpt>
      <trkpt lat="44.45554" lon="3.62626">
        <ele>1476.4</ele>
        <time>2022-10-28T11:14:49Z</time>
      </trkpt>
      <trkpt lat="44.45558" lon="3.62626">
        <ele>1476.2</ele>
        <time>2022-10-28T11:14:50Z</time>
      </trkpt>
      <trkpt lat="44.45562" lon="3.62626">
        <ele>1475.8</ele>
        <time>2022-10-28T11:14:51Z</time>
      </trkpt>
      <trkpt lat="44.45567" lon="3.62626">
        <ele>1475.6</ele>
        <time>2022-10-28T11:14:52Z</time>
      </trkpt>
      <trkpt lat="44.45571" lon="3.62626">
        <ele>1475.4</ele>
        <time>2022-10-28T11:14:53Z</time>
      </trkpt>
      <trkpt lat="44.45576" lon="3.62626">
        <ele>1475</ele>
        <time>2022-10-28T11:14:54Z</time>
      </trkpt>
      <trkpt lat="44.45581" lon="3.62626">
        <ele>1474.6</ele>
        <time>2022-10-28T11:14:55Z</time>
      </trkpt>
      <trkpt lat="44.45586" lon="3.62627">
        <ele>1474.2</ele>
        <time>2022-10-28T11:14:56Z</time>
      </trkpt>
      <trkpt lat="44.45591" lon="3.62628">
        <ele>1474</ele>
        <time>2022-10-28T11:14:57Z</time>
      </trkpt>
      <trkpt lat="44.45596" lon="3.62628">
        <ele>1473.6</ele>
        <time>2022-10-28T11:14:58Z</time>
      </trkpt>
      <trkpt lat="44.45601" lon="3.62629">
        <ele>1473.2</ele>
        <time>2022-10-28T11:14:59Z</time>
      </trkpt>
      <trkpt lat="44.45606" lon="3.6263">
        <ele>1472.8</ele>
        <time>2022-10-28T11:15:00Z</time>
      </trkpt>
      <trkpt lat="44.45611" lon="3.62631">
        <ele>1472.4</ele>
        <time>2022-10-28T11:15:01Z</time>
      </trkpt>
      <trkpt lat="44.45616" lon="3.62631">
        <ele>1472</ele>
        <time>2022-10-28T11:15:02Z</time>
      </trkpt>
      <trkpt lat="44.45621" lon="3.62633">
        <ele>1471.6</ele>
        <time>2022-10-28T11:15:03Z</time>
      </trkpt>
      <trkpt lat="44.45626" lon="3.62635">
        <ele>1471.2</ele>
        <time>2022-10-28T11:15:04Z</time>
      </trkpt>
      <trkpt lat="44.45631" lon="3.62638">
        <ele>1470.8</ele>
        <time>2022-10-28T11:15:05Z</time>
      </trkpt>
      <trkpt lat="44.45636" lon="3.62641">
        <ele>1470.4</ele>
        <time>2022-10-28T11:15:06Z</time>
      </trkpt>
      <trkpt lat="44.45641" lon="3.62644">
        <ele>1470</ele>
        <time>2022-10-28T11:15:07Z</time>
      </trkpt>
      <trkpt lat="44.45646" lon="3.62646">
        <ele>1469.8</ele>
        <time>2022-10-28T11:15:08Z</time>
      </trkpt>
      <trkpt lat="44.4565" lon="3.62648">
        <ele>1469.4</ele>
        <time>2022-10-28T11:15:09Z</time>
      </trkpt>
      <trkpt lat="44.45655" lon="3.62651">
        <ele>1469.2</ele>
        <time>2022-10-28T11:15:10Z</time>
      </trkpt>
      <trkpt lat="44.4566" lon="3.62654">
        <ele>1469</ele>
        <time>2022-10-28T11:15:11Z</time>
      </trkpt>
      <trkpt lat="44.45664" lon="3.62656">
        <ele>1468.8</ele>
        <time>2022-10-28T11:15:12Z</time>
      </trkpt>
      <trkpt lat="44.45669" lon="3.62658">
        <ele>1468.6</ele>
        <time>2022-10-28T11:15:13Z</time>
      </trkpt>
      <trkpt lat="44.45673" lon="3.62659">
        <ele>1468.4</ele>
        <time>2022-10-28T11:15:14Z</time>
      </trkpt>
      <trkpt lat="44.45676" lon="3.6266">
        <ele>1468.4</ele>
        <time>2022-10-28T11:15:15Z</time>
      </trkpt>
      <trkpt lat="44.4568" lon="3.62661">
        <ele>1468.2</ele>
        <time>2022-10-28T11:15:16Z</time>
      </trkpt>
      <trkpt lat="44.45683" lon="3.62663">
        <ele>1468.2</ele>
        <time>2022-10-28T11:15:17Z</time>
      </trkpt>
      <trkpt lat="44.45686" lon="3.62664">
        <ele>1468.2</ele>
        <time>2022-10-28T11:15:18Z</time>
      </trkpt>
      <trkpt lat="44.45689" lon="3.62667">
        <ele>1468.2</ele>
        <time>2022-10-28T11:15:19Z</time>
      </trkpt>
      <trkpt lat="44.45691" lon="3.62669">
        <ele>1468.2</ele>
        <time>2022-10-28T11:15:20Z</time>
      </trkpt>
      <trkpt lat="44.45694" lon="3.62672">
        <ele>1468</ele>
        <time>2022-10-28T11:15:21Z</time>
      </trkpt>
      <trkpt lat="44.45696" lon="3.62675">
        <ele>1468</ele>
        <time>2022-10-28T11:15:22Z</time>
      </trkpt>
      <trkpt lat="44.45698" lon="3.62678">
        <ele>1468</ele>
        <time>2022-10-28T11:15:23Z</time>
      </trkpt>
      <trkpt lat="44.45699" lon="3.62682">
        <ele>1467.8</ele>
        <time>2022-10-28T11:15:24Z</time>
      </trkpt>
      <trkpt lat="44.457" lon="3.62684">
        <ele>1467.8</ele>
        <time>2022-10-28T11:15:25Z</time>
      </trkpt>
      <trkpt lat="44.457" lon="3.62686">
        <ele>1467.8</ele>
        <time>2022-10-28T11:15:26Z</time>
      </trkpt>
      <trkpt lat="44.45698" lon="3.62687">
        <ele>1467.6</ele>
        <time>2022-10-28T11:16:29Z</time>
      </trkpt>
      <trkpt lat="44.45698" lon="3.62685">
        <ele>1467.6</ele>
        <time>2022-10-28T11:16:30Z</time>
      </trkpt>
      <trkpt lat="44.45697" lon="3.62683">
        <ele>1467.6</ele>
        <time>2022-10-28T11:16:31Z</time>
      </trkpt>
      <trkpt lat="44.45696" lon="3.6268">
        <ele>1467.6</ele>
        <time>2022-10-28T11:16:32Z</time>
      </trkpt>
      <trkpt lat="44.45694" lon="3.62677">
        <ele>1467.4</ele>
        <time>2022-10-28T11:16:33Z</time>
      </trkpt>
      <trkpt lat="44.45692" lon="3.62674">
        <ele>1467.6</ele>
        <time>2022-10-28T11:16:34Z</time>
      </trkpt>
      <trkpt lat="44.4569" lon="3.62672">
        <ele>1467.6</ele>
        <time>2022-10-28T11:16:35Z</time>
      </trkpt>
      <trkpt lat="44.45688" lon="3.62669">
        <ele>1467.6</ele>
        <time>2022-10-28T11:16:36Z</time>
      </trkpt>
      <trkpt lat="44.45686" lon="3.62667">
        <ele>1467.6</ele>
        <time>2022-10-28T11:16:37Z</time>
      </trkpt>
      <trkpt lat="44.45684" lon="3.62665">
        <ele>1467.6</ele>
        <time>2022-10-28T11:16:38Z</time>
      </trkpt>
      <trkpt lat="44.45681" lon="3.62664">
        <ele>1467.6</ele>
        <time>2022-10-28T11:16:39Z</time>
      </trkpt>
      <trkpt lat="44.45679" lon="3.62663">
        <ele>1467.6</ele>
        <time>2022-10-28T11:16:40Z</time>
      </trkpt>
      <trkpt lat="44.45676" lon="3.62662">
        <ele>1467.6</ele>
        <time>2022-10-28T11:16:41Z</time>
      </trkpt>
      <trkpt lat="44.45674" lon="3.62661">
        <ele>1467.8</ele>
        <time>2022-10-28T11:16:42Z</time>
      </trkpt>
      <trkpt lat="44.45671" lon="3.6266">
        <ele>1467.8</ele>
        <time>2022-10-28T11:16:43Z</time>
      </trkpt>
      <trkpt lat="44.45669" lon="3.62659">
        <ele>1467.8</ele>
        <time>2022-10-28T11:16:44Z</time>
      </trkpt>
      <trkpt lat="44.45667" lon="3.62659">
        <ele>1468</ele>
        <time>2022-10-28T11:16:45Z</time>
      </trkpt>
      <trkpt lat="44.45667" lon="3.62658">
        <ele>1468</ele>
        <time>2022-10-28T11:16:46Z</time>
      </trkpt>
      <trkpt lat="44.45667" lon="3.62658">
        <ele>1468</ele>
        <time>2022-10-28T11:16:47Z</time>
      </trkpt>
      <trkpt lat="44.45667" lon="3.62658">
        <ele>1468</ele>
        <time>2022-10-28T11:16:48Z</time>
      </trkpt>
      <trkpt lat="44.45667" lon="3.62658">
        <ele>1468</ele>
        <time>2022-10-28T11:16:49Z</time>
      </trkpt>
      <trkpt lat="44.45668" lon="3.62658">
        <ele>1468</ele>
        <time>2022-10-28T11:16:50Z</time>
      </trkpt>
      <trkpt lat="44.45669" lon="3.62658">
        <ele>1468</ele>
        <time>2022-10-28T11:16:51Z</time>
      </trkpt>
      <trkpt lat="44.4567" lon="3.62659">
        <ele>1468</ele>
        <time>2022-10-28T11:16:52Z</time>
      </trkpt>
      <trkpt lat="44.45673" lon="3.62659">
        <ele>1468</ele>
        <time>2022-10-28T11:16:53Z</time>
      </trkpt>
      <trkpt lat="44.45675" lon="3.6266">
        <ele>1468</ele>
        <time>2022-10-28T11:16:54Z</time>
      </trkpt>
      <trkpt lat="44.45678" lon="3.62661">
        <ele>1468</ele>
        <time>2022-10-28T11:16:55Z</time>
      </trkpt>
      <trkpt lat="44.45681" lon="3.62662">
        <ele>1468</ele>
        <time>2022-10-28T11:16:56Z</time>
      </trkpt>
      <trkpt lat="44.45684" lon="3.62664">
        <ele>1468</ele>
        <time>2022-10-28T11:16:57Z</time>
      </trkpt>
      <trkpt lat="44.45687" lon="3.62666">
        <ele>1468</ele>
        <time>2022-10-28T11:16:58Z</time>
      </trkpt>
      <trkpt lat="44.4569" lon="3.62669">
        <ele>1468</ele>
        <time>2022-10-28T11:16:59Z</time>
      </trkpt>
      <trkpt lat="44.45692" lon="3.62672">
        <ele>1468</ele>
        <time>2022-10-28T11:17:00Z</time>
      </trkpt>
      <trkpt lat="44.45695" lon="3.62675">
        <ele>1468</ele>
        <time>2022-10-28T11:17:01Z</time>
      </trkpt>
      <trkpt lat="44.45697" lon="3.62678">
        <ele>1468</ele>
        <time>2022-10-28T11:17:02Z</time>
      </trkpt>
      <trkpt lat="44.45698" lon="3.62681">
        <ele>1468</ele>
        <time>2022-10-28T11:17:03Z</time>
      </trkpt>
      <trkpt lat="44.45698" lon="3.62684">
        <ele>1467.8</ele>
        <time>2022-10-28T11:17:04Z</time>
      </trkpt>
      <trkpt lat="44.45698" lon="3.62686">
        <ele>1467.8</ele>
        <time>2022-10-28T11:17:05Z</time>
      </trkpt>
      <trkpt lat="44.45698" lon="3.62688">
        <ele>1467.8</ele>
        <time>2022-10-28T11:17:06Z</time>
      </trkpt>
      <trkpt lat="44.45698" lon="3.62688">
        <ele>1467.8</ele>
        <time>2022-10-28T11:17:07Z</time>
      </trkpt>
      <trkpt lat="44.45698" lon="3.62688">
        <ele>1467.8</ele>
        <time>2022-10-28T11:17:08Z</time>
      </trkpt>
      <trkpt lat="44.45698" lon="3.62688">
        <ele>1467.8</ele>
        <time>2022-10-28T11:17:09Z</time>
      </trkpt>
      <trkpt lat="44.45698" lon="3.62688">
        <ele>1467.6</ele>
        <time>2022-10-28T11:17:10Z</time>
      </trkpt>
      <trkpt lat="44.45698" lon="3.62688">
        <ele>1467.6</ele>
        <time>2022-10-28T11:17:11Z</time>
      </trkpt>
      <trkpt lat="44.45698" lon="3.62688">
        <ele>1467.6</ele>
        <time>2022-10-28T11:17:12Z</time>
      </trkpt>
      <trkpt lat="44.45698" lon="3.62688">
        <ele>1467.6</ele>
        <time>2022-10-28T11:17:13Z</time>
      </trkpt>
      <trkpt lat="44.45698" lon="3.62688">
        <ele>1467.6</ele>
        <time>2022-10-28T11:17:14Z</time>
      </trkpt>
      <trkpt lat="44.45698" lon="3.62688">
        <ele>1467.6</ele>
        <time>2022-10-28T11:17:15Z</time>
      </trkpt>
      <trkpt lat="44.45698" lon="3.62688">
        <ele>1467.4</ele>
        <time>2022-10-28T11:17:16Z</time>
      </trkpt>
      <trkpt lat="44.45699" lon="3.62689">
        <ele>1467.6</ele>
        <time>2022-10-28T11:17:25Z</time>
      </trkpt>
      <trkpt lat="44.457" lon="3.6269">
        <ele>1467.6</ele>
        <time>2022-10-28T11:17:26Z</time>
      </trkpt>
      <trkpt lat="44.45701" lon="3.62691">
        <ele>1467.6</ele>
        <time>2022-10-28T11:17:27Z</time>
      </trkpt>
      <trkpt lat="44.45702" lon="3.62694">
        <ele>1467.4</ele>
        <time>2022-10-28T11:17:28Z</time>
      </trkpt>
      <trkpt lat="44.45703" lon="3.62696">
        <ele>1467.4</ele>
        <time>2022-10-28T11:17:29Z</time>
      </trkpt>
      <trkpt lat="44.45703" lon="3.62698">
        <ele>1467.4</ele>
        <time>2022-10-28T11:17:30Z</time>
      </trkpt>
      <trkpt lat="44.45704" lon="3.62701">
        <ele>1467.4</ele>
        <time>2022-10-28T11:17:31Z</time>
      </trkpt>
      <trkpt lat="44.45704" lon="3.62704">
        <ele>1467.4</ele>
        <time>2022-10-28T11:17:32Z</time>
      </trkpt>
      <trkpt lat="44.45704" lon="3.62708">
        <ele>1467.2</ele>
        <time>2022-10-28T11:17:33Z</time>
      </trkpt>
      <trkpt lat="44.45705" lon="3.62713">
        <ele>1467.2</ele>
        <time>2022-10-28T11:17:34Z</time>
      </trkpt>
      <trkpt lat="44.45705" lon="3.62717">
        <ele>1467</ele>
        <time>2022-10-28T11:17:35Z</time>
      </trkpt>
      <trkpt lat="44.45705" lon="3.62721">
        <ele>1467</ele>
        <time>2022-10-28T11:17:36Z</time>
      </trkpt>
      <trkpt lat="44.45705" lon="3.62726">
        <ele>1466.8</ele>
        <time>2022-10-28T11:17:37Z</time>
      </trkpt>
      <trkpt lat="44.45706" lon="3.62731">
        <ele>1466.6</ele>
        <time>2022-10-28T11:17:38Z</time>
      </trkpt>
      <trkpt lat="44.45706" lon="3.62735">
        <ele>1466.4</ele>
        <time>2022-10-28T11:17:39Z</time>
      </trkpt>
      <trkpt lat="44.45707" lon="3.6274">
        <ele>1466</ele>
        <time>2022-10-28T11:17:40Z</time>
      </trkpt>
      <trkpt lat="44.45707" lon="3.62744">
        <ele>1465.8</ele>
        <time>2022-10-28T11:17:41Z</time>
      </trkpt>
      <trkpt lat="44.45706" lon="3.62749">
        <ele>1465.6</ele>
        <time>2022-10-28T11:17:42Z</time>
      </trkpt>
      <trkpt lat="44.45706" lon="3.62753">
        <ele>1465.6</ele>
        <time>2022-10-28T11:17:43Z</time>
      </trkpt>
      <trkpt lat="44.45704" lon="3.62756">
        <ele>1465.6</ele>
        <time>2022-10-28T11:17:44Z</time>
      </trkpt>
      <trkpt lat="44.45703" lon="3.62759">
        <ele>1465.4</ele>
        <time>2022-10-28T11:17:45Z</time>
      </trkpt>
      <trkpt lat="44.45701" lon="3.62762">
        <ele>1465.4</ele>
        <time>2022-10-28T11:17:46Z</time>
      </trkpt>
      <trkpt lat="44.45698" lon="3.62765">
        <ele>1465.4</ele>
        <time>2022-10-28T11:17:47Z</time>
      </trkpt>
      <trkpt lat="44.45696" lon="3.62768">
        <ele>1465.4</ele>
        <time>2022-10-28T11:17:48Z</time>
      </trkpt>
      <trkpt lat="44.45694" lon="3.62771">
        <ele>1465.4</ele>
        <time>2022-10-28T11:17:49Z</time>
      </trkpt>
      <trkpt lat="44.45692" lon="3.62774">
        <ele>1465.4</ele>
        <time>2022-10-28T11:17:50Z</time>
      </trkpt>
      <trkpt lat="44.45689" lon="3.62778">
        <ele>1465.4</ele>
        <time>2022-10-28T11:17:51Z</time>
      </trkpt>
      <trkpt lat="44.45688" lon="3.62782">
        <ele>1465.4</ele>
        <time>2022-10-28T11:17:52Z</time>
      </trkpt>
      <trkpt lat="44.45686" lon="3.62786">
        <ele>1465.2</ele>
        <time>2022-10-28T11:17:53Z</time>
      </trkpt>
      <trkpt lat="44.45685" lon="3.62791">
        <ele>1465.2</ele>
        <time>2022-10-28T11:17:54Z</time>
      </trkpt>
      <trkpt lat="44.45684" lon="3.62796">
        <ele>1465.4</ele>
        <time>2022-10-28T11:17:55Z</time>
      </trkpt>
      <trkpt lat="44.45682" lon="3.628">
        <ele>1465.4</ele>
        <time>2022-10-28T11:17:56Z</time>
      </trkpt>
      <trkpt lat="44.45681" lon="3.62804">
        <ele>1465.4</ele>
        <time>2022-10-28T11:17:57Z</time>
      </trkpt>
      <trkpt lat="44.4568" lon="3.62808">
        <ele>1465.4</ele>
        <time>2022-10-28T11:17:58Z</time>
      </trkpt>
      <trkpt lat="44.45678" lon="3.62812">
        <ele>1465.6</ele>
        <time>2022-10-28T11:17:59Z</time>
      </trkpt>
      <trkpt lat="44.45677" lon="3.62817">
        <ele>1465.6</ele>
        <time>2022-10-28T11:18:00Z</time>
      </trkpt>
      <trkpt lat="44.45676" lon="3.62821">
        <ele>1465.8</ele>
        <time>2022-10-28T11:18:01Z</time>
      </trkpt>
      <trkpt lat="44.45675" lon="3.62825">
        <ele>1465.8</ele>
        <time>2022-10-28T11:18:02Z</time>
      </trkpt>
      <trkpt lat="44.45674" lon="3.62829">
        <ele>1466</ele>
        <time>2022-10-28T11:18:03Z</time>
      </trkpt>
      <trkpt lat="44.45673" lon="3.62833">
        <ele>1466</ele>
        <time>2022-10-28T11:18:04Z</time>
      </trkpt>
      <trkpt lat="44.45672" lon="3.62837">
        <ele>1466</ele>
        <time>2022-10-28T11:18:05Z</time>
      </trkpt>
      <trkpt lat="44.45671" lon="3.62841">
        <ele>1466.2</ele>
        <time>2022-10-28T11:18:06Z</time>
      </trkpt>
      <trkpt lat="44.4567" lon="3.62845">
        <ele>1466.2</ele>
        <time>2022-10-28T11:18:07Z</time>
      </trkpt>
      <trkpt lat="44.45669" lon="3.62849">
        <ele>1466.4</ele>
        <time>2022-10-28T11:18:08Z</time>
      </trkpt>
      <trkpt lat="44.45668" lon="3.62854">
        <ele>1466.4</ele>
        <time>2022-10-28T11:18:09Z</time>
      </trkpt>
      <trkpt lat="44.45667" lon="3.62858">
        <ele>1466.6</ele>
        <time>2022-10-28T11:18:10Z</time>
      </trkpt>
      <trkpt lat="44.45667" lon="3.62862">
        <ele>1466.6</ele>
        <time>2022-10-28T11:18:11Z</time>
      </trkpt>
      <trkpt lat="44.45666" lon="3.62866">
        <ele>1466.8</ele>
        <time>2022-10-28T11:18:12Z</time>
      </trkpt>
      <trkpt lat="44.45665" lon="3.6287">
        <ele>1466.8</ele>
        <time>2022-10-28T11:18:13Z</time>
      </trkpt>
      <trkpt lat="44.45664" lon="3.62874">
        <ele>1466.8</ele>
        <time>2022-10-28T11:18:14Z</time>
      </trkpt>
      <trkpt lat="44.45663" lon="3.62879">
        <ele>1467</ele>
        <time>2022-10-28T11:18:15Z</time>
      </trkpt>
      <trkpt lat="44.45661" lon="3.62882">
        <ele>1467</ele>
        <time>2022-10-28T11:18:16Z</time>
      </trkpt>
      <trkpt lat="44.4566" lon="3.62886">
        <ele>1467</ele>
        <time>2022-10-28T11:18:17Z</time>
      </trkpt>
      <trkpt lat="44.45659" lon="3.6289">
        <ele>1467.2</ele>
        <time>2022-10-28T11:18:18Z</time>
      </trkpt>
      <trkpt lat="44.45658" lon="3.62895">
        <ele>1467.2</ele>
        <time>2022-10-28T11:18:19Z</time>
      </trkpt>
      <trkpt lat="44.45657" lon="3.62899">
        <ele>1467.2</ele>
        <time>2022-10-28T11:18:20Z</time>
      </trkpt>
      <trkpt lat="44.45656" lon="3.62903">
        <ele>1467.4</ele>
        <time>2022-10-28T11:18:21Z</time>
      </trkpt>
      <trkpt lat="44.45655" lon="3.62907">
        <ele>1467.4</ele>
        <time>2022-10-28T11:18:22Z</time>
      </trkpt>
      <trkpt lat="44.45654" lon="3.62912">
        <ele>1467.4</ele>
        <time>2022-10-28T11:18:23Z</time>
      </trkpt>
      <trkpt lat="44.45653" lon="3.62915">
        <ele>1467.6</ele>
        <time>2022-10-28T11:18:24Z</time>
      </trkpt>
      <trkpt lat="44.45652" lon="3.62919">
        <ele>1467.6</ele>
        <time>2022-10-28T11:18:25Z</time>
      </trkpt>
      <trkpt lat="44.45651" lon="3.62923">
        <ele>1467.8</ele>
        <time>2022-10-28T11:18:26Z</time>
      </trkpt>
      <trkpt lat="44.4565" lon="3.62927">
        <ele>1467.8</ele>
        <time>2022-10-28T11:18:27Z</time>
      </trkpt>
      <trkpt lat="44.45649" lon="3.62932">
        <ele>1467.8</ele>
        <time>2022-10-28T11:18:28Z</time>
      </trkpt>
      <trkpt lat="44.45648" lon="3.62936">
        <ele>1467.8</ele>
        <time>2022-10-28T11:18:29Z</time>
      </trkpt>
      <trkpt lat="44.45647" lon="3.6294">
        <ele>1468</ele>
        <time>2022-10-28T11:18:30Z</time>
      </trkpt>
      <trkpt lat="44.45646" lon="3.62944">
        <ele>1468</ele>
        <time>2022-10-28T11:18:31Z</time>
      </trkpt>
      <trkpt lat="44.45645" lon="3.62948">
        <ele>1468</ele>
        <time>2022-10-28T11:18:32Z</time>
      </trkpt>
      <trkpt lat="44.45644" lon="3.62952">
        <ele>1468</ele>
        <time>2022-10-28T11:18:33Z</time>
      </trkpt>
      <trkpt lat="44.45643" lon="3.62956">
        <ele>1468</ele>
        <time>2022-10-28T11:18:34Z</time>
      </trkpt>
      <trkpt lat="44.45642" lon="3.62959">
        <ele>1468</ele>
        <time>2022-10-28T11:18:35Z</time>
      </trkpt>
      <trkpt lat="44.45641" lon="3.62962">
        <ele>1468.2</ele>
        <time>2022-10-28T11:18:36Z</time>
      </trkpt>
      <trkpt lat="44.4564" lon="3.62965">
        <ele>1468.2</ele>
        <time>2022-10-28T11:18:37Z</time>
      </trkpt>
      <trkpt lat="44.4564" lon="3.62968">
        <ele>1468.2</ele>
        <time>2022-10-28T11:18:38Z</time>
      </trkpt>
      <trkpt lat="44.45639" lon="3.62971">
        <ele>1468.2</ele>
        <time>2022-10-28T11:18:39Z</time>
      </trkpt>
      <trkpt lat="44.45638" lon="3.62974">
        <ele>1468.4</ele>
        <time>2022-10-28T11:18:40Z</time>
      </trkpt>
      <trkpt lat="44.45637" lon="3.62977">
        <ele>1468.4</ele>
        <time>2022-10-28T11:18:41Z</time>
      </trkpt>
      <trkpt lat="44.45636" lon="3.6298">
        <ele>1468.4</ele>
        <time>2022-10-28T11:18:42Z</time>
      </trkpt>
      <trkpt lat="44.45635" lon="3.62984">
        <ele>1468.6</ele>
        <time>2022-10-28T11:18:43Z</time>
      </trkpt>
      <trkpt lat="44.45634" lon="3.62987">
        <ele>1468.6</ele>
        <time>2022-10-28T11:18:44Z</time>
      </trkpt>
      <trkpt lat="44.45634" lon="3.6299">
        <ele>1468.8</ele>
        <time>2022-10-28T11:18:45Z</time>
      </trkpt>
      <trkpt lat="44.45633" lon="3.62993">
        <ele>1468.8</ele>
        <time>2022-10-28T11:18:46Z</time>
      </trkpt>
      <trkpt lat="44.45633" lon="3.62996">
        <ele>1469</ele>
        <time>2022-10-28T11:18:47Z</time>
      </trkpt>
      <trkpt lat="44.45632" lon="3.62999">
        <ele>1469.2</ele>
        <time>2022-10-28T11:18:48Z</time>
      </trkpt>
      <trkpt lat="44.45631" lon="3.63003">
        <ele>1469.2</ele>
        <time>2022-10-28T11:18:49Z</time>
      </trkpt>
      <trkpt lat="44.4563" lon="3.63007">
        <ele>1469.4</ele>
        <time>2022-10-28T11:18:50Z</time>
      </trkpt>
      <trkpt lat="44.4563" lon="3.63011">
        <ele>1469.4</ele>
        <time>2022-10-28T11:18:51Z</time>
      </trkpt>
      <trkpt lat="44.45628" lon="3.63015">
        <ele>1469.4</ele>
        <time>2022-10-28T11:18:52Z</time>
      </trkpt>
      <trkpt lat="44.45628" lon="3.63019">
        <ele>1469.6</ele>
        <time>2022-10-28T11:18:53Z</time>
      </trkpt>
      <trkpt lat="44.45626" lon="3.63023">
        <ele>1469.6</ele>
        <time>2022-10-28T11:18:54Z</time>
      </trkpt>
      <trkpt lat="44.45625" lon="3.63027">
        <ele>1469.8</ele>
        <time>2022-10-28T11:18:55Z</time>
      </trkpt>
      <trkpt lat="44.45624" lon="3.6303">
        <ele>1469.8</ele>
        <time>2022-10-28T11:18:56Z</time>
      </trkpt>
      <trkpt lat="44.45623" lon="3.63034">
        <ele>1470</ele>
        <time>2022-10-28T11:18:57Z</time>
      </trkpt>
      <trkpt lat="44.45622" lon="3.63038">
        <ele>1470</ele>
        <time>2022-10-28T11:18:58Z</time>
      </trkpt>
      <trkpt lat="44.45621" lon="3.63041">
        <ele>1470.2</ele>
        <time>2022-10-28T11:18:59Z</time>
      </trkpt>
      <trkpt lat="44.4562" lon="3.63045">
        <ele>1470.2</ele>
        <time>2022-10-28T11:19:00Z</time>
      </trkpt>
      <trkpt lat="44.45619" lon="3.63049">
        <ele>1470.4</ele>
        <time>2022-10-28T11:19:01Z</time>
      </trkpt>
      <trkpt lat="44.45618" lon="3.63053">
        <ele>1470.4</ele>
        <time>2022-10-28T11:19:02Z</time>
      </trkpt>
      <trkpt lat="44.45617" lon="3.63056">
        <ele>1470.6</ele>
        <time>2022-10-28T11:19:03Z</time>
      </trkpt>
      <trkpt lat="44.45616" lon="3.6306">
        <ele>1470.6</ele>
        <time>2022-10-28T11:19:04Z</time>
      </trkpt>
      <trkpt lat="44.45615" lon="3.63064">
        <ele>1470.8</ele>
        <time>2022-10-28T11:19:05Z</time>
      </trkpt>
      <trkpt lat="44.45613" lon="3.63067">
        <ele>1471</ele>
        <time>2022-10-28T11:19:06Z</time>
      </trkpt>
      <trkpt lat="44.45612" lon="3.63071">
        <ele>1471</ele>
        <time>2022-10-28T11:19:07Z</time>
      </trkpt>
      <trkpt lat="44.4561" lon="3.63074">
        <ele>1471</ele>
        <time>2022-10-28T11:19:08Z</time>
      </trkpt>
      <trkpt lat="44.45608" lon="3.63078">
        <ele>1471</ele>
        <time>2022-10-28T11:19:09Z</time>
      </trkpt>
      <trkpt lat="44.45606" lon="3.63082">
        <ele>1471</ele>
        <time>2022-10-28T11:19:10Z</time>
      </trkpt>
      <trkpt lat="44.45604" lon="3.63085">
        <ele>1471</ele>
        <time>2022-10-28T11:19:11Z</time>
      </trkpt>
      <trkpt lat="44.45602" lon="3.63089">
        <ele>1471.2</ele>
        <time>2022-10-28T11:19:12Z</time>
      </trkpt>
      <trkpt lat="44.456" lon="3.63092">
        <ele>1471.2</ele>
        <time>2022-10-28T11:19:13Z</time>
      </trkpt>
      <trkpt lat="44.45598" lon="3.63095">
        <ele>1471.2</ele>
        <time>2022-10-28T11:19:14Z</time>
      </trkpt>
      <trkpt lat="44.45596" lon="3.63099">
        <ele>1471.4</ele>
        <time>2022-10-28T11:19:15Z</time>
      </trkpt>
      <trkpt lat="44.45594" lon="3.63102">
        <ele>1471.4</ele>
        <time>2022-10-28T11:19:16Z</time>
      </trkpt>
      <trkpt lat="44.45592" lon="3.63105">
        <ele>1471.4</ele>
        <time>2022-10-28T11:19:17Z</time>
      </trkpt>
      <trkpt lat="44.4559" lon="3.63109">
        <ele>1471.4</ele>
        <time>2022-10-28T11:19:18Z</time>
      </trkpt>
      <trkpt lat="44.45588" lon="3.63112">
        <ele>1471.6</ele>
        <time>2022-10-28T11:19:19Z</time>
      </trkpt>
      <trkpt lat="44.45585" lon="3.63115">
        <ele>1471.6</ele>
        <time>2022-10-28T11:19:20Z</time>
      </trkpt>
      <trkpt lat="44.45583" lon="3.63118">
        <ele>1471.6</ele>
        <time>2022-10-28T11:19:21Z</time>
      </trkpt>
      <trkpt lat="44.4558" lon="3.63121">
        <ele>1471.8</ele>
        <time>2022-10-28T11:19:22Z</time>
      </trkpt>
      <trkpt lat="44.45578" lon="3.63123">
        <ele>1471.8</ele>
        <time>2022-10-28T11:19:23Z</time>
      </trkpt>
      <trkpt lat="44.45575" lon="3.63127">
        <ele>1471.8</ele>
        <time>2022-10-28T11:19:24Z</time>
      </trkpt>
      <trkpt lat="44.45573" lon="3.6313">
        <ele>1471.8</ele>
        <time>2022-10-28T11:19:25Z</time>
      </trkpt>
      <trkpt lat="44.4557" lon="3.63133">
        <ele>1471.8</ele>
        <time>2022-10-28T11:19:26Z</time>
      </trkpt>
      <trkpt lat="44.45568" lon="3.63136">
        <ele>1472</ele>
        <time>2022-10-28T11:19:27Z</time>
      </trkpt>
      <trkpt lat="44.45566" lon="3.6314">
        <ele>1472</ele>
        <time>2022-10-28T11:19:28Z</time>
      </trkpt>
      <trkpt lat="44.45563" lon="3.63144">
        <ele>1472</ele>
        <time>2022-10-28T11:19:29Z</time>
      </trkpt>
      <trkpt lat="44.45561" lon="3.63147">
        <ele>1472</ele>
        <time>2022-10-28T11:19:30Z</time>
      </trkpt>
      <trkpt lat="44.45558" lon="3.6315">
        <ele>1472.2</ele>
        <time>2022-10-28T11:19:31Z</time>
      </trkpt>
      <trkpt lat="44.45556" lon="3.63153">
        <ele>1472.2</ele>
        <time>2022-10-28T11:19:32Z</time>
      </trkpt>
      <trkpt lat="44.45553" lon="3.63156">
        <ele>1472.2</ele>
        <time>2022-10-28T11:19:33Z</time>
      </trkpt>
      <trkpt lat="44.4555" lon="3.63158">
        <ele>1472</ele>
        <time>2022-10-28T11:19:34Z</time>
      </trkpt>
      <trkpt lat="44.45548" lon="3.63161">
        <ele>1472</ele>
        <time>2022-10-28T11:19:35Z</time>
      </trkpt>
      <trkpt lat="44.45547" lon="3.63164">
        <ele>1472</ele>
        <time>2022-10-28T11:19:36Z</time>
      </trkpt>
      <trkpt lat="44.45545" lon="3.63168">
        <ele>1472</ele>
        <time>2022-10-28T11:19:37Z</time>
      </trkpt>
      <trkpt lat="44.45543" lon="3.63172">
        <ele>1471.8</ele>
        <time>2022-10-28T11:19:38Z</time>
      </trkpt>
      <trkpt lat="44.45541" lon="3.63175">
        <ele>1471.8</ele>
        <time>2022-10-28T11:19:39Z</time>
      </trkpt>
      <trkpt lat="44.45539" lon="3.63179">
        <ele>1471.6</ele>
        <time>2022-10-28T11:19:40Z</time>
      </trkpt>
      <trkpt lat="44.45536" lon="3.63182">
        <ele>1471.6</ele>
        <time>2022-10-28T11:19:41Z</time>
      </trkpt>
      <trkpt lat="44.45534" lon="3.63185">
        <ele>1471.4</ele>
        <time>2022-10-28T11:19:42Z</time>
      </trkpt>
      <trkpt lat="44.45531" lon="3.63187">
        <ele>1471.4</ele>
        <time>2022-10-28T11:19:43Z</time>
      </trkpt>
      <trkpt lat="44.45528" lon="3.6319">
        <ele>1471.4</ele>
        <time>2022-10-28T11:19:44Z</time>
      </trkpt>
      <trkpt lat="44.45526" lon="3.63193">
        <ele>1471.4</ele>
        <time>2022-10-28T11:19:45Z</time>
      </trkpt>
      <trkpt lat="44.45523" lon="3.63196">
        <ele>1471.4</ele>
        <time>2022-10-28T11:19:46Z</time>
      </trkpt>
      <trkpt lat="44.4552" lon="3.63199">
        <ele>1471.4</ele>
        <time>2022-10-28T11:19:47Z</time>
      </trkpt>
      <trkpt lat="44.45518" lon="3.63202">
        <ele>1471.2</ele>
        <time>2022-10-28T11:19:48Z</time>
      </trkpt>
      <trkpt lat="44.45515" lon="3.63205">
        <ele>1471.2</ele>
        <time>2022-10-28T11:19:49Z</time>
      </trkpt>
      <trkpt lat="44.45512" lon="3.63208">
        <ele>1471.2</ele>
        <time>2022-10-28T11:19:50Z</time>
      </trkpt>
      <trkpt lat="44.45509" lon="3.63212">
        <ele>1471</ele>
        <time>2022-10-28T11:19:51Z</time>
      </trkpt>
      <trkpt lat="44.45506" lon="3.63215">
        <ele>1471</ele>
        <time>2022-10-28T11:19:52Z</time>
      </trkpt>
      <trkpt lat="44.45503" lon="3.63219">
        <ele>1471</ele>
        <time>2022-10-28T11:19:53Z</time>
      </trkpt>
      <trkpt lat="44.45501" lon="3.63222">
        <ele>1470.8</ele>
        <time>2022-10-28T11:19:54Z</time>
      </trkpt>
      <trkpt lat="44.45499" lon="3.63226">
        <ele>1470.8</ele>
        <time>2022-10-28T11:19:55Z</time>
      </trkpt>
      <trkpt lat="44.45496" lon="3.6323">
        <ele>1470.6</ele>
        <time>2022-10-28T11:19:56Z</time>
      </trkpt>
      <trkpt lat="44.45494" lon="3.63234">
        <ele>1470.6</ele>
        <time>2022-10-28T11:19:57Z</time>
      </trkpt>
      <trkpt lat="44.45492" lon="3.63238">
        <ele>1470.4</ele>
        <time>2022-10-28T11:19:58Z</time>
      </trkpt>
      <trkpt lat="44.4549" lon="3.63242">
        <ele>1470.4</ele>
        <time>2022-10-28T11:19:59Z</time>
      </trkpt>
      <trkpt lat="44.45487" lon="3.63246">
        <ele>1470.4</ele>
        <time>2022-10-28T11:20:00Z</time>
      </trkpt>
      <trkpt lat="44.45485" lon="3.63249">
        <ele>1470.2</ele>
        <time>2022-10-28T11:20:01Z</time>
      </trkpt>
      <trkpt lat="44.45482" lon="3.63252">
        <ele>1470.2</ele>
        <time>2022-10-28T11:20:02Z</time>
      </trkpt>
      <trkpt lat="44.4548" lon="3.63254">
        <ele>1470.2</ele>
        <time>2022-10-28T11:20:03Z</time>
      </trkpt>
      <trkpt lat="44.45478" lon="3.63257">
        <ele>1470.2</ele>
        <time>2022-10-28T11:20:04Z</time>
      </trkpt>
      <trkpt lat="44.45476" lon="3.63259">
        <ele>1470.4</ele>
        <time>2022-10-28T11:20:05Z</time>
      </trkpt>
      <trkpt lat="44.45473" lon="3.63262">
        <ele>1470.4</ele>
        <time>2022-10-28T11:20:06Z</time>
      </trkpt>
      <trkpt lat="44.4547" lon="3.63265">
        <ele>1470.4</ele>
        <time>2022-10-28T11:20:07Z</time>
      </trkpt>
      <trkpt lat="44.45468" lon="3.63269">
        <ele>1470.6</ele>
        <time>2022-10-28T11:20:08Z</time>
      </trkpt>
      <trkpt lat="44.45466" lon="3.63272">
        <ele>1470.6</ele>
        <time>2022-10-28T11:20:09Z</time>
      </trkpt>
      <trkpt lat="44.45463" lon="3.63276">
        <ele>1470.6</ele>
        <time>2022-10-28T11:20:10Z</time>
      </trkpt>
      <trkpt lat="44.45461" lon="3.6328">
        <ele>1470.8</ele>
        <time>2022-10-28T11:20:11Z</time>
      </trkpt>
      <trkpt lat="44.45458" lon="3.63283">
        <ele>1470.8</ele>
        <time>2022-10-28T11:20:12Z</time>
      </trkpt>
      <trkpt lat="44.45456" lon="3.63287">
        <ele>1470.8</ele>
        <time>2022-10-28T11:20:13Z</time>
      </trkpt>
      <trkpt lat="44.45453" lon="3.63291">
        <ele>1470.8</ele>
        <time>2022-10-28T11:20:14Z</time>
      </trkpt>
      <trkpt lat="44.45451" lon="3.63295">
        <ele>1470.8</ele>
        <time>2022-10-28T11:20:15Z</time>
      </trkpt>
      <trkpt lat="44.45448" lon="3.63299">
        <ele>1470.8</ele>
        <time>2022-10-28T11:20:16Z</time>
      </trkpt>
      <trkpt lat="44.45445" lon="3.63302">
        <ele>1470.8</ele>
        <time>2022-10-28T11:20:17Z</time>
      </trkpt>
      <trkpt lat="44.45443" lon="3.63306">
        <ele>1470.8</ele>
        <time>2022-10-28T11:20:18Z</time>
      </trkpt>
      <trkpt lat="44.4544" lon="3.6331">
        <ele>1470.8</ele>
        <time>2022-10-28T11:20:19Z</time>
      </trkpt>
      <trkpt lat="44.45437" lon="3.63313">
        <ele>1471</ele>
        <time>2022-10-28T11:20:20Z</time>
      </trkpt>
      <trkpt lat="44.45435" lon="3.63318">
        <ele>1470.8</ele>
        <time>2022-10-28T11:20:21Z</time>
      </trkpt>
      <trkpt lat="44.45432" lon="3.63321">
        <ele>1470.8</ele>
        <time>2022-10-28T11:20:22Z</time>
      </trkpt>
      <trkpt lat="44.4543" lon="3.63325">
        <ele>1470.8</ele>
        <time>2022-10-28T11:20:23Z</time>
      </trkpt>
      <trkpt lat="44.45427" lon="3.63328">
        <ele>1470.8</ele>
        <time>2022-10-28T11:20:24Z</time>
      </trkpt>
      <trkpt lat="44.45425" lon="3.63331">
        <ele>1471</ele>
        <time>2022-10-28T11:20:25Z</time>
      </trkpt>
      <trkpt lat="44.45422" lon="3.63333">
        <ele>1471</ele>
        <time>2022-10-28T11:20:26Z</time>
      </trkpt>
      <trkpt lat="44.45419" lon="3.63335">
        <ele>1471.2</ele>
        <time>2022-10-28T11:20:27Z</time>
      </trkpt>
      <trkpt lat="44.45417" lon="3.63337">
        <ele>1471</ele>
        <time>2022-10-28T11:20:28Z</time>
      </trkpt>
      <trkpt lat="44.45415" lon="3.63339">
        <ele>1471</ele>
        <time>2022-10-28T11:20:29Z</time>
      </trkpt>
      <trkpt lat="44.45413" lon="3.63341">
        <ele>1471</ele>
        <time>2022-10-28T11:20:30Z</time>
      </trkpt>
      <trkpt lat="44.45411" lon="3.6334">
        <ele>1470.8</ele>
        <time>2022-10-28T11:20:31Z</time>
      </trkpt>
      <trkpt lat="44.4541" lon="3.63338">
        <ele>1470.8</ele>
        <time>2022-10-28T11:20:32Z</time>
      </trkpt>
      <trkpt lat="44.45409" lon="3.63337">
        <ele>1470.8</ele>
        <time>2022-10-28T11:20:33Z</time>
      </trkpt>
      <trkpt lat="44.45408" lon="3.63335">
        <ele>1470.8</ele>
        <time>2022-10-28T11:20:34Z</time>
      </trkpt>
      <trkpt lat="44.45408" lon="3.63333">
        <ele>1470.8</ele>
        <time>2022-10-28T11:20:35Z</time>
      </trkpt>
      <trkpt lat="44.45408" lon="3.63333">
        <ele>1470.8</ele>
        <time>2022-10-28T11:20:36Z</time>
      </trkpt>
      <trkpt lat="44.45409" lon="3.63336">
        <ele>1470.8</ele>
        <time>2022-10-28T11:21:04Z</time>
      </trkpt>
      <trkpt lat="44.4541" lon="3.63338">
        <ele>1470.8</ele>
        <time>2022-10-28T11:21:05Z</time>
      </trkpt>
      <trkpt lat="44.45411" lon="3.63341">
        <ele>1470.8</ele>
        <time>2022-10-28T11:21:06Z</time>
      </trkpt>
      <trkpt lat="44.4541" lon="3.63344">
        <ele>1470.8</ele>
        <time>2022-10-28T11:21:07Z</time>
      </trkpt>
      <trkpt lat="44.45409" lon="3.63347">
        <ele>1470.8</ele>
        <time>2022-10-28T11:21:08Z</time>
      </trkpt>
      <trkpt lat="44.45408" lon="3.6335">
        <ele>1471</ele>
        <time>2022-10-28T11:21:09Z</time>
      </trkpt>
      <trkpt lat="44.45406" lon="3.63353">
        <ele>1471</ele>
        <time>2022-10-28T11:21:10Z</time>
      </trkpt>
      <trkpt lat="44.45404" lon="3.63356">
        <ele>1471.2</ele>
        <time>2022-10-28T11:21:11Z</time>
      </trkpt>
      <trkpt lat="44.45402" lon="3.63359">
        <ele>1471.2</ele>
        <time>2022-10-28T11:21:12Z</time>
      </trkpt>
      <trkpt lat="44.454" lon="3.63363">
        <ele>1471.2</ele>
        <time>2022-10-28T11:21:13Z</time>
      </trkpt>
      <trkpt lat="44.45397" lon="3.63366">
        <ele>1471.4</ele>
        <time>2022-10-28T11:21:14Z</time>
      </trkpt>
      <trkpt lat="44.45395" lon="3.6337">
        <ele>1471.4</ele>
        <time>2022-10-28T11:21:15Z</time>
      </trkpt>
      <trkpt lat="44.45392" lon="3.63373">
        <ele>1471.4</ele>
        <time>2022-10-28T11:21:16Z</time>
      </trkpt>
      <trkpt lat="44.4539" lon="3.63377">
        <ele>1471.4</ele>
        <time>2022-10-28T11:21:17Z</time>
      </trkpt>
      <trkpt lat="44.45388" lon="3.6338">
        <ele>1471.4</ele>
        <time>2022-10-28T11:21:18Z</time>
      </trkpt>
      <trkpt lat="44.45385" lon="3.63384">
        <ele>1471.4</ele>
        <time>2022-10-28T11:21:19Z</time>
      </trkpt>
      <trkpt lat="44.45383" lon="3.63387">
        <ele>1471.4</ele>
        <time>2022-10-28T11:21:20Z</time>
      </trkpt>
      <trkpt lat="44.45381" lon="3.6339">
        <ele>1471.4</ele>
        <time>2022-10-28T11:21:21Z</time>
      </trkpt>
      <trkpt lat="44.45378" lon="3.63394">
        <ele>1471.4</ele>
        <time>2022-10-28T11:21:22Z</time>
      </trkpt>
      <trkpt lat="44.45375" lon="3.63398">
        <ele>1471.4</ele>
        <time>2022-10-28T11:21:23Z</time>
      </trkpt>
      <trkpt lat="44.45372" lon="3.63401">
        <ele>1471.4</ele>
        <time>2022-10-28T11:21:24Z</time>
      </trkpt>
      <trkpt lat="44.4537" lon="3.63405">
        <ele>1471.4</ele>
        <time>2022-10-28T11:21:25Z</time>
      </trkpt>
      <trkpt lat="44.45367" lon="3.63408">
        <ele>1471.4</ele>
        <time>2022-10-28T11:21:26Z</time>
      </trkpt>
      <trkpt lat="44.45364" lon="3.63411">
        <ele>1471.4</ele>
        <time>2022-10-28T11:21:27Z</time>
      </trkpt>
      <trkpt lat="44.45362" lon="3.63414">
        <ele>1471.6</ele>
        <time>2022-10-28T11:21:28Z</time>
      </trkpt>
      <trkpt lat="44.45359" lon="3.63418">
        <ele>1471.6</ele>
        <time>2022-10-28T11:21:29Z</time>
      </trkpt>
      <trkpt lat="44.45356" lon="3.6342">
        <ele>1471.6</ele>
        <time>2022-10-28T11:21:30Z</time>
      </trkpt>
      <trkpt lat="44.45353" lon="3.63424">
        <ele>1471.8</ele>
        <time>2022-10-28T11:21:31Z</time>
      </trkpt>
      <trkpt lat="44.45351" lon="3.63427">
        <ele>1471.8</ele>
        <time>2022-10-28T11:21:32Z</time>
      </trkpt>
      <trkpt lat="44.45349" lon="3.6343">
        <ele>1471.8</ele>
        <time>2022-10-28T11:21:33Z</time>
      </trkpt>
      <trkpt lat="44.45346" lon="3.63434">
        <ele>1472</ele>
        <time>2022-10-28T11:21:34Z</time>
      </trkpt>
      <trkpt lat="44.45343" lon="3.63437">
        <ele>1472</ele>
        <time>2022-10-28T11:21:35Z</time>
      </trkpt>
      <trkpt lat="44.45341" lon="3.6344">
        <ele>1472</ele>
        <time>2022-10-28T11:21:36Z</time>
      </trkpt>
      <trkpt lat="44.45338" lon="3.63443">
        <ele>1472</ele>
        <time>2022-10-28T11:21:37Z</time>
      </trkpt>
      <trkpt lat="44.45336" lon="3.63447">
        <ele>1472</ele>
        <time>2022-10-28T11:21:38Z</time>
      </trkpt>
      <trkpt lat="44.45333" lon="3.6345">
        <ele>1472</ele>
        <time>2022-10-28T11:21:39Z</time>
      </trkpt>
      <trkpt lat="44.45331" lon="3.63454">
        <ele>1472</ele>
        <time>2022-10-28T11:21:40Z</time>
      </trkpt>
      <trkpt lat="44.45328" lon="3.63457">
        <ele>1472</ele>
        <time>2022-10-28T11:21:41Z</time>
      </trkpt>
      <trkpt lat="44.45326" lon="3.63461">
        <ele>1472</ele>
        <time>2022-10-28T11:21:42Z</time>
      </trkpt>
      <trkpt lat="44.45323" lon="3.63464">
        <ele>1472</ele>
        <time>2022-10-28T11:21:43Z</time>
      </trkpt>
      <trkpt lat="44.4532" lon="3.63468">
        <ele>1472</ele>
        <time>2022-10-28T11:21:44Z</time>
      </trkpt>
      <trkpt lat="44.45317" lon="3.63471">
        <ele>1472</ele>
        <time>2022-10-28T11:21:45Z</time>
      </trkpt>
      <trkpt lat="44.45315" lon="3.63474">
        <ele>1472</ele>
        <time>2022-10-28T11:21:46Z</time>
      </trkpt>
      <trkpt lat="44.45312" lon="3.63478">
        <ele>1472</ele>
        <time>2022-10-28T11:21:47Z</time>
      </trkpt>
      <trkpt lat="44.45309" lon="3.63482">
        <ele>1472</ele>
        <time>2022-10-28T11:21:48Z</time>
      </trkpt>
      <trkpt lat="44.45307" lon="3.63485">
        <ele>1472.2</ele>
        <time>2022-10-28T11:21:49Z</time>
      </trkpt>
      <trkpt lat="44.45304" lon="3.63488">
        <ele>1472.2</ele>
        <time>2022-10-28T11:21:50Z</time>
      </trkpt>
      <trkpt lat="44.45301" lon="3.63491">
        <ele>1472.2</ele>
        <time>2022-10-28T11:21:51Z</time>
      </trkpt>
      <trkpt lat="44.45299" lon="3.63494">
        <ele>1472.2</ele>
        <time>2022-10-28T11:21:52Z</time>
      </trkpt>
      <trkpt lat="44.45296" lon="3.63497">
        <ele>1472.2</ele>
        <time>2022-10-28T11:21:53Z</time>
      </trkpt>
      <trkpt lat="44.45293" lon="3.63499">
        <ele>1472.4</ele>
        <time>2022-10-28T11:21:54Z</time>
      </trkpt>
      <trkpt lat="44.45291" lon="3.63502">
        <ele>1472.4</ele>
        <time>2022-10-28T11:21:55Z</time>
      </trkpt>
      <trkpt lat="44.45288" lon="3.63504">
        <ele>1472.6</ele>
        <time>2022-10-28T11:21:56Z</time>
      </trkpt>
      <trkpt lat="44.45286" lon="3.63507">
        <ele>1472.6</ele>
        <time>2022-10-28T11:21:57Z</time>
      </trkpt>
      <trkpt lat="44.45283" lon="3.6351">
        <ele>1472.8</ele>
        <time>2022-10-28T11:21:58Z</time>
      </trkpt>
      <trkpt lat="44.45281" lon="3.63513">
        <ele>1472.8</ele>
        <time>2022-10-28T11:21:59Z</time>
      </trkpt>
      <trkpt lat="44.45278" lon="3.63515">
        <ele>1472.8</ele>
        <time>2022-10-28T11:22:00Z</time>
      </trkpt>
      <trkpt lat="44.45275" lon="3.63517">
        <ele>1473</ele>
        <time>2022-10-28T11:22:01Z</time>
      </trkpt>
      <trkpt lat="44.45272" lon="3.6352">
        <ele>1473</ele>
        <time>2022-10-28T11:22:02Z</time>
      </trkpt>
      <trkpt lat="44.45269" lon="3.63522">
        <ele>1473</ele>
        <time>2022-10-28T11:22:03Z</time>
      </trkpt>
      <trkpt lat="44.45267" lon="3.63525">
        <ele>1473</ele>
        <time>2022-10-28T11:22:04Z</time>
      </trkpt>
      <trkpt lat="44.45265" lon="3.63527">
        <ele>1473</ele>
        <time>2022-10-28T11:22:05Z</time>
      </trkpt>
      <trkpt lat="44.45262" lon="3.6353">
        <ele>1473</ele>
        <time>2022-10-28T11:22:06Z</time>
      </trkpt>
      <trkpt lat="44.45259" lon="3.63533">
        <ele>1473.2</ele>
        <time>2022-10-28T11:22:07Z</time>
      </trkpt>
      <trkpt lat="44.45257" lon="3.63535">
        <ele>1473.2</ele>
        <time>2022-10-28T11:22:08Z</time>
      </trkpt>
      <trkpt lat="44.45255" lon="3.63538">
        <ele>1473.2</ele>
        <time>2022-10-28T11:22:09Z</time>
      </trkpt>
      <trkpt lat="44.45252" lon="3.6354">
        <ele>1473.2</ele>
        <time>2022-10-28T11:22:10Z</time>
      </trkpt>
      <trkpt lat="44.4525" lon="3.63542">
        <ele>1473.4</ele>
        <time>2022-10-28T11:22:11Z</time>
      </trkpt>
      <trkpt lat="44.45248" lon="3.63544">
        <ele>1473.4</ele>
        <time>2022-10-28T11:22:12Z</time>
      </trkpt>
      <trkpt lat="44.45246" lon="3.63547">
        <ele>1473.6</ele>
        <time>2022-10-28T11:22:13Z</time>
      </trkpt>
      <trkpt lat="44.45243" lon="3.63549">
        <ele>1473.6</ele>
        <time>2022-10-28T11:22:14Z</time>
      </trkpt>
      <trkpt lat="44.45241" lon="3.63551">
        <ele>1473.8</ele>
        <time>2022-10-28T11:22:15Z</time>
      </trkpt>
      <trkpt lat="44.45238" lon="3.63553">
        <ele>1473.8</ele>
        <time>2022-10-28T11:22:16Z</time>
      </trkpt>
      <trkpt lat="44.45236" lon="3.63555">
        <ele>1473.8</ele>
        <time>2022-10-28T11:22:17Z</time>
      </trkpt>
      <trkpt lat="44.45234" lon="3.63558">
        <ele>1474</ele>
        <time>2022-10-28T11:22:18Z</time>
      </trkpt>
      <trkpt lat="44.45231" lon="3.6356">
        <ele>1474</ele>
        <time>2022-10-28T11:22:19Z</time>
      </trkpt>
      <trkpt lat="44.45229" lon="3.63562">
        <ele>1474</ele>
        <time>2022-10-28T11:22:20Z</time>
      </trkpt>
      <trkpt lat="44.45226" lon="3.63564">
        <ele>1474.2</ele>
        <time>2022-10-28T11:22:21Z</time>
      </trkpt>
      <trkpt lat="44.45224" lon="3.63566">
        <ele>1474.4</ele>
        <time>2022-10-28T11:22:22Z</time>
      </trkpt>
      <trkpt lat="44.45221" lon="3.63568">
        <ele>1474.4</ele>
        <time>2022-10-28T11:22:23Z</time>
      </trkpt>
      <trkpt lat="44.45219" lon="3.6357">
        <ele>1474.6</ele>
        <time>2022-10-28T11:22:24Z</time>
      </trkpt>
      <trkpt lat="44.45216" lon="3.63572">
        <ele>1474.6</ele>
        <time>2022-10-28T11:22:25Z</time>
      </trkpt>
      <trkpt lat="44.45213" lon="3.63574">
        <ele>1474.8</ele>
        <time>2022-10-28T11:22:26Z</time>
      </trkpt>
      <trkpt lat="44.45211" lon="3.63576">
        <ele>1474.8</ele>
        <time>2022-10-28T11:22:27Z</time>
      </trkpt>
      <trkpt lat="44.45208" lon="3.63578">
        <ele>1475</ele>
        <time>2022-10-28T11:22:28Z</time>
      </trkpt>
      <trkpt lat="44.45205" lon="3.6358">
        <ele>1475</ele>
        <time>2022-10-28T11:22:29Z</time>
      </trkpt>
      <trkpt lat="44.45202" lon="3.63582">
        <ele>1475</ele>
        <time>2022-10-28T11:22:30Z</time>
      </trkpt>
      <trkpt lat="44.45199" lon="3.63584">
        <ele>1475</ele>
        <time>2022-10-28T11:22:31Z</time>
      </trkpt>
      <trkpt lat="44.45197" lon="3.63586">
        <ele>1475.2</ele>
        <time>2022-10-28T11:22:32Z</time>
      </trkpt>
      <trkpt lat="44.45194" lon="3.63587">
        <ele>1475.2</ele>
        <time>2022-10-28T11:22:33Z</time>
      </trkpt>
      <trkpt lat="44.45192" lon="3.63589">
        <ele>1475.4</ele>
        <time>2022-10-28T11:22:34Z</time>
      </trkpt>
      <trkpt lat="44.4519" lon="3.63591">
        <ele>1475.6</ele>
        <time>2022-10-28T11:22:35Z</time>
      </trkpt>
      <trkpt lat="44.45187" lon="3.63592">
        <ele>1475.6</ele>
        <time>2022-10-28T11:22:36Z</time>
      </trkpt>
      <trkpt lat="44.45185" lon="3.63593">
        <ele>1475.8</ele>
        <time>2022-10-28T11:22:37Z</time>
      </trkpt>
      <trkpt lat="44.45182" lon="3.63595">
        <ele>1475.8</ele>
        <time>2022-10-28T11:22:38Z</time>
      </trkpt>
      <trkpt lat="44.45179" lon="3.63597">
        <ele>1476</ele>
        <time>2022-10-28T11:22:39Z</time>
      </trkpt>
      <trkpt lat="44.45177" lon="3.63598">
        <ele>1476.2</ele>
        <time>2022-10-28T11:22:40Z</time>
      </trkpt>
      <trkpt lat="44.45174" lon="3.63599">
        <ele>1476.2</ele>
        <time>2022-10-28T11:22:41Z</time>
      </trkpt>
      <trkpt lat="44.45172" lon="3.636">
        <ele>1476.4</ele>
        <time>2022-10-28T11:22:42Z</time>
      </trkpt>
      <trkpt lat="44.4517" lon="3.63602">
        <ele>1476.6</ele>
        <time>2022-10-28T11:22:43Z</time>
      </trkpt>
      <trkpt lat="44.45168" lon="3.63603">
        <ele>1476.8</ele>
        <time>2022-10-28T11:22:44Z</time>
      </trkpt>
      <trkpt lat="44.45165" lon="3.63604">
        <ele>1476.8</ele>
        <time>2022-10-28T11:22:45Z</time>
      </trkpt>
      <trkpt lat="44.45163" lon="3.63605">
        <ele>1477</ele>
        <time>2022-10-28T11:22:46Z</time>
      </trkpt>
      <trkpt lat="44.4516" lon="3.63606">
        <ele>1477.2</ele>
        <time>2022-10-28T11:22:47Z</time>
      </trkpt>
      <trkpt lat="44.45158" lon="3.63608">
        <ele>1477.4</ele>
        <time>2022-10-28T11:22:48Z</time>
      </trkpt>
      <trkpt lat="44.45156" lon="3.63609">
        <ele>1477.6</ele>
        <time>2022-10-28T11:22:49Z</time>
      </trkpt>
      <trkpt lat="44.45154" lon="3.63611">
        <ele>1477.6</ele>
        <time>2022-10-28T11:22:50Z</time>
      </trkpt>
      <trkpt lat="44.45151" lon="3.63613">
        <ele>1477.8</ele>
        <time>2022-10-28T11:22:51Z</time>
      </trkpt>
      <trkpt lat="44.45149" lon="3.63615">
        <ele>1478</ele>
        <time>2022-10-28T11:22:52Z</time>
      </trkpt>
      <trkpt lat="44.45147" lon="3.63616">
        <ele>1478.2</ele>
        <time>2022-10-28T11:22:53Z</time>
      </trkpt>
      <trkpt lat="44.45144" lon="3.63618">
        <ele>1478.2</ele>
        <time>2022-10-28T11:22:54Z</time>
      </trkpt>
      <trkpt lat="44.45142" lon="3.63619">
        <ele>1478.4</ele>
        <time>2022-10-28T11:22:55Z</time>
      </trkpt>
      <trkpt lat="44.45139" lon="3.6362">
        <ele>1478.6</ele>
        <time>2022-10-28T11:22:56Z</time>
      </trkpt>
      <trkpt lat="44.45137" lon="3.63622">
        <ele>1478.6</ele>
        <time>2022-10-28T11:22:57Z</time>
      </trkpt>
      <trkpt lat="44.45134" lon="3.63623">
        <ele>1478.8</ele>
        <time>2022-10-28T11:22:58Z</time>
      </trkpt>
      <trkpt lat="44.45132" lon="3.63625">
        <ele>1478.8</ele>
        <time>2022-10-28T11:22:59Z</time>
      </trkpt>
      <trkpt lat="44.4513" lon="3.63626">
        <ele>1479</ele>
        <time>2022-10-28T11:23:00Z</time>
      </trkpt>
      <trkpt lat="44.45127" lon="3.63628">
        <ele>1479.2</ele>
        <time>2022-10-28T11:23:01Z</time>
      </trkpt>
      <trkpt lat="44.45125" lon="3.63629">
        <ele>1479.2</ele>
        <time>2022-10-28T11:23:02Z</time>
      </trkpt>
      <trkpt lat="44.45123" lon="3.6363">
        <ele>1479.4</ele>
        <time>2022-10-28T11:23:03Z</time>
      </trkpt>
      <trkpt lat="44.4512" lon="3.63631">
        <ele>1479.4</ele>
        <time>2022-10-28T11:23:04Z</time>
      </trkpt>
      <trkpt lat="44.45118" lon="3.63633">
        <ele>1479.6</ele>
        <time>2022-10-28T11:23:05Z</time>
      </trkpt>
      <trkpt lat="44.45115" lon="3.63634">
        <ele>1479.8</ele>
        <time>2022-10-28T11:23:06Z</time>
      </trkpt>
      <trkpt lat="44.45113" lon="3.63636">
        <ele>1479.8</ele>
        <time>2022-10-28T11:23:07Z</time>
      </trkpt>
      <trkpt lat="44.4511" lon="3.63638">
        <ele>1479.8</ele>
        <time>2022-10-28T11:23:08Z</time>
      </trkpt>
      <trkpt lat="44.45108" lon="3.6364">
        <ele>1480</ele>
        <time>2022-10-28T11:23:09Z</time>
      </trkpt>
      <trkpt lat="44.45106" lon="3.63642">
        <ele>1480</ele>
        <time>2022-10-28T11:23:10Z</time>
      </trkpt>
      <trkpt lat="44.45103" lon="3.63644">
        <ele>1480.2</ele>
        <time>2022-10-28T11:23:11Z</time>
      </trkpt>
      <trkpt lat="44.45101" lon="3.63646">
        <ele>1480.2</ele>
        <time>2022-10-28T11:23:12Z</time>
      </trkpt>
      <trkpt lat="44.45099" lon="3.63647">
        <ele>1480.4</ele>
        <time>2022-10-28T11:23:13Z</time>
      </trkpt>
      <trkpt lat="44.45096" lon="3.63649">
        <ele>1480.4</ele>
        <time>2022-10-28T11:23:14Z</time>
      </trkpt>
      <trkpt lat="44.45094" lon="3.63651">
        <ele>1480.6</ele>
        <time>2022-10-28T11:23:15Z</time>
      </trkpt>
      <trkpt lat="44.45091" lon="3.63653">
        <ele>1480.6</ele>
        <time>2022-10-28T11:23:16Z</time>
      </trkpt>
      <trkpt lat="44.45089" lon="3.63655">
        <ele>1480.8</ele>
        <time>2022-10-28T11:23:17Z</time>
      </trkpt>
      <trkpt lat="44.45086" lon="3.63656">
        <ele>1480.8</ele>
        <time>2022-10-28T11:23:18Z</time>
      </trkpt>
      <trkpt lat="44.45084" lon="3.63658">
        <ele>1481</ele>
        <time>2022-10-28T11:23:19Z</time>
      </trkpt>
      <trkpt lat="44.45082" lon="3.6366">
        <ele>1481</ele>
        <time>2022-10-28T11:23:20Z</time>
      </trkpt>
      <trkpt lat="44.45079" lon="3.63662">
        <ele>1481</ele>
        <time>2022-10-28T11:23:21Z</time>
      </trkpt>
      <trkpt lat="44.45077" lon="3.63664">
        <ele>1481.2</ele>
        <time>2022-10-28T11:23:22Z</time>
      </trkpt>
      <trkpt lat="44.45074" lon="3.63666">
        <ele>1481.2</ele>
        <time>2022-10-28T11:23:23Z</time>
      </trkpt>
      <trkpt lat="44.45072" lon="3.63668">
        <ele>1481.4</ele>
        <time>2022-10-28T11:23:24Z</time>
      </trkpt>
      <trkpt lat="44.4507" lon="3.63671">
        <ele>1481.4</ele>
        <time>2022-10-28T11:23:25Z</time>
      </trkpt>
      <trkpt lat="44.45067" lon="3.63673">
        <ele>1481.4</ele>
        <time>2022-10-28T11:23:26Z</time>
      </trkpt>
      <trkpt lat="44.45065" lon="3.63675">
        <ele>1481.6</ele>
        <time>2022-10-28T11:23:27Z</time>
      </trkpt>
      <trkpt lat="44.45063" lon="3.63678">
        <ele>1481.6</ele>
        <time>2022-10-28T11:23:28Z</time>
      </trkpt>
      <trkpt lat="44.4506" lon="3.63681">
        <ele>1481.6</ele>
        <time>2022-10-28T11:23:29Z</time>
      </trkpt>
      <trkpt lat="44.45058" lon="3.63684">
        <ele>1481.6</ele>
        <time>2022-10-28T11:23:30Z</time>
      </trkpt>
      <trkpt lat="44.45056" lon="3.63687">
        <ele>1481.8</ele>
        <time>2022-10-28T11:23:31Z</time>
      </trkpt>
      <trkpt lat="44.45054" lon="3.6369">
        <ele>1481.8</ele>
        <time>2022-10-28T11:23:32Z</time>
      </trkpt>
      <trkpt lat="44.45052" lon="3.63693">
        <ele>1482</ele>
        <time>2022-10-28T11:23:33Z</time>
      </trkpt>
      <trkpt lat="44.4505" lon="3.63695">
        <ele>1482</ele>
        <time>2022-10-28T11:23:34Z</time>
      </trkpt>
      <trkpt lat="44.45048" lon="3.63698">
        <ele>1482.2</ele>
        <time>2022-10-28T11:23:35Z</time>
      </trkpt>
      <trkpt lat="44.45046" lon="3.63701">
        <ele>1482.4</ele>
        <time>2022-10-28T11:23:36Z</time>
      </trkpt>
      <trkpt lat="44.45044" lon="3.63704">
        <ele>1482.4</ele>
        <time>2022-10-28T11:23:37Z</time>
      </trkpt>
      <trkpt lat="44.45042" lon="3.63706">
        <ele>1482.4</ele>
        <time>2022-10-28T11:23:38Z</time>
      </trkpt>
      <trkpt lat="44.4504" lon="3.63709">
        <ele>1482.8</ele>
        <time>2022-10-28T11:23:39Z</time>
      </trkpt>
      <trkpt lat="44.45039" lon="3.63712">
        <ele>1482.8</ele>
        <time>2022-10-28T11:23:40Z</time>
      </trkpt>
      <trkpt lat="44.45037" lon="3.63715">
        <ele>1483</ele>
        <time>2022-10-28T11:23:41Z</time>
      </trkpt>
      <trkpt lat="44.45035" lon="3.63719">
        <ele>1483</ele>
        <time>2022-10-28T11:23:42Z</time>
      </trkpt>
      <trkpt lat="44.45033" lon="3.63722">
        <ele>1483</ele>
        <time>2022-10-28T11:23:43Z</time>
      </trkpt>
      <trkpt lat="44.45031" lon="3.63725">
        <ele>1483.2</ele>
        <time>2022-10-28T11:23:44Z</time>
      </trkpt>
      <trkpt lat="44.4503" lon="3.63728">
        <ele>1483.2</ele>
        <time>2022-10-28T11:23:45Z</time>
      </trkpt>
      <trkpt lat="44.45028" lon="3.63731">
        <ele>1483.2</ele>
        <time>2022-10-28T11:23:46Z</time>
      </trkpt>
      <trkpt lat="44.45027" lon="3.63734">
        <ele>1483.4</ele>
        <time>2022-10-28T11:23:47Z</time>
      </trkpt>
      <trkpt lat="44.45025" lon="3.63737">
        <ele>1483.4</ele>
        <time>2022-10-28T11:23:48Z</time>
      </trkpt>
      <trkpt lat="44.45023" lon="3.6374">
        <ele>1483.6</ele>
        <time>2022-10-28T11:23:49Z</time>
      </trkpt>
      <trkpt lat="44.45021" lon="3.63743">
        <ele>1483.6</ele>
        <time>2022-10-28T11:23:50Z</time>
      </trkpt>
      <trkpt lat="44.4502" lon="3.63746">
        <ele>1483.8</ele>
        <time>2022-10-28T11:23:51Z</time>
      </trkpt>
      <trkpt lat="44.45018" lon="3.63749">
        <ele>1483.8</ele>
        <time>2022-10-28T11:23:52Z</time>
      </trkpt>
      <trkpt lat="44.45017" lon="3.63752">
        <ele>1484</ele>
        <time>2022-10-28T11:23:53Z</time>
      </trkpt>
      <trkpt lat="44.45015" lon="3.63755">
        <ele>1484</ele>
        <time>2022-10-28T11:23:54Z</time>
      </trkpt>
      <trkpt lat="44.45014" lon="3.63758">
        <ele>1484.2</ele>
        <time>2022-10-28T11:23:55Z</time>
      </trkpt>
      <trkpt lat="44.45012" lon="3.63761">
        <ele>1484.2</ele>
        <time>2022-10-28T11:23:56Z</time>
      </trkpt>
      <trkpt lat="44.45011" lon="3.63764">
        <ele>1484.4</ele>
        <time>2022-10-28T11:23:57Z</time>
      </trkpt>
      <trkpt lat="44.45009" lon="3.63767">
        <ele>1484.4</ele>
        <time>2022-10-28T11:23:58Z</time>
      </trkpt>
      <trkpt lat="44.45008" lon="3.6377">
        <ele>1484.6</ele>
        <time>2022-10-28T11:23:59Z</time>
      </trkpt>
      <trkpt lat="44.45006" lon="3.63773">
        <ele>1484.6</ele>
        <time>2022-10-28T11:24:00Z</time>
      </trkpt>
      <trkpt lat="44.45004" lon="3.63776">
        <ele>1484.6</ele>
        <time>2022-10-28T11:24:01Z</time>
      </trkpt>
      <trkpt lat="44.45003" lon="3.63779">
        <ele>1484.8</ele>
        <time>2022-10-28T11:24:02Z</time>
      </trkpt>
      <trkpt lat="44.45002" lon="3.63782">
        <ele>1484.8</ele>
        <time>2022-10-28T11:24:03Z</time>
      </trkpt>
      <trkpt lat="44.45" lon="3.63785">
        <ele>1485</ele>
        <time>2022-10-28T11:24:04Z</time>
      </trkpt>
      <trkpt lat="44.44998" lon="3.63788">
        <ele>1485</ele>
        <time>2022-10-28T11:24:05Z</time>
      </trkpt>
      <trkpt lat="44.44997" lon="3.63791">
        <ele>1485.2</ele>
        <time>2022-10-28T11:24:06Z</time>
      </trkpt>
      <trkpt lat="44.44996" lon="3.63794">
        <ele>1485.2</ele>
        <time>2022-10-28T11:24:07Z</time>
      </trkpt>
      <trkpt lat="44.44994" lon="3.63797">
        <ele>1485.2</ele>
        <time>2022-10-28T11:24:08Z</time>
      </trkpt>
      <trkpt lat="44.44993" lon="3.638">
        <ele>1485.4</ele>
        <time>2022-10-28T11:24:09Z</time>
      </trkpt>
      <trkpt lat="44.44991" lon="3.63803">
        <ele>1485.4</ele>
        <time>2022-10-28T11:24:10Z</time>
      </trkpt>
      <trkpt lat="44.4499" lon="3.63806">
        <ele>1485.4</ele>
        <time>2022-10-28T11:24:11Z</time>
      </trkpt>
      <trkpt lat="44.44989" lon="3.6381">
        <ele>1485.6</ele>
        <time>2022-10-28T11:24:12Z</time>
      </trkpt>
      <trkpt lat="44.44988" lon="3.63813">
        <ele>1485.6</ele>
        <time>2022-10-28T11:24:13Z</time>
      </trkpt>
      <trkpt lat="44.44987" lon="3.63816">
        <ele>1485.6</ele>
        <time>2022-10-28T11:24:14Z</time>
      </trkpt>
      <trkpt lat="44.44986" lon="3.6382">
        <ele>1485.6</ele>
        <time>2022-10-28T11:24:15Z</time>
      </trkpt>
      <trkpt lat="44.44984" lon="3.63823">
        <ele>1485.8</ele>
        <time>2022-10-28T11:24:16Z</time>
      </trkpt>
      <trkpt lat="44.44982" lon="3.63826">
        <ele>1485.8</ele>
        <time>2022-10-28T11:24:17Z</time>
      </trkpt>
      <trkpt lat="44.44981" lon="3.63829">
        <ele>1486</ele>
        <time>2022-10-28T11:24:18Z</time>
      </trkpt>
      <trkpt lat="44.44979" lon="3.63832">
        <ele>1486</ele>
        <time>2022-10-28T11:24:19Z</time>
      </trkpt>
      <trkpt lat="44.44978" lon="3.63835">
        <ele>1486.2</ele>
        <time>2022-10-28T11:24:20Z</time>
      </trkpt>
      <trkpt lat="44.44976" lon="3.63838">
        <ele>1486.2</ele>
        <time>2022-10-28T11:24:21Z</time>
      </trkpt>
      <trkpt lat="44.44975" lon="3.63842">
        <ele>1486.4</ele>
        <time>2022-10-28T11:24:22Z</time>
      </trkpt>
      <trkpt lat="44.44973" lon="3.63845">
        <ele>1486.4</ele>
        <time>2022-10-28T11:24:23Z</time>
      </trkpt>
      <trkpt lat="44.44972" lon="3.63847">
        <ele>1486.6</ele>
        <time>2022-10-28T11:24:24Z</time>
      </trkpt>
      <trkpt lat="44.4497" lon="3.63849">
        <ele>1486.6</ele>
        <time>2022-10-28T11:24:25Z</time>
      </trkpt>
      <trkpt lat="44.44969" lon="3.63852">
        <ele>1486.8</ele>
        <time>2022-10-28T11:24:26Z</time>
      </trkpt>
      <trkpt lat="44.44968" lon="3.63855">
        <ele>1486.8</ele>
        <time>2022-10-28T11:24:27Z</time>
      </trkpt>
      <trkpt lat="44.44967" lon="3.63858">
        <ele>1487</ele>
        <time>2022-10-28T11:24:28Z</time>
      </trkpt>
      <trkpt lat="44.44966" lon="3.63861">
        <ele>1487.2</ele>
        <time>2022-10-28T11:24:29Z</time>
      </trkpt>
      <trkpt lat="44.44965" lon="3.63864">
        <ele>1487.2</ele>
        <time>2022-10-28T11:24:30Z</time>
      </trkpt>
      <trkpt lat="44.44963" lon="3.63867">
        <ele>1487.4</ele>
        <time>2022-10-28T11:24:31Z</time>
      </trkpt>
      <trkpt lat="44.44961" lon="3.63869">
        <ele>1487.4</ele>
        <time>2022-10-28T11:24:32Z</time>
      </trkpt>
      <trkpt lat="44.4496" lon="3.63872">
        <ele>1487.6</ele>
        <time>2022-10-28T11:24:33Z</time>
      </trkpt>
      <trkpt lat="44.44959" lon="3.63874">
        <ele>1487.6</ele>
        <time>2022-10-28T11:24:34Z</time>
      </trkpt>
      <trkpt lat="44.44958" lon="3.63876">
        <ele>1487.8</ele>
        <time>2022-10-28T11:24:35Z</time>
      </trkpt>
      <trkpt lat="44.44957" lon="3.63879">
        <ele>1487.8</ele>
        <time>2022-10-28T11:24:36Z</time>
      </trkpt>
      <trkpt lat="44.44956" lon="3.63881">
        <ele>1487.8</ele>
        <time>2022-10-28T11:24:37Z</time>
      </trkpt>
      <trkpt lat="44.44955" lon="3.63883">
        <ele>1488</ele>
        <time>2022-10-28T11:24:38Z</time>
      </trkpt>
      <trkpt lat="44.44954" lon="3.63885">
        <ele>1488</ele>
        <time>2022-10-28T11:24:39Z</time>
      </trkpt>
      <trkpt lat="44.44952" lon="3.63887">
        <ele>1488.2</ele>
        <time>2022-10-28T11:24:40Z</time>
      </trkpt>
      <trkpt lat="44.44951" lon="3.6389">
        <ele>1488.2</ele>
        <time>2022-10-28T11:24:41Z</time>
      </trkpt>
      <trkpt lat="44.44949" lon="3.63893">
        <ele>1488.2</ele>
        <time>2022-10-28T11:24:42Z</time>
      </trkpt>
      <trkpt lat="44.44947" lon="3.63895">
        <ele>1488.4</ele>
        <time>2022-10-28T11:24:43Z</time>
      </trkpt>
      <trkpt lat="44.44944" lon="3.63898">
        <ele>1488.4</ele>
        <time>2022-10-28T11:24:44Z</time>
      </trkpt>
      <trkpt lat="44.44943" lon="3.639">
        <ele>1488.6</ele>
        <time>2022-10-28T11:24:45Z</time>
      </trkpt>
      <trkpt lat="44.44941" lon="3.63902">
        <ele>1488.6</ele>
        <time>2022-10-28T11:24:46Z</time>
      </trkpt>
      <trkpt lat="44.44938" lon="3.63904">
        <ele>1488.6</ele>
        <time>2022-10-28T11:24:47Z</time>
      </trkpt>
      <trkpt lat="44.44936" lon="3.63907">
        <ele>1488.6</ele>
        <time>2022-10-28T11:24:48Z</time>
      </trkpt>
      <trkpt lat="44.44934" lon="3.6391">
        <ele>1488.8</ele>
        <time>2022-10-28T11:24:49Z</time>
      </trkpt>
      <trkpt lat="44.44933" lon="3.63913">
        <ele>1488.8</ele>
        <time>2022-10-28T11:24:50Z</time>
      </trkpt>
      <trkpt lat="44.44931" lon="3.63916">
        <ele>1489</ele>
        <time>2022-10-28T11:24:51Z</time>
      </trkpt>
      <trkpt lat="44.4493" lon="3.63919">
        <ele>1489</ele>
        <time>2022-10-28T11:24:52Z</time>
      </trkpt>
      <trkpt lat="44.44928" lon="3.63922">
        <ele>1489</ele>
        <time>2022-10-28T11:24:53Z</time>
      </trkpt>
      <trkpt lat="44.44927" lon="3.63925">
        <ele>1489.2</ele>
        <time>2022-10-28T11:24:54Z</time>
      </trkpt>
      <trkpt lat="44.44925" lon="3.63928">
        <ele>1489.4</ele>
        <time>2022-10-28T11:24:55Z</time>
      </trkpt>
      <trkpt lat="44.44924" lon="3.63931">
        <ele>1489.4</ele>
        <time>2022-10-28T11:24:56Z</time>
      </trkpt>
      <trkpt lat="44.44923" lon="3.63934">
        <ele>1489.6</ele>
        <time>2022-10-28T11:24:57Z</time>
      </trkpt>
      <trkpt lat="44.44921" lon="3.63938">
        <ele>1489.6</ele>
        <time>2022-10-28T11:24:58Z</time>
      </trkpt>
      <trkpt lat="44.4492" lon="3.63941">
        <ele>1489.8</ele>
        <time>2022-10-28T11:24:59Z</time>
      </trkpt>
      <trkpt lat="44.44918" lon="3.63944">
        <ele>1489.8</ele>
        <time>2022-10-28T11:25:00Z</time>
      </trkpt>
      <trkpt lat="44.44917" lon="3.63947">
        <ele>1489.8</ele>
        <time>2022-10-28T11:25:01Z</time>
      </trkpt>
      <trkpt lat="44.44916" lon="3.63951">
        <ele>1490</ele>
        <time>2022-10-28T11:25:02Z</time>
      </trkpt>
      <trkpt lat="44.44915" lon="3.63954">
        <ele>1490</ele>
        <time>2022-10-28T11:25:03Z</time>
      </trkpt>
      <trkpt lat="44.44913" lon="3.63957">
        <ele>1490.2</ele>
        <time>2022-10-28T11:25:04Z</time>
      </trkpt>
      <trkpt lat="44.44911" lon="3.6396">
        <ele>1490.2</ele>
        <time>2022-10-28T11:25:05Z</time>
      </trkpt>
      <trkpt lat="44.44909" lon="3.63963">
        <ele>1490.2</ele>
        <time>2022-10-28T11:25:06Z</time>
      </trkpt>
      <trkpt lat="44.44907" lon="3.63966">
        <ele>1490.4</ele>
        <time>2022-10-28T11:25:07Z</time>
      </trkpt>
      <trkpt lat="44.44905" lon="3.63969">
        <ele>1490.4</ele>
        <time>2022-10-28T11:25:08Z</time>
      </trkpt>
      <trkpt lat="44.44903" lon="3.63972">
        <ele>1490.4</ele>
        <time>2022-10-28T11:25:09Z</time>
      </trkpt>
      <trkpt lat="44.449" lon="3.63975">
        <ele>1490.6</ele>
        <time>2022-10-28T11:25:10Z</time>
      </trkpt>
      <trkpt lat="44.44898" lon="3.63977">
        <ele>1490.6</ele>
        <time>2022-10-28T11:25:11Z</time>
      </trkpt>
      <trkpt lat="44.44896" lon="3.6398">
        <ele>1490.6</ele>
        <time>2022-10-28T11:25:12Z</time>
      </trkpt>
      <trkpt lat="44.44894" lon="3.63982">
        <ele>1490.6</ele>
        <time>2022-10-28T11:25:13Z</time>
      </trkpt>
      <trkpt lat="44.44891" lon="3.63984">
        <ele>1490.8</ele>
        <time>2022-10-28T11:25:14Z</time>
      </trkpt>
      <trkpt lat="44.44888" lon="3.63986">
        <ele>1490.8</ele>
        <time>2022-10-28T11:25:15Z</time>
      </trkpt>
      <trkpt lat="44.44885" lon="3.63988">
        <ele>1490.8</ele>
        <time>2022-10-28T11:25:16Z</time>
      </trkpt>
      <trkpt lat="44.44882" lon="3.6399">
        <ele>1490.8</ele>
        <time>2022-10-28T11:25:17Z</time>
      </trkpt>
      <trkpt lat="44.4488" lon="3.63992">
        <ele>1490.8</ele>
        <time>2022-10-28T11:25:18Z</time>
      </trkpt>
      <trkpt lat="44.44877" lon="3.63994">
        <ele>1490.8</ele>
        <time>2022-10-28T11:25:19Z</time>
      </trkpt>
      <trkpt lat="44.44875" lon="3.63996">
        <ele>1491</ele>
        <time>2022-10-28T11:25:20Z</time>
      </trkpt>
      <trkpt lat="44.44873" lon="3.63998">
        <ele>1491</ele>
        <time>2022-10-28T11:25:21Z</time>
      </trkpt>
      <trkpt lat="44.44871" lon="3.64">
        <ele>1491.2</ele>
        <time>2022-10-28T11:25:22Z</time>
      </trkpt>
      <trkpt lat="44.44868" lon="3.64002">
        <ele>1491.2</ele>
        <time>2022-10-28T11:25:23Z</time>
      </trkpt>
      <trkpt lat="44.44866" lon="3.64004">
        <ele>1491.2</ele>
        <time>2022-10-28T11:25:24Z</time>
      </trkpt>
      <trkpt lat="44.44863" lon="3.64006">
        <ele>1491.4</ele>
        <time>2022-10-28T11:25:25Z</time>
      </trkpt>
      <trkpt lat="44.44861" lon="3.64008">
        <ele>1491.4</ele>
        <time>2022-10-28T11:25:26Z</time>
      </trkpt>
      <trkpt lat="44.44858" lon="3.64009">
        <ele>1491.4</ele>
        <time>2022-10-28T11:25:27Z</time>
      </trkpt>
      <trkpt lat="44.44855" lon="3.64011">
        <ele>1491.6</ele>
        <time>2022-10-28T11:25:28Z</time>
      </trkpt>
      <trkpt lat="44.44852" lon="3.64013">
        <ele>1491.6</ele>
        <time>2022-10-28T11:25:29Z</time>
      </trkpt>
      <trkpt lat="44.4485" lon="3.64015">
        <ele>1491.6</ele>
        <time>2022-10-28T11:25:30Z</time>
      </trkpt>
      <trkpt lat="44.44847" lon="3.64017">
        <ele>1491.6</ele>
        <time>2022-10-28T11:25:31Z</time>
      </trkpt>
      <trkpt lat="44.44845" lon="3.64019">
        <ele>1491.8</ele>
        <time>2022-10-28T11:25:32Z</time>
      </trkpt>
      <trkpt lat="44.44842" lon="3.64021">
        <ele>1491.8</ele>
        <time>2022-10-28T11:25:33Z</time>
      </trkpt>
      <trkpt lat="44.44839" lon="3.64022">
        <ele>1491.8</ele>
        <time>2022-10-28T11:25:34Z</time>
      </trkpt>
      <trkpt lat="44.44837" lon="3.64024">
        <ele>1492</ele>
        <time>2022-10-28T11:25:35Z</time>
      </trkpt>
      <trkpt lat="44.44834" lon="3.64025">
        <ele>1491.8</ele>
        <time>2022-10-28T11:25:36Z</time>
      </trkpt>
      <trkpt lat="44.44831" lon="3.64027">
        <ele>1491.8</ele>
        <time>2022-10-28T11:25:37Z</time>
      </trkpt>
      <trkpt lat="44.44828" lon="3.64029">
        <ele>1492</ele>
        <time>2022-10-28T11:25:38Z</time>
      </trkpt>
      <trkpt lat="44.44826" lon="3.64031">
        <ele>1492</ele>
        <time>2022-10-28T11:25:39Z</time>
      </trkpt>
      <trkpt lat="44.44824" lon="3.64034">
        <ele>1492.2</ele>
        <time>2022-10-28T11:25:40Z</time>
      </trkpt>
      <trkpt lat="44.44822" lon="3.64037">
        <ele>1492.2</ele>
        <time>2022-10-28T11:25:41Z</time>
      </trkpt>
      <trkpt lat="44.4482" lon="3.6404">
        <ele>1492.2</ele>
        <time>2022-10-28T11:25:42Z</time>
      </trkpt>
      <trkpt lat="44.44818" lon="3.64043">
        <ele>1492.4</ele>
        <time>2022-10-28T11:25:43Z</time>
      </trkpt>
      <trkpt lat="44.44816" lon="3.64045">
        <ele>1492.4</ele>
        <time>2022-10-28T11:25:44Z</time>
      </trkpt>
      <trkpt lat="44.44814" lon="3.64048">
        <ele>1492.4</ele>
        <time>2022-10-28T11:25:45Z</time>
      </trkpt>
      <trkpt lat="44.44812" lon="3.6405">
        <ele>1492.6</ele>
        <time>2022-10-28T11:25:46Z</time>
      </trkpt>
      <trkpt lat="44.44811" lon="3.64052">
        <ele>1492.6</ele>
        <time>2022-10-28T11:25:47Z</time>
      </trkpt>
      <trkpt lat="44.44809" lon="3.64054">
        <ele>1492.8</ele>
        <time>2022-10-28T11:25:48Z</time>
      </trkpt>
      <trkpt lat="44.44808" lon="3.64056">
        <ele>1492.8</ele>
        <time>2022-10-28T11:25:49Z</time>
      </trkpt>
      <trkpt lat="44.44806" lon="3.64058">
        <ele>1493</ele>
        <time>2022-10-28T11:25:50Z</time>
      </trkpt>
      <trkpt lat="44.44805" lon="3.64061">
        <ele>1493.2</ele>
        <time>2022-10-28T11:25:51Z</time>
      </trkpt>
      <trkpt lat="44.44803" lon="3.64063">
        <ele>1493.2</ele>
        <time>2022-10-28T11:25:52Z</time>
      </trkpt>
      <trkpt lat="44.44802" lon="3.64065">
        <ele>1493.4</ele>
        <time>2022-10-28T11:25:53Z</time>
      </trkpt>
      <trkpt lat="44.448" lon="3.64068">
        <ele>1493.4</ele>
        <time>2022-10-28T11:25:54Z</time>
      </trkpt>
      <trkpt lat="44.44798" lon="3.6407">
        <ele>1493.4</ele>
        <time>2022-10-28T11:25:55Z</time>
      </trkpt>
      <trkpt lat="44.44797" lon="3.64072">
        <ele>1493.6</ele>
        <time>2022-10-28T11:25:56Z</time>
      </trkpt>
      <trkpt lat="44.44796" lon="3.64075">
        <ele>1493.8</ele>
        <time>2022-10-28T11:25:57Z</time>
      </trkpt>
      <trkpt lat="44.44794" lon="3.64078">
        <ele>1493.8</ele>
        <time>2022-10-28T11:25:58Z</time>
      </trkpt>
      <trkpt lat="44.44793" lon="3.64081">
        <ele>1494</ele>
        <time>2022-10-28T11:25:59Z</time>
      </trkpt>
      <trkpt lat="44.44791" lon="3.64083">
        <ele>1494.2</ele>
        <time>2022-10-28T11:26:00Z</time>
      </trkpt>
      <trkpt lat="44.44789" lon="3.64086">
        <ele>1494.2</ele>
        <time>2022-10-28T11:26:01Z</time>
      </trkpt>
      <trkpt lat="44.44787" lon="3.64088">
        <ele>1494.4</ele>
        <time>2022-10-28T11:26:02Z</time>
      </trkpt>
      <trkpt lat="44.44785" lon="3.64091">
        <ele>1494.4</ele>
        <time>2022-10-28T11:26:03Z</time>
      </trkpt>
      <trkpt lat="44.44782" lon="3.64094">
        <ele>1494.4</ele>
        <time>2022-10-28T11:26:04Z</time>
      </trkpt>
      <trkpt lat="44.4478" lon="3.64097">
        <ele>1494.6</ele>
        <time>2022-10-28T11:26:05Z</time>
      </trkpt>
      <trkpt lat="44.44778" lon="3.641">
        <ele>1494.6</ele>
        <time>2022-10-28T11:26:06Z</time>
      </trkpt>
      <trkpt lat="44.44776" lon="3.64102">
        <ele>1494.6</ele>
        <time>2022-10-28T11:26:07Z</time>
      </trkpt>
      <trkpt lat="44.44774" lon="3.64105">
        <ele>1494.6</ele>
        <time>2022-10-28T11:26:08Z</time>
      </trkpt>
      <trkpt lat="44.44772" lon="3.64108">
        <ele>1494.8</ele>
        <time>2022-10-28T11:26:09Z</time>
      </trkpt>
      <trkpt lat="44.4477" lon="3.6411">
        <ele>1494.8</ele>
        <time>2022-10-28T11:26:10Z</time>
      </trkpt>
      <trkpt lat="44.44768" lon="3.64113">
        <ele>1495</ele>
        <time>2022-10-28T11:26:11Z</time>
      </trkpt>
      <trkpt lat="44.44767" lon="3.64116">
        <ele>1495</ele>
        <time>2022-10-28T11:26:12Z</time>
      </trkpt>
      <trkpt lat="44.44765" lon="3.64119">
        <ele>1495.2</ele>
        <time>2022-10-28T11:26:13Z</time>
      </trkpt>
      <trkpt lat="44.44763" lon="3.64122">
        <ele>1495.2</ele>
        <time>2022-10-28T11:26:14Z</time>
      </trkpt>
      <trkpt lat="44.44761" lon="3.64125">
        <ele>1495.4</ele>
        <time>2022-10-28T11:26:15Z</time>
      </trkpt>
      <trkpt lat="44.4476" lon="3.64128">
        <ele>1495.4</ele>
        <time>2022-10-28T11:26:16Z</time>
      </trkpt>
      <trkpt lat="44.44758" lon="3.6413">
        <ele>1495.4</ele>
        <time>2022-10-28T11:26:17Z</time>
      </trkpt>
      <trkpt lat="44.44756" lon="3.64133">
        <ele>1495.6</ele>
        <time>2022-10-28T11:26:18Z</time>
      </trkpt>
      <trkpt lat="44.44755" lon="3.64135">
        <ele>1495.6</ele>
        <time>2022-10-28T11:26:19Z</time>
      </trkpt>
      <trkpt lat="44.44753" lon="3.64138">
        <ele>1495.6</ele>
        <time>2022-10-28T11:26:20Z</time>
      </trkpt>
      <trkpt lat="44.44751" lon="3.6414">
        <ele>1495.6</ele>
        <time>2022-10-28T11:26:21Z</time>
      </trkpt>
      <trkpt lat="44.44749" lon="3.64142">
        <ele>1495.6</ele>
        <time>2022-10-28T11:26:22Z</time>
      </trkpt>
      <trkpt lat="44.44747" lon="3.64144">
        <ele>1495.8</ele>
        <time>2022-10-28T11:26:23Z</time>
      </trkpt>
      <trkpt lat="44.44745" lon="3.64145">
        <ele>1495.8</ele>
        <time>2022-10-28T11:26:24Z</time>
      </trkpt>
      <trkpt lat="44.44743" lon="3.64146">
        <ele>1495.8</ele>
        <time>2022-10-28T11:26:25Z</time>
      </trkpt>
      <trkpt lat="44.44742" lon="3.64148">
        <ele>1495.8</ele>
        <time>2022-10-28T11:26:26Z</time>
      </trkpt>
      <trkpt lat="44.4474" lon="3.6415">
        <ele>1495.8</ele>
        <time>2022-10-28T11:26:27Z</time>
      </trkpt>
      <trkpt lat="44.44738" lon="3.64153">
        <ele>1495.8</ele>
        <time>2022-10-28T11:26:28Z</time>
      </trkpt>
      <trkpt lat="44.44736" lon="3.64155">
        <ele>1495.8</ele>
        <time>2022-10-28T11:26:29Z</time>
      </trkpt>
      <trkpt lat="44.44735" lon="3.64158">
        <ele>1496</ele>
        <time>2022-10-28T11:26:30Z</time>
      </trkpt>
      <trkpt lat="44.44734" lon="3.6416">
        <ele>1496</ele>
        <time>2022-10-28T11:26:31Z</time>
      </trkpt>
      <trkpt lat="44.44732" lon="3.64163">
        <ele>1496.2</ele>
        <time>2022-10-28T11:26:32Z</time>
      </trkpt>
      <trkpt lat="44.4473" lon="3.64165">
        <ele>1496.2</ele>
        <time>2022-10-28T11:26:33Z</time>
      </trkpt>
      <trkpt lat="44.44728" lon="3.64168">
        <ele>1496.2</ele>
        <time>2022-10-28T11:26:34Z</time>
      </trkpt>
      <trkpt lat="44.44726" lon="3.6417">
        <ele>1496.4</ele>
        <time>2022-10-28T11:26:35Z</time>
      </trkpt>
      <trkpt lat="44.44724" lon="3.64173">
        <ele>1496.4</ele>
        <time>2022-10-28T11:26:36Z</time>
      </trkpt>
      <trkpt lat="44.44722" lon="3.64176">
        <ele>1496.4</ele>
        <time>2022-10-28T11:26:37Z</time>
      </trkpt>
      <trkpt lat="44.4472" lon="3.64179">
        <ele>1496.4</ele>
        <time>2022-10-28T11:26:38Z</time>
      </trkpt>
      <trkpt lat="44.44718" lon="3.64182">
        <ele>1496.6</ele>
        <time>2022-10-28T11:26:39Z</time>
      </trkpt>
      <trkpt lat="44.44717" lon="3.64185">
        <ele>1496.6</ele>
        <time>2022-10-28T11:26:40Z</time>
      </trkpt>
      <trkpt lat="44.44715" lon="3.64188">
        <ele>1496.6</ele>
        <time>2022-10-28T11:26:41Z</time>
      </trkpt>
      <trkpt lat="44.44713" lon="3.64192">
        <ele>1496.6</ele>
        <time>2022-10-28T11:26:42Z</time>
      </trkpt>
      <trkpt lat="44.44711" lon="3.64195">
        <ele>1496.8</ele>
        <time>2022-10-28T11:26:43Z</time>
      </trkpt>
      <trkpt lat="44.4471" lon="3.64198">
        <ele>1496.8</ele>
        <time>2022-10-28T11:26:44Z</time>
      </trkpt>
      <trkpt lat="44.44709" lon="3.64201">
        <ele>1496.8</ele>
        <time>2022-10-28T11:26:45Z</time>
      </trkpt>
      <trkpt lat="44.44707" lon="3.64204">
        <ele>1497</ele>
        <time>2022-10-28T11:26:46Z</time>
      </trkpt>
      <trkpt lat="44.44706" lon="3.64208">
        <ele>1497</ele>
        <time>2022-10-28T11:26:47Z</time>
      </trkpt>
      <trkpt lat="44.44704" lon="3.64211">
        <ele>1497</ele>
        <time>2022-10-28T11:26:48Z</time>
      </trkpt>
      <trkpt lat="44.44703" lon="3.64214">
        <ele>1497.2</ele>
        <time>2022-10-28T11:26:49Z</time>
      </trkpt>
      <trkpt lat="44.44702" lon="3.64217">
        <ele>1497.2</ele>
        <time>2022-10-28T11:26:50Z</time>
      </trkpt>
      <trkpt lat="44.447" lon="3.6422">
        <ele>1497.4</ele>
        <time>2022-10-28T11:26:51Z</time>
      </trkpt>
      <trkpt lat="44.44698" lon="3.64224">
        <ele>1497.4</ele>
        <time>2022-10-28T11:26:52Z</time>
      </trkpt>
      <trkpt lat="44.44697" lon="3.64228">
        <ele>1497.4</ele>
        <time>2022-10-28T11:26:53Z</time>
      </trkpt>
      <trkpt lat="44.44695" lon="3.64231">
        <ele>1497.6</ele>
        <time>2022-10-28T11:26:54Z</time>
      </trkpt>
      <trkpt lat="44.44693" lon="3.64234">
        <ele>1497.6</ele>
        <time>2022-10-28T11:26:55Z</time>
      </trkpt>
      <trkpt lat="44.44691" lon="3.64237">
        <ele>1497.6</ele>
        <time>2022-10-28T11:26:56Z</time>
      </trkpt>
      <trkpt lat="44.4469" lon="3.64241">
        <ele>1497.6</ele>
        <time>2022-10-28T11:26:57Z</time>
      </trkpt>
      <trkpt lat="44.44688" lon="3.64244">
        <ele>1497.8</ele>
        <time>2022-10-28T11:26:58Z</time>
      </trkpt>
      <trkpt lat="44.44687" lon="3.64248">
        <ele>1497.8</ele>
        <time>2022-10-28T11:26:59Z</time>
      </trkpt>
      <trkpt lat="44.44686" lon="3.64252">
        <ele>1498</ele>
        <time>2022-10-28T11:27:00Z</time>
      </trkpt>
      <trkpt lat="44.44685" lon="3.64256">
        <ele>1498</ele>
        <time>2022-10-28T11:27:01Z</time>
      </trkpt>
      <trkpt lat="44.44683" lon="3.6426">
        <ele>1498.2</ele>
        <time>2022-10-28T11:27:02Z</time>
      </trkpt>
      <trkpt lat="44.44682" lon="3.64264">
        <ele>1498.2</ele>
        <time>2022-10-28T11:27:03Z</time>
      </trkpt>
      <trkpt lat="44.44681" lon="3.64268">
        <ele>1498.4</ele>
        <time>2022-10-28T11:27:04Z</time>
      </trkpt>
      <trkpt lat="44.44681" lon="3.64272">
        <ele>1498.4</ele>
        <time>2022-10-28T11:27:05Z</time>
      </trkpt>
      <trkpt lat="44.4468" lon="3.64275">
        <ele>1498.6</ele>
        <time>2022-10-28T11:27:06Z</time>
      </trkpt>
      <trkpt lat="44.4468" lon="3.64279">
        <ele>1498.6</ele>
        <time>2022-10-28T11:27:07Z</time>
      </trkpt>
      <trkpt lat="44.4468" lon="3.64283">
        <ele>1498.6</ele>
        <time>2022-10-28T11:27:08Z</time>
      </trkpt>
      <trkpt lat="44.44679" lon="3.64287">
        <ele>1498.6</ele>
        <time>2022-10-28T11:27:09Z</time>
      </trkpt>
      <trkpt lat="44.44679" lon="3.64291">
        <ele>1498.8</ele>
        <time>2022-10-28T11:27:10Z</time>
      </trkpt>
      <trkpt lat="44.44679" lon="3.64295">
        <ele>1498.8</ele>
        <time>2022-10-28T11:27:11Z</time>
      </trkpt>
      <trkpt lat="44.44679" lon="3.64299">
        <ele>1499</ele>
        <time>2022-10-28T11:27:12Z</time>
      </trkpt>
      <trkpt lat="44.44679" lon="3.64302">
        <ele>1499</ele>
        <time>2022-10-28T11:27:13Z</time>
      </trkpt>
      <trkpt lat="44.44679" lon="3.64306">
        <ele>1499.2</ele>
        <time>2022-10-28T11:27:14Z</time>
      </trkpt>
      <trkpt lat="44.4468" lon="3.64309">
        <ele>1499.4</ele>
        <time>2022-10-28T11:27:15Z</time>
      </trkpt>
      <trkpt lat="44.4468" lon="3.64313">
        <ele>1499.4</ele>
        <time>2022-10-28T11:27:16Z</time>
      </trkpt>
      <trkpt lat="44.44681" lon="3.64317">
        <ele>1499.6</ele>
        <time>2022-10-28T11:27:17Z</time>
      </trkpt>
      <trkpt lat="44.44681" lon="3.64321">
        <ele>1499.8</ele>
        <time>2022-10-28T11:27:18Z</time>
      </trkpt>
      <trkpt lat="44.44682" lon="3.64325">
        <ele>1499.8</ele>
        <time>2022-10-28T11:27:19Z</time>
      </trkpt>
      <trkpt lat="44.44682" lon="3.64328">
        <ele>1500</ele>
        <time>2022-10-28T11:27:20Z</time>
      </trkpt>
      <trkpt lat="44.44683" lon="3.64332">
        <ele>1500</ele>
        <time>2022-10-28T11:27:21Z</time>
      </trkpt>
      <trkpt lat="44.44684" lon="3.64336">
        <ele>1500.2</ele>
        <time>2022-10-28T11:27:22Z</time>
      </trkpt>
      <trkpt lat="44.44684" lon="3.6434">
        <ele>1500.2</ele>
        <time>2022-10-28T11:27:23Z</time>
      </trkpt>
      <trkpt lat="44.44684" lon="3.64343">
        <ele>1500.4</ele>
        <time>2022-10-28T11:27:24Z</time>
      </trkpt>
      <trkpt lat="44.44685" lon="3.64347">
        <ele>1500.4</ele>
        <time>2022-10-28T11:27:25Z</time>
      </trkpt>
      <trkpt lat="44.44685" lon="3.64351">
        <ele>1500.6</ele>
        <time>2022-10-28T11:27:26Z</time>
      </trkpt>
      <trkpt lat="44.44686" lon="3.64355">
        <ele>1500.6</ele>
        <time>2022-10-28T11:27:27Z</time>
      </trkpt>
      <trkpt lat="44.44686" lon="3.64359">
        <ele>1500.8</ele>
        <time>2022-10-28T11:27:28Z</time>
      </trkpt>
      <trkpt lat="44.44686" lon="3.64362">
        <ele>1500.8</ele>
        <time>2022-10-28T11:27:29Z</time>
      </trkpt>
      <trkpt lat="44.44687" lon="3.64366">
        <ele>1500.8</ele>
        <time>2022-10-28T11:27:30Z</time>
      </trkpt>
      <trkpt lat="44.44687" lon="3.6437">
        <ele>1501</ele>
        <time>2022-10-28T11:27:31Z</time>
      </trkpt>
      <trkpt lat="44.44688" lon="3.64373">
        <ele>1501</ele>
        <time>2022-10-28T11:27:32Z</time>
      </trkpt>
      <trkpt lat="44.44687" lon="3.64377">
        <ele>1501.2</ele>
        <time>2022-10-28T11:27:33Z</time>
      </trkpt>
      <trkpt lat="44.44687" lon="3.64381">
        <ele>1501.4</ele>
        <time>2022-10-28T11:27:34Z</time>
      </trkpt>
      <trkpt lat="44.44687" lon="3.64385">
        <ele>1501.6</ele>
        <time>2022-10-28T11:27:35Z</time>
      </trkpt>
      <trkpt lat="44.44687" lon="3.64389">
        <ele>1501.6</ele>
        <time>2022-10-28T11:27:36Z</time>
      </trkpt>
      <trkpt lat="44.44687" lon="3.64392">
        <ele>1501.8</ele>
        <time>2022-10-28T11:27:37Z</time>
      </trkpt>
      <trkpt lat="44.44686" lon="3.64396">
        <ele>1501.8</ele>
        <time>2022-10-28T11:27:38Z</time>
      </trkpt>
      <trkpt lat="44.44686" lon="3.644">
        <ele>1501.8</ele>
        <time>2022-10-28T11:27:39Z</time>
      </trkpt>
      <trkpt lat="44.44685" lon="3.64404">
        <ele>1502</ele>
        <time>2022-10-28T11:27:40Z</time>
      </trkpt>
      <trkpt lat="44.44685" lon="3.64407">
        <ele>1502</ele>
        <time>2022-10-28T11:27:41Z</time>
      </trkpt>
      <trkpt lat="44.44684" lon="3.64411">
        <ele>1502</ele>
        <time>2022-10-28T11:27:42Z</time>
      </trkpt>
      <trkpt lat="44.44682" lon="3.64415">
        <ele>1502</ele>
        <time>2022-10-28T11:27:43Z</time>
      </trkpt>
      <trkpt lat="44.44681" lon="3.64419">
        <ele>1502.2</ele>
        <time>2022-10-28T11:27:44Z</time>
      </trkpt>
      <trkpt lat="44.4468" lon="3.64423">
        <ele>1502.2</ele>
        <time>2022-10-28T11:27:45Z</time>
      </trkpt>
      <trkpt lat="44.44678" lon="3.64426">
        <ele>1502.2</ele>
        <time>2022-10-28T11:27:46Z</time>
      </trkpt>
      <trkpt lat="44.44677" lon="3.6443">
        <ele>1502.2</ele>
        <time>2022-10-28T11:27:47Z</time>
      </trkpt>
      <trkpt lat="44.44676" lon="3.64434">
        <ele>1502.4</ele>
        <time>2022-10-28T11:27:48Z</time>
      </trkpt>
      <trkpt lat="44.44675" lon="3.64439">
        <ele>1502.4</ele>
        <time>2022-10-28T11:27:49Z</time>
      </trkpt>
      <trkpt lat="44.44674" lon="3.64443">
        <ele>1502.4</ele>
        <time>2022-10-28T11:27:50Z</time>
      </trkpt>
      <trkpt lat="44.44672" lon="3.64448">
        <ele>1502.4</ele>
        <time>2022-10-28T11:27:51Z</time>
      </trkpt>
      <trkpt lat="44.44671" lon="3.64452">
        <ele>1502.6</ele>
        <time>2022-10-28T11:27:52Z</time>
      </trkpt>
      <trkpt lat="44.4467" lon="3.64457">
        <ele>1502.6</ele>
        <time>2022-10-28T11:27:53Z</time>
      </trkpt>
      <trkpt lat="44.44668" lon="3.64461">
        <ele>1502.6</ele>
        <time>2022-10-28T11:27:54Z</time>
      </trkpt>
      <trkpt lat="44.44667" lon="3.64466">
        <ele>1502.6</ele>
        <time>2022-10-28T11:27:55Z</time>
      </trkpt>
      <trkpt lat="44.44665" lon="3.6447">
        <ele>1502.6</ele>
        <time>2022-10-28T11:27:56Z</time>
      </trkpt>
      <trkpt lat="44.44664" lon="3.64474">
        <ele>1502.6</ele>
        <time>2022-10-28T11:27:57Z</time>
      </trkpt>
      <trkpt lat="44.44663" lon="3.64479">
        <ele>1502.6</ele>
        <time>2022-10-28T11:27:58Z</time>
      </trkpt>
      <trkpt lat="44.44661" lon="3.64483">
        <ele>1502.6</ele>
        <time>2022-10-28T11:27:59Z</time>
      </trkpt>
      <trkpt lat="44.4466" lon="3.64487">
        <ele>1502.8</ele>
        <time>2022-10-28T11:28:00Z</time>
      </trkpt>
      <trkpt lat="44.44659" lon="3.64492">
        <ele>1502.8</ele>
        <time>2022-10-28T11:28:01Z</time>
      </trkpt>
      <trkpt lat="44.44657" lon="3.64496">
        <ele>1502.8</ele>
        <time>2022-10-28T11:28:02Z</time>
      </trkpt>
      <trkpt lat="44.44656" lon="3.64499">
        <ele>1503</ele>
        <time>2022-10-28T11:28:03Z</time>
      </trkpt>
      <trkpt lat="44.44654" lon="3.64503">
        <ele>1503</ele>
        <time>2022-10-28T11:28:04Z</time>
      </trkpt>
      <trkpt lat="44.44653" lon="3.64507">
        <ele>1503</ele>
        <time>2022-10-28T11:28:05Z</time>
      </trkpt>
      <trkpt lat="44.44651" lon="3.6451">
        <ele>1503.2</ele>
        <time>2022-10-28T11:28:06Z</time>
      </trkpt>
      <trkpt lat="44.44649" lon="3.64513">
        <ele>1503.2</ele>
        <time>2022-10-28T11:28:07Z</time>
      </trkpt>
      <trkpt lat="44.44647" lon="3.64516">
        <ele>1503.4</ele>
        <time>2022-10-28T11:28:08Z</time>
      </trkpt>
      <trkpt lat="44.44644" lon="3.6452">
        <ele>1503.4</ele>
        <time>2022-10-28T11:28:09Z</time>
      </trkpt>
      <trkpt lat="44.44642" lon="3.64522">
        <ele>1503.4</ele>
        <time>2022-10-28T11:28:10Z</time>
      </trkpt>
      <trkpt lat="44.44639" lon="3.64525">
        <ele>1503.4</ele>
        <time>2022-10-28T11:28:11Z</time>
      </trkpt>
      <trkpt lat="44.44637" lon="3.64528">
        <ele>1503.4</ele>
        <time>2022-10-28T11:28:12Z</time>
      </trkpt>
      <trkpt lat="44.44634" lon="3.64532">
        <ele>1503.6</ele>
        <time>2022-10-28T11:28:13Z</time>
      </trkpt>
      <trkpt lat="44.44631" lon="3.64535">
        <ele>1503.6</ele>
        <time>2022-10-28T11:28:14Z</time>
      </trkpt>
      <trkpt lat="44.44628" lon="3.64538">
        <ele>1503.6</ele>
        <time>2022-10-28T11:28:15Z</time>
      </trkpt>
      <trkpt lat="44.44626" lon="3.64541">
        <ele>1503.6</ele>
        <time>2022-10-28T11:28:16Z</time>
      </trkpt>
      <trkpt lat="44.44623" lon="3.64544">
        <ele>1503.6</ele>
        <time>2022-10-28T11:28:17Z</time>
      </trkpt>
      <trkpt lat="44.44621" lon="3.64547">
        <ele>1503.6</ele>
        <time>2022-10-28T11:28:18Z</time>
      </trkpt>
      <trkpt lat="44.44619" lon="3.6455">
        <ele>1503.6</ele>
        <time>2022-10-28T11:28:19Z</time>
      </trkpt>
      <trkpt lat="44.44616" lon="3.64553">
        <ele>1503.6</ele>
        <time>2022-10-28T11:28:20Z</time>
      </trkpt>
      <trkpt lat="44.44614" lon="3.64557">
        <ele>1503.8</ele>
        <time>2022-10-28T11:28:21Z</time>
      </trkpt>
      <trkpt lat="44.44612" lon="3.6456">
        <ele>1503.8</ele>
        <time>2022-10-28T11:28:22Z</time>
      </trkpt>
      <trkpt lat="44.4461" lon="3.64563">
        <ele>1503.8</ele>
        <time>2022-10-28T11:28:23Z</time>
      </trkpt>
      <trkpt lat="44.44608" lon="3.64566">
        <ele>1503.8</ele>
        <time>2022-10-28T11:28:24Z</time>
      </trkpt>
      <trkpt lat="44.44606" lon="3.64569">
        <ele>1503.8</ele>
        <time>2022-10-28T11:28:25Z</time>
      </trkpt>
      <trkpt lat="44.44604" lon="3.64573">
        <ele>1503.8</ele>
        <time>2022-10-28T11:28:26Z</time>
      </trkpt>
      <trkpt lat="44.44602" lon="3.64577">
        <ele>1504</ele>
        <time>2022-10-28T11:28:27Z</time>
      </trkpt>
      <trkpt lat="44.446" lon="3.64581">
        <ele>1504</ele>
        <time>2022-10-28T11:28:28Z</time>
      </trkpt>
      <trkpt lat="44.44598" lon="3.64585">
        <ele>1504</ele>
        <time>2022-10-28T11:28:29Z</time>
      </trkpt>
      <trkpt lat="44.44596" lon="3.64589">
        <ele>1504</ele>
        <time>2022-10-28T11:28:30Z</time>
      </trkpt>
      <trkpt lat="44.44595" lon="3.64593">
        <ele>1504</ele>
        <time>2022-10-28T11:28:31Z</time>
      </trkpt>
      <trkpt lat="44.44593" lon="3.64597">
        <ele>1504.2</ele>
        <time>2022-10-28T11:28:32Z</time>
      </trkpt>
      <trkpt lat="44.44591" lon="3.64601">
        <ele>1504.2</ele>
        <time>2022-10-28T11:28:33Z</time>
      </trkpt>
      <trkpt lat="44.4459" lon="3.64606">
        <ele>1504.2</ele>
        <time>2022-10-28T11:28:34Z</time>
      </trkpt>
      <trkpt lat="44.44589" lon="3.6461">
        <ele>1504.4</ele>
        <time>2022-10-28T11:28:35Z</time>
      </trkpt>
      <trkpt lat="44.44587" lon="3.64614">
        <ele>1504.4</ele>
        <time>2022-10-28T11:28:36Z</time>
      </trkpt>
      <trkpt lat="44.44585" lon="3.64618">
        <ele>1504.6</ele>
        <time>2022-10-28T11:28:37Z</time>
      </trkpt>
      <trkpt lat="44.44584" lon="3.64622">
        <ele>1504.6</ele>
        <time>2022-10-28T11:28:38Z</time>
      </trkpt>
      <trkpt lat="44.44583" lon="3.64626">
        <ele>1504.6</ele>
        <time>2022-10-28T11:28:39Z</time>
      </trkpt>
      <trkpt lat="44.44582" lon="3.6463">
        <ele>1504.8</ele>
        <time>2022-10-28T11:28:40Z</time>
      </trkpt>
      <trkpt lat="44.4458" lon="3.64633">
        <ele>1504.8</ele>
        <time>2022-10-28T11:28:41Z</time>
      </trkpt>
      <trkpt lat="44.44579" lon="3.64637">
        <ele>1504.8</ele>
        <time>2022-10-28T11:28:42Z</time>
      </trkpt>
      <trkpt lat="44.44578" lon="3.64641">
        <ele>1504.8</ele>
        <time>2022-10-28T11:28:43Z</time>
      </trkpt>
      <trkpt lat="44.44577" lon="3.64645">
        <ele>1505</ele>
        <time>2022-10-28T11:28:44Z</time>
      </trkpt>
      <trkpt lat="44.44575" lon="3.64649">
        <ele>1505</ele>
        <time>2022-10-28T11:28:45Z</time>
      </trkpt>
      <trkpt lat="44.44574" lon="3.64654">
        <ele>1505</ele>
        <time>2022-10-28T11:28:46Z</time>
      </trkpt>
      <trkpt lat="44.44572" lon="3.64658">
        <ele>1505</ele>
        <time>2022-10-28T11:28:47Z</time>
      </trkpt>
      <trkpt lat="44.44571" lon="3.64662">
        <ele>1505</ele>
        <time>2022-10-28T11:28:48Z</time>
      </trkpt>
      <trkpt lat="44.4457" lon="3.64666">
        <ele>1505</ele>
        <time>2022-10-28T11:28:49Z</time>
      </trkpt>
      <trkpt lat="44.44568" lon="3.64669">
        <ele>1505</ele>
        <time>2022-10-28T11:28:50Z</time>
      </trkpt>
      <trkpt lat="44.44567" lon="3.64672">
        <ele>1505</ele>
        <time>2022-10-28T11:28:51Z</time>
      </trkpt>
      <trkpt lat="44.44566" lon="3.64676">
        <ele>1505</ele>
        <time>2022-10-28T11:28:52Z</time>
      </trkpt>
      <trkpt lat="44.44564" lon="3.64679">
        <ele>1505.2</ele>
        <time>2022-10-28T11:28:53Z</time>
      </trkpt>
      <trkpt lat="44.44563" lon="3.64683">
        <ele>1505.2</ele>
        <time>2022-10-28T11:28:54Z</time>
      </trkpt>
      <trkpt lat="44.44562" lon="3.64687">
        <ele>1505.2</ele>
        <time>2022-10-28T11:28:55Z</time>
      </trkpt>
      <trkpt lat="44.44561" lon="3.64691">
        <ele>1505.2</ele>
        <time>2022-10-28T11:28:56Z</time>
      </trkpt>
      <trkpt lat="44.44559" lon="3.64695">
        <ele>1505.4</ele>
        <time>2022-10-28T11:28:57Z</time>
      </trkpt>
      <trkpt lat="44.44558" lon="3.64699">
        <ele>1505.4</ele>
        <time>2022-10-28T11:28:58Z</time>
      </trkpt>
      <trkpt lat="44.44556" lon="3.64703">
        <ele>1505.6</ele>
        <time>2022-10-28T11:28:59Z</time>
      </trkpt>
      <trkpt lat="44.44555" lon="3.64706">
        <ele>1505.6</ele>
        <time>2022-10-28T11:29:00Z</time>
      </trkpt>
      <trkpt lat="44.44554" lon="3.6471">
        <ele>1505.6</ele>
        <time>2022-10-28T11:29:01Z</time>
      </trkpt>
      <trkpt lat="44.44552" lon="3.64714">
        <ele>1505.8</ele>
        <time>2022-10-28T11:29:02Z</time>
      </trkpt>
      <trkpt lat="44.4455" lon="3.64718">
        <ele>1505.8</ele>
        <time>2022-10-28T11:29:03Z</time>
      </trkpt>
      <trkpt lat="44.44548" lon="3.64721">
        <ele>1505.8</ele>
        <time>2022-10-28T11:29:04Z</time>
      </trkpt>
      <trkpt lat="44.44546" lon="3.64725">
        <ele>1505.8</ele>
        <time>2022-10-28T11:29:05Z</time>
      </trkpt>
      <trkpt lat="44.44544" lon="3.64729">
        <ele>1506</ele>
        <time>2022-10-28T11:29:06Z</time>
      </trkpt>
      <trkpt lat="44.44542" lon="3.64732">
        <ele>1506</ele>
        <time>2022-10-28T11:29:07Z</time>
      </trkpt>
      <trkpt lat="44.4454" lon="3.64736">
        <ele>1506</ele>
        <time>2022-10-28T11:29:08Z</time>
      </trkpt>
      <trkpt lat="44.44538" lon="3.6474">
        <ele>1506</ele>
        <time>2022-10-28T11:29:09Z</time>
      </trkpt>
      <trkpt lat="44.44536" lon="3.64744">
        <ele>1506</ele>
        <time>2022-10-28T11:29:10Z</time>
      </trkpt>
      <trkpt lat="44.44535" lon="3.64748">
        <ele>1506</ele>
        <time>2022-10-28T11:29:11Z</time>
      </trkpt>
      <trkpt lat="44.44533" lon="3.64751">
        <ele>1506</ele>
        <time>2022-10-28T11:29:12Z</time>
      </trkpt>
      <trkpt lat="44.44531" lon="3.64755">
        <ele>1506</ele>
        <time>2022-10-28T11:29:13Z</time>
      </trkpt>
      <trkpt lat="44.44529" lon="3.64758">
        <ele>1506</ele>
        <time>2022-10-28T11:29:14Z</time>
      </trkpt>
      <trkpt lat="44.44526" lon="3.64762">
        <ele>1506.2</ele>
        <time>2022-10-28T11:29:15Z</time>
      </trkpt>
      <trkpt lat="44.44524" lon="3.64765">
        <ele>1506.2</ele>
        <time>2022-10-28T11:29:16Z</time>
      </trkpt>
      <trkpt lat="44.44522" lon="3.64768">
        <ele>1506.2</ele>
        <time>2022-10-28T11:29:17Z</time>
      </trkpt>
      <trkpt lat="44.4452" lon="3.64772">
        <ele>1506.2</ele>
        <time>2022-10-28T11:29:18Z</time>
      </trkpt>
      <trkpt lat="44.44517" lon="3.64776">
        <ele>1506.2</ele>
        <time>2022-10-28T11:29:19Z</time>
      </trkpt>
      <trkpt lat="44.44515" lon="3.64779">
        <ele>1506.4</ele>
        <time>2022-10-28T11:29:20Z</time>
      </trkpt>
      <trkpt lat="44.44512" lon="3.64783">
        <ele>1506.4</ele>
        <time>2022-10-28T11:29:21Z</time>
      </trkpt>
      <trkpt lat="44.4451" lon="3.64787">
        <ele>1506.4</ele>
        <time>2022-10-28T11:29:22Z</time>
      </trkpt>
      <trkpt lat="44.44507" lon="3.6479">
        <ele>1506.4</ele>
        <time>2022-10-28T11:29:23Z</time>
      </trkpt>
      <trkpt lat="44.44504" lon="3.64794">
        <ele>1506.4</ele>
        <time>2022-10-28T11:29:24Z</time>
      </trkpt>
      <trkpt lat="44.44501" lon="3.64798">
        <ele>1506.4</ele>
        <time>2022-10-28T11:29:25Z</time>
      </trkpt>
      <trkpt lat="44.44499" lon="3.64801">
        <ele>1506.4</ele>
        <time>2022-10-28T11:29:26Z</time>
      </trkpt>
      <trkpt lat="44.44496" lon="3.64804">
        <ele>1506.6</ele>
        <time>2022-10-28T11:29:27Z</time>
      </trkpt>
      <trkpt lat="44.44494" lon="3.64808">
        <ele>1506.6</ele>
        <time>2022-10-28T11:29:28Z</time>
      </trkpt>
      <trkpt lat="44.44492" lon="3.64812">
        <ele>1506.6</ele>
        <time>2022-10-28T11:29:29Z</time>
      </trkpt>
      <trkpt lat="44.4449" lon="3.64817">
        <ele>1506.6</ele>
        <time>2022-10-28T11:29:30Z</time>
      </trkpt>
      <trkpt lat="44.44488" lon="3.64821">
        <ele>1506.6</ele>
        <time>2022-10-28T11:29:31Z</time>
      </trkpt>
      <trkpt lat="44.44488" lon="3.64825">
        <ele>1506.6</ele>
        <time>2022-10-28T11:29:32Z</time>
      </trkpt>
      <trkpt lat="44.44487" lon="3.64829">
        <ele>1506.6</ele>
        <time>2022-10-28T11:29:33Z</time>
      </trkpt>
      <trkpt lat="44.44486" lon="3.64833">
        <ele>1506.6</ele>
        <time>2022-10-28T11:29:34Z</time>
      </trkpt>
      <trkpt lat="44.44485" lon="3.64837">
        <ele>1506.6</ele>
        <time>2022-10-28T11:29:35Z</time>
      </trkpt>
      <trkpt lat="44.44484" lon="3.64842">
        <ele>1506.8</ele>
        <time>2022-10-28T11:29:36Z</time>
      </trkpt>
      <trkpt lat="44.44483" lon="3.64846">
        <ele>1506.8</ele>
        <time>2022-10-28T11:29:37Z</time>
      </trkpt>
      <trkpt lat="44.44483" lon="3.64851">
        <ele>1506.8</ele>
        <time>2022-10-28T11:29:38Z</time>
      </trkpt>
      <trkpt lat="44.44483" lon="3.64856">
        <ele>1506.8</ele>
        <time>2022-10-28T11:29:39Z</time>
      </trkpt>
      <trkpt lat="44.44483" lon="3.64861">
        <ele>1506.8</ele>
        <time>2022-10-28T11:29:40Z</time>
      </trkpt>
      <trkpt lat="44.44483" lon="3.64865">
        <ele>1507</ele>
        <time>2022-10-28T11:29:41Z</time>
      </trkpt>
      <trkpt lat="44.44484" lon="3.6487">
        <ele>1507</ele>
        <time>2022-10-28T11:29:42Z</time>
      </trkpt>
      <trkpt lat="44.44485" lon="3.64875">
        <ele>1507</ele>
        <time>2022-10-28T11:29:43Z</time>
      </trkpt>
      <trkpt lat="44.44485" lon="3.64879">
        <ele>1507.2</ele>
        <time>2022-10-28T11:29:44Z</time>
      </trkpt>
      <trkpt lat="44.44485" lon="3.64884">
        <ele>1507.2</ele>
        <time>2022-10-28T11:29:45Z</time>
      </trkpt>
      <trkpt lat="44.44486" lon="3.64888">
        <ele>1507.4</ele>
        <time>2022-10-28T11:29:46Z</time>
      </trkpt>
      <trkpt lat="44.44486" lon="3.64893">
        <ele>1507.4</ele>
        <time>2022-10-28T11:29:47Z</time>
      </trkpt>
      <trkpt lat="44.44486" lon="3.64898">
        <ele>1507.4</ele>
        <time>2022-10-28T11:29:48Z</time>
      </trkpt>
      <trkpt lat="44.44485" lon="3.64903">
        <ele>1507.4</ele>
        <time>2022-10-28T11:29:49Z</time>
      </trkpt>
      <trkpt lat="44.44485" lon="3.64908">
        <ele>1507.6</ele>
        <time>2022-10-28T11:29:50Z</time>
      </trkpt>
      <trkpt lat="44.44485" lon="3.64913">
        <ele>1507.6</ele>
        <time>2022-10-28T11:29:51Z</time>
      </trkpt>
      <trkpt lat="44.44485" lon="3.64918">
        <ele>1507.6</ele>
        <time>2022-10-28T11:29:52Z</time>
      </trkpt>
      <trkpt lat="44.44485" lon="3.64922">
        <ele>1507.8</ele>
        <time>2022-10-28T11:29:53Z</time>
      </trkpt>
      <trkpt lat="44.44485" lon="3.64927">
        <ele>1507.8</ele>
        <time>2022-10-28T11:29:54Z</time>
      </trkpt>
      <trkpt lat="44.44485" lon="3.64932">
        <ele>1507.8</ele>
        <time>2022-10-28T11:29:55Z</time>
      </trkpt>
      <trkpt lat="44.44484" lon="3.64936">
        <ele>1507.8</ele>
        <time>2022-10-28T11:29:56Z</time>
      </trkpt>
      <trkpt lat="44.44484" lon="3.64941">
        <ele>1507.8</ele>
        <time>2022-10-28T11:29:57Z</time>
      </trkpt>
      <trkpt lat="44.44484" lon="3.64946">
        <ele>1507.8</ele>
        <time>2022-10-28T11:29:58Z</time>
      </trkpt>
      <trkpt lat="44.44484" lon="3.64951">
        <ele>1507.8</ele>
        <time>2022-10-28T11:29:59Z</time>
      </trkpt>
      <trkpt lat="44.44484" lon="3.64956">
        <ele>1508</ele>
        <time>2022-10-28T11:30:00Z</time>
      </trkpt>
      <trkpt lat="44.44485" lon="3.64961">
        <ele>1508</ele>
        <time>2022-10-28T11:30:01Z</time>
      </trkpt>
      <trkpt lat="44.44485" lon="3.64966">
        <ele>1508</ele>
        <time>2022-10-28T11:30:02Z</time>
      </trkpt>
      <trkpt lat="44.44485" lon="3.64971">
        <ele>1508</ele>
        <time>2022-10-28T11:30:03Z</time>
      </trkpt>
      <trkpt lat="44.44486" lon="3.64976">
        <ele>1508</ele>
        <time>2022-10-28T11:30:04Z</time>
      </trkpt>
      <trkpt lat="44.44486" lon="3.64981">
        <ele>1508</ele>
        <time>2022-10-28T11:30:05Z</time>
      </trkpt>
      <trkpt lat="44.44486" lon="3.64987">
        <ele>1508</ele>
        <time>2022-10-28T11:30:06Z</time>
      </trkpt>
      <trkpt lat="44.44487" lon="3.64992">
        <ele>1508</ele>
        <time>2022-10-28T11:30:07Z</time>
      </trkpt>
      <trkpt lat="44.44487" lon="3.64997">
        <ele>1508.2</ele>
        <time>2022-10-28T11:30:08Z</time>
      </trkpt>
      <trkpt lat="44.44488" lon="3.65002">
        <ele>1508.2</ele>
        <time>2022-10-28T11:30:09Z</time>
      </trkpt>
      <trkpt lat="44.44489" lon="3.65007">
        <ele>1508.2</ele>
        <time>2022-10-28T11:30:10Z</time>
      </trkpt>
      <trkpt lat="44.4449" lon="3.65012">
        <ele>1508.2</ele>
        <time>2022-10-28T11:30:11Z</time>
      </trkpt>
      <trkpt lat="44.4449" lon="3.65017">
        <ele>1508.2</ele>
        <time>2022-10-28T11:30:12Z</time>
      </trkpt>
      <trkpt lat="44.44491" lon="3.65022">
        <ele>1508.4</ele>
        <time>2022-10-28T11:30:13Z</time>
      </trkpt>
      <trkpt lat="44.44492" lon="3.65026">
        <ele>1508.4</ele>
        <time>2022-10-28T11:30:14Z</time>
      </trkpt>
      <trkpt lat="44.44493" lon="3.65031">
        <ele>1508.4</ele>
        <time>2022-10-28T11:30:15Z</time>
      </trkpt>
      <trkpt lat="44.44494" lon="3.65035">
        <ele>1508.4</ele>
        <time>2022-10-28T11:30:16Z</time>
      </trkpt>
      <trkpt lat="44.44495" lon="3.6504">
        <ele>1508.6</ele>
        <time>2022-10-28T11:30:17Z</time>
      </trkpt>
      <trkpt lat="44.44495" lon="3.65045">
        <ele>1508.6</ele>
        <time>2022-10-28T11:30:18Z</time>
      </trkpt>
      <trkpt lat="44.44496" lon="3.6505">
        <ele>1508.6</ele>
        <time>2022-10-28T11:30:19Z</time>
      </trkpt>
      <trkpt lat="44.44497" lon="3.65054">
        <ele>1508.6</ele>
        <time>2022-10-28T11:30:20Z</time>
      </trkpt>
      <trkpt lat="44.44498" lon="3.6506">
        <ele>1508.8</ele>
        <time>2022-10-28T11:30:21Z</time>
      </trkpt>
      <trkpt lat="44.44498" lon="3.65065">
        <ele>1508.8</ele>
        <time>2022-10-28T11:30:22Z</time>
      </trkpt>
      <trkpt lat="44.44499" lon="3.6507">
        <ele>1508.8</ele>
        <time>2022-10-28T11:30:23Z</time>
      </trkpt>
      <trkpt lat="44.44499" lon="3.65075">
        <ele>1508.8</ele>
        <time>2022-10-28T11:30:24Z</time>
      </trkpt>
      <trkpt lat="44.445" lon="3.6508">
        <ele>1508.8</ele>
        <time>2022-10-28T11:30:25Z</time>
      </trkpt>
      <trkpt lat="44.44501" lon="3.65086">
        <ele>1508.8</ele>
        <time>2022-10-28T11:30:26Z</time>
      </trkpt>
      <trkpt lat="44.44501" lon="3.65091">
        <ele>1508.8</ele>
        <time>2022-10-28T11:30:27Z</time>
      </trkpt>
      <trkpt lat="44.44502" lon="3.65096">
        <ele>1508.8</ele>
        <time>2022-10-28T11:30:28Z</time>
      </trkpt>
      <trkpt lat="44.44502" lon="3.65102">
        <ele>1508.8</ele>
        <time>2022-10-28T11:30:29Z</time>
      </trkpt>
      <trkpt lat="44.44502" lon="3.65107">
        <ele>1508.6</ele>
        <time>2022-10-28T11:30:30Z</time>
      </trkpt>
      <trkpt lat="44.44503" lon="3.65113">
        <ele>1508.6</ele>
        <time>2022-10-28T11:30:31Z</time>
      </trkpt>
      <trkpt lat="44.44503" lon="3.65119">
        <ele>1508.6</ele>
        <time>2022-10-28T11:30:32Z</time>
      </trkpt>
      <trkpt lat="44.44504" lon="3.65124">
        <ele>1508.6</ele>
        <time>2022-10-28T11:30:33Z</time>
      </trkpt>
      <trkpt lat="44.44504" lon="3.65129">
        <ele>1508.8</ele>
        <time>2022-10-28T11:30:34Z</time>
      </trkpt>
      <trkpt lat="44.44505" lon="3.65134">
        <ele>1508.8</ele>
        <time>2022-10-28T11:30:35Z</time>
      </trkpt>
      <trkpt lat="44.44506" lon="3.65139">
        <ele>1508.8</ele>
        <time>2022-10-28T11:30:36Z</time>
      </trkpt>
      <trkpt lat="44.44506" lon="3.65144">
        <ele>1509</ele>
        <time>2022-10-28T11:30:37Z</time>
      </trkpt>
      <trkpt lat="44.44507" lon="3.65149">
        <ele>1509</ele>
        <time>2022-10-28T11:30:38Z</time>
      </trkpt>
      <trkpt lat="44.44507" lon="3.65154">
        <ele>1509</ele>
        <time>2022-10-28T11:30:39Z</time>
      </trkpt>
      <trkpt lat="44.44508" lon="3.65159">
        <ele>1509.2</ele>
        <time>2022-10-28T11:30:40Z</time>
      </trkpt>
      <trkpt lat="44.44508" lon="3.65165">
        <ele>1509.2</ele>
        <time>2022-10-28T11:30:41Z</time>
      </trkpt>
      <trkpt lat="44.44508" lon="3.6517">
        <ele>1509.4</ele>
        <time>2022-10-28T11:30:42Z</time>
      </trkpt>
      <trkpt lat="44.44509" lon="3.65175">
        <ele>1509.4</ele>
        <time>2022-10-28T11:30:43Z</time>
      </trkpt>
      <trkpt lat="44.44509" lon="3.6518">
        <ele>1509.4</ele>
        <time>2022-10-28T11:30:44Z</time>
      </trkpt>
      <trkpt lat="44.44509" lon="3.65186">
        <ele>1509.6</ele>
        <time>2022-10-28T11:30:45Z</time>
      </trkpt>
      <trkpt lat="44.4451" lon="3.65191">
        <ele>1509.6</ele>
        <time>2022-10-28T11:30:46Z</time>
      </trkpt>
      <trkpt lat="44.4451" lon="3.65196">
        <ele>1509.8</ele>
        <time>2022-10-28T11:30:47Z</time>
      </trkpt>
      <trkpt lat="44.4451" lon="3.65201">
        <ele>1509.8</ele>
        <time>2022-10-28T11:30:48Z</time>
      </trkpt>
      <trkpt lat="44.44511" lon="3.65207">
        <ele>1509.8</ele>
        <time>2022-10-28T11:30:49Z</time>
      </trkpt>
      <trkpt lat="44.44511" lon="3.65212">
        <ele>1510</ele>
        <time>2022-10-28T11:30:50Z</time>
      </trkpt>
      <trkpt lat="44.44511" lon="3.65216">
        <ele>1510</ele>
        <time>2022-10-28T11:30:51Z</time>
      </trkpt>
      <trkpt lat="44.4451" lon="3.65221">
        <ele>1510.2</ele>
        <time>2022-10-28T11:30:52Z</time>
      </trkpt>
      <trkpt lat="44.4451" lon="3.65226">
        <ele>1510.2</ele>
        <time>2022-10-28T11:30:53Z</time>
      </trkpt>
      <trkpt lat="44.44509" lon="3.6523">
        <ele>1510.4</ele>
        <time>2022-10-28T11:30:54Z</time>
      </trkpt>
      <trkpt lat="44.44508" lon="3.65235">
        <ele>1510.4</ele>
        <time>2022-10-28T11:30:55Z</time>
      </trkpt>
      <trkpt lat="44.44507" lon="3.6524">
        <ele>1510.6</ele>
        <time>2022-10-28T11:30:56Z</time>
      </trkpt>
      <trkpt lat="44.44506" lon="3.65245">
        <ele>1510.6</ele>
        <time>2022-10-28T11:30:57Z</time>
      </trkpt>
      <trkpt lat="44.44504" lon="3.6525">
        <ele>1510.8</ele>
        <time>2022-10-28T11:30:58Z</time>
      </trkpt>
      <trkpt lat="44.44502" lon="3.65255">
        <ele>1510.8</ele>
        <time>2022-10-28T11:30:59Z</time>
      </trkpt>
      <trkpt lat="44.44501" lon="3.6526">
        <ele>1510.8</ele>
        <time>2022-10-28T11:31:00Z</time>
      </trkpt>
      <trkpt lat="44.44499" lon="3.65265">
        <ele>1511</ele>
        <time>2022-10-28T11:31:01Z</time>
      </trkpt>
      <trkpt lat="44.44498" lon="3.65269">
        <ele>1511</ele>
        <time>2022-10-28T11:31:02Z</time>
      </trkpt>
      <trkpt lat="44.44496" lon="3.65274">
        <ele>1511</ele>
        <time>2022-10-28T11:31:03Z</time>
      </trkpt>
      <trkpt lat="44.44494" lon="3.65278">
        <ele>1511.2</ele>
        <time>2022-10-28T11:31:04Z</time>
      </trkpt>
      <trkpt lat="44.44492" lon="3.65283">
        <ele>1511.2</ele>
        <time>2022-10-28T11:31:05Z</time>
      </trkpt>
      <trkpt lat="44.4449" lon="3.65287">
        <ele>1511.4</ele>
        <time>2022-10-28T11:31:06Z</time>
      </trkpt>
      <trkpt lat="44.44488" lon="3.65291">
        <ele>1511.4</ele>
        <time>2022-10-28T11:31:07Z</time>
      </trkpt>
      <trkpt lat="44.44485" lon="3.65295">
        <ele>1511.6</ele>
        <time>2022-10-28T11:31:08Z</time>
      </trkpt>
      <trkpt lat="44.44483" lon="3.65299">
        <ele>1511.6</ele>
        <time>2022-10-28T11:31:09Z</time>
      </trkpt>
      <trkpt lat="44.44481" lon="3.65303">
        <ele>1511.6</ele>
        <time>2022-10-28T11:31:10Z</time>
      </trkpt>
      <trkpt lat="44.44479" lon="3.65307">
        <ele>1511.6</ele>
        <time>2022-10-28T11:31:11Z</time>
      </trkpt>
      <trkpt lat="44.44476" lon="3.65311">
        <ele>1511.8</ele>
        <time>2022-10-28T11:31:12Z</time>
      </trkpt>
      <trkpt lat="44.44474" lon="3.65314">
        <ele>1511.8</ele>
        <time>2022-10-28T11:31:13Z</time>
      </trkpt>
      <trkpt lat="44.44472" lon="3.65318">
        <ele>1511.8</ele>
        <time>2022-10-28T11:31:14Z</time>
      </trkpt>
      <trkpt lat="44.44469" lon="3.65322">
        <ele>1512</ele>
        <time>2022-10-28T11:31:15Z</time>
      </trkpt>
      <trkpt lat="44.44467" lon="3.65326">
        <ele>1512</ele>
        <time>2022-10-28T11:31:16Z</time>
      </trkpt>
      <trkpt lat="44.44464" lon="3.6533">
        <ele>1512</ele>
        <time>2022-10-28T11:31:17Z</time>
      </trkpt>
      <trkpt lat="44.44462" lon="3.65334">
        <ele>1512.2</ele>
        <time>2022-10-28T11:31:18Z</time>
      </trkpt>
      <trkpt lat="44.44459" lon="3.65338">
        <ele>1512.2</ele>
        <time>2022-10-28T11:31:19Z</time>
      </trkpt>
      <trkpt lat="44.44457" lon="3.65342">
        <ele>1512.2</ele>
        <time>2022-10-28T11:31:20Z</time>
      </trkpt>
      <trkpt lat="44.44454" lon="3.65346">
        <ele>1512.4</ele>
        <time>2022-10-28T11:31:21Z</time>
      </trkpt>
      <trkpt lat="44.44452" lon="3.65349">
        <ele>1512.6</ele>
        <time>2022-10-28T11:31:22Z</time>
      </trkpt>
      <trkpt lat="44.4445" lon="3.65353">
        <ele>1512.6</ele>
        <time>2022-10-28T11:31:23Z</time>
      </trkpt>
      <trkpt lat="44.44448" lon="3.65357">
        <ele>1512.6</ele>
        <time>2022-10-28T11:31:24Z</time>
      </trkpt>
      <trkpt lat="44.44445" lon="3.65361">
        <ele>1512.8</ele>
        <time>2022-10-28T11:31:25Z</time>
      </trkpt>
      <trkpt lat="44.44443" lon="3.65364">
        <ele>1512.8</ele>
        <time>2022-10-28T11:31:26Z</time>
      </trkpt>
      <trkpt lat="44.44441" lon="3.65368">
        <ele>1513</ele>
        <time>2022-10-28T11:31:27Z</time>
      </trkpt>
      <trkpt lat="44.44439" lon="3.65371">
        <ele>1513</ele>
        <time>2022-10-28T11:31:28Z</time>
      </trkpt>
      <trkpt lat="44.44437" lon="3.65374">
        <ele>1513</ele>
        <time>2022-10-28T11:31:29Z</time>
      </trkpt>
      <trkpt lat="44.44435" lon="3.65378">
        <ele>1513.2</ele>
        <time>2022-10-28T11:31:30Z</time>
      </trkpt>
      <trkpt lat="44.44433" lon="3.65382">
        <ele>1513.4</ele>
        <time>2022-10-28T11:31:31Z</time>
      </trkpt>
      <trkpt lat="44.44431" lon="3.65386">
        <ele>1513.4</ele>
        <time>2022-10-28T11:31:32Z</time>
      </trkpt>
      <trkpt lat="44.44428" lon="3.6539">
        <ele>1513.6</ele>
        <time>2022-10-28T11:31:33Z</time>
      </trkpt>
      <trkpt lat="44.44425" lon="3.65394">
        <ele>1513.8</ele>
        <time>2022-10-28T11:31:34Z</time>
      </trkpt>
      <trkpt lat="44.44423" lon="3.65397">
        <ele>1513.8</ele>
        <time>2022-10-28T11:31:35Z</time>
      </trkpt>
      <trkpt lat="44.44421" lon="3.654">
        <ele>1513.8</ele>
        <time>2022-10-28T11:31:36Z</time>
      </trkpt>
      <trkpt lat="44.44419" lon="3.65404">
        <ele>1514</ele>
        <time>2022-10-28T11:31:37Z</time>
      </trkpt>
      <trkpt lat="44.44417" lon="3.65408">
        <ele>1514</ele>
        <time>2022-10-28T11:31:38Z</time>
      </trkpt>
      <trkpt lat="44.44415" lon="3.65411">
        <ele>1514.2</ele>
        <time>2022-10-28T11:31:39Z</time>
      </trkpt>
      <trkpt lat="44.44412" lon="3.65415">
        <ele>1514.2</ele>
        <time>2022-10-28T11:31:40Z</time>
      </trkpt>
      <trkpt lat="44.4441" lon="3.65419">
        <ele>1514.2</ele>
        <time>2022-10-28T11:31:41Z</time>
      </trkpt>
      <trkpt lat="44.44408" lon="3.65423">
        <ele>1514.4</ele>
        <time>2022-10-28T11:31:42Z</time>
      </trkpt>
      <trkpt lat="44.44405" lon="3.65426">
        <ele>1514.4</ele>
        <time>2022-10-28T11:31:43Z</time>
      </trkpt>
      <trkpt lat="44.44403" lon="3.65431">
        <ele>1514.4</ele>
        <time>2022-10-28T11:31:44Z</time>
      </trkpt>
      <trkpt lat="44.44401" lon="3.65435">
        <ele>1514.4</ele>
        <time>2022-10-28T11:31:45Z</time>
      </trkpt>
      <trkpt lat="44.44398" lon="3.65439">
        <ele>1514.6</ele>
        <time>2022-10-28T11:31:46Z</time>
      </trkpt>
      <trkpt lat="44.44396" lon="3.65442">
        <ele>1514.6</ele>
        <time>2022-10-28T11:31:47Z</time>
      </trkpt>
      <trkpt lat="44.44394" lon="3.65446">
        <ele>1514.6</ele>
        <time>2022-10-28T11:31:48Z</time>
      </trkpt>
      <trkpt lat="44.44392" lon="3.65451">
        <ele>1514.8</ele>
        <time>2022-10-28T11:31:49Z</time>
      </trkpt>
      <trkpt lat="44.4439" lon="3.65454">
        <ele>1514.8</ele>
        <time>2022-10-28T11:31:50Z</time>
      </trkpt>
      <trkpt lat="44.44388" lon="3.65458">
        <ele>1514.8</ele>
        <time>2022-10-28T11:31:51Z</time>
      </trkpt>
      <trkpt lat="44.44386" lon="3.65462">
        <ele>1515</ele>
        <time>2022-10-28T11:31:52Z</time>
      </trkpt>
      <trkpt lat="44.44384" lon="3.65466">
        <ele>1515</ele>
        <time>2022-10-28T11:31:53Z</time>
      </trkpt>
      <trkpt lat="44.44382" lon="3.6547">
        <ele>1515</ele>
        <time>2022-10-28T11:31:54Z</time>
      </trkpt>
      <trkpt lat="44.4438" lon="3.65474">
        <ele>1515</ele>
        <time>2022-10-28T11:31:55Z</time>
      </trkpt>
      <trkpt lat="44.44378" lon="3.65478">
        <ele>1515.2</ele>
        <time>2022-10-28T11:31:56Z</time>
      </trkpt>
      <trkpt lat="44.44376" lon="3.65482">
        <ele>1515.4</ele>
        <time>2022-10-28T11:31:57Z</time>
      </trkpt>
      <trkpt lat="44.44374" lon="3.65486">
        <ele>1515.6</ele>
        <time>2022-10-28T11:31:58Z</time>
      </trkpt>
      <trkpt lat="44.44372" lon="3.6549">
        <ele>1515.6</ele>
        <time>2022-10-28T11:31:59Z</time>
      </trkpt>
      <trkpt lat="44.4437" lon="3.65494">
        <ele>1515.8</ele>
        <time>2022-10-28T11:32:00Z</time>
      </trkpt>
      <trkpt lat="44.44368" lon="3.65498">
        <ele>1516</ele>
        <time>2022-10-28T11:32:01Z</time>
      </trkpt>
      <trkpt lat="44.44366" lon="3.65502">
        <ele>1516.2</ele>
        <time>2022-10-28T11:32:02Z</time>
      </trkpt>
      <trkpt lat="44.44364" lon="3.65505">
        <ele>1516.2</ele>
        <time>2022-10-28T11:32:03Z</time>
      </trkpt>
      <trkpt lat="44.44362" lon="3.65509">
        <ele>1516.2</ele>
        <time>2022-10-28T11:32:04Z</time>
      </trkpt>
      <trkpt lat="44.4436" lon="3.65512">
        <ele>1516.4</ele>
        <time>2022-10-28T11:32:05Z</time>
      </trkpt>
      <trkpt lat="44.44357" lon="3.65516">
        <ele>1516.4</ele>
        <time>2022-10-28T11:32:06Z</time>
      </trkpt>
      <trkpt lat="44.44355" lon="3.6552">
        <ele>1516.6</ele>
        <time>2022-10-28T11:32:07Z</time>
      </trkpt>
      <trkpt lat="44.44352" lon="3.65524">
        <ele>1516.6</ele>
        <time>2022-10-28T11:32:08Z</time>
      </trkpt>
      <trkpt lat="44.4435" lon="3.65527">
        <ele>1517</ele>
        <time>2022-10-28T11:32:09Z</time>
      </trkpt>
      <trkpt lat="44.44348" lon="3.65531">
        <ele>1517</ele>
        <time>2022-10-28T11:32:10Z</time>
      </trkpt>
      <trkpt lat="44.44346" lon="3.65535">
        <ele>1517</ele>
        <time>2022-10-28T11:32:11Z</time>
      </trkpt>
      <trkpt lat="44.44344" lon="3.65538">
        <ele>1517.2</ele>
        <time>2022-10-28T11:32:12Z</time>
      </trkpt>
      <trkpt lat="44.44342" lon="3.65542">
        <ele>1517.2</ele>
        <time>2022-10-28T11:32:13Z</time>
      </trkpt>
      <trkpt lat="44.4434" lon="3.65546">
        <ele>1517.4</ele>
        <time>2022-10-28T11:32:14Z</time>
      </trkpt>
      <trkpt lat="44.44339" lon="3.65549">
        <ele>1517.6</ele>
        <time>2022-10-28T11:32:15Z</time>
      </trkpt>
      <trkpt lat="44.44337" lon="3.65552">
        <ele>1517.6</ele>
        <time>2022-10-28T11:32:16Z</time>
      </trkpt>
      <trkpt lat="44.44335" lon="3.65556">
        <ele>1517.8</ele>
        <time>2022-10-28T11:32:17Z</time>
      </trkpt>
      <trkpt lat="44.44333" lon="3.65559">
        <ele>1517.8</ele>
        <time>2022-10-28T11:32:18Z</time>
      </trkpt>
      <trkpt lat="44.44331" lon="3.65563">
        <ele>1518</ele>
        <time>2022-10-28T11:32:19Z</time>
      </trkpt>
      <trkpt lat="44.44329" lon="3.65567">
        <ele>1518</ele>
        <time>2022-10-28T11:32:20Z</time>
      </trkpt>
      <trkpt lat="44.44327" lon="3.6557">
        <ele>1518</ele>
        <time>2022-10-28T11:32:21Z</time>
      </trkpt>
      <trkpt lat="44.44325" lon="3.65574">
        <ele>1518</ele>
        <time>2022-10-28T11:32:22Z</time>
      </trkpt>
      <trkpt lat="44.44323" lon="3.65578">
        <ele>1518.2</ele>
        <time>2022-10-28T11:32:23Z</time>
      </trkpt>
      <trkpt lat="44.4432" lon="3.65581">
        <ele>1518.4</ele>
        <time>2022-10-28T11:32:24Z</time>
      </trkpt>
      <trkpt lat="44.44318" lon="3.65585">
        <ele>1518.4</ele>
        <time>2022-10-28T11:32:25Z</time>
      </trkpt>
      <trkpt lat="44.44316" lon="3.65588">
        <ele>1518.6</ele>
        <time>2022-10-28T11:32:26Z</time>
      </trkpt>
      <trkpt lat="44.44313" lon="3.65592">
        <ele>1518.6</ele>
        <time>2022-10-28T11:32:27Z</time>
      </trkpt>
      <trkpt lat="44.44311" lon="3.65595">
        <ele>1518.8</ele>
        <time>2022-10-28T11:32:28Z</time>
      </trkpt>
      <trkpt lat="44.44309" lon="3.65599">
        <ele>1518.8</ele>
        <time>2022-10-28T11:32:29Z</time>
      </trkpt>
      <trkpt lat="44.44307" lon="3.65602">
        <ele>1519</ele>
        <time>2022-10-28T11:32:30Z</time>
      </trkpt>
      <trkpt lat="44.44304" lon="3.65606">
        <ele>1519</ele>
        <time>2022-10-28T11:32:31Z</time>
      </trkpt>
      <trkpt lat="44.44302" lon="3.65609">
        <ele>1519</ele>
        <time>2022-10-28T11:32:32Z</time>
      </trkpt>
      <trkpt lat="44.44299" lon="3.65612">
        <ele>1519.2</ele>
        <time>2022-10-28T11:32:33Z</time>
      </trkpt>
      <trkpt lat="44.44296" lon="3.65615">
        <ele>1519.2</ele>
        <time>2022-10-28T11:32:34Z</time>
      </trkpt>
      <trkpt lat="44.44293" lon="3.65618">
        <ele>1519.4</ele>
        <time>2022-10-28T11:32:35Z</time>
      </trkpt>
      <trkpt lat="44.4429" lon="3.6562">
        <ele>1519.4</ele>
        <time>2022-10-28T11:32:36Z</time>
      </trkpt>
      <trkpt lat="44.44287" lon="3.65623">
        <ele>1519.6</ele>
        <time>2022-10-28T11:32:37Z</time>
      </trkpt>
      <trkpt lat="44.44284" lon="3.65625">
        <ele>1519.6</ele>
        <time>2022-10-28T11:32:38Z</time>
      </trkpt>
      <trkpt lat="44.44281" lon="3.65627">
        <ele>1519.8</ele>
        <time>2022-10-28T11:32:39Z</time>
      </trkpt>
      <trkpt lat="44.44279" lon="3.65628">
        <ele>1519.8</ele>
        <time>2022-10-28T11:32:40Z</time>
      </trkpt>
      <trkpt lat="44.44275" lon="3.6563">
        <ele>1519.8</ele>
        <time>2022-10-28T11:32:41Z</time>
      </trkpt>
      <trkpt lat="44.44272" lon="3.65632">
        <ele>1519.8</ele>
        <time>2022-10-28T11:32:42Z</time>
      </trkpt>
      <trkpt lat="44.4427" lon="3.65634">
        <ele>1520</ele>
        <time>2022-10-28T11:32:43Z</time>
      </trkpt>
      <trkpt lat="44.44267" lon="3.65636">
        <ele>1520</ele>
        <time>2022-10-28T11:32:44Z</time>
      </trkpt>
      <trkpt lat="44.44264" lon="3.65639">
        <ele>1520.2</ele>
        <time>2022-10-28T11:32:45Z</time>
      </trkpt>
      <trkpt lat="44.44261" lon="3.65642">
        <ele>1520.2</ele>
        <time>2022-10-28T11:32:46Z</time>
      </trkpt>
      <trkpt lat="44.44259" lon="3.65645">
        <ele>1520.2</ele>
        <time>2022-10-28T11:32:47Z</time>
      </trkpt>
      <trkpt lat="44.44256" lon="3.65648">
        <ele>1520.2</ele>
        <time>2022-10-28T11:32:48Z</time>
      </trkpt>
      <trkpt lat="44.44253" lon="3.65651">
        <ele>1520.2</ele>
        <time>2022-10-28T11:32:49Z</time>
      </trkpt>
      <trkpt lat="44.44251" lon="3.65654">
        <ele>1520.4</ele>
        <time>2022-10-28T11:32:50Z</time>
      </trkpt>
      <trkpt lat="44.44248" lon="3.65656">
        <ele>1520.4</ele>
        <time>2022-10-28T11:32:51Z</time>
      </trkpt>
      <trkpt lat="44.44246" lon="3.65659">
        <ele>1520.4</ele>
        <time>2022-10-28T11:32:52Z</time>
      </trkpt>
      <trkpt lat="44.44243" lon="3.65662">
        <ele>1520.6</ele>
        <time>2022-10-28T11:32:53Z</time>
      </trkpt>
      <trkpt lat="44.4424" lon="3.65665">
        <ele>1520.6</ele>
        <time>2022-10-28T11:32:54Z</time>
      </trkpt>
      <trkpt lat="44.44237" lon="3.65668">
        <ele>1520.6</ele>
        <time>2022-10-28T11:32:55Z</time>
      </trkpt>
      <trkpt lat="44.44235" lon="3.65672">
        <ele>1520.6</ele>
        <time>2022-10-28T11:32:56Z</time>
      </trkpt>
      <trkpt lat="44.44233" lon="3.65675">
        <ele>1520.6</ele>
        <time>2022-10-28T11:32:57Z</time>
      </trkpt>
      <trkpt lat="44.4423" lon="3.65679">
        <ele>1520.6</ele>
        <time>2022-10-28T11:32:58Z</time>
      </trkpt>
      <trkpt lat="44.44229" lon="3.65683">
        <ele>1520.6</ele>
        <time>2022-10-28T11:32:59Z</time>
      </trkpt>
      <trkpt lat="44.44227" lon="3.65686">
        <ele>1520.6</ele>
        <time>2022-10-28T11:33:00Z</time>
      </trkpt>
      <trkpt lat="44.44225" lon="3.65691">
        <ele>1520.8</ele>
        <time>2022-10-28T11:33:01Z</time>
      </trkpt>
      <trkpt lat="44.44222" lon="3.65695">
        <ele>1520.8</ele>
        <time>2022-10-28T11:33:02Z</time>
      </trkpt>
      <trkpt lat="44.4422" lon="3.65699">
        <ele>1521</ele>
        <time>2022-10-28T11:33:03Z</time>
      </trkpt>
      <trkpt lat="44.44218" lon="3.65703">
        <ele>1521</ele>
        <time>2022-10-28T11:33:04Z</time>
      </trkpt>
      <trkpt lat="44.44216" lon="3.65707">
        <ele>1521</ele>
        <time>2022-10-28T11:33:05Z</time>
      </trkpt>
      <trkpt lat="44.44215" lon="3.6571">
        <ele>1521.2</ele>
        <time>2022-10-28T11:33:06Z</time>
      </trkpt>
      <trkpt lat="44.44213" lon="3.65714">
        <ele>1521.2</ele>
        <time>2022-10-28T11:33:07Z</time>
      </trkpt>
      <trkpt lat="44.44212" lon="3.65718">
        <ele>1521.4</ele>
        <time>2022-10-28T11:33:08Z</time>
      </trkpt>
      <trkpt lat="44.4421" lon="3.65722">
        <ele>1521.4</ele>
        <time>2022-10-28T11:33:09Z</time>
      </trkpt>
      <trkpt lat="44.44209" lon="3.65726">
        <ele>1521.6</ele>
        <time>2022-10-28T11:33:10Z</time>
      </trkpt>
      <trkpt lat="44.44207" lon="3.6573">
        <ele>1521.8</ele>
        <time>2022-10-28T11:33:11Z</time>
      </trkpt>
      <trkpt lat="44.44205" lon="3.65734">
        <ele>1522</ele>
        <time>2022-10-28T11:33:12Z</time>
      </trkpt>
      <trkpt lat="44.44203" lon="3.65738">
        <ele>1522</ele>
        <time>2022-10-28T11:33:13Z</time>
      </trkpt>
      <trkpt lat="44.44202" lon="3.65742">
        <ele>1522.2</ele>
        <time>2022-10-28T11:33:14Z</time>
      </trkpt>
      <trkpt lat="44.442" lon="3.65746">
        <ele>1522.2</ele>
        <time>2022-10-28T11:33:15Z</time>
      </trkpt>
      <trkpt lat="44.44198" lon="3.65749">
        <ele>1522.2</ele>
        <time>2022-10-28T11:33:16Z</time>
      </trkpt>
      <trkpt lat="44.44197" lon="3.65753">
        <ele>1522.4</ele>
        <time>2022-10-28T11:33:17Z</time>
      </trkpt>
      <trkpt lat="44.44195" lon="3.65756">
        <ele>1522.6</ele>
        <time>2022-10-28T11:33:18Z</time>
      </trkpt>
      <trkpt lat="44.44193" lon="3.6576">
        <ele>1522.6</ele>
        <time>2022-10-28T11:33:19Z</time>
      </trkpt>
      <trkpt lat="44.44191" lon="3.65763">
        <ele>1522.8</ele>
        <time>2022-10-28T11:33:20Z</time>
      </trkpt>
      <trkpt lat="44.44189" lon="3.65767">
        <ele>1522.8</ele>
        <time>2022-10-28T11:33:21Z</time>
      </trkpt>
      <trkpt lat="44.44187" lon="3.6577">
        <ele>1523</ele>
        <time>2022-10-28T11:33:22Z</time>
      </trkpt>
      <trkpt lat="44.44185" lon="3.65773">
        <ele>1523.2</ele>
        <time>2022-10-28T11:33:23Z</time>
      </trkpt>
      <trkpt lat="44.44183" lon="3.65777">
        <ele>1523.2</ele>
        <time>2022-10-28T11:33:24Z</time>
      </trkpt>
      <trkpt lat="44.44181" lon="3.6578">
        <ele>1523.2</ele>
        <time>2022-10-28T11:33:25Z</time>
      </trkpt>
      <trkpt lat="44.44179" lon="3.65783">
        <ele>1523.4</ele>
        <time>2022-10-28T11:33:26Z</time>
      </trkpt>
      <trkpt lat="44.44177" lon="3.65787">
        <ele>1523.4</ele>
        <time>2022-10-28T11:33:27Z</time>
      </trkpt>
      <trkpt lat="44.44175" lon="3.6579">
        <ele>1523.4</ele>
        <time>2022-10-28T11:33:28Z</time>
      </trkpt>
      <trkpt lat="44.44174" lon="3.65793">
        <ele>1523.4</ele>
        <time>2022-10-28T11:33:29Z</time>
      </trkpt>
      <trkpt lat="44.44172" lon="3.65797">
        <ele>1523.6</ele>
        <time>2022-10-28T11:33:30Z</time>
      </trkpt>
      <trkpt lat="44.4417" lon="3.658">
        <ele>1523.6</ele>
        <time>2022-10-28T11:33:31Z</time>
      </trkpt>
      <trkpt lat="44.44168" lon="3.65803">
        <ele>1523.6</ele>
        <time>2022-10-28T11:33:32Z</time>
      </trkpt>
      <trkpt lat="44.44166" lon="3.65806">
        <ele>1523.8</ele>
        <time>2022-10-28T11:33:33Z</time>
      </trkpt>
      <trkpt lat="44.44164" lon="3.6581">
        <ele>1523.8</ele>
        <time>2022-10-28T11:33:34Z</time>
      </trkpt>
      <trkpt lat="44.44162" lon="3.65813">
        <ele>1523.8</ele>
        <time>2022-10-28T11:33:35Z</time>
      </trkpt>
      <trkpt lat="44.4416" lon="3.65817">
        <ele>1524</ele>
        <time>2022-10-28T11:33:36Z</time>
      </trkpt>
      <trkpt lat="44.44159" lon="3.65821">
        <ele>1524</ele>
        <time>2022-10-28T11:33:37Z</time>
      </trkpt>
      <trkpt lat="44.44157" lon="3.65824">
        <ele>1524.2</ele>
        <time>2022-10-28T11:33:38Z</time>
      </trkpt>
      <trkpt lat="44.44156" lon="3.65828">
        <ele>1524.2</ele>
        <time>2022-10-28T11:33:39Z</time>
      </trkpt>
      <trkpt lat="44.44154" lon="3.65832">
        <ele>1524.2</ele>
        <time>2022-10-28T11:33:40Z</time>
      </trkpt>
      <trkpt lat="44.44152" lon="3.65836">
        <ele>1524.4</ele>
        <time>2022-10-28T11:33:41Z</time>
      </trkpt>
      <trkpt lat="44.44151" lon="3.65839">
        <ele>1524.6</ele>
        <time>2022-10-28T11:33:42Z</time>
      </trkpt>
      <trkpt lat="44.44149" lon="3.65843">
        <ele>1524.6</ele>
        <time>2022-10-28T11:33:43Z</time>
      </trkpt>
      <trkpt lat="44.44147" lon="3.65846">
        <ele>1524.8</ele>
        <time>2022-10-28T11:33:44Z</time>
      </trkpt>
      <trkpt lat="44.44146" lon="3.6585">
        <ele>1524.8</ele>
        <time>2022-10-28T11:33:45Z</time>
      </trkpt>
      <trkpt lat="44.44144" lon="3.65853">
        <ele>1525</ele>
        <time>2022-10-28T11:33:46Z</time>
      </trkpt>
      <trkpt lat="44.44143" lon="3.65856">
        <ele>1525</ele>
        <time>2022-10-28T11:33:47Z</time>
      </trkpt>
      <trkpt lat="44.44142" lon="3.6586">
        <ele>1525.2</ele>
        <time>2022-10-28T11:33:48Z</time>
      </trkpt>
      <trkpt lat="44.44141" lon="3.65864">
        <ele>1525.4</ele>
        <time>2022-10-28T11:33:49Z</time>
      </trkpt>
      <trkpt lat="44.4414" lon="3.65869">
        <ele>1525.4</ele>
        <time>2022-10-28T11:33:50Z</time>
      </trkpt>
      <trkpt lat="44.44139" lon="3.65873">
        <ele>1525.6</ele>
        <time>2022-10-28T11:33:51Z</time>
      </trkpt>
      <trkpt lat="44.44138" lon="3.65876">
        <ele>1525.8</ele>
        <time>2022-10-28T11:33:52Z</time>
      </trkpt>
      <trkpt lat="44.44136" lon="3.6588">
        <ele>1526</ele>
        <time>2022-10-28T11:33:53Z</time>
      </trkpt>
      <trkpt lat="44.44135" lon="3.65884">
        <ele>1526</ele>
        <time>2022-10-28T11:33:54Z</time>
      </trkpt>
      <trkpt lat="44.44134" lon="3.65887">
        <ele>1526.2</ele>
        <time>2022-10-28T11:33:55Z</time>
      </trkpt>
      <trkpt lat="44.44133" lon="3.65891">
        <ele>1526.2</ele>
        <time>2022-10-28T11:33:56Z</time>
      </trkpt>
      <trkpt lat="44.44132" lon="3.65895">
        <ele>1526.4</ele>
        <time>2022-10-28T11:33:57Z</time>
      </trkpt>
      <trkpt lat="44.44131" lon="3.65898">
        <ele>1526.4</ele>
        <time>2022-10-28T11:33:58Z</time>
      </trkpt>
      <trkpt lat="44.4413" lon="3.65902">
        <ele>1526.6</ele>
        <time>2022-10-28T11:33:59Z</time>
      </trkpt>
      <trkpt lat="44.44129" lon="3.65904">
        <ele>1526.6</ele>
        <time>2022-10-28T11:34:00Z</time>
      </trkpt>
      <trkpt lat="44.44128" lon="3.65907">
        <ele>1526.8</ele>
        <time>2022-10-28T11:34:01Z</time>
      </trkpt>
      <trkpt lat="44.44128" lon="3.65909">
        <ele>1526.8</ele>
        <time>2022-10-28T11:34:02Z</time>
      </trkpt>
      <trkpt lat="44.44128" lon="3.65906">
        <ele>1527</ele>
        <time>2022-10-28T11:34:53Z</time>
      </trkpt>
      <trkpt lat="44.44128" lon="3.65905">
        <ele>1527</ele>
        <time>2022-10-28T11:34:54Z</time>
      </trkpt>
      <trkpt lat="44.44128" lon="3.65905">
        <ele>1527</ele>
        <time>2022-10-28T11:34:55Z</time>
      </trkpt>
      <trkpt lat="44.44128" lon="3.65905">
        <ele>1526.8</ele>
        <time>2022-10-28T11:34:56Z</time>
      </trkpt>
      <trkpt lat="44.44129" lon="3.65903">
        <ele>1526.8</ele>
        <time>2022-10-28T11:34:57Z</time>
      </trkpt>
      <trkpt lat="44.44129" lon="3.659">
        <ele>1526.8</ele>
        <time>2022-10-28T11:34:58Z</time>
      </trkpt>
      <trkpt lat="44.4413" lon="3.65896">
        <ele>1526.8</ele>
        <time>2022-10-28T11:34:59Z</time>
      </trkpt>
      <trkpt lat="44.44131" lon="3.65891">
        <ele>1526.6</ele>
        <time>2022-10-28T11:35:00Z</time>
      </trkpt>
      <trkpt lat="44.44133" lon="3.65888">
        <ele>1526.6</ele>
        <time>2022-10-28T11:35:01Z</time>
      </trkpt>
      <trkpt lat="44.44133" lon="3.65885">
        <ele>1526.4</ele>
        <time>2022-10-28T11:35:02Z</time>
      </trkpt>
      <trkpt lat="44.44134" lon="3.65883">
        <ele>1526.2</ele>
        <time>2022-10-28T11:35:03Z</time>
      </trkpt>
      <trkpt lat="44.44134" lon="3.65883">
        <ele>1526.2</ele>
        <time>2022-10-28T11:35:04Z</time>
      </trkpt>
      <trkpt lat="44.44135" lon="3.65883">
        <ele>1526.2</ele>
        <time>2022-10-28T11:35:05Z</time>
      </trkpt>
      <trkpt lat="44.44135" lon="3.65883">
        <ele>1526.2</ele>
        <time>2022-10-28T11:35:06Z</time>
      </trkpt>
      <trkpt lat="44.44135" lon="3.65884">
        <ele>1526.2</ele>
        <time>2022-10-28T11:35:07Z</time>
      </trkpt>
      <trkpt lat="44.44134" lon="3.65885">
        <ele>1526.2</ele>
        <time>2022-10-28T11:35:08Z</time>
      </trkpt>
      <trkpt lat="44.44134" lon="3.65886">
        <ele>1526.2</ele>
        <time>2022-10-28T11:35:09Z</time>
      </trkpt>
      <trkpt lat="44.44134" lon="3.65887">
        <ele>1526.2</ele>
        <time>2022-10-28T11:35:10Z</time>
      </trkpt>
      <trkpt lat="44.44134" lon="3.65888">
        <ele>1526.2</ele>
        <time>2022-10-28T11:35:11Z</time>
      </trkpt>
      <trkpt lat="44.44133" lon="3.65889">
        <ele>1526.2</ele>
        <time>2022-10-28T11:35:12Z</time>
      </trkpt>
      <trkpt lat="44.44133" lon="3.6589">
        <ele>1526.2</ele>
        <time>2022-10-28T11:35:13Z</time>
      </trkpt>
      <trkpt lat="44.44133" lon="3.6589">
        <ele>1526.2</ele>
        <time>2022-10-28T11:35:14Z</time>
      </trkpt>
      <trkpt lat="44.44132" lon="3.65891">
        <ele>1526.2</ele>
        <time>2022-10-28T11:35:15Z</time>
      </trkpt>
      <trkpt lat="44.44132" lon="3.65892">
        <ele>1526.4</ele>
        <time>2022-10-28T11:35:16Z</time>
      </trkpt>
      <trkpt lat="44.44132" lon="3.65893">
        <ele>1526.4</ele>
        <time>2022-10-28T11:35:17Z</time>
      </trkpt>
      <trkpt lat="44.44132" lon="3.65894">
        <ele>1526.4</ele>
        <time>2022-10-28T11:35:18Z</time>
      </trkpt>
      <trkpt lat="44.44131" lon="3.65895">
        <ele>1526.4</ele>
        <time>2022-10-28T11:35:19Z</time>
      </trkpt>
      <trkpt lat="44.4413" lon="3.65898">
        <ele>1526.6</ele>
        <time>2022-10-28T11:35:20Z</time>
      </trkpt>
      <trkpt lat="44.4413" lon="3.659">
        <ele>1526.6</ele>
        <time>2022-10-28T11:35:21Z</time>
      </trkpt>
      <trkpt lat="44.44129" lon="3.65903">
        <ele>1526.8</ele>
        <time>2022-10-28T11:35:22Z</time>
      </trkpt>
      <trkpt lat="44.44128" lon="3.65906">
        <ele>1527</ele>
        <time>2022-10-28T11:35:23Z</time>
      </trkpt>
      <trkpt lat="44.44127" lon="3.65909">
        <ele>1527</ele>
        <time>2022-10-28T11:35:24Z</time>
      </trkpt>
      <trkpt lat="44.44127" lon="3.65913">
        <ele>1527.2</ele>
        <time>2022-10-28T11:35:25Z</time>
      </trkpt>
      <trkpt lat="44.44126" lon="3.65916">
        <ele>1527.2</ele>
        <time>2022-10-28T11:35:26Z</time>
      </trkpt>
      <trkpt lat="44.44125" lon="3.6592">
        <ele>1527.4</ele>
        <time>2022-10-28T11:35:27Z</time>
      </trkpt>
      <trkpt lat="44.44125" lon="3.65923">
        <ele>1527.4</ele>
        <time>2022-10-28T11:35:28Z</time>
      </trkpt>
      <trkpt lat="44.44124" lon="3.65926">
        <ele>1527.4</ele>
        <time>2022-10-28T11:35:29Z</time>
      </trkpt>
      <trkpt lat="44.44124" lon="3.65928">
        <ele>1527.6</ele>
        <time>2022-10-28T11:35:30Z</time>
      </trkpt>
      <trkpt lat="44.44123" lon="3.65928">
        <ele>1527.6</ele>
        <time>2022-10-28T11:35:31Z</time>
      </trkpt>
      <trkpt lat="44.44122" lon="3.65927">
        <ele>1527.6</ele>
        <time>2022-10-28T11:35:32Z</time>
      </trkpt>
      <trkpt lat="44.44122" lon="3.65925">
        <ele>1527.6</ele>
        <time>2022-10-28T11:35:33Z</time>
      </trkpt>
      <trkpt lat="44.44123" lon="3.65923">
        <ele>1527.4</ele>
        <time>2022-10-28T11:35:34Z</time>
      </trkpt>
      <trkpt lat="44.44124" lon="3.6592">
        <ele>1527.4</ele>
        <time>2022-10-28T11:35:35Z</time>
      </trkpt>
      <trkpt lat="44.44125" lon="3.65916">
        <ele>1527.4</ele>
        <time>2022-10-28T11:35:36Z</time>
      </trkpt>
      <trkpt lat="44.44126" lon="3.65911">
        <ele>1527.2</ele>
        <time>2022-10-28T11:35:37Z</time>
      </trkpt>
      <trkpt lat="44.44127" lon="3.65906">
        <ele>1527.2</ele>
        <time>2022-10-28T11:35:38Z</time>
      </trkpt>
      <trkpt lat="44.44129" lon="3.65902">
        <ele>1527</ele>
        <time>2022-10-28T11:35:39Z</time>
      </trkpt>
      <trkpt lat="44.4413" lon="3.65897">
        <ele>1526.8</ele>
        <time>2022-10-28T11:35:40Z</time>
      </trkpt>
      <trkpt lat="44.44132" lon="3.65891">
        <ele>1526.8</ele>
        <time>2022-10-28T11:35:41Z</time>
      </trkpt>
      <trkpt lat="44.44133" lon="3.65885">
        <ele>1526.6</ele>
        <time>2022-10-28T11:35:42Z</time>
      </trkpt>
      <trkpt lat="44.44135" lon="3.6588">
        <ele>1526.4</ele>
        <time>2022-10-28T11:35:43Z</time>
      </trkpt>
      <trkpt lat="44.44136" lon="3.65875">
        <ele>1526.2</ele>
        <time>2022-10-28T11:35:44Z</time>
      </trkpt>
      <trkpt lat="44.44138" lon="3.6587">
        <ele>1526</ele>
        <time>2022-10-28T11:35:45Z</time>
      </trkpt>
      <trkpt lat="44.44139" lon="3.65866">
        <ele>1525.6</ele>
        <time>2022-10-28T11:35:46Z</time>
      </trkpt>
      <trkpt lat="44.4414" lon="3.65863">
        <ele>1525.6</ele>
        <time>2022-10-28T11:35:47Z</time>
      </trkpt>
      <trkpt lat="44.44141" lon="3.65861">
        <ele>1525.4</ele>
        <time>2022-10-28T11:35:48Z</time>
      </trkpt>
      <trkpt lat="44.44143" lon="3.65862">
        <ele>1525.4</ele>
        <time>2022-10-28T11:35:49Z</time>
      </trkpt>
      <trkpt lat="44.44143" lon="3.65863">
        <ele>1525.4</ele>
        <time>2022-10-28T11:35:50Z</time>
      </trkpt>
      <trkpt lat="44.44143" lon="3.65864">
        <ele>1525.4</ele>
        <time>2022-10-28T11:35:51Z</time>
      </trkpt>
      <trkpt lat="44.44142" lon="3.65866">
        <ele>1525.4</ele>
        <time>2022-10-28T11:35:52Z</time>
      </trkpt>
      <trkpt lat="44.44141" lon="3.65867">
        <ele>1525.4</ele>
        <time>2022-10-28T11:35:53Z</time>
      </trkpt>
      <trkpt lat="44.4414" lon="3.65869">
        <ele>1525.4</ele>
        <time>2022-10-28T11:35:54Z</time>
      </trkpt>
      <trkpt lat="44.44139" lon="3.6587">
        <ele>1525.4</ele>
        <time>2022-10-28T11:35:55Z</time>
      </trkpt>
      <trkpt lat="44.44139" lon="3.65871">
        <ele>1525.4</ele>
        <time>2022-10-28T11:35:56Z</time>
      </trkpt>
      <trkpt lat="44.44139" lon="3.65872">
        <ele>1525.4</ele>
        <time>2022-10-28T11:35:57Z</time>
      </trkpt>
      <trkpt lat="44.44138" lon="3.65873">
        <ele>1525.6</ele>
        <time>2022-10-28T11:35:58Z</time>
      </trkpt>
      <trkpt lat="44.44137" lon="3.65874">
        <ele>1525.6</ele>
        <time>2022-10-28T11:35:59Z</time>
      </trkpt>
      <trkpt lat="44.44137" lon="3.65875">
        <ele>1525.6</ele>
        <time>2022-10-28T11:36:00Z</time>
      </trkpt>
      <trkpt lat="44.44137" lon="3.65877">
        <ele>1525.6</ele>
        <time>2022-10-28T11:36:01Z</time>
      </trkpt>
      <trkpt lat="44.44136" lon="3.65878">
        <ele>1525.6</ele>
        <time>2022-10-28T11:36:02Z</time>
      </trkpt>
      <trkpt lat="44.44136" lon="3.65879">
        <ele>1525.8</ele>
        <time>2022-10-28T11:36:03Z</time>
      </trkpt>
      <trkpt lat="44.44136" lon="3.6588">
        <ele>1525.8</ele>
        <time>2022-10-28T11:36:04Z</time>
      </trkpt>
      <trkpt lat="44.44135" lon="3.65882">
        <ele>1526</ele>
        <time>2022-10-28T11:36:05Z</time>
      </trkpt>
      <trkpt lat="44.44135" lon="3.65883">
        <ele>1526</ele>
        <time>2022-10-28T11:36:06Z</time>
      </trkpt>
      <trkpt lat="44.44134" lon="3.65886">
        <ele>1526.2</ele>
        <time>2022-10-28T11:36:07Z</time>
      </trkpt>
      <trkpt lat="44.44133" lon="3.65889">
        <ele>1526.2</ele>
        <time>2022-10-28T11:36:08Z</time>
      </trkpt>
      <trkpt lat="44.44132" lon="3.65892">
        <ele>1526.4</ele>
        <time>2022-10-28T11:36:09Z</time>
      </trkpt>
      <trkpt lat="44.44131" lon="3.65896">
        <ele>1526.6</ele>
        <time>2022-10-28T11:36:10Z</time>
      </trkpt>
      <trkpt lat="44.4413" lon="3.659">
        <ele>1526.8</ele>
        <time>2022-10-28T11:36:11Z</time>
      </trkpt>
      <trkpt lat="44.44129" lon="3.65904">
        <ele>1527</ele>
        <time>2022-10-28T11:36:12Z</time>
      </trkpt>
      <trkpt lat="44.44128" lon="3.65907">
        <ele>1527</ele>
        <time>2022-10-28T11:36:13Z</time>
      </trkpt>
      <trkpt lat="44.44127" lon="3.65911">
        <ele>1527.2</ele>
        <time>2022-10-28T11:36:14Z</time>
      </trkpt>
      <trkpt lat="44.44127" lon="3.65915">
        <ele>1527.2</ele>
        <time>2022-10-28T11:36:15Z</time>
      </trkpt>
      <trkpt lat="44.44126" lon="3.65918">
        <ele>1527.4</ele>
        <time>2022-10-28T11:36:16Z</time>
      </trkpt>
      <trkpt lat="44.44125" lon="3.6592">
        <ele>1527.4</ele>
        <time>2022-10-28T11:36:17Z</time>
      </trkpt>
      <trkpt lat="44.44124" lon="3.65921">
        <ele>1527.4</ele>
        <time>2022-10-28T11:36:18Z</time>
      </trkpt>
      <trkpt lat="44.44124" lon="3.65919">
        <ele>1527.4</ele>
        <time>2022-10-28T11:36:19Z</time>
      </trkpt>
      <trkpt lat="44.44124" lon="3.65917">
        <ele>1527.2</ele>
        <time>2022-10-28T11:36:20Z</time>
      </trkpt>
      <trkpt lat="44.44124" lon="3.65915">
        <ele>1527.2</ele>
        <time>2022-10-28T11:36:21Z</time>
      </trkpt>
      <trkpt lat="44.44125" lon="3.65912">
        <ele>1527.2</ele>
        <time>2022-10-28T11:36:22Z</time>
      </trkpt>
      <trkpt lat="44.44125" lon="3.65909">
        <ele>1527.2</ele>
        <time>2022-10-28T11:36:23Z</time>
      </trkpt>
      <trkpt lat="44.44125" lon="3.65908">
        <ele>1527.2</ele>
        <time>2022-10-28T11:36:24Z</time>
      </trkpt>
      <trkpt lat="44.44125" lon="3.65907">
        <ele>1527.2</ele>
        <time>2022-10-28T11:36:25Z</time>
      </trkpt>
      <trkpt lat="44.44125" lon="3.65906">
        <ele>1527.2</ele>
        <time>2022-10-28T11:36:26Z</time>
      </trkpt>
      <trkpt lat="44.44125" lon="3.65905">
        <ele>1527.2</ele>
        <time>2022-10-28T11:36:27Z</time>
      </trkpt>
      <trkpt lat="44.44125" lon="3.65905">
        <ele>1527.2</ele>
        <time>2022-10-28T11:36:28Z</time>
      </trkpt>
      <trkpt lat="44.44125" lon="3.65905">
        <ele>1527.2</ele>
        <time>2022-10-28T11:36:29Z</time>
      </trkpt>
      <trkpt lat="44.44125" lon="3.65905">
        <ele>1527</ele>
        <time>2022-10-28T11:36:30Z</time>
      </trkpt>
      <trkpt lat="44.44125" lon="3.65905">
        <ele>1527</ele>
        <time>2022-10-28T11:36:31Z</time>
      </trkpt>
      <trkpt lat="44.44127" lon="3.65907">
        <ele>1527.2</ele>
        <time>2022-10-28T11:36:47Z</time>
      </trkpt>
      <trkpt lat="44.44127" lon="3.65909">
        <ele>1527</ele>
        <time>2022-10-28T11:36:48Z</time>
      </trkpt>
      <trkpt lat="44.44127" lon="3.65912">
        <ele>1527.2</ele>
        <time>2022-10-28T11:36:49Z</time>
      </trkpt>
      <trkpt lat="44.44126" lon="3.65916">
        <ele>1527.2</ele>
        <time>2022-10-28T11:36:50Z</time>
      </trkpt>
      <trkpt lat="44.44125" lon="3.65919">
        <ele>1527.2</ele>
        <time>2022-10-28T11:36:51Z</time>
      </trkpt>
      <trkpt lat="44.44125" lon="3.65922">
        <ele>1527.4</ele>
        <time>2022-10-28T11:36:52Z</time>
      </trkpt>
      <trkpt lat="44.44124" lon="3.65925">
        <ele>1527.4</ele>
        <time>2022-10-28T11:36:53Z</time>
      </trkpt>
      <trkpt lat="44.44124" lon="3.65929">
        <ele>1527.6</ele>
        <time>2022-10-28T11:36:54Z</time>
      </trkpt>
      <trkpt lat="44.44123" lon="3.65933">
        <ele>1527.8</ele>
        <time>2022-10-28T11:36:55Z</time>
      </trkpt>
      <trkpt lat="44.44123" lon="3.65936">
        <ele>1527.8</ele>
        <time>2022-10-28T11:36:56Z</time>
      </trkpt>
      <trkpt lat="44.44123" lon="3.65941">
        <ele>1528</ele>
        <time>2022-10-28T11:36:57Z</time>
      </trkpt>
      <trkpt lat="44.44122" lon="3.65945">
        <ele>1528</ele>
        <time>2022-10-28T11:36:58Z</time>
      </trkpt>
      <trkpt lat="44.44122" lon="3.65949">
        <ele>1528</ele>
        <time>2022-10-28T11:36:59Z</time>
      </trkpt>
      <trkpt lat="44.44121" lon="3.65952">
        <ele>1528.2</ele>
        <time>2022-10-28T11:37:00Z</time>
      </trkpt>
      <trkpt lat="44.44121" lon="3.65956">
        <ele>1528.2</ele>
        <time>2022-10-28T11:37:01Z</time>
      </trkpt>
      <trkpt lat="44.44121" lon="3.6596">
        <ele>1528.4</ele>
        <time>2022-10-28T11:37:02Z</time>
      </trkpt>
      <trkpt lat="44.44121" lon="3.65965">
        <ele>1528.4</ele>
        <time>2022-10-28T11:37:03Z</time>
      </trkpt>
      <trkpt lat="44.4412" lon="3.65969">
        <ele>1528.6</ele>
        <time>2022-10-28T11:37:04Z</time>
      </trkpt>
      <trkpt lat="44.4412" lon="3.65973">
        <ele>1528.8</ele>
        <time>2022-10-28T11:37:05Z</time>
      </trkpt>
      <trkpt lat="44.4412" lon="3.65977">
        <ele>1529</ele>
        <time>2022-10-28T11:37:06Z</time>
      </trkpt>
      <trkpt lat="44.4412" lon="3.65982">
        <ele>1529</ele>
        <time>2022-10-28T11:37:07Z</time>
      </trkpt>
      <trkpt lat="44.4412" lon="3.65986">
        <ele>1529.2</ele>
        <time>2022-10-28T11:37:08Z</time>
      </trkpt>
      <trkpt lat="44.44119" lon="3.6599">
        <ele>1529.4</ele>
        <time>2022-10-28T11:37:09Z</time>
      </trkpt>
      <trkpt lat="44.44119" lon="3.65995">
        <ele>1529.4</ele>
        <time>2022-10-28T11:37:10Z</time>
      </trkpt>
      <trkpt lat="44.44118" lon="3.65999">
        <ele>1529.4</ele>
        <time>2022-10-28T11:37:11Z</time>
      </trkpt>
      <trkpt lat="44.44116" lon="3.66004">
        <ele>1529.6</ele>
        <time>2022-10-28T11:37:12Z</time>
      </trkpt>
      <trkpt lat="44.44114" lon="3.66008">
        <ele>1529.6</ele>
        <time>2022-10-28T11:37:13Z</time>
      </trkpt>
      <trkpt lat="44.44113" lon="3.66012">
        <ele>1529.8</ele>
        <time>2022-10-28T11:37:14Z</time>
      </trkpt>
      <trkpt lat="44.44111" lon="3.66016">
        <ele>1529.8</ele>
        <time>2022-10-28T11:37:15Z</time>
      </trkpt>
      <trkpt lat="44.44108" lon="3.6602">
        <ele>1530</ele>
        <time>2022-10-28T11:37:16Z</time>
      </trkpt>
      <trkpt lat="44.44106" lon="3.66023">
        <ele>1530</ele>
        <time>2022-10-28T11:37:17Z</time>
      </trkpt>
      <trkpt lat="44.44103" lon="3.66026">
        <ele>1530.2</ele>
        <time>2022-10-28T11:37:18Z</time>
      </trkpt>
      <trkpt lat="44.441" lon="3.66029">
        <ele>1530.2</ele>
        <time>2022-10-28T11:37:19Z</time>
      </trkpt>
      <trkpt lat="44.44097" lon="3.66031">
        <ele>1530.4</ele>
        <time>2022-10-28T11:37:20Z</time>
      </trkpt>
      <trkpt lat="44.44094" lon="3.66033">
        <ele>1530.6</ele>
        <time>2022-10-28T11:37:21Z</time>
      </trkpt>
      <trkpt lat="44.44091" lon="3.66036">
        <ele>1530.8</ele>
        <time>2022-10-28T11:37:22Z</time>
      </trkpt>
      <trkpt lat="44.44088" lon="3.66038">
        <ele>1530.8</ele>
        <time>2022-10-28T11:37:23Z</time>
      </trkpt>
      <trkpt lat="44.44085" lon="3.6604">
        <ele>1531</ele>
        <time>2022-10-28T11:37:24Z</time>
      </trkpt>
      <trkpt lat="44.44082" lon="3.66042">
        <ele>1531</ele>
        <time>2022-10-28T11:37:25Z</time>
      </trkpt>
      <trkpt lat="44.44079" lon="3.66043">
        <ele>1531.2</ele>
        <time>2022-10-28T11:37:26Z</time>
      </trkpt>
      <trkpt lat="44.44076" lon="3.66045">
        <ele>1531.2</ele>
        <time>2022-10-28T11:37:27Z</time>
      </trkpt>
      <trkpt lat="44.44073" lon="3.66047">
        <ele>1531.4</ele>
        <time>2022-10-28T11:37:28Z</time>
      </trkpt>
      <trkpt lat="44.4407" lon="3.66048">
        <ele>1531.4</ele>
        <time>2022-10-28T11:37:29Z</time>
      </trkpt>
      <trkpt lat="44.44066" lon="3.66049">
        <ele>1531.6</ele>
        <time>2022-10-28T11:37:30Z</time>
      </trkpt>
      <trkpt lat="44.44063" lon="3.66051">
        <ele>1531.6</ele>
        <time>2022-10-28T11:37:31Z</time>
      </trkpt>
      <trkpt lat="44.4406" lon="3.66052">
        <ele>1531.6</ele>
        <time>2022-10-28T11:37:32Z</time>
      </trkpt>
      <trkpt lat="44.44057" lon="3.66053">
        <ele>1531.6</ele>
        <time>2022-10-28T11:37:33Z</time>
      </trkpt>
      <trkpt lat="44.44053" lon="3.66054">
        <ele>1531.8</ele>
        <time>2022-10-28T11:37:34Z</time>
      </trkpt>
      <trkpt lat="44.4405" lon="3.66055">
        <ele>1532</ele>
        <time>2022-10-28T11:37:35Z</time>
      </trkpt>
      <trkpt lat="44.44046" lon="3.66055">
        <ele>1532</ele>
        <time>2022-10-28T11:37:36Z</time>
      </trkpt>
      <trkpt lat="44.44042" lon="3.66056">
        <ele>1532</ele>
        <time>2022-10-28T11:37:37Z</time>
      </trkpt>
      <trkpt lat="44.44039" lon="3.66056">
        <ele>1532.2</ele>
        <time>2022-10-28T11:37:38Z</time>
      </trkpt>
      <trkpt lat="44.44035" lon="3.66056">
        <ele>1532.2</ele>
        <time>2022-10-28T11:37:39Z</time>
      </trkpt>
      <trkpt lat="44.44032" lon="3.66056">
        <ele>1532.2</ele>
        <time>2022-10-28T11:37:40Z</time>
      </trkpt>
      <trkpt lat="44.44029" lon="3.66056">
        <ele>1532.4</ele>
        <time>2022-10-28T11:37:41Z</time>
      </trkpt>
      <trkpt lat="44.44026" lon="3.66056">
        <ele>1532.4</ele>
        <time>2022-10-28T11:37:42Z</time>
      </trkpt>
      <trkpt lat="44.44022" lon="3.66056">
        <ele>1532.6</ele>
        <time>2022-10-28T11:37:43Z</time>
      </trkpt>
      <trkpt lat="44.44019" lon="3.66056">
        <ele>1532.6</ele>
        <time>2022-10-28T11:37:44Z</time>
      </trkpt>
      <trkpt lat="44.44015" lon="3.66056">
        <ele>1532.8</ele>
        <time>2022-10-28T11:37:45Z</time>
      </trkpt>
      <trkpt lat="44.44012" lon="3.66057">
        <ele>1532.8</ele>
        <time>2022-10-28T11:37:46Z</time>
      </trkpt>
      <trkpt lat="44.44009" lon="3.66057">
        <ele>1533</ele>
        <time>2022-10-28T11:37:47Z</time>
      </trkpt>
      <trkpt lat="44.44006" lon="3.66057">
        <ele>1533.2</ele>
        <time>2022-10-28T11:37:48Z</time>
      </trkpt>
      <trkpt lat="44.44002" lon="3.66057">
        <ele>1533.2</ele>
        <time>2022-10-28T11:37:49Z</time>
      </trkpt>
      <trkpt lat="44.43999" lon="3.66057">
        <ele>1533.4</ele>
        <time>2022-10-28T11:37:50Z</time>
      </trkpt>
      <trkpt lat="44.43996" lon="3.66056">
        <ele>1533.4</ele>
        <time>2022-10-28T11:37:51Z</time>
      </trkpt>
      <trkpt lat="44.43993" lon="3.66056">
        <ele>1533.6</ele>
        <time>2022-10-28T11:37:52Z</time>
      </trkpt>
      <trkpt lat="44.43989" lon="3.66056">
        <ele>1533.6</ele>
        <time>2022-10-28T11:37:53Z</time>
      </trkpt>
      <trkpt lat="44.43986" lon="3.66056">
        <ele>1533.6</ele>
        <time>2022-10-28T11:37:54Z</time>
      </trkpt>
      <trkpt lat="44.43982" lon="3.66056">
        <ele>1533.8</ele>
        <time>2022-10-28T11:37:55Z</time>
      </trkpt>
      <trkpt lat="44.43979" lon="3.66057">
        <ele>1533.8</ele>
        <time>2022-10-28T11:37:56Z</time>
      </trkpt>
      <trkpt lat="44.43976" lon="3.66057">
        <ele>1533.8</ele>
        <time>2022-10-28T11:37:57Z</time>
      </trkpt>
      <trkpt lat="44.43972" lon="3.66057">
        <ele>1534</ele>
        <time>2022-10-28T11:37:58Z</time>
      </trkpt>
      <trkpt lat="44.43969" lon="3.66057">
        <ele>1534.2</ele>
        <time>2022-10-28T11:37:59Z</time>
      </trkpt>
      <trkpt lat="44.43965" lon="3.66057">
        <ele>1534.4</ele>
        <time>2022-10-28T11:38:00Z</time>
      </trkpt>
      <trkpt lat="44.43962" lon="3.66058">
        <ele>1534.6</ele>
        <time>2022-10-28T11:38:01Z</time>
      </trkpt>
      <trkpt lat="44.43958" lon="3.66058">
        <ele>1534.6</ele>
        <time>2022-10-28T11:38:02Z</time>
      </trkpt>
      <trkpt lat="44.43955" lon="3.66059">
        <ele>1534.8</ele>
        <time>2022-10-28T11:38:03Z</time>
      </trkpt>
      <trkpt lat="44.43952" lon="3.66059">
        <ele>1535</ele>
        <time>2022-10-28T11:38:04Z</time>
      </trkpt>
      <trkpt lat="44.43948" lon="3.6606">
        <ele>1535</ele>
        <time>2022-10-28T11:38:05Z</time>
      </trkpt>
      <trkpt lat="44.43945" lon="3.6606">
        <ele>1535</ele>
        <time>2022-10-28T11:38:06Z</time>
      </trkpt>
      <trkpt lat="44.43942" lon="3.66061">
        <ele>1535</ele>
        <time>2022-10-28T11:38:07Z</time>
      </trkpt>
      <trkpt lat="44.43938" lon="3.66061">
        <ele>1535.2</ele>
        <time>2022-10-28T11:38:08Z</time>
      </trkpt>
      <trkpt lat="44.43935" lon="3.66062">
        <ele>1535.2</ele>
        <time>2022-10-28T11:38:09Z</time>
      </trkpt>
      <trkpt lat="44.43931" lon="3.66063">
        <ele>1535.4</ele>
        <time>2022-10-28T11:38:10Z</time>
      </trkpt>
      <trkpt lat="44.43928" lon="3.66064">
        <ele>1535.6</ele>
        <time>2022-10-28T11:38:11Z</time>
      </trkpt>
      <trkpt lat="44.43925" lon="3.66064">
        <ele>1535.6</ele>
        <time>2022-10-28T11:38:12Z</time>
      </trkpt>
      <trkpt lat="44.43921" lon="3.66065">
        <ele>1535.8</ele>
        <time>2022-10-28T11:38:13Z</time>
      </trkpt>
      <trkpt lat="44.43917" lon="3.66066">
        <ele>1535.8</ele>
        <time>2022-10-28T11:38:14Z</time>
      </trkpt>
      <trkpt lat="44.43914" lon="3.66066">
        <ele>1536</ele>
        <time>2022-10-28T11:38:15Z</time>
      </trkpt>
      <trkpt lat="44.43911" lon="3.66066">
        <ele>1536.2</ele>
        <time>2022-10-28T11:38:16Z</time>
      </trkpt>
      <trkpt lat="44.43907" lon="3.66067">
        <ele>1536.2</ele>
        <time>2022-10-28T11:38:17Z</time>
      </trkpt>
      <trkpt lat="44.43904" lon="3.66067">
        <ele>1536.4</ele>
        <time>2022-10-28T11:38:18Z</time>
      </trkpt>
      <trkpt lat="44.43901" lon="3.66067">
        <ele>1536.4</ele>
        <time>2022-10-28T11:38:19Z</time>
      </trkpt>
      <trkpt lat="44.43897" lon="3.66067">
        <ele>1536.4</ele>
        <time>2022-10-28T11:38:20Z</time>
      </trkpt>
      <trkpt lat="44.43893" lon="3.66067">
        <ele>1536.4</ele>
        <time>2022-10-28T11:38:21Z</time>
      </trkpt>
      <trkpt lat="44.4389" lon="3.66067">
        <ele>1536.4</ele>
        <time>2022-10-28T11:38:22Z</time>
      </trkpt>
      <trkpt lat="44.43886" lon="3.66067">
        <ele>1536.4</ele>
        <time>2022-10-28T11:38:23Z</time>
      </trkpt>
      <trkpt lat="44.43882" lon="3.66067">
        <ele>1536.4</ele>
        <time>2022-10-28T11:38:24Z</time>
      </trkpt>
      <trkpt lat="44.43879" lon="3.66067">
        <ele>1536.6</ele>
        <time>2022-10-28T11:38:25Z</time>
      </trkpt>
      <trkpt lat="44.43876" lon="3.66067">
        <ele>1536.6</ele>
        <time>2022-10-28T11:38:26Z</time>
      </trkpt>
      <trkpt lat="44.43872" lon="3.66066">
        <ele>1536.6</ele>
        <time>2022-10-28T11:38:27Z</time>
      </trkpt>
      <trkpt lat="44.43869" lon="3.66066">
        <ele>1536.8</ele>
        <time>2022-10-28T11:38:28Z</time>
      </trkpt>
      <trkpt lat="44.43865" lon="3.66065">
        <ele>1536.8</ele>
        <time>2022-10-28T11:38:29Z</time>
      </trkpt>
      <trkpt lat="44.43862" lon="3.66064">
        <ele>1536.8</ele>
        <time>2022-10-28T11:38:30Z</time>
      </trkpt>
      <trkpt lat="44.43858" lon="3.66063">
        <ele>1536.8</ele>
        <time>2022-10-28T11:38:31Z</time>
      </trkpt>
      <trkpt lat="44.43855" lon="3.66062">
        <ele>1537</ele>
        <time>2022-10-28T11:38:32Z</time>
      </trkpt>
      <trkpt lat="44.43851" lon="3.66061">
        <ele>1537</ele>
        <time>2022-10-28T11:38:33Z</time>
      </trkpt>
      <trkpt lat="44.43848" lon="3.6606">
        <ele>1537</ele>
        <time>2022-10-28T11:38:34Z</time>
      </trkpt>
      <trkpt lat="44.43844" lon="3.66059">
        <ele>1537</ele>
        <time>2022-10-28T11:38:35Z</time>
      </trkpt>
      <trkpt lat="44.43841" lon="3.66058">
        <ele>1537</ele>
        <time>2022-10-28T11:38:36Z</time>
      </trkpt>
      <trkpt lat="44.43837" lon="3.66056">
        <ele>1537</ele>
        <time>2022-10-28T11:38:37Z</time>
      </trkpt>
      <trkpt lat="44.43833" lon="3.66055">
        <ele>1537.2</ele>
        <time>2022-10-28T11:38:38Z</time>
      </trkpt>
      <trkpt lat="44.43829" lon="3.66054">
        <ele>1537.2</ele>
        <time>2022-10-28T11:38:39Z</time>
      </trkpt>
      <trkpt lat="44.43825" lon="3.66053">
        <ele>1537.2</ele>
        <time>2022-10-28T11:38:40Z</time>
      </trkpt>
      <trkpt lat="44.43821" lon="3.66052">
        <ele>1537.2</ele>
        <time>2022-10-28T11:38:41Z</time>
      </trkpt>
      <trkpt lat="44.43817" lon="3.66052">
        <ele>1537.2</ele>
        <time>2022-10-28T11:38:42Z</time>
      </trkpt>
      <trkpt lat="44.43814" lon="3.66052">
        <ele>1537.2</ele>
        <time>2022-10-28T11:38:43Z</time>
      </trkpt>
      <trkpt lat="44.4381" lon="3.66052">
        <ele>1537.4</ele>
        <time>2022-10-28T11:38:44Z</time>
      </trkpt>
      <trkpt lat="44.43806" lon="3.66052">
        <ele>1537.4</ele>
        <time>2022-10-28T11:38:45Z</time>
      </trkpt>
      <trkpt lat="44.43803" lon="3.66052">
        <ele>1537.4</ele>
        <time>2022-10-28T11:38:46Z</time>
      </trkpt>
      <trkpt lat="44.43799" lon="3.66053">
        <ele>1537.6</ele>
        <time>2022-10-28T11:38:47Z</time>
      </trkpt>
      <trkpt lat="44.43795" lon="3.66053">
        <ele>1537.6</ele>
        <time>2022-10-28T11:38:48Z</time>
      </trkpt>
      <trkpt lat="44.43791" lon="3.66054">
        <ele>1537.8</ele>
        <time>2022-10-28T11:38:49Z</time>
      </trkpt>
      <trkpt lat="44.43788" lon="3.66056">
        <ele>1538</ele>
        <time>2022-10-28T11:38:50Z</time>
      </trkpt>
      <trkpt lat="44.43784" lon="3.66057">
        <ele>1538</ele>
        <time>2022-10-28T11:38:51Z</time>
      </trkpt>
      <trkpt lat="44.43781" lon="3.66058">
        <ele>1538.2</ele>
        <time>2022-10-28T11:38:52Z</time>
      </trkpt>
      <trkpt lat="44.43777" lon="3.66059">
        <ele>1538.4</ele>
        <time>2022-10-28T11:38:53Z</time>
      </trkpt>
      <trkpt lat="44.43773" lon="3.6606">
        <ele>1538.6</ele>
        <time>2022-10-28T11:38:54Z</time>
      </trkpt>
      <trkpt lat="44.4377" lon="3.66061">
        <ele>1538.6</ele>
        <time>2022-10-28T11:38:55Z</time>
      </trkpt>
      <trkpt lat="44.43767" lon="3.66062">
        <ele>1538.8</ele>
        <time>2022-10-28T11:38:56Z</time>
      </trkpt>
      <trkpt lat="44.43763" lon="3.66064">
        <ele>1538.8</ele>
        <time>2022-10-28T11:38:57Z</time>
      </trkpt>
      <trkpt lat="44.4376" lon="3.66066">
        <ele>1539</ele>
        <time>2022-10-28T11:38:58Z</time>
      </trkpt>
      <trkpt lat="44.43757" lon="3.66068">
        <ele>1539</ele>
        <time>2022-10-28T11:38:59Z</time>
      </trkpt>
      <trkpt lat="44.43753" lon="3.66071">
        <ele>1539.2</ele>
        <time>2022-10-28T11:39:00Z</time>
      </trkpt>
      <trkpt lat="44.4375" lon="3.66073">
        <ele>1539.2</ele>
        <time>2022-10-28T11:39:01Z</time>
      </trkpt>
      <trkpt lat="44.43748" lon="3.66076">
        <ele>1539.4</ele>
        <time>2022-10-28T11:39:02Z</time>
      </trkpt>
      <trkpt lat="44.43745" lon="3.6608">
        <ele>1539.6</ele>
        <time>2022-10-28T11:39:03Z</time>
      </trkpt>
      <trkpt lat="44.43743" lon="3.66084">
        <ele>1539.6</ele>
        <time>2022-10-28T11:39:04Z</time>
      </trkpt>
      <trkpt lat="44.43741" lon="3.66088">
        <ele>1539.6</ele>
        <time>2022-10-28T11:39:05Z</time>
      </trkpt>
      <trkpt lat="44.43739" lon="3.66093">
        <ele>1539.6</ele>
        <time>2022-10-28T11:39:06Z</time>
      </trkpt>
      <trkpt lat="44.43738" lon="3.66097">
        <ele>1539.8</ele>
        <time>2022-10-28T11:39:07Z</time>
      </trkpt>
      <trkpt lat="44.43736" lon="3.66101">
        <ele>1539.8</ele>
        <time>2022-10-28T11:39:08Z</time>
      </trkpt>
      <trkpt lat="44.43736" lon="3.66106">
        <ele>1539.8</ele>
        <time>2022-10-28T11:39:09Z</time>
      </trkpt>
      <trkpt lat="44.43736" lon="3.66111">
        <ele>1540</ele>
        <time>2022-10-28T11:39:10Z</time>
      </trkpt>
      <trkpt lat="44.43736" lon="3.66115">
        <ele>1540</ele>
        <time>2022-10-28T11:39:11Z</time>
      </trkpt>
      <trkpt lat="44.43737" lon="3.66119">
        <ele>1539.8</ele>
        <time>2022-10-28T11:39:12Z</time>
      </trkpt>
      <trkpt lat="44.43737" lon="3.66123">
        <ele>1539.8</ele>
        <time>2022-10-28T11:39:13Z</time>
      </trkpt>
      <trkpt lat="44.43738" lon="3.66127">
        <ele>1539.8</ele>
        <time>2022-10-28T11:39:14Z</time>
      </trkpt>
      <trkpt lat="44.43738" lon="3.6613">
        <ele>1539.8</ele>
        <time>2022-10-28T11:39:15Z</time>
      </trkpt>
      <trkpt lat="44.43739" lon="3.66133">
        <ele>1539.8</ele>
        <time>2022-10-28T11:39:16Z</time>
      </trkpt>
      <trkpt lat="44.4374" lon="3.66136">
        <ele>1540</ele>
        <time>2022-10-28T11:39:17Z</time>
      </trkpt>
      <trkpt lat="44.43741" lon="3.66138">
        <ele>1540</ele>
        <time>2022-10-28T11:39:18Z</time>
      </trkpt>
      <trkpt lat="44.43742" lon="3.66141">
        <ele>1540</ele>
        <time>2022-10-28T11:39:19Z</time>
      </trkpt>
      <trkpt lat="44.43743" lon="3.66144">
        <ele>1540</ele>
        <time>2022-10-28T11:39:20Z</time>
      </trkpt>
      <trkpt lat="44.43744" lon="3.66147">
        <ele>1540</ele>
        <time>2022-10-28T11:39:21Z</time>
      </trkpt>
      <trkpt lat="44.43745" lon="3.6615">
        <ele>1540</ele>
        <time>2022-10-28T11:39:22Z</time>
      </trkpt>
      <trkpt lat="44.43746" lon="3.66153">
        <ele>1540</ele>
        <time>2022-10-28T11:39:23Z</time>
      </trkpt>
      <trkpt lat="44.43747" lon="3.66156">
        <ele>1540.2</ele>
        <time>2022-10-28T11:39:24Z</time>
      </trkpt>
      <trkpt lat="44.43747" lon="3.6616">
        <ele>1540.2</ele>
        <time>2022-10-28T11:39:25Z</time>
      </trkpt>
      <trkpt lat="44.43748" lon="3.66163">
        <ele>1540.2</ele>
        <time>2022-10-28T11:39:26Z</time>
      </trkpt>
      <trkpt lat="44.43749" lon="3.66166">
        <ele>1540.2</ele>
        <time>2022-10-28T11:39:27Z</time>
      </trkpt>
      <trkpt lat="44.43749" lon="3.66169">
        <ele>1540.4</ele>
        <time>2022-10-28T11:39:28Z</time>
      </trkpt>
      <trkpt lat="44.4375" lon="3.66172">
        <ele>1540.4</ele>
        <time>2022-10-28T11:39:29Z</time>
      </trkpt>
      <trkpt lat="44.43751" lon="3.66176">
        <ele>1540.4</ele>
        <time>2022-10-28T11:39:30Z</time>
      </trkpt>
      <trkpt lat="44.43752" lon="3.66179">
        <ele>1540.4</ele>
        <time>2022-10-28T11:39:31Z</time>
      </trkpt>
      <trkpt lat="44.43753" lon="3.66182">
        <ele>1540.4</ele>
        <time>2022-10-28T11:39:32Z</time>
      </trkpt>
      <trkpt lat="44.43754" lon="3.66185">
        <ele>1540.2</ele>
        <time>2022-10-28T11:39:33Z</time>
      </trkpt>
      <trkpt lat="44.43755" lon="3.66188">
        <ele>1540.4</ele>
        <time>2022-10-28T11:39:34Z</time>
      </trkpt>
      <trkpt lat="44.43756" lon="3.66191">
        <ele>1540.4</ele>
        <time>2022-10-28T11:39:35Z</time>
      </trkpt>
      <trkpt lat="44.43756" lon="3.66194">
        <ele>1540.4</ele>
        <time>2022-10-28T11:39:36Z</time>
      </trkpt>
      <trkpt lat="44.43757" lon="3.66198">
        <ele>1540.4</ele>
        <time>2022-10-28T11:39:37Z</time>
      </trkpt>
      <trkpt lat="44.43758" lon="3.66202">
        <ele>1540.4</ele>
        <time>2022-10-28T11:39:38Z</time>
      </trkpt>
      <trkpt lat="44.43759" lon="3.66205">
        <ele>1540.4</ele>
        <time>2022-10-28T11:39:39Z</time>
      </trkpt>
      <trkpt lat="44.4376" lon="3.66209">
        <ele>1540.4</ele>
        <time>2022-10-28T11:39:40Z</time>
      </trkpt>
      <trkpt lat="44.43761" lon="3.66212">
        <ele>1540.4</ele>
        <time>2022-10-28T11:39:41Z</time>
      </trkpt>
      <trkpt lat="44.43761" lon="3.66215">
        <ele>1540.4</ele>
        <time>2022-10-28T11:39:42Z</time>
      </trkpt>
      <trkpt lat="44.43763" lon="3.66217">
        <ele>1540.4</ele>
        <time>2022-10-28T11:39:43Z</time>
      </trkpt>
      <trkpt lat="44.43764" lon="3.6622">
        <ele>1540.4</ele>
        <time>2022-10-28T11:39:44Z</time>
      </trkpt>
      <trkpt lat="44.43764" lon="3.66223">
        <ele>1540.4</ele>
        <time>2022-10-28T11:39:45Z</time>
      </trkpt>
      <trkpt lat="44.43765" lon="3.66226">
        <ele>1540.4</ele>
        <time>2022-10-28T11:39:46Z</time>
      </trkpt>
      <trkpt lat="44.43765" lon="3.6623">
        <ele>1540.4</ele>
        <time>2022-10-28T11:39:47Z</time>
      </trkpt>
      <trkpt lat="44.43766" lon="3.66233">
        <ele>1540.4</ele>
        <time>2022-10-28T11:39:48Z</time>
      </trkpt>
      <trkpt lat="44.43767" lon="3.66237">
        <ele>1540.6</ele>
        <time>2022-10-28T11:39:49Z</time>
      </trkpt>
      <trkpt lat="44.43767" lon="3.6624">
        <ele>1540.6</ele>
        <time>2022-10-28T11:39:50Z</time>
      </trkpt>
      <trkpt lat="44.43767" lon="3.66243">
        <ele>1540.6</ele>
        <time>2022-10-28T11:39:51Z</time>
      </trkpt>
      <trkpt lat="44.43767" lon="3.66246">
        <ele>1540.6</ele>
        <time>2022-10-28T11:39:52Z</time>
      </trkpt>
      <trkpt lat="44.43768" lon="3.6625">
        <ele>1540.6</ele>
        <time>2022-10-28T11:39:53Z</time>
      </trkpt>
      <trkpt lat="44.43768" lon="3.66253">
        <ele>1540.6</ele>
        <time>2022-10-28T11:39:54Z</time>
      </trkpt>
      <trkpt lat="44.43768" lon="3.66256">
        <ele>1540.8</ele>
        <time>2022-10-28T11:39:55Z</time>
      </trkpt>
      <trkpt lat="44.43769" lon="3.6626">
        <ele>1540.8</ele>
        <time>2022-10-28T11:39:56Z</time>
      </trkpt>
      <trkpt lat="44.43769" lon="3.66264">
        <ele>1540.8</ele>
        <time>2022-10-28T11:39:57Z</time>
      </trkpt>
      <trkpt lat="44.43769" lon="3.66267">
        <ele>1540.8</ele>
        <time>2022-10-28T11:39:58Z</time>
      </trkpt>
      <trkpt lat="44.43769" lon="3.66271">
        <ele>1540.8</ele>
        <time>2022-10-28T11:39:59Z</time>
      </trkpt>
      <trkpt lat="44.43769" lon="3.66274">
        <ele>1541</ele>
        <time>2022-10-28T11:40:00Z</time>
      </trkpt>
      <trkpt lat="44.43769" lon="3.66276">
        <ele>1541</ele>
        <time>2022-10-28T11:40:01Z</time>
      </trkpt>
      <trkpt lat="44.43768" lon="3.66279">
        <ele>1541</ele>
        <time>2022-10-28T11:40:02Z</time>
      </trkpt>
      <trkpt lat="44.43768" lon="3.66282">
        <ele>1541</ele>
        <time>2022-10-28T11:40:03Z</time>
      </trkpt>
      <trkpt lat="44.43768" lon="3.66284">
        <ele>1541</ele>
        <time>2022-10-28T11:40:04Z</time>
      </trkpt>
      <trkpt lat="44.43768" lon="3.66287">
        <ele>1541.2</ele>
        <time>2022-10-28T11:40:05Z</time>
      </trkpt>
      <trkpt lat="44.43769" lon="3.6629">
        <ele>1541.2</ele>
        <time>2022-10-28T11:40:06Z</time>
      </trkpt>
      <trkpt lat="44.43768" lon="3.66293">
        <ele>1541.2</ele>
        <time>2022-10-28T11:40:07Z</time>
      </trkpt>
      <trkpt lat="44.43768" lon="3.66296">
        <ele>1541.2</ele>
        <time>2022-10-28T11:40:08Z</time>
      </trkpt>
      <trkpt lat="44.43768" lon="3.66299">
        <ele>1541.4</ele>
        <time>2022-10-28T11:40:09Z</time>
      </trkpt>
      <trkpt lat="44.43768" lon="3.66303">
        <ele>1541.4</ele>
        <time>2022-10-28T11:40:10Z</time>
      </trkpt>
      <trkpt lat="44.43768" lon="3.66306">
        <ele>1541.6</ele>
        <time>2022-10-28T11:40:11Z</time>
      </trkpt>
      <trkpt lat="44.43768" lon="3.66309">
        <ele>1541.6</ele>
        <time>2022-10-28T11:40:12Z</time>
      </trkpt>
      <trkpt lat="44.43768" lon="3.66312">
        <ele>1541.6</ele>
        <time>2022-10-28T11:40:13Z</time>
      </trkpt>
      <trkpt lat="44.43767" lon="3.66316">
        <ele>1541.6</ele>
        <time>2022-10-28T11:40:14Z</time>
      </trkpt>
      <trkpt lat="44.43767" lon="3.6632">
        <ele>1541.8</ele>
        <time>2022-10-28T11:40:15Z</time>
      </trkpt>
      <trkpt lat="44.43767" lon="3.66323">
        <ele>1541.8</ele>
        <time>2022-10-28T11:40:16Z</time>
      </trkpt>
      <trkpt lat="44.43767" lon="3.66327">
        <ele>1542</ele>
        <time>2022-10-28T11:40:17Z</time>
      </trkpt>
      <trkpt lat="44.43767" lon="3.6633">
        <ele>1542.2</ele>
        <time>2022-10-28T11:40:18Z</time>
      </trkpt>
      <trkpt lat="44.43767" lon="3.66333">
        <ele>1542.2</ele>
        <time>2022-10-28T11:40:19Z</time>
      </trkpt>
      <trkpt lat="44.43767" lon="3.66336">
        <ele>1542.2</ele>
        <time>2022-10-28T11:40:20Z</time>
      </trkpt>
      <trkpt lat="44.43767" lon="3.66339">
        <ele>1542.4</ele>
        <time>2022-10-28T11:40:21Z</time>
      </trkpt>
      <trkpt lat="44.43767" lon="3.66342">
        <ele>1542.4</ele>
        <time>2022-10-28T11:40:22Z</time>
      </trkpt>
      <trkpt lat="44.43766" lon="3.66345">
        <ele>1542.4</ele>
        <time>2022-10-28T11:40:23Z</time>
      </trkpt>
      <trkpt lat="44.43766" lon="3.66348">
        <ele>1542.6</ele>
        <time>2022-10-28T11:40:24Z</time>
      </trkpt>
      <trkpt lat="44.43766" lon="3.66352">
        <ele>1542.8</ele>
        <time>2022-10-28T11:40:25Z</time>
      </trkpt>
      <trkpt lat="44.43765" lon="3.66355">
        <ele>1543</ele>
        <time>2022-10-28T11:40:26Z</time>
      </trkpt>
      <trkpt lat="44.43765" lon="3.66359">
        <ele>1543</ele>
        <time>2022-10-28T11:40:27Z</time>
      </trkpt>
      <trkpt lat="44.43765" lon="3.66363">
        <ele>1543.2</ele>
        <time>2022-10-28T11:40:28Z</time>
      </trkpt>
      <trkpt lat="44.43764" lon="3.66366">
        <ele>1543.4</ele>
        <time>2022-10-28T11:40:29Z</time>
      </trkpt>
      <trkpt lat="44.43764" lon="3.6637">
        <ele>1543.4</ele>
        <time>2022-10-28T11:40:30Z</time>
      </trkpt>
      <trkpt lat="44.43763" lon="3.66374">
        <ele>1543.6</ele>
        <time>2022-10-28T11:40:31Z</time>
      </trkpt>
      <trkpt lat="44.43763" lon="3.66378">
        <ele>1543.8</ele>
        <time>2022-10-28T11:40:32Z</time>
      </trkpt>
      <trkpt lat="44.43762" lon="3.66381">
        <ele>1543.8</ele>
        <time>2022-10-28T11:40:33Z</time>
      </trkpt>
      <trkpt lat="44.43762" lon="3.66385">
        <ele>1544</ele>
        <time>2022-10-28T11:40:34Z</time>
      </trkpt>
      <trkpt lat="44.43762" lon="3.66388">
        <ele>1544.2</ele>
        <time>2022-10-28T11:40:35Z</time>
      </trkpt>
      <trkpt lat="44.43762" lon="3.66392">
        <ele>1544.2</ele>
        <time>2022-10-28T11:40:36Z</time>
      </trkpt>
      <trkpt lat="44.43761" lon="3.66396">
        <ele>1544.2</ele>
        <time>2022-10-28T11:40:37Z</time>
      </trkpt>
      <trkpt lat="44.43761" lon="3.66399">
        <ele>1544.4</ele>
        <time>2022-10-28T11:40:38Z</time>
      </trkpt>
      <trkpt lat="44.43761" lon="3.66403">
        <ele>1544.6</ele>
        <time>2022-10-28T11:40:39Z</time>
      </trkpt>
      <trkpt lat="44.4376" lon="3.66407">
        <ele>1544.6</ele>
        <time>2022-10-28T11:40:40Z</time>
      </trkpt>
      <trkpt lat="44.4376" lon="3.66411">
        <ele>1544.6</ele>
        <time>2022-10-28T11:40:41Z</time>
      </trkpt>
      <trkpt lat="44.4376" lon="3.66414">
        <ele>1544.8</ele>
        <time>2022-10-28T11:40:42Z</time>
      </trkpt>
      <trkpt lat="44.43759" lon="3.66419">
        <ele>1544.8</ele>
        <time>2022-10-28T11:40:43Z</time>
      </trkpt>
      <trkpt lat="44.43758" lon="3.66423">
        <ele>1545</ele>
        <time>2022-10-28T11:40:44Z</time>
      </trkpt>
      <trkpt lat="44.43757" lon="3.66427">
        <ele>1545.2</ele>
        <time>2022-10-28T11:40:45Z</time>
      </trkpt>
      <trkpt lat="44.43757" lon="3.66431">
        <ele>1545.2</ele>
        <time>2022-10-28T11:40:46Z</time>
      </trkpt>
      <trkpt lat="44.43756" lon="3.66435">
        <ele>1545.2</ele>
        <time>2022-10-28T11:40:47Z</time>
      </trkpt>
      <trkpt lat="44.43756" lon="3.66439">
        <ele>1545.2</ele>
        <time>2022-10-28T11:40:48Z</time>
      </trkpt>
      <trkpt lat="44.43755" lon="3.66443">
        <ele>1545.4</ele>
        <time>2022-10-28T11:40:49Z</time>
      </trkpt>
      <trkpt lat="44.43754" lon="3.66447">
        <ele>1545.4</ele>
        <time>2022-10-28T11:40:50Z</time>
      </trkpt>
      <trkpt lat="44.43753" lon="3.66451">
        <ele>1545.4</ele>
        <time>2022-10-28T11:40:51Z</time>
      </trkpt>
      <trkpt lat="44.43753" lon="3.66455">
        <ele>1545.4</ele>
        <time>2022-10-28T11:40:52Z</time>
      </trkpt>
      <trkpt lat="44.43752" lon="3.66458">
        <ele>1545.4</ele>
        <time>2022-10-28T11:40:53Z</time>
      </trkpt>
      <trkpt lat="44.43751" lon="3.66462">
        <ele>1545.4</ele>
        <time>2022-10-28T11:40:54Z</time>
      </trkpt>
      <trkpt lat="44.4375" lon="3.66466">
        <ele>1545.6</ele>
        <time>2022-10-28T11:40:55Z</time>
      </trkpt>
      <trkpt lat="44.4375" lon="3.6647">
        <ele>1545.6</ele>
        <time>2022-10-28T11:40:56Z</time>
      </trkpt>
      <trkpt lat="44.43749" lon="3.66474">
        <ele>1545.8</ele>
        <time>2022-10-28T11:40:57Z</time>
      </trkpt>
      <trkpt lat="44.43748" lon="3.66478">
        <ele>1545.8</ele>
        <time>2022-10-28T11:40:58Z</time>
      </trkpt>
      <trkpt lat="44.43748" lon="3.66482">
        <ele>1545.8</ele>
        <time>2022-10-28T11:40:59Z</time>
      </trkpt>
      <trkpt lat="44.43747" lon="3.66485">
        <ele>1546</ele>
        <time>2022-10-28T11:41:00Z</time>
      </trkpt>
      <trkpt lat="44.43746" lon="3.6649">
        <ele>1546.2</ele>
        <time>2022-10-28T11:41:01Z</time>
      </trkpt>
      <trkpt lat="44.43745" lon="3.66493">
        <ele>1546.2</ele>
        <time>2022-10-28T11:41:02Z</time>
      </trkpt>
      <trkpt lat="44.43744" lon="3.66497">
        <ele>1546.4</ele>
        <time>2022-10-28T11:41:03Z</time>
      </trkpt>
      <trkpt lat="44.43743" lon="3.66501">
        <ele>1546.4</ele>
        <time>2022-10-28T11:41:04Z</time>
      </trkpt>
      <trkpt lat="44.43743" lon="3.66505">
        <ele>1546.6</ele>
        <time>2022-10-28T11:41:05Z</time>
      </trkpt>
      <trkpt lat="44.43742" lon="3.6651">
        <ele>1546.6</ele>
        <time>2022-10-28T11:41:06Z</time>
      </trkpt>
      <trkpt lat="44.43741" lon="3.66513">
        <ele>1546.6</ele>
        <time>2022-10-28T11:41:07Z</time>
      </trkpt>
      <trkpt lat="44.4374" lon="3.66517">
        <ele>1546.8</ele>
        <time>2022-10-28T11:41:08Z</time>
      </trkpt>
      <trkpt lat="44.43739" lon="3.66521">
        <ele>1546.8</ele>
        <time>2022-10-28T11:41:09Z</time>
      </trkpt>
      <trkpt lat="44.43738" lon="3.66524">
        <ele>1546.8</ele>
        <time>2022-10-28T11:41:10Z</time>
      </trkpt>
      <trkpt lat="44.43738" lon="3.66526">
        <ele>1546.6</ele>
        <time>2022-10-28T11:41:11Z</time>
      </trkpt>
      <trkpt lat="44.43737" lon="3.66526">
        <ele>1546.6</ele>
        <time>2022-10-28T11:41:12Z</time>
      </trkpt>
      <trkpt lat="44.43736" lon="3.66531">
        <ele>1546.6</ele>
        <time>2022-10-28T11:41:27Z</time>
      </trkpt>
      <trkpt lat="44.43735" lon="3.66536">
        <ele>1546.8</ele>
        <time>2022-10-28T11:41:28Z</time>
      </trkpt>
      <trkpt lat="44.43734" lon="3.66541">
        <ele>1546.6</ele>
        <time>2022-10-28T11:41:29Z</time>
      </trkpt>
      <trkpt lat="44.43733" lon="3.66545">
        <ele>1546.6</ele>
        <time>2022-10-28T11:41:30Z</time>
      </trkpt>
      <trkpt lat="44.43731" lon="3.6655">
        <ele>1546.8</ele>
        <time>2022-10-28T11:41:31Z</time>
      </trkpt>
      <trkpt lat="44.4373" lon="3.66554">
        <ele>1546.8</ele>
        <time>2022-10-28T11:41:32Z</time>
      </trkpt>
      <trkpt lat="44.43728" lon="3.66558">
        <ele>1547</ele>
        <time>2022-10-28T11:41:33Z</time>
      </trkpt>
      <trkpt lat="44.43726" lon="3.66563">
        <ele>1547</ele>
        <time>2022-10-28T11:41:34Z</time>
      </trkpt>
      <trkpt lat="44.43724" lon="3.66568">
        <ele>1547</ele>
        <time>2022-10-28T11:41:35Z</time>
      </trkpt>
      <trkpt lat="44.43723" lon="3.66572">
        <ele>1547</ele>
        <time>2022-10-28T11:41:36Z</time>
      </trkpt>
      <trkpt lat="44.4372" lon="3.66577">
        <ele>1547.2</ele>
        <time>2022-10-28T11:41:37Z</time>
      </trkpt>
      <trkpt lat="44.43719" lon="3.66582">
        <ele>1547.4</ele>
        <time>2022-10-28T11:41:38Z</time>
      </trkpt>
      <trkpt lat="44.43717" lon="3.66586">
        <ele>1547.6</ele>
        <time>2022-10-28T11:41:39Z</time>
      </trkpt>
      <trkpt lat="44.43715" lon="3.66591">
        <ele>1547.8</ele>
        <time>2022-10-28T11:41:40Z</time>
      </trkpt>
      <trkpt lat="44.43713" lon="3.66596">
        <ele>1547.8</ele>
        <time>2022-10-28T11:41:41Z</time>
      </trkpt>
      <trkpt lat="44.43711" lon="3.666">
        <ele>1548</ele>
        <time>2022-10-28T11:41:42Z</time>
      </trkpt>
      <trkpt lat="44.43709" lon="3.66605">
        <ele>1548.2</ele>
        <time>2022-10-28T11:41:43Z</time>
      </trkpt>
      <trkpt lat="44.43706" lon="3.66609">
        <ele>1548.4</ele>
        <time>2022-10-28T11:41:44Z</time>
      </trkpt>
      <trkpt lat="44.43704" lon="3.66613">
        <ele>1548.2</ele>
        <time>2022-10-28T11:41:45Z</time>
      </trkpt>
      <trkpt lat="44.43702" lon="3.66618">
        <ele>1548.4</ele>
        <time>2022-10-28T11:41:46Z</time>
      </trkpt>
      <trkpt lat="44.43699" lon="3.66622">
        <ele>1548.6</ele>
        <time>2022-10-28T11:41:47Z</time>
      </trkpt>
      <trkpt lat="44.43696" lon="3.66626">
        <ele>1548.6</ele>
        <time>2022-10-28T11:41:48Z</time>
      </trkpt>
      <trkpt lat="44.43693" lon="3.6663">
        <ele>1548.6</ele>
        <time>2022-10-28T11:41:49Z</time>
      </trkpt>
      <trkpt lat="44.4369" lon="3.66634">
        <ele>1548.8</ele>
        <time>2022-10-28T11:41:50Z</time>
      </trkpt>
      <trkpt lat="44.43687" lon="3.66637">
        <ele>1548.8</ele>
        <time>2022-10-28T11:41:51Z</time>
      </trkpt>
      <trkpt lat="44.43684" lon="3.66641">
        <ele>1549</ele>
        <time>2022-10-28T11:41:52Z</time>
      </trkpt>
      <trkpt lat="44.43682" lon="3.66645">
        <ele>1549</ele>
        <time>2022-10-28T11:41:53Z</time>
      </trkpt>
      <trkpt lat="44.43679" lon="3.66649">
        <ele>1549</ele>
        <time>2022-10-28T11:41:54Z</time>
      </trkpt>
      <trkpt lat="44.43676" lon="3.66652">
        <ele>1549</ele>
        <time>2022-10-28T11:41:55Z</time>
      </trkpt>
      <trkpt lat="44.43673" lon="3.66656">
        <ele>1549</ele>
        <time>2022-10-28T11:41:56Z</time>
      </trkpt>
      <trkpt lat="44.43671" lon="3.66659">
        <ele>1549</ele>
        <time>2022-10-28T11:41:57Z</time>
      </trkpt>
      <trkpt lat="44.43669" lon="3.66661">
        <ele>1549</ele>
        <time>2022-10-28T11:41:58Z</time>
      </trkpt>
      <trkpt lat="44.43667" lon="3.66663">
        <ele>1549</ele>
        <time>2022-10-28T11:41:59Z</time>
      </trkpt>
      <trkpt lat="44.43666" lon="3.66665">
        <ele>1549</ele>
        <time>2022-10-28T11:42:00Z</time>
      </trkpt>
      <trkpt lat="44.43666" lon="3.66665">
        <ele>1549</ele>
        <time>2022-10-28T11:42:01Z</time>
      </trkpt>
      <trkpt lat="44.43664" lon="3.66666">
        <ele>1549</ele>
        <time>2022-10-28T11:42:36Z</time>
      </trkpt>
      <trkpt lat="44.43663" lon="3.66668">
        <ele>1549</ele>
        <time>2022-10-28T11:42:37Z</time>
      </trkpt>
      <trkpt lat="44.4366" lon="3.66669">
        <ele>1549</ele>
        <time>2022-10-28T11:42:38Z</time>
      </trkpt>
      <trkpt lat="44.43658" lon="3.66672">
        <ele>1549</ele>
        <time>2022-10-28T11:42:39Z</time>
      </trkpt>
      <trkpt lat="44.43656" lon="3.66674">
        <ele>1549.2</ele>
        <time>2022-10-28T11:42:40Z</time>
      </trkpt>
      <trkpt lat="44.43654" lon="3.66676">
        <ele>1549.4</ele>
        <time>2022-10-28T11:42:41Z</time>
      </trkpt>
      <trkpt lat="44.43652" lon="3.66678">
        <ele>1549.4</ele>
        <time>2022-10-28T11:42:42Z</time>
      </trkpt>
      <trkpt lat="44.4365" lon="3.6668">
        <ele>1549.6</ele>
        <time>2022-10-28T11:42:43Z</time>
      </trkpt>
      <trkpt lat="44.43648" lon="3.66682">
        <ele>1549.6</ele>
        <time>2022-10-28T11:42:44Z</time>
      </trkpt>
      <trkpt lat="44.43645" lon="3.66684">
        <ele>1549.6</ele>
        <time>2022-10-28T11:42:45Z</time>
      </trkpt>
      <trkpt lat="44.43643" lon="3.66687">
        <ele>1549.6</ele>
        <time>2022-10-28T11:42:46Z</time>
      </trkpt>
      <trkpt lat="44.4364" lon="3.66689">
        <ele>1549.8</ele>
        <time>2022-10-28T11:42:47Z</time>
      </trkpt>
      <trkpt lat="44.43638" lon="3.66692">
        <ele>1549.8</ele>
        <time>2022-10-28T11:42:48Z</time>
      </trkpt>
      <trkpt lat="44.43635" lon="3.66694">
        <ele>1550</ele>
        <time>2022-10-28T11:42:49Z</time>
      </trkpt>
      <trkpt lat="44.43633" lon="3.66697">
        <ele>1550</ele>
        <time>2022-10-28T11:42:50Z</time>
      </trkpt>
      <trkpt lat="44.4363" lon="3.667">
        <ele>1550.2</ele>
        <time>2022-10-28T11:42:51Z</time>
      </trkpt>
      <trkpt lat="44.43628" lon="3.66703">
        <ele>1550.2</ele>
        <time>2022-10-28T11:42:52Z</time>
      </trkpt>
      <trkpt lat="44.43626" lon="3.66705">
        <ele>1550.4</ele>
        <time>2022-10-28T11:42:53Z</time>
      </trkpt>
      <trkpt lat="44.43623" lon="3.66707">
        <ele>1550.4</ele>
        <time>2022-10-28T11:42:54Z</time>
      </trkpt>
      <trkpt lat="44.4362" lon="3.6671">
        <ele>1550.4</ele>
        <time>2022-10-28T11:42:55Z</time>
      </trkpt>
      <trkpt lat="44.43618" lon="3.66712">
        <ele>1550.4</ele>
        <time>2022-10-28T11:42:56Z</time>
      </trkpt>
      <trkpt lat="44.43615" lon="3.66714">
        <ele>1550.6</ele>
        <time>2022-10-28T11:42:57Z</time>
      </trkpt>
      <trkpt lat="44.43612" lon="3.66716">
        <ele>1550.8</ele>
        <time>2022-10-28T11:42:58Z</time>
      </trkpt>
      <trkpt lat="44.4361" lon="3.66719">
        <ele>1550.8</ele>
        <time>2022-10-28T11:42:59Z</time>
      </trkpt>
      <trkpt lat="44.43607" lon="3.66721">
        <ele>1551</ele>
        <time>2022-10-28T11:43:00Z</time>
      </trkpt>
      <trkpt lat="44.43604" lon="3.66723">
        <ele>1551.2</ele>
        <time>2022-10-28T11:43:01Z</time>
      </trkpt>
      <trkpt lat="44.43601" lon="3.66725">
        <ele>1551.2</ele>
        <time>2022-10-28T11:43:02Z</time>
      </trkpt>
      <trkpt lat="44.43598" lon="3.66727">
        <ele>1551.2</ele>
        <time>2022-10-28T11:43:03Z</time>
      </trkpt>
      <trkpt lat="44.43595" lon="3.66729">
        <ele>1551.2</ele>
        <time>2022-10-28T11:43:04Z</time>
      </trkpt>
      <trkpt lat="44.43592" lon="3.66731">
        <ele>1551.4</ele>
        <time>2022-10-28T11:43:05Z</time>
      </trkpt>
      <trkpt lat="44.43589" lon="3.66733">
        <ele>1551.4</ele>
        <time>2022-10-28T11:43:06Z</time>
      </trkpt>
      <trkpt lat="44.43586" lon="3.66735">
        <ele>1551.6</ele>
        <time>2022-10-28T11:43:07Z</time>
      </trkpt>
      <trkpt lat="44.43583" lon="3.66736">
        <ele>1551.6</ele>
        <time>2022-10-28T11:43:08Z</time>
      </trkpt>
      <trkpt lat="44.4358" lon="3.66738">
        <ele>1551.8</ele>
        <time>2022-10-28T11:43:09Z</time>
      </trkpt>
      <trkpt lat="44.43577" lon="3.6674">
        <ele>1551.8</ele>
        <time>2022-10-28T11:43:10Z</time>
      </trkpt>
      <trkpt lat="44.43574" lon="3.66742">
        <ele>1552</ele>
        <time>2022-10-28T11:43:11Z</time>
      </trkpt>
      <trkpt lat="44.43571" lon="3.66745">
        <ele>1552</ele>
        <time>2022-10-28T11:43:12Z</time>
      </trkpt>
      <trkpt lat="44.43568" lon="3.66746">
        <ele>1552</ele>
        <time>2022-10-28T11:43:13Z</time>
      </trkpt>
      <trkpt lat="44.43566" lon="3.66748">
        <ele>1552</ele>
        <time>2022-10-28T11:43:14Z</time>
      </trkpt>
      <trkpt lat="44.43563" lon="3.6675">
        <ele>1552.2</ele>
        <time>2022-10-28T11:43:15Z</time>
      </trkpt>
      <trkpt lat="44.4356" lon="3.66752">
        <ele>1552.2</ele>
        <time>2022-10-28T11:43:16Z</time>
      </trkpt>
      <trkpt lat="44.43557" lon="3.66754">
        <ele>1552.2</ele>
        <time>2022-10-28T11:43:17Z</time>
      </trkpt>
      <trkpt lat="44.43554" lon="3.66755">
        <ele>1552.4</ele>
        <time>2022-10-28T11:43:18Z</time>
      </trkpt>
      <trkpt lat="44.43552" lon="3.66757">
        <ele>1552.4</ele>
        <time>2022-10-28T11:43:19Z</time>
      </trkpt>
      <trkpt lat="44.43549" lon="3.66759">
        <ele>1552.4</ele>
        <time>2022-10-28T11:43:20Z</time>
      </trkpt>
      <trkpt lat="44.43546" lon="3.6676">
        <ele>1552.6</ele>
        <time>2022-10-28T11:43:21Z</time>
      </trkpt>
      <trkpt lat="44.43543" lon="3.66762">
        <ele>1552.6</ele>
        <time>2022-10-28T11:43:22Z</time>
      </trkpt>
      <trkpt lat="44.4354" lon="3.66764">
        <ele>1552.6</ele>
        <time>2022-10-28T11:43:23Z</time>
      </trkpt>
      <trkpt lat="44.43538" lon="3.66766">
        <ele>1552.8</ele>
        <time>2022-10-28T11:43:24Z</time>
      </trkpt>
      <trkpt lat="44.43534" lon="3.66767">
        <ele>1552.8</ele>
        <time>2022-10-28T11:43:25Z</time>
      </trkpt>
      <trkpt lat="44.43531" lon="3.66769">
        <ele>1553</ele>
        <time>2022-10-28T11:43:26Z</time>
      </trkpt>
      <trkpt lat="44.43528" lon="3.6677">
        <ele>1553</ele>
        <time>2022-10-28T11:43:27Z</time>
      </trkpt>
      <trkpt lat="44.43525" lon="3.66772">
        <ele>1553.4</ele>
        <time>2022-10-28T11:43:28Z</time>
      </trkpt>
      <trkpt lat="44.43522" lon="3.66773">
        <ele>1553.2</ele>
        <time>2022-10-28T11:43:29Z</time>
      </trkpt>
      <trkpt lat="44.43519" lon="3.66775">
        <ele>1553.4</ele>
        <time>2022-10-28T11:43:30Z</time>
      </trkpt>
      <trkpt lat="44.43516" lon="3.66776">
        <ele>1553.4</ele>
        <time>2022-10-28T11:43:31Z</time>
      </trkpt>
      <trkpt lat="44.43513" lon="3.66778">
        <ele>1553.6</ele>
        <time>2022-10-28T11:43:32Z</time>
      </trkpt>
      <trkpt lat="44.4351" lon="3.66779">
        <ele>1553.6</ele>
        <time>2022-10-28T11:43:33Z</time>
      </trkpt>
      <trkpt lat="44.43507" lon="3.6678">
        <ele>1553.6</ele>
        <time>2022-10-28T11:43:34Z</time>
      </trkpt>
      <trkpt lat="44.43503" lon="3.66781">
        <ele>1553.8</ele>
        <time>2022-10-28T11:43:35Z</time>
      </trkpt>
      <trkpt lat="44.435" lon="3.66783">
        <ele>1553.8</ele>
        <time>2022-10-28T11:43:36Z</time>
      </trkpt>
      <trkpt lat="44.43497" lon="3.66784">
        <ele>1553.8</ele>
        <time>2022-10-28T11:43:37Z</time>
      </trkpt>
      <trkpt lat="44.43493" lon="3.66785">
        <ele>1553.8</ele>
        <time>2022-10-28T11:43:38Z</time>
      </trkpt>
      <trkpt lat="44.4349" lon="3.66786">
        <ele>1554</ele>
        <time>2022-10-28T11:43:39Z</time>
      </trkpt>
      <trkpt lat="44.43487" lon="3.66788">
        <ele>1554</ele>
        <time>2022-10-28T11:43:40Z</time>
      </trkpt>
      <trkpt lat="44.43483" lon="3.66789">
        <ele>1554.2</ele>
        <time>2022-10-28T11:43:41Z</time>
      </trkpt>
      <trkpt lat="44.4348" lon="3.6679">
        <ele>1554.4</ele>
        <time>2022-10-28T11:43:42Z</time>
      </trkpt>
      <trkpt lat="44.43476" lon="3.66792">
        <ele>1554.4</ele>
        <time>2022-10-28T11:43:43Z</time>
      </trkpt>
      <trkpt lat="44.43473" lon="3.66793">
        <ele>1554.4</ele>
        <time>2022-10-28T11:43:44Z</time>
      </trkpt>
      <trkpt lat="44.4347" lon="3.66795">
        <ele>1554.6</ele>
        <time>2022-10-28T11:43:45Z</time>
      </trkpt>
      <trkpt lat="44.43466" lon="3.66797">
        <ele>1554.6</ele>
        <time>2022-10-28T11:43:46Z</time>
      </trkpt>
      <trkpt lat="44.43463" lon="3.66799">
        <ele>1554.6</ele>
        <time>2022-10-28T11:43:47Z</time>
      </trkpt>
      <trkpt lat="44.4346" lon="3.66801">
        <ele>1554.6</ele>
        <time>2022-10-28T11:43:48Z</time>
      </trkpt>
      <trkpt lat="44.43457" lon="3.66803">
        <ele>1554.8</ele>
        <time>2022-10-28T11:43:49Z</time>
      </trkpt>
      <trkpt lat="44.43454" lon="3.66805">
        <ele>1554.8</ele>
        <time>2022-10-28T11:43:50Z</time>
      </trkpt>
      <trkpt lat="44.43451" lon="3.66807">
        <ele>1555</ele>
        <time>2022-10-28T11:43:51Z</time>
      </trkpt>
      <trkpt lat="44.43448" lon="3.66809">
        <ele>1555.2</ele>
        <time>2022-10-28T11:43:52Z</time>
      </trkpt>
      <trkpt lat="44.43444" lon="3.66811">
        <ele>1555.4</ele>
        <time>2022-10-28T11:43:53Z</time>
      </trkpt>
      <trkpt lat="44.43442" lon="3.66814">
        <ele>1555.4</ele>
        <time>2022-10-28T11:43:54Z</time>
      </trkpt>
      <trkpt lat="44.43439" lon="3.66816">
        <ele>1555.6</ele>
        <time>2022-10-28T11:43:55Z</time>
      </trkpt>
      <trkpt lat="44.43436" lon="3.66818">
        <ele>1555.6</ele>
        <time>2022-10-28T11:43:56Z</time>
      </trkpt>
      <trkpt lat="44.43433" lon="3.6682">
        <ele>1555.8</ele>
        <time>2022-10-28T11:43:57Z</time>
      </trkpt>
      <trkpt lat="44.4343" lon="3.66823">
        <ele>1556</ele>
        <time>2022-10-28T11:43:58Z</time>
      </trkpt>
      <trkpt lat="44.43428" lon="3.66826">
        <ele>1556</ele>
        <time>2022-10-28T11:43:59Z</time>
      </trkpt>
      <trkpt lat="44.43426" lon="3.66828">
        <ele>1556.2</ele>
        <time>2022-10-28T11:44:00Z</time>
      </trkpt>
      <trkpt lat="44.43423" lon="3.66832">
        <ele>1556.2</ele>
        <time>2022-10-28T11:44:01Z</time>
      </trkpt>
      <trkpt lat="44.43421" lon="3.66835">
        <ele>1556.4</ele>
        <time>2022-10-28T11:44:02Z</time>
      </trkpt>
      <trkpt lat="44.43419" lon="3.66839">
        <ele>1556.6</ele>
        <time>2022-10-28T11:44:03Z</time>
      </trkpt>
      <trkpt lat="44.43417" lon="3.66842">
        <ele>1556.6</ele>
        <time>2022-10-28T11:44:04Z</time>
      </trkpt>
      <trkpt lat="44.43415" lon="3.66846">
        <ele>1556.8</ele>
        <time>2022-10-28T11:44:05Z</time>
      </trkpt>
      <trkpt lat="44.43414" lon="3.6685">
        <ele>1557</ele>
        <time>2022-10-28T11:44:06Z</time>
      </trkpt>
      <trkpt lat="44.43413" lon="3.66855">
        <ele>1557</ele>
        <time>2022-10-28T11:44:07Z</time>
      </trkpt>
      <trkpt lat="44.43411" lon="3.66859">
        <ele>1557.2</ele>
        <time>2022-10-28T11:44:08Z</time>
      </trkpt>
      <trkpt lat="44.4341" lon="3.66864">
        <ele>1557.2</ele>
        <time>2022-10-28T11:44:09Z</time>
      </trkpt>
      <trkpt lat="44.43409" lon="3.66868">
        <ele>1557.4</ele>
        <time>2022-10-28T11:44:10Z</time>
      </trkpt>
      <trkpt lat="44.43409" lon="3.66874">
        <ele>1557.4</ele>
        <time>2022-10-28T11:44:11Z</time>
      </trkpt>
      <trkpt lat="44.43408" lon="3.66878">
        <ele>1557.4</ele>
        <time>2022-10-28T11:44:12Z</time>
      </trkpt>
      <trkpt lat="44.43408" lon="3.66884">
        <ele>1557.6</ele>
        <time>2022-10-28T11:44:13Z</time>
      </trkpt>
      <trkpt lat="44.43408" lon="3.66889">
        <ele>1557.6</ele>
        <time>2022-10-28T11:44:14Z</time>
      </trkpt>
      <trkpt lat="44.43407" lon="3.66894">
        <ele>1557.6</ele>
        <time>2022-10-28T11:44:15Z</time>
      </trkpt>
      <trkpt lat="44.43407" lon="3.66899">
        <ele>1557.8</ele>
        <time>2022-10-28T11:44:16Z</time>
      </trkpt>
      <trkpt lat="44.43407" lon="3.66904">
        <ele>1557.8</ele>
        <time>2022-10-28T11:44:17Z</time>
      </trkpt>
      <trkpt lat="44.43407" lon="3.66909">
        <ele>1557.8</ele>
        <time>2022-10-28T11:44:18Z</time>
      </trkpt>
      <trkpt lat="44.43407" lon="3.66915">
        <ele>1557.8</ele>
        <time>2022-10-28T11:44:19Z</time>
      </trkpt>
      <trkpt lat="44.43407" lon="3.6692">
        <ele>1557.8</ele>
        <time>2022-10-28T11:44:20Z</time>
      </trkpt>
      <trkpt lat="44.43407" lon="3.66925">
        <ele>1558</ele>
        <time>2022-10-28T11:44:21Z</time>
      </trkpt>
      <trkpt lat="44.43407" lon="3.6693">
        <ele>1558</ele>
        <time>2022-10-28T11:44:22Z</time>
      </trkpt>
      <trkpt lat="44.43407" lon="3.66936">
        <ele>1558</ele>
        <time>2022-10-28T11:44:23Z</time>
      </trkpt>
      <trkpt lat="44.43407" lon="3.66941">
        <ele>1558.2</ele>
        <time>2022-10-28T11:44:24Z</time>
      </trkpt>
      <trkpt lat="44.43408" lon="3.66946">
        <ele>1558.2</ele>
        <time>2022-10-28T11:44:25Z</time>
      </trkpt>
      <trkpt lat="44.43408" lon="3.66951">
        <ele>1558.2</ele>
        <time>2022-10-28T11:44:26Z</time>
      </trkpt>
      <trkpt lat="44.43408" lon="3.66956">
        <ele>1558.2</ele>
        <time>2022-10-28T11:44:27Z</time>
      </trkpt>
      <trkpt lat="44.43409" lon="3.66961">
        <ele>1558.2</ele>
        <time>2022-10-28T11:44:28Z</time>
      </trkpt>
      <trkpt lat="44.43409" lon="3.66967">
        <ele>1558.4</ele>
        <time>2022-10-28T11:44:29Z</time>
      </trkpt>
      <trkpt lat="44.4341" lon="3.66972">
        <ele>1558.4</ele>
        <time>2022-10-28T11:44:30Z</time>
      </trkpt>
      <trkpt lat="44.43411" lon="3.66976">
        <ele>1558.4</ele>
        <time>2022-10-28T11:44:31Z</time>
      </trkpt>
      <trkpt lat="44.43412" lon="3.66981">
        <ele>1558.6</ele>
        <time>2022-10-28T11:44:32Z</time>
      </trkpt>
      <trkpt lat="44.43413" lon="3.66986">
        <ele>1558.6</ele>
        <time>2022-10-28T11:44:33Z</time>
      </trkpt>
      <trkpt lat="44.43414" lon="3.66991">
        <ele>1558.8</ele>
        <time>2022-10-28T11:44:34Z</time>
      </trkpt>
      <trkpt lat="44.43415" lon="3.66996">
        <ele>1558.8</ele>
        <time>2022-10-28T11:44:35Z</time>
      </trkpt>
      <trkpt lat="44.43416" lon="3.67001">
        <ele>1559</ele>
        <time>2022-10-28T11:44:36Z</time>
      </trkpt>
      <trkpt lat="44.43416" lon="3.67007">
        <ele>1559.2</ele>
        <time>2022-10-28T11:44:37Z</time>
      </trkpt>
      <trkpt lat="44.43416" lon="3.67012">
        <ele>1559.2</ele>
        <time>2022-10-28T11:44:38Z</time>
      </trkpt>
      <trkpt lat="44.43417" lon="3.67017">
        <ele>1559.4</ele>
        <time>2022-10-28T11:44:39Z</time>
      </trkpt>
      <trkpt lat="44.43418" lon="3.67022">
        <ele>1559.4</ele>
        <time>2022-10-28T11:44:40Z</time>
      </trkpt>
      <trkpt lat="44.43418" lon="3.67027">
        <ele>1559.6</ele>
        <time>2022-10-28T11:44:41Z</time>
      </trkpt>
      <trkpt lat="44.43419" lon="3.67032">
        <ele>1559.8</ele>
        <time>2022-10-28T11:44:42Z</time>
      </trkpt>
      <trkpt lat="44.43419" lon="3.67037">
        <ele>1559.8</ele>
        <time>2022-10-28T11:44:43Z</time>
      </trkpt>
      <trkpt lat="44.4342" lon="3.67042">
        <ele>1560</ele>
        <time>2022-10-28T11:44:44Z</time>
      </trkpt>
      <trkpt lat="44.43421" lon="3.67047">
        <ele>1560.2</ele>
        <time>2022-10-28T11:44:45Z</time>
      </trkpt>
      <trkpt lat="44.43421" lon="3.67053">
        <ele>1560.2</ele>
        <time>2022-10-28T11:44:46Z</time>
      </trkpt>
      <trkpt lat="44.43422" lon="3.67058">
        <ele>1560.4</ele>
        <time>2022-10-28T11:44:47Z</time>
      </trkpt>
      <trkpt lat="44.43422" lon="3.67063">
        <ele>1560.4</ele>
        <time>2022-10-28T11:44:48Z</time>
      </trkpt>
      <trkpt lat="44.43423" lon="3.67068">
        <ele>1560.6</ele>
        <time>2022-10-28T11:44:49Z</time>
      </trkpt>
      <trkpt lat="44.43423" lon="3.67073">
        <ele>1560.6</ele>
        <time>2022-10-28T11:44:50Z</time>
      </trkpt>
      <trkpt lat="44.43424" lon="3.67078">
        <ele>1560.8</ele>
        <time>2022-10-28T11:44:51Z</time>
      </trkpt>
      <trkpt lat="44.43425" lon="3.67083">
        <ele>1560.8</ele>
        <time>2022-10-28T11:44:52Z</time>
      </trkpt>
      <trkpt lat="44.43425" lon="3.67088">
        <ele>1561</ele>
        <time>2022-10-28T11:44:53Z</time>
      </trkpt>
      <trkpt lat="44.43426" lon="3.67092">
        <ele>1561</ele>
        <time>2022-10-28T11:44:54Z</time>
      </trkpt>
      <trkpt lat="44.43426" lon="3.67097">
        <ele>1561.2</ele>
        <time>2022-10-28T11:44:55Z</time>
      </trkpt>
      <trkpt lat="44.43427" lon="3.67102">
        <ele>1561.2</ele>
        <time>2022-10-28T11:44:56Z</time>
      </trkpt>
      <trkpt lat="44.43427" lon="3.67107">
        <ele>1561.4</ele>
        <time>2022-10-28T11:44:57Z</time>
      </trkpt>
      <trkpt lat="44.43428" lon="3.67112">
        <ele>1561.4</ele>
        <time>2022-10-28T11:44:58Z</time>
      </trkpt>
      <trkpt lat="44.43429" lon="3.67117">
        <ele>1561.6</ele>
        <time>2022-10-28T11:44:59Z</time>
      </trkpt>
      <trkpt lat="44.43429" lon="3.67122">
        <ele>1561.6</ele>
        <time>2022-10-28T11:45:00Z</time>
      </trkpt>
      <trkpt lat="44.4343" lon="3.67128">
        <ele>1561.6</ele>
        <time>2022-10-28T11:45:01Z</time>
      </trkpt>
      <trkpt lat="44.4343" lon="3.67133">
        <ele>1561.8</ele>
        <time>2022-10-28T11:45:02Z</time>
      </trkpt>
      <trkpt lat="44.43431" lon="3.67138">
        <ele>1561.8</ele>
        <time>2022-10-28T11:45:03Z</time>
      </trkpt>
      <trkpt lat="44.43432" lon="3.67143">
        <ele>1562</ele>
        <time>2022-10-28T11:45:04Z</time>
      </trkpt>
      <trkpt lat="44.43433" lon="3.67148">
        <ele>1562</ele>
        <time>2022-10-28T11:45:05Z</time>
      </trkpt>
      <trkpt lat="44.43433" lon="3.67153">
        <ele>1562.2</ele>
        <time>2022-10-28T11:45:06Z</time>
      </trkpt>
      <trkpt lat="44.43434" lon="3.67158">
        <ele>1562.4</ele>
        <time>2022-10-28T11:45:07Z</time>
      </trkpt>
      <trkpt lat="44.43435" lon="3.67163">
        <ele>1562.4</ele>
        <time>2022-10-28T11:45:08Z</time>
      </trkpt>
      <trkpt lat="44.43436" lon="3.67168">
        <ele>1562.4</ele>
        <time>2022-10-28T11:45:09Z</time>
      </trkpt>
      <trkpt lat="44.43437" lon="3.67172">
        <ele>1562.6</ele>
        <time>2022-10-28T11:45:10Z</time>
      </trkpt>
      <trkpt lat="44.43439" lon="3.67177">
        <ele>1562.6</ele>
        <time>2022-10-28T11:45:11Z</time>
      </trkpt>
      <trkpt lat="44.4344" lon="3.67182">
        <ele>1562.6</ele>
        <time>2022-10-28T11:45:12Z</time>
      </trkpt>
      <trkpt lat="44.43441" lon="3.67186">
        <ele>1562.8</ele>
        <time>2022-10-28T11:45:13Z</time>
      </trkpt>
      <trkpt lat="44.43443" lon="3.6719">
        <ele>1562.8</ele>
        <time>2022-10-28T11:45:14Z</time>
      </trkpt>
      <trkpt lat="44.43445" lon="3.67194">
        <ele>1563</ele>
        <time>2022-10-28T11:45:15Z</time>
      </trkpt>
      <trkpt lat="44.43447" lon="3.67198">
        <ele>1563</ele>
        <time>2022-10-28T11:45:16Z</time>
      </trkpt>
      <trkpt lat="44.43449" lon="3.67202">
        <ele>1563</ele>
        <time>2022-10-28T11:45:17Z</time>
      </trkpt>
      <trkpt lat="44.43452" lon="3.67206">
        <ele>1563</ele>
        <time>2022-10-28T11:45:18Z</time>
      </trkpt>
      <trkpt lat="44.43454" lon="3.6721">
        <ele>1563.2</ele>
        <time>2022-10-28T11:45:19Z</time>
      </trkpt>
      <trkpt lat="44.43457" lon="3.67213">
        <ele>1563.2</ele>
        <time>2022-10-28T11:45:20Z</time>
      </trkpt>
      <trkpt lat="44.4346" lon="3.67216">
        <ele>1563.2</ele>
        <time>2022-10-28T11:45:21Z</time>
      </trkpt>
      <trkpt lat="44.43462" lon="3.67219">
        <ele>1563.2</ele>
        <time>2022-10-28T11:45:22Z</time>
      </trkpt>
      <trkpt lat="44.43464" lon="3.67223">
        <ele>1563.2</ele>
        <time>2022-10-28T11:45:23Z</time>
      </trkpt>
      <trkpt lat="44.43467" lon="3.67226">
        <ele>1563.4</ele>
        <time>2022-10-28T11:45:24Z</time>
      </trkpt>
      <trkpt lat="44.4347" lon="3.67229">
        <ele>1563.4</ele>
        <time>2022-10-28T11:45:25Z</time>
      </trkpt>
      <trkpt lat="44.43472" lon="3.67232">
        <ele>1563.4</ele>
        <time>2022-10-28T11:45:26Z</time>
      </trkpt>
      <trkpt lat="44.43475" lon="3.67236">
        <ele>1563.6</ele>
        <time>2022-10-28T11:45:27Z</time>
      </trkpt>
      <trkpt lat="44.43478" lon="3.67239">
        <ele>1563.6</ele>
        <time>2022-10-28T11:45:28Z</time>
      </trkpt>
      <trkpt lat="44.43481" lon="3.67242">
        <ele>1563.6</ele>
        <time>2022-10-28T11:45:29Z</time>
      </trkpt>
      <trkpt lat="44.43484" lon="3.67245">
        <ele>1563.6</ele>
        <time>2022-10-28T11:45:30Z</time>
      </trkpt>
      <trkpt lat="44.43487" lon="3.67249">
        <ele>1563.6</ele>
        <time>2022-10-28T11:45:31Z</time>
      </trkpt>
      <trkpt lat="44.4349" lon="3.67252">
        <ele>1563.8</ele>
        <time>2022-10-28T11:45:32Z</time>
      </trkpt>
      <trkpt lat="44.43493" lon="3.67255">
        <ele>1563.8</ele>
        <time>2022-10-28T11:45:33Z</time>
      </trkpt>
      <trkpt lat="44.43496" lon="3.67258">
        <ele>1563.8</ele>
        <time>2022-10-28T11:45:34Z</time>
      </trkpt>
      <trkpt lat="44.43499" lon="3.67262">
        <ele>1564</ele>
        <time>2022-10-28T11:45:35Z</time>
      </trkpt>
      <trkpt lat="44.43502" lon="3.67265">
        <ele>1564</ele>
        <time>2022-10-28T11:45:36Z</time>
      </trkpt>
      <trkpt lat="44.43505" lon="3.67268">
        <ele>1564</ele>
        <time>2022-10-28T11:45:37Z</time>
      </trkpt>
      <trkpt lat="44.43508" lon="3.67271">
        <ele>1564</ele>
        <time>2022-10-28T11:45:38Z</time>
      </trkpt>
      <trkpt lat="44.43511" lon="3.67274">
        <ele>1564.2</ele>
        <time>2022-10-28T11:45:39Z</time>
      </trkpt>
      <trkpt lat="44.43514" lon="3.67277">
        <ele>1564.2</ele>
        <time>2022-10-28T11:45:40Z</time>
      </trkpt>
      <trkpt lat="44.43517" lon="3.6728">
        <ele>1564.2</ele>
        <time>2022-10-28T11:45:41Z</time>
      </trkpt>
      <trkpt lat="44.4352" lon="3.67284">
        <ele>1564.4</ele>
        <time>2022-10-28T11:45:42Z</time>
      </trkpt>
      <trkpt lat="44.43523" lon="3.67287">
        <ele>1564.4</ele>
        <time>2022-10-28T11:45:43Z</time>
      </trkpt>
      <trkpt lat="44.43526" lon="3.6729">
        <ele>1564.4</ele>
        <time>2022-10-28T11:45:44Z</time>
      </trkpt>
      <trkpt lat="44.43529" lon="3.67294">
        <ele>1564.6</ele>
        <time>2022-10-28T11:45:45Z</time>
      </trkpt>
      <trkpt lat="44.43532" lon="3.67297">
        <ele>1564.6</ele>
        <time>2022-10-28T11:45:46Z</time>
      </trkpt>
      <trkpt lat="44.43536" lon="3.67301">
        <ele>1564.6</ele>
        <time>2022-10-28T11:45:47Z</time>
      </trkpt>
      <trkpt lat="44.43538" lon="3.67304">
        <ele>1564.8</ele>
        <time>2022-10-28T11:45:48Z</time>
      </trkpt>
      <trkpt lat="44.43542" lon="3.67308">
        <ele>1565</ele>
        <time>2022-10-28T11:45:49Z</time>
      </trkpt>
      <trkpt lat="44.43545" lon="3.67311">
        <ele>1565</ele>
        <time>2022-10-28T11:45:50Z</time>
      </trkpt>
      <trkpt lat="44.43549" lon="3.67314">
        <ele>1565</ele>
        <time>2022-10-28T11:45:51Z</time>
      </trkpt>
      <trkpt lat="44.43552" lon="3.67318">
        <ele>1565</ele>
        <time>2022-10-28T11:45:52Z</time>
      </trkpt>
      <trkpt lat="44.43556" lon="3.67321">
        <ele>1565</ele>
        <time>2022-10-28T11:45:53Z</time>
      </trkpt>
      <trkpt lat="44.43559" lon="3.67324">
        <ele>1565</ele>
        <time>2022-10-28T11:45:54Z</time>
      </trkpt>
      <trkpt lat="44.43562" lon="3.67327">
        <ele>1565</ele>
        <time>2022-10-28T11:45:55Z</time>
      </trkpt>
      <trkpt lat="44.43566" lon="3.6733">
        <ele>1565</ele>
        <time>2022-10-28T11:45:56Z</time>
      </trkpt>
      <trkpt lat="44.43569" lon="3.67334">
        <ele>1565</ele>
        <time>2022-10-28T11:45:57Z</time>
      </trkpt>
      <trkpt lat="44.43573" lon="3.67337">
        <ele>1565</ele>
        <time>2022-10-28T11:45:58Z</time>
      </trkpt>
      <trkpt lat="44.43576" lon="3.67341">
        <ele>1565</ele>
        <time>2022-10-28T11:45:59Z</time>
      </trkpt>
      <trkpt lat="44.43579" lon="3.67345">
        <ele>1565</ele>
        <time>2022-10-28T11:46:00Z</time>
      </trkpt>
      <trkpt lat="44.43582" lon="3.67349">
        <ele>1565</ele>
        <time>2022-10-28T11:46:01Z</time>
      </trkpt>
      <trkpt lat="44.43585" lon="3.67353">
        <ele>1565</ele>
        <time>2022-10-28T11:46:02Z</time>
      </trkpt>
      <trkpt lat="44.43588" lon="3.67357">
        <ele>1565</ele>
        <time>2022-10-28T11:46:03Z</time>
      </trkpt>
      <trkpt lat="44.43591" lon="3.67362">
        <ele>1565</ele>
        <time>2022-10-28T11:46:04Z</time>
      </trkpt>
      <trkpt lat="44.43594" lon="3.67367">
        <ele>1565</ele>
        <time>2022-10-28T11:46:05Z</time>
      </trkpt>
      <trkpt lat="44.43596" lon="3.67371">
        <ele>1565</ele>
        <time>2022-10-28T11:46:06Z</time>
      </trkpt>
      <trkpt lat="44.43599" lon="3.67376">
        <ele>1565</ele>
        <time>2022-10-28T11:46:07Z</time>
      </trkpt>
      <trkpt lat="44.43602" lon="3.67381">
        <ele>1565</ele>
        <time>2022-10-28T11:46:08Z</time>
      </trkpt>
      <trkpt lat="44.43604" lon="3.67386">
        <ele>1564.8</ele>
        <time>2022-10-28T11:46:09Z</time>
      </trkpt>
      <trkpt lat="44.43606" lon="3.67391">
        <ele>1564.8</ele>
        <time>2022-10-28T11:46:10Z</time>
      </trkpt>
      <trkpt lat="44.43608" lon="3.67397">
        <ele>1564.8</ele>
        <time>2022-10-28T11:46:11Z</time>
      </trkpt>
      <trkpt lat="44.4361" lon="3.67403">
        <ele>1564.8</ele>
        <time>2022-10-28T11:46:12Z</time>
      </trkpt>
      <trkpt lat="44.43611" lon="3.67408">
        <ele>1565</ele>
        <time>2022-10-28T11:46:13Z</time>
      </trkpt>
      <trkpt lat="44.43613" lon="3.67414">
        <ele>1565</ele>
        <time>2022-10-28T11:46:14Z</time>
      </trkpt>
      <trkpt lat="44.43614" lon="3.6742">
        <ele>1565</ele>
        <time>2022-10-28T11:46:15Z</time>
      </trkpt>
      <trkpt lat="44.43615" lon="3.67426">
        <ele>1565</ele>
        <time>2022-10-28T11:46:16Z</time>
      </trkpt>
      <trkpt lat="44.43616" lon="3.67432">
        <ele>1565</ele>
        <time>2022-10-28T11:46:17Z</time>
      </trkpt>
      <trkpt lat="44.43616" lon="3.67438">
        <ele>1565</ele>
        <time>2022-10-28T11:46:18Z</time>
      </trkpt>
      <trkpt lat="44.43616" lon="3.67443">
        <ele>1565</ele>
        <time>2022-10-28T11:46:19Z</time>
      </trkpt>
      <trkpt lat="44.43617" lon="3.67449">
        <ele>1565</ele>
        <time>2022-10-28T11:46:20Z</time>
      </trkpt>
      <trkpt lat="44.43617" lon="3.67454">
        <ele>1565</ele>
        <time>2022-10-28T11:46:21Z</time>
      </trkpt>
      <trkpt lat="44.43618" lon="3.6746">
        <ele>1565</ele>
        <time>2022-10-28T11:46:22Z</time>
      </trkpt>
      <trkpt lat="44.43618" lon="3.67466">
        <ele>1565</ele>
        <time>2022-10-28T11:46:23Z</time>
      </trkpt>
      <trkpt lat="44.43618" lon="3.67472">
        <ele>1565</ele>
        <time>2022-10-28T11:46:24Z</time>
      </trkpt>
      <trkpt lat="44.43618" lon="3.67479">
        <ele>1565</ele>
        <time>2022-10-28T11:46:25Z</time>
      </trkpt>
      <trkpt lat="44.43618" lon="3.67485">
        <ele>1565</ele>
        <time>2022-10-28T11:46:26Z</time>
      </trkpt>
      <trkpt lat="44.43618" lon="3.67491">
        <ele>1565</ele>
        <time>2022-10-28T11:46:27Z</time>
      </trkpt>
      <trkpt lat="44.43618" lon="3.67497">
        <ele>1565.2</ele>
        <time>2022-10-28T11:46:28Z</time>
      </trkpt>
      <trkpt lat="44.43618" lon="3.67503">
        <ele>1565.2</ele>
        <time>2022-10-28T11:46:29Z</time>
      </trkpt>
      <trkpt lat="44.43618" lon="3.67509">
        <ele>1565</ele>
        <time>2022-10-28T11:46:30Z</time>
      </trkpt>
      <trkpt lat="44.43618" lon="3.67515">
        <ele>1565.2</ele>
        <time>2022-10-28T11:46:31Z</time>
      </trkpt>
      <trkpt lat="44.43619" lon="3.67521">
        <ele>1565.2</ele>
        <time>2022-10-28T11:46:32Z</time>
      </trkpt>
      <trkpt lat="44.43619" lon="3.67527">
        <ele>1565.2</ele>
        <time>2022-10-28T11:46:33Z</time>
      </trkpt>
      <trkpt lat="44.43619" lon="3.67533">
        <ele>1565.2</ele>
        <time>2022-10-28T11:46:34Z</time>
      </trkpt>
      <trkpt lat="44.43618" lon="3.67539">
        <ele>1565.2</ele>
        <time>2022-10-28T11:46:35Z</time>
      </trkpt>
      <trkpt lat="44.43618" lon="3.67545">
        <ele>1565.2</ele>
        <time>2022-10-28T11:46:36Z</time>
      </trkpt>
      <trkpt lat="44.43618" lon="3.67552">
        <ele>1565.2</ele>
        <time>2022-10-28T11:46:37Z</time>
      </trkpt>
      <trkpt lat="44.43619" lon="3.67558">
        <ele>1565.2</ele>
        <time>2022-10-28T11:46:38Z</time>
      </trkpt>
      <trkpt lat="44.43619" lon="3.67564">
        <ele>1565.2</ele>
        <time>2022-10-28T11:46:39Z</time>
      </trkpt>
      <trkpt lat="44.43619" lon="3.6757">
        <ele>1565.2</ele>
        <time>2022-10-28T11:46:40Z</time>
      </trkpt>
      <trkpt lat="44.43619" lon="3.67576">
        <ele>1565.2</ele>
        <time>2022-10-28T11:46:41Z</time>
      </trkpt>
      <trkpt lat="44.43619" lon="3.67583">
        <ele>1565.2</ele>
        <time>2022-10-28T11:46:42Z</time>
      </trkpt>
      <trkpt lat="44.43619" lon="3.6759">
        <ele>1565.2</ele>
        <time>2022-10-28T11:46:43Z</time>
      </trkpt>
      <trkpt lat="44.4362" lon="3.67596">
        <ele>1565.2</ele>
        <time>2022-10-28T11:46:44Z</time>
      </trkpt>
      <trkpt lat="44.4362" lon="3.67602">
        <ele>1565</ele>
        <time>2022-10-28T11:46:45Z</time>
      </trkpt>
      <trkpt lat="44.43621" lon="3.67608">
        <ele>1564.8</ele>
        <time>2022-10-28T11:46:46Z</time>
      </trkpt>
      <trkpt lat="44.43621" lon="3.67613">
        <ele>1564.8</ele>
        <time>2022-10-28T11:46:47Z</time>
      </trkpt>
      <trkpt lat="44.43621" lon="3.67617">
        <ele>1564.8</ele>
        <time>2022-10-28T11:46:48Z</time>
      </trkpt>
      <trkpt lat="44.43621" lon="3.67621">
        <ele>1564.8</ele>
        <time>2022-10-28T11:46:49Z</time>
      </trkpt>
      <trkpt lat="44.43621" lon="3.67625">
        <ele>1564.8</ele>
        <time>2022-10-28T11:46:50Z</time>
      </trkpt>
      <trkpt lat="44.43621" lon="3.67631">
        <ele>1564.8</ele>
        <time>2022-10-28T11:46:51Z</time>
      </trkpt>
      <trkpt lat="44.43621" lon="3.67636">
        <ele>1564.8</ele>
        <time>2022-10-28T11:46:52Z</time>
      </trkpt>
      <trkpt lat="44.43621" lon="3.67642">
        <ele>1564.8</ele>
        <time>2022-10-28T11:46:53Z</time>
      </trkpt>
      <trkpt lat="44.4362" lon="3.67648">
        <ele>1564.8</ele>
        <time>2022-10-28T11:46:54Z</time>
      </trkpt>
      <trkpt lat="44.43621" lon="3.67654">
        <ele>1564.6</ele>
        <time>2022-10-28T11:46:55Z</time>
      </trkpt>
      <trkpt lat="44.43621" lon="3.6766">
        <ele>1564.6</ele>
        <time>2022-10-28T11:46:56Z</time>
      </trkpt>
      <trkpt lat="44.43621" lon="3.67666">
        <ele>1564.6</ele>
        <time>2022-10-28T11:46:57Z</time>
      </trkpt>
      <trkpt lat="44.43621" lon="3.67672">
        <ele>1564.6</ele>
        <time>2022-10-28T11:46:58Z</time>
      </trkpt>
      <trkpt lat="44.43621" lon="3.67677">
        <ele>1564.6</ele>
        <time>2022-10-28T11:46:59Z</time>
      </trkpt>
      <trkpt lat="44.43621" lon="3.67682">
        <ele>1564.6</ele>
        <time>2022-10-28T11:47:00Z</time>
      </trkpt>
      <trkpt lat="44.43621" lon="3.67688">
        <ele>1564.6</ele>
        <time>2022-10-28T11:47:01Z</time>
      </trkpt>
      <trkpt lat="44.43621" lon="3.67693">
        <ele>1564.8</ele>
        <time>2022-10-28T11:47:02Z</time>
      </trkpt>
      <trkpt lat="44.43622" lon="3.67699">
        <ele>1564.8</ele>
        <time>2022-10-28T11:47:03Z</time>
      </trkpt>
      <trkpt lat="44.43622" lon="3.67704">
        <ele>1565</ele>
        <time>2022-10-28T11:47:04Z</time>
      </trkpt>
      <trkpt lat="44.43622" lon="3.6771">
        <ele>1565</ele>
        <time>2022-10-28T11:47:05Z</time>
      </trkpt>
      <trkpt lat="44.43622" lon="3.67716">
        <ele>1565</ele>
        <time>2022-10-28T11:47:06Z</time>
      </trkpt>
      <trkpt lat="44.43622" lon="3.67722">
        <ele>1565</ele>
        <time>2022-10-28T11:47:07Z</time>
      </trkpt>
      <trkpt lat="44.43622" lon="3.67728">
        <ele>1565</ele>
        <time>2022-10-28T11:47:08Z</time>
      </trkpt>
      <trkpt lat="44.43621" lon="3.67735">
        <ele>1565</ele>
        <time>2022-10-28T11:47:09Z</time>
      </trkpt>
      <trkpt lat="44.43621" lon="3.67741">
        <ele>1565</ele>
        <time>2022-10-28T11:47:10Z</time>
      </trkpt>
      <trkpt lat="44.43621" lon="3.67747">
        <ele>1565</ele>
        <time>2022-10-28T11:47:11Z</time>
      </trkpt>
      <trkpt lat="44.43621" lon="3.67753">
        <ele>1565</ele>
        <time>2022-10-28T11:47:12Z</time>
      </trkpt>
      <trkpt lat="44.4362" lon="3.67759">
        <ele>1565</ele>
        <time>2022-10-28T11:47:13Z</time>
      </trkpt>
      <trkpt lat="44.4362" lon="3.67765">
        <ele>1565</ele>
        <time>2022-10-28T11:47:14Z</time>
      </trkpt>
      <trkpt lat="44.4362" lon="3.67771">
        <ele>1564.8</ele>
        <time>2022-10-28T11:47:15Z</time>
      </trkpt>
      <trkpt lat="44.4362" lon="3.67777">
        <ele>1565</ele>
        <time>2022-10-28T11:47:16Z</time>
      </trkpt>
      <trkpt lat="44.4362" lon="3.67782">
        <ele>1564.8</ele>
        <time>2022-10-28T11:47:17Z</time>
      </trkpt>
      <trkpt lat="44.43619" lon="3.67788">
        <ele>1565</ele>
        <time>2022-10-28T11:47:18Z</time>
      </trkpt>
      <trkpt lat="44.43619" lon="3.67794">
        <ele>1565</ele>
        <time>2022-10-28T11:47:19Z</time>
      </trkpt>
      <trkpt lat="44.43618" lon="3.67799">
        <ele>1564.8</ele>
        <time>2022-10-28T11:47:20Z</time>
      </trkpt>
      <trkpt lat="44.43617" lon="3.67805">
        <ele>1564.8</ele>
        <time>2022-10-28T11:47:21Z</time>
      </trkpt>
      <trkpt lat="44.43616" lon="3.6781">
        <ele>1564.8</ele>
        <time>2022-10-28T11:47:22Z</time>
      </trkpt>
      <trkpt lat="44.43615" lon="3.67816">
        <ele>1564.6</ele>
        <time>2022-10-28T11:47:23Z</time>
      </trkpt>
      <trkpt lat="44.43614" lon="3.67822">
        <ele>1564.6</ele>
        <time>2022-10-28T11:47:24Z</time>
      </trkpt>
      <trkpt lat="44.43613" lon="3.67828">
        <ele>1564.4</ele>
        <time>2022-10-28T11:47:25Z</time>
      </trkpt>
      <trkpt lat="44.43611" lon="3.67834">
        <ele>1564.4</ele>
        <time>2022-10-28T11:47:26Z</time>
      </trkpt>
      <trkpt lat="44.4361" lon="3.67839">
        <ele>1564.2</ele>
        <time>2022-10-28T11:47:27Z</time>
      </trkpt>
      <trkpt lat="44.43608" lon="3.67844">
        <ele>1564</ele>
        <time>2022-10-28T11:47:28Z</time>
      </trkpt>
      <trkpt lat="44.43606" lon="3.6785">
        <ele>1563.8</ele>
        <time>2022-10-28T11:47:29Z</time>
      </trkpt>
      <trkpt lat="44.43604" lon="3.67856">
        <ele>1563.6</ele>
        <time>2022-10-28T11:47:30Z</time>
      </trkpt>
      <trkpt lat="44.43602" lon="3.67862">
        <ele>1563.6</ele>
        <time>2022-10-28T11:47:31Z</time>
      </trkpt>
      <trkpt lat="44.436" lon="3.67868">
        <ele>1563.4</ele>
        <time>2022-10-28T11:47:32Z</time>
      </trkpt>
      <trkpt lat="44.43598" lon="3.67874">
        <ele>1563.2</ele>
        <time>2022-10-28T11:47:33Z</time>
      </trkpt>
      <trkpt lat="44.43596" lon="3.6788">
        <ele>1563.2</ele>
        <time>2022-10-28T11:47:34Z</time>
      </trkpt>
      <trkpt lat="44.43594" lon="3.67886">
        <ele>1563.2</ele>
        <time>2022-10-28T11:47:35Z</time>
      </trkpt>
      <trkpt lat="44.43591" lon="3.67892">
        <ele>1563</ele>
        <time>2022-10-28T11:47:36Z</time>
      </trkpt>
      <trkpt lat="44.43589" lon="3.67898">
        <ele>1562.8</ele>
        <time>2022-10-28T11:47:37Z</time>
      </trkpt>
      <trkpt lat="44.43587" lon="3.67905">
        <ele>1562.6</ele>
        <time>2022-10-28T11:47:38Z</time>
      </trkpt>
      <trkpt lat="44.43585" lon="3.67911">
        <ele>1562.6</ele>
        <time>2022-10-28T11:47:39Z</time>
      </trkpt>
      <trkpt lat="44.43582" lon="3.67918">
        <ele>1562.4</ele>
        <time>2022-10-28T11:47:40Z</time>
      </trkpt>
      <trkpt lat="44.43579" lon="3.67924">
        <ele>1562.4</ele>
        <time>2022-10-28T11:47:41Z</time>
      </trkpt>
      <trkpt lat="44.43577" lon="3.67931">
        <ele>1562.2</ele>
        <time>2022-10-28T11:47:42Z</time>
      </trkpt>
      <trkpt lat="44.43574" lon="3.67938">
        <ele>1562</ele>
        <time>2022-10-28T11:47:43Z</time>
      </trkpt>
      <trkpt lat="44.43572" lon="3.67944">
        <ele>1561.8</ele>
        <time>2022-10-28T11:47:44Z</time>
      </trkpt>
      <trkpt lat="44.4357" lon="3.67951">
        <ele>1561.8</ele>
        <time>2022-10-28T11:47:45Z</time>
      </trkpt>
      <trkpt lat="44.43567" lon="3.67957">
        <ele>1561.6</ele>
        <time>2022-10-28T11:47:46Z</time>
      </trkpt>
      <trkpt lat="44.43565" lon="3.67964">
        <ele>1561.4</ele>
        <time>2022-10-28T11:47:47Z</time>
      </trkpt>
      <trkpt lat="44.43562" lon="3.6797">
        <ele>1561</ele>
        <time>2022-10-28T11:47:48Z</time>
      </trkpt>
      <trkpt lat="44.4356" lon="3.67977">
        <ele>1561</ele>
        <time>2022-10-28T11:47:49Z</time>
      </trkpt>
      <trkpt lat="44.43557" lon="3.67983">
        <ele>1560.8</ele>
        <time>2022-10-28T11:47:50Z</time>
      </trkpt>
      <trkpt lat="44.43554" lon="3.6799">
        <ele>1560.6</ele>
        <time>2022-10-28T11:47:51Z</time>
      </trkpt>
      <trkpt lat="44.43551" lon="3.67996">
        <ele>1560.6</ele>
        <time>2022-10-28T11:47:52Z</time>
      </trkpt>
      <trkpt lat="44.43547" lon="3.68001">
        <ele>1560.4</ele>
        <time>2022-10-28T11:47:53Z</time>
      </trkpt>
      <trkpt lat="44.43543" lon="3.68007">
        <ele>1560.2</ele>
        <time>2022-10-28T11:47:54Z</time>
      </trkpt>
      <trkpt lat="44.4354" lon="3.68012">
        <ele>1560</ele>
        <time>2022-10-28T11:47:55Z</time>
      </trkpt>
      <trkpt lat="44.43536" lon="3.68018">
        <ele>1559.8</ele>
        <time>2022-10-28T11:47:56Z</time>
      </trkpt>
      <trkpt lat="44.43532" lon="3.68023">
        <ele>1559.6</ele>
        <time>2022-10-28T11:47:57Z</time>
      </trkpt>
      <trkpt lat="44.43528" lon="3.68028">
        <ele>1559.4</ele>
        <time>2022-10-28T11:47:58Z</time>
      </trkpt>
      <trkpt lat="44.43524" lon="3.68034">
        <ele>1559.2</ele>
        <time>2022-10-28T11:47:59Z</time>
      </trkpt>
      <trkpt lat="44.43521" lon="3.68039">
        <ele>1559</ele>
        <time>2022-10-28T11:48:00Z</time>
      </trkpt>
      <trkpt lat="44.43517" lon="3.68045">
        <ele>1559</ele>
        <time>2022-10-28T11:48:01Z</time>
      </trkpt>
      <trkpt lat="44.43514" lon="3.68052">
        <ele>1558.8</ele>
        <time>2022-10-28T11:48:02Z</time>
      </trkpt>
      <trkpt lat="44.43512" lon="3.68058">
        <ele>1558.6</ele>
        <time>2022-10-28T11:48:03Z</time>
      </trkpt>
      <trkpt lat="44.4351" lon="3.68063">
        <ele>1558.4</ele>
        <time>2022-10-28T11:48:04Z</time>
      </trkpt>
      <trkpt lat="44.43508" lon="3.68068">
        <ele>1558.4</ele>
        <time>2022-10-28T11:48:05Z</time>
      </trkpt>
      <trkpt lat="44.43507" lon="3.68073">
        <ele>1558.2</ele>
        <time>2022-10-28T11:48:06Z</time>
      </trkpt>
      <trkpt lat="44.43506" lon="3.68078">
        <ele>1558</ele>
        <time>2022-10-28T11:48:07Z</time>
      </trkpt>
      <trkpt lat="44.43505" lon="3.68083">
        <ele>1558</ele>
        <time>2022-10-28T11:48:08Z</time>
      </trkpt>
      <trkpt lat="44.43505" lon="3.68087">
        <ele>1557.8</ele>
        <time>2022-10-28T11:48:09Z</time>
      </trkpt>
      <trkpt lat="44.43505" lon="3.68091">
        <ele>1557.6</ele>
        <time>2022-10-28T11:48:10Z</time>
      </trkpt>
      <trkpt lat="44.43506" lon="3.68095">
        <ele>1557.6</ele>
        <time>2022-10-28T11:48:11Z</time>
      </trkpt>
      <trkpt lat="44.43506" lon="3.681">
        <ele>1557.4</ele>
        <time>2022-10-28T11:48:12Z</time>
      </trkpt>
      <trkpt lat="44.43507" lon="3.68104">
        <ele>1557.4</ele>
        <time>2022-10-28T11:48:13Z</time>
      </trkpt>
      <trkpt lat="44.43508" lon="3.68109">
        <ele>1557.4</ele>
        <time>2022-10-28T11:48:14Z</time>
      </trkpt>
      <trkpt lat="44.4351" lon="3.68114">
        <ele>1557.4</ele>
        <time>2022-10-28T11:48:15Z</time>
      </trkpt>
      <trkpt lat="44.43511" lon="3.68119">
        <ele>1557.4</ele>
        <time>2022-10-28T11:48:16Z</time>
      </trkpt>
      <trkpt lat="44.43513" lon="3.68123">
        <ele>1557.4</ele>
        <time>2022-10-28T11:48:17Z</time>
      </trkpt>
      <trkpt lat="44.43515" lon="3.68126">
        <ele>1557.4</ele>
        <time>2022-10-28T11:48:18Z</time>
      </trkpt>
      <trkpt lat="44.43517" lon="3.68128">
        <ele>1557.4</ele>
        <time>2022-10-28T11:48:19Z</time>
      </trkpt>
      <trkpt lat="44.43518" lon="3.68129">
        <ele>1557.6</ele>
        <time>2022-10-28T11:48:20Z</time>
      </trkpt>
      <trkpt lat="44.43519" lon="3.6813">
        <ele>1557.6</ele>
        <time>2022-10-28T11:48:21Z</time>
      </trkpt>
      <trkpt lat="44.43519" lon="3.6813">
        <ele>1557.6</ele>
        <time>2022-10-28T11:48:43Z</time>
      </trkpt>
      <trkpt lat="44.43519" lon="3.68131">
        <ele>1557.6</ele>
        <time>2022-10-28T11:48:44Z</time>
      </trkpt>
      <trkpt lat="44.4352" lon="3.68133">
        <ele>1557.8</ele>
        <time>2022-10-28T11:48:45Z</time>
      </trkpt>
      <trkpt lat="44.43522" lon="3.68137">
        <ele>1557.8</ele>
        <time>2022-10-28T11:48:46Z</time>
      </trkpt>
      <trkpt lat="44.43525" lon="3.6814">
        <ele>1557.8</ele>
        <time>2022-10-28T11:48:47Z</time>
      </trkpt>
      <trkpt lat="44.43527" lon="3.68144">
        <ele>1557.8</ele>
        <time>2022-10-28T11:48:48Z</time>
      </trkpt>
      <trkpt lat="44.43529" lon="3.68148">
        <ele>1557.8</ele>
        <time>2022-10-28T11:48:49Z</time>
      </trkpt>
      <trkpt lat="44.43531" lon="3.68152">
        <ele>1557.8</ele>
        <time>2022-10-28T11:48:50Z</time>
      </trkpt>
      <trkpt lat="44.43533" lon="3.68156">
        <ele>1557.8</ele>
        <time>2022-10-28T11:48:51Z</time>
      </trkpt>
      <trkpt lat="44.43536" lon="3.6816">
        <ele>1557.8</ele>
        <time>2022-10-28T11:48:52Z</time>
      </trkpt>
      <trkpt lat="44.43539" lon="3.68164">
        <ele>1558</ele>
        <time>2022-10-28T11:48:53Z</time>
      </trkpt>
      <trkpt lat="44.43542" lon="3.68168">
        <ele>1558</ele>
        <time>2022-10-28T11:48:54Z</time>
      </trkpt>
      <trkpt lat="44.43545" lon="3.68172">
        <ele>1558</ele>
        <time>2022-10-28T11:48:55Z</time>
      </trkpt>
      <trkpt lat="44.43548" lon="3.68176">
        <ele>1558</ele>
        <time>2022-10-28T11:48:56Z</time>
      </trkpt>
      <trkpt lat="44.4355" lon="3.68181">
        <ele>1558.2</ele>
        <time>2022-10-28T11:48:57Z</time>
      </trkpt>
      <trkpt lat="44.43553" lon="3.68186">
        <ele>1558</ele>
        <time>2022-10-28T11:48:58Z</time>
      </trkpt>
      <trkpt lat="44.43557" lon="3.6819">
        <ele>1558</ele>
        <time>2022-10-28T11:48:59Z</time>
      </trkpt>
      <trkpt lat="44.43559" lon="3.68194">
        <ele>1558</ele>
        <time>2022-10-28T11:49:00Z</time>
      </trkpt>
      <trkpt lat="44.43563" lon="3.68199">
        <ele>1558</ele>
        <time>2022-10-28T11:49:01Z</time>
      </trkpt>
      <trkpt lat="44.43566" lon="3.68203">
        <ele>1557.8</ele>
        <time>2022-10-28T11:49:02Z</time>
      </trkpt>
      <trkpt lat="44.43569" lon="3.68206">
        <ele>1557.8</ele>
        <time>2022-10-28T11:49:03Z</time>
      </trkpt>
      <trkpt lat="44.43573" lon="3.68209">
        <ele>1557.8</ele>
        <time>2022-10-28T11:49:04Z</time>
      </trkpt>
      <trkpt lat="44.43576" lon="3.68213">
        <ele>1557.8</ele>
        <time>2022-10-28T11:49:05Z</time>
      </trkpt>
      <trkpt lat="44.43579" lon="3.68218">
        <ele>1557.8</ele>
        <time>2022-10-28T11:49:06Z</time>
      </trkpt>
      <trkpt lat="44.43582" lon="3.68222">
        <ele>1557.8</ele>
        <time>2022-10-28T11:49:07Z</time>
      </trkpt>
      <trkpt lat="44.43585" lon="3.68226">
        <ele>1557.8</ele>
        <time>2022-10-28T11:49:08Z</time>
      </trkpt>
      <trkpt lat="44.43589" lon="3.6823">
        <ele>1557.8</ele>
        <time>2022-10-28T11:49:09Z</time>
      </trkpt>
      <trkpt lat="44.43592" lon="3.68235">
        <ele>1557.8</ele>
        <time>2022-10-28T11:49:10Z</time>
      </trkpt>
      <trkpt lat="44.43596" lon="3.6824">
        <ele>1557.8</ele>
        <time>2022-10-28T11:49:11Z</time>
      </trkpt>
      <trkpt lat="44.43599" lon="3.68246">
        <ele>1557.8</ele>
        <time>2022-10-28T11:49:12Z</time>
      </trkpt>
      <trkpt lat="44.43603" lon="3.68251">
        <ele>1557.8</ele>
        <time>2022-10-28T11:49:13Z</time>
      </trkpt>
      <trkpt lat="44.43605" lon="3.68257">
        <ele>1557.6</ele>
        <time>2022-10-28T11:49:14Z</time>
      </trkpt>
      <trkpt lat="44.43608" lon="3.68263">
        <ele>1557.6</ele>
        <time>2022-10-28T11:49:15Z</time>
      </trkpt>
      <trkpt lat="44.4361" lon="3.6827">
        <ele>1557.6</ele>
        <time>2022-10-28T11:49:16Z</time>
      </trkpt>
      <trkpt lat="44.43612" lon="3.68276">
        <ele>1557.4</ele>
        <time>2022-10-28T11:49:17Z</time>
      </trkpt>
      <trkpt lat="44.43613" lon="3.68283">
        <ele>1557.4</ele>
        <time>2022-10-28T11:49:18Z</time>
      </trkpt>
      <trkpt lat="44.43614" lon="3.68291">
        <ele>1557.2</ele>
        <time>2022-10-28T11:49:19Z</time>
      </trkpt>
      <trkpt lat="44.43615" lon="3.68298">
        <ele>1557.2</ele>
        <time>2022-10-28T11:49:20Z</time>
      </trkpt>
      <trkpt lat="44.43617" lon="3.68305">
        <ele>1557.2</ele>
        <time>2022-10-28T11:49:21Z</time>
      </trkpt>
      <trkpt lat="44.43618" lon="3.68312">
        <ele>1557</ele>
        <time>2022-10-28T11:49:22Z</time>
      </trkpt>
      <trkpt lat="44.43619" lon="3.6832">
        <ele>1556.8</ele>
        <time>2022-10-28T11:49:23Z</time>
      </trkpt>
      <trkpt lat="44.43621" lon="3.68327">
        <ele>1556.6</ele>
        <time>2022-10-28T11:49:24Z</time>
      </trkpt>
      <trkpt lat="44.43622" lon="3.68334">
        <ele>1556.6</ele>
        <time>2022-10-28T11:49:25Z</time>
      </trkpt>
      <trkpt lat="44.43623" lon="3.68342">
        <ele>1556.4</ele>
        <time>2022-10-28T11:49:26Z</time>
      </trkpt>
      <trkpt lat="44.43625" lon="3.68349">
        <ele>1556.2</ele>
        <time>2022-10-28T11:49:27Z</time>
      </trkpt>
      <trkpt lat="44.43627" lon="3.68356">
        <ele>1556</ele>
        <time>2022-10-28T11:49:28Z</time>
      </trkpt>
      <trkpt lat="44.4363" lon="3.68362">
        <ele>1556</ele>
        <time>2022-10-28T11:49:29Z</time>
      </trkpt>
      <trkpt lat="44.43632" lon="3.68369">
        <ele>1555.8</ele>
        <time>2022-10-28T11:49:30Z</time>
      </trkpt>
      <trkpt lat="44.43634" lon="3.68376">
        <ele>1555.6</ele>
        <time>2022-10-28T11:49:31Z</time>
      </trkpt>
      <trkpt lat="44.43636" lon="3.68384">
        <ele>1555.4</ele>
        <time>2022-10-28T11:49:32Z</time>
      </trkpt>
      <trkpt lat="44.43637" lon="3.68391">
        <ele>1555.2</ele>
        <time>2022-10-28T11:49:33Z</time>
      </trkpt>
      <trkpt lat="44.43639" lon="3.68398">
        <ele>1555.2</ele>
        <time>2022-10-28T11:49:34Z</time>
      </trkpt>
      <trkpt lat="44.4364" lon="3.68406">
        <ele>1555</ele>
        <time>2022-10-28T11:49:35Z</time>
      </trkpt>
      <trkpt lat="44.43641" lon="3.68413">
        <ele>1555</ele>
        <time>2022-10-28T11:49:36Z</time>
      </trkpt>
      <trkpt lat="44.43641" lon="3.68421">
        <ele>1555</ele>
        <time>2022-10-28T11:49:37Z</time>
      </trkpt>
      <trkpt lat="44.43642" lon="3.68428">
        <ele>1554.8</ele>
        <time>2022-10-28T11:49:38Z</time>
      </trkpt>
      <trkpt lat="44.43642" lon="3.68435">
        <ele>1554.8</ele>
        <time>2022-10-28T11:49:39Z</time>
      </trkpt>
      <trkpt lat="44.43641" lon="3.68443">
        <ele>1554.6</ele>
        <time>2022-10-28T11:49:40Z</time>
      </trkpt>
      <trkpt lat="44.4364" lon="3.6845">
        <ele>1554.6</ele>
        <time>2022-10-28T11:49:41Z</time>
      </trkpt>
      <trkpt lat="44.43639" lon="3.68456">
        <ele>1554.2</ele>
        <time>2022-10-28T11:49:42Z</time>
      </trkpt>
      <trkpt lat="44.43639" lon="3.68463">
        <ele>1554</ele>
        <time>2022-10-28T11:49:43Z</time>
      </trkpt>
      <trkpt lat="44.43638" lon="3.6847">
        <ele>1554</ele>
        <time>2022-10-28T11:49:44Z</time>
      </trkpt>
      <trkpt lat="44.43636" lon="3.68477">
        <ele>1553.8</ele>
        <time>2022-10-28T11:49:45Z</time>
      </trkpt>
      <trkpt lat="44.43635" lon="3.68485">
        <ele>1553.8</ele>
        <time>2022-10-28T11:49:46Z</time>
      </trkpt>
      <trkpt lat="44.43634" lon="3.68492">
        <ele>1553.8</ele>
        <time>2022-10-28T11:49:47Z</time>
      </trkpt>
      <trkpt lat="44.43633" lon="3.68499">
        <ele>1553.6</ele>
        <time>2022-10-28T11:49:48Z</time>
      </trkpt>
      <trkpt lat="44.43632" lon="3.68507">
        <ele>1553.4</ele>
        <time>2022-10-28T11:49:49Z</time>
      </trkpt>
      <trkpt lat="44.43631" lon="3.68514">
        <ele>1553.4</ele>
        <time>2022-10-28T11:49:50Z</time>
      </trkpt>
      <trkpt lat="44.43631" lon="3.68522">
        <ele>1553.2</ele>
        <time>2022-10-28T11:49:51Z</time>
      </trkpt>
      <trkpt lat="44.43631" lon="3.6853">
        <ele>1553.2</ele>
        <time>2022-10-28T11:49:52Z</time>
      </trkpt>
      <trkpt lat="44.4363" lon="3.68537">
        <ele>1553</ele>
        <time>2022-10-28T11:49:53Z</time>
      </trkpt>
      <trkpt lat="44.4363" lon="3.68545">
        <ele>1553</ele>
        <time>2022-10-28T11:49:54Z</time>
      </trkpt>
      <trkpt lat="44.43629" lon="3.68552">
        <ele>1552.8</ele>
        <time>2022-10-28T11:49:55Z</time>
      </trkpt>
      <trkpt lat="44.43629" lon="3.6856">
        <ele>1552.8</ele>
        <time>2022-10-28T11:49:56Z</time>
      </trkpt>
      <trkpt lat="44.43629" lon="3.68567">
        <ele>1552.6</ele>
        <time>2022-10-28T11:49:57Z</time>
      </trkpt>
      <trkpt lat="44.43628" lon="3.68574">
        <ele>1552.4</ele>
        <time>2022-10-28T11:49:58Z</time>
      </trkpt>
      <trkpt lat="44.43628" lon="3.68581">
        <ele>1552.4</ele>
        <time>2022-10-28T11:49:59Z</time>
      </trkpt>
      <trkpt lat="44.43628" lon="3.68588">
        <ele>1552.2</ele>
        <time>2022-10-28T11:50:00Z</time>
      </trkpt>
      <trkpt lat="44.43627" lon="3.68596">
        <ele>1552.2</ele>
        <time>2022-10-28T11:50:01Z</time>
      </trkpt>
      <trkpt lat="44.43627" lon="3.68603">
        <ele>1552.2</ele>
        <time>2022-10-28T11:50:02Z</time>
      </trkpt>
      <trkpt lat="44.43626" lon="3.6861">
        <ele>1552.2</ele>
        <time>2022-10-28T11:50:03Z</time>
      </trkpt>
      <trkpt lat="44.43626" lon="3.68617">
        <ele>1552.2</ele>
        <time>2022-10-28T11:50:04Z</time>
      </trkpt>
      <trkpt lat="44.43626" lon="3.68625">
        <ele>1551.8</ele>
        <time>2022-10-28T11:50:05Z</time>
      </trkpt>
      <trkpt lat="44.43625" lon="3.68632">
        <ele>1551.8</ele>
        <time>2022-10-28T11:50:06Z</time>
      </trkpt>
      <trkpt lat="44.43625" lon="3.6864">
        <ele>1551.8</ele>
        <time>2022-10-28T11:50:07Z</time>
      </trkpt>
      <trkpt lat="44.43624" lon="3.68648">
        <ele>1551.6</ele>
        <time>2022-10-28T11:50:08Z</time>
      </trkpt>
      <trkpt lat="44.43624" lon="3.68655">
        <ele>1551.4</ele>
        <time>2022-10-28T11:50:09Z</time>
      </trkpt>
      <trkpt lat="44.43623" lon="3.68662">
        <ele>1551.2</ele>
        <time>2022-10-28T11:50:10Z</time>
      </trkpt>
      <trkpt lat="44.43622" lon="3.6867">
        <ele>1551</ele>
        <time>2022-10-28T11:50:11Z</time>
      </trkpt>
      <trkpt lat="44.43621" lon="3.68677">
        <ele>1551</ele>
        <time>2022-10-28T11:50:12Z</time>
      </trkpt>
      <trkpt lat="44.4362" lon="3.68684">
        <ele>1550.8</ele>
        <time>2022-10-28T11:50:13Z</time>
      </trkpt>
      <trkpt lat="44.43618" lon="3.68691">
        <ele>1550.4</ele>
        <time>2022-10-28T11:50:14Z</time>
      </trkpt>
      <trkpt lat="44.43616" lon="3.68698">
        <ele>1550.2</ele>
        <time>2022-10-28T11:50:15Z</time>
      </trkpt>
      <trkpt lat="44.43615" lon="3.68704">
        <ele>1550</ele>
        <time>2022-10-28T11:50:16Z</time>
      </trkpt>
      <trkpt lat="44.43614" lon="3.68711">
        <ele>1549.8</ele>
        <time>2022-10-28T11:50:17Z</time>
      </trkpt>
      <trkpt lat="44.43613" lon="3.68718">
        <ele>1549.6</ele>
        <time>2022-10-28T11:50:18Z</time>
      </trkpt>
      <trkpt lat="44.43614" lon="3.68725">
        <ele>1549.6</ele>
        <time>2022-10-28T11:50:19Z</time>
      </trkpt>
      <trkpt lat="44.43614" lon="3.68732">
        <ele>1549.4</ele>
        <time>2022-10-28T11:50:20Z</time>
      </trkpt>
      <trkpt lat="44.43615" lon="3.6874">
        <ele>1549.4</ele>
        <time>2022-10-28T11:50:21Z</time>
      </trkpt>
      <trkpt lat="44.43616" lon="3.68747">
        <ele>1549</ele>
        <time>2022-10-28T11:50:22Z</time>
      </trkpt>
      <trkpt lat="44.43618" lon="3.68754">
        <ele>1548.8</ele>
        <time>2022-10-28T11:50:23Z</time>
      </trkpt>
      <trkpt lat="44.43619" lon="3.68761">
        <ele>1548.6</ele>
        <time>2022-10-28T11:50:24Z</time>
      </trkpt>
      <trkpt lat="44.4362" lon="3.68769">
        <ele>1548.4</ele>
        <time>2022-10-28T11:50:25Z</time>
      </trkpt>
      <trkpt lat="44.43621" lon="3.68776">
        <ele>1548.2</ele>
        <time>2022-10-28T11:50:26Z</time>
      </trkpt>
      <trkpt lat="44.43622" lon="3.68783">
        <ele>1548.2</ele>
        <time>2022-10-28T11:50:27Z</time>
      </trkpt>
      <trkpt lat="44.43623" lon="3.68791">
        <ele>1548</ele>
        <time>2022-10-28T11:50:28Z</time>
      </trkpt>
      <trkpt lat="44.43622" lon="3.68798">
        <ele>1548</ele>
        <time>2022-10-28T11:50:29Z</time>
      </trkpt>
      <trkpt lat="44.43622" lon="3.68804">
        <ele>1548</ele>
        <time>2022-10-28T11:50:30Z</time>
      </trkpt>
      <trkpt lat="44.4362" lon="3.6881">
        <ele>1548</ele>
        <time>2022-10-28T11:50:31Z</time>
      </trkpt>
      <trkpt lat="44.43618" lon="3.68814">
        <ele>1548</ele>
        <time>2022-10-28T11:50:32Z</time>
      </trkpt>
      <trkpt lat="44.43617" lon="3.68817">
        <ele>1547.8</ele>
        <time>2022-10-28T11:50:33Z</time>
      </trkpt>
      <trkpt lat="44.43615" lon="3.6882">
        <ele>1547.8</ele>
        <time>2022-10-28T11:50:34Z</time>
      </trkpt>
      <trkpt lat="44.43613" lon="3.68823">
        <ele>1547.8</ele>
        <time>2022-10-28T11:50:35Z</time>
      </trkpt>
      <trkpt lat="44.43612" lon="3.68826">
        <ele>1547.8</ele>
        <time>2022-10-28T11:50:36Z</time>
      </trkpt>
      <trkpt lat="44.4361" lon="3.68829">
        <ele>1548</ele>
        <time>2022-10-28T11:50:37Z</time>
      </trkpt>
      <trkpt lat="44.43608" lon="3.68832">
        <ele>1548</ele>
        <time>2022-10-28T11:50:38Z</time>
      </trkpt>
      <trkpt lat="44.43607" lon="3.68835">
        <ele>1548</ele>
        <time>2022-10-28T11:50:39Z</time>
      </trkpt>
      <trkpt lat="44.43605" lon="3.68838">
        <ele>1548</ele>
        <time>2022-10-28T11:50:40Z</time>
      </trkpt>
      <trkpt lat="44.43603" lon="3.68841">
        <ele>1548</ele>
        <time>2022-10-28T11:50:41Z</time>
      </trkpt>
      <trkpt lat="44.43602" lon="3.68844">
        <ele>1548.2</ele>
        <time>2022-10-28T11:50:42Z</time>
      </trkpt>
      <trkpt lat="44.436" lon="3.68846">
        <ele>1548.4</ele>
        <time>2022-10-28T11:50:43Z</time>
      </trkpt>
      <trkpt lat="44.43599" lon="3.68849">
        <ele>1548.4</ele>
        <time>2022-10-28T11:50:44Z</time>
      </trkpt>
      <trkpt lat="44.43597" lon="3.68853">
        <ele>1548.6</ele>
        <time>2022-10-28T11:50:45Z</time>
      </trkpt>
      <trkpt lat="44.43596" lon="3.68856">
        <ele>1548.6</ele>
        <time>2022-10-28T11:50:46Z</time>
      </trkpt>
      <trkpt lat="44.43594" lon="3.68859">
        <ele>1548.8</ele>
        <time>2022-10-28T11:50:47Z</time>
      </trkpt>
      <trkpt lat="44.43593" lon="3.68862">
        <ele>1548.8</ele>
        <time>2022-10-28T11:50:48Z</time>
      </trkpt>
      <trkpt lat="44.43592" lon="3.68865">
        <ele>1549</ele>
        <time>2022-10-28T11:50:49Z</time>
      </trkpt>
      <trkpt lat="44.43591" lon="3.68868">
        <ele>1549.2</ele>
        <time>2022-10-28T11:50:50Z</time>
      </trkpt>
      <trkpt lat="44.4359" lon="3.6887">
        <ele>1549.2</ele>
        <time>2022-10-28T11:50:51Z</time>
      </trkpt>
      <trkpt lat="44.43589" lon="3.68873">
        <ele>1549.2</ele>
        <time>2022-10-28T11:50:52Z</time>
      </trkpt>
      <trkpt lat="44.43587" lon="3.68875">
        <ele>1549.2</ele>
        <time>2022-10-28T11:50:53Z</time>
      </trkpt>
      <trkpt lat="44.43587" lon="3.68878">
        <ele>1549.4</ele>
        <time>2022-10-28T11:50:54Z</time>
      </trkpt>
      <trkpt lat="44.43586" lon="3.68882">
        <ele>1549.4</ele>
        <time>2022-10-28T11:50:55Z</time>
      </trkpt>
      <trkpt lat="44.43584" lon="3.68884">
        <ele>1549.8</ele>
        <time>2022-10-28T11:50:56Z</time>
      </trkpt>
      <trkpt lat="44.43583" lon="3.68887">
        <ele>1549.8</ele>
        <time>2022-10-28T11:50:57Z</time>
      </trkpt>
      <trkpt lat="44.43582" lon="3.6889">
        <ele>1550</ele>
        <time>2022-10-28T11:50:58Z</time>
      </trkpt>
      <trkpt lat="44.43581" lon="3.68892">
        <ele>1550</ele>
        <time>2022-10-28T11:50:59Z</time>
      </trkpt>
      <trkpt lat="44.43579" lon="3.68894">
        <ele>1550</ele>
        <time>2022-10-28T11:51:00Z</time>
      </trkpt>
      <trkpt lat="44.43578" lon="3.68896">
        <ele>1550.2</ele>
        <time>2022-10-28T11:51:01Z</time>
      </trkpt>
      <trkpt lat="44.43577" lon="3.68899">
        <ele>1550.2</ele>
        <time>2022-10-28T11:51:02Z</time>
      </trkpt>
      <trkpt lat="44.43576" lon="3.68901">
        <ele>1550.4</ele>
        <time>2022-10-28T11:51:03Z</time>
      </trkpt>
      <trkpt lat="44.43574" lon="3.68904">
        <ele>1550.6</ele>
        <time>2022-10-28T11:51:04Z</time>
      </trkpt>
      <trkpt lat="44.43573" lon="3.68907">
        <ele>1550.6</ele>
        <time>2022-10-28T11:51:05Z</time>
      </trkpt>
      <trkpt lat="44.43572" lon="3.6891">
        <ele>1550.6</ele>
        <time>2022-10-28T11:51:06Z</time>
      </trkpt>
      <trkpt lat="44.43571" lon="3.68912">
        <ele>1550.8</ele>
        <time>2022-10-28T11:51:07Z</time>
      </trkpt>
      <trkpt lat="44.4357" lon="3.68915">
        <ele>1550.8</ele>
        <time>2022-10-28T11:51:08Z</time>
      </trkpt>
      <trkpt lat="44.43569" lon="3.68918">
        <ele>1551</ele>
        <time>2022-10-28T11:51:09Z</time>
      </trkpt>
      <trkpt lat="44.43569" lon="3.68921">
        <ele>1551</ele>
        <time>2022-10-28T11:51:10Z</time>
      </trkpt>
      <trkpt lat="44.43568" lon="3.68923">
        <ele>1551.2</ele>
        <time>2022-10-28T11:51:11Z</time>
      </trkpt>
      <trkpt lat="44.43567" lon="3.68926">
        <ele>1551.2</ele>
        <time>2022-10-28T11:51:12Z</time>
      </trkpt>
      <trkpt lat="44.43566" lon="3.68928">
        <ele>1551.4</ele>
        <time>2022-10-28T11:51:13Z</time>
      </trkpt>
      <trkpt lat="44.43566" lon="3.68931">
        <ele>1551.4</ele>
        <time>2022-10-28T11:51:14Z</time>
      </trkpt>
      <trkpt lat="44.43565" lon="3.68933">
        <ele>1551.6</ele>
        <time>2022-10-28T11:51:15Z</time>
      </trkpt>
      <trkpt lat="44.43564" lon="3.68935">
        <ele>1551.8</ele>
        <time>2022-10-28T11:51:16Z</time>
      </trkpt>
      <trkpt lat="44.43563" lon="3.68938">
        <ele>1551.8</ele>
        <time>2022-10-28T11:51:17Z</time>
      </trkpt>
      <trkpt lat="44.43562" lon="3.6894">
        <ele>1552</ele>
        <time>2022-10-28T11:51:18Z</time>
      </trkpt>
      <trkpt lat="44.43561" lon="3.68943">
        <ele>1552.2</ele>
        <time>2022-10-28T11:51:19Z</time>
      </trkpt>
      <trkpt lat="44.4356" lon="3.68945">
        <ele>1552.4</ele>
        <time>2022-10-28T11:51:20Z</time>
      </trkpt>
      <trkpt lat="44.43559" lon="3.68948">
        <ele>1552.6</ele>
        <time>2022-10-28T11:51:21Z</time>
      </trkpt>
      <trkpt lat="44.43558" lon="3.68951">
        <ele>1552.8</ele>
        <time>2022-10-28T11:51:22Z</time>
      </trkpt>
      <trkpt lat="44.43557" lon="3.68954">
        <ele>1552.8</ele>
        <time>2022-10-28T11:51:23Z</time>
      </trkpt>
      <trkpt lat="44.43556" lon="3.68956">
        <ele>1553</ele>
        <time>2022-10-28T11:51:24Z</time>
      </trkpt>
      <trkpt lat="44.43555" lon="3.68958">
        <ele>1553.2</ele>
        <time>2022-10-28T11:51:25Z</time>
      </trkpt>
      <trkpt lat="44.43554" lon="3.6896">
        <ele>1553.2</ele>
        <time>2022-10-28T11:51:26Z</time>
      </trkpt>
      <trkpt lat="44.43553" lon="3.68963">
        <ele>1553.2</ele>
        <time>2022-10-28T11:51:27Z</time>
      </trkpt>
      <trkpt lat="44.43552" lon="3.68965">
        <ele>1553.4</ele>
        <time>2022-10-28T11:51:28Z</time>
      </trkpt>
      <trkpt lat="44.4355" lon="3.68968">
        <ele>1553.4</ele>
        <time>2022-10-28T11:51:29Z</time>
      </trkpt>
      <trkpt lat="44.43549" lon="3.6897">
        <ele>1553.6</ele>
        <time>2022-10-28T11:51:30Z</time>
      </trkpt>
      <trkpt lat="44.43548" lon="3.68973">
        <ele>1553.6</ele>
        <time>2022-10-28T11:51:31Z</time>
      </trkpt>
      <trkpt lat="44.43548" lon="3.68976">
        <ele>1553.8</ele>
        <time>2022-10-28T11:51:32Z</time>
      </trkpt>
      <trkpt lat="44.43547" lon="3.68978">
        <ele>1553.8</ele>
        <time>2022-10-28T11:51:33Z</time>
      </trkpt>
      <trkpt lat="44.43546" lon="3.6898">
        <ele>1554</ele>
        <time>2022-10-28T11:51:34Z</time>
      </trkpt>
      <trkpt lat="44.43545" lon="3.68983">
        <ele>1554.2</ele>
        <time>2022-10-28T11:51:35Z</time>
      </trkpt>
      <trkpt lat="44.43544" lon="3.68985">
        <ele>1554.2</ele>
        <time>2022-10-28T11:51:36Z</time>
      </trkpt>
      <trkpt lat="44.43543" lon="3.68988">
        <ele>1554.4</ele>
        <time>2022-10-28T11:51:37Z</time>
      </trkpt>
      <trkpt lat="44.43542" lon="3.6899">
        <ele>1554.4</ele>
        <time>2022-10-28T11:51:38Z</time>
      </trkpt>
      <trkpt lat="44.4354" lon="3.68992">
        <ele>1554.4</ele>
        <time>2022-10-28T11:51:39Z</time>
      </trkpt>
      <trkpt lat="44.43539" lon="3.68994">
        <ele>1554.6</ele>
        <time>2022-10-28T11:51:40Z</time>
      </trkpt>
      <trkpt lat="44.43538" lon="3.68996">
        <ele>1554.8</ele>
        <time>2022-10-28T11:51:41Z</time>
      </trkpt>
      <trkpt lat="44.43537" lon="3.68998">
        <ele>1554.8</ele>
        <time>2022-10-28T11:51:42Z</time>
      </trkpt>
      <trkpt lat="44.43536" lon="3.69">
        <ele>1555</ele>
        <time>2022-10-28T11:51:43Z</time>
      </trkpt>
      <trkpt lat="44.43535" lon="3.69003">
        <ele>1555</ele>
        <time>2022-10-28T11:51:44Z</time>
      </trkpt>
      <trkpt lat="44.43534" lon="3.69005">
        <ele>1555</ele>
        <time>2022-10-28T11:51:45Z</time>
      </trkpt>
      <trkpt lat="44.43533" lon="3.69008">
        <ele>1555.2</ele>
        <time>2022-10-28T11:51:46Z</time>
      </trkpt>
      <trkpt lat="44.43532" lon="3.69011">
        <ele>1555.2</ele>
        <time>2022-10-28T11:51:47Z</time>
      </trkpt>
      <trkpt lat="44.43531" lon="3.69013">
        <ele>1555.4</ele>
        <time>2022-10-28T11:51:48Z</time>
      </trkpt>
      <trkpt lat="44.4353" lon="3.69016">
        <ele>1555.4</ele>
        <time>2022-10-28T11:51:49Z</time>
      </trkpt>
      <trkpt lat="44.43528" lon="3.69019">
        <ele>1555.4</ele>
        <time>2022-10-28T11:51:50Z</time>
      </trkpt>
      <trkpt lat="44.43527" lon="3.69022">
        <ele>1555.4</ele>
        <time>2022-10-28T11:51:51Z</time>
      </trkpt>
      <trkpt lat="44.43525" lon="3.69024">
        <ele>1555.4</ele>
        <time>2022-10-28T11:51:52Z</time>
      </trkpt>
      <trkpt lat="44.43524" lon="3.69027">
        <ele>1555.6</ele>
        <time>2022-10-28T11:51:53Z</time>
      </trkpt>
      <trkpt lat="44.43523" lon="3.6903">
        <ele>1555.6</ele>
        <time>2022-10-28T11:51:54Z</time>
      </trkpt>
      <trkpt lat="44.43522" lon="3.69032">
        <ele>1555.8</ele>
        <time>2022-10-28T11:51:55Z</time>
      </trkpt>
      <trkpt lat="44.4352" lon="3.69035">
        <ele>1556</ele>
        <time>2022-10-28T11:51:56Z</time>
      </trkpt>
      <trkpt lat="44.43519" lon="3.69038">
        <ele>1556</ele>
        <time>2022-10-28T11:51:57Z</time>
      </trkpt>
      <trkpt lat="44.43518" lon="3.69041">
        <ele>1556.2</ele>
        <time>2022-10-28T11:51:58Z</time>
      </trkpt>
      <trkpt lat="44.43517" lon="3.69044">
        <ele>1556.2</ele>
        <time>2022-10-28T11:51:59Z</time>
      </trkpt>
      <trkpt lat="44.43516" lon="3.69047">
        <ele>1556.2</ele>
        <time>2022-10-28T11:52:00Z</time>
      </trkpt>
      <trkpt lat="44.43515" lon="3.6905">
        <ele>1556.4</ele>
        <time>2022-10-28T11:52:01Z</time>
      </trkpt>
      <trkpt lat="44.43514" lon="3.69053">
        <ele>1556.6</ele>
        <time>2022-10-28T11:52:02Z</time>
      </trkpt>
      <trkpt lat="44.43513" lon="3.69055">
        <ele>1556.6</ele>
        <time>2022-10-28T11:52:03Z</time>
      </trkpt>
      <trkpt lat="44.43512" lon="3.69058">
        <ele>1556.6</ele>
        <time>2022-10-28T11:52:04Z</time>
      </trkpt>
      <trkpt lat="44.43511" lon="3.6906">
        <ele>1556.6</ele>
        <time>2022-10-28T11:52:05Z</time>
      </trkpt>
      <trkpt lat="44.43511" lon="3.69062">
        <ele>1556.6</ele>
        <time>2022-10-28T11:52:06Z</time>
      </trkpt>
      <trkpt lat="44.4351" lon="3.69064">
        <ele>1556.8</ele>
        <time>2022-10-28T11:52:07Z</time>
      </trkpt>
      <trkpt lat="44.43509" lon="3.69067">
        <ele>1556.8</ele>
        <time>2022-10-28T11:52:08Z</time>
      </trkpt>
      <trkpt lat="44.43508" lon="3.69069">
        <ele>1557</ele>
        <time>2022-10-28T11:52:09Z</time>
      </trkpt>
      <trkpt lat="44.43506" lon="3.69072">
        <ele>1557</ele>
        <time>2022-10-28T11:52:10Z</time>
      </trkpt>
      <trkpt lat="44.43505" lon="3.69075">
        <ele>1557.2</ele>
        <time>2022-10-28T11:52:11Z</time>
      </trkpt>
      <trkpt lat="44.43505" lon="3.69078">
        <ele>1557.4</ele>
        <time>2022-10-28T11:52:12Z</time>
      </trkpt>
      <trkpt lat="44.43504" lon="3.69081">
        <ele>1557.6</ele>
        <time>2022-10-28T11:52:13Z</time>
      </trkpt>
      <trkpt lat="44.43503" lon="3.69083">
        <ele>1557.6</ele>
        <time>2022-10-28T11:52:14Z</time>
      </trkpt>
      <trkpt lat="44.43502" lon="3.69085">
        <ele>1557.8</ele>
        <time>2022-10-28T11:52:15Z</time>
      </trkpt>
      <trkpt lat="44.43501" lon="3.69087">
        <ele>1558</ele>
        <time>2022-10-28T11:52:16Z</time>
      </trkpt>
      <trkpt lat="44.43499" lon="3.6909">
        <ele>1558.2</ele>
        <time>2022-10-28T11:52:17Z</time>
      </trkpt>
      <trkpt lat="44.43498" lon="3.69092">
        <ele>1558.2</ele>
        <time>2022-10-28T11:52:18Z</time>
      </trkpt>
      <trkpt lat="44.43496" lon="3.69094">
        <ele>1558.4</ele>
        <time>2022-10-28T11:52:19Z</time>
      </trkpt>
      <trkpt lat="44.43494" lon="3.69096">
        <ele>1558.4</ele>
        <time>2022-10-28T11:52:20Z</time>
      </trkpt>
      <trkpt lat="44.43493" lon="3.69099">
        <ele>1558.4</ele>
        <time>2022-10-28T11:52:21Z</time>
      </trkpt>
      <trkpt lat="44.43491" lon="3.69101">
        <ele>1558.6</ele>
        <time>2022-10-28T11:52:22Z</time>
      </trkpt>
      <trkpt lat="44.4349" lon="3.69104">
        <ele>1558.6</ele>
        <time>2022-10-28T11:52:23Z</time>
      </trkpt>
      <trkpt lat="44.43488" lon="3.69106">
        <ele>1558.8</ele>
        <time>2022-10-28T11:52:24Z</time>
      </trkpt>
      <trkpt lat="44.43487" lon="3.69109">
        <ele>1559</ele>
        <time>2022-10-28T11:52:25Z</time>
      </trkpt>
      <trkpt lat="44.43486" lon="3.69111">
        <ele>1559</ele>
        <time>2022-10-28T11:52:26Z</time>
      </trkpt>
      <trkpt lat="44.43485" lon="3.69114">
        <ele>1559.2</ele>
        <time>2022-10-28T11:52:27Z</time>
      </trkpt>
      <trkpt lat="44.43484" lon="3.69116">
        <ele>1559.4</ele>
        <time>2022-10-28T11:52:28Z</time>
      </trkpt>
      <trkpt lat="44.43483" lon="3.69119">
        <ele>1559.6</ele>
        <time>2022-10-28T11:52:29Z</time>
      </trkpt>
      <trkpt lat="44.43482" lon="3.69121">
        <ele>1559.6</ele>
        <time>2022-10-28T11:52:30Z</time>
      </trkpt>
      <trkpt lat="44.4348" lon="3.69124">
        <ele>1559.8</ele>
        <time>2022-10-28T11:52:31Z</time>
      </trkpt>
      <trkpt lat="44.43479" lon="3.69127">
        <ele>1560</ele>
        <time>2022-10-28T11:52:32Z</time>
      </trkpt>
      <trkpt lat="44.43478" lon="3.6913">
        <ele>1560</ele>
        <time>2022-10-28T11:52:33Z</time>
      </trkpt>
      <trkpt lat="44.43477" lon="3.69132">
        <ele>1560.2</ele>
        <time>2022-10-28T11:52:34Z</time>
      </trkpt>
      <trkpt lat="44.43476" lon="3.69135">
        <ele>1560.4</ele>
        <time>2022-10-28T11:52:35Z</time>
      </trkpt>
      <trkpt lat="44.43474" lon="3.69137">
        <ele>1560.4</ele>
        <time>2022-10-28T11:52:36Z</time>
      </trkpt>
      <trkpt lat="44.43474" lon="3.69139">
        <ele>1560.4</ele>
        <time>2022-10-28T11:52:37Z</time>
      </trkpt>
      <trkpt lat="44.43473" lon="3.69141">
        <ele>1560.6</ele>
        <time>2022-10-28T11:52:38Z</time>
      </trkpt>
      <trkpt lat="44.43472" lon="3.69143">
        <ele>1560.6</ele>
        <time>2022-10-28T11:52:39Z</time>
      </trkpt>
      <trkpt lat="44.4347" lon="3.69145">
        <ele>1560.8</ele>
        <time>2022-10-28T11:52:40Z</time>
      </trkpt>
      <trkpt lat="44.43469" lon="3.69148">
        <ele>1560.8</ele>
        <time>2022-10-28T11:52:41Z</time>
      </trkpt>
      <trkpt lat="44.43467" lon="3.6915">
        <ele>1561</ele>
        <time>2022-10-28T11:52:42Z</time>
      </trkpt>
      <trkpt lat="44.43466" lon="3.69152">
        <ele>1561.2</ele>
        <time>2022-10-28T11:52:43Z</time>
      </trkpt>
      <trkpt lat="44.43464" lon="3.69155">
        <ele>1561.2</ele>
        <time>2022-10-28T11:52:44Z</time>
      </trkpt>
      <trkpt lat="44.43463" lon="3.69157">
        <ele>1561.4</ele>
        <time>2022-10-28T11:52:45Z</time>
      </trkpt>
      <trkpt lat="44.43462" lon="3.6916">
        <ele>1561.4</ele>
        <time>2022-10-28T11:52:46Z</time>
      </trkpt>
      <trkpt lat="44.4346" lon="3.69162">
        <ele>1561.6</ele>
        <time>2022-10-28T11:52:47Z</time>
      </trkpt>
      <trkpt lat="44.43459" lon="3.69164">
        <ele>1561.6</ele>
        <time>2022-10-28T11:52:48Z</time>
      </trkpt>
      <trkpt lat="44.43457" lon="3.69166">
        <ele>1561.8</ele>
        <time>2022-10-28T11:52:49Z</time>
      </trkpt>
      <trkpt lat="44.43456" lon="3.69169">
        <ele>1562</ele>
        <time>2022-10-28T11:52:50Z</time>
      </trkpt>
      <trkpt lat="44.43455" lon="3.69171">
        <ele>1562.2</ele>
        <time>2022-10-28T11:52:51Z</time>
      </trkpt>
      <trkpt lat="44.43454" lon="3.69173">
        <ele>1562.2</ele>
        <time>2022-10-28T11:52:52Z</time>
      </trkpt>
      <trkpt lat="44.43452" lon="3.69176">
        <ele>1562.4</ele>
        <time>2022-10-28T11:52:53Z</time>
      </trkpt>
      <trkpt lat="44.4345" lon="3.69178">
        <ele>1562.6</ele>
        <time>2022-10-28T11:52:54Z</time>
      </trkpt>
      <trkpt lat="44.43449" lon="3.6918">
        <ele>1562.8</ele>
        <time>2022-10-28T11:52:55Z</time>
      </trkpt>
      <trkpt lat="44.43448" lon="3.69183">
        <ele>1562.8</ele>
        <time>2022-10-28T11:52:56Z</time>
      </trkpt>
      <trkpt lat="44.43446" lon="3.69185">
        <ele>1563</ele>
        <time>2022-10-28T11:52:57Z</time>
      </trkpt>
      <trkpt lat="44.43444" lon="3.69187">
        <ele>1563</ele>
        <time>2022-10-28T11:52:58Z</time>
      </trkpt>
      <trkpt lat="44.43443" lon="3.69189">
        <ele>1563.2</ele>
        <time>2022-10-28T11:52:59Z</time>
      </trkpt>
      <trkpt lat="44.43441" lon="3.69191">
        <ele>1563.2</ele>
        <time>2022-10-28T11:53:00Z</time>
      </trkpt>
      <trkpt lat="44.4344" lon="3.69193">
        <ele>1563.4</ele>
        <time>2022-10-28T11:53:01Z</time>
      </trkpt>
      <trkpt lat="44.43438" lon="3.69195">
        <ele>1563.6</ele>
        <time>2022-10-28T11:53:02Z</time>
      </trkpt>
      <trkpt lat="44.43437" lon="3.69196">
        <ele>1563.6</ele>
        <time>2022-10-28T11:53:03Z</time>
      </trkpt>
      <trkpt lat="44.43435" lon="3.69198">
        <ele>1563.8</ele>
        <time>2022-10-28T11:53:04Z</time>
      </trkpt>
      <trkpt lat="44.43434" lon="3.692">
        <ele>1564</ele>
        <time>2022-10-28T11:53:05Z</time>
      </trkpt>
      <trkpt lat="44.43433" lon="3.69202">
        <ele>1564.2</ele>
        <time>2022-10-28T11:53:06Z</time>
      </trkpt>
      <trkpt lat="44.43431" lon="3.69204">
        <ele>1564.4</ele>
        <time>2022-10-28T11:53:07Z</time>
      </trkpt>
      <trkpt lat="44.4343" lon="3.69206">
        <ele>1564.6</ele>
        <time>2022-10-28T11:53:08Z</time>
      </trkpt>
      <trkpt lat="44.43429" lon="3.69208">
        <ele>1564.6</ele>
        <time>2022-10-28T11:53:09Z</time>
      </trkpt>
      <trkpt lat="44.43427" lon="3.69209">
        <ele>1564.8</ele>
        <time>2022-10-28T11:53:10Z</time>
      </trkpt>
      <trkpt lat="44.43426" lon="3.69211">
        <ele>1564.8</ele>
        <time>2022-10-28T11:53:11Z</time>
      </trkpt>
      <trkpt lat="44.43425" lon="3.69213">
        <ele>1565</ele>
        <time>2022-10-28T11:53:12Z</time>
      </trkpt>
      <trkpt lat="44.43424" lon="3.69215">
        <ele>1565.2</ele>
        <time>2022-10-28T11:53:13Z</time>
      </trkpt>
      <trkpt lat="44.43422" lon="3.69217">
        <ele>1565.6</ele>
        <time>2022-10-28T11:53:14Z</time>
      </trkpt>
      <trkpt lat="44.43421" lon="3.69218">
        <ele>1565.8</ele>
        <time>2022-10-28T11:53:15Z</time>
      </trkpt>
      <trkpt lat="44.43419" lon="3.6922">
        <ele>1566</ele>
        <time>2022-10-28T11:53:16Z</time>
      </trkpt>
      <trkpt lat="44.43418" lon="3.69223">
        <ele>1566</ele>
        <time>2022-10-28T11:53:17Z</time>
      </trkpt>
      <trkpt lat="44.43416" lon="3.69224">
        <ele>1566.2</ele>
        <time>2022-10-28T11:53:18Z</time>
      </trkpt>
      <trkpt lat="44.43416" lon="3.69226">
        <ele>1566.2</ele>
        <time>2022-10-28T11:53:19Z</time>
      </trkpt>
      <trkpt lat="44.43414" lon="3.69228">
        <ele>1566.4</ele>
        <time>2022-10-28T11:53:20Z</time>
      </trkpt>
      <trkpt lat="44.43413" lon="3.6923">
        <ele>1566.6</ele>
        <time>2022-10-28T11:53:21Z</time>
      </trkpt>
      <trkpt lat="44.43412" lon="3.69232">
        <ele>1566.8</ele>
        <time>2022-10-28T11:53:22Z</time>
      </trkpt>
      <trkpt lat="44.43411" lon="3.69233">
        <ele>1566.8</ele>
        <time>2022-10-28T11:53:23Z</time>
      </trkpt>
      <trkpt lat="44.43409" lon="3.69234">
        <ele>1567</ele>
        <time>2022-10-28T11:53:24Z</time>
      </trkpt>
      <trkpt lat="44.43408" lon="3.69236">
        <ele>1567.2</ele>
        <time>2022-10-28T11:53:25Z</time>
      </trkpt>
      <trkpt lat="44.43406" lon="3.69237">
        <ele>1567.2</ele>
        <time>2022-10-28T11:53:26Z</time>
      </trkpt>
      <trkpt lat="44.43404" lon="3.69239">
        <ele>1567.4</ele>
        <time>2022-10-28T11:53:27Z</time>
      </trkpt>
      <trkpt lat="44.43403" lon="3.69241">
        <ele>1567.6</ele>
        <time>2022-10-28T11:53:28Z</time>
      </trkpt>
      <trkpt lat="44.43401" lon="3.69242">
        <ele>1567.6</ele>
        <time>2022-10-28T11:53:29Z</time>
      </trkpt>
      <trkpt lat="44.434" lon="3.69244">
        <ele>1567.8</ele>
        <time>2022-10-28T11:53:30Z</time>
      </trkpt>
      <trkpt lat="44.43398" lon="3.69246">
        <ele>1568</ele>
        <time>2022-10-28T11:53:31Z</time>
      </trkpt>
      <trkpt lat="44.43396" lon="3.69247">
        <ele>1568</ele>
        <time>2022-10-28T11:53:32Z</time>
      </trkpt>
      <trkpt lat="44.43395" lon="3.69249">
        <ele>1568.2</ele>
        <time>2022-10-28T11:53:33Z</time>
      </trkpt>
      <trkpt lat="44.43393" lon="3.6925">
        <ele>1568.2</ele>
        <time>2022-10-28T11:53:34Z</time>
      </trkpt>
      <trkpt lat="44.43391" lon="3.69252">
        <ele>1568.4</ele>
        <time>2022-10-28T11:53:35Z</time>
      </trkpt>
      <trkpt lat="44.4339" lon="3.69253">
        <ele>1568.6</ele>
        <time>2022-10-28T11:53:36Z</time>
      </trkpt>
      <trkpt lat="44.43388" lon="3.69255">
        <ele>1568.8</ele>
        <time>2022-10-28T11:53:37Z</time>
      </trkpt>
      <trkpt lat="44.43386" lon="3.69257">
        <ele>1569</ele>
        <time>2022-10-28T11:53:38Z</time>
      </trkpt>
      <trkpt lat="44.43385" lon="3.69259">
        <ele>1569.2</ele>
        <time>2022-10-28T11:53:39Z</time>
      </trkpt>
      <trkpt lat="44.43383" lon="3.69261">
        <ele>1569.2</ele>
        <time>2022-10-28T11:53:40Z</time>
      </trkpt>
      <trkpt lat="44.43381" lon="3.69263">
        <ele>1569.4</ele>
        <time>2022-10-28T11:53:41Z</time>
      </trkpt>
      <trkpt lat="44.43379" lon="3.69264">
        <ele>1569.4</ele>
        <time>2022-10-28T11:53:42Z</time>
      </trkpt>
      <trkpt lat="44.43377" lon="3.69267">
        <ele>1569.4</ele>
        <time>2022-10-28T11:53:43Z</time>
      </trkpt>
      <trkpt lat="44.43376" lon="3.69269">
        <ele>1569.4</ele>
        <time>2022-10-28T11:53:44Z</time>
      </trkpt>
      <trkpt lat="44.43374" lon="3.69271">
        <ele>1569.6</ele>
        <time>2022-10-28T11:53:45Z</time>
      </trkpt>
      <trkpt lat="44.43372" lon="3.69273">
        <ele>1569.6</ele>
        <time>2022-10-28T11:53:46Z</time>
      </trkpt>
      <trkpt lat="44.4337" lon="3.69275">
        <ele>1569.8</ele>
        <time>2022-10-28T11:53:47Z</time>
      </trkpt>
      <trkpt lat="44.43369" lon="3.69277">
        <ele>1569.8</ele>
        <time>2022-10-28T11:53:48Z</time>
      </trkpt>
      <trkpt lat="44.43367" lon="3.69279">
        <ele>1570</ele>
        <time>2022-10-28T11:53:49Z</time>
      </trkpt>
      <trkpt lat="44.43366" lon="3.69281">
        <ele>1570.2</ele>
        <time>2022-10-28T11:53:50Z</time>
      </trkpt>
      <trkpt lat="44.43364" lon="3.69283">
        <ele>1570.4</ele>
        <time>2022-10-28T11:53:51Z</time>
      </trkpt>
      <trkpt lat="44.43362" lon="3.69284">
        <ele>1570.4</ele>
        <time>2022-10-28T11:53:52Z</time>
      </trkpt>
      <trkpt lat="44.43361" lon="3.69286">
        <ele>1570.6</ele>
        <time>2022-10-28T11:53:53Z</time>
      </trkpt>
      <trkpt lat="44.43359" lon="3.69288">
        <ele>1570.8</ele>
        <time>2022-10-28T11:53:54Z</time>
      </trkpt>
      <trkpt lat="44.43357" lon="3.6929">
        <ele>1570.8</ele>
        <time>2022-10-28T11:53:55Z</time>
      </trkpt>
      <trkpt lat="44.43355" lon="3.69292">
        <ele>1571</ele>
        <time>2022-10-28T11:53:56Z</time>
      </trkpt>
      <trkpt lat="44.43353" lon="3.69294">
        <ele>1571</ele>
        <time>2022-10-28T11:53:57Z</time>
      </trkpt>
      <trkpt lat="44.43351" lon="3.69295">
        <ele>1571.2</ele>
        <time>2022-10-28T11:53:58Z</time>
      </trkpt>
      <trkpt lat="44.43349" lon="3.69297">
        <ele>1571.2</ele>
        <time>2022-10-28T11:53:59Z</time>
      </trkpt>
      <trkpt lat="44.43347" lon="3.69299">
        <ele>1571.2</ele>
        <time>2022-10-28T11:54:00Z</time>
      </trkpt>
      <trkpt lat="44.43345" lon="3.69301">
        <ele>1571.4</ele>
        <time>2022-10-28T11:54:01Z</time>
      </trkpt>
      <trkpt lat="44.43343" lon="3.69303">
        <ele>1571.4</ele>
        <time>2022-10-28T11:54:02Z</time>
      </trkpt>
      <trkpt lat="44.43341" lon="3.69305">
        <ele>1571.6</ele>
        <time>2022-10-28T11:54:03Z</time>
      </trkpt>
      <trkpt lat="44.43339" lon="3.69307">
        <ele>1571.6</ele>
        <time>2022-10-28T11:54:04Z</time>
      </trkpt>
      <trkpt lat="44.43337" lon="3.69309">
        <ele>1571.8</ele>
        <time>2022-10-28T11:54:05Z</time>
      </trkpt>
      <trkpt lat="44.43335" lon="3.69311">
        <ele>1571.8</ele>
        <time>2022-10-28T11:54:06Z</time>
      </trkpt>
      <trkpt lat="44.43333" lon="3.69313">
        <ele>1571.8</ele>
        <time>2022-10-28T11:54:07Z</time>
      </trkpt>
      <trkpt lat="44.43331" lon="3.69315">
        <ele>1571.8</ele>
        <time>2022-10-28T11:54:08Z</time>
      </trkpt>
      <trkpt lat="44.43329" lon="3.69317">
        <ele>1572</ele>
        <time>2022-10-28T11:54:09Z</time>
      </trkpt>
      <trkpt lat="44.43327" lon="3.69318">
        <ele>1572</ele>
        <time>2022-10-28T11:54:10Z</time>
      </trkpt>
      <trkpt lat="44.43325" lon="3.6932">
        <ele>1572.2</ele>
        <time>2022-10-28T11:54:11Z</time>
      </trkpt>
      <trkpt lat="44.43322" lon="3.69321">
        <ele>1572.2</ele>
        <time>2022-10-28T11:54:12Z</time>
      </trkpt>
      <trkpt lat="44.4332" lon="3.69322">
        <ele>1572.2</ele>
        <time>2022-10-28T11:54:13Z</time>
      </trkpt>
      <trkpt lat="44.43318" lon="3.69323">
        <ele>1572.2</ele>
        <time>2022-10-28T11:54:14Z</time>
      </trkpt>
      <trkpt lat="44.43315" lon="3.69324">
        <ele>1572.2</ele>
        <time>2022-10-28T11:54:15Z</time>
      </trkpt>
      <trkpt lat="44.43313" lon="3.69325">
        <ele>1572.2</ele>
        <time>2022-10-28T11:54:16Z</time>
      </trkpt>
      <trkpt lat="44.43311" lon="3.69326">
        <ele>1572.2</ele>
        <time>2022-10-28T11:54:17Z</time>
      </trkpt>
      <trkpt lat="44.43309" lon="3.69327">
        <ele>1572.4</ele>
        <time>2022-10-28T11:54:18Z</time>
      </trkpt>
      <trkpt lat="44.43307" lon="3.69328">
        <ele>1572.2</ele>
        <time>2022-10-28T11:54:19Z</time>
      </trkpt>
      <trkpt lat="44.43305" lon="3.69328">
        <ele>1572.2</ele>
        <time>2022-10-28T11:54:20Z</time>
      </trkpt>
      <trkpt lat="44.43303" lon="3.6933">
        <ele>1572.2</ele>
        <time>2022-10-28T11:54:21Z</time>
      </trkpt>
      <trkpt lat="44.43302" lon="3.69331">
        <ele>1572.2</ele>
        <time>2022-10-28T11:54:22Z</time>
      </trkpt>
      <trkpt lat="44.43299" lon="3.69333">
        <ele>1572.2</ele>
        <time>2022-10-28T11:54:23Z</time>
      </trkpt>
      <trkpt lat="44.43297" lon="3.69334">
        <ele>1572.4</ele>
        <time>2022-10-28T11:54:24Z</time>
      </trkpt>
      <trkpt lat="44.43295" lon="3.69335">
        <ele>1572.4</ele>
        <time>2022-10-28T11:54:25Z</time>
      </trkpt>
      <trkpt lat="44.43293" lon="3.69337">
        <ele>1572.4</ele>
        <time>2022-10-28T11:54:26Z</time>
      </trkpt>
      <trkpt lat="44.4329" lon="3.69339">
        <ele>1572.4</ele>
        <time>2022-10-28T11:54:27Z</time>
      </trkpt>
      <trkpt lat="44.43288" lon="3.6934">
        <ele>1572.4</ele>
        <time>2022-10-28T11:54:28Z</time>
      </trkpt>
      <trkpt lat="44.43285" lon="3.69342">
        <ele>1572.4</ele>
        <time>2022-10-28T11:54:29Z</time>
      </trkpt>
      <trkpt lat="44.43283" lon="3.69344">
        <ele>1572.4</ele>
        <time>2022-10-28T11:54:30Z</time>
      </trkpt>
      <trkpt lat="44.4328" lon="3.69345">
        <ele>1572.4</ele>
        <time>2022-10-28T11:54:31Z</time>
      </trkpt>
      <trkpt lat="44.43277" lon="3.69347">
        <ele>1572.6</ele>
        <time>2022-10-28T11:54:32Z</time>
      </trkpt>
      <trkpt lat="44.43275" lon="3.69349">
        <ele>1572.6</ele>
        <time>2022-10-28T11:54:33Z</time>
      </trkpt>
      <trkpt lat="44.43273" lon="3.6935">
        <ele>1572.6</ele>
        <time>2022-10-28T11:54:34Z</time>
      </trkpt>
      <trkpt lat="44.4327" lon="3.69352">
        <ele>1572.8</ele>
        <time>2022-10-28T11:54:35Z</time>
      </trkpt>
      <trkpt lat="44.43268" lon="3.69354">
        <ele>1572.8</ele>
        <time>2022-10-28T11:54:36Z</time>
      </trkpt>
      <trkpt lat="44.43266" lon="3.69355">
        <ele>1572.8</ele>
        <time>2022-10-28T11:54:37Z</time>
      </trkpt>
      <trkpt lat="44.43264" lon="3.69357">
        <ele>1573</ele>
        <time>2022-10-28T11:54:38Z</time>
      </trkpt>
      <trkpt lat="44.43262" lon="3.69358">
        <ele>1573.2</ele>
        <time>2022-10-28T11:54:39Z</time>
      </trkpt>
      <trkpt lat="44.4326" lon="3.6936">
        <ele>1573.2</ele>
        <time>2022-10-28T11:54:40Z</time>
      </trkpt>
      <trkpt lat="44.43258" lon="3.69362">
        <ele>1573.4</ele>
        <time>2022-10-28T11:54:41Z</time>
      </trkpt>
      <trkpt lat="44.43256" lon="3.69363">
        <ele>1573.6</ele>
        <time>2022-10-28T11:54:42Z</time>
      </trkpt>
      <trkpt lat="44.43254" lon="3.69365">
        <ele>1573.8</ele>
        <time>2022-10-28T11:54:43Z</time>
      </trkpt>
      <trkpt lat="44.43252" lon="3.69366">
        <ele>1573.8</ele>
        <time>2022-10-28T11:54:44Z</time>
      </trkpt>
      <trkpt lat="44.4325" lon="3.69367">
        <ele>1574</ele>
        <time>2022-10-28T11:54:45Z</time>
      </trkpt>
      <trkpt lat="44.43247" lon="3.69368">
        <ele>1574.2</ele>
        <time>2022-10-28T11:54:46Z</time>
      </trkpt>
      <trkpt lat="44.43245" lon="3.69369">
        <ele>1574.2</ele>
        <time>2022-10-28T11:54:47Z</time>
      </trkpt>
      <trkpt lat="44.43243" lon="3.6937">
        <ele>1574.4</ele>
        <time>2022-10-28T11:54:48Z</time>
      </trkpt>
      <trkpt lat="44.4324" lon="3.69371">
        <ele>1574.4</ele>
        <time>2022-10-28T11:54:49Z</time>
      </trkpt>
      <trkpt lat="44.43237" lon="3.69372">
        <ele>1574.4</ele>
        <time>2022-10-28T11:54:50Z</time>
      </trkpt>
      <trkpt lat="44.43235" lon="3.69373">
        <ele>1574.4</ele>
        <time>2022-10-28T11:54:51Z</time>
      </trkpt>
      <trkpt lat="44.43232" lon="3.69374">
        <ele>1574.6</ele>
        <time>2022-10-28T11:54:52Z</time>
      </trkpt>
      <trkpt lat="44.4323" lon="3.69375">
        <ele>1574.6</ele>
        <time>2022-10-28T11:54:53Z</time>
      </trkpt>
      <trkpt lat="44.43227" lon="3.69376">
        <ele>1574.8</ele>
        <time>2022-10-28T11:54:54Z</time>
      </trkpt>
      <trkpt lat="44.43224" lon="3.69377">
        <ele>1574.8</ele>
        <time>2022-10-28T11:54:55Z</time>
      </trkpt>
      <trkpt lat="44.43221" lon="3.69378">
        <ele>1574.8</ele>
        <time>2022-10-28T11:54:56Z</time>
      </trkpt>
      <trkpt lat="44.43218" lon="3.69379">
        <ele>1575</ele>
        <time>2022-10-28T11:54:57Z</time>
      </trkpt>
      <trkpt lat="44.43216" lon="3.6938">
        <ele>1574.8</ele>
        <time>2022-10-28T11:54:58Z</time>
      </trkpt>
      <trkpt lat="44.43213" lon="3.6938">
        <ele>1574.8</ele>
        <time>2022-10-28T11:54:59Z</time>
      </trkpt>
      <trkpt lat="44.4321" lon="3.69381">
        <ele>1574.8</ele>
        <time>2022-10-28T11:55:00Z</time>
      </trkpt>
      <trkpt lat="44.43207" lon="3.69382">
        <ele>1574.8</ele>
        <time>2022-10-28T11:55:01Z</time>
      </trkpt>
      <trkpt lat="44.43204" lon="3.69383">
        <ele>1574.8</ele>
        <time>2022-10-28T11:55:02Z</time>
      </trkpt>
      <trkpt lat="44.43201" lon="3.69384">
        <ele>1574.8</ele>
        <time>2022-10-28T11:55:03Z</time>
      </trkpt>
      <trkpt lat="44.43199" lon="3.69385">
        <ele>1575</ele>
        <time>2022-10-28T11:55:04Z</time>
      </trkpt>
      <trkpt lat="44.43196" lon="3.69386">
        <ele>1575</ele>
        <time>2022-10-28T11:55:05Z</time>
      </trkpt>
      <trkpt lat="44.43194" lon="3.69387">
        <ele>1575.2</ele>
        <time>2022-10-28T11:55:06Z</time>
      </trkpt>
      <trkpt lat="44.43191" lon="3.69388">
        <ele>1575.2</ele>
        <time>2022-10-28T11:55:07Z</time>
      </trkpt>
      <trkpt lat="44.43188" lon="3.69389">
        <ele>1575</ele>
        <time>2022-10-28T11:55:08Z</time>
      </trkpt>
      <trkpt lat="44.43186" lon="3.6939">
        <ele>1575.2</ele>
        <time>2022-10-28T11:55:09Z</time>
      </trkpt>
      <trkpt lat="44.43183" lon="3.69391">
        <ele>1575.2</ele>
        <time>2022-10-28T11:55:10Z</time>
      </trkpt>
      <trkpt lat="44.4318" lon="3.69392">
        <ele>1575.2</ele>
        <time>2022-10-28T11:55:11Z</time>
      </trkpt>
      <trkpt lat="44.43177" lon="3.69394">
        <ele>1575.2</ele>
        <time>2022-10-28T11:55:12Z</time>
      </trkpt>
      <trkpt lat="44.43175" lon="3.69395">
        <ele>1575.2</ele>
        <time>2022-10-28T11:55:13Z</time>
      </trkpt>
      <trkpt lat="44.43172" lon="3.69396">
        <ele>1575.2</ele>
        <time>2022-10-28T11:55:14Z</time>
      </trkpt>
      <trkpt lat="44.43169" lon="3.69397">
        <ele>1575</ele>
        <time>2022-10-28T11:55:15Z</time>
      </trkpt>
      <trkpt lat="44.43166" lon="3.69398">
        <ele>1575</ele>
        <time>2022-10-28T11:55:16Z</time>
      </trkpt>
      <trkpt lat="44.43164" lon="3.69399">
        <ele>1575</ele>
        <time>2022-10-28T11:55:17Z</time>
      </trkpt>
      <trkpt lat="44.43161" lon="3.69399">
        <ele>1575.2</ele>
        <time>2022-10-28T11:55:18Z</time>
      </trkpt>
      <trkpt lat="44.43158" lon="3.694">
        <ele>1575.2</ele>
        <time>2022-10-28T11:55:19Z</time>
      </trkpt>
      <trkpt lat="44.43156" lon="3.69401">
        <ele>1575.4</ele>
        <time>2022-10-28T11:55:20Z</time>
      </trkpt>
      <trkpt lat="44.43153" lon="3.69402">
        <ele>1575.4</ele>
        <time>2022-10-28T11:55:21Z</time>
      </trkpt>
      <trkpt lat="44.4315" lon="3.69403">
        <ele>1575.4</ele>
        <time>2022-10-28T11:55:22Z</time>
      </trkpt>
      <trkpt lat="44.43146" lon="3.69404">
        <ele>1575.4</ele>
        <time>2022-10-28T11:55:23Z</time>
      </trkpt>
      <trkpt lat="44.43143" lon="3.69405">
        <ele>1575.4</ele>
        <time>2022-10-28T11:55:24Z</time>
      </trkpt>
      <trkpt lat="44.4314" lon="3.69405">
        <ele>1575.4</ele>
        <time>2022-10-28T11:55:25Z</time>
      </trkpt>
      <trkpt lat="44.43136" lon="3.69406">
        <ele>1575.4</ele>
        <time>2022-10-28T11:55:26Z</time>
      </trkpt>
      <trkpt lat="44.43133" lon="3.69406">
        <ele>1575.4</ele>
        <time>2022-10-28T11:55:27Z</time>
      </trkpt>
      <trkpt lat="44.4313" lon="3.69406">
        <ele>1575.6</ele>
        <time>2022-10-28T11:55:28Z</time>
      </trkpt>
      <trkpt lat="44.43127" lon="3.69406">
        <ele>1575.6</ele>
        <time>2022-10-28T11:55:29Z</time>
      </trkpt>
      <trkpt lat="44.43124" lon="3.69407">
        <ele>1575.4</ele>
        <time>2022-10-28T11:55:30Z</time>
      </trkpt>
      <trkpt lat="44.4312" lon="3.69407">
        <ele>1575.4</ele>
        <time>2022-10-28T11:55:31Z</time>
      </trkpt>
      <trkpt lat="44.43117" lon="3.69408">
        <ele>1575.4</ele>
        <time>2022-10-28T11:55:32Z</time>
      </trkpt>
      <trkpt lat="44.43114" lon="3.69408">
        <ele>1575.4</ele>
        <time>2022-10-28T11:55:33Z</time>
      </trkpt>
      <trkpt lat="44.43111" lon="3.69408">
        <ele>1575.6</ele>
        <time>2022-10-28T11:55:34Z</time>
      </trkpt>
      <trkpt lat="44.43108" lon="3.69409">
        <ele>1575.6</ele>
        <time>2022-10-28T11:55:35Z</time>
      </trkpt>
      <trkpt lat="44.43105" lon="3.69409">
        <ele>1575.4</ele>
        <time>2022-10-28T11:55:36Z</time>
      </trkpt>
      <trkpt lat="44.43102" lon="3.6941">
        <ele>1575.6</ele>
        <time>2022-10-28T11:55:37Z</time>
      </trkpt>
      <trkpt lat="44.43099" lon="3.69411">
        <ele>1575.6</ele>
        <time>2022-10-28T11:55:38Z</time>
      </trkpt>
      <trkpt lat="44.43096" lon="3.69411">
        <ele>1575.6</ele>
        <time>2022-10-28T11:55:39Z</time>
      </trkpt>
      <trkpt lat="44.43093" lon="3.69412">
        <ele>1575.8</ele>
        <time>2022-10-28T11:55:40Z</time>
      </trkpt>
      <trkpt lat="44.4309" lon="3.69412">
        <ele>1575.8</ele>
        <time>2022-10-28T11:55:41Z</time>
      </trkpt>
      <trkpt lat="44.43088" lon="3.69412">
        <ele>1576</ele>
        <time>2022-10-28T11:55:42Z</time>
      </trkpt>
      <trkpt lat="44.43085" lon="3.69413">
        <ele>1576</ele>
        <time>2022-10-28T11:55:43Z</time>
      </trkpt>
      <trkpt lat="44.43083" lon="3.69413">
        <ele>1576</ele>
        <time>2022-10-28T11:55:44Z</time>
      </trkpt>
      <trkpt lat="44.4308" lon="3.69414">
        <ele>1576</ele>
        <time>2022-10-28T11:55:45Z</time>
      </trkpt>
      <trkpt lat="44.43077" lon="3.69414">
        <ele>1576.2</ele>
        <time>2022-10-28T11:55:46Z</time>
      </trkpt>
      <trkpt lat="44.43075" lon="3.69415">
        <ele>1576.2</ele>
        <time>2022-10-28T11:55:47Z</time>
      </trkpt>
      <trkpt lat="44.43072" lon="3.69415">
        <ele>1576.4</ele>
        <time>2022-10-28T11:55:48Z</time>
      </trkpt>
      <trkpt lat="44.43069" lon="3.69415">
        <ele>1576.4</ele>
        <time>2022-10-28T11:55:49Z</time>
      </trkpt>
      <trkpt lat="44.43066" lon="3.69416">
        <ele>1576.4</ele>
        <time>2022-10-28T11:55:50Z</time>
      </trkpt>
      <trkpt lat="44.43063" lon="3.69416">
        <ele>1576.2</ele>
        <time>2022-10-28T11:55:51Z</time>
      </trkpt>
      <trkpt lat="44.4306" lon="3.69416">
        <ele>1576.2</ele>
        <time>2022-10-28T11:55:52Z</time>
      </trkpt>
      <trkpt lat="44.43058" lon="3.69417">
        <ele>1576.4</ele>
        <time>2022-10-28T11:55:53Z</time>
      </trkpt>
      <trkpt lat="44.43055" lon="3.69418">
        <ele>1576.4</ele>
        <time>2022-10-28T11:55:54Z</time>
      </trkpt>
      <trkpt lat="44.43053" lon="3.69419">
        <ele>1576.4</ele>
        <time>2022-10-28T11:55:55Z</time>
      </trkpt>
      <trkpt lat="44.4305" lon="3.69421">
        <ele>1576.4</ele>
        <time>2022-10-28T11:55:56Z</time>
      </trkpt>
      <trkpt lat="44.43047" lon="3.69422">
        <ele>1576.2</ele>
        <time>2022-10-28T11:55:57Z</time>
      </trkpt>
      <trkpt lat="44.43045" lon="3.69423">
        <ele>1576.4</ele>
        <time>2022-10-28T11:55:58Z</time>
      </trkpt>
      <trkpt lat="44.43042" lon="3.69423">
        <ele>1576.4</ele>
        <time>2022-10-28T11:55:59Z</time>
      </trkpt>
      <trkpt lat="44.43039" lon="3.69424">
        <ele>1576.2</ele>
        <time>2022-10-28T11:56:00Z</time>
      </trkpt>
      <trkpt lat="44.43036" lon="3.69425">
        <ele>1576.4</ele>
        <time>2022-10-28T11:56:01Z</time>
      </trkpt>
      <trkpt lat="44.43033" lon="3.69426">
        <ele>1576.4</ele>
        <time>2022-10-28T11:56:02Z</time>
      </trkpt>
      <trkpt lat="44.4303" lon="3.69427">
        <ele>1576.4</ele>
        <time>2022-10-28T11:56:03Z</time>
      </trkpt>
      <trkpt lat="44.43027" lon="3.69428">
        <ele>1576.4</ele>
        <time>2022-10-28T11:56:04Z</time>
      </trkpt>
      <trkpt lat="44.43024" lon="3.69429">
        <ele>1576.4</ele>
        <time>2022-10-28T11:56:05Z</time>
      </trkpt>
      <trkpt lat="44.43022" lon="3.69429">
        <ele>1576.6</ele>
        <time>2022-10-28T11:56:06Z</time>
      </trkpt>
      <trkpt lat="44.43019" lon="3.6943">
        <ele>1576.6</ele>
        <time>2022-10-28T11:56:07Z</time>
      </trkpt>
      <trkpt lat="44.43017" lon="3.69431">
        <ele>1576.8</ele>
        <time>2022-10-28T11:56:08Z</time>
      </trkpt>
      <trkpt lat="44.43015" lon="3.69432">
        <ele>1576.8</ele>
        <time>2022-10-28T11:56:09Z</time>
      </trkpt>
      <trkpt lat="44.43014" lon="3.69433">
        <ele>1577</ele>
        <time>2022-10-28T11:56:10Z</time>
      </trkpt>
      <trkpt lat="44.43011" lon="3.69434">
        <ele>1577</ele>
        <time>2022-10-28T11:56:11Z</time>
      </trkpt>
      <trkpt lat="44.43009" lon="3.69435">
        <ele>1577.2</ele>
        <time>2022-10-28T11:56:12Z</time>
      </trkpt>
      <trkpt lat="44.43007" lon="3.69436">
        <ele>1577.2</ele>
        <time>2022-10-28T11:56:13Z</time>
      </trkpt>
      <trkpt lat="44.43005" lon="3.69437">
        <ele>1577.4</ele>
        <time>2022-10-28T11:56:14Z</time>
      </trkpt>
      <trkpt lat="44.43002" lon="3.69438">
        <ele>1577.4</ele>
        <time>2022-10-28T11:56:15Z</time>
      </trkpt>
      <trkpt lat="44.43" lon="3.69439">
        <ele>1577.6</ele>
        <time>2022-10-28T11:56:16Z</time>
      </trkpt>
      <trkpt lat="44.42998" lon="3.6944">
        <ele>1577.8</ele>
        <time>2022-10-28T11:56:17Z</time>
      </trkpt>
      <trkpt lat="44.42996" lon="3.69442">
        <ele>1577.8</ele>
        <time>2022-10-28T11:56:18Z</time>
      </trkpt>
      <trkpt lat="44.42994" lon="3.69443">
        <ele>1578</ele>
        <time>2022-10-28T11:56:19Z</time>
      </trkpt>
      <trkpt lat="44.42992" lon="3.69444">
        <ele>1578</ele>
        <time>2022-10-28T11:56:20Z</time>
      </trkpt>
      <trkpt lat="44.4299" lon="3.69446">
        <ele>1578.2</ele>
        <time>2022-10-28T11:56:21Z</time>
      </trkpt>
      <trkpt lat="44.42988" lon="3.69447">
        <ele>1578.4</ele>
        <time>2022-10-28T11:56:22Z</time>
      </trkpt>
      <trkpt lat="44.42986" lon="3.69449">
        <ele>1578.4</ele>
        <time>2022-10-28T11:56:23Z</time>
      </trkpt>
      <trkpt lat="44.42984" lon="3.69452">
        <ele>1578.4</ele>
        <time>2022-10-28T11:56:24Z</time>
      </trkpt>
      <trkpt lat="44.42982" lon="3.69454">
        <ele>1578.6</ele>
        <time>2022-10-28T11:56:25Z</time>
      </trkpt>
      <trkpt lat="44.4298" lon="3.69456">
        <ele>1578.6</ele>
        <time>2022-10-28T11:56:26Z</time>
      </trkpt>
      <trkpt lat="44.42978" lon="3.69458">
        <ele>1578.6</ele>
        <time>2022-10-28T11:56:27Z</time>
      </trkpt>
      <trkpt lat="44.42976" lon="3.6946">
        <ele>1578.8</ele>
        <time>2022-10-28T11:56:28Z</time>
      </trkpt>
      <trkpt lat="44.42975" lon="3.69461">
        <ele>1578.8</ele>
        <time>2022-10-28T11:56:29Z</time>
      </trkpt>
      <trkpt lat="44.42973" lon="3.69462">
        <ele>1579</ele>
        <time>2022-10-28T11:56:30Z</time>
      </trkpt>
      <trkpt lat="44.42971" lon="3.69464">
        <ele>1579</ele>
        <time>2022-10-28T11:56:31Z</time>
      </trkpt>
      <trkpt lat="44.42969" lon="3.69465">
        <ele>1579.2</ele>
        <time>2022-10-28T11:56:32Z</time>
      </trkpt>
      <trkpt lat="44.42968" lon="3.69467">
        <ele>1579.4</ele>
        <time>2022-10-28T11:56:33Z</time>
      </trkpt>
      <trkpt lat="44.42966" lon="3.69469">
        <ele>1579.4</ele>
        <time>2022-10-28T11:56:34Z</time>
      </trkpt>
      <trkpt lat="44.42964" lon="3.69471">
        <ele>1579.8</ele>
        <time>2022-10-28T11:56:35Z</time>
      </trkpt>
      <trkpt lat="44.42963" lon="3.69472">
        <ele>1579.8</ele>
        <time>2022-10-28T11:56:36Z</time>
      </trkpt>
      <trkpt lat="44.42961" lon="3.69474">
        <ele>1580</ele>
        <time>2022-10-28T11:56:37Z</time>
      </trkpt>
      <trkpt lat="44.4296" lon="3.69476">
        <ele>1580</ele>
        <time>2022-10-28T11:56:38Z</time>
      </trkpt>
      <trkpt lat="44.42959" lon="3.69478">
        <ele>1580.2</ele>
        <time>2022-10-28T11:56:39Z</time>
      </trkpt>
      <trkpt lat="44.42957" lon="3.6948">
        <ele>1580.2</ele>
        <time>2022-10-28T11:56:40Z</time>
      </trkpt>
      <trkpt lat="44.42956" lon="3.69483">
        <ele>1580.4</ele>
        <time>2022-10-28T11:56:41Z</time>
      </trkpt>
      <trkpt lat="44.42955" lon="3.69485">
        <ele>1580.6</ele>
        <time>2022-10-28T11:56:42Z</time>
      </trkpt>
      <trkpt lat="44.42953" lon="3.69487">
        <ele>1580.6</ele>
        <time>2022-10-28T11:56:43Z</time>
      </trkpt>
      <trkpt lat="44.42952" lon="3.69489">
        <ele>1580.6</ele>
        <time>2022-10-28T11:56:44Z</time>
      </trkpt>
      <trkpt lat="44.4295" lon="3.69491">
        <ele>1580.8</ele>
        <time>2022-10-28T11:56:45Z</time>
      </trkpt>
      <trkpt lat="44.42949" lon="3.69493">
        <ele>1580.8</ele>
        <time>2022-10-28T11:56:46Z</time>
      </trkpt>
      <trkpt lat="44.42947" lon="3.69495">
        <ele>1581.2</ele>
        <time>2022-10-28T11:56:47Z</time>
      </trkpt>
      <trkpt lat="44.42946" lon="3.69497">
        <ele>1581.2</ele>
        <time>2022-10-28T11:56:48Z</time>
      </trkpt>
      <trkpt lat="44.42945" lon="3.695">
        <ele>1581.2</ele>
        <time>2022-10-28T11:56:49Z</time>
      </trkpt>
      <trkpt lat="44.42943" lon="3.69502">
        <ele>1581.4</ele>
        <time>2022-10-28T11:56:50Z</time>
      </trkpt>
      <trkpt lat="44.42941" lon="3.69504">
        <ele>1581.4</ele>
        <time>2022-10-28T11:56:51Z</time>
      </trkpt>
      <trkpt lat="44.4294" lon="3.69506">
        <ele>1581.6</ele>
        <time>2022-10-28T11:56:52Z</time>
      </trkpt>
      <trkpt lat="44.42937" lon="3.69509">
        <ele>1581.8</ele>
        <time>2022-10-28T11:56:53Z</time>
      </trkpt>
      <trkpt lat="44.42936" lon="3.69511">
        <ele>1581.8</ele>
        <time>2022-10-28T11:56:54Z</time>
      </trkpt>
      <trkpt lat="44.42934" lon="3.69513">
        <ele>1581.8</ele>
        <time>2022-10-28T11:56:55Z</time>
      </trkpt>
      <trkpt lat="44.42933" lon="3.69515">
        <ele>1581.8</ele>
        <time>2022-10-28T11:56:56Z</time>
      </trkpt>
      <trkpt lat="44.42931" lon="3.69517">
        <ele>1581.8</ele>
        <time>2022-10-28T11:56:57Z</time>
      </trkpt>
      <trkpt lat="44.4293" lon="3.6952">
        <ele>1581.8</ele>
        <time>2022-10-28T11:56:58Z</time>
      </trkpt>
      <trkpt lat="44.42928" lon="3.69522">
        <ele>1581.8</ele>
        <time>2022-10-28T11:56:59Z</time>
      </trkpt>
      <trkpt lat="44.42927" lon="3.69524">
        <ele>1582</ele>
        <time>2022-10-28T11:57:00Z</time>
      </trkpt>
      <trkpt lat="44.42925" lon="3.69527">
        <ele>1582</ele>
        <time>2022-10-28T11:57:01Z</time>
      </trkpt>
      <trkpt lat="44.42924" lon="3.69529">
        <ele>1582.2</ele>
        <time>2022-10-28T11:57:02Z</time>
      </trkpt>
      <trkpt lat="44.42923" lon="3.69531">
        <ele>1582.2</ele>
        <time>2022-10-28T11:57:03Z</time>
      </trkpt>
      <trkpt lat="44.42922" lon="3.69533">
        <ele>1582.4</ele>
        <time>2022-10-28T11:57:04Z</time>
      </trkpt>
      <trkpt lat="44.4292" lon="3.69535">
        <ele>1582.4</ele>
        <time>2022-10-28T11:57:05Z</time>
      </trkpt>
      <trkpt lat="44.42919" lon="3.69537">
        <ele>1582.4</ele>
        <time>2022-10-28T11:57:06Z</time>
      </trkpt>
      <trkpt lat="44.42917" lon="3.69539">
        <ele>1582.4</ele>
        <time>2022-10-28T11:57:07Z</time>
      </trkpt>
      <trkpt lat="44.42915" lon="3.69541">
        <ele>1582.6</ele>
        <time>2022-10-28T11:57:08Z</time>
      </trkpt>
      <trkpt lat="44.42914" lon="3.69543">
        <ele>1582.6</ele>
        <time>2022-10-28T11:57:09Z</time>
      </trkpt>
      <trkpt lat="44.42912" lon="3.69545">
        <ele>1582.6</ele>
        <time>2022-10-28T11:57:10Z</time>
      </trkpt>
      <trkpt lat="44.42911" lon="3.69547">
        <ele>1582.8</ele>
        <time>2022-10-28T11:57:11Z</time>
      </trkpt>
      <trkpt lat="44.4291" lon="3.69549">
        <ele>1582.8</ele>
        <time>2022-10-28T11:57:12Z</time>
      </trkpt>
      <trkpt lat="44.42908" lon="3.69552">
        <ele>1583</ele>
        <time>2022-10-28T11:57:13Z</time>
      </trkpt>
      <trkpt lat="44.42906" lon="3.69554">
        <ele>1583</ele>
        <time>2022-10-28T11:57:14Z</time>
      </trkpt>
      <trkpt lat="44.42905" lon="3.69557">
        <ele>1583</ele>
        <time>2022-10-28T11:57:15Z</time>
      </trkpt>
      <trkpt lat="44.42903" lon="3.6956">
        <ele>1583.2</ele>
        <time>2022-10-28T11:57:16Z</time>
      </trkpt>
      <trkpt lat="44.42902" lon="3.69562">
        <ele>1583.2</ele>
        <time>2022-10-28T11:57:17Z</time>
      </trkpt>
      <trkpt lat="44.429" lon="3.69565">
        <ele>1583.2</ele>
        <time>2022-10-28T11:57:18Z</time>
      </trkpt>
      <trkpt lat="44.42898" lon="3.69568">
        <ele>1583.2</ele>
        <time>2022-10-28T11:57:19Z</time>
      </trkpt>
      <trkpt lat="44.42897" lon="3.69571">
        <ele>1583.4</ele>
        <time>2022-10-28T11:57:20Z</time>
      </trkpt>
      <trkpt lat="44.42895" lon="3.69573">
        <ele>1583.4</ele>
        <time>2022-10-28T11:57:21Z</time>
      </trkpt>
      <trkpt lat="44.42894" lon="3.69576">
        <ele>1583.4</ele>
        <time>2022-10-28T11:57:22Z</time>
      </trkpt>
      <trkpt lat="44.42892" lon="3.69579">
        <ele>1583.4</ele>
        <time>2022-10-28T11:57:23Z</time>
      </trkpt>
      <trkpt lat="44.42891" lon="3.69582">
        <ele>1583.6</ele>
        <time>2022-10-28T11:57:24Z</time>
      </trkpt>
      <trkpt lat="44.42889" lon="3.69585">
        <ele>1583.6</ele>
        <time>2022-10-28T11:57:25Z</time>
      </trkpt>
      <trkpt lat="44.42887" lon="3.69588">
        <ele>1583.6</ele>
        <time>2022-10-28T11:57:26Z</time>
      </trkpt>
      <trkpt lat="44.42886" lon="3.69591">
        <ele>1583.8</ele>
        <time>2022-10-28T11:57:27Z</time>
      </trkpt>
      <trkpt lat="44.42884" lon="3.69594">
        <ele>1584</ele>
        <time>2022-10-28T11:57:28Z</time>
      </trkpt>
      <trkpt lat="44.42883" lon="3.69597">
        <ele>1584</ele>
        <time>2022-10-28T11:57:29Z</time>
      </trkpt>
      <trkpt lat="44.42882" lon="3.696">
        <ele>1584</ele>
        <time>2022-10-28T11:57:30Z</time>
      </trkpt>
      <trkpt lat="44.42881" lon="3.69602">
        <ele>1584.2</ele>
        <time>2022-10-28T11:57:31Z</time>
      </trkpt>
      <trkpt lat="44.42879" lon="3.69605">
        <ele>1584.2</ele>
        <time>2022-10-28T11:57:32Z</time>
      </trkpt>
      <trkpt lat="44.42878" lon="3.69608">
        <ele>1584.4</ele>
        <time>2022-10-28T11:57:33Z</time>
      </trkpt>
      <trkpt lat="44.42877" lon="3.69611">
        <ele>1584.4</ele>
        <time>2022-10-28T11:57:34Z</time>
      </trkpt>
      <trkpt lat="44.42876" lon="3.69614">
        <ele>1584.6</ele>
        <time>2022-10-28T11:57:35Z</time>
      </trkpt>
      <trkpt lat="44.42874" lon="3.69616">
        <ele>1584.6</ele>
        <time>2022-10-28T11:57:36Z</time>
      </trkpt>
      <trkpt lat="44.42873" lon="3.69619">
        <ele>1584.8</ele>
        <time>2022-10-28T11:57:37Z</time>
      </trkpt>
      <trkpt lat="44.42872" lon="3.69622">
        <ele>1584.8</ele>
        <time>2022-10-28T11:57:38Z</time>
      </trkpt>
      <trkpt lat="44.42871" lon="3.69625">
        <ele>1585</ele>
        <time>2022-10-28T11:57:39Z</time>
      </trkpt>
      <trkpt lat="44.4287" lon="3.69628">
        <ele>1585</ele>
        <time>2022-10-28T11:57:40Z</time>
      </trkpt>
      <trkpt lat="44.42869" lon="3.6963">
        <ele>1585.2</ele>
        <time>2022-10-28T11:57:41Z</time>
      </trkpt>
      <trkpt lat="44.42868" lon="3.69633">
        <ele>1585.4</ele>
        <time>2022-10-28T11:57:42Z</time>
      </trkpt>
      <trkpt lat="44.42866" lon="3.69636">
        <ele>1585.6</ele>
        <time>2022-10-28T11:57:43Z</time>
      </trkpt>
      <trkpt lat="44.42865" lon="3.69639">
        <ele>1585.8</ele>
        <time>2022-10-28T11:57:44Z</time>
      </trkpt>
      <trkpt lat="44.42864" lon="3.69642">
        <ele>1585.8</ele>
        <time>2022-10-28T11:57:45Z</time>
      </trkpt>
      <trkpt lat="44.42863" lon="3.69645">
        <ele>1585.8</ele>
        <time>2022-10-28T11:57:46Z</time>
      </trkpt>
      <trkpt lat="44.42862" lon="3.69647">
        <ele>1586</ele>
        <time>2022-10-28T11:57:47Z</time>
      </trkpt>
      <trkpt lat="44.4286" lon="3.6965">
        <ele>1586</ele>
        <time>2022-10-28T11:57:48Z</time>
      </trkpt>
      <trkpt lat="44.42859" lon="3.69653">
        <ele>1586.2</ele>
        <time>2022-10-28T11:57:49Z</time>
      </trkpt>
      <trkpt lat="44.42858" lon="3.69655">
        <ele>1586.2</ele>
        <time>2022-10-28T11:57:50Z</time>
      </trkpt>
      <trkpt lat="44.42857" lon="3.69658">
        <ele>1586.4</ele>
        <time>2022-10-28T11:57:51Z</time>
      </trkpt>
      <trkpt lat="44.42855" lon="3.6966">
        <ele>1586.4</ele>
        <time>2022-10-28T11:57:52Z</time>
      </trkpt>
      <trkpt lat="44.42854" lon="3.69663">
        <ele>1586.6</ele>
        <time>2022-10-28T11:57:53Z</time>
      </trkpt>
      <trkpt lat="44.42853" lon="3.69666">
        <ele>1586.6</ele>
        <time>2022-10-28T11:57:54Z</time>
      </trkpt>
      <trkpt lat="44.42851" lon="3.69669">
        <ele>1586.8</ele>
        <time>2022-10-28T11:57:55Z</time>
      </trkpt>
      <trkpt lat="44.42849" lon="3.69671">
        <ele>1586.8</ele>
        <time>2022-10-28T11:57:56Z</time>
      </trkpt>
      <trkpt lat="44.42848" lon="3.69674">
        <ele>1587</ele>
        <time>2022-10-28T11:57:57Z</time>
      </trkpt>
      <trkpt lat="44.42847" lon="3.69676">
        <ele>1587</ele>
        <time>2022-10-28T11:57:58Z</time>
      </trkpt>
      <trkpt lat="44.42846" lon="3.69679">
        <ele>1587.2</ele>
        <time>2022-10-28T11:57:59Z</time>
      </trkpt>
      <trkpt lat="44.42845" lon="3.69682">
        <ele>1587.4</ele>
        <time>2022-10-28T11:58:00Z</time>
      </trkpt>
      <trkpt lat="44.42844" lon="3.69685">
        <ele>1587.4</ele>
        <time>2022-10-28T11:58:01Z</time>
      </trkpt>
      <trkpt lat="44.42842" lon="3.69687">
        <ele>1587.6</ele>
        <time>2022-10-28T11:58:02Z</time>
      </trkpt>
      <trkpt lat="44.42841" lon="3.6969">
        <ele>1587.8</ele>
        <time>2022-10-28T11:58:03Z</time>
      </trkpt>
      <trkpt lat="44.4284" lon="3.69693">
        <ele>1588</ele>
        <time>2022-10-28T11:58:04Z</time>
      </trkpt>
      <trkpt lat="44.42839" lon="3.69695">
        <ele>1588</ele>
        <time>2022-10-28T11:58:05Z</time>
      </trkpt>
      <trkpt lat="44.42838" lon="3.69698">
        <ele>1588.2</ele>
        <time>2022-10-28T11:58:06Z</time>
      </trkpt>
      <trkpt lat="44.42837" lon="3.69701">
        <ele>1588.4</ele>
        <time>2022-10-28T11:58:07Z</time>
      </trkpt>
      <trkpt lat="44.42836" lon="3.69703">
        <ele>1588.6</ele>
        <time>2022-10-28T11:58:08Z</time>
      </trkpt>
      <trkpt lat="44.42836" lon="3.69706">
        <ele>1588.8</ele>
        <time>2022-10-28T11:58:09Z</time>
      </trkpt>
      <trkpt lat="44.42835" lon="3.69709">
        <ele>1588.8</ele>
        <time>2022-10-28T11:58:10Z</time>
      </trkpt>
      <trkpt lat="44.42834" lon="3.69711">
        <ele>1588.8</ele>
        <time>2022-10-28T11:58:11Z</time>
      </trkpt>
      <trkpt lat="44.42832" lon="3.69714">
        <ele>1588.6</ele>
        <time>2022-10-28T11:58:12Z</time>
      </trkpt>
      <trkpt lat="44.4283" lon="3.69716">
        <ele>1588.6</ele>
        <time>2022-10-28T11:58:13Z</time>
      </trkpt>
      <trkpt lat="44.42829" lon="3.69719">
        <ele>1588.6</ele>
        <time>2022-10-28T11:58:14Z</time>
      </trkpt>
      <trkpt lat="44.42828" lon="3.69721">
        <ele>1588.6</ele>
        <time>2022-10-28T11:58:15Z</time>
      </trkpt>
      <trkpt lat="44.42826" lon="3.69724">
        <ele>1588.6</ele>
        <time>2022-10-28T11:58:16Z</time>
      </trkpt>
      <trkpt lat="44.42825" lon="3.69727">
        <ele>1588.8</ele>
        <time>2022-10-28T11:58:17Z</time>
      </trkpt>
      <trkpt lat="44.42823" lon="3.69729">
        <ele>1588.6</ele>
        <time>2022-10-28T11:58:18Z</time>
      </trkpt>
      <trkpt lat="44.42823" lon="3.6973">
        <ele>1588.6</ele>
        <time>2022-10-28T11:58:19Z</time>
      </trkpt>
      <trkpt lat="44.42823" lon="3.69731">
        <ele>1588.6</ele>
        <time>2022-10-28T11:58:20Z</time>
      </trkpt>
      <trkpt lat="44.42822" lon="3.69732">
        <ele>1588.6</ele>
        <time>2022-10-28T11:59:13Z</time>
      </trkpt>
      <trkpt lat="44.42821" lon="3.69734">
        <ele>1588.6</ele>
        <time>2022-10-28T11:59:14Z</time>
      </trkpt>
      <trkpt lat="44.4282" lon="3.69737">
        <ele>1588.6</ele>
        <time>2022-10-28T11:59:15Z</time>
      </trkpt>
      <trkpt lat="44.42818" lon="3.69739">
        <ele>1588.8</ele>
        <time>2022-10-28T11:59:16Z</time>
      </trkpt>
      <trkpt lat="44.42817" lon="3.69741">
        <ele>1588.8</ele>
        <time>2022-10-28T11:59:17Z</time>
      </trkpt>
      <trkpt lat="44.42816" lon="3.69743">
        <ele>1588.8</ele>
        <time>2022-10-28T11:59:18Z</time>
      </trkpt>
      <trkpt lat="44.42814" lon="3.69747">
        <ele>1589</ele>
        <time>2022-10-28T11:59:19Z</time>
      </trkpt>
      <trkpt lat="44.42813" lon="3.6975">
        <ele>1589</ele>
        <time>2022-10-28T11:59:20Z</time>
      </trkpt>
      <trkpt lat="44.42812" lon="3.69752">
        <ele>1589</ele>
        <time>2022-10-28T11:59:21Z</time>
      </trkpt>
      <trkpt lat="44.42811" lon="3.69755">
        <ele>1589.2</ele>
        <time>2022-10-28T11:59:22Z</time>
      </trkpt>
      <trkpt lat="44.4281" lon="3.69758">
        <ele>1589.2</ele>
        <time>2022-10-28T11:59:23Z</time>
      </trkpt>
      <trkpt lat="44.42809" lon="3.69761">
        <ele>1589.4</ele>
        <time>2022-10-28T11:59:24Z</time>
      </trkpt>
      <trkpt lat="44.42808" lon="3.69763">
        <ele>1589.6</ele>
        <time>2022-10-28T11:59:25Z</time>
      </trkpt>
      <trkpt lat="44.42806" lon="3.69766">
        <ele>1589.6</ele>
        <time>2022-10-28T11:59:26Z</time>
      </trkpt>
      <trkpt lat="44.42805" lon="3.69769">
        <ele>1589.6</ele>
        <time>2022-10-28T11:59:27Z</time>
      </trkpt>
      <trkpt lat="44.42804" lon="3.69772">
        <ele>1589.8</ele>
        <time>2022-10-28T11:59:28Z</time>
      </trkpt>
      <trkpt lat="44.42802" lon="3.69775">
        <ele>1589.8</ele>
        <time>2022-10-28T11:59:29Z</time>
      </trkpt>
      <trkpt lat="44.42801" lon="3.69778">
        <ele>1590</ele>
        <time>2022-10-28T11:59:30Z</time>
      </trkpt>
      <trkpt lat="44.428" lon="3.69781">
        <ele>1590</ele>
        <time>2022-10-28T11:59:31Z</time>
      </trkpt>
      <trkpt lat="44.42799" lon="3.69783">
        <ele>1590.2</ele>
        <time>2022-10-28T11:59:32Z</time>
      </trkpt>
      <trkpt lat="44.42797" lon="3.69786">
        <ele>1590.2</ele>
        <time>2022-10-28T11:59:33Z</time>
      </trkpt>
      <trkpt lat="44.42796" lon="3.69789">
        <ele>1590.4</ele>
        <time>2022-10-28T11:59:34Z</time>
      </trkpt>
      <trkpt lat="44.42794" lon="3.69792">
        <ele>1590.4</ele>
        <time>2022-10-28T11:59:35Z</time>
      </trkpt>
      <trkpt lat="44.42792" lon="3.69794">
        <ele>1590.4</ele>
        <time>2022-10-28T11:59:36Z</time>
      </trkpt>
      <trkpt lat="44.42791" lon="3.69797">
        <ele>1590.4</ele>
        <time>2022-10-28T11:59:37Z</time>
      </trkpt>
      <trkpt lat="44.42789" lon="3.69799">
        <ele>1590.4</ele>
        <time>2022-10-28T11:59:38Z</time>
      </trkpt>
      <trkpt lat="44.42788" lon="3.69802">
        <ele>1590.6</ele>
        <time>2022-10-28T11:59:39Z</time>
      </trkpt>
      <trkpt lat="44.42787" lon="3.69804">
        <ele>1590.6</ele>
        <time>2022-10-28T11:59:40Z</time>
      </trkpt>
      <trkpt lat="44.42785" lon="3.69807">
        <ele>1590.6</ele>
        <time>2022-10-28T11:59:41Z</time>
      </trkpt>
      <trkpt lat="44.42784" lon="3.6981">
        <ele>1590.8</ele>
        <time>2022-10-28T11:59:42Z</time>
      </trkpt>
      <trkpt lat="44.42783" lon="3.69813">
        <ele>1590.8</ele>
        <time>2022-10-28T11:59:43Z</time>
      </trkpt>
      <trkpt lat="44.42782" lon="3.69816">
        <ele>1590.8</ele>
        <time>2022-10-28T11:59:44Z</time>
      </trkpt>
      <trkpt lat="44.42781" lon="3.69819">
        <ele>1591</ele>
        <time>2022-10-28T11:59:45Z</time>
      </trkpt>
      <trkpt lat="44.42779" lon="3.69822">
        <ele>1591</ele>
        <time>2022-10-28T11:59:46Z</time>
      </trkpt>
      <trkpt lat="44.42778" lon="3.69824">
        <ele>1591</ele>
        <time>2022-10-28T11:59:47Z</time>
      </trkpt>
      <trkpt lat="44.42777" lon="3.69827">
        <ele>1591</ele>
        <time>2022-10-28T11:59:48Z</time>
      </trkpt>
      <trkpt lat="44.42776" lon="3.6983">
        <ele>1591.2</ele>
        <time>2022-10-28T11:59:49Z</time>
      </trkpt>
      <trkpt lat="44.42775" lon="3.69832">
        <ele>1591.2</ele>
        <time>2022-10-28T11:59:50Z</time>
      </trkpt>
      <trkpt lat="44.42774" lon="3.69835">
        <ele>1591.2</ele>
        <time>2022-10-28T11:59:51Z</time>
      </trkpt>
      <trkpt lat="44.42773" lon="3.69838">
        <ele>1591.2</ele>
        <time>2022-10-28T11:59:52Z</time>
      </trkpt>
      <trkpt lat="44.42772" lon="3.69841">
        <ele>1591.4</ele>
        <time>2022-10-28T11:59:53Z</time>
      </trkpt>
      <trkpt lat="44.42771" lon="3.69844">
        <ele>1591.4</ele>
        <time>2022-10-28T11:59:54Z</time>
      </trkpt>
      <trkpt lat="44.4277" lon="3.69847">
        <ele>1591.4</ele>
        <time>2022-10-28T11:59:55Z</time>
      </trkpt>
      <trkpt lat="44.42769" lon="3.69849">
        <ele>1591.6</ele>
        <time>2022-10-28T11:59:56Z</time>
      </trkpt>
      <trkpt lat="44.42768" lon="3.69852">
        <ele>1591.6</ele>
        <time>2022-10-28T11:59:57Z</time>
      </trkpt>
      <trkpt lat="44.42766" lon="3.69855">
        <ele>1591.8</ele>
        <time>2022-10-28T11:59:58Z</time>
      </trkpt>
      <trkpt lat="44.42765" lon="3.69858">
        <ele>1592</ele>
        <time>2022-10-28T11:59:59Z</time>
      </trkpt>
      <trkpt lat="44.42764" lon="3.69861">
        <ele>1592</ele>
        <time>2022-10-28T12:00:00Z</time>
      </trkpt>
      <trkpt lat="44.42763" lon="3.69863">
        <ele>1592</ele>
        <time>2022-10-28T12:00:01Z</time>
      </trkpt>
      <trkpt lat="44.42763" lon="3.69866">
        <ele>1592</ele>
        <time>2022-10-28T12:00:02Z</time>
      </trkpt>
      <trkpt lat="44.42762" lon="3.69869">
        <ele>1592</ele>
        <time>2022-10-28T12:00:03Z</time>
      </trkpt>
      <trkpt lat="44.42761" lon="3.69872">
        <ele>1592.2</ele>
        <time>2022-10-28T12:00:04Z</time>
      </trkpt>
      <trkpt lat="44.4276" lon="3.69875">
        <ele>1592.2</ele>
        <time>2022-10-28T12:00:05Z</time>
      </trkpt>
      <trkpt lat="44.4276" lon="3.69878">
        <ele>1592.4</ele>
        <time>2022-10-28T12:00:06Z</time>
      </trkpt>
      <trkpt lat="44.42759" lon="3.69881">
        <ele>1592.6</ele>
        <time>2022-10-28T12:00:07Z</time>
      </trkpt>
      <trkpt lat="44.42758" lon="3.69884">
        <ele>1592.6</ele>
        <time>2022-10-28T12:00:08Z</time>
      </trkpt>
      <trkpt lat="44.42757" lon="3.69887">
        <ele>1592.8</ele>
        <time>2022-10-28T12:00:09Z</time>
      </trkpt>
      <trkpt lat="44.42756" lon="3.6989">
        <ele>1593</ele>
        <time>2022-10-28T12:00:10Z</time>
      </trkpt>
      <trkpt lat="44.42756" lon="3.69893">
        <ele>1593</ele>
        <time>2022-10-28T12:00:11Z</time>
      </trkpt>
      <trkpt lat="44.42755" lon="3.69896">
        <ele>1593.2</ele>
        <time>2022-10-28T12:00:12Z</time>
      </trkpt>
      <trkpt lat="44.42754" lon="3.699">
        <ele>1593.2</ele>
        <time>2022-10-28T12:00:13Z</time>
      </trkpt>
      <trkpt lat="44.42754" lon="3.69903">
        <ele>1593.4</ele>
        <time>2022-10-28T12:00:14Z</time>
      </trkpt>
      <trkpt lat="44.42753" lon="3.69906">
        <ele>1593.6</ele>
        <time>2022-10-28T12:00:15Z</time>
      </trkpt>
      <trkpt lat="44.42752" lon="3.69909">
        <ele>1593.8</ele>
        <time>2022-10-28T12:00:16Z</time>
      </trkpt>
      <trkpt lat="44.42751" lon="3.69912">
        <ele>1593.8</ele>
        <time>2022-10-28T12:00:17Z</time>
      </trkpt>
      <trkpt lat="44.42751" lon="3.69915">
        <ele>1594</ele>
        <time>2022-10-28T12:00:18Z</time>
      </trkpt>
      <trkpt lat="44.4275" lon="3.69918">
        <ele>1594</ele>
        <time>2022-10-28T12:00:19Z</time>
      </trkpt>
      <trkpt lat="44.4275" lon="3.69922">
        <ele>1594</ele>
        <time>2022-10-28T12:00:20Z</time>
      </trkpt>
      <trkpt lat="44.4275" lon="3.69924">
        <ele>1594.2</ele>
        <time>2022-10-28T12:00:21Z</time>
      </trkpt>
      <trkpt lat="44.42749" lon="3.69927">
        <ele>1594.2</ele>
        <time>2022-10-28T12:00:22Z</time>
      </trkpt>
      <trkpt lat="44.42749" lon="3.69929">
        <ele>1594.4</ele>
        <time>2022-10-28T12:00:23Z</time>
      </trkpt>
      <trkpt lat="44.42749" lon="3.69931">
        <ele>1594.4</ele>
        <time>2022-10-28T12:00:24Z</time>
      </trkpt>
      <trkpt lat="44.42748" lon="3.69934">
        <ele>1594.6</ele>
        <time>2022-10-28T12:00:25Z</time>
      </trkpt>
      <trkpt lat="44.42747" lon="3.69938">
        <ele>1594.8</ele>
        <time>2022-10-28T12:00:26Z</time>
      </trkpt>
      <trkpt lat="44.42747" lon="3.69941">
        <ele>1594.8</ele>
        <time>2022-10-28T12:00:27Z</time>
      </trkpt>
      <trkpt lat="44.42746" lon="3.69944">
        <ele>1595</ele>
        <time>2022-10-28T12:00:28Z</time>
      </trkpt>
      <trkpt lat="44.42745" lon="3.69948">
        <ele>1595</ele>
        <time>2022-10-28T12:00:29Z</time>
      </trkpt>
      <trkpt lat="44.42745" lon="3.69952">
        <ele>1595</ele>
        <time>2022-10-28T12:00:30Z</time>
      </trkpt>
      <trkpt lat="44.42744" lon="3.69955">
        <ele>1595</ele>
        <time>2022-10-28T12:00:31Z</time>
      </trkpt>
      <trkpt lat="44.42744" lon="3.69959">
        <ele>1595.2</ele>
        <time>2022-10-28T12:00:32Z</time>
      </trkpt>
      <trkpt lat="44.42744" lon="3.69962">
        <ele>1595.2</ele>
        <time>2022-10-28T12:00:33Z</time>
      </trkpt>
      <trkpt lat="44.42744" lon="3.69966">
        <ele>1595.2</ele>
        <time>2022-10-28T12:00:34Z</time>
      </trkpt>
      <trkpt lat="44.42744" lon="3.69969">
        <ele>1595.4</ele>
        <time>2022-10-28T12:00:35Z</time>
      </trkpt>
      <trkpt lat="44.42745" lon="3.69972">
        <ele>1595.4</ele>
        <time>2022-10-28T12:00:36Z</time>
      </trkpt>
      <trkpt lat="44.42745" lon="3.69975">
        <ele>1595.6</ele>
        <time>2022-10-28T12:00:37Z</time>
      </trkpt>
      <trkpt lat="44.42746" lon="3.69978">
        <ele>1595.8</ele>
        <time>2022-10-28T12:00:38Z</time>
      </trkpt>
      <trkpt lat="44.42747" lon="3.69981">
        <ele>1595.8</ele>
        <time>2022-10-28T12:00:39Z</time>
      </trkpt>
      <trkpt lat="44.42748" lon="3.69984">
        <ele>1596</ele>
        <time>2022-10-28T12:00:40Z</time>
      </trkpt>
      <trkpt lat="44.42749" lon="3.69987">
        <ele>1596</ele>
        <time>2022-10-28T12:00:41Z</time>
      </trkpt>
      <trkpt lat="44.42749" lon="3.6999">
        <ele>1596.2</ele>
        <time>2022-10-28T12:00:42Z</time>
      </trkpt>
      <trkpt lat="44.42751" lon="3.69992">
        <ele>1596.2</ele>
        <time>2022-10-28T12:00:43Z</time>
      </trkpt>
      <trkpt lat="44.42752" lon="3.69995">
        <ele>1596.4</ele>
        <time>2022-10-28T12:00:44Z</time>
      </trkpt>
      <trkpt lat="44.42752" lon="3.69998">
        <ele>1596.4</ele>
        <time>2022-10-28T12:00:45Z</time>
      </trkpt>
      <trkpt lat="44.42754" lon="3.70001">
        <ele>1596.6</ele>
        <time>2022-10-28T12:00:46Z</time>
      </trkpt>
      <trkpt lat="44.42755" lon="3.70004">
        <ele>1596.6</ele>
        <time>2022-10-28T12:00:47Z</time>
      </trkpt>
      <trkpt lat="44.42756" lon="3.70007">
        <ele>1596.8</ele>
        <time>2022-10-28T12:00:48Z</time>
      </trkpt>
      <trkpt lat="44.42757" lon="3.7001">
        <ele>1596.8</ele>
        <time>2022-10-28T12:00:49Z</time>
      </trkpt>
      <trkpt lat="44.42758" lon="3.70013">
        <ele>1596.8</ele>
        <time>2022-10-28T12:00:50Z</time>
      </trkpt>
      <trkpt lat="44.42759" lon="3.70016">
        <ele>1597</ele>
        <time>2022-10-28T12:00:51Z</time>
      </trkpt>
      <trkpt lat="44.4276" lon="3.7002">
        <ele>1597</ele>
        <time>2022-10-28T12:00:52Z</time>
      </trkpt>
      <trkpt lat="44.42762" lon="3.70023">
        <ele>1597.2</ele>
        <time>2022-10-28T12:00:53Z</time>
      </trkpt>
      <trkpt lat="44.42762" lon="3.70026">
        <ele>1597.2</ele>
        <time>2022-10-28T12:00:54Z</time>
      </trkpt>
      <trkpt lat="44.42764" lon="3.70029">
        <ele>1597.2</ele>
        <time>2022-10-28T12:00:55Z</time>
      </trkpt>
      <trkpt lat="44.42765" lon="3.70032">
        <ele>1597.4</ele>
        <time>2022-10-28T12:00:56Z</time>
      </trkpt>
      <trkpt lat="44.42766" lon="3.70035">
        <ele>1597.4</ele>
        <time>2022-10-28T12:00:57Z</time>
      </trkpt>
      <trkpt lat="44.42767" lon="3.70038">
        <ele>1597.4</ele>
        <time>2022-10-28T12:00:58Z</time>
      </trkpt>
      <trkpt lat="44.42768" lon="3.70041">
        <ele>1597.6</ele>
        <time>2022-10-28T12:00:59Z</time>
      </trkpt>
      <trkpt lat="44.42769" lon="3.70044">
        <ele>1597.6</ele>
        <time>2022-10-28T12:01:00Z</time>
      </trkpt>
      <trkpt lat="44.4277" lon="3.70047">
        <ele>1597.8</ele>
        <time>2022-10-28T12:01:01Z</time>
      </trkpt>
      <trkpt lat="44.42772" lon="3.70051">
        <ele>1597.8</ele>
        <time>2022-10-28T12:01:02Z</time>
      </trkpt>
      <trkpt lat="44.42773" lon="3.70054">
        <ele>1598</ele>
        <time>2022-10-28T12:01:03Z</time>
      </trkpt>
      <trkpt lat="44.42774" lon="3.70057">
        <ele>1598.2</ele>
        <time>2022-10-28T12:01:04Z</time>
      </trkpt>
      <trkpt lat="44.42775" lon="3.7006">
        <ele>1598.2</ele>
        <time>2022-10-28T12:01:05Z</time>
      </trkpt>
      <trkpt lat="44.42776" lon="3.70063">
        <ele>1598.2</ele>
        <time>2022-10-28T12:01:06Z</time>
      </trkpt>
      <trkpt lat="44.42777" lon="3.70065">
        <ele>1598.4</ele>
        <time>2022-10-28T12:01:07Z</time>
      </trkpt>
      <trkpt lat="44.42778" lon="3.70068">
        <ele>1598.4</ele>
        <time>2022-10-28T12:01:08Z</time>
      </trkpt>
      <trkpt lat="44.42779" lon="3.70071">
        <ele>1598.6</ele>
        <time>2022-10-28T12:01:09Z</time>
      </trkpt>
      <trkpt lat="44.4278" lon="3.70074">
        <ele>1598.6</ele>
        <time>2022-10-28T12:01:10Z</time>
      </trkpt>
      <trkpt lat="44.42781" lon="3.70077">
        <ele>1598.8</ele>
        <time>2022-10-28T12:01:11Z</time>
      </trkpt>
      <trkpt lat="44.42782" lon="3.7008">
        <ele>1598.8</ele>
        <time>2022-10-28T12:01:12Z</time>
      </trkpt>
      <trkpt lat="44.42784" lon="3.70082">
        <ele>1599</ele>
        <time>2022-10-28T12:01:13Z</time>
      </trkpt>
      <trkpt lat="44.42784" lon="3.70085">
        <ele>1599.2</ele>
        <time>2022-10-28T12:01:14Z</time>
      </trkpt>
      <trkpt lat="44.42785" lon="3.70088">
        <ele>1599.2</ele>
        <time>2022-10-28T12:01:15Z</time>
      </trkpt>
      <trkpt lat="44.42786" lon="3.70091">
        <ele>1599.4</ele>
        <time>2022-10-28T12:01:16Z</time>
      </trkpt>
      <trkpt lat="44.42787" lon="3.70093">
        <ele>1599.4</ele>
        <time>2022-10-28T12:01:17Z</time>
      </trkpt>
      <trkpt lat="44.42788" lon="3.70096">
        <ele>1599.6</ele>
        <time>2022-10-28T12:01:18Z</time>
      </trkpt>
      <trkpt lat="44.42789" lon="3.70099">
        <ele>1599.8</ele>
        <time>2022-10-28T12:01:19Z</time>
      </trkpt>
      <trkpt lat="44.4279" lon="3.70102">
        <ele>1599.8</ele>
        <time>2022-10-28T12:01:20Z</time>
      </trkpt>
      <trkpt lat="44.42791" lon="3.70106">
        <ele>1600</ele>
        <time>2022-10-28T12:01:21Z</time>
      </trkpt>
      <trkpt lat="44.42791" lon="3.70109">
        <ele>1600</ele>
        <time>2022-10-28T12:01:22Z</time>
      </trkpt>
      <trkpt lat="44.42792" lon="3.70112">
        <ele>1600</ele>
        <time>2022-10-28T12:01:23Z</time>
      </trkpt>
      <trkpt lat="44.42792" lon="3.70115">
        <ele>1600.2</ele>
        <time>2022-10-28T12:01:24Z</time>
      </trkpt>
      <trkpt lat="44.42793" lon="3.70118">
        <ele>1600.2</ele>
        <time>2022-10-28T12:01:25Z</time>
      </trkpt>
      <trkpt lat="44.42794" lon="3.70122">
        <ele>1600.2</ele>
        <time>2022-10-28T12:01:26Z</time>
      </trkpt>
      <trkpt lat="44.42795" lon="3.70125">
        <ele>1600.4</ele>
        <time>2022-10-28T12:01:27Z</time>
      </trkpt>
      <trkpt lat="44.42795" lon="3.70128">
        <ele>1600.4</ele>
        <time>2022-10-28T12:01:28Z</time>
      </trkpt>
      <trkpt lat="44.42796" lon="3.70132">
        <ele>1600.4</ele>
        <time>2022-10-28T12:01:29Z</time>
      </trkpt>
      <trkpt lat="44.42797" lon="3.70135">
        <ele>1600.4</ele>
        <time>2022-10-28T12:01:30Z</time>
      </trkpt>
      <trkpt lat="44.42797" lon="3.70139">
        <ele>1600.6</ele>
        <time>2022-10-28T12:01:31Z</time>
      </trkpt>
      <trkpt lat="44.42798" lon="3.70142">
        <ele>1600.6</ele>
        <time>2022-10-28T12:01:32Z</time>
      </trkpt>
      <trkpt lat="44.42799" lon="3.70146">
        <ele>1600.6</ele>
        <time>2022-10-28T12:01:33Z</time>
      </trkpt>
      <trkpt lat="44.42799" lon="3.7015">
        <ele>1600.6</ele>
        <time>2022-10-28T12:01:34Z</time>
      </trkpt>
      <trkpt lat="44.428" lon="3.70154">
        <ele>1600.8</ele>
        <time>2022-10-28T12:01:35Z</time>
      </trkpt>
      <trkpt lat="44.42801" lon="3.70158">
        <ele>1600.8</ele>
        <time>2022-10-28T12:01:36Z</time>
      </trkpt>
      <trkpt lat="44.42802" lon="3.70162">
        <ele>1600.8</ele>
        <time>2022-10-28T12:01:37Z</time>
      </trkpt>
      <trkpt lat="44.42802" lon="3.70166">
        <ele>1600.6</ele>
        <time>2022-10-28T12:01:38Z</time>
      </trkpt>
      <trkpt lat="44.42803" lon="3.7017">
        <ele>1600.8</ele>
        <time>2022-10-28T12:01:39Z</time>
      </trkpt>
      <trkpt lat="44.42804" lon="3.70174">
        <ele>1600.8</ele>
        <time>2022-10-28T12:01:40Z</time>
      </trkpt>
      <trkpt lat="44.42804" lon="3.70178">
        <ele>1600.8</ele>
        <time>2022-10-28T12:01:41Z</time>
      </trkpt>
      <trkpt lat="44.42805" lon="3.70182">
        <ele>1600.8</ele>
        <time>2022-10-28T12:01:42Z</time>
      </trkpt>
      <trkpt lat="44.42805" lon="3.70187">
        <ele>1600.8</ele>
        <time>2022-10-28T12:01:43Z</time>
      </trkpt>
      <trkpt lat="44.42806" lon="3.70191">
        <ele>1600.8</ele>
        <time>2022-10-28T12:01:44Z</time>
      </trkpt>
      <trkpt lat="44.42807" lon="3.70195">
        <ele>1600.8</ele>
        <time>2022-10-28T12:01:45Z</time>
      </trkpt>
      <trkpt lat="44.42807" lon="3.70199">
        <ele>1600.8</ele>
        <time>2022-10-28T12:01:46Z</time>
      </trkpt>
      <trkpt lat="44.42808" lon="3.70203">
        <ele>1600.8</ele>
        <time>2022-10-28T12:01:47Z</time>
      </trkpt>
      <trkpt lat="44.42808" lon="3.70207">
        <ele>1600.8</ele>
        <time>2022-10-28T12:01:48Z</time>
      </trkpt>
      <trkpt lat="44.42809" lon="3.70211">
        <ele>1601</ele>
        <time>2022-10-28T12:01:49Z</time>
      </trkpt>
      <trkpt lat="44.4281" lon="3.70215">
        <ele>1601</ele>
        <time>2022-10-28T12:01:50Z</time>
      </trkpt>
      <trkpt lat="44.4281" lon="3.70219">
        <ele>1601</ele>
        <time>2022-10-28T12:01:51Z</time>
      </trkpt>
      <trkpt lat="44.42811" lon="3.70223">
        <ele>1601</ele>
        <time>2022-10-28T12:01:52Z</time>
      </trkpt>
      <trkpt lat="44.42812" lon="3.70228">
        <ele>1601</ele>
        <time>2022-10-28T12:01:53Z</time>
      </trkpt>
      <trkpt lat="44.42813" lon="3.70232">
        <ele>1601</ele>
        <time>2022-10-28T12:01:54Z</time>
      </trkpt>
      <trkpt lat="44.42813" lon="3.70236">
        <ele>1601</ele>
        <time>2022-10-28T12:01:55Z</time>
      </trkpt>
      <trkpt lat="44.42814" lon="3.7024">
        <ele>1601</ele>
        <time>2022-10-28T12:01:56Z</time>
      </trkpt>
      <trkpt lat="44.42814" lon="3.70244">
        <ele>1601</ele>
        <time>2022-10-28T12:01:57Z</time>
      </trkpt>
      <trkpt lat="44.42815" lon="3.70249">
        <ele>1601.2</ele>
        <time>2022-10-28T12:01:58Z</time>
      </trkpt>
      <trkpt lat="44.42816" lon="3.70253">
        <ele>1601.2</ele>
        <time>2022-10-28T12:01:59Z</time>
      </trkpt>
      <trkpt lat="44.42816" lon="3.70257">
        <ele>1601.4</ele>
        <time>2022-10-28T12:02:00Z</time>
      </trkpt>
      <trkpt lat="44.42816" lon="3.70261">
        <ele>1601.4</ele>
        <time>2022-10-28T12:02:01Z</time>
      </trkpt>
      <trkpt lat="44.42817" lon="3.70266">
        <ele>1601.6</ele>
        <time>2022-10-28T12:02:02Z</time>
      </trkpt>
      <trkpt lat="44.42817" lon="3.7027">
        <ele>1601.6</ele>
        <time>2022-10-28T12:02:03Z</time>
      </trkpt>
      <trkpt lat="44.42818" lon="3.70274">
        <ele>1601.8</ele>
        <time>2022-10-28T12:02:04Z</time>
      </trkpt>
      <trkpt lat="44.42818" lon="3.70279">
        <ele>1601.8</ele>
        <time>2022-10-28T12:02:05Z</time>
      </trkpt>
      <trkpt lat="44.42819" lon="3.70283">
        <ele>1601.8</ele>
        <time>2022-10-28T12:02:06Z</time>
      </trkpt>
      <trkpt lat="44.42819" lon="3.70287">
        <ele>1602</ele>
        <time>2022-10-28T12:02:07Z</time>
      </trkpt>
      <trkpt lat="44.4282" lon="3.70291">
        <ele>1602</ele>
        <time>2022-10-28T12:02:08Z</time>
      </trkpt>
      <trkpt lat="44.4282" lon="3.70296">
        <ele>1602</ele>
        <time>2022-10-28T12:02:09Z</time>
      </trkpt>
      <trkpt lat="44.42821" lon="3.703">
        <ele>1602</ele>
        <time>2022-10-28T12:02:10Z</time>
      </trkpt>
      <trkpt lat="44.42821" lon="3.70305">
        <ele>1602</ele>
        <time>2022-10-28T12:02:11Z</time>
      </trkpt>
      <trkpt lat="44.42821" lon="3.7031">
        <ele>1602.2</ele>
        <time>2022-10-28T12:02:12Z</time>
      </trkpt>
      <trkpt lat="44.42822" lon="3.70314">
        <ele>1602.2</ele>
        <time>2022-10-28T12:02:13Z</time>
      </trkpt>
      <trkpt lat="44.42822" lon="3.70318">
        <ele>1602.2</ele>
        <time>2022-10-28T12:02:14Z</time>
      </trkpt>
      <trkpt lat="44.42822" lon="3.70322">
        <ele>1602.4</ele>
        <time>2022-10-28T12:02:15Z</time>
      </trkpt>
      <trkpt lat="44.42822" lon="3.70326">
        <ele>1602.4</ele>
        <time>2022-10-28T12:02:16Z</time>
      </trkpt>
      <trkpt lat="44.42823" lon="3.70329">
        <ele>1602.6</ele>
        <time>2022-10-28T12:02:17Z</time>
      </trkpt>
      <trkpt lat="44.42823" lon="3.70333">
        <ele>1602.6</ele>
        <time>2022-10-28T12:02:18Z</time>
      </trkpt>
      <trkpt lat="44.42823" lon="3.70336">
        <ele>1602.8</ele>
        <time>2022-10-28T12:02:19Z</time>
      </trkpt>
      <trkpt lat="44.42824" lon="3.7034">
        <ele>1602.8</ele>
        <time>2022-10-28T12:02:20Z</time>
      </trkpt>
      <trkpt lat="44.42824" lon="3.70344">
        <ele>1603</ele>
        <time>2022-10-28T12:02:21Z</time>
      </trkpt>
      <trkpt lat="44.42824" lon="3.70348">
        <ele>1603.2</ele>
        <time>2022-10-28T12:02:22Z</time>
      </trkpt>
      <trkpt lat="44.42824" lon="3.70352">
        <ele>1603.2</ele>
        <time>2022-10-28T12:02:23Z</time>
      </trkpt>
      <trkpt lat="44.42825" lon="3.70355">
        <ele>1603.4</ele>
        <time>2022-10-28T12:02:24Z</time>
      </trkpt>
      <trkpt lat="44.42825" lon="3.70359">
        <ele>1603.4</ele>
        <time>2022-10-28T12:02:25Z</time>
      </trkpt>
      <trkpt lat="44.42825" lon="3.70362">
        <ele>1603.6</ele>
        <time>2022-10-28T12:02:26Z</time>
      </trkpt>
      <trkpt lat="44.42825" lon="3.70366">
        <ele>1603.8</ele>
        <time>2022-10-28T12:02:27Z</time>
      </trkpt>
      <trkpt lat="44.42825" lon="3.70369">
        <ele>1603.8</ele>
        <time>2022-10-28T12:02:28Z</time>
      </trkpt>
      <trkpt lat="44.42825" lon="3.70373">
        <ele>1604</ele>
        <time>2022-10-28T12:02:29Z</time>
      </trkpt>
      <trkpt lat="44.42826" lon="3.70376">
        <ele>1604.2</ele>
        <time>2022-10-28T12:02:30Z</time>
      </trkpt>
      <trkpt lat="44.42826" lon="3.70379">
        <ele>1604.4</ele>
        <time>2022-10-28T12:02:31Z</time>
      </trkpt>
      <trkpt lat="44.42826" lon="3.70383">
        <ele>1604.4</ele>
        <time>2022-10-28T12:02:32Z</time>
      </trkpt>
      <trkpt lat="44.42826" lon="3.70386">
        <ele>1604.6</ele>
        <time>2022-10-28T12:02:33Z</time>
      </trkpt>
      <trkpt lat="44.42826" lon="3.70389">
        <ele>1604.8</ele>
        <time>2022-10-28T12:02:34Z</time>
      </trkpt>
      <trkpt lat="44.42827" lon="3.70393">
        <ele>1605</ele>
        <time>2022-10-28T12:02:35Z</time>
      </trkpt>
      <trkpt lat="44.42827" lon="3.70396">
        <ele>1605.2</ele>
        <time>2022-10-28T12:02:36Z</time>
      </trkpt>
      <trkpt lat="44.42827" lon="3.704">
        <ele>1605.4</ele>
        <time>2022-10-28T12:02:37Z</time>
      </trkpt>
      <trkpt lat="44.42827" lon="3.70403">
        <ele>1605.6</ele>
        <time>2022-10-28T12:02:38Z</time>
      </trkpt>
      <trkpt lat="44.42827" lon="3.70407">
        <ele>1605.6</ele>
        <time>2022-10-28T12:02:39Z</time>
      </trkpt>
      <trkpt lat="44.42827" lon="3.70411">
        <ele>1605.8</ele>
        <time>2022-10-28T12:02:40Z</time>
      </trkpt>
      <trkpt lat="44.42827" lon="3.70414">
        <ele>1605.8</ele>
        <time>2022-10-28T12:02:41Z</time>
      </trkpt>
      <trkpt lat="44.42827" lon="3.70418">
        <ele>1605.8</ele>
        <time>2022-10-28T12:02:42Z</time>
      </trkpt>
      <trkpt lat="44.42827" lon="3.70422">
        <ele>1606</ele>
        <time>2022-10-28T12:02:43Z</time>
      </trkpt>
      <trkpt lat="44.42827" lon="3.70426">
        <ele>1606</ele>
        <time>2022-10-28T12:02:44Z</time>
      </trkpt>
      <trkpt lat="44.42827" lon="3.7043">
        <ele>1606</ele>
        <time>2022-10-28T12:02:45Z</time>
      </trkpt>
      <trkpt lat="44.42827" lon="3.70434">
        <ele>1606.2</ele>
        <time>2022-10-28T12:02:46Z</time>
      </trkpt>
      <trkpt lat="44.42827" lon="3.70437">
        <ele>1606.2</ele>
        <time>2022-10-28T12:02:47Z</time>
      </trkpt>
      <trkpt lat="44.42827" lon="3.70442">
        <ele>1606.2</ele>
        <time>2022-10-28T12:02:48Z</time>
      </trkpt>
      <trkpt lat="44.42827" lon="3.70446">
        <ele>1606.2</ele>
        <time>2022-10-28T12:02:49Z</time>
      </trkpt>
      <trkpt lat="44.42827" lon="3.7045">
        <ele>1606.2</ele>
        <time>2022-10-28T12:02:50Z</time>
      </trkpt>
      <trkpt lat="44.42826" lon="3.70454">
        <ele>1606.2</ele>
        <time>2022-10-28T12:02:51Z</time>
      </trkpt>
      <trkpt lat="44.42826" lon="3.70458">
        <ele>1606.4</ele>
        <time>2022-10-28T12:02:52Z</time>
      </trkpt>
      <trkpt lat="44.42826" lon="3.70462">
        <ele>1606.4</ele>
        <time>2022-10-28T12:02:53Z</time>
      </trkpt>
      <trkpt lat="44.42826" lon="3.70466">
        <ele>1606.4</ele>
        <time>2022-10-28T12:02:54Z</time>
      </trkpt>
      <trkpt lat="44.42825" lon="3.7047">
        <ele>1606.4</ele>
        <time>2022-10-28T12:02:55Z</time>
      </trkpt>
      <trkpt lat="44.42825" lon="3.70475">
        <ele>1606.6</ele>
        <time>2022-10-28T12:02:56Z</time>
      </trkpt>
      <trkpt lat="44.42825" lon="3.70479">
        <ele>1606.6</ele>
        <time>2022-10-28T12:02:57Z</time>
      </trkpt>
      <trkpt lat="44.42824" lon="3.70483">
        <ele>1606.6</ele>
        <time>2022-10-28T12:02:58Z</time>
      </trkpt>
      <trkpt lat="44.42824" lon="3.70487">
        <ele>1606.8</ele>
        <time>2022-10-28T12:02:59Z</time>
      </trkpt>
      <trkpt lat="44.42823" lon="3.70491">
        <ele>1606.8</ele>
        <time>2022-10-28T12:03:00Z</time>
      </trkpt>
      <trkpt lat="44.42823" lon="3.70495">
        <ele>1607</ele>
        <time>2022-10-28T12:03:01Z</time>
      </trkpt>
      <trkpt lat="44.42822" lon="3.70499">
        <ele>1607</ele>
        <time>2022-10-28T12:03:02Z</time>
      </trkpt>
      <trkpt lat="44.42821" lon="3.70503">
        <ele>1607</ele>
        <time>2022-10-28T12:03:03Z</time>
      </trkpt>
      <trkpt lat="44.4282" lon="3.70507">
        <ele>1607</ele>
        <time>2022-10-28T12:03:04Z</time>
      </trkpt>
      <trkpt lat="44.42819" lon="3.70511">
        <ele>1607</ele>
        <time>2022-10-28T12:03:05Z</time>
      </trkpt>
      <trkpt lat="44.42819" lon="3.70515">
        <ele>1607.2</ele>
        <time>2022-10-28T12:03:06Z</time>
      </trkpt>
      <trkpt lat="44.42817" lon="3.70519">
        <ele>1607.2</ele>
        <time>2022-10-28T12:03:07Z</time>
      </trkpt>
      <trkpt lat="44.42817" lon="3.70523">
        <ele>1607.4</ele>
        <time>2022-10-28T12:03:08Z</time>
      </trkpt>
      <trkpt lat="44.42816" lon="3.70527">
        <ele>1607.4</ele>
        <time>2022-10-28T12:03:09Z</time>
      </trkpt>
      <trkpt lat="44.42815" lon="3.7053">
        <ele>1607.4</ele>
        <time>2022-10-28T12:03:10Z</time>
      </trkpt>
      <trkpt lat="44.42813" lon="3.70534">
        <ele>1607.6</ele>
        <time>2022-10-28T12:03:11Z</time>
      </trkpt>
      <trkpt lat="44.42812" lon="3.70538">
        <ele>1607.6</ele>
        <time>2022-10-28T12:03:12Z</time>
      </trkpt>
      <trkpt lat="44.4281" lon="3.70542">
        <ele>1607.6</ele>
        <time>2022-10-28T12:03:13Z</time>
      </trkpt>
      <trkpt lat="44.42809" lon="3.70546">
        <ele>1607.6</ele>
        <time>2022-10-28T12:03:14Z</time>
      </trkpt>
      <trkpt lat="44.42808" lon="3.70549">
        <ele>1607.8</ele>
        <time>2022-10-28T12:03:15Z</time>
      </trkpt>
      <trkpt lat="44.42806" lon="3.70554">
        <ele>1607.8</ele>
        <time>2022-10-28T12:03:16Z</time>
      </trkpt>
      <trkpt lat="44.42804" lon="3.70558">
        <ele>1607.8</ele>
        <time>2022-10-28T12:03:17Z</time>
      </trkpt>
      <trkpt lat="44.42803" lon="3.70562">
        <ele>1607.8</ele>
        <time>2022-10-28T12:03:18Z</time>
      </trkpt>
      <trkpt lat="44.42802" lon="3.70566">
        <ele>1607.8</ele>
        <time>2022-10-28T12:03:19Z</time>
      </trkpt>
      <trkpt lat="44.428" lon="3.7057">
        <ele>1607.8</ele>
        <time>2022-10-28T12:03:20Z</time>
      </trkpt>
      <trkpt lat="44.42799" lon="3.70574">
        <ele>1607.8</ele>
        <time>2022-10-28T12:03:21Z</time>
      </trkpt>
      <trkpt lat="44.42797" lon="3.70578">
        <ele>1607.8</ele>
        <time>2022-10-28T12:03:22Z</time>
      </trkpt>
      <trkpt lat="44.42796" lon="3.70582">
        <ele>1607.8</ele>
        <time>2022-10-28T12:03:23Z</time>
      </trkpt>
      <trkpt lat="44.42795" lon="3.70586">
        <ele>1608</ele>
        <time>2022-10-28T12:03:24Z</time>
      </trkpt>
      <trkpt lat="44.42793" lon="3.7059">
        <ele>1608</ele>
        <time>2022-10-28T12:03:25Z</time>
      </trkpt>
      <trkpt lat="44.42791" lon="3.70593">
        <ele>1608</ele>
        <time>2022-10-28T12:03:26Z</time>
      </trkpt>
      <trkpt lat="44.42789" lon="3.70598">
        <ele>1608</ele>
        <time>2022-10-28T12:03:27Z</time>
      </trkpt>
      <trkpt lat="44.42788" lon="3.70602">
        <ele>1607.8</ele>
        <time>2022-10-28T12:03:28Z</time>
      </trkpt>
      <trkpt lat="44.42787" lon="3.70606">
        <ele>1607.8</ele>
        <time>2022-10-28T12:03:29Z</time>
      </trkpt>
      <trkpt lat="44.42786" lon="3.70611">
        <ele>1607.8</ele>
        <time>2022-10-28T12:03:30Z</time>
      </trkpt>
      <trkpt lat="44.42785" lon="3.70615">
        <ele>1607.8</ele>
        <time>2022-10-28T12:03:31Z</time>
      </trkpt>
      <trkpt lat="44.42784" lon="3.70619">
        <ele>1607.8</ele>
        <time>2022-10-28T12:03:32Z</time>
      </trkpt>
      <trkpt lat="44.42782" lon="3.70623">
        <ele>1607.8</ele>
        <time>2022-10-28T12:03:33Z</time>
      </trkpt>
      <trkpt lat="44.4278" lon="3.70626">
        <ele>1607.6</ele>
        <time>2022-10-28T12:03:34Z</time>
      </trkpt>
      <trkpt lat="44.42778" lon="3.70629">
        <ele>1607.6</ele>
        <time>2022-10-28T12:03:35Z</time>
      </trkpt>
      <trkpt lat="44.42776" lon="3.70632">
        <ele>1607.4</ele>
        <time>2022-10-28T12:03:36Z</time>
      </trkpt>
      <trkpt lat="44.42775" lon="3.70635">
        <ele>1607.4</ele>
        <time>2022-10-28T12:03:37Z</time>
      </trkpt>
      <trkpt lat="44.42772" lon="3.70638">
        <ele>1607.2</ele>
        <time>2022-10-28T12:03:38Z</time>
      </trkpt>
      <trkpt lat="44.4277" lon="3.70641">
        <ele>1607.2</ele>
        <time>2022-10-28T12:03:39Z</time>
      </trkpt>
      <trkpt lat="44.42769" lon="3.70645">
        <ele>1607.2</ele>
        <time>2022-10-28T12:03:40Z</time>
      </trkpt>
      <trkpt lat="44.42768" lon="3.7065">
        <ele>1607</ele>
        <time>2022-10-28T12:03:41Z</time>
      </trkpt>
      <trkpt lat="44.42766" lon="3.70655">
        <ele>1607</ele>
        <time>2022-10-28T12:03:42Z</time>
      </trkpt>
      <trkpt lat="44.42765" lon="3.70659">
        <ele>1607</ele>
        <time>2022-10-28T12:03:43Z</time>
      </trkpt>
      <trkpt lat="44.42763" lon="3.70664">
        <ele>1606.8</ele>
        <time>2022-10-28T12:03:44Z</time>
      </trkpt>
      <trkpt lat="44.42762" lon="3.70668">
        <ele>1606.8</ele>
        <time>2022-10-28T12:03:45Z</time>
      </trkpt>
      <trkpt lat="44.4276" lon="3.70673">
        <ele>1606.6</ele>
        <time>2022-10-28T12:03:46Z</time>
      </trkpt>
      <trkpt lat="44.42759" lon="3.70676">
        <ele>1606.6</ele>
        <time>2022-10-28T12:03:47Z</time>
      </trkpt>
      <trkpt lat="44.42757" lon="3.7068">
        <ele>1606.6</ele>
        <time>2022-10-28T12:03:48Z</time>
      </trkpt>
      <trkpt lat="44.42756" lon="3.70684">
        <ele>1606.4</ele>
        <time>2022-10-28T12:03:49Z</time>
      </trkpt>
      <trkpt lat="44.42754" lon="3.70688">
        <ele>1606.4</ele>
        <time>2022-10-28T12:03:50Z</time>
      </trkpt>
      <trkpt lat="44.42753" lon="3.70691">
        <ele>1606.2</ele>
        <time>2022-10-28T12:03:51Z</time>
      </trkpt>
      <trkpt lat="44.42752" lon="3.70694">
        <ele>1606.2</ele>
        <time>2022-10-28T12:03:52Z</time>
      </trkpt>
      <trkpt lat="44.42751" lon="3.70697">
        <ele>1606.2</ele>
        <time>2022-10-28T12:03:53Z</time>
      </trkpt>
      <trkpt lat="44.4275" lon="3.707">
        <ele>1606.2</ele>
        <time>2022-10-28T12:03:54Z</time>
      </trkpt>
      <trkpt lat="44.42749" lon="3.70703">
        <ele>1606.2</ele>
        <time>2022-10-28T12:03:55Z</time>
      </trkpt>
      <trkpt lat="44.42747" lon="3.70706">
        <ele>1606.2</ele>
        <time>2022-10-28T12:03:56Z</time>
      </trkpt>
      <trkpt lat="44.42745" lon="3.7071">
        <ele>1606.2</ele>
        <time>2022-10-28T12:03:57Z</time>
      </trkpt>
      <trkpt lat="44.42744" lon="3.70714">
        <ele>1606.2</ele>
        <time>2022-10-28T12:03:58Z</time>
      </trkpt>
      <trkpt lat="44.42743" lon="3.70719">
        <ele>1606.2</ele>
        <time>2022-10-28T12:03:59Z</time>
      </trkpt>
      <trkpt lat="44.42741" lon="3.70724">
        <ele>1606.2</ele>
        <time>2022-10-28T12:04:00Z</time>
      </trkpt>
      <trkpt lat="44.4274" lon="3.70729">
        <ele>1606.2</ele>
        <time>2022-10-28T12:04:01Z</time>
      </trkpt>
      <trkpt lat="44.42739" lon="3.70734">
        <ele>1606.2</ele>
        <time>2022-10-28T12:04:02Z</time>
      </trkpt>
      <trkpt lat="44.42738" lon="3.70738">
        <ele>1606.2</ele>
        <time>2022-10-28T12:04:03Z</time>
      </trkpt>
      <trkpt lat="44.42737" lon="3.70743">
        <ele>1606.2</ele>
        <time>2022-10-28T12:04:04Z</time>
      </trkpt>
      <trkpt lat="44.42736" lon="3.70747">
        <ele>1606.2</ele>
        <time>2022-10-28T12:04:05Z</time>
      </trkpt>
      <trkpt lat="44.42735" lon="3.70751">
        <ele>1606.2</ele>
        <time>2022-10-28T12:04:06Z</time>
      </trkpt>
      <trkpt lat="44.42734" lon="3.70756">
        <ele>1606.2</ele>
        <time>2022-10-28T12:04:07Z</time>
      </trkpt>
      <trkpt lat="44.42734" lon="3.70761">
        <ele>1606.2</ele>
        <time>2022-10-28T12:04:08Z</time>
      </trkpt>
      <trkpt lat="44.42734" lon="3.70766">
        <ele>1606.2</ele>
        <time>2022-10-28T12:04:09Z</time>
      </trkpt>
      <trkpt lat="44.42734" lon="3.70771">
        <ele>1606.2</ele>
        <time>2022-10-28T12:04:10Z</time>
      </trkpt>
      <trkpt lat="44.42734" lon="3.70776">
        <ele>1606.2</ele>
        <time>2022-10-28T12:04:11Z</time>
      </trkpt>
      <trkpt lat="44.42735" lon="3.7078">
        <ele>1606.4</ele>
        <time>2022-10-28T12:04:12Z</time>
      </trkpt>
      <trkpt lat="44.42736" lon="3.70784">
        <ele>1606.4</ele>
        <time>2022-10-28T12:04:13Z</time>
      </trkpt>
      <trkpt lat="44.42736" lon="3.70788">
        <ele>1606.4</ele>
        <time>2022-10-28T12:04:14Z</time>
      </trkpt>
      <trkpt lat="44.42737" lon="3.70792">
        <ele>1606.4</ele>
        <time>2022-10-28T12:04:15Z</time>
      </trkpt>
      <trkpt lat="44.42738" lon="3.70796">
        <ele>1606.4</ele>
        <time>2022-10-28T12:04:16Z</time>
      </trkpt>
      <trkpt lat="44.42739" lon="3.708">
        <ele>1606.4</ele>
        <time>2022-10-28T12:04:17Z</time>
      </trkpt>
      <trkpt lat="44.4274" lon="3.70803">
        <ele>1606.6</ele>
        <time>2022-10-28T12:04:18Z</time>
      </trkpt>
      <trkpt lat="44.42742" lon="3.70806">
        <ele>1606.6</ele>
        <time>2022-10-28T12:04:19Z</time>
      </trkpt>
      <trkpt lat="44.42743" lon="3.7081">
        <ele>1606.6</ele>
        <time>2022-10-28T12:04:20Z</time>
      </trkpt>
      <trkpt lat="44.42745" lon="3.70814">
        <ele>1606.8</ele>
        <time>2022-10-28T12:04:21Z</time>
      </trkpt>
      <trkpt lat="44.42746" lon="3.70818">
        <ele>1606.8</ele>
        <time>2022-10-28T12:04:22Z</time>
      </trkpt>
      <trkpt lat="44.42748" lon="3.70821">
        <ele>1606.8</ele>
        <time>2022-10-28T12:04:23Z</time>
      </trkpt>
      <trkpt lat="44.4275" lon="3.70825">
        <ele>1606.8</ele>
        <time>2022-10-28T12:04:24Z</time>
      </trkpt>
      <trkpt lat="44.42752" lon="3.70829">
        <ele>1606.8</ele>
        <time>2022-10-28T12:04:25Z</time>
      </trkpt>
      <trkpt lat="44.42754" lon="3.70832">
        <ele>1606.8</ele>
        <time>2022-10-28T12:04:26Z</time>
      </trkpt>
      <trkpt lat="44.42756" lon="3.70834">
        <ele>1606.8</ele>
        <time>2022-10-28T12:04:27Z</time>
      </trkpt>
      <trkpt lat="44.42758" lon="3.70838">
        <ele>1606.6</ele>
        <time>2022-10-28T12:04:28Z</time>
      </trkpt>
      <trkpt lat="44.4276" lon="3.70841">
        <ele>1606.6</ele>
        <time>2022-10-28T12:04:29Z</time>
      </trkpt>
      <trkpt lat="44.42762" lon="3.70845">
        <ele>1606.6</ele>
        <time>2022-10-28T12:04:30Z</time>
      </trkpt>
      <trkpt lat="44.42764" lon="3.70849">
        <ele>1606.6</ele>
        <time>2022-10-28T12:04:31Z</time>
      </trkpt>
      <trkpt lat="44.42766" lon="3.70852">
        <ele>1606.6</ele>
        <time>2022-10-28T12:04:32Z</time>
      </trkpt>
      <trkpt lat="44.42768" lon="3.70856">
        <ele>1606.6</ele>
        <time>2022-10-28T12:04:33Z</time>
      </trkpt>
      <trkpt lat="44.4277" lon="3.7086">
        <ele>1606.6</ele>
        <time>2022-10-28T12:04:34Z</time>
      </trkpt>
      <trkpt lat="44.42771" lon="3.70863">
        <ele>1606.6</ele>
        <time>2022-10-28T12:04:35Z</time>
      </trkpt>
      <trkpt lat="44.42774" lon="3.70866">
        <ele>1606.6</ele>
        <time>2022-10-28T12:04:36Z</time>
      </trkpt>
      <trkpt lat="44.42775" lon="3.70869">
        <ele>1606.6</ele>
        <time>2022-10-28T12:04:37Z</time>
      </trkpt>
      <trkpt lat="44.42777" lon="3.70872">
        <ele>1606.6</ele>
        <time>2022-10-28T12:04:38Z</time>
      </trkpt>
      <trkpt lat="44.42779" lon="3.70876">
        <ele>1606.6</ele>
        <time>2022-10-28T12:04:39Z</time>
      </trkpt>
      <trkpt lat="44.42781" lon="3.70879">
        <ele>1606.6</ele>
        <time>2022-10-28T12:04:40Z</time>
      </trkpt>
      <trkpt lat="44.42783" lon="3.70882">
        <ele>1606.6</ele>
        <time>2022-10-28T12:04:41Z</time>
      </trkpt>
      <trkpt lat="44.42785" lon="3.70886">
        <ele>1606.6</ele>
        <time>2022-10-28T12:04:42Z</time>
      </trkpt>
      <trkpt lat="44.42788" lon="3.70889">
        <ele>1606.6</ele>
        <time>2022-10-28T12:04:43Z</time>
      </trkpt>
      <trkpt lat="44.4279" lon="3.70893">
        <ele>1606.6</ele>
        <time>2022-10-28T12:04:44Z</time>
      </trkpt>
      <trkpt lat="44.42792" lon="3.70896">
        <ele>1606.6</ele>
        <time>2022-10-28T12:04:45Z</time>
      </trkpt>
      <trkpt lat="44.42794" lon="3.709">
        <ele>1606.6</ele>
        <time>2022-10-28T12:04:46Z</time>
      </trkpt>
      <trkpt lat="44.42796" lon="3.70903">
        <ele>1606.6</ele>
        <time>2022-10-28T12:04:47Z</time>
      </trkpt>
      <trkpt lat="44.42799" lon="3.70906">
        <ele>1606.6</ele>
        <time>2022-10-28T12:04:48Z</time>
      </trkpt>
      <trkpt lat="44.42801" lon="3.7091">
        <ele>1606.6</ele>
        <time>2022-10-28T12:04:49Z</time>
      </trkpt>
      <trkpt lat="44.42803" lon="3.70913">
        <ele>1606.6</ele>
        <time>2022-10-28T12:04:50Z</time>
      </trkpt>
      <trkpt lat="44.42805" lon="3.70916">
        <ele>1606.6</ele>
        <time>2022-10-28T12:04:51Z</time>
      </trkpt>
      <trkpt lat="44.42808" lon="3.70919">
        <ele>1606.6</ele>
        <time>2022-10-28T12:04:52Z</time>
      </trkpt>
      <trkpt lat="44.4281" lon="3.70922">
        <ele>1606.6</ele>
        <time>2022-10-28T12:04:53Z</time>
      </trkpt>
      <trkpt lat="44.42812" lon="3.70925">
        <ele>1606.6</ele>
        <time>2022-10-28T12:04:54Z</time>
      </trkpt>
      <trkpt lat="44.42815" lon="3.70928">
        <ele>1606.6</ele>
        <time>2022-10-28T12:04:55Z</time>
      </trkpt>
      <trkpt lat="44.42817" lon="3.70931">
        <ele>1606.6</ele>
        <time>2022-10-28T12:04:56Z</time>
      </trkpt>
      <trkpt lat="44.42819" lon="3.70933">
        <ele>1606.6</ele>
        <time>2022-10-28T12:04:57Z</time>
      </trkpt>
      <trkpt lat="44.42822" lon="3.70937">
        <ele>1606.6</ele>
        <time>2022-10-28T12:04:58Z</time>
      </trkpt>
      <trkpt lat="44.42824" lon="3.70939">
        <ele>1606.6</ele>
        <time>2022-10-28T12:04:59Z</time>
      </trkpt>
      <trkpt lat="44.42826" lon="3.70942">
        <ele>1606.4</ele>
        <time>2022-10-28T12:05:00Z</time>
      </trkpt>
      <trkpt lat="44.42829" lon="3.70945">
        <ele>1606.4</ele>
        <time>2022-10-28T12:05:01Z</time>
      </trkpt>
      <trkpt lat="44.42831" lon="3.70947">
        <ele>1606.4</ele>
        <time>2022-10-28T12:05:02Z</time>
      </trkpt>
      <trkpt lat="44.42834" lon="3.70949">
        <ele>1606.2</ele>
        <time>2022-10-28T12:05:03Z</time>
      </trkpt>
      <trkpt lat="44.42835" lon="3.70951">
        <ele>1606.2</ele>
        <time>2022-10-28T12:05:04Z</time>
      </trkpt>
      <trkpt lat="44.42837" lon="3.70953">
        <ele>1606.2</ele>
        <time>2022-10-28T12:05:05Z</time>
      </trkpt>
      <trkpt lat="44.4284" lon="3.70956">
        <ele>1606.2</ele>
        <time>2022-10-28T12:05:06Z</time>
      </trkpt>
      <trkpt lat="44.42842" lon="3.70958">
        <ele>1606</ele>
        <time>2022-10-28T12:05:07Z</time>
      </trkpt>
      <trkpt lat="44.42844" lon="3.7096">
        <ele>1606</ele>
        <time>2022-10-28T12:05:08Z</time>
      </trkpt>
      <trkpt lat="44.42846" lon="3.70962">
        <ele>1606</ele>
        <time>2022-10-28T12:05:09Z</time>
      </trkpt>
      <trkpt lat="44.42848" lon="3.70965">
        <ele>1605.8</ele>
        <time>2022-10-28T12:05:10Z</time>
      </trkpt>
      <trkpt lat="44.42851" lon="3.70967">
        <ele>1605.8</ele>
        <time>2022-10-28T12:05:11Z</time>
      </trkpt>
      <trkpt lat="44.42853" lon="3.70969">
        <ele>1605.6</ele>
        <time>2022-10-28T12:05:12Z</time>
      </trkpt>
      <trkpt lat="44.42856" lon="3.70971">
        <ele>1605.6</ele>
        <time>2022-10-28T12:05:13Z</time>
      </trkpt>
      <trkpt lat="44.42858" lon="3.70973">
        <ele>1605.6</ele>
        <time>2022-10-28T12:05:14Z</time>
      </trkpt>
      <trkpt lat="44.4286" lon="3.70975">
        <ele>1605.6</ele>
        <time>2022-10-28T12:05:15Z</time>
      </trkpt>
      <trkpt lat="44.42863" lon="3.70977">
        <ele>1605.4</ele>
        <time>2022-10-28T12:05:16Z</time>
      </trkpt>
      <trkpt lat="44.42865" lon="3.70979">
        <ele>1605.4</ele>
        <time>2022-10-28T12:05:17Z</time>
      </trkpt>
      <trkpt lat="44.42867" lon="3.7098">
        <ele>1605.4</ele>
        <time>2022-10-28T12:05:18Z</time>
      </trkpt>
      <trkpt lat="44.42869" lon="3.70982">
        <ele>1605.4</ele>
        <time>2022-10-28T12:05:19Z</time>
      </trkpt>
      <trkpt lat="44.42872" lon="3.70984">
        <ele>1605.4</ele>
        <time>2022-10-28T12:05:20Z</time>
      </trkpt>
      <trkpt lat="44.42874" lon="3.70987">
        <ele>1605.4</ele>
        <time>2022-10-28T12:05:21Z</time>
      </trkpt>
      <trkpt lat="44.42876" lon="3.70989">
        <ele>1605.4</ele>
        <time>2022-10-28T12:05:22Z</time>
      </trkpt>
      <trkpt lat="44.42879" lon="3.70991">
        <ele>1605.6</ele>
        <time>2022-10-28T12:05:23Z</time>
      </trkpt>
      <trkpt lat="44.42882" lon="3.70994">
        <ele>1605.6</ele>
        <time>2022-10-28T12:05:24Z</time>
      </trkpt>
      <trkpt lat="44.42884" lon="3.70997">
        <ele>1605.6</ele>
        <time>2022-10-28T12:05:25Z</time>
      </trkpt>
      <trkpt lat="44.42887" lon="3.70999">
        <ele>1605.6</ele>
        <time>2022-10-28T12:05:26Z</time>
      </trkpt>
      <trkpt lat="44.42889" lon="3.71001">
        <ele>1605.6</ele>
        <time>2022-10-28T12:05:27Z</time>
      </trkpt>
      <trkpt lat="44.42891" lon="3.71002">
        <ele>1605.6</ele>
        <time>2022-10-28T12:05:28Z</time>
      </trkpt>
      <trkpt lat="44.42892" lon="3.71004">
        <ele>1605.6</ele>
        <time>2022-10-28T12:05:29Z</time>
      </trkpt>
      <trkpt lat="44.42894" lon="3.71006">
        <ele>1605.6</ele>
        <time>2022-10-28T12:05:30Z</time>
      </trkpt>
      <trkpt lat="44.42896" lon="3.71008">
        <ele>1605.6</ele>
        <time>2022-10-28T12:05:31Z</time>
      </trkpt>
      <trkpt lat="44.42898" lon="3.7101">
        <ele>1605.6</ele>
        <time>2022-10-28T12:05:32Z</time>
      </trkpt>
      <trkpt lat="44.429" lon="3.71012">
        <ele>1605.6</ele>
        <time>2022-10-28T12:05:33Z</time>
      </trkpt>
      <trkpt lat="44.42903" lon="3.71015">
        <ele>1605.4</ele>
        <time>2022-10-28T12:05:34Z</time>
      </trkpt>
      <trkpt lat="44.42905" lon="3.71017">
        <ele>1605.4</ele>
        <time>2022-10-28T12:05:35Z</time>
      </trkpt>
      <trkpt lat="44.42908" lon="3.7102">
        <ele>1605.2</ele>
        <time>2022-10-28T12:05:36Z</time>
      </trkpt>
      <trkpt lat="44.4291" lon="3.71022">
        <ele>1605.2</ele>
        <time>2022-10-28T12:05:37Z</time>
      </trkpt>
      <trkpt lat="44.42912" lon="3.71026">
        <ele>1605</ele>
        <time>2022-10-28T12:05:38Z</time>
      </trkpt>
      <trkpt lat="44.42914" lon="3.71028">
        <ele>1604.8</ele>
        <time>2022-10-28T12:05:39Z</time>
      </trkpt>
      <trkpt lat="44.42916" lon="3.71029">
        <ele>1604.8</ele>
        <time>2022-10-28T12:05:40Z</time>
      </trkpt>
      <trkpt lat="44.42916" lon="3.7103">
        <ele>1604.6</ele>
        <time>2022-10-28T12:05:41Z</time>
      </trkpt>
      <trkpt lat="44.42917" lon="3.71031">
        <ele>1604.2</ele>
        <time>2022-10-28T12:05:50Z</time>
      </trkpt>
      <trkpt lat="44.42918" lon="3.71033">
        <ele>1604.2</ele>
        <time>2022-10-28T12:05:51Z</time>
      </trkpt>
      <trkpt lat="44.4292" lon="3.71035">
        <ele>1604.2</ele>
        <time>2022-10-28T12:05:52Z</time>
      </trkpt>
      <trkpt lat="44.42921" lon="3.71037">
        <ele>1604</ele>
        <time>2022-10-28T12:05:53Z</time>
      </trkpt>
      <trkpt lat="44.42923" lon="3.7104">
        <ele>1604</ele>
        <time>2022-10-28T12:05:54Z</time>
      </trkpt>
      <trkpt lat="44.42925" lon="3.71042">
        <ele>1603.8</ele>
        <time>2022-10-28T12:05:55Z</time>
      </trkpt>
      <trkpt lat="44.42927" lon="3.71045">
        <ele>1603.8</ele>
        <time>2022-10-28T12:05:56Z</time>
      </trkpt>
      <trkpt lat="44.42928" lon="3.71048">
        <ele>1603.8</ele>
        <time>2022-10-28T12:05:57Z</time>
      </trkpt>
      <trkpt lat="44.4293" lon="3.71051">
        <ele>1603.8</ele>
        <time>2022-10-28T12:05:58Z</time>
      </trkpt>
      <trkpt lat="44.42931" lon="3.71055">
        <ele>1603.6</ele>
        <time>2022-10-28T12:05:59Z</time>
      </trkpt>
      <trkpt lat="44.42933" lon="3.71058">
        <ele>1603.6</ele>
        <time>2022-10-28T12:06:00Z</time>
      </trkpt>
      <trkpt lat="44.42935" lon="3.71062">
        <ele>1603.6</ele>
        <time>2022-10-28T12:06:01Z</time>
      </trkpt>
      <trkpt lat="44.42936" lon="3.71066">
        <ele>1603.4</ele>
        <time>2022-10-28T12:06:02Z</time>
      </trkpt>
      <trkpt lat="44.42938" lon="3.7107">
        <ele>1603.4</ele>
        <time>2022-10-28T12:06:03Z</time>
      </trkpt>
      <trkpt lat="44.4294" lon="3.71074">
        <ele>1603.4</ele>
        <time>2022-10-28T12:06:04Z</time>
      </trkpt>
      <trkpt lat="44.42941" lon="3.71077">
        <ele>1603.4</ele>
        <time>2022-10-28T12:06:05Z</time>
      </trkpt>
      <trkpt lat="44.42942" lon="3.7108">
        <ele>1603.4</ele>
        <time>2022-10-28T12:06:06Z</time>
      </trkpt>
      <trkpt lat="44.42943" lon="3.71083">
        <ele>1603.4</ele>
        <time>2022-10-28T12:06:07Z</time>
      </trkpt>
      <trkpt lat="44.42944" lon="3.71087">
        <ele>1603.4</ele>
        <time>2022-10-28T12:06:08Z</time>
      </trkpt>
      <trkpt lat="44.42945" lon="3.7109">
        <ele>1603.4</ele>
        <time>2022-10-28T12:06:09Z</time>
      </trkpt>
      <trkpt lat="44.42946" lon="3.71093">
        <ele>1603.4</ele>
        <time>2022-10-28T12:06:10Z</time>
      </trkpt>
      <trkpt lat="44.42946" lon="3.71096">
        <ele>1603.4</ele>
        <time>2022-10-28T12:06:11Z</time>
      </trkpt>
      <trkpt lat="44.42947" lon="3.71099">
        <ele>1603.6</ele>
        <time>2022-10-28T12:06:12Z</time>
      </trkpt>
      <trkpt lat="44.42947" lon="3.71102">
        <ele>1603.6</ele>
        <time>2022-10-28T12:06:13Z</time>
      </trkpt>
      <trkpt lat="44.42948" lon="3.71105">
        <ele>1603.8</ele>
        <time>2022-10-28T12:06:14Z</time>
      </trkpt>
      <trkpt lat="44.42949" lon="3.71108">
        <ele>1603.8</ele>
        <time>2022-10-28T12:06:15Z</time>
      </trkpt>
      <trkpt lat="44.4295" lon="3.71112">
        <ele>1603.8</ele>
        <time>2022-10-28T12:06:16Z</time>
      </trkpt>
      <trkpt lat="44.42951" lon="3.71116">
        <ele>1603.8</ele>
        <time>2022-10-28T12:06:17Z</time>
      </trkpt>
      <trkpt lat="44.42952" lon="3.7112">
        <ele>1604</ele>
        <time>2022-10-28T12:06:18Z</time>
      </trkpt>
      <trkpt lat="44.42953" lon="3.71124">
        <ele>1604.2</ele>
        <time>2022-10-28T12:06:19Z</time>
      </trkpt>
      <trkpt lat="44.42953" lon="3.71128">
        <ele>1604.2</ele>
        <time>2022-10-28T12:06:20Z</time>
      </trkpt>
      <trkpt lat="44.42954" lon="3.71132">
        <ele>1604.4</ele>
        <time>2022-10-28T12:06:21Z</time>
      </trkpt>
      <trkpt lat="44.42955" lon="3.71136">
        <ele>1604.4</ele>
        <time>2022-10-28T12:06:22Z</time>
      </trkpt>
      <trkpt lat="44.42956" lon="3.7114">
        <ele>1604.4</ele>
        <time>2022-10-28T12:06:23Z</time>
      </trkpt>
      <trkpt lat="44.42957" lon="3.71144">
        <ele>1604.4</ele>
        <time>2022-10-28T12:06:24Z</time>
      </trkpt>
      <trkpt lat="44.42958" lon="3.71147">
        <ele>1604.6</ele>
        <time>2022-10-28T12:06:25Z</time>
      </trkpt>
      <trkpt lat="44.42959" lon="3.71151">
        <ele>1604.6</ele>
        <time>2022-10-28T12:06:26Z</time>
      </trkpt>
      <trkpt lat="44.4296" lon="3.71155">
        <ele>1604.8</ele>
        <time>2022-10-28T12:06:27Z</time>
      </trkpt>
      <trkpt lat="44.42961" lon="3.71158">
        <ele>1604.8</ele>
        <time>2022-10-28T12:06:28Z</time>
      </trkpt>
      <trkpt lat="44.42961" lon="3.71162">
        <ele>1604.8</ele>
        <time>2022-10-28T12:06:29Z</time>
      </trkpt>
      <trkpt lat="44.42962" lon="3.71165">
        <ele>1604.8</ele>
        <time>2022-10-28T12:06:30Z</time>
      </trkpt>
      <trkpt lat="44.42962" lon="3.71168">
        <ele>1604.8</ele>
        <time>2022-10-28T12:06:31Z</time>
      </trkpt>
      <trkpt lat="44.42963" lon="3.71171">
        <ele>1604.8</ele>
        <time>2022-10-28T12:06:32Z</time>
      </trkpt>
      <trkpt lat="44.42964" lon="3.71173">
        <ele>1604.8</ele>
        <time>2022-10-28T12:06:33Z</time>
      </trkpt>
      <trkpt lat="44.42964" lon="3.71176">
        <ele>1605</ele>
        <time>2022-10-28T12:06:34Z</time>
      </trkpt>
      <trkpt lat="44.42965" lon="3.71179">
        <ele>1605</ele>
        <time>2022-10-28T12:06:35Z</time>
      </trkpt>
      <trkpt lat="44.42965" lon="3.71182">
        <ele>1605</ele>
        <time>2022-10-28T12:06:36Z</time>
      </trkpt>
      <trkpt lat="44.42966" lon="3.71184">
        <ele>1605</ele>
        <time>2022-10-28T12:06:37Z</time>
      </trkpt>
      <trkpt lat="44.42966" lon="3.71188">
        <ele>1605.2</ele>
        <time>2022-10-28T12:06:38Z</time>
      </trkpt>
      <trkpt lat="44.42967" lon="3.71191">
        <ele>1605.2</ele>
        <time>2022-10-28T12:06:39Z</time>
      </trkpt>
      <trkpt lat="44.42967" lon="3.71194">
        <ele>1605.2</ele>
        <time>2022-10-28T12:06:40Z</time>
      </trkpt>
      <trkpt lat="44.42967" lon="3.71197">
        <ele>1605.2</ele>
        <time>2022-10-28T12:06:41Z</time>
      </trkpt>
      <trkpt lat="44.42968" lon="3.712">
        <ele>1605.2</ele>
        <time>2022-10-28T12:06:42Z</time>
      </trkpt>
      <trkpt lat="44.42968" lon="3.71203">
        <ele>1605.2</ele>
        <time>2022-10-28T12:06:43Z</time>
      </trkpt>
      <trkpt lat="44.42968" lon="3.71207">
        <ele>1605.4</ele>
        <time>2022-10-28T12:06:44Z</time>
      </trkpt>
      <trkpt lat="44.42968" lon="3.71211">
        <ele>1605.4</ele>
        <time>2022-10-28T12:06:45Z</time>
      </trkpt>
      <trkpt lat="44.42969" lon="3.71215">
        <ele>1605.4</ele>
        <time>2022-10-28T12:06:46Z</time>
      </trkpt>
      <trkpt lat="44.42969" lon="3.71218">
        <ele>1605.4</ele>
        <time>2022-10-28T12:06:47Z</time>
      </trkpt>
      <trkpt lat="44.4297" lon="3.71222">
        <ele>1605.6</ele>
        <time>2022-10-28T12:06:48Z</time>
      </trkpt>
      <trkpt lat="44.4297" lon="3.71227">
        <ele>1605.6</ele>
        <time>2022-10-28T12:06:49Z</time>
      </trkpt>
      <trkpt lat="44.4297" lon="3.71231">
        <ele>1605.6</ele>
        <time>2022-10-28T12:06:50Z</time>
      </trkpt>
      <trkpt lat="44.4297" lon="3.71235">
        <ele>1605.6</ele>
        <time>2022-10-28T12:06:51Z</time>
      </trkpt>
      <trkpt lat="44.42971" lon="3.71239">
        <ele>1605.8</ele>
        <time>2022-10-28T12:06:52Z</time>
      </trkpt>
      <trkpt lat="44.42971" lon="3.71243">
        <ele>1605.8</ele>
        <time>2022-10-28T12:06:53Z</time>
      </trkpt>
      <trkpt lat="44.42971" lon="3.71246">
        <ele>1605.8</ele>
        <time>2022-10-28T12:06:54Z</time>
      </trkpt>
      <trkpt lat="44.42971" lon="3.71249">
        <ele>1605.8</ele>
        <time>2022-10-28T12:06:55Z</time>
      </trkpt>
      <trkpt lat="44.42971" lon="3.71253">
        <ele>1606</ele>
        <time>2022-10-28T12:06:56Z</time>
      </trkpt>
      <trkpt lat="44.42971" lon="3.71256">
        <ele>1606</ele>
        <time>2022-10-28T12:06:57Z</time>
      </trkpt>
      <trkpt lat="44.4297" lon="3.7126">
        <ele>1606</ele>
        <time>2022-10-28T12:06:58Z</time>
      </trkpt>
      <trkpt lat="44.42969" lon="3.71264">
        <ele>1606.2</ele>
        <time>2022-10-28T12:06:59Z</time>
      </trkpt>
      <trkpt lat="44.42968" lon="3.71268">
        <ele>1606.2</ele>
        <time>2022-10-28T12:07:00Z</time>
      </trkpt>
      <trkpt lat="44.42967" lon="3.71272">
        <ele>1606.2</ele>
        <time>2022-10-28T12:07:01Z</time>
      </trkpt>
      <trkpt lat="44.42966" lon="3.71277">
        <ele>1606.2</ele>
        <time>2022-10-28T12:07:02Z</time>
      </trkpt>
      <trkpt lat="44.42965" lon="3.71281">
        <ele>1606.4</ele>
        <time>2022-10-28T12:07:03Z</time>
      </trkpt>
      <trkpt lat="44.42964" lon="3.71284">
        <ele>1606.4</ele>
        <time>2022-10-28T12:07:04Z</time>
      </trkpt>
      <trkpt lat="44.42963" lon="3.71288">
        <ele>1606.6</ele>
        <time>2022-10-28T12:07:05Z</time>
      </trkpt>
      <trkpt lat="44.42962" lon="3.71293">
        <ele>1606.6</ele>
        <time>2022-10-28T12:07:06Z</time>
      </trkpt>
      <trkpt lat="44.42961" lon="3.71297">
        <ele>1606.6</ele>
        <time>2022-10-28T12:07:07Z</time>
      </trkpt>
      <trkpt lat="44.4296" lon="3.713">
        <ele>1606.8</ele>
        <time>2022-10-28T12:07:08Z</time>
      </trkpt>
      <trkpt lat="44.42959" lon="3.71304">
        <ele>1607</ele>
        <time>2022-10-28T12:07:09Z</time>
      </trkpt>
      <trkpt lat="44.42958" lon="3.71308">
        <ele>1607</ele>
        <time>2022-10-28T12:07:10Z</time>
      </trkpt>
      <trkpt lat="44.42958" lon="3.71312">
        <ele>1607.2</ele>
        <time>2022-10-28T12:07:11Z</time>
      </trkpt>
      <trkpt lat="44.42957" lon="3.71317">
        <ele>1607.2</ele>
        <time>2022-10-28T12:07:12Z</time>
      </trkpt>
      <trkpt lat="44.42955" lon="3.71321">
        <ele>1607.4</ele>
        <time>2022-10-28T12:07:13Z</time>
      </trkpt>
      <trkpt lat="44.42954" lon="3.71325">
        <ele>1607.4</ele>
        <time>2022-10-28T12:07:14Z</time>
      </trkpt>
      <trkpt lat="44.42953" lon="3.71329">
        <ele>1607.4</ele>
        <time>2022-10-28T12:07:15Z</time>
      </trkpt>
      <trkpt lat="44.42951" lon="3.71332">
        <ele>1607.6</ele>
        <time>2022-10-28T12:07:16Z</time>
      </trkpt>
      <trkpt lat="44.42949" lon="3.71336">
        <ele>1607.6</ele>
        <time>2022-10-28T12:07:17Z</time>
      </trkpt>
      <trkpt lat="44.42948" lon="3.7134">
        <ele>1607.6</ele>
        <time>2022-10-28T12:07:18Z</time>
      </trkpt>
      <trkpt lat="44.42947" lon="3.71344">
        <ele>1607.6</ele>
        <time>2022-10-28T12:07:19Z</time>
      </trkpt>
      <trkpt lat="44.42945" lon="3.71347">
        <ele>1607.6</ele>
        <time>2022-10-28T12:07:20Z</time>
      </trkpt>
      <trkpt lat="44.42943" lon="3.71351">
        <ele>1607.6</ele>
        <time>2022-10-28T12:07:21Z</time>
      </trkpt>
      <trkpt lat="44.42942" lon="3.71354">
        <ele>1607.8</ele>
        <time>2022-10-28T12:07:22Z</time>
      </trkpt>
      <trkpt lat="44.4294" lon="3.71358">
        <ele>1607.8</ele>
        <time>2022-10-28T12:07:23Z</time>
      </trkpt>
      <trkpt lat="44.42939" lon="3.71361">
        <ele>1607.8</ele>
        <time>2022-10-28T12:07:24Z</time>
      </trkpt>
      <trkpt lat="44.42937" lon="3.71365">
        <ele>1607.8</ele>
        <time>2022-10-28T12:07:25Z</time>
      </trkpt>
      <trkpt lat="44.42936" lon="3.71368">
        <ele>1607.8</ele>
        <time>2022-10-28T12:07:26Z</time>
      </trkpt>
      <trkpt lat="44.42935" lon="3.71371">
        <ele>1607.8</ele>
        <time>2022-10-28T12:07:27Z</time>
      </trkpt>
      <trkpt lat="44.42933" lon="3.71374">
        <ele>1607.8</ele>
        <time>2022-10-28T12:07:28Z</time>
      </trkpt>
      <trkpt lat="44.42932" lon="3.71377">
        <ele>1607.8</ele>
        <time>2022-10-28T12:07:29Z</time>
      </trkpt>
      <trkpt lat="44.4293" lon="3.7138">
        <ele>1607.8</ele>
        <time>2022-10-28T12:07:30Z</time>
      </trkpt>
      <trkpt lat="44.42928" lon="3.71383">
        <ele>1607.8</ele>
        <time>2022-10-28T12:07:31Z</time>
      </trkpt>
      <trkpt lat="44.42926" lon="3.71386">
        <ele>1608</ele>
        <time>2022-10-28T12:07:32Z</time>
      </trkpt>
      <trkpt lat="44.42924" lon="3.71389">
        <ele>1608</ele>
        <time>2022-10-28T12:07:33Z</time>
      </trkpt>
      <trkpt lat="44.42923" lon="3.71392">
        <ele>1608</ele>
        <time>2022-10-28T12:07:34Z</time>
      </trkpt>
      <trkpt lat="44.42921" lon="3.71395">
        <ele>1608.2</ele>
        <time>2022-10-28T12:07:35Z</time>
      </trkpt>
      <trkpt lat="44.42919" lon="3.71398">
        <ele>1608.2</ele>
        <time>2022-10-28T12:07:36Z</time>
      </trkpt>
      <trkpt lat="44.42917" lon="3.71401">
        <ele>1608.4</ele>
        <time>2022-10-28T12:07:37Z</time>
      </trkpt>
      <trkpt lat="44.42916" lon="3.71405">
        <ele>1608.4</ele>
        <time>2022-10-28T12:07:38Z</time>
      </trkpt>
      <trkpt lat="44.42914" lon="3.71408">
        <ele>1608.6</ele>
        <time>2022-10-28T12:07:39Z</time>
      </trkpt>
      <trkpt lat="44.42912" lon="3.71411">
        <ele>1608.6</ele>
        <time>2022-10-28T12:07:40Z</time>
      </trkpt>
      <trkpt lat="44.4291" lon="3.71414">
        <ele>1608.8</ele>
        <time>2022-10-28T12:07:41Z</time>
      </trkpt>
      <trkpt lat="44.42908" lon="3.71417">
        <ele>1608.8</ele>
        <time>2022-10-28T12:07:42Z</time>
      </trkpt>
      <trkpt lat="44.42907" lon="3.7142">
        <ele>1609</ele>
        <time>2022-10-28T12:07:43Z</time>
      </trkpt>
      <trkpt lat="44.42905" lon="3.71423">
        <ele>1609</ele>
        <time>2022-10-28T12:07:44Z</time>
      </trkpt>
      <trkpt lat="44.42904" lon="3.71426">
        <ele>1609</ele>
        <time>2022-10-28T12:07:45Z</time>
      </trkpt>
      <trkpt lat="44.42902" lon="3.71429">
        <ele>1609.2</ele>
        <time>2022-10-28T12:07:46Z</time>
      </trkpt>
      <trkpt lat="44.42901" lon="3.71431">
        <ele>1609.2</ele>
        <time>2022-10-28T12:07:47Z</time>
      </trkpt>
      <trkpt lat="44.42899" lon="3.71433">
        <ele>1609.2</ele>
        <time>2022-10-28T12:07:48Z</time>
      </trkpt>
      <trkpt lat="44.42898" lon="3.71436">
        <ele>1609.2</ele>
        <time>2022-10-28T12:07:49Z</time>
      </trkpt>
      <trkpt lat="44.42896" lon="3.71439">
        <ele>1609.4</ele>
        <time>2022-10-28T12:07:50Z</time>
      </trkpt>
      <trkpt lat="44.42895" lon="3.71441">
        <ele>1609.4</ele>
        <time>2022-10-28T12:07:51Z</time>
      </trkpt>
      <trkpt lat="44.42893" lon="3.71444">
        <ele>1609.4</ele>
        <time>2022-10-28T12:07:52Z</time>
      </trkpt>
      <trkpt lat="44.42891" lon="3.71446">
        <ele>1609.4</ele>
        <time>2022-10-28T12:07:53Z</time>
      </trkpt>
      <trkpt lat="44.4289" lon="3.71449">
        <ele>1609.4</ele>
        <time>2022-10-28T12:07:54Z</time>
      </trkpt>
      <trkpt lat="44.42889" lon="3.71452">
        <ele>1609.8</ele>
        <time>2022-10-28T12:07:55Z</time>
      </trkpt>
      <trkpt lat="44.42887" lon="3.71455">
        <ele>1609.8</ele>
        <time>2022-10-28T12:07:56Z</time>
      </trkpt>
      <trkpt lat="44.42886" lon="3.71457">
        <ele>1610</ele>
        <time>2022-10-28T12:07:57Z</time>
      </trkpt>
      <trkpt lat="44.42884" lon="3.7146">
        <ele>1610</ele>
        <time>2022-10-28T12:07:58Z</time>
      </trkpt>
      <trkpt lat="44.42883" lon="3.71463">
        <ele>1610.2</ele>
        <time>2022-10-28T12:07:59Z</time>
      </trkpt>
      <trkpt lat="44.42882" lon="3.71465">
        <ele>1610.2</ele>
        <time>2022-10-28T12:08:00Z</time>
      </trkpt>
      <trkpt lat="44.4288" lon="3.71468">
        <ele>1610.4</ele>
        <time>2022-10-28T12:08:01Z</time>
      </trkpt>
      <trkpt lat="44.42879" lon="3.7147">
        <ele>1610.6</ele>
        <time>2022-10-28T12:08:02Z</time>
      </trkpt>
      <trkpt lat="44.42878" lon="3.71473">
        <ele>1610.6</ele>
        <time>2022-10-28T12:08:03Z</time>
      </trkpt>
      <trkpt lat="44.42877" lon="3.71475">
        <ele>1610.8</ele>
        <time>2022-10-28T12:08:04Z</time>
      </trkpt>
      <trkpt lat="44.42875" lon="3.71478">
        <ele>1611</ele>
        <time>2022-10-28T12:08:05Z</time>
      </trkpt>
      <trkpt lat="44.42874" lon="3.7148">
        <ele>1611.2</ele>
        <time>2022-10-28T12:08:06Z</time>
      </trkpt>
      <trkpt lat="44.42873" lon="3.71482">
        <ele>1611.4</ele>
        <time>2022-10-28T12:08:07Z</time>
      </trkpt>
      <trkpt lat="44.42871" lon="3.71484">
        <ele>1611.4</ele>
        <time>2022-10-28T12:08:08Z</time>
      </trkpt>
      <trkpt lat="44.42869" lon="3.71486">
        <ele>1611.6</ele>
        <time>2022-10-28T12:08:09Z</time>
      </trkpt>
      <trkpt lat="44.42868" lon="3.71488">
        <ele>1611.6</ele>
        <time>2022-10-28T12:08:10Z</time>
      </trkpt>
      <trkpt lat="44.42866" lon="3.7149">
        <ele>1611.8</ele>
        <time>2022-10-28T12:08:11Z</time>
      </trkpt>
      <trkpt lat="44.42865" lon="3.71493">
        <ele>1612</ele>
        <time>2022-10-28T12:08:12Z</time>
      </trkpt>
      <trkpt lat="44.42863" lon="3.71495">
        <ele>1612</ele>
        <time>2022-10-28T12:08:13Z</time>
      </trkpt>
      <trkpt lat="44.42862" lon="3.71497">
        <ele>1612.2</ele>
        <time>2022-10-28T12:08:14Z</time>
      </trkpt>
      <trkpt lat="44.4286" lon="3.715">
        <ele>1612.2</ele>
        <time>2022-10-28T12:08:15Z</time>
      </trkpt>
      <trkpt lat="44.42859" lon="3.71503">
        <ele>1612.2</ele>
        <time>2022-10-28T12:08:16Z</time>
      </trkpt>
      <trkpt lat="44.42857" lon="3.71505">
        <ele>1612.4</ele>
        <time>2022-10-28T12:08:17Z</time>
      </trkpt>
      <trkpt lat="44.42856" lon="3.71508">
        <ele>1612.6</ele>
        <time>2022-10-28T12:08:18Z</time>
      </trkpt>
      <trkpt lat="44.42854" lon="3.71511">
        <ele>1612.8</ele>
        <time>2022-10-28T12:08:19Z</time>
      </trkpt>
      <trkpt lat="44.42853" lon="3.71513">
        <ele>1612.8</ele>
        <time>2022-10-28T12:08:20Z</time>
      </trkpt>
      <trkpt lat="44.42851" lon="3.71516">
        <ele>1613</ele>
        <time>2022-10-28T12:08:21Z</time>
      </trkpt>
      <trkpt lat="44.4285" lon="3.71519">
        <ele>1613.2</ele>
        <time>2022-10-28T12:08:22Z</time>
      </trkpt>
      <trkpt lat="44.42848" lon="3.71522">
        <ele>1613.2</ele>
        <time>2022-10-28T12:08:23Z</time>
      </trkpt>
      <trkpt lat="44.42846" lon="3.71525">
        <ele>1613.4</ele>
        <time>2022-10-28T12:08:24Z</time>
      </trkpt>
      <trkpt lat="44.42845" lon="3.71528">
        <ele>1613.4</ele>
        <time>2022-10-28T12:08:25Z</time>
      </trkpt>
      <trkpt lat="44.42843" lon="3.7153">
        <ele>1613.6</ele>
        <time>2022-10-28T12:08:26Z</time>
      </trkpt>
      <trkpt lat="44.42842" lon="3.71533">
        <ele>1613.6</ele>
        <time>2022-10-28T12:08:27Z</time>
      </trkpt>
      <trkpt lat="44.4284" lon="3.71535">
        <ele>1613.8</ele>
        <time>2022-10-28T12:08:28Z</time>
      </trkpt>
      <trkpt lat="44.42838" lon="3.71538">
        <ele>1613.8</ele>
        <time>2022-10-28T12:08:29Z</time>
      </trkpt>
      <trkpt lat="44.42837" lon="3.7154">
        <ele>1614</ele>
        <time>2022-10-28T12:08:30Z</time>
      </trkpt>
      <trkpt lat="44.42836" lon="3.71543">
        <ele>1614</ele>
        <time>2022-10-28T12:08:31Z</time>
      </trkpt>
      <trkpt lat="44.42834" lon="3.71546">
        <ele>1614.2</ele>
        <time>2022-10-28T12:08:32Z</time>
      </trkpt>
      <trkpt lat="44.42832" lon="3.71548">
        <ele>1614.2</ele>
        <time>2022-10-28T12:08:33Z</time>
      </trkpt>
      <trkpt lat="44.42831" lon="3.7155">
        <ele>1614.4</ele>
        <time>2022-10-28T12:08:34Z</time>
      </trkpt>
      <trkpt lat="44.42829" lon="3.71553">
        <ele>1614.4</ele>
        <time>2022-10-28T12:08:35Z</time>
      </trkpt>
      <trkpt lat="44.42828" lon="3.71556">
        <ele>1614.4</ele>
        <time>2022-10-28T12:08:36Z</time>
      </trkpt>
      <trkpt lat="44.42826" lon="3.71558">
        <ele>1614.6</ele>
        <time>2022-10-28T12:08:37Z</time>
      </trkpt>
      <trkpt lat="44.42825" lon="3.71561">
        <ele>1614.6</ele>
        <time>2022-10-28T12:08:38Z</time>
      </trkpt>
      <trkpt lat="44.42823" lon="3.71563">
        <ele>1614.6</ele>
        <time>2022-10-28T12:08:39Z</time>
      </trkpt>
      <trkpt lat="44.42822" lon="3.71565">
        <ele>1614.8</ele>
        <time>2022-10-28T12:08:40Z</time>
      </trkpt>
      <trkpt lat="44.4282" lon="3.71567">
        <ele>1614.8</ele>
        <time>2022-10-28T12:08:41Z</time>
      </trkpt>
      <trkpt lat="44.42819" lon="3.71569">
        <ele>1615</ele>
        <time>2022-10-28T12:08:42Z</time>
      </trkpt>
      <trkpt lat="44.42817" lon="3.71571">
        <ele>1615</ele>
        <time>2022-10-28T12:08:43Z</time>
      </trkpt>
      <trkpt lat="44.42816" lon="3.71574">
        <ele>1615</ele>
        <time>2022-10-28T12:08:44Z</time>
      </trkpt>
      <trkpt lat="44.42814" lon="3.71576">
        <ele>1615</ele>
        <time>2022-10-28T12:08:45Z</time>
      </trkpt>
      <trkpt lat="44.42813" lon="3.71579">
        <ele>1615</ele>
        <time>2022-10-28T12:08:46Z</time>
      </trkpt>
      <trkpt lat="44.42811" lon="3.71582">
        <ele>1615</ele>
        <time>2022-10-28T12:08:47Z</time>
      </trkpt>
      <trkpt lat="44.4281" lon="3.71585">
        <ele>1615</ele>
        <time>2022-10-28T12:08:48Z</time>
      </trkpt>
      <trkpt lat="44.42808" lon="3.71588">
        <ele>1615</ele>
        <time>2022-10-28T12:08:49Z</time>
      </trkpt>
      <trkpt lat="44.42807" lon="3.71591">
        <ele>1615.2</ele>
        <time>2022-10-28T12:08:50Z</time>
      </trkpt>
      <trkpt lat="44.42805" lon="3.71594">
        <ele>1615.2</ele>
        <time>2022-10-28T12:08:51Z</time>
      </trkpt>
      <trkpt lat="44.42803" lon="3.71597">
        <ele>1615.2</ele>
        <time>2022-10-28T12:08:52Z</time>
      </trkpt>
      <trkpt lat="44.42802" lon="3.716">
        <ele>1615.2</ele>
        <time>2022-10-28T12:08:53Z</time>
      </trkpt>
      <trkpt lat="44.428" lon="3.71602">
        <ele>1615.2</ele>
        <time>2022-10-28T12:08:54Z</time>
      </trkpt>
      <trkpt lat="44.42798" lon="3.71605">
        <ele>1615.2</ele>
        <time>2022-10-28T12:08:55Z</time>
      </trkpt>
      <trkpt lat="44.42796" lon="3.71608">
        <ele>1615.4</ele>
        <time>2022-10-28T12:08:56Z</time>
      </trkpt>
      <trkpt lat="44.42794" lon="3.71611">
        <ele>1615.4</ele>
        <time>2022-10-28T12:08:57Z</time>
      </trkpt>
      <trkpt lat="44.42793" lon="3.71614">
        <ele>1615.6</ele>
        <time>2022-10-28T12:08:58Z</time>
      </trkpt>
      <trkpt lat="44.42791" lon="3.71617">
        <ele>1615.6</ele>
        <time>2022-10-28T12:08:59Z</time>
      </trkpt>
      <trkpt lat="44.42789" lon="3.7162">
        <ele>1615.8</ele>
        <time>2022-10-28T12:09:00Z</time>
      </trkpt>
      <trkpt lat="44.42788" lon="3.71623">
        <ele>1615.8</ele>
        <time>2022-10-28T12:09:01Z</time>
      </trkpt>
      <trkpt lat="44.42786" lon="3.71625">
        <ele>1616</ele>
        <time>2022-10-28T12:09:02Z</time>
      </trkpt>
      <trkpt lat="44.42784" lon="3.71628">
        <ele>1616</ele>
        <time>2022-10-28T12:09:03Z</time>
      </trkpt>
      <trkpt lat="44.42783" lon="3.7163">
        <ele>1616</ele>
        <time>2022-10-28T12:09:04Z</time>
      </trkpt>
      <trkpt lat="44.42781" lon="3.71633">
        <ele>1616</ele>
        <time>2022-10-28T12:09:05Z</time>
      </trkpt>
      <trkpt lat="44.42779" lon="3.71636">
        <ele>1616.2</ele>
        <time>2022-10-28T12:09:06Z</time>
      </trkpt>
      <trkpt lat="44.42778" lon="3.71639">
        <ele>1616.2</ele>
        <time>2022-10-28T12:09:07Z</time>
      </trkpt>
      <trkpt lat="44.42777" lon="3.71641">
        <ele>1616.2</ele>
        <time>2022-10-28T12:09:08Z</time>
      </trkpt>
      <trkpt lat="44.42775" lon="3.71643">
        <ele>1616.2</ele>
        <time>2022-10-28T12:09:09Z</time>
      </trkpt>
      <trkpt lat="44.42773" lon="3.71646">
        <ele>1616.4</ele>
        <time>2022-10-28T12:09:10Z</time>
      </trkpt>
      <trkpt lat="44.42771" lon="3.71648">
        <ele>1616.4</ele>
        <time>2022-10-28T12:09:11Z</time>
      </trkpt>
      <trkpt lat="44.4277" lon="3.71651">
        <ele>1616.4</ele>
        <time>2022-10-28T12:09:12Z</time>
      </trkpt>
      <trkpt lat="44.42768" lon="3.71654">
        <ele>1616.6</ele>
        <time>2022-10-28T12:09:13Z</time>
      </trkpt>
      <trkpt lat="44.42767" lon="3.71656">
        <ele>1616.6</ele>
        <time>2022-10-28T12:09:14Z</time>
      </trkpt>
      <trkpt lat="44.42765" lon="3.71659">
        <ele>1616.6</ele>
        <time>2022-10-28T12:09:15Z</time>
      </trkpt>
      <trkpt lat="44.42764" lon="3.71661">
        <ele>1616.8</ele>
        <time>2022-10-28T12:09:16Z</time>
      </trkpt>
      <trkpt lat="44.42762" lon="3.71664">
        <ele>1616.8</ele>
        <time>2022-10-28T12:09:17Z</time>
      </trkpt>
      <trkpt lat="44.42761" lon="3.71666">
        <ele>1617</ele>
        <time>2022-10-28T12:09:18Z</time>
      </trkpt>
      <trkpt lat="44.4276" lon="3.71669">
        <ele>1617</ele>
        <time>2022-10-28T12:09:19Z</time>
      </trkpt>
      <trkpt lat="44.42758" lon="3.71672">
        <ele>1617</ele>
        <time>2022-10-28T12:09:20Z</time>
      </trkpt>
      <trkpt lat="44.42756" lon="3.71674">
        <ele>1617.2</ele>
        <time>2022-10-28T12:09:21Z</time>
      </trkpt>
      <trkpt lat="44.42754" lon="3.71676">
        <ele>1617.2</ele>
        <time>2022-10-28T12:09:22Z</time>
      </trkpt>
      <trkpt lat="44.42753" lon="3.71679">
        <ele>1617.2</ele>
        <time>2022-10-28T12:09:23Z</time>
      </trkpt>
      <trkpt lat="44.42751" lon="3.71681">
        <ele>1617.4</ele>
        <time>2022-10-28T12:09:24Z</time>
      </trkpt>
      <trkpt lat="44.42749" lon="3.71684">
        <ele>1617.4</ele>
        <time>2022-10-28T12:09:25Z</time>
      </trkpt>
      <trkpt lat="44.42748" lon="3.71688">
        <ele>1617.4</ele>
        <time>2022-10-28T12:09:26Z</time>
      </trkpt>
      <trkpt lat="44.42746" lon="3.71691">
        <ele>1617.4</ele>
        <time>2022-10-28T12:09:27Z</time>
      </trkpt>
      <trkpt lat="44.42745" lon="3.71694">
        <ele>1617.6</ele>
        <time>2022-10-28T12:09:28Z</time>
      </trkpt>
      <trkpt lat="44.42743" lon="3.71697">
        <ele>1617.6</ele>
        <time>2022-10-28T12:09:29Z</time>
      </trkpt>
      <trkpt lat="44.42742" lon="3.717">
        <ele>1617.6</ele>
        <time>2022-10-28T12:09:30Z</time>
      </trkpt>
      <trkpt lat="44.42741" lon="3.71703">
        <ele>1617.6</ele>
        <time>2022-10-28T12:09:31Z</time>
      </trkpt>
      <trkpt lat="44.42739" lon="3.71706">
        <ele>1617.8</ele>
        <time>2022-10-28T12:09:32Z</time>
      </trkpt>
      <trkpt lat="44.42738" lon="3.71708">
        <ele>1617.8</ele>
        <time>2022-10-28T12:09:33Z</time>
      </trkpt>
      <trkpt lat="44.42736" lon="3.71711">
        <ele>1617.8</ele>
        <time>2022-10-28T12:09:34Z</time>
      </trkpt>
      <trkpt lat="44.42734" lon="3.71714">
        <ele>1617.8</ele>
        <time>2022-10-28T12:09:35Z</time>
      </trkpt>
      <trkpt lat="44.42733" lon="3.71717">
        <ele>1617.8</ele>
        <time>2022-10-28T12:09:36Z</time>
      </trkpt>
      <trkpt lat="44.42731" lon="3.7172">
        <ele>1617.8</ele>
        <time>2022-10-28T12:09:37Z</time>
      </trkpt>
      <trkpt lat="44.4273" lon="3.71723">
        <ele>1617.8</ele>
        <time>2022-10-28T12:09:38Z</time>
      </trkpt>
      <trkpt lat="44.42728" lon="3.71727">
        <ele>1617.8</ele>
        <time>2022-10-28T12:09:39Z</time>
      </trkpt>
      <trkpt lat="44.42727" lon="3.7173">
        <ele>1618</ele>
        <time>2022-10-28T12:09:40Z</time>
      </trkpt>
      <trkpt lat="44.42725" lon="3.71733">
        <ele>1618</ele>
        <time>2022-10-28T12:09:41Z</time>
      </trkpt>
      <trkpt lat="44.42724" lon="3.71735">
        <ele>1618</ele>
        <time>2022-10-28T12:09:42Z</time>
      </trkpt>
      <trkpt lat="44.42722" lon="3.71738">
        <ele>1618</ele>
        <time>2022-10-28T12:09:43Z</time>
      </trkpt>
      <trkpt lat="44.42721" lon="3.71741">
        <ele>1618</ele>
        <time>2022-10-28T12:09:44Z</time>
      </trkpt>
      <trkpt lat="44.4272" lon="3.71744">
        <ele>1618</ele>
        <time>2022-10-28T12:09:45Z</time>
      </trkpt>
      <trkpt lat="44.42718" lon="3.71747">
        <ele>1618</ele>
        <time>2022-10-28T12:09:46Z</time>
      </trkpt>
      <trkpt lat="44.42717" lon="3.71749">
        <ele>1618.2</ele>
        <time>2022-10-28T12:09:47Z</time>
      </trkpt>
      <trkpt lat="44.42716" lon="3.71752">
        <ele>1618.2</ele>
        <time>2022-10-28T12:09:48Z</time>
      </trkpt>
      <trkpt lat="44.42714" lon="3.71755">
        <ele>1618.2</ele>
        <time>2022-10-28T12:09:49Z</time>
      </trkpt>
      <trkpt lat="44.42713" lon="3.71757">
        <ele>1618.4</ele>
        <time>2022-10-28T12:09:50Z</time>
      </trkpt>
      <trkpt lat="44.42712" lon="3.7176">
        <ele>1618.4</ele>
        <time>2022-10-28T12:09:51Z</time>
      </trkpt>
      <trkpt lat="44.4271" lon="3.71763">
        <ele>1618.4</ele>
        <time>2022-10-28T12:09:52Z</time>
      </trkpt>
      <trkpt lat="44.42709" lon="3.71766">
        <ele>1618.6</ele>
        <time>2022-10-28T12:09:53Z</time>
      </trkpt>
      <trkpt lat="44.42708" lon="3.71768">
        <ele>1618.6</ele>
        <time>2022-10-28T12:09:54Z</time>
      </trkpt>
      <trkpt lat="44.42707" lon="3.71771">
        <ele>1618.6</ele>
        <time>2022-10-28T12:09:55Z</time>
      </trkpt>
      <trkpt lat="44.42705" lon="3.71774">
        <ele>1618.6</ele>
        <time>2022-10-28T12:09:56Z</time>
      </trkpt>
      <trkpt lat="44.42704" lon="3.71777">
        <ele>1618.8</ele>
        <time>2022-10-28T12:09:57Z</time>
      </trkpt>
      <trkpt lat="44.42703" lon="3.71779">
        <ele>1618.8</ele>
        <time>2022-10-28T12:09:58Z</time>
      </trkpt>
      <trkpt lat="44.42702" lon="3.71782">
        <ele>1619</ele>
        <time>2022-10-28T12:09:59Z</time>
      </trkpt>
      <trkpt lat="44.42701" lon="3.71784">
        <ele>1619</ele>
        <time>2022-10-28T12:10:00Z</time>
      </trkpt>
      <trkpt lat="44.427" lon="3.71785">
        <ele>1619.2</ele>
        <time>2022-10-28T12:10:01Z</time>
      </trkpt>
      <trkpt lat="44.42699" lon="3.71788">
        <ele>1619.2</ele>
        <time>2022-10-28T12:10:02Z</time>
      </trkpt>
      <trkpt lat="44.42697" lon="3.71792">
        <ele>1619.4</ele>
        <time>2022-10-28T12:10:03Z</time>
      </trkpt>
      <trkpt lat="44.42696" lon="3.71794">
        <ele>1619.4</ele>
        <time>2022-10-28T12:10:04Z</time>
      </trkpt>
      <trkpt lat="44.42694" lon="3.71797">
        <ele>1619.6</ele>
        <time>2022-10-28T12:10:05Z</time>
      </trkpt>
      <trkpt lat="44.42693" lon="3.71799">
        <ele>1619.6</ele>
        <time>2022-10-28T12:10:06Z</time>
      </trkpt>
      <trkpt lat="44.42692" lon="3.71802">
        <ele>1619.8</ele>
        <time>2022-10-28T12:10:07Z</time>
      </trkpt>
      <trkpt lat="44.4269" lon="3.71805">
        <ele>1620</ele>
        <time>2022-10-28T12:10:08Z</time>
      </trkpt>
      <trkpt lat="44.42689" lon="3.71807">
        <ele>1620</ele>
        <time>2022-10-28T12:10:09Z</time>
      </trkpt>
      <trkpt lat="44.42687" lon="3.7181">
        <ele>1620.2</ele>
        <time>2022-10-28T12:10:10Z</time>
      </trkpt>
      <trkpt lat="44.42687" lon="3.71813">
        <ele>1620.2</ele>
        <time>2022-10-28T12:10:11Z</time>
      </trkpt>
      <trkpt lat="44.42686" lon="3.71815">
        <ele>1620.4</ele>
        <time>2022-10-28T12:10:12Z</time>
      </trkpt>
      <trkpt lat="44.42684" lon="3.71818">
        <ele>1620.6</ele>
        <time>2022-10-28T12:10:13Z</time>
      </trkpt>
      <trkpt lat="44.42683" lon="3.7182">
        <ele>1620.6</ele>
        <time>2022-10-28T12:10:14Z</time>
      </trkpt>
      <trkpt lat="44.42682" lon="3.71823">
        <ele>1620.8</ele>
        <time>2022-10-28T12:10:15Z</time>
      </trkpt>
      <trkpt lat="44.4268" lon="3.71825">
        <ele>1620.8</ele>
        <time>2022-10-28T12:10:16Z</time>
      </trkpt>
      <trkpt lat="44.42679" lon="3.71827">
        <ele>1621</ele>
        <time>2022-10-28T12:10:17Z</time>
      </trkpt>
      <trkpt lat="44.42678" lon="3.7183">
        <ele>1621</ele>
        <time>2022-10-28T12:10:18Z</time>
      </trkpt>
      <trkpt lat="44.42677" lon="3.71833">
        <ele>1621</ele>
        <time>2022-10-28T12:10:19Z</time>
      </trkpt>
      <trkpt lat="44.42675" lon="3.71835">
        <ele>1621.2</ele>
        <time>2022-10-28T12:10:20Z</time>
      </trkpt>
      <trkpt lat="44.42674" lon="3.71838">
        <ele>1621.2</ele>
        <time>2022-10-28T12:10:21Z</time>
      </trkpt>
      <trkpt lat="44.42673" lon="3.7184">
        <ele>1621.2</ele>
        <time>2022-10-28T12:10:22Z</time>
      </trkpt>
      <trkpt lat="44.42672" lon="3.71842">
        <ele>1621.4</ele>
        <time>2022-10-28T12:10:23Z</time>
      </trkpt>
      <trkpt lat="44.42671" lon="3.71845">
        <ele>1621.4</ele>
        <time>2022-10-28T12:10:24Z</time>
      </trkpt>
      <trkpt lat="44.4267" lon="3.71847">
        <ele>1621.6</ele>
        <time>2022-10-28T12:10:25Z</time>
      </trkpt>
      <trkpt lat="44.42669" lon="3.7185">
        <ele>1621.6</ele>
        <time>2022-10-28T12:10:26Z</time>
      </trkpt>
      <trkpt lat="44.42668" lon="3.71852">
        <ele>1621.8</ele>
        <time>2022-10-28T12:10:27Z</time>
      </trkpt>
      <trkpt lat="44.42667" lon="3.71854">
        <ele>1621.8</ele>
        <time>2022-10-28T12:10:28Z</time>
      </trkpt>
      <trkpt lat="44.42666" lon="3.71856">
        <ele>1621.8</ele>
        <time>2022-10-28T12:10:29Z</time>
      </trkpt>
      <trkpt lat="44.42664" lon="3.71858">
        <ele>1622</ele>
        <time>2022-10-28T12:10:30Z</time>
      </trkpt>
      <trkpt lat="44.42663" lon="3.71861">
        <ele>1622</ele>
        <time>2022-10-28T12:10:31Z</time>
      </trkpt>
      <trkpt lat="44.42662" lon="3.71863">
        <ele>1622</ele>
        <time>2022-10-28T12:10:32Z</time>
      </trkpt>
      <trkpt lat="44.42661" lon="3.71865">
        <ele>1622.2</ele>
        <time>2022-10-28T12:10:33Z</time>
      </trkpt>
      <trkpt lat="44.4266" lon="3.71868">
        <ele>1622.2</ele>
        <time>2022-10-28T12:10:34Z</time>
      </trkpt>
      <trkpt lat="44.42659" lon="3.7187">
        <ele>1622.4</ele>
        <time>2022-10-28T12:10:35Z</time>
      </trkpt>
      <trkpt lat="44.42658" lon="3.71873">
        <ele>1622.4</ele>
        <time>2022-10-28T12:10:36Z</time>
      </trkpt>
      <trkpt lat="44.42657" lon="3.71875">
        <ele>1622.6</ele>
        <time>2022-10-28T12:10:37Z</time>
      </trkpt>
      <trkpt lat="44.42656" lon="3.71878">
        <ele>1622.6</ele>
        <time>2022-10-28T12:10:38Z</time>
      </trkpt>
      <trkpt lat="44.42655" lon="3.71881">
        <ele>1622.8</ele>
        <time>2022-10-28T12:10:39Z</time>
      </trkpt>
      <trkpt lat="44.42654" lon="3.71883">
        <ele>1622.8</ele>
        <time>2022-10-28T12:10:40Z</time>
      </trkpt>
      <trkpt lat="44.42653" lon="3.71886">
        <ele>1622.8</ele>
        <time>2022-10-28T12:10:41Z</time>
      </trkpt>
      <trkpt lat="44.42651" lon="3.71888">
        <ele>1623</ele>
        <time>2022-10-28T12:10:42Z</time>
      </trkpt>
      <trkpt lat="44.4265" lon="3.71891">
        <ele>1623</ele>
        <time>2022-10-28T12:10:43Z</time>
      </trkpt>
      <trkpt lat="44.42648" lon="3.71893">
        <ele>1623.2</ele>
        <time>2022-10-28T12:10:44Z</time>
      </trkpt>
      <trkpt lat="44.42647" lon="3.71896">
        <ele>1623.2</ele>
        <time>2022-10-28T12:10:45Z</time>
      </trkpt>
      <trkpt lat="44.42647" lon="3.71898">
        <ele>1623.4</ele>
        <time>2022-10-28T12:10:46Z</time>
      </trkpt>
      <trkpt lat="44.42645" lon="3.71901">
        <ele>1623.4</ele>
        <time>2022-10-28T12:10:47Z</time>
      </trkpt>
      <trkpt lat="44.42644" lon="3.71903">
        <ele>1623.6</ele>
        <time>2022-10-28T12:10:48Z</time>
      </trkpt>
      <trkpt lat="44.42643" lon="3.71905">
        <ele>1623.6</ele>
        <time>2022-10-28T12:10:49Z</time>
      </trkpt>
      <trkpt lat="44.42642" lon="3.71908">
        <ele>1623.8</ele>
        <time>2022-10-28T12:10:50Z</time>
      </trkpt>
      <trkpt lat="44.42641" lon="3.7191">
        <ele>1623.8</ele>
        <time>2022-10-28T12:10:51Z</time>
      </trkpt>
      <trkpt lat="44.4264" lon="3.71912">
        <ele>1624</ele>
        <time>2022-10-28T12:10:52Z</time>
      </trkpt>
      <trkpt lat="44.42638" lon="3.71915">
        <ele>1624</ele>
        <time>2022-10-28T12:10:53Z</time>
      </trkpt>
      <trkpt lat="44.42637" lon="3.71917">
        <ele>1624</ele>
        <time>2022-10-28T12:10:54Z</time>
      </trkpt>
      <trkpt lat="44.42636" lon="3.7192">
        <ele>1624.2</ele>
        <time>2022-10-28T12:10:55Z</time>
      </trkpt>
      <trkpt lat="44.42634" lon="3.71923">
        <ele>1624.4</ele>
        <time>2022-10-28T12:10:56Z</time>
      </trkpt>
      <trkpt lat="44.42633" lon="3.71925">
        <ele>1624.4</ele>
        <time>2022-10-28T12:10:57Z</time>
      </trkpt>
      <trkpt lat="44.42632" lon="3.71928">
        <ele>1624.6</ele>
        <time>2022-10-28T12:10:58Z</time>
      </trkpt>
      <trkpt lat="44.4263" lon="3.7193">
        <ele>1624.6</ele>
        <time>2022-10-28T12:10:59Z</time>
      </trkpt>
      <trkpt lat="44.42629" lon="3.71933">
        <ele>1624.8</ele>
        <time>2022-10-28T12:11:00Z</time>
      </trkpt>
      <trkpt lat="44.42628" lon="3.71936">
        <ele>1625</ele>
        <time>2022-10-28T12:11:01Z</time>
      </trkpt>
      <trkpt lat="44.42627" lon="3.71938">
        <ele>1625</ele>
        <time>2022-10-28T12:11:02Z</time>
      </trkpt>
      <trkpt lat="44.42626" lon="3.71941">
        <ele>1625.2</ele>
        <time>2022-10-28T12:11:03Z</time>
      </trkpt>
      <trkpt lat="44.42624" lon="3.71944">
        <ele>1625.4</ele>
        <time>2022-10-28T12:11:04Z</time>
      </trkpt>
      <trkpt lat="44.42623" lon="3.71946">
        <ele>1625.4</ele>
        <time>2022-10-28T12:11:05Z</time>
      </trkpt>
      <trkpt lat="44.42622" lon="3.71949">
        <ele>1625.6</ele>
        <time>2022-10-28T12:11:06Z</time>
      </trkpt>
      <trkpt lat="44.42621" lon="3.71952">
        <ele>1625.6</ele>
        <time>2022-10-28T12:11:07Z</time>
      </trkpt>
      <trkpt lat="44.4262" lon="3.71955">
        <ele>1625.8</ele>
        <time>2022-10-28T12:11:08Z</time>
      </trkpt>
      <trkpt lat="44.42619" lon="3.71958">
        <ele>1626</ele>
        <time>2022-10-28T12:11:09Z</time>
      </trkpt>
      <trkpt lat="44.42618" lon="3.7196">
        <ele>1626</ele>
        <time>2022-10-28T12:11:10Z</time>
      </trkpt>
      <trkpt lat="44.42617" lon="3.71963">
        <ele>1626.2</ele>
        <time>2022-10-28T12:11:11Z</time>
      </trkpt>
      <trkpt lat="44.42616" lon="3.71965">
        <ele>1626.2</ele>
        <time>2022-10-28T12:11:12Z</time>
      </trkpt>
      <trkpt lat="44.42615" lon="3.71967">
        <ele>1626.4</ele>
        <time>2022-10-28T12:11:13Z</time>
      </trkpt>
      <trkpt lat="44.42614" lon="3.7197">
        <ele>1626.4</ele>
        <time>2022-10-28T12:11:14Z</time>
      </trkpt>
      <trkpt lat="44.42613" lon="3.71972">
        <ele>1626.6</ele>
        <time>2022-10-28T12:11:15Z</time>
      </trkpt>
      <trkpt lat="44.42612" lon="3.71974">
        <ele>1626.6</ele>
        <time>2022-10-28T12:11:16Z</time>
      </trkpt>
      <trkpt lat="44.4261" lon="3.71977">
        <ele>1626.8</ele>
        <time>2022-10-28T12:11:17Z</time>
      </trkpt>
      <trkpt lat="44.42609" lon="3.7198">
        <ele>1627</ele>
        <time>2022-10-28T12:11:18Z</time>
      </trkpt>
      <trkpt lat="44.42608" lon="3.71983">
        <ele>1627</ele>
        <time>2022-10-28T12:11:19Z</time>
      </trkpt>
      <trkpt lat="44.42607" lon="3.71985">
        <ele>1627</ele>
        <time>2022-10-28T12:11:20Z</time>
      </trkpt>
      <trkpt lat="44.42606" lon="3.71988">
        <ele>1627</ele>
        <time>2022-10-28T12:11:21Z</time>
      </trkpt>
      <trkpt lat="44.42605" lon="3.7199">
        <ele>1627.2</ele>
        <time>2022-10-28T12:11:22Z</time>
      </trkpt>
      <trkpt lat="44.42605" lon="3.71992">
        <ele>1627.2</ele>
        <time>2022-10-28T12:11:23Z</time>
      </trkpt>
      <trkpt lat="44.42603" lon="3.71994">
        <ele>1627.4</ele>
        <time>2022-10-28T12:11:24Z</time>
      </trkpt>
      <trkpt lat="44.42602" lon="3.71996">
        <ele>1627.4</ele>
        <time>2022-10-28T12:11:25Z</time>
      </trkpt>
      <trkpt lat="44.42602" lon="3.71997">
        <ele>1627.4</ele>
        <time>2022-10-28T12:11:26Z</time>
      </trkpt>
      <trkpt lat="44.42601" lon="3.71999">
        <ele>1627.6</ele>
        <time>2022-10-28T12:11:27Z</time>
      </trkpt>
      <trkpt lat="44.426" lon="3.72001">
        <ele>1627.6</ele>
        <time>2022-10-28T12:11:28Z</time>
      </trkpt>
      <trkpt lat="44.42599" lon="3.72003">
        <ele>1627.6</ele>
        <time>2022-10-28T12:11:29Z</time>
      </trkpt>
      <trkpt lat="44.42597" lon="3.72006">
        <ele>1627.6</ele>
        <time>2022-10-28T12:11:30Z</time>
      </trkpt>
      <trkpt lat="44.42596" lon="3.72008">
        <ele>1627.8</ele>
        <time>2022-10-28T12:11:31Z</time>
      </trkpt>
      <trkpt lat="44.42595" lon="3.72011">
        <ele>1627.8</ele>
        <time>2022-10-28T12:11:32Z</time>
      </trkpt>
      <trkpt lat="44.42593" lon="3.72013">
        <ele>1627.8</ele>
        <time>2022-10-28T12:11:33Z</time>
      </trkpt>
      <trkpt lat="44.42592" lon="3.72016">
        <ele>1628</ele>
        <time>2022-10-28T12:11:34Z</time>
      </trkpt>
      <trkpt lat="44.42591" lon="3.72019">
        <ele>1628</ele>
        <time>2022-10-28T12:11:35Z</time>
      </trkpt>
      <trkpt lat="44.4259" lon="3.72022">
        <ele>1628.2</ele>
        <time>2022-10-28T12:11:36Z</time>
      </trkpt>
      <trkpt lat="44.42589" lon="3.72025">
        <ele>1628.2</ele>
        <time>2022-10-28T12:11:37Z</time>
      </trkpt>
      <trkpt lat="44.42588" lon="3.72027">
        <ele>1628.4</ele>
        <time>2022-10-28T12:11:38Z</time>
      </trkpt>
      <trkpt lat="44.42587" lon="3.7203">
        <ele>1628.4</ele>
        <time>2022-10-28T12:11:39Z</time>
      </trkpt>
      <trkpt lat="44.42585" lon="3.72032">
        <ele>1628.6</ele>
        <time>2022-10-28T12:11:40Z</time>
      </trkpt>
      <trkpt lat="44.42584" lon="3.72035">
        <ele>1628.6</ele>
        <time>2022-10-28T12:11:41Z</time>
      </trkpt>
      <trkpt lat="44.42583" lon="3.72037">
        <ele>1628.8</ele>
        <time>2022-10-28T12:11:42Z</time>
      </trkpt>
      <trkpt lat="44.42581" lon="3.72039">
        <ele>1629</ele>
        <time>2022-10-28T12:11:43Z</time>
      </trkpt>
      <trkpt lat="44.4258" lon="3.72041">
        <ele>1629</ele>
        <time>2022-10-28T12:11:44Z</time>
      </trkpt>
      <trkpt lat="44.42578" lon="3.72044">
        <ele>1629</ele>
        <time>2022-10-28T12:11:45Z</time>
      </trkpt>
      <trkpt lat="44.42577" lon="3.72046">
        <ele>1629.2</ele>
        <time>2022-10-28T12:11:46Z</time>
      </trkpt>
      <trkpt lat="44.42576" lon="3.72049">
        <ele>1629.2</ele>
        <time>2022-10-28T12:11:47Z</time>
      </trkpt>
      <trkpt lat="44.42576" lon="3.72052">
        <ele>1629.2</ele>
        <time>2022-10-28T12:11:48Z</time>
      </trkpt>
      <trkpt lat="44.42575" lon="3.72055">
        <ele>1629.4</ele>
        <time>2022-10-28T12:11:49Z</time>
      </trkpt>
      <trkpt lat="44.42574" lon="3.72057">
        <ele>1629.4</ele>
        <time>2022-10-28T12:11:50Z</time>
      </trkpt>
      <trkpt lat="44.42573" lon="3.72059">
        <ele>1629.4</ele>
        <time>2022-10-28T12:11:51Z</time>
      </trkpt>
      <trkpt lat="44.42572" lon="3.72062">
        <ele>1629.6</ele>
        <time>2022-10-28T12:11:52Z</time>
      </trkpt>
      <trkpt lat="44.42571" lon="3.72065">
        <ele>1629.6</ele>
        <time>2022-10-28T12:11:53Z</time>
      </trkpt>
      <trkpt lat="44.4257" lon="3.72067">
        <ele>1629.8</ele>
        <time>2022-10-28T12:11:54Z</time>
      </trkpt>
      <trkpt lat="44.42569" lon="3.7207">
        <ele>1629.8</ele>
        <time>2022-10-28T12:11:55Z</time>
      </trkpt>
      <trkpt lat="44.42568" lon="3.72073">
        <ele>1629.8</ele>
        <time>2022-10-28T12:11:56Z</time>
      </trkpt>
      <trkpt lat="44.42567" lon="3.72076">
        <ele>1630</ele>
        <time>2022-10-28T12:11:57Z</time>
      </trkpt>
      <trkpt lat="44.42566" lon="3.72079">
        <ele>1630</ele>
        <time>2022-10-28T12:11:58Z</time>
      </trkpt>
      <trkpt lat="44.42565" lon="3.72082">
        <ele>1630</ele>
        <time>2022-10-28T12:11:59Z</time>
      </trkpt>
      <trkpt lat="44.42564" lon="3.72084">
        <ele>1630.2</ele>
        <time>2022-10-28T12:12:00Z</time>
      </trkpt>
      <trkpt lat="44.42564" lon="3.72087">
        <ele>1630.4</ele>
        <time>2022-10-28T12:12:01Z</time>
      </trkpt>
      <trkpt lat="44.42563" lon="3.7209">
        <ele>1630.4</ele>
        <time>2022-10-28T12:12:02Z</time>
      </trkpt>
      <trkpt lat="44.42562" lon="3.72093">
        <ele>1630.6</ele>
        <time>2022-10-28T12:12:03Z</time>
      </trkpt>
      <trkpt lat="44.42561" lon="3.72096">
        <ele>1630.6</ele>
        <time>2022-10-28T12:12:04Z</time>
      </trkpt>
      <trkpt lat="44.4256" lon="3.72099">
        <ele>1630.8</ele>
        <time>2022-10-28T12:12:05Z</time>
      </trkpt>
      <trkpt lat="44.4256" lon="3.72102">
        <ele>1630.8</ele>
        <time>2022-10-28T12:12:06Z</time>
      </trkpt>
      <trkpt lat="44.42559" lon="3.72105">
        <ele>1631</ele>
        <time>2022-10-28T12:12:07Z</time>
      </trkpt>
      <trkpt lat="44.42558" lon="3.72108">
        <ele>1631</ele>
        <time>2022-10-28T12:12:08Z</time>
      </trkpt>
      <trkpt lat="44.42557" lon="3.7211">
        <ele>1631.2</ele>
        <time>2022-10-28T12:12:09Z</time>
      </trkpt>
      <trkpt lat="44.42556" lon="3.72113">
        <ele>1631.2</ele>
        <time>2022-10-28T12:12:10Z</time>
      </trkpt>
      <trkpt lat="44.42555" lon="3.72116">
        <ele>1631.4</ele>
        <time>2022-10-28T12:12:11Z</time>
      </trkpt>
      <trkpt lat="44.42554" lon="3.72118">
        <ele>1631.4</ele>
        <time>2022-10-28T12:12:12Z</time>
      </trkpt>
      <trkpt lat="44.42553" lon="3.72121">
        <ele>1631.6</ele>
        <time>2022-10-28T12:12:13Z</time>
      </trkpt>
      <trkpt lat="44.42552" lon="3.72124">
        <ele>1631.6</ele>
        <time>2022-10-28T12:12:14Z</time>
      </trkpt>
      <trkpt lat="44.4255" lon="3.72126">
        <ele>1631.8</ele>
        <time>2022-10-28T12:12:15Z</time>
      </trkpt>
      <trkpt lat="44.42549" lon="3.72129">
        <ele>1631.8</ele>
        <time>2022-10-28T12:12:16Z</time>
      </trkpt>
      <trkpt lat="44.42548" lon="3.72132">
        <ele>1632</ele>
        <time>2022-10-28T12:12:17Z</time>
      </trkpt>
      <trkpt lat="44.42547" lon="3.72134">
        <ele>1632</ele>
        <time>2022-10-28T12:12:18Z</time>
      </trkpt>
      <trkpt lat="44.42547" lon="3.72137">
        <ele>1632.2</ele>
        <time>2022-10-28T12:12:19Z</time>
      </trkpt>
      <trkpt lat="44.42545" lon="3.7214">
        <ele>1632.2</ele>
        <time>2022-10-28T12:12:20Z</time>
      </trkpt>
      <trkpt lat="44.42544" lon="3.72143">
        <ele>1632.4</ele>
        <time>2022-10-28T12:12:21Z</time>
      </trkpt>
      <trkpt lat="44.42544" lon="3.72146">
        <ele>1632.4</ele>
        <time>2022-10-28T12:12:22Z</time>
      </trkpt>
      <trkpt lat="44.42543" lon="3.72149">
        <ele>1632.4</ele>
        <time>2022-10-28T12:12:23Z</time>
      </trkpt>
      <trkpt lat="44.42543" lon="3.72152">
        <ele>1632.6</ele>
        <time>2022-10-28T12:12:24Z</time>
      </trkpt>
      <trkpt lat="44.42542" lon="3.72155">
        <ele>1632.6</ele>
        <time>2022-10-28T12:12:25Z</time>
      </trkpt>
      <trkpt lat="44.42542" lon="3.72159">
        <ele>1632.8</ele>
        <time>2022-10-28T12:12:26Z</time>
      </trkpt>
      <trkpt lat="44.42541" lon="3.72162">
        <ele>1633</ele>
        <time>2022-10-28T12:12:27Z</time>
      </trkpt>
      <trkpt lat="44.42541" lon="3.72165">
        <ele>1633</ele>
        <time>2022-10-28T12:12:28Z</time>
      </trkpt>
      <trkpt lat="44.42541" lon="3.72168">
        <ele>1633</ele>
        <time>2022-10-28T12:12:29Z</time>
      </trkpt>
      <trkpt lat="44.4254" lon="3.72171">
        <ele>1633</ele>
        <time>2022-10-28T12:12:30Z</time>
      </trkpt>
      <trkpt lat="44.42539" lon="3.72174">
        <ele>1633.2</ele>
        <time>2022-10-28T12:12:31Z</time>
      </trkpt>
      <trkpt lat="44.42538" lon="3.72176">
        <ele>1633.2</ele>
        <time>2022-10-28T12:12:32Z</time>
      </trkpt>
      <trkpt lat="44.42537" lon="3.72179">
        <ele>1633.2</ele>
        <time>2022-10-28T12:12:33Z</time>
      </trkpt>
      <trkpt lat="44.42536" lon="3.72181">
        <ele>1633.4</ele>
        <time>2022-10-28T12:12:34Z</time>
      </trkpt>
      <trkpt lat="44.42536" lon="3.72184">
        <ele>1633.4</ele>
        <time>2022-10-28T12:12:35Z</time>
      </trkpt>
      <trkpt lat="44.42535" lon="3.72187">
        <ele>1633.6</ele>
        <time>2022-10-28T12:12:36Z</time>
      </trkpt>
      <trkpt lat="44.42534" lon="3.7219">
        <ele>1633.8</ele>
        <time>2022-10-28T12:12:37Z</time>
      </trkpt>
      <trkpt lat="44.42533" lon="3.72193">
        <ele>1633.8</ele>
        <time>2022-10-28T12:12:38Z</time>
      </trkpt>
      <trkpt lat="44.42533" lon="3.72196">
        <ele>1634</ele>
        <time>2022-10-28T12:12:39Z</time>
      </trkpt>
      <trkpt lat="44.42533" lon="3.72199">
        <ele>1634.2</ele>
        <time>2022-10-28T12:12:40Z</time>
      </trkpt>
      <trkpt lat="44.42532" lon="3.72202">
        <ele>1634.2</ele>
        <time>2022-10-28T12:12:41Z</time>
      </trkpt>
      <trkpt lat="44.42531" lon="3.72205">
        <ele>1634.4</ele>
        <time>2022-10-28T12:12:42Z</time>
      </trkpt>
      <trkpt lat="44.4253" lon="3.72208">
        <ele>1634.6</ele>
        <time>2022-10-28T12:12:43Z</time>
      </trkpt>
      <trkpt lat="44.4253" lon="3.72211">
        <ele>1634.6</ele>
        <time>2022-10-28T12:12:44Z</time>
      </trkpt>
      <trkpt lat="44.42529" lon="3.72214">
        <ele>1634.8</ele>
        <time>2022-10-28T12:12:45Z</time>
      </trkpt>
      <trkpt lat="44.42528" lon="3.72217">
        <ele>1635</ele>
        <time>2022-10-28T12:12:46Z</time>
      </trkpt>
      <trkpt lat="44.42528" lon="3.7222">
        <ele>1635</ele>
        <time>2022-10-28T12:12:47Z</time>
      </trkpt>
      <trkpt lat="44.42527" lon="3.72223">
        <ele>1635.2</ele>
        <time>2022-10-28T12:12:48Z</time>
      </trkpt>
      <trkpt lat="44.42526" lon="3.72226">
        <ele>1635.4</ele>
        <time>2022-10-28T12:12:49Z</time>
      </trkpt>
      <trkpt lat="44.42526" lon="3.7223">
        <ele>1635.4</ele>
        <time>2022-10-28T12:12:50Z</time>
      </trkpt>
      <trkpt lat="44.42525" lon="3.72233">
        <ele>1635.4</ele>
        <time>2022-10-28T12:12:51Z</time>
      </trkpt>
      <trkpt lat="44.42525" lon="3.72237">
        <ele>1635.6</ele>
        <time>2022-10-28T12:12:52Z</time>
      </trkpt>
      <trkpt lat="44.42524" lon="3.72241">
        <ele>1635.6</ele>
        <time>2022-10-28T12:12:53Z</time>
      </trkpt>
      <trkpt lat="44.42523" lon="3.72244">
        <ele>1635.8</ele>
        <time>2022-10-28T12:12:54Z</time>
      </trkpt>
      <trkpt lat="44.42523" lon="3.72248">
        <ele>1635.8</ele>
        <time>2022-10-28T12:12:55Z</time>
      </trkpt>
      <trkpt lat="44.42521" lon="3.72252">
        <ele>1636</ele>
        <time>2022-10-28T12:12:56Z</time>
      </trkpt>
      <trkpt lat="44.4252" lon="3.72255">
        <ele>1636</ele>
        <time>2022-10-28T12:12:57Z</time>
      </trkpt>
      <trkpt lat="44.42519" lon="3.72258">
        <ele>1636</ele>
        <time>2022-10-28T12:12:58Z</time>
      </trkpt>
      <trkpt lat="44.42519" lon="3.72262">
        <ele>1636.2</ele>
        <time>2022-10-28T12:12:59Z</time>
      </trkpt>
      <trkpt lat="44.42518" lon="3.72265">
        <ele>1636.2</ele>
        <time>2022-10-28T12:13:00Z</time>
      </trkpt>
      <trkpt lat="44.42517" lon="3.72269">
        <ele>1636.2</ele>
        <time>2022-10-28T12:13:01Z</time>
      </trkpt>
      <trkpt lat="44.42516" lon="3.72272">
        <ele>1636.4</ele>
        <time>2022-10-28T12:13:02Z</time>
      </trkpt>
      <trkpt lat="44.42516" lon="3.72276">
        <ele>1636.4</ele>
        <time>2022-10-28T12:13:03Z</time>
      </trkpt>
      <trkpt lat="44.42516" lon="3.72279">
        <ele>1636.6</ele>
        <time>2022-10-28T12:13:04Z</time>
      </trkpt>
      <trkpt lat="44.42515" lon="3.72282">
        <ele>1636.8</ele>
        <time>2022-10-28T12:13:05Z</time>
      </trkpt>
      <trkpt lat="44.42515" lon="3.72285">
        <ele>1636.8</ele>
        <time>2022-10-28T12:13:06Z</time>
      </trkpt>
      <trkpt lat="44.42515" lon="3.72288">
        <ele>1637</ele>
        <time>2022-10-28T12:13:07Z</time>
      </trkpt>
      <trkpt lat="44.42515" lon="3.72291">
        <ele>1637</ele>
        <time>2022-10-28T12:13:08Z</time>
      </trkpt>
      <trkpt lat="44.42515" lon="3.72294">
        <ele>1637.2</ele>
        <time>2022-10-28T12:13:09Z</time>
      </trkpt>
      <trkpt lat="44.42516" lon="3.72297">
        <ele>1637.2</ele>
        <time>2022-10-28T12:13:10Z</time>
      </trkpt>
      <trkpt lat="44.42516" lon="3.72301">
        <ele>1637.4</ele>
        <time>2022-10-28T12:13:11Z</time>
      </trkpt>
      <trkpt lat="44.42516" lon="3.72303">
        <ele>1637.4</ele>
        <time>2022-10-28T12:13:12Z</time>
      </trkpt>
      <trkpt lat="44.42517" lon="3.72306">
        <ele>1637.6</ele>
        <time>2022-10-28T12:13:13Z</time>
      </trkpt>
      <trkpt lat="44.42517" lon="3.72309">
        <ele>1637.8</ele>
        <time>2022-10-28T12:13:14Z</time>
      </trkpt>
      <trkpt lat="44.42518" lon="3.72312">
        <ele>1638</ele>
        <time>2022-10-28T12:13:15Z</time>
      </trkpt>
      <trkpt lat="44.42517" lon="3.72314">
        <ele>1638</ele>
        <time>2022-10-28T12:13:16Z</time>
      </trkpt>
      <trkpt lat="44.42517" lon="3.72317">
        <ele>1638.2</ele>
        <time>2022-10-28T12:13:17Z</time>
      </trkpt>
      <trkpt lat="44.42517" lon="3.72319">
        <ele>1638.4</ele>
        <time>2022-10-28T12:13:18Z</time>
      </trkpt>
      <trkpt lat="44.42516" lon="3.72321">
        <ele>1638.6</ele>
        <time>2022-10-28T12:13:19Z</time>
      </trkpt>
      <trkpt lat="44.42517" lon="3.72323">
        <ele>1638.6</ele>
        <time>2022-10-28T12:13:20Z</time>
      </trkpt>
      <trkpt lat="44.42517" lon="3.72326">
        <ele>1638.8</ele>
        <time>2022-10-28T12:13:21Z</time>
      </trkpt>
      <trkpt lat="44.42518" lon="3.72329">
        <ele>1639</ele>
        <time>2022-10-28T12:13:22Z</time>
      </trkpt>
      <trkpt lat="44.42519" lon="3.72332">
        <ele>1639</ele>
        <time>2022-10-28T12:13:23Z</time>
      </trkpt>
      <trkpt lat="44.4252" lon="3.72334">
        <ele>1639</ele>
        <time>2022-10-28T12:13:24Z</time>
      </trkpt>
      <trkpt lat="44.4252" lon="3.72337">
        <ele>1639.2</ele>
        <time>2022-10-28T12:13:25Z</time>
      </trkpt>
      <trkpt lat="44.42521" lon="3.7234">
        <ele>1639.2</ele>
        <time>2022-10-28T12:13:26Z</time>
      </trkpt>
      <trkpt lat="44.42522" lon="3.72343">
        <ele>1639.2</ele>
        <time>2022-10-28T12:13:27Z</time>
      </trkpt>
      <trkpt lat="44.42522" lon="3.72346">
        <ele>1639.4</ele>
        <time>2022-10-28T12:13:28Z</time>
      </trkpt>
      <trkpt lat="44.42523" lon="3.72348">
        <ele>1639.4</ele>
        <time>2022-10-28T12:13:29Z</time>
      </trkpt>
      <trkpt lat="44.42524" lon="3.72351">
        <ele>1639.6</ele>
        <time>2022-10-28T12:13:30Z</time>
      </trkpt>
      <trkpt lat="44.42525" lon="3.72354">
        <ele>1639.6</ele>
        <time>2022-10-28T12:13:31Z</time>
      </trkpt>
      <trkpt lat="44.42526" lon="3.72357">
        <ele>1639.6</ele>
        <time>2022-10-28T12:13:32Z</time>
      </trkpt>
      <trkpt lat="44.42527" lon="3.7236">
        <ele>1639.6</ele>
        <time>2022-10-28T12:13:33Z</time>
      </trkpt>
      <trkpt lat="44.42528" lon="3.72363">
        <ele>1639.8</ele>
        <time>2022-10-28T12:13:34Z</time>
      </trkpt>
      <trkpt lat="44.4253" lon="3.72365">
        <ele>1639.8</ele>
        <time>2022-10-28T12:13:35Z</time>
      </trkpt>
      <trkpt lat="44.4253" lon="3.72368">
        <ele>1639.8</ele>
        <time>2022-10-28T12:13:36Z</time>
      </trkpt>
      <trkpt lat="44.42531" lon="3.72371">
        <ele>1639.8</ele>
        <time>2022-10-28T12:13:37Z</time>
      </trkpt>
      <trkpt lat="44.42532" lon="3.72374">
        <ele>1640</ele>
        <time>2022-10-28T12:13:38Z</time>
      </trkpt>
      <trkpt lat="44.42533" lon="3.72377">
        <ele>1640</ele>
        <time>2022-10-28T12:13:39Z</time>
      </trkpt>
      <trkpt lat="44.42534" lon="3.72379">
        <ele>1640</ele>
        <time>2022-10-28T12:13:40Z</time>
      </trkpt>
      <trkpt lat="44.42535" lon="3.72382">
        <ele>1640.2</ele>
        <time>2022-10-28T12:13:41Z</time>
      </trkpt>
      <trkpt lat="44.42537" lon="3.72385">
        <ele>1640.2</ele>
        <time>2022-10-28T12:13:42Z</time>
      </trkpt>
      <trkpt lat="44.42538" lon="3.72387">
        <ele>1640.2</ele>
        <time>2022-10-28T12:13:43Z</time>
      </trkpt>
      <trkpt lat="44.42539" lon="3.72389">
        <ele>1640.4</ele>
        <time>2022-10-28T12:13:44Z</time>
      </trkpt>
      <trkpt lat="44.4254" lon="3.72392">
        <ele>1640.6</ele>
        <time>2022-10-28T12:13:45Z</time>
      </trkpt>
      <trkpt lat="44.42541" lon="3.72394">
        <ele>1640.6</ele>
        <time>2022-10-28T12:13:46Z</time>
      </trkpt>
      <trkpt lat="44.42543" lon="3.72397">
        <ele>1640.8</ele>
        <time>2022-10-28T12:13:47Z</time>
      </trkpt>
      <trkpt lat="44.42544" lon="3.72399">
        <ele>1641</ele>
        <time>2022-10-28T12:13:48Z</time>
      </trkpt>
      <trkpt lat="44.42544" lon="3.72402">
        <ele>1641</ele>
        <time>2022-10-28T12:13:49Z</time>
      </trkpt>
      <trkpt lat="44.42545" lon="3.72405">
        <ele>1641.2</ele>
        <time>2022-10-28T12:13:50Z</time>
      </trkpt>
      <trkpt lat="44.42546" lon="3.72407">
        <ele>1641.2</ele>
        <time>2022-10-28T12:13:51Z</time>
      </trkpt>
      <trkpt lat="44.42547" lon="3.7241">
        <ele>1641.2</ele>
        <time>2022-10-28T12:13:52Z</time>
      </trkpt>
      <trkpt lat="44.42548" lon="3.72412">
        <ele>1641.4</ele>
        <time>2022-10-28T12:13:53Z</time>
      </trkpt>
      <trkpt lat="44.42549" lon="3.72415">
        <ele>1641.4</ele>
        <time>2022-10-28T12:13:54Z</time>
      </trkpt>
      <trkpt lat="44.4255" lon="3.72417">
        <ele>1641.6</ele>
        <time>2022-10-28T12:13:55Z</time>
      </trkpt>
      <trkpt lat="44.42551" lon="3.72419">
        <ele>1641.6</ele>
        <time>2022-10-28T12:13:56Z</time>
      </trkpt>
      <trkpt lat="44.42552" lon="3.72421">
        <ele>1641.8</ele>
        <time>2022-10-28T12:13:57Z</time>
      </trkpt>
      <trkpt lat="44.42553" lon="3.72423">
        <ele>1642</ele>
        <time>2022-10-28T12:13:58Z</time>
      </trkpt>
      <trkpt lat="44.42554" lon="3.72425">
        <ele>1642</ele>
        <time>2022-10-28T12:13:59Z</time>
      </trkpt>
      <trkpt lat="44.42555" lon="3.72428">
        <ele>1642.2</ele>
        <time>2022-10-28T12:14:00Z</time>
      </trkpt>
      <trkpt lat="44.42556" lon="3.7243">
        <ele>1642.2</ele>
        <time>2022-10-28T12:14:01Z</time>
      </trkpt>
      <trkpt lat="44.42558" lon="3.72433">
        <ele>1642.2</ele>
        <time>2022-10-28T12:14:02Z</time>
      </trkpt>
      <trkpt lat="44.42559" lon="3.72435">
        <ele>1642.4</ele>
        <time>2022-10-28T12:14:03Z</time>
      </trkpt>
      <trkpt lat="44.4256" lon="3.72438">
        <ele>1642.4</ele>
        <time>2022-10-28T12:14:04Z</time>
      </trkpt>
      <trkpt lat="44.4256" lon="3.7244">
        <ele>1642.6</ele>
        <time>2022-10-28T12:14:05Z</time>
      </trkpt>
      <trkpt lat="44.42561" lon="3.72443">
        <ele>1642.6</ele>
        <time>2022-10-28T12:14:06Z</time>
      </trkpt>
      <trkpt lat="44.42562" lon="3.72445">
        <ele>1642.8</ele>
        <time>2022-10-28T12:14:07Z</time>
      </trkpt>
      <trkpt lat="44.42563" lon="3.72448">
        <ele>1642.8</ele>
        <time>2022-10-28T12:14:08Z</time>
      </trkpt>
      <trkpt lat="44.42565" lon="3.72451">
        <ele>1643</ele>
        <time>2022-10-28T12:14:09Z</time>
      </trkpt>
      <trkpt lat="44.42567" lon="3.72453">
        <ele>1643</ele>
        <time>2022-10-28T12:14:10Z</time>
      </trkpt>
      <trkpt lat="44.42568" lon="3.72456">
        <ele>1643.2</ele>
        <time>2022-10-28T12:14:11Z</time>
      </trkpt>
      <trkpt lat="44.42569" lon="3.72459">
        <ele>1643.2</ele>
        <time>2022-10-28T12:14:12Z</time>
      </trkpt>
      <trkpt lat="44.4257" lon="3.72462">
        <ele>1643.4</ele>
        <time>2022-10-28T12:14:13Z</time>
      </trkpt>
      <trkpt lat="44.42572" lon="3.72465">
        <ele>1643.4</ele>
        <time>2022-10-28T12:14:14Z</time>
      </trkpt>
      <trkpt lat="44.42573" lon="3.72467">
        <ele>1643.6</ele>
        <time>2022-10-28T12:14:15Z</time>
      </trkpt>
      <trkpt lat="44.42574" lon="3.7247">
        <ele>1643.6</ele>
        <time>2022-10-28T12:14:16Z</time>
      </trkpt>
      <trkpt lat="44.42576" lon="3.72473">
        <ele>1643.6</ele>
        <time>2022-10-28T12:14:17Z</time>
      </trkpt>
      <trkpt lat="44.42577" lon="3.72476">
        <ele>1643.8</ele>
        <time>2022-10-28T12:14:18Z</time>
      </trkpt>
      <trkpt lat="44.42578" lon="3.72479">
        <ele>1643.8</ele>
        <time>2022-10-28T12:14:19Z</time>
      </trkpt>
      <trkpt lat="44.42579" lon="3.72482">
        <ele>1643.8</ele>
        <time>2022-10-28T12:14:20Z</time>
      </trkpt>
      <trkpt lat="44.4258" lon="3.72485">
        <ele>1644</ele>
        <time>2022-10-28T12:14:21Z</time>
      </trkpt>
      <trkpt lat="44.42581" lon="3.72488">
        <ele>1644</ele>
        <time>2022-10-28T12:14:22Z</time>
      </trkpt>
      <trkpt lat="44.42583" lon="3.72491">
        <ele>1644</ele>
        <time>2022-10-28T12:14:23Z</time>
      </trkpt>
      <trkpt lat="44.42584" lon="3.72493">
        <ele>1644.2</ele>
        <time>2022-10-28T12:14:24Z</time>
      </trkpt>
      <trkpt lat="44.42585" lon="3.72496">
        <ele>1644.2</ele>
        <time>2022-10-28T12:14:25Z</time>
      </trkpt>
      <trkpt lat="44.42587" lon="3.72499">
        <ele>1644.2</ele>
        <time>2022-10-28T12:14:26Z</time>
      </trkpt>
      <trkpt lat="44.42588" lon="3.72502">
        <ele>1644.2</ele>
        <time>2022-10-28T12:14:27Z</time>
      </trkpt>
      <trkpt lat="44.4259" lon="3.72505">
        <ele>1644.2</ele>
        <time>2022-10-28T12:14:28Z</time>
      </trkpt>
      <trkpt lat="44.42591" lon="3.72508">
        <ele>1644.2</ele>
        <time>2022-10-28T12:14:29Z</time>
      </trkpt>
      <trkpt lat="44.42592" lon="3.72511">
        <ele>1644.4</ele>
        <time>2022-10-28T12:14:30Z</time>
      </trkpt>
      <trkpt lat="44.42594" lon="3.72515">
        <ele>1644.4</ele>
        <time>2022-10-28T12:14:31Z</time>
      </trkpt>
      <trkpt lat="44.42595" lon="3.72518">
        <ele>1644.4</ele>
        <time>2022-10-28T12:14:32Z</time>
      </trkpt>
      <trkpt lat="44.42596" lon="3.72521">
        <ele>1644.6</ele>
        <time>2022-10-28T12:14:33Z</time>
      </trkpt>
      <trkpt lat="44.42597" lon="3.72525">
        <ele>1644.6</ele>
        <time>2022-10-28T12:14:34Z</time>
      </trkpt>
      <trkpt lat="44.42599" lon="3.72528">
        <ele>1644.6</ele>
        <time>2022-10-28T12:14:35Z</time>
      </trkpt>
      <trkpt lat="44.426" lon="3.72532">
        <ele>1644.6</ele>
        <time>2022-10-28T12:14:36Z</time>
      </trkpt>
      <trkpt lat="44.42602" lon="3.72535">
        <ele>1644.8</ele>
        <time>2022-10-28T12:14:37Z</time>
      </trkpt>
      <trkpt lat="44.42603" lon="3.72539">
        <ele>1644.8</ele>
        <time>2022-10-28T12:14:38Z</time>
      </trkpt>
      <trkpt lat="44.42605" lon="3.72542">
        <ele>1645</ele>
        <time>2022-10-28T12:14:39Z</time>
      </trkpt>
      <trkpt lat="44.42606" lon="3.72545">
        <ele>1645</ele>
        <time>2022-10-28T12:14:40Z</time>
      </trkpt>
      <trkpt lat="44.42608" lon="3.72549">
        <ele>1645</ele>
        <time>2022-10-28T12:14:41Z</time>
      </trkpt>
      <trkpt lat="44.42609" lon="3.72553">
        <ele>1645.2</ele>
        <time>2022-10-28T12:14:42Z</time>
      </trkpt>
      <trkpt lat="44.42611" lon="3.72556">
        <ele>1645.2</ele>
        <time>2022-10-28T12:14:43Z</time>
      </trkpt>
      <trkpt lat="44.42612" lon="3.72559">
        <ele>1645.4</ele>
        <time>2022-10-28T12:14:44Z</time>
      </trkpt>
      <trkpt lat="44.42613" lon="3.72563">
        <ele>1645.4</ele>
        <time>2022-10-28T12:14:45Z</time>
      </trkpt>
      <trkpt lat="44.42614" lon="3.72567">
        <ele>1645.6</ele>
        <time>2022-10-28T12:14:46Z</time>
      </trkpt>
      <trkpt lat="44.42615" lon="3.7257">
        <ele>1645.8</ele>
        <time>2022-10-28T12:14:47Z</time>
      </trkpt>
      <trkpt lat="44.42616" lon="3.72573">
        <ele>1645.8</ele>
        <time>2022-10-28T12:14:48Z</time>
      </trkpt>
      <trkpt lat="44.42618" lon="3.72577">
        <ele>1646</ele>
        <time>2022-10-28T12:14:49Z</time>
      </trkpt>
      <trkpt lat="44.42619" lon="3.7258">
        <ele>1646</ele>
        <time>2022-10-28T12:14:50Z</time>
      </trkpt>
      <trkpt lat="44.42621" lon="3.72584">
        <ele>1646</ele>
        <time>2022-10-28T12:14:51Z</time>
      </trkpt>
      <trkpt lat="44.42623" lon="3.72587">
        <ele>1646.2</ele>
        <time>2022-10-28T12:14:52Z</time>
      </trkpt>
      <trkpt lat="44.42624" lon="3.7259">
        <ele>1646.2</ele>
        <time>2022-10-28T12:14:53Z</time>
      </trkpt>
      <trkpt lat="44.42625" lon="3.72594">
        <ele>1646.4</ele>
        <time>2022-10-28T12:14:54Z</time>
      </trkpt>
      <trkpt lat="44.42627" lon="3.72597">
        <ele>1646.4</ele>
        <time>2022-10-28T12:14:55Z</time>
      </trkpt>
      <trkpt lat="44.42628" lon="3.72601">
        <ele>1646.4</ele>
        <time>2022-10-28T12:14:56Z</time>
      </trkpt>
      <trkpt lat="44.4263" lon="3.72604">
        <ele>1646.4</ele>
        <time>2022-10-28T12:14:57Z</time>
      </trkpt>
      <trkpt lat="44.42631" lon="3.72607">
        <ele>1646.6</ele>
        <time>2022-10-28T12:14:58Z</time>
      </trkpt>
      <trkpt lat="44.42633" lon="3.7261">
        <ele>1646.6</ele>
        <time>2022-10-28T12:14:59Z</time>
      </trkpt>
      <trkpt lat="44.42634" lon="3.72612">
        <ele>1646.6</ele>
        <time>2022-10-28T12:15:00Z</time>
      </trkpt>
      <trkpt lat="44.42635" lon="3.72614">
        <ele>1646.6</ele>
        <time>2022-10-28T12:15:01Z</time>
      </trkpt>
      <trkpt lat="44.42636" lon="3.72617">
        <ele>1646.8</ele>
        <time>2022-10-28T12:15:02Z</time>
      </trkpt>
      <trkpt lat="44.42637" lon="3.7262">
        <ele>1646.8</ele>
        <time>2022-10-28T12:15:03Z</time>
      </trkpt>
      <trkpt lat="44.42638" lon="3.72623">
        <ele>1646.8</ele>
        <time>2022-10-28T12:15:04Z</time>
      </trkpt>
      <trkpt lat="44.42639" lon="3.72626">
        <ele>1647</ele>
        <time>2022-10-28T12:15:05Z</time>
      </trkpt>
      <trkpt lat="44.42641" lon="3.7263">
        <ele>1647</ele>
        <time>2022-10-28T12:15:06Z</time>
      </trkpt>
      <trkpt lat="44.42642" lon="3.72633">
        <ele>1647</ele>
        <time>2022-10-28T12:15:07Z</time>
      </trkpt>
      <trkpt lat="44.42643" lon="3.72637">
        <ele>1647.2</ele>
        <time>2022-10-28T12:15:08Z</time>
      </trkpt>
      <trkpt lat="44.42644" lon="3.7264">
        <ele>1647.2</ele>
        <time>2022-10-28T12:15:09Z</time>
      </trkpt>
      <trkpt lat="44.42645" lon="3.72643">
        <ele>1647.4</ele>
        <time>2022-10-28T12:15:10Z</time>
      </trkpt>
      <trkpt lat="44.42647" lon="3.72646">
        <ele>1647.4</ele>
        <time>2022-10-28T12:15:11Z</time>
      </trkpt>
      <trkpt lat="44.42648" lon="3.72649">
        <ele>1647.6</ele>
        <time>2022-10-28T12:15:12Z</time>
      </trkpt>
      <trkpt lat="44.42649" lon="3.72652">
        <ele>1647.6</ele>
        <time>2022-10-28T12:15:13Z</time>
      </trkpt>
      <trkpt lat="44.4265" lon="3.72656">
        <ele>1647.6</ele>
        <time>2022-10-28T12:15:14Z</time>
      </trkpt>
      <trkpt lat="44.42652" lon="3.72659">
        <ele>1647.8</ele>
        <time>2022-10-28T12:15:15Z</time>
      </trkpt>
      <trkpt lat="44.42653" lon="3.72662">
        <ele>1647.8</ele>
        <time>2022-10-28T12:15:16Z</time>
      </trkpt>
      <trkpt lat="44.42655" lon="3.72666">
        <ele>1648</ele>
        <time>2022-10-28T12:15:17Z</time>
      </trkpt>
      <trkpt lat="44.42656" lon="3.72669">
        <ele>1648</ele>
        <time>2022-10-28T12:15:18Z</time>
      </trkpt>
      <trkpt lat="44.42657" lon="3.72673">
        <ele>1648.2</ele>
        <time>2022-10-28T12:15:19Z</time>
      </trkpt>
      <trkpt lat="44.42658" lon="3.72676">
        <ele>1648.2</ele>
        <time>2022-10-28T12:15:20Z</time>
      </trkpt>
      <trkpt lat="44.4266" lon="3.7268">
        <ele>1648.2</ele>
        <time>2022-10-28T12:15:21Z</time>
      </trkpt>
      <trkpt lat="44.42661" lon="3.72683">
        <ele>1648.4</ele>
        <time>2022-10-28T12:15:22Z</time>
      </trkpt>
      <trkpt lat="44.42662" lon="3.72687">
        <ele>1648.4</ele>
        <time>2022-10-28T12:15:23Z</time>
      </trkpt>
      <trkpt lat="44.42663" lon="3.72691">
        <ele>1648.4</ele>
        <time>2022-10-28T12:15:24Z</time>
      </trkpt>
      <trkpt lat="44.42664" lon="3.72695">
        <ele>1648.4</ele>
        <time>2022-10-28T12:15:25Z</time>
      </trkpt>
      <trkpt lat="44.42665" lon="3.72699">
        <ele>1648.4</ele>
        <time>2022-10-28T12:15:26Z</time>
      </trkpt>
      <trkpt lat="44.42666" lon="3.72703">
        <ele>1648.4</ele>
        <time>2022-10-28T12:15:27Z</time>
      </trkpt>
      <trkpt lat="44.42667" lon="3.72706">
        <ele>1648.6</ele>
        <time>2022-10-28T12:15:28Z</time>
      </trkpt>
      <trkpt lat="44.42668" lon="3.7271">
        <ele>1648.6</ele>
        <time>2022-10-28T12:15:29Z</time>
      </trkpt>
      <trkpt lat="44.42668" lon="3.72714">
        <ele>1648.6</ele>
        <time>2022-10-28T12:15:30Z</time>
      </trkpt>
      <trkpt lat="44.42669" lon="3.72717">
        <ele>1648.6</ele>
        <time>2022-10-28T12:15:31Z</time>
      </trkpt>
      <trkpt lat="44.4267" lon="3.72721">
        <ele>1648.8</ele>
        <time>2022-10-28T12:15:32Z</time>
      </trkpt>
      <trkpt lat="44.42671" lon="3.72725">
        <ele>1648.8</ele>
        <time>2022-10-28T12:15:33Z</time>
      </trkpt>
      <trkpt lat="44.42671" lon="3.72728">
        <ele>1649</ele>
        <time>2022-10-28T12:15:34Z</time>
      </trkpt>
      <trkpt lat="44.42672" lon="3.72731">
        <ele>1649.2</ele>
        <time>2022-10-28T12:15:35Z</time>
      </trkpt>
      <trkpt lat="44.42673" lon="3.72735">
        <ele>1649.2</ele>
        <time>2022-10-28T12:15:36Z</time>
      </trkpt>
      <trkpt lat="44.42673" lon="3.72739">
        <ele>1649.4</ele>
        <time>2022-10-28T12:15:37Z</time>
      </trkpt>
      <trkpt lat="44.42674" lon="3.72742">
        <ele>1649.6</ele>
        <time>2022-10-28T12:15:38Z</time>
      </trkpt>
      <trkpt lat="44.42674" lon="3.72746">
        <ele>1649.8</ele>
        <time>2022-10-28T12:15:39Z</time>
      </trkpt>
      <trkpt lat="44.42675" lon="3.72749">
        <ele>1649.8</ele>
        <time>2022-10-28T12:15:40Z</time>
      </trkpt>
      <trkpt lat="44.42675" lon="3.72752">
        <ele>1650</ele>
        <time>2022-10-28T12:15:41Z</time>
      </trkpt>
      <trkpt lat="44.42675" lon="3.72756">
        <ele>1650.2</ele>
        <time>2022-10-28T12:15:42Z</time>
      </trkpt>
      <trkpt lat="44.42676" lon="3.72759">
        <ele>1650.2</ele>
        <time>2022-10-28T12:15:43Z</time>
      </trkpt>
      <trkpt lat="44.42676" lon="3.72763">
        <ele>1650.2</ele>
        <time>2022-10-28T12:15:44Z</time>
      </trkpt>
      <trkpt lat="44.42676" lon="3.72766">
        <ele>1650.4</ele>
        <time>2022-10-28T12:15:45Z</time>
      </trkpt>
      <trkpt lat="44.42676" lon="3.7277">
        <ele>1650.4</ele>
        <time>2022-10-28T12:15:46Z</time>
      </trkpt>
      <trkpt lat="44.42676" lon="3.72774">
        <ele>1650.6</ele>
        <time>2022-10-28T12:15:47Z</time>
      </trkpt>
      <trkpt lat="44.42676" lon="3.72777">
        <ele>1650.6</ele>
        <time>2022-10-28T12:15:48Z</time>
      </trkpt>
      <trkpt lat="44.42676" lon="3.72781">
        <ele>1650.8</ele>
        <time>2022-10-28T12:15:49Z</time>
      </trkpt>
      <trkpt lat="44.42676" lon="3.72785">
        <ele>1651</ele>
        <time>2022-10-28T12:15:50Z</time>
      </trkpt>
      <trkpt lat="44.42676" lon="3.72788">
        <ele>1651</ele>
        <time>2022-10-28T12:15:51Z</time>
      </trkpt>
      <trkpt lat="44.42675" lon="3.72792">
        <ele>1651.2</ele>
        <time>2022-10-28T12:15:52Z</time>
      </trkpt>
      <trkpt lat="44.42675" lon="3.72795">
        <ele>1651.4</ele>
        <time>2022-10-28T12:15:53Z</time>
      </trkpt>
      <trkpt lat="44.42675" lon="3.72799">
        <ele>1651.4</ele>
        <time>2022-10-28T12:15:54Z</time>
      </trkpt>
      <trkpt lat="44.42675" lon="3.72802">
        <ele>1651.6</ele>
        <time>2022-10-28T12:15:55Z</time>
      </trkpt>
      <trkpt lat="44.42675" lon="3.72806">
        <ele>1651.6</ele>
        <time>2022-10-28T12:15:56Z</time>
      </trkpt>
      <trkpt lat="44.42675" lon="3.7281">
        <ele>1651.8</ele>
        <time>2022-10-28T12:15:57Z</time>
      </trkpt>
      <trkpt lat="44.42675" lon="3.72814">
        <ele>1651.8</ele>
        <time>2022-10-28T12:15:58Z</time>
      </trkpt>
      <trkpt lat="44.42674" lon="3.72817">
        <ele>1652</ele>
        <time>2022-10-28T12:15:59Z</time>
      </trkpt>
      <trkpt lat="44.42674" lon="3.72821">
        <ele>1652</ele>
        <time>2022-10-28T12:16:00Z</time>
      </trkpt>
      <trkpt lat="44.42674" lon="3.72824">
        <ele>1652.2</ele>
        <time>2022-10-28T12:16:01Z</time>
      </trkpt>
      <trkpt lat="44.42673" lon="3.72828">
        <ele>1652.2</ele>
        <time>2022-10-28T12:16:02Z</time>
      </trkpt>
      <trkpt lat="44.42673" lon="3.72832">
        <ele>1652.2</ele>
        <time>2022-10-28T12:16:03Z</time>
      </trkpt>
      <trkpt lat="44.42673" lon="3.72836">
        <ele>1652.4</ele>
        <time>2022-10-28T12:16:04Z</time>
      </trkpt>
      <trkpt lat="44.42672" lon="3.72839">
        <ele>1652.4</ele>
        <time>2022-10-28T12:16:05Z</time>
      </trkpt>
      <trkpt lat="44.42672" lon="3.72843">
        <ele>1652.4</ele>
        <time>2022-10-28T12:16:06Z</time>
      </trkpt>
      <trkpt lat="44.42671" lon="3.72847">
        <ele>1652.6</ele>
        <time>2022-10-28T12:16:07Z</time>
      </trkpt>
      <trkpt lat="44.4267" lon="3.72851">
        <ele>1652.6</ele>
        <time>2022-10-28T12:16:08Z</time>
      </trkpt>
      <trkpt lat="44.4267" lon="3.72854">
        <ele>1652.6</ele>
        <time>2022-10-28T12:16:09Z</time>
      </trkpt>
      <trkpt lat="44.42669" lon="3.72858">
        <ele>1652.8</ele>
        <time>2022-10-28T12:16:10Z</time>
      </trkpt>
      <trkpt lat="44.42669" lon="3.72861">
        <ele>1652.8</ele>
        <time>2022-10-28T12:16:11Z</time>
      </trkpt>
      <trkpt lat="44.42668" lon="3.72865">
        <ele>1652.8</ele>
        <time>2022-10-28T12:16:12Z</time>
      </trkpt>
      <trkpt lat="44.42668" lon="3.72868">
        <ele>1652.8</ele>
        <time>2022-10-28T12:16:13Z</time>
      </trkpt>
      <trkpt lat="44.42667" lon="3.72872">
        <ele>1653</ele>
        <time>2022-10-28T12:16:14Z</time>
      </trkpt>
      <trkpt lat="44.42666" lon="3.72875">
        <ele>1653</ele>
        <time>2022-10-28T12:16:15Z</time>
      </trkpt>
      <trkpt lat="44.42666" lon="3.72879">
        <ele>1653</ele>
        <time>2022-10-28T12:16:16Z</time>
      </trkpt>
      <trkpt lat="44.42665" lon="3.72883">
        <ele>1653</ele>
        <time>2022-10-28T12:16:17Z</time>
      </trkpt>
      <trkpt lat="44.42664" lon="3.72887">
        <ele>1653</ele>
        <time>2022-10-28T12:16:18Z</time>
      </trkpt>
      <trkpt lat="44.42663" lon="3.72891">
        <ele>1653</ele>
        <time>2022-10-28T12:16:19Z</time>
      </trkpt>
      <trkpt lat="44.42663" lon="3.72895">
        <ele>1653</ele>
        <time>2022-10-28T12:16:20Z</time>
      </trkpt>
      <trkpt lat="44.42662" lon="3.72898">
        <ele>1653</ele>
        <time>2022-10-28T12:16:21Z</time>
      </trkpt>
      <trkpt lat="44.42661" lon="3.72902">
        <ele>1653</ele>
        <time>2022-10-28T12:16:22Z</time>
      </trkpt>
      <trkpt lat="44.4266" lon="3.72906">
        <ele>1653.2</ele>
        <time>2022-10-28T12:16:23Z</time>
      </trkpt>
      <trkpt lat="44.4266" lon="3.72909">
        <ele>1653.2</ele>
        <time>2022-10-28T12:16:24Z</time>
      </trkpt>
      <trkpt lat="44.42659" lon="3.72913">
        <ele>1653.2</ele>
        <time>2022-10-28T12:16:25Z</time>
      </trkpt>
      <trkpt lat="44.42658" lon="3.72916">
        <ele>1653.4</ele>
        <time>2022-10-28T12:16:26Z</time>
      </trkpt>
      <trkpt lat="44.42657" lon="3.72918">
        <ele>1653.4</ele>
        <time>2022-10-28T12:16:27Z</time>
      </trkpt>
      <trkpt lat="44.42656" lon="3.72921">
        <ele>1653.4</ele>
        <time>2022-10-28T12:16:28Z</time>
      </trkpt>
      <trkpt lat="44.42655" lon="3.72924">
        <ele>1653.4</ele>
        <time>2022-10-28T12:16:29Z</time>
      </trkpt>
      <trkpt lat="44.42654" lon="3.72927">
        <ele>1653.4</ele>
        <time>2022-10-28T12:16:30Z</time>
      </trkpt>
      <trkpt lat="44.42652" lon="3.7293">
        <ele>1653.6</ele>
        <time>2022-10-28T12:16:31Z</time>
      </trkpt>
      <trkpt lat="44.42651" lon="3.72934">
        <ele>1653.6</ele>
        <time>2022-10-28T12:16:32Z</time>
      </trkpt>
      <trkpt lat="44.4265" lon="3.72937">
        <ele>1653.8</ele>
        <time>2022-10-28T12:16:33Z</time>
      </trkpt>
      <trkpt lat="44.42649" lon="3.72941">
        <ele>1653.8</ele>
        <time>2022-10-28T12:16:34Z</time>
      </trkpt>
      <trkpt lat="44.42647" lon="3.72944">
        <ele>1654</ele>
        <time>2022-10-28T12:16:35Z</time>
      </trkpt>
      <trkpt lat="44.42646" lon="3.72948">
        <ele>1653.8</ele>
        <time>2022-10-28T12:16:36Z</time>
      </trkpt>
      <trkpt lat="44.42644" lon="3.72951">
        <ele>1654</ele>
        <time>2022-10-28T12:16:37Z</time>
      </trkpt>
      <trkpt lat="44.42643" lon="3.72954">
        <ele>1654</ele>
        <time>2022-10-28T12:16:38Z</time>
      </trkpt>
      <trkpt lat="44.42641" lon="3.72957">
        <ele>1654</ele>
        <time>2022-10-28T12:16:39Z</time>
      </trkpt>
      <trkpt lat="44.4264" lon="3.7296">
        <ele>1654.2</ele>
        <time>2022-10-28T12:16:40Z</time>
      </trkpt>
      <trkpt lat="44.42638" lon="3.72964">
        <ele>1654.2</ele>
        <time>2022-10-28T12:16:41Z</time>
      </trkpt>
      <trkpt lat="44.42637" lon="3.72966">
        <ele>1654.2</ele>
        <time>2022-10-28T12:16:42Z</time>
      </trkpt>
      <trkpt lat="44.42635" lon="3.7297">
        <ele>1654.2</ele>
        <time>2022-10-28T12:16:43Z</time>
      </trkpt>
      <trkpt lat="44.42634" lon="3.72973">
        <ele>1654.4</ele>
        <time>2022-10-28T12:16:44Z</time>
      </trkpt>
      <trkpt lat="44.42633" lon="3.72975">
        <ele>1654.4</ele>
        <time>2022-10-28T12:16:45Z</time>
      </trkpt>
      <trkpt lat="44.42632" lon="3.72978">
        <ele>1654.4</ele>
        <time>2022-10-28T12:16:46Z</time>
      </trkpt>
      <trkpt lat="44.42631" lon="3.7298">
        <ele>1654.4</ele>
        <time>2022-10-28T12:16:47Z</time>
      </trkpt>
      <trkpt lat="44.4263" lon="3.72983">
        <ele>1654.4</ele>
        <time>2022-10-28T12:16:48Z</time>
      </trkpt>
      <trkpt lat="44.42628" lon="3.72986">
        <ele>1654.6</ele>
        <time>2022-10-28T12:16:49Z</time>
      </trkpt>
      <trkpt lat="44.42627" lon="3.72989">
        <ele>1654.6</ele>
        <time>2022-10-28T12:16:50Z</time>
      </trkpt>
      <trkpt lat="44.42626" lon="3.72991">
        <ele>1654.6</ele>
        <time>2022-10-28T12:16:51Z</time>
      </trkpt>
      <trkpt lat="44.42624" lon="3.72994">
        <ele>1654.6</ele>
        <time>2022-10-28T12:16:52Z</time>
      </trkpt>
      <trkpt lat="44.42623" lon="3.72996">
        <ele>1654.8</ele>
        <time>2022-10-28T12:16:53Z</time>
      </trkpt>
      <trkpt lat="44.42622" lon="3.72999">
        <ele>1654.8</ele>
        <time>2022-10-28T12:16:54Z</time>
      </trkpt>
      <trkpt lat="44.42621" lon="3.73002">
        <ele>1654.8</ele>
        <time>2022-10-28T12:16:55Z</time>
      </trkpt>
      <trkpt lat="44.42619" lon="3.73005">
        <ele>1654.8</ele>
        <time>2022-10-28T12:16:56Z</time>
      </trkpt>
      <trkpt lat="44.42618" lon="3.73007">
        <ele>1655</ele>
        <time>2022-10-28T12:16:57Z</time>
      </trkpt>
      <trkpt lat="44.42617" lon="3.7301">
        <ele>1655</ele>
        <time>2022-10-28T12:16:58Z</time>
      </trkpt>
      <trkpt lat="44.42616" lon="3.73012">
        <ele>1655.2</ele>
        <time>2022-10-28T12:16:59Z</time>
      </trkpt>
      <trkpt lat="44.42615" lon="3.73015">
        <ele>1655.2</ele>
        <time>2022-10-28T12:17:00Z</time>
      </trkpt>
      <trkpt lat="44.42613" lon="3.73018">
        <ele>1655.4</ele>
        <time>2022-10-28T12:17:01Z</time>
      </trkpt>
      <trkpt lat="44.42611" lon="3.73021">
        <ele>1655.4</ele>
        <time>2022-10-28T12:17:02Z</time>
      </trkpt>
      <trkpt lat="44.4261" lon="3.73024">
        <ele>1655.6</ele>
        <time>2022-10-28T12:17:03Z</time>
      </trkpt>
      <trkpt lat="44.42608" lon="3.73026">
        <ele>1655.6</ele>
        <time>2022-10-28T12:17:04Z</time>
      </trkpt>
      <trkpt lat="44.42607" lon="3.73029">
        <ele>1655.8</ele>
        <time>2022-10-28T12:17:05Z</time>
      </trkpt>
      <trkpt lat="44.42605" lon="3.73031">
        <ele>1655.8</ele>
        <time>2022-10-28T12:17:06Z</time>
      </trkpt>
      <trkpt lat="44.42604" lon="3.73034">
        <ele>1655.8</ele>
        <time>2022-10-28T12:17:07Z</time>
      </trkpt>
      <trkpt lat="44.42603" lon="3.73037">
        <ele>1656</ele>
        <time>2022-10-28T12:17:08Z</time>
      </trkpt>
      <trkpt lat="44.42601" lon="3.7304">
        <ele>1656</ele>
        <time>2022-10-28T12:17:09Z</time>
      </trkpt>
      <trkpt lat="44.42599" lon="3.73042">
        <ele>1656.2</ele>
        <time>2022-10-28T12:17:10Z</time>
      </trkpt>
      <trkpt lat="44.42598" lon="3.73045">
        <ele>1656.2</ele>
        <time>2022-10-28T12:17:11Z</time>
      </trkpt>
      <trkpt lat="44.42596" lon="3.73047">
        <ele>1656.4</ele>
        <time>2022-10-28T12:17:12Z</time>
      </trkpt>
      <trkpt lat="44.42594" lon="3.7305">
        <ele>1656.4</ele>
        <time>2022-10-28T12:17:13Z</time>
      </trkpt>
      <trkpt lat="44.42593" lon="3.73052">
        <ele>1656.6</ele>
        <time>2022-10-28T12:17:14Z</time>
      </trkpt>
      <trkpt lat="44.42591" lon="3.73055">
        <ele>1656.6</ele>
        <time>2022-10-28T12:17:15Z</time>
      </trkpt>
      <trkpt lat="44.4259" lon="3.73057">
        <ele>1656.6</ele>
        <time>2022-10-28T12:17:16Z</time>
      </trkpt>
      <trkpt lat="44.42588" lon="3.73059">
        <ele>1656.8</ele>
        <time>2022-10-28T12:17:17Z</time>
      </trkpt>
      <trkpt lat="44.42587" lon="3.73061">
        <ele>1656.8</ele>
        <time>2022-10-28T12:17:18Z</time>
      </trkpt>
      <trkpt lat="44.42585" lon="3.73064">
        <ele>1656.8</ele>
        <time>2022-10-28T12:17:19Z</time>
      </trkpt>
      <trkpt lat="44.42583" lon="3.73066">
        <ele>1657</ele>
        <time>2022-10-28T12:17:20Z</time>
      </trkpt>
      <trkpt lat="44.42582" lon="3.73069">
        <ele>1657</ele>
        <time>2022-10-28T12:17:21Z</time>
      </trkpt>
      <trkpt lat="44.4258" lon="3.73071">
        <ele>1657.2</ele>
        <time>2022-10-28T12:17:22Z</time>
      </trkpt>
      <trkpt lat="44.42579" lon="3.73074">
        <ele>1657.2</ele>
        <time>2022-10-28T12:17:23Z</time>
      </trkpt>
      <trkpt lat="44.42577" lon="3.73076">
        <ele>1657.2</ele>
        <time>2022-10-28T12:17:24Z</time>
      </trkpt>
      <trkpt lat="44.42575" lon="3.73079">
        <ele>1657.4</ele>
        <time>2022-10-28T12:17:25Z</time>
      </trkpt>
      <trkpt lat="44.42573" lon="3.73082">
        <ele>1657.4</ele>
        <time>2022-10-28T12:17:26Z</time>
      </trkpt>
      <trkpt lat="44.42571" lon="3.73085">
        <ele>1657.6</ele>
        <time>2022-10-28T12:17:27Z</time>
      </trkpt>
      <trkpt lat="44.42569" lon="3.73088">
        <ele>1657.6</ele>
        <time>2022-10-28T12:17:28Z</time>
      </trkpt>
      <trkpt lat="44.42567" lon="3.73091">
        <ele>1657.8</ele>
        <time>2022-10-28T12:17:29Z</time>
      </trkpt>
      <trkpt lat="44.42566" lon="3.73093">
        <ele>1657.8</ele>
        <time>2022-10-28T12:17:30Z</time>
      </trkpt>
      <trkpt lat="44.42564" lon="3.73096">
        <ele>1658</ele>
        <time>2022-10-28T12:17:31Z</time>
      </trkpt>
      <trkpt lat="44.42562" lon="3.73099">
        <ele>1658</ele>
        <time>2022-10-28T12:17:32Z</time>
      </trkpt>
      <trkpt lat="44.4256" lon="3.73102">
        <ele>1658</ele>
        <time>2022-10-28T12:17:33Z</time>
      </trkpt>
      <trkpt lat="44.42558" lon="3.73105">
        <ele>1658</ele>
        <time>2022-10-28T12:17:34Z</time>
      </trkpt>
      <trkpt lat="44.42556" lon="3.73107">
        <ele>1658.2</ele>
        <time>2022-10-28T12:17:35Z</time>
      </trkpt>
      <trkpt lat="44.42554" lon="3.7311">
        <ele>1658.2</ele>
        <time>2022-10-28T12:17:36Z</time>
      </trkpt>
      <trkpt lat="44.42552" lon="3.73112">
        <ele>1658.2</ele>
        <time>2022-10-28T12:17:37Z</time>
      </trkpt>
      <trkpt lat="44.4255" lon="3.73115">
        <ele>1658</ele>
        <time>2022-10-28T12:17:38Z</time>
      </trkpt>
      <trkpt lat="44.42548" lon="3.73118">
        <ele>1658.2</ele>
        <time>2022-10-28T12:17:39Z</time>
      </trkpt>
      <trkpt lat="44.42545" lon="3.73121">
        <ele>1658.2</ele>
        <time>2022-10-28T12:17:40Z</time>
      </trkpt>
      <trkpt lat="44.42543" lon="3.73124">
        <ele>1658.2</ele>
        <time>2022-10-28T12:17:41Z</time>
      </trkpt>
      <trkpt lat="44.42541" lon="3.73127">
        <ele>1658</ele>
        <time>2022-10-28T12:17:42Z</time>
      </trkpt>
      <trkpt lat="44.42538" lon="3.73131">
        <ele>1658</ele>
        <time>2022-10-28T12:17:43Z</time>
      </trkpt>
      <trkpt lat="44.42536" lon="3.73134">
        <ele>1658</ele>
        <time>2022-10-28T12:17:44Z</time>
      </trkpt>
      <trkpt lat="44.42533" lon="3.73137">
        <ele>1658</ele>
        <time>2022-10-28T12:17:45Z</time>
      </trkpt>
      <trkpt lat="44.42531" lon="3.7314">
        <ele>1658.2</ele>
        <time>2022-10-28T12:17:46Z</time>
      </trkpt>
      <trkpt lat="44.42529" lon="3.73143">
        <ele>1658</ele>
        <time>2022-10-28T12:17:47Z</time>
      </trkpt>
      <trkpt lat="44.42526" lon="3.73147">
        <ele>1658</ele>
        <time>2022-10-28T12:17:48Z</time>
      </trkpt>
      <trkpt lat="44.42524" lon="3.7315">
        <ele>1657.8</ele>
        <time>2022-10-28T12:17:49Z</time>
      </trkpt>
      <trkpt lat="44.42522" lon="3.73152">
        <ele>1657.8</ele>
        <time>2022-10-28T12:17:50Z</time>
      </trkpt>
      <trkpt lat="44.42519" lon="3.73155">
        <ele>1657.8</ele>
        <time>2022-10-28T12:17:51Z</time>
      </trkpt>
      <trkpt lat="44.42517" lon="3.73158">
        <ele>1657.8</ele>
        <time>2022-10-28T12:17:52Z</time>
      </trkpt>
      <trkpt lat="44.42515" lon="3.73161">
        <ele>1657.8</ele>
        <time>2022-10-28T12:17:53Z</time>
      </trkpt>
      <trkpt lat="44.42512" lon="3.73163">
        <ele>1657.8</ele>
        <time>2022-10-28T12:17:54Z</time>
      </trkpt>
      <trkpt lat="44.4251" lon="3.73166">
        <ele>1657.8</ele>
        <time>2022-10-28T12:17:55Z</time>
      </trkpt>
      <trkpt lat="44.42508" lon="3.73168">
        <ele>1657.8</ele>
        <time>2022-10-28T12:17:56Z</time>
      </trkpt>
      <trkpt lat="44.42506" lon="3.7317">
        <ele>1658</ele>
        <time>2022-10-28T12:17:57Z</time>
      </trkpt>
      <trkpt lat="44.42503" lon="3.73172">
        <ele>1658</ele>
        <time>2022-10-28T12:17:58Z</time>
      </trkpt>
      <trkpt lat="44.42501" lon="3.73174">
        <ele>1658</ele>
        <time>2022-10-28T12:17:59Z</time>
      </trkpt>
      <trkpt lat="44.42499" lon="3.73177">
        <ele>1658</ele>
        <time>2022-10-28T12:18:00Z</time>
      </trkpt>
      <trkpt lat="44.42496" lon="3.73179">
        <ele>1658</ele>
        <time>2022-10-28T12:18:01Z</time>
      </trkpt>
      <trkpt lat="44.42494" lon="3.73182">
        <ele>1658</ele>
        <time>2022-10-28T12:18:02Z</time>
      </trkpt>
      <trkpt lat="44.42492" lon="3.73184">
        <ele>1658</ele>
        <time>2022-10-28T12:18:03Z</time>
      </trkpt>
      <trkpt lat="44.42489" lon="3.73186">
        <ele>1658</ele>
        <time>2022-10-28T12:18:04Z</time>
      </trkpt>
      <trkpt lat="44.42487" lon="3.73189">
        <ele>1658</ele>
        <time>2022-10-28T12:18:05Z</time>
      </trkpt>
      <trkpt lat="44.42485" lon="3.73192">
        <ele>1658.2</ele>
        <time>2022-10-28T12:18:06Z</time>
      </trkpt>
      <trkpt lat="44.42482" lon="3.73195">
        <ele>1658.2</ele>
        <time>2022-10-28T12:18:07Z</time>
      </trkpt>
      <trkpt lat="44.4248" lon="3.73198">
        <ele>1658.2</ele>
        <time>2022-10-28T12:18:08Z</time>
      </trkpt>
      <trkpt lat="44.42478" lon="3.732">
        <ele>1658.2</ele>
        <time>2022-10-28T12:18:09Z</time>
      </trkpt>
      <trkpt lat="44.42476" lon="3.73203">
        <ele>1658.2</ele>
        <time>2022-10-28T12:18:10Z</time>
      </trkpt>
      <trkpt lat="44.42474" lon="3.73207">
        <ele>1658.2</ele>
        <time>2022-10-28T12:18:11Z</time>
      </trkpt>
      <trkpt lat="44.42472" lon="3.7321">
        <ele>1658.2</ele>
        <time>2022-10-28T12:18:12Z</time>
      </trkpt>
      <trkpt lat="44.4247" lon="3.73214">
        <ele>1658.2</ele>
        <time>2022-10-28T12:18:13Z</time>
      </trkpt>
      <trkpt lat="44.42468" lon="3.73218">
        <ele>1658.2</ele>
        <time>2022-10-28T12:18:14Z</time>
      </trkpt>
      <trkpt lat="44.42466" lon="3.73221">
        <ele>1658.2</ele>
        <time>2022-10-28T12:18:15Z</time>
      </trkpt>
      <trkpt lat="44.42464" lon="3.73225">
        <ele>1658.2</ele>
        <time>2022-10-28T12:18:16Z</time>
      </trkpt>
      <trkpt lat="44.42462" lon="3.73228">
        <ele>1658.2</ele>
        <time>2022-10-28T12:18:17Z</time>
      </trkpt>
      <trkpt lat="44.4246" lon="3.73232">
        <ele>1658.2</ele>
        <time>2022-10-28T12:18:18Z</time>
      </trkpt>
      <trkpt lat="44.42458" lon="3.73235">
        <ele>1658.2</ele>
        <time>2022-10-28T12:18:19Z</time>
      </trkpt>
      <trkpt lat="44.42456" lon="3.73238">
        <ele>1658.2</ele>
        <time>2022-10-28T12:18:20Z</time>
      </trkpt>
      <trkpt lat="44.42454" lon="3.73242">
        <ele>1658.2</ele>
        <time>2022-10-28T12:18:21Z</time>
      </trkpt>
      <trkpt lat="44.42452" lon="3.73244">
        <ele>1658.2</ele>
        <time>2022-10-28T12:18:22Z</time>
      </trkpt>
      <trkpt lat="44.42451" lon="3.73247">
        <ele>1658.2</ele>
        <time>2022-10-28T12:18:23Z</time>
      </trkpt>
      <trkpt lat="44.42449" lon="3.7325">
        <ele>1658.4</ele>
        <time>2022-10-28T12:18:24Z</time>
      </trkpt>
      <trkpt lat="44.42448" lon="3.73253">
        <ele>1658.4</ele>
        <time>2022-10-28T12:18:25Z</time>
      </trkpt>
      <trkpt lat="44.42446" lon="3.73256">
        <ele>1658.4</ele>
        <time>2022-10-28T12:18:26Z</time>
      </trkpt>
      <trkpt lat="44.42444" lon="3.73259">
        <ele>1658.4</ele>
        <time>2022-10-28T12:18:27Z</time>
      </trkpt>
      <trkpt lat="44.42443" lon="3.73263">
        <ele>1658.4</ele>
        <time>2022-10-28T12:18:28Z</time>
      </trkpt>
      <trkpt lat="44.42441" lon="3.73267">
        <ele>1658.4</ele>
        <time>2022-10-28T12:18:29Z</time>
      </trkpt>
      <trkpt lat="44.42439" lon="3.7327">
        <ele>1658.6</ele>
        <time>2022-10-28T12:18:30Z</time>
      </trkpt>
      <trkpt lat="44.42437" lon="3.73274">
        <ele>1658.4</ele>
        <time>2022-10-28T12:18:31Z</time>
      </trkpt>
      <trkpt lat="44.42435" lon="3.73278">
        <ele>1658.4</ele>
        <time>2022-10-28T12:18:32Z</time>
      </trkpt>
      <trkpt lat="44.42433" lon="3.73282">
        <ele>1658.4</ele>
        <time>2022-10-28T12:18:33Z</time>
      </trkpt>
      <trkpt lat="44.42431" lon="3.73286">
        <ele>1658.4</ele>
        <time>2022-10-28T12:18:34Z</time>
      </trkpt>
      <trkpt lat="44.42429" lon="3.73289">
        <ele>1658.4</ele>
        <time>2022-10-28T12:18:35Z</time>
      </trkpt>
      <trkpt lat="44.42427" lon="3.73293">
        <ele>1658.4</ele>
        <time>2022-10-28T12:18:36Z</time>
      </trkpt>
      <trkpt lat="44.42425" lon="3.73297">
        <ele>1658.4</ele>
        <time>2022-10-28T12:18:37Z</time>
      </trkpt>
      <trkpt lat="44.42423" lon="3.73301">
        <ele>1658.4</ele>
        <time>2022-10-28T12:18:38Z</time>
      </trkpt>
      <trkpt lat="44.42421" lon="3.73304">
        <ele>1658.4</ele>
        <time>2022-10-28T12:18:39Z</time>
      </trkpt>
      <trkpt lat="44.42419" lon="3.73307">
        <ele>1658.2</ele>
        <time>2022-10-28T12:18:40Z</time>
      </trkpt>
      <trkpt lat="44.42417" lon="3.73311">
        <ele>1658.2</ele>
        <time>2022-10-28T12:18:41Z</time>
      </trkpt>
      <trkpt lat="44.42415" lon="3.73314">
        <ele>1658.2</ele>
        <time>2022-10-28T12:18:42Z</time>
      </trkpt>
      <trkpt lat="44.42413" lon="3.73318">
        <ele>1658.2</ele>
        <time>2022-10-28T12:18:43Z</time>
      </trkpt>
      <trkpt lat="44.42411" lon="3.73321">
        <ele>1658.4</ele>
        <time>2022-10-28T12:18:44Z</time>
      </trkpt>
      <trkpt lat="44.42409" lon="3.73325">
        <ele>1658.4</ele>
        <time>2022-10-28T12:18:45Z</time>
      </trkpt>
      <trkpt lat="44.42408" lon="3.73328">
        <ele>1658.4</ele>
        <time>2022-10-28T12:18:46Z</time>
      </trkpt>
      <trkpt lat="44.42406" lon="3.7333">
        <ele>1658.4</ele>
        <time>2022-10-28T12:18:47Z</time>
      </trkpt>
      <trkpt lat="44.42404" lon="3.73333">
        <ele>1658.6</ele>
        <time>2022-10-28T12:18:48Z</time>
      </trkpt>
      <trkpt lat="44.42403" lon="3.73336">
        <ele>1658.8</ele>
        <time>2022-10-28T12:18:49Z</time>
      </trkpt>
      <trkpt lat="44.42401" lon="3.73338">
        <ele>1658.8</ele>
        <time>2022-10-28T12:18:50Z</time>
      </trkpt>
      <trkpt lat="44.42399" lon="3.73341">
        <ele>1658.8</ele>
        <time>2022-10-28T12:18:51Z</time>
      </trkpt>
      <trkpt lat="44.42398" lon="3.73343">
        <ele>1659</ele>
        <time>2022-10-28T12:18:52Z</time>
      </trkpt>
      <trkpt lat="44.42396" lon="3.73345">
        <ele>1659</ele>
        <time>2022-10-28T12:18:53Z</time>
      </trkpt>
      <trkpt lat="44.42395" lon="3.73348">
        <ele>1659.2</ele>
        <time>2022-10-28T12:18:54Z</time>
      </trkpt>
      <trkpt lat="44.42393" lon="3.73351">
        <ele>1659.2</ele>
        <time>2022-10-28T12:18:55Z</time>
      </trkpt>
      <trkpt lat="44.42391" lon="3.73353">
        <ele>1659.4</ele>
        <time>2022-10-28T12:18:56Z</time>
      </trkpt>
      <trkpt lat="44.42389" lon="3.73356">
        <ele>1659.4</ele>
        <time>2022-10-28T12:18:57Z</time>
      </trkpt>
      <trkpt lat="44.42388" lon="3.73358">
        <ele>1659.6</ele>
        <time>2022-10-28T12:18:58Z</time>
      </trkpt>
      <trkpt lat="44.42386" lon="3.7336">
        <ele>1659.8</ele>
        <time>2022-10-28T12:18:59Z</time>
      </trkpt>
      <trkpt lat="44.42384" lon="3.73361">
        <ele>1659.8</ele>
        <time>2022-10-28T12:19:00Z</time>
      </trkpt>
      <trkpt lat="44.42383" lon="3.73364">
        <ele>1660</ele>
        <time>2022-10-28T12:19:01Z</time>
      </trkpt>
      <trkpt lat="44.42382" lon="3.73366">
        <ele>1660</ele>
        <time>2022-10-28T12:19:02Z</time>
      </trkpt>
      <trkpt lat="44.4238" lon="3.73368">
        <ele>1660.2</ele>
        <time>2022-10-28T12:19:03Z</time>
      </trkpt>
      <trkpt lat="44.42379" lon="3.7337">
        <ele>1660.4</ele>
        <time>2022-10-28T12:19:04Z</time>
      </trkpt>
      <trkpt lat="44.42377" lon="3.73372">
        <ele>1660.4</ele>
        <time>2022-10-28T12:19:05Z</time>
      </trkpt>
      <trkpt lat="44.42375" lon="3.73374">
        <ele>1660.6</ele>
        <time>2022-10-28T12:19:06Z</time>
      </trkpt>
      <trkpt lat="44.42374" lon="3.73377">
        <ele>1660.6</ele>
        <time>2022-10-28T12:19:07Z</time>
      </trkpt>
      <trkpt lat="44.42372" lon="3.73379">
        <ele>1660.8</ele>
        <time>2022-10-28T12:19:08Z</time>
      </trkpt>
      <trkpt lat="44.4237" lon="3.73381">
        <ele>1660.8</ele>
        <time>2022-10-28T12:19:09Z</time>
      </trkpt>
      <trkpt lat="44.42369" lon="3.73383">
        <ele>1661</ele>
        <time>2022-10-28T12:19:10Z</time>
      </trkpt>
      <trkpt lat="44.42367" lon="3.73386">
        <ele>1661</ele>
        <time>2022-10-28T12:19:11Z</time>
      </trkpt>
      <trkpt lat="44.42365" lon="3.73388">
        <ele>1661.2</ele>
        <time>2022-10-28T12:19:12Z</time>
      </trkpt>
      <trkpt lat="44.42363" lon="3.7339">
        <ele>1661.4</ele>
        <time>2022-10-28T12:19:13Z</time>
      </trkpt>
      <trkpt lat="44.42362" lon="3.73393">
        <ele>1661.6</ele>
        <time>2022-10-28T12:19:14Z</time>
      </trkpt>
      <trkpt lat="44.4236" lon="3.73395">
        <ele>1661.6</ele>
        <time>2022-10-28T12:19:15Z</time>
      </trkpt>
      <trkpt lat="44.42358" lon="3.73397">
        <ele>1661.8</ele>
        <time>2022-10-28T12:19:16Z</time>
      </trkpt>
      <trkpt lat="44.42356" lon="3.73399">
        <ele>1661.8</ele>
        <time>2022-10-28T12:19:17Z</time>
      </trkpt>
      <trkpt lat="44.42355" lon="3.73401">
        <ele>1662</ele>
        <time>2022-10-28T12:19:18Z</time>
      </trkpt>
      <trkpt lat="44.42354" lon="3.73403">
        <ele>1662.2</ele>
        <time>2022-10-28T12:19:19Z</time>
      </trkpt>
      <trkpt lat="44.42352" lon="3.73406">
        <ele>1662.2</ele>
        <time>2022-10-28T12:19:20Z</time>
      </trkpt>
      <trkpt lat="44.4235" lon="3.73408">
        <ele>1662.4</ele>
        <time>2022-10-28T12:19:21Z</time>
      </trkpt>
      <trkpt lat="44.42348" lon="3.7341">
        <ele>1662.4</ele>
        <time>2022-10-28T12:19:22Z</time>
      </trkpt>
      <trkpt lat="44.42347" lon="3.73412">
        <ele>1662.4</ele>
        <time>2022-10-28T12:19:23Z</time>
      </trkpt>
      <trkpt lat="44.42345" lon="3.73414">
        <ele>1662.6</ele>
        <time>2022-10-28T12:19:24Z</time>
      </trkpt>
      <trkpt lat="44.42343" lon="3.73416">
        <ele>1662.8</ele>
        <time>2022-10-28T12:19:25Z</time>
      </trkpt>
      <trkpt lat="44.42342" lon="3.73418">
        <ele>1662.8</ele>
        <time>2022-10-28T12:19:26Z</time>
      </trkpt>
      <trkpt lat="44.42341" lon="3.7342">
        <ele>1663</ele>
        <time>2022-10-28T12:19:27Z</time>
      </trkpt>
      <trkpt lat="44.42339" lon="3.73423">
        <ele>1663.2</ele>
        <time>2022-10-28T12:19:28Z</time>
      </trkpt>
      <trkpt lat="44.42338" lon="3.73425">
        <ele>1663.4</ele>
        <time>2022-10-28T12:19:29Z</time>
      </trkpt>
      <trkpt lat="44.42338" lon="3.73427">
        <ele>1663.6</ele>
        <time>2022-10-28T12:19:30Z</time>
      </trkpt>
      <trkpt lat="44.42336" lon="3.7343">
        <ele>1663.8</ele>
        <time>2022-10-28T12:19:31Z</time>
      </trkpt>
      <trkpt lat="44.42335" lon="3.73432">
        <ele>1664</ele>
        <time>2022-10-28T12:19:32Z</time>
      </trkpt>
      <trkpt lat="44.42334" lon="3.73434">
        <ele>1664</ele>
        <time>2022-10-28T12:19:33Z</time>
      </trkpt>
      <trkpt lat="44.42333" lon="3.73436">
        <ele>1664.2</ele>
        <time>2022-10-28T12:19:34Z</time>
      </trkpt>
      <trkpt lat="44.42333" lon="3.73437">
        <ele>1664.4</ele>
        <time>2022-10-28T12:19:35Z</time>
      </trkpt>
      <trkpt lat="44.42331" lon="3.73439">
        <ele>1664.4</ele>
        <time>2022-10-28T12:19:36Z</time>
      </trkpt>
      <trkpt lat="44.4233" lon="3.73441">
        <ele>1664.6</ele>
        <time>2022-10-28T12:19:37Z</time>
      </trkpt>
      <trkpt lat="44.42329" lon="3.73443">
        <ele>1664.8</ele>
        <time>2022-10-28T12:19:38Z</time>
      </trkpt>
      <trkpt lat="44.42328" lon="3.73445">
        <ele>1665</ele>
        <time>2022-10-28T12:19:39Z</time>
      </trkpt>
      <trkpt lat="44.42327" lon="3.73446">
        <ele>1665.2</ele>
        <time>2022-10-28T12:19:40Z</time>
      </trkpt>
      <trkpt lat="44.42326" lon="3.73448">
        <ele>1665.4</ele>
        <time>2022-10-28T12:19:41Z</time>
      </trkpt>
      <trkpt lat="44.42325" lon="3.7345">
        <ele>1665.4</ele>
        <time>2022-10-28T12:19:42Z</time>
      </trkpt>
      <trkpt lat="44.42323" lon="3.73451">
        <ele>1665.6</ele>
        <time>2022-10-28T12:19:43Z</time>
      </trkpt>
      <trkpt lat="44.42322" lon="3.73453">
        <ele>1665.8</ele>
        <time>2022-10-28T12:19:44Z</time>
      </trkpt>
      <trkpt lat="44.42321" lon="3.73454">
        <ele>1665.8</ele>
        <time>2022-10-28T12:19:45Z</time>
      </trkpt>
      <trkpt lat="44.4232" lon="3.73456">
        <ele>1666</ele>
        <time>2022-10-28T12:19:46Z</time>
      </trkpt>
      <trkpt lat="44.42318" lon="3.73458">
        <ele>1666.2</ele>
        <time>2022-10-28T12:19:47Z</time>
      </trkpt>
      <trkpt lat="44.42317" lon="3.73459">
        <ele>1666.2</ele>
        <time>2022-10-28T12:19:48Z</time>
      </trkpt>
      <trkpt lat="44.42315" lon="3.7346">
        <ele>1666.4</ele>
        <time>2022-10-28T12:19:49Z</time>
      </trkpt>
      <trkpt lat="44.42314" lon="3.73462">
        <ele>1666.6</ele>
        <time>2022-10-28T12:19:50Z</time>
      </trkpt>
      <trkpt lat="44.42313" lon="3.73463">
        <ele>1666.8</ele>
        <time>2022-10-28T12:19:51Z</time>
      </trkpt>
      <trkpt lat="44.42311" lon="3.73466">
        <ele>1666.8</ele>
        <time>2022-10-28T12:19:52Z</time>
      </trkpt>
      <trkpt lat="44.4231" lon="3.73467">
        <ele>1667</ele>
        <time>2022-10-28T12:19:53Z</time>
      </trkpt>
      <trkpt lat="44.42309" lon="3.73469">
        <ele>1667.2</ele>
        <time>2022-10-28T12:19:54Z</time>
      </trkpt>
      <trkpt lat="44.42308" lon="3.73471">
        <ele>1667.4</ele>
        <time>2022-10-28T12:19:55Z</time>
      </trkpt>
      <trkpt lat="44.42307" lon="3.73472">
        <ele>1667.4</ele>
        <time>2022-10-28T12:19:56Z</time>
      </trkpt>
      <trkpt lat="44.42305" lon="3.73474">
        <ele>1667.6</ele>
        <time>2022-10-28T12:19:57Z</time>
      </trkpt>
      <trkpt lat="44.42304" lon="3.73476">
        <ele>1667.8</ele>
        <time>2022-10-28T12:19:58Z</time>
      </trkpt>
      <trkpt lat="44.42303" lon="3.73477">
        <ele>1667.8</ele>
        <time>2022-10-28T12:19:59Z</time>
      </trkpt>
      <trkpt lat="44.42301" lon="3.73479">
        <ele>1668</ele>
        <time>2022-10-28T12:20:00Z</time>
      </trkpt>
      <trkpt lat="44.423" lon="3.73481">
        <ele>1668.2</ele>
        <time>2022-10-28T12:20:01Z</time>
      </trkpt>
      <trkpt lat="44.42298" lon="3.73483">
        <ele>1668.2</ele>
        <time>2022-10-28T12:20:02Z</time>
      </trkpt>
      <trkpt lat="44.42297" lon="3.73485">
        <ele>1668.4</ele>
        <time>2022-10-28T12:20:03Z</time>
      </trkpt>
      <trkpt lat="44.42295" lon="3.73487">
        <ele>1668.6</ele>
        <time>2022-10-28T12:20:04Z</time>
      </trkpt>
      <trkpt lat="44.42294" lon="3.73488">
        <ele>1668.6</ele>
        <time>2022-10-28T12:20:05Z</time>
      </trkpt>
      <trkpt lat="44.42292" lon="3.7349">
        <ele>1668.8</ele>
        <time>2022-10-28T12:20:06Z</time>
      </trkpt>
      <trkpt lat="44.42291" lon="3.73491">
        <ele>1669</ele>
        <time>2022-10-28T12:20:07Z</time>
      </trkpt>
      <trkpt lat="44.42289" lon="3.73493">
        <ele>1669.2</ele>
        <time>2022-10-28T12:20:08Z</time>
      </trkpt>
      <trkpt lat="44.42288" lon="3.73495">
        <ele>1669.2</ele>
        <time>2022-10-28T12:20:09Z</time>
      </trkpt>
      <trkpt lat="44.42286" lon="3.73497">
        <ele>1669.4</ele>
        <time>2022-10-28T12:20:10Z</time>
      </trkpt>
      <trkpt lat="44.42284" lon="3.73499">
        <ele>1669.4</ele>
        <time>2022-10-28T12:20:11Z</time>
      </trkpt>
      <trkpt lat="44.42283" lon="3.73501">
        <ele>1669.6</ele>
        <time>2022-10-28T12:20:12Z</time>
      </trkpt>
      <trkpt lat="44.42282" lon="3.73503">
        <ele>1669.6</ele>
        <time>2022-10-28T12:20:13Z</time>
      </trkpt>
      <trkpt lat="44.4228" lon="3.73505">
        <ele>1669.8</ele>
        <time>2022-10-28T12:20:14Z</time>
      </trkpt>
      <trkpt lat="44.42279" lon="3.73506">
        <ele>1669.8</ele>
        <time>2022-10-28T12:20:15Z</time>
      </trkpt>
      <trkpt lat="44.42278" lon="3.73508">
        <ele>1670</ele>
        <time>2022-10-28T12:20:16Z</time>
      </trkpt>
      <trkpt lat="44.42277" lon="3.7351">
        <ele>1670</ele>
        <time>2022-10-28T12:20:17Z</time>
      </trkpt>
      <trkpt lat="44.42276" lon="3.73511">
        <ele>1670</ele>
        <time>2022-10-28T12:20:18Z</time>
      </trkpt>
      <trkpt lat="44.42274" lon="3.73513">
        <ele>1670.2</ele>
        <time>2022-10-28T12:20:19Z</time>
      </trkpt>
      <trkpt lat="44.42273" lon="3.73515">
        <ele>1670.4</ele>
        <time>2022-10-28T12:20:20Z</time>
      </trkpt>
      <trkpt lat="44.42271" lon="3.73517">
        <ele>1670.4</ele>
        <time>2022-10-28T12:20:21Z</time>
      </trkpt>
      <trkpt lat="44.4227" lon="3.73519">
        <ele>1670.6</ele>
        <time>2022-10-28T12:20:22Z</time>
      </trkpt>
      <trkpt lat="44.42268" lon="3.73521">
        <ele>1670.6</ele>
        <time>2022-10-28T12:20:23Z</time>
      </trkpt>
      <trkpt lat="44.42266" lon="3.73522">
        <ele>1670.8</ele>
        <time>2022-10-28T12:20:24Z</time>
      </trkpt>
      <trkpt lat="44.42265" lon="3.73524">
        <ele>1670.8</ele>
        <time>2022-10-28T12:20:25Z</time>
      </trkpt>
      <trkpt lat="44.42263" lon="3.73526">
        <ele>1671</ele>
        <time>2022-10-28T12:20:26Z</time>
      </trkpt>
      <trkpt lat="44.42262" lon="3.73528">
        <ele>1671</ele>
        <time>2022-10-28T12:20:27Z</time>
      </trkpt>
      <trkpt lat="44.4226" lon="3.73529">
        <ele>1671</ele>
        <time>2022-10-28T12:20:28Z</time>
      </trkpt>
      <trkpt lat="44.42258" lon="3.73531">
        <ele>1671</ele>
        <time>2022-10-28T12:20:29Z</time>
      </trkpt>
      <trkpt lat="44.42257" lon="3.73533">
        <ele>1671.2</ele>
        <time>2022-10-28T12:20:30Z</time>
      </trkpt>
      <trkpt lat="44.42255" lon="3.73535">
        <ele>1671.2</ele>
        <time>2022-10-28T12:20:31Z</time>
      </trkpt>
      <trkpt lat="44.42253" lon="3.73537">
        <ele>1671.2</ele>
        <time>2022-10-28T12:20:32Z</time>
      </trkpt>
      <trkpt lat="44.42251" lon="3.73539">
        <ele>1671.2</ele>
        <time>2022-10-28T12:20:33Z</time>
      </trkpt>
      <trkpt lat="44.42249" lon="3.73542">
        <ele>1671.4</ele>
        <time>2022-10-28T12:20:34Z</time>
      </trkpt>
      <trkpt lat="44.42248" lon="3.73544">
        <ele>1671.4</ele>
        <time>2022-10-28T12:20:35Z</time>
      </trkpt>
      <trkpt lat="44.42246" lon="3.73546">
        <ele>1671.4</ele>
        <time>2022-10-28T12:20:36Z</time>
      </trkpt>
      <trkpt lat="44.42244" lon="3.73548">
        <ele>1671.4</ele>
        <time>2022-10-28T12:20:37Z</time>
      </trkpt>
      <trkpt lat="44.42242" lon="3.7355">
        <ele>1671.4</ele>
        <time>2022-10-28T12:20:38Z</time>
      </trkpt>
      <trkpt lat="44.4224" lon="3.73553">
        <ele>1671.4</ele>
        <time>2022-10-28T12:20:39Z</time>
      </trkpt>
      <trkpt lat="44.42239" lon="3.73555">
        <ele>1671.4</ele>
        <time>2022-10-28T12:20:40Z</time>
      </trkpt>
      <trkpt lat="44.42238" lon="3.73557">
        <ele>1671.4</ele>
        <time>2022-10-28T12:20:41Z</time>
      </trkpt>
      <trkpt lat="44.42236" lon="3.73559">
        <ele>1671.4</ele>
        <time>2022-10-28T12:20:42Z</time>
      </trkpt>
      <trkpt lat="44.42236" lon="3.73561">
        <ele>1671.4</ele>
        <time>2022-10-28T12:20:43Z</time>
      </trkpt>
      <trkpt lat="44.42235" lon="3.73562">
        <ele>1671.4</ele>
        <time>2022-10-28T12:20:44Z</time>
      </trkpt>
      <trkpt lat="44.42234" lon="3.73565">
        <ele>1671.4</ele>
        <time>2022-10-28T12:20:45Z</time>
      </trkpt>
      <trkpt lat="44.42233" lon="3.73567">
        <ele>1671.4</ele>
        <time>2022-10-28T12:20:46Z</time>
      </trkpt>
      <trkpt lat="44.42232" lon="3.73569">
        <ele>1671.4</ele>
        <time>2022-10-28T12:20:47Z</time>
      </trkpt>
      <trkpt lat="44.42232" lon="3.73572">
        <ele>1671.4</ele>
        <time>2022-10-28T12:20:48Z</time>
      </trkpt>
      <trkpt lat="44.42231" lon="3.73575">
        <ele>1671.4</ele>
        <time>2022-10-28T12:20:49Z</time>
      </trkpt>
      <trkpt lat="44.42231" lon="3.73578">
        <ele>1671.6</ele>
        <time>2022-10-28T12:20:50Z</time>
      </trkpt>
      <trkpt lat="44.42231" lon="3.73581">
        <ele>1671.6</ele>
        <time>2022-10-28T12:20:51Z</time>
      </trkpt>
      <trkpt lat="44.42231" lon="3.73584">
        <ele>1671.8</ele>
        <time>2022-10-28T12:20:52Z</time>
      </trkpt>
      <trkpt lat="44.42231" lon="3.73587">
        <ele>1671.6</ele>
        <time>2022-10-28T12:20:53Z</time>
      </trkpt>
      <trkpt lat="44.42231" lon="3.7359">
        <ele>1671.8</ele>
        <time>2022-10-28T12:20:54Z</time>
      </trkpt>
      <trkpt lat="44.42231" lon="3.73594">
        <ele>1671.8</ele>
        <time>2022-10-28T12:20:55Z</time>
      </trkpt>
      <trkpt lat="44.42232" lon="3.73597">
        <ele>1671.8</ele>
        <time>2022-10-28T12:20:56Z</time>
      </trkpt>
      <trkpt lat="44.42232" lon="3.736">
        <ele>1671.8</ele>
        <time>2022-10-28T12:20:57Z</time>
      </trkpt>
      <trkpt lat="44.42232" lon="3.73603">
        <ele>1671.6</ele>
        <time>2022-10-28T12:20:58Z</time>
      </trkpt>
      <trkpt lat="44.42233" lon="3.73606">
        <ele>1671.6</ele>
        <time>2022-10-28T12:20:59Z</time>
      </trkpt>
      <trkpt lat="44.42233" lon="3.7361">
        <ele>1671.6</ele>
        <time>2022-10-28T12:21:00Z</time>
      </trkpt>
      <trkpt lat="44.42233" lon="3.73613">
        <ele>1671.4</ele>
        <time>2022-10-28T12:21:01Z</time>
      </trkpt>
      <trkpt lat="44.42233" lon="3.73617">
        <ele>1671.4</ele>
        <time>2022-10-28T12:21:02Z</time>
      </trkpt>
      <trkpt lat="44.42233" lon="3.73622">
        <ele>1671.2</ele>
        <time>2022-10-28T12:21:03Z</time>
      </trkpt>
      <trkpt lat="44.42233" lon="3.73627">
        <ele>1671</ele>
        <time>2022-10-28T12:21:04Z</time>
      </trkpt>
      <trkpt lat="44.42234" lon="3.73631">
        <ele>1671</ele>
        <time>2022-10-28T12:21:05Z</time>
      </trkpt>
      <trkpt lat="44.42235" lon="3.73635">
        <ele>1670.8</ele>
        <time>2022-10-28T12:21:06Z</time>
      </trkpt>
      <trkpt lat="44.42235" lon="3.73637">
        <ele>1670.6</ele>
        <time>2022-10-28T12:21:07Z</time>
      </trkpt>
      <trkpt lat="44.42235" lon="3.73638">
        <ele>1670.4</ele>
        <time>2022-10-28T12:21:08Z</time>
      </trkpt>
      <trkpt lat="44.42235" lon="3.73639">
        <ele>1670.2</ele>
        <time>2022-10-28T12:21:36Z</time>
      </trkpt>
      <trkpt lat="44.42235" lon="3.7364">
        <ele>1670.2</ele>
        <time>2022-10-28T12:21:37Z</time>
      </trkpt>
      <trkpt lat="44.42236" lon="3.73643">
        <ele>1670</ele>
        <time>2022-10-28T12:21:38Z</time>
      </trkpt>
      <trkpt lat="44.42236" lon="3.73647">
        <ele>1670</ele>
        <time>2022-10-28T12:21:39Z</time>
      </trkpt>
      <trkpt lat="44.42236" lon="3.73651">
        <ele>1669.8</ele>
        <time>2022-10-28T12:21:40Z</time>
      </trkpt>
      <trkpt lat="44.42237" lon="3.73655">
        <ele>1669.8</ele>
        <time>2022-10-28T12:21:41Z</time>
      </trkpt>
      <trkpt lat="44.42238" lon="3.73659">
        <ele>1669.6</ele>
        <time>2022-10-28T12:21:42Z</time>
      </trkpt>
      <trkpt lat="44.42238" lon="3.73664">
        <ele>1669.6</ele>
        <time>2022-10-28T12:21:43Z</time>
      </trkpt>
      <trkpt lat="44.42239" lon="3.73668">
        <ele>1669.4</ele>
        <time>2022-10-28T12:21:44Z</time>
      </trkpt>
      <trkpt lat="44.42239" lon="3.73673">
        <ele>1669.2</ele>
        <time>2022-10-28T12:21:45Z</time>
      </trkpt>
      <trkpt lat="44.4224" lon="3.73678">
        <ele>1669</ele>
        <time>2022-10-28T12:21:46Z</time>
      </trkpt>
      <trkpt lat="44.42241" lon="3.73684">
        <ele>1668.8</ele>
        <time>2022-10-28T12:21:47Z</time>
      </trkpt>
      <trkpt lat="44.42242" lon="3.73689">
        <ele>1668.6</ele>
        <time>2022-10-28T12:21:48Z</time>
      </trkpt>
      <trkpt lat="44.42243" lon="3.73695">
        <ele>1668.6</ele>
        <time>2022-10-28T12:21:49Z</time>
      </trkpt>
      <trkpt lat="44.42244" lon="3.737">
        <ele>1668.4</ele>
        <time>2022-10-28T12:21:50Z</time>
      </trkpt>
      <trkpt lat="44.42245" lon="3.73705">
        <ele>1668.2</ele>
        <time>2022-10-28T12:21:51Z</time>
      </trkpt>
      <trkpt lat="44.42246" lon="3.7371">
        <ele>1668</ele>
        <time>2022-10-28T12:21:52Z</time>
      </trkpt>
      <trkpt lat="44.42247" lon="3.73715">
        <ele>1667.8</ele>
        <time>2022-10-28T12:21:53Z</time>
      </trkpt>
      <trkpt lat="44.42247" lon="3.73721">
        <ele>1667.6</ele>
        <time>2022-10-28T12:21:54Z</time>
      </trkpt>
      <trkpt lat="44.42247" lon="3.73726">
        <ele>1667.4</ele>
        <time>2022-10-28T12:21:55Z</time>
      </trkpt>
      <trkpt lat="44.42248" lon="3.73732">
        <ele>1667.2</ele>
        <time>2022-10-28T12:21:56Z</time>
      </trkpt>
      <trkpt lat="44.42249" lon="3.73737">
        <ele>1667</ele>
        <time>2022-10-28T12:21:57Z</time>
      </trkpt>
      <trkpt lat="44.4225" lon="3.73741">
        <ele>1667</ele>
        <time>2022-10-28T12:21:58Z</time>
      </trkpt>
      <trkpt lat="44.42251" lon="3.73746">
        <ele>1666.8</ele>
        <time>2022-10-28T12:21:59Z</time>
      </trkpt>
      <trkpt lat="44.42252" lon="3.7375">
        <ele>1666.8</ele>
        <time>2022-10-28T12:22:00Z</time>
      </trkpt>
      <trkpt lat="44.42253" lon="3.73755">
        <ele>1666.6</ele>
        <time>2022-10-28T12:22:01Z</time>
      </trkpt>
      <trkpt lat="44.42254" lon="3.73759">
        <ele>1666.6</ele>
        <time>2022-10-28T12:22:02Z</time>
      </trkpt>
      <trkpt lat="44.42255" lon="3.73763">
        <ele>1666.4</ele>
        <time>2022-10-28T12:22:03Z</time>
      </trkpt>
      <trkpt lat="44.42256" lon="3.73767">
        <ele>1666.4</ele>
        <time>2022-10-28T12:22:04Z</time>
      </trkpt>
      <trkpt lat="44.42256" lon="3.73772">
        <ele>1666.2</ele>
        <time>2022-10-28T12:22:05Z</time>
      </trkpt>
      <trkpt lat="44.42257" lon="3.73776">
        <ele>1666.2</ele>
        <time>2022-10-28T12:22:06Z</time>
      </trkpt>
      <trkpt lat="44.42258" lon="3.7378">
        <ele>1666.2</ele>
        <time>2022-10-28T12:22:07Z</time>
      </trkpt>
      <trkpt lat="44.42259" lon="3.73784">
        <ele>1666</ele>
        <time>2022-10-28T12:22:08Z</time>
      </trkpt>
      <trkpt lat="44.42259" lon="3.73788">
        <ele>1666</ele>
        <time>2022-10-28T12:22:09Z</time>
      </trkpt>
      <trkpt lat="44.4226" lon="3.73792">
        <ele>1666</ele>
        <time>2022-10-28T12:22:10Z</time>
      </trkpt>
      <trkpt lat="44.4226" lon="3.73796">
        <ele>1666</ele>
        <time>2022-10-28T12:22:11Z</time>
      </trkpt>
      <trkpt lat="44.42261" lon="3.738">
        <ele>1666</ele>
        <time>2022-10-28T12:22:12Z</time>
      </trkpt>
      <trkpt lat="44.42262" lon="3.73805">
        <ele>1666</ele>
        <time>2022-10-28T12:22:13Z</time>
      </trkpt>
      <trkpt lat="44.42263" lon="3.73808">
        <ele>1665.8</ele>
        <time>2022-10-28T12:22:14Z</time>
      </trkpt>
      <trkpt lat="44.42264" lon="3.73812">
        <ele>1665.8</ele>
        <time>2022-10-28T12:22:15Z</time>
      </trkpt>
      <trkpt lat="44.42264" lon="3.73816">
        <ele>1665.8</ele>
        <time>2022-10-28T12:22:16Z</time>
      </trkpt>
      <trkpt lat="44.42265" lon="3.7382">
        <ele>1665.6</ele>
        <time>2022-10-28T12:22:17Z</time>
      </trkpt>
      <trkpt lat="44.42265" lon="3.73825">
        <ele>1665.6</ele>
        <time>2022-10-28T12:22:18Z</time>
      </trkpt>
      <trkpt lat="44.42266" lon="3.7383">
        <ele>1665.6</ele>
        <time>2022-10-28T12:22:19Z</time>
      </trkpt>
      <trkpt lat="44.42266" lon="3.73835">
        <ele>1665.4</ele>
        <time>2022-10-28T12:22:20Z</time>
      </trkpt>
      <trkpt lat="44.42267" lon="3.73839">
        <ele>1665.2</ele>
        <time>2022-10-28T12:22:21Z</time>
      </trkpt>
      <trkpt lat="44.42267" lon="3.73843">
        <ele>1665.2</ele>
        <time>2022-10-28T12:22:22Z</time>
      </trkpt>
      <trkpt lat="44.42268" lon="3.73847">
        <ele>1665.2</ele>
        <time>2022-10-28T12:22:23Z</time>
      </trkpt>
      <trkpt lat="44.42268" lon="3.73851">
        <ele>1665</ele>
        <time>2022-10-28T12:22:24Z</time>
      </trkpt>
      <trkpt lat="44.42269" lon="3.73855">
        <ele>1665</ele>
        <time>2022-10-28T12:22:25Z</time>
      </trkpt>
      <trkpt lat="44.42269" lon="3.73858">
        <ele>1664.8</ele>
        <time>2022-10-28T12:22:26Z</time>
      </trkpt>
      <trkpt lat="44.4227" lon="3.73861">
        <ele>1664.8</ele>
        <time>2022-10-28T12:22:27Z</time>
      </trkpt>
      <trkpt lat="44.4227" lon="3.73864">
        <ele>1664.6</ele>
        <time>2022-10-28T12:22:28Z</time>
      </trkpt>
      <trkpt lat="44.4227" lon="3.73867">
        <ele>1664.6</ele>
        <time>2022-10-28T12:22:29Z</time>
      </trkpt>
      <trkpt lat="44.4227" lon="3.7387">
        <ele>1664.6</ele>
        <time>2022-10-28T12:22:30Z</time>
      </trkpt>
      <trkpt lat="44.4227" lon="3.73873">
        <ele>1664.6</ele>
        <time>2022-10-28T12:22:31Z</time>
      </trkpt>
      <trkpt lat="44.4227" lon="3.73876">
        <ele>1664.6</ele>
        <time>2022-10-28T12:22:32Z</time>
      </trkpt>
      <trkpt lat="44.4227" lon="3.73878">
        <ele>1664.4</ele>
        <time>2022-10-28T12:22:33Z</time>
      </trkpt>
      <trkpt lat="44.4227" lon="3.7388">
        <ele>1664.4</ele>
        <time>2022-10-28T12:22:34Z</time>
      </trkpt>
      <trkpt lat="44.42271" lon="3.73881">
        <ele>1664.4</ele>
        <time>2022-10-28T12:22:35Z</time>
      </trkpt>
      <trkpt lat="44.4227" lon="3.73882">
        <ele>1664.4</ele>
        <time>2022-10-28T12:22:36Z</time>
      </trkpt>
      <trkpt lat="44.4227" lon="3.73882">
        <ele>1664.2</ele>
        <time>2022-10-28T12:22:37Z</time>
      </trkpt>
      <trkpt lat="44.42271" lon="3.73874">
        <ele>1664.4</ele>
        <time>2022-10-28T12:23:47Z</time>
      </trkpt>
      <trkpt lat="44.42271" lon="3.73872">
        <ele>1664.4</ele>
        <time>2022-10-28T12:23:48Z</time>
      </trkpt>
      <trkpt lat="44.4227" lon="3.7387">
        <ele>1664.4</ele>
        <time>2022-10-28T12:23:49Z</time>
      </trkpt>
      <trkpt lat="44.42269" lon="3.73867">
        <ele>1664.4</ele>
        <time>2022-10-28T12:23:50Z</time>
      </trkpt>
      <trkpt lat="44.42269" lon="3.73864">
        <ele>1664.4</ele>
        <time>2022-10-28T12:23:51Z</time>
      </trkpt>
      <trkpt lat="44.42268" lon="3.73862">
        <ele>1664.4</ele>
        <time>2022-10-28T12:23:52Z</time>
      </trkpt>
      <trkpt lat="44.42268" lon="3.73859">
        <ele>1664.4</ele>
        <time>2022-10-28T12:23:53Z</time>
      </trkpt>
      <trkpt lat="44.42267" lon="3.73857">
        <ele>1664.4</ele>
        <time>2022-10-28T12:23:54Z</time>
      </trkpt>
      <trkpt lat="44.42267" lon="3.73855">
        <ele>1664.4</ele>
        <time>2022-10-28T12:23:55Z</time>
      </trkpt>
      <trkpt lat="44.42266" lon="3.73854">
        <ele>1664.4</ele>
        <time>2022-10-28T12:23:56Z</time>
      </trkpt>
      <trkpt lat="44.42267" lon="3.73854">
        <ele>1664.4</ele>
        <time>2022-10-28T12:23:57Z</time>
      </trkpt>
      <trkpt lat="44.42267" lon="3.73854">
        <ele>1664.6</ele>
        <time>2022-10-28T12:23:58Z</time>
      </trkpt>
      <trkpt lat="44.42267" lon="3.73855">
        <ele>1664.4</ele>
        <time>2022-10-28T12:23:59Z</time>
      </trkpt>
      <trkpt lat="44.42267" lon="3.73855">
        <ele>1664.4</ele>
        <time>2022-10-28T12:24:00Z</time>
      </trkpt>
      <trkpt lat="44.42267" lon="3.73856">
        <ele>1664.4</ele>
        <time>2022-10-28T12:24:01Z</time>
      </trkpt>
      <trkpt lat="44.42267" lon="3.73858">
        <ele>1664.6</ele>
        <time>2022-10-28T12:24:02Z</time>
      </trkpt>
      <trkpt lat="44.42268" lon="3.73861">
        <ele>1664.6</ele>
        <time>2022-10-28T12:24:03Z</time>
      </trkpt>
      <trkpt lat="44.42268" lon="3.73864">
        <ele>1664.6</ele>
        <time>2022-10-28T12:24:04Z</time>
      </trkpt>
      <trkpt lat="44.42268" lon="3.73867">
        <ele>1664.6</ele>
        <time>2022-10-28T12:24:05Z</time>
      </trkpt>
      <trkpt lat="44.42269" lon="3.73871">
        <ele>1664.4</ele>
        <time>2022-10-28T12:24:06Z</time>
      </trkpt>
      <trkpt lat="44.42269" lon="3.73875">
        <ele>1664.4</ele>
        <time>2022-10-28T12:24:07Z</time>
      </trkpt>
      <trkpt lat="44.4227" lon="3.73879">
        <ele>1664.4</ele>
        <time>2022-10-28T12:24:08Z</time>
      </trkpt>
      <trkpt lat="44.4227" lon="3.73882">
        <ele>1664.4</ele>
        <time>2022-10-28T12:24:09Z</time>
      </trkpt>
      <trkpt lat="44.4227" lon="3.73885">
        <ele>1664.4</ele>
        <time>2022-10-28T12:24:10Z</time>
      </trkpt>
      <trkpt lat="44.4227" lon="3.73888">
        <ele>1664.2</ele>
        <time>2022-10-28T12:24:11Z</time>
      </trkpt>
      <trkpt lat="44.4227" lon="3.7389">
        <ele>1664.2</ele>
        <time>2022-10-28T12:24:12Z</time>
      </trkpt>
      <trkpt lat="44.42271" lon="3.73892">
        <ele>1664.2</ele>
        <time>2022-10-28T12:24:13Z</time>
      </trkpt>
      <trkpt lat="44.42271" lon="3.73892">
        <ele>1664.2</ele>
        <time>2022-10-28T12:24:14Z</time>
      </trkpt>
      <trkpt lat="44.42271" lon="3.73892">
        <ele>1664.2</ele>
        <time>2022-10-28T12:24:15Z</time>
      </trkpt>
      <trkpt lat="44.42271" lon="3.73891">
        <ele>1664.2</ele>
        <time>2022-10-28T12:24:16Z</time>
      </trkpt>
      <trkpt lat="44.42271" lon="3.73889">
        <ele>1664.2</ele>
        <time>2022-10-28T12:24:17Z</time>
      </trkpt>
      <trkpt lat="44.42271" lon="3.73888">
        <ele>1664.2</ele>
        <time>2022-10-28T12:24:18Z</time>
      </trkpt>
      <trkpt lat="44.42272" lon="3.73887">
        <ele>1664.2</ele>
        <time>2022-10-28T12:24:19Z</time>
      </trkpt>
      <trkpt lat="44.42272" lon="3.73885">
        <ele>1664.2</ele>
        <time>2022-10-28T12:24:20Z</time>
      </trkpt>
      <trkpt lat="44.42272" lon="3.73885">
        <ele>1664.2</ele>
        <time>2022-10-28T12:24:21Z</time>
      </trkpt>
      <trkpt lat="44.42272" lon="3.73885">
        <ele>1664.2</ele>
        <time>2022-10-28T12:24:22Z</time>
      </trkpt>
      <trkpt lat="44.42272" lon="3.73885">
        <ele>1664.2</ele>
        <time>2022-10-28T12:24:23Z</time>
      </trkpt>
      <trkpt lat="44.42272" lon="3.73885">
        <ele>1664.2</ele>
        <time>2022-10-28T12:24:24Z</time>
      </trkpt>
      <trkpt lat="44.42272" lon="3.73885">
        <ele>1664.2</ele>
        <time>2022-10-28T12:24:25Z</time>
      </trkpt>
      <trkpt lat="44.42272" lon="3.73885">
        <ele>1664.2</ele>
        <time>2022-10-28T12:24:26Z</time>
      </trkpt>
      <trkpt lat="44.42271" lon="3.73886">
        <ele>1664.2</ele>
        <time>2022-10-28T12:24:49Z</time>
      </trkpt>
      <trkpt lat="44.4227" lon="3.73887">
        <ele>1664.2</ele>
        <time>2022-10-28T12:24:50Z</time>
      </trkpt>
      <trkpt lat="44.42269" lon="3.73888">
        <ele>1664.2</ele>
        <time>2022-10-28T12:24:51Z</time>
      </trkpt>
      <trkpt lat="44.42269" lon="3.7389">
        <ele>1664.2</ele>
        <time>2022-10-28T12:24:52Z</time>
      </trkpt>
      <trkpt lat="44.42271" lon="3.73891">
        <ele>1664.2</ele>
        <time>2022-10-28T12:24:53Z</time>
      </trkpt>
      <trkpt lat="44.42272" lon="3.73891">
        <ele>1664.4</ele>
        <time>2022-10-28T12:24:54Z</time>
      </trkpt>
      <trkpt lat="44.42273" lon="3.73891">
        <ele>1664.4</ele>
        <time>2022-10-28T12:24:55Z</time>
      </trkpt>
      <trkpt lat="44.42275" lon="3.7389">
        <ele>1664.6</ele>
        <time>2022-10-28T12:24:56Z</time>
      </trkpt>
      <trkpt lat="44.42277" lon="3.73889">
        <ele>1664.8</ele>
        <time>2022-10-28T12:24:57Z</time>
      </trkpt>
      <trkpt lat="44.42279" lon="3.73889">
        <ele>1665.2</ele>
        <time>2022-10-28T12:24:58Z</time>
      </trkpt>
      <trkpt lat="44.42281" lon="3.73889">
        <ele>1665.4</ele>
        <time>2022-10-28T12:24:59Z</time>
      </trkpt>
      <trkpt lat="44.42282" lon="3.73888">
        <ele>1665.8</ele>
        <time>2022-10-28T12:25:00Z</time>
      </trkpt>
      <trkpt lat="44.42284" lon="3.73887">
        <ele>1666</ele>
        <time>2022-10-28T12:25:01Z</time>
      </trkpt>
      <trkpt lat="44.42286" lon="3.73887">
        <ele>1666.4</ele>
        <time>2022-10-28T12:25:02Z</time>
      </trkpt>
      <trkpt lat="44.42287" lon="3.73887">
        <ele>1666.6</ele>
        <time>2022-10-28T12:25:03Z</time>
      </trkpt>
      <trkpt lat="44.42289" lon="3.73886">
        <ele>1666.8</ele>
        <time>2022-10-28T12:25:04Z</time>
      </trkpt>
      <trkpt lat="44.42291" lon="3.73886">
        <ele>1667.2</ele>
        <time>2022-10-28T12:25:05Z</time>
      </trkpt>
      <trkpt lat="44.42292" lon="3.73885">
        <ele>1667.4</ele>
        <time>2022-10-28T12:25:06Z</time>
      </trkpt>
      <trkpt lat="44.42294" lon="3.73885">
        <ele>1667.8</ele>
        <time>2022-10-28T12:25:07Z</time>
      </trkpt>
      <trkpt lat="44.42295" lon="3.73885">
        <ele>1668</ele>
        <time>2022-10-28T12:25:08Z</time>
      </trkpt>
      <trkpt lat="44.42296" lon="3.73884">
        <ele>1668.2</ele>
        <time>2022-10-28T12:25:09Z</time>
      </trkpt>
      <trkpt lat="44.42298" lon="3.73884">
        <ele>1668.4</ele>
        <time>2022-10-28T12:25:10Z</time>
      </trkpt>
      <trkpt lat="44.42299" lon="3.73884">
        <ele>1668.8</ele>
        <time>2022-10-28T12:25:11Z</time>
      </trkpt>
      <trkpt lat="44.42301" lon="3.73884">
        <ele>1669</ele>
        <time>2022-10-28T12:25:12Z</time>
      </trkpt>
      <trkpt lat="44.42302" lon="3.73883">
        <ele>1669.2</ele>
        <time>2022-10-28T12:25:13Z</time>
      </trkpt>
      <trkpt lat="44.42304" lon="3.73883">
        <ele>1669.4</ele>
        <time>2022-10-28T12:25:14Z</time>
      </trkpt>
      <trkpt lat="44.42305" lon="3.73883">
        <ele>1669.8</ele>
        <time>2022-10-28T12:25:15Z</time>
      </trkpt>
      <trkpt lat="44.42306" lon="3.73882">
        <ele>1670</ele>
        <time>2022-10-28T12:25:16Z</time>
      </trkpt>
      <trkpt lat="44.42308" lon="3.73882">
        <ele>1670.2</ele>
        <time>2022-10-28T12:25:17Z</time>
      </trkpt>
      <trkpt lat="44.4231" lon="3.73882">
        <ele>1670.4</ele>
        <time>2022-10-28T12:25:18Z</time>
      </trkpt>
      <trkpt lat="44.42312" lon="3.73881">
        <ele>1670.6</ele>
        <time>2022-10-28T12:25:19Z</time>
      </trkpt>
      <trkpt lat="44.42313" lon="3.73881">
        <ele>1671</ele>
        <time>2022-10-28T12:25:20Z</time>
      </trkpt>
      <trkpt lat="44.42315" lon="3.73881">
        <ele>1671.2</ele>
        <time>2022-10-28T12:25:21Z</time>
      </trkpt>
      <trkpt lat="44.42316" lon="3.73881">
        <ele>1671.4</ele>
        <time>2022-10-28T12:25:22Z</time>
      </trkpt>
      <trkpt lat="44.42318" lon="3.7388">
        <ele>1671.8</ele>
        <time>2022-10-28T12:25:23Z</time>
      </trkpt>
      <trkpt lat="44.4232" lon="3.7388">
        <ele>1672</ele>
        <time>2022-10-28T12:25:24Z</time>
      </trkpt>
      <trkpt lat="44.42321" lon="3.7388">
        <ele>1672.4</ele>
        <time>2022-10-28T12:25:25Z</time>
      </trkpt>
      <trkpt lat="44.42323" lon="3.7388">
        <ele>1672.6</ele>
        <time>2022-10-28T12:25:26Z</time>
      </trkpt>
      <trkpt lat="44.42324" lon="3.7388">
        <ele>1672.8</ele>
        <time>2022-10-28T12:25:27Z</time>
      </trkpt>
      <trkpt lat="44.42326" lon="3.73879">
        <ele>1673</ele>
        <time>2022-10-28T12:25:28Z</time>
      </trkpt>
      <trkpt lat="44.42327" lon="3.73879">
        <ele>1673.4</ele>
        <time>2022-10-28T12:25:29Z</time>
      </trkpt>
      <trkpt lat="44.42329" lon="3.73879">
        <ele>1673.6</ele>
        <time>2022-10-28T12:25:30Z</time>
      </trkpt>
      <trkpt lat="44.42331" lon="3.73879">
        <ele>1673.8</ele>
        <time>2022-10-28T12:25:31Z</time>
      </trkpt>
      <trkpt lat="44.42332" lon="3.73879">
        <ele>1674</ele>
        <time>2022-10-28T12:25:32Z</time>
      </trkpt>
      <trkpt lat="44.42333" lon="3.73878">
        <ele>1674.2</ele>
        <time>2022-10-28T12:25:33Z</time>
      </trkpt>
      <trkpt lat="44.42335" lon="3.73878">
        <ele>1674.6</ele>
        <time>2022-10-28T12:25:34Z</time>
      </trkpt>
      <trkpt lat="44.42337" lon="3.73878">
        <ele>1674.8</ele>
        <time>2022-10-28T12:25:35Z</time>
      </trkpt>
      <trkpt lat="44.42338" lon="3.73878">
        <ele>1675</ele>
        <time>2022-10-28T12:25:36Z</time>
      </trkpt>
      <trkpt lat="44.4234" lon="3.73877">
        <ele>1675.2</ele>
        <time>2022-10-28T12:25:37Z</time>
      </trkpt>
      <trkpt lat="44.42341" lon="3.73877">
        <ele>1675.4</ele>
        <time>2022-10-28T12:25:38Z</time>
      </trkpt>
      <trkpt lat="44.42343" lon="3.73877">
        <ele>1675.6</ele>
        <time>2022-10-28T12:25:39Z</time>
      </trkpt>
      <trkpt lat="44.42344" lon="3.73877">
        <ele>1676</ele>
        <time>2022-10-28T12:25:40Z</time>
      </trkpt>
      <trkpt lat="44.42346" lon="3.73877">
        <ele>1676.2</ele>
        <time>2022-10-28T12:25:41Z</time>
      </trkpt>
      <trkpt lat="44.42347" lon="3.73877">
        <ele>1676.4</ele>
        <time>2022-10-28T12:25:42Z</time>
      </trkpt>
      <trkpt lat="44.42349" lon="3.73877">
        <ele>1676.6</ele>
        <time>2022-10-28T12:25:43Z</time>
      </trkpt>
      <trkpt lat="44.4235" lon="3.73876">
        <ele>1676.8</ele>
        <time>2022-10-28T12:25:44Z</time>
      </trkpt>
      <trkpt lat="44.42352" lon="3.73876">
        <ele>1677</ele>
        <time>2022-10-28T12:25:45Z</time>
      </trkpt>
      <trkpt lat="44.42353" lon="3.73876">
        <ele>1677.2</ele>
        <time>2022-10-28T12:25:46Z</time>
      </trkpt>
      <trkpt lat="44.42355" lon="3.73876">
        <ele>1677.4</ele>
        <time>2022-10-28T12:25:47Z</time>
      </trkpt>
      <trkpt lat="44.42356" lon="3.73875">
        <ele>1677.6</ele>
        <time>2022-10-28T12:25:48Z</time>
      </trkpt>
      <trkpt lat="44.42358" lon="3.73875">
        <ele>1677.8</ele>
        <time>2022-10-28T12:25:49Z</time>
      </trkpt>
      <trkpt lat="44.42359" lon="3.73875">
        <ele>1678</ele>
        <time>2022-10-28T12:25:50Z</time>
      </trkpt>
      <trkpt lat="44.4236" lon="3.73875">
        <ele>1678.2</ele>
        <time>2022-10-28T12:25:51Z</time>
      </trkpt>
      <trkpt lat="44.42362" lon="3.73875">
        <ele>1678.4</ele>
        <time>2022-10-28T12:25:52Z</time>
      </trkpt>
      <trkpt lat="44.42363" lon="3.73875">
        <ele>1678.6</ele>
        <time>2022-10-28T12:25:53Z</time>
      </trkpt>
      <trkpt lat="44.42365" lon="3.73874">
        <ele>1679</ele>
        <time>2022-10-28T12:25:54Z</time>
      </trkpt>
      <trkpt lat="44.42366" lon="3.73874">
        <ele>1679.2</ele>
        <time>2022-10-28T12:25:55Z</time>
      </trkpt>
      <trkpt lat="44.42368" lon="3.73874">
        <ele>1679.4</ele>
        <time>2022-10-28T12:25:56Z</time>
      </trkpt>
      <trkpt lat="44.42369" lon="3.73874">
        <ele>1679.6</ele>
        <time>2022-10-28T12:25:57Z</time>
      </trkpt>
      <trkpt lat="44.4237" lon="3.73874">
        <ele>1679.8</ele>
        <time>2022-10-28T12:25:58Z</time>
      </trkpt>
      <trkpt lat="44.42371" lon="3.73874">
        <ele>1680</ele>
        <time>2022-10-28T12:25:59Z</time>
      </trkpt>
      <trkpt lat="44.42373" lon="3.73874">
        <ele>1680.2</ele>
        <time>2022-10-28T12:26:00Z</time>
      </trkpt>
      <trkpt lat="44.42374" lon="3.73874">
        <ele>1680.4</ele>
        <time>2022-10-28T12:26:01Z</time>
      </trkpt>
      <trkpt lat="44.42376" lon="3.73874">
        <ele>1680.6</ele>
        <time>2022-10-28T12:26:02Z</time>
      </trkpt>
      <trkpt lat="44.42377" lon="3.73874">
        <ele>1680.8</ele>
        <time>2022-10-28T12:26:03Z</time>
      </trkpt>
      <trkpt lat="44.42378" lon="3.73874">
        <ele>1681</ele>
        <time>2022-10-28T12:26:04Z</time>
      </trkpt>
      <trkpt lat="44.4238" lon="3.73874">
        <ele>1681.2</ele>
        <time>2022-10-28T12:26:05Z</time>
      </trkpt>
      <trkpt lat="44.42381" lon="3.73874">
        <ele>1681.4</ele>
        <time>2022-10-28T12:26:06Z</time>
      </trkpt>
      <trkpt lat="44.42382" lon="3.73874">
        <ele>1681.6</ele>
        <time>2022-10-28T12:26:07Z</time>
      </trkpt>
      <trkpt lat="44.42384" lon="3.73874">
        <ele>1681.8</ele>
        <time>2022-10-28T12:26:08Z</time>
      </trkpt>
      <trkpt lat="44.42385" lon="3.73874">
        <ele>1682</ele>
        <time>2022-10-28T12:26:09Z</time>
      </trkpt>
      <trkpt lat="44.42386" lon="3.73874">
        <ele>1682.2</ele>
        <time>2022-10-28T12:26:10Z</time>
      </trkpt>
      <trkpt lat="44.42388" lon="3.73874">
        <ele>1682.4</ele>
        <time>2022-10-28T12:26:11Z</time>
      </trkpt>
      <trkpt lat="44.42389" lon="3.73873">
        <ele>1682.6</ele>
        <time>2022-10-28T12:26:12Z</time>
      </trkpt>
      <trkpt lat="44.42391" lon="3.73873">
        <ele>1682.8</ele>
        <time>2022-10-28T12:26:13Z</time>
      </trkpt>
      <trkpt lat="44.42392" lon="3.73873">
        <ele>1683</ele>
        <time>2022-10-28T12:26:14Z</time>
      </trkpt>
      <trkpt lat="44.42394" lon="3.73873">
        <ele>1683.2</ele>
        <time>2022-10-28T12:26:15Z</time>
      </trkpt>
      <trkpt lat="44.42395" lon="3.73873">
        <ele>1683.4</ele>
        <time>2022-10-28T12:26:16Z</time>
      </trkpt>
      <trkpt lat="44.42397" lon="3.73873">
        <ele>1683.6</ele>
        <time>2022-10-28T12:26:17Z</time>
      </trkpt>
      <trkpt lat="44.42398" lon="3.73873">
        <ele>1683.8</ele>
        <time>2022-10-28T12:26:18Z</time>
      </trkpt>
      <trkpt lat="44.42399" lon="3.73873">
        <ele>1684</ele>
        <time>2022-10-28T12:26:19Z</time>
      </trkpt>
      <trkpt lat="44.42401" lon="3.73873">
        <ele>1684</ele>
        <time>2022-10-28T12:26:20Z</time>
      </trkpt>
      <trkpt lat="44.42402" lon="3.73873">
        <ele>1684.2</ele>
        <time>2022-10-28T12:26:21Z</time>
      </trkpt>
      <trkpt lat="44.42404" lon="3.73873">
        <ele>1684.4</ele>
        <time>2022-10-28T12:26:22Z</time>
      </trkpt>
      <trkpt lat="44.42405" lon="3.73873">
        <ele>1684.6</ele>
        <time>2022-10-28T12:26:23Z</time>
      </trkpt>
      <trkpt lat="44.42407" lon="3.73873">
        <ele>1684.8</ele>
        <time>2022-10-28T12:26:24Z</time>
      </trkpt>
      <trkpt lat="44.42408" lon="3.73872">
        <ele>1685</ele>
        <time>2022-10-28T12:26:25Z</time>
      </trkpt>
      <trkpt lat="44.4241" lon="3.73873">
        <ele>1685.2</ele>
        <time>2022-10-28T12:26:26Z</time>
      </trkpt>
      <trkpt lat="44.42411" lon="3.73873">
        <ele>1685.4</ele>
        <time>2022-10-28T12:26:27Z</time>
      </trkpt>
      <trkpt lat="44.42412" lon="3.73874">
        <ele>1685.6</ele>
        <time>2022-10-28T12:26:28Z</time>
      </trkpt>
      <trkpt lat="44.42413" lon="3.73875">
        <ele>1685.8</ele>
        <time>2022-10-28T12:26:29Z</time>
      </trkpt>
      <trkpt lat="44.42415" lon="3.73875">
        <ele>1685.8</ele>
        <time>2022-10-28T12:26:30Z</time>
      </trkpt>
      <trkpt lat="44.42416" lon="3.73876">
        <ele>1686</ele>
        <time>2022-10-28T12:26:31Z</time>
      </trkpt>
      <trkpt lat="44.42418" lon="3.73875">
        <ele>1686.2</ele>
        <time>2022-10-28T12:26:32Z</time>
      </trkpt>
      <trkpt lat="44.42419" lon="3.73875">
        <ele>1686.4</ele>
        <time>2022-10-28T12:26:33Z</time>
      </trkpt>
      <trkpt lat="44.4242" lon="3.73876">
        <ele>1686.6</ele>
        <time>2022-10-28T12:26:34Z</time>
      </trkpt>
      <trkpt lat="44.42422" lon="3.73876">
        <ele>1686.8</ele>
        <time>2022-10-28T12:26:35Z</time>
      </trkpt>
      <trkpt lat="44.42423" lon="3.73876">
        <ele>1687</ele>
        <time>2022-10-28T12:26:36Z</time>
      </trkpt>
      <trkpt lat="44.42424" lon="3.73876">
        <ele>1687.2</ele>
        <time>2022-10-28T12:26:37Z</time>
      </trkpt>
      <trkpt lat="44.42426" lon="3.73876">
        <ele>1687.4</ele>
        <time>2022-10-28T12:26:38Z</time>
      </trkpt>
      <trkpt lat="44.42427" lon="3.73876">
        <ele>1687.4</ele>
        <time>2022-10-28T12:26:39Z</time>
      </trkpt>
      <trkpt lat="44.42429" lon="3.73876">
        <ele>1687.6</ele>
        <time>2022-10-28T12:26:40Z</time>
      </trkpt>
      <trkpt lat="44.4243" lon="3.73876">
        <ele>1687.8</ele>
        <time>2022-10-28T12:26:41Z</time>
      </trkpt>
      <trkpt lat="44.42432" lon="3.73876">
        <ele>1688</ele>
        <time>2022-10-28T12:26:42Z</time>
      </trkpt>
      <trkpt lat="44.42433" lon="3.73876">
        <ele>1688.2</ele>
        <time>2022-10-28T12:26:43Z</time>
      </trkpt>
      <trkpt lat="44.42435" lon="3.73876">
        <ele>1688.2</ele>
        <time>2022-10-28T12:26:44Z</time>
      </trkpt>
      <trkpt lat="44.42436" lon="3.73876">
        <ele>1688.4</ele>
        <time>2022-10-28T12:26:45Z</time>
      </trkpt>
      <trkpt lat="44.42437" lon="3.73877">
        <ele>1688.6</ele>
        <time>2022-10-28T12:26:46Z</time>
      </trkpt>
      <trkpt lat="44.42439" lon="3.73877">
        <ele>1688.8</ele>
        <time>2022-10-28T12:26:47Z</time>
      </trkpt>
      <trkpt lat="44.4244" lon="3.73877">
        <ele>1689</ele>
        <time>2022-10-28T12:26:48Z</time>
      </trkpt>
      <trkpt lat="44.42442" lon="3.73877">
        <ele>1689.2</ele>
        <time>2022-10-28T12:26:49Z</time>
      </trkpt>
      <trkpt lat="44.42443" lon="3.73877">
        <ele>1689.4</ele>
        <time>2022-10-28T12:26:50Z</time>
      </trkpt>
      <trkpt lat="44.42444" lon="3.73877">
        <ele>1689.4</ele>
        <time>2022-10-28T12:26:51Z</time>
      </trkpt>
      <trkpt lat="44.42446" lon="3.73878">
        <ele>1689.6</ele>
        <time>2022-10-28T12:26:52Z</time>
      </trkpt>
      <trkpt lat="44.42447" lon="3.73878">
        <ele>1689.8</ele>
        <time>2022-10-28T12:26:53Z</time>
      </trkpt>
      <trkpt lat="44.42448" lon="3.73878">
        <ele>1690</ele>
        <time>2022-10-28T12:26:54Z</time>
      </trkpt>
      <trkpt lat="44.4245" lon="3.73878">
        <ele>1690.2</ele>
        <time>2022-10-28T12:26:55Z</time>
      </trkpt>
      <trkpt lat="44.42451" lon="3.73878">
        <ele>1690.4</ele>
        <time>2022-10-28T12:26:56Z</time>
      </trkpt>
      <trkpt lat="44.42452" lon="3.73879">
        <ele>1690.6</ele>
        <time>2022-10-28T12:26:57Z</time>
      </trkpt>
      <trkpt lat="44.42453" lon="3.7388">
        <ele>1690.6</ele>
        <time>2022-10-28T12:26:58Z</time>
      </trkpt>
      <trkpt lat="44.42455" lon="3.7388">
        <ele>1690.8</ele>
        <time>2022-10-28T12:26:59Z</time>
      </trkpt>
      <trkpt lat="44.42456" lon="3.73881">
        <ele>1691</ele>
        <time>2022-10-28T12:27:00Z</time>
      </trkpt>
      <trkpt lat="44.42458" lon="3.73881">
        <ele>1691.2</ele>
        <time>2022-10-28T12:27:01Z</time>
      </trkpt>
      <trkpt lat="44.42459" lon="3.73881">
        <ele>1691.2</ele>
        <time>2022-10-28T12:27:02Z</time>
      </trkpt>
      <trkpt lat="44.42461" lon="3.73881">
        <ele>1691.4</ele>
        <time>2022-10-28T12:27:03Z</time>
      </trkpt>
      <trkpt lat="44.42463" lon="3.73882">
        <ele>1691.6</ele>
        <time>2022-10-28T12:27:04Z</time>
      </trkpt>
      <trkpt lat="44.42464" lon="3.73882">
        <ele>1691.6</ele>
        <time>2022-10-28T12:27:05Z</time>
      </trkpt>
      <trkpt lat="44.42466" lon="3.73882">
        <ele>1691.8</ele>
        <time>2022-10-28T12:27:06Z</time>
      </trkpt>
      <trkpt lat="44.42467" lon="3.73883">
        <ele>1692</ele>
        <time>2022-10-28T12:27:07Z</time>
      </trkpt>
      <trkpt lat="44.42469" lon="3.73883">
        <ele>1692.2</ele>
        <time>2022-10-28T12:27:08Z</time>
      </trkpt>
      <trkpt lat="44.4247" lon="3.73884">
        <ele>1692.4</ele>
        <time>2022-10-28T12:27:09Z</time>
      </trkpt>
      <trkpt lat="44.42471" lon="3.73884">
        <ele>1692.4</ele>
        <time>2022-10-28T12:27:10Z</time>
      </trkpt>
      <trkpt lat="44.42473" lon="3.73885">
        <ele>1692.6</ele>
        <time>2022-10-28T12:27:11Z</time>
      </trkpt>
      <trkpt lat="44.42474" lon="3.73885">
        <ele>1692.8</ele>
        <time>2022-10-28T12:27:12Z</time>
      </trkpt>
      <trkpt lat="44.42476" lon="3.73885">
        <ele>1692.8</ele>
        <time>2022-10-28T12:27:13Z</time>
      </trkpt>
      <trkpt lat="44.42477" lon="3.73886">
        <ele>1693</ele>
        <time>2022-10-28T12:27:14Z</time>
      </trkpt>
      <trkpt lat="44.42478" lon="3.73886">
        <ele>1693</ele>
        <time>2022-10-28T12:27:15Z</time>
      </trkpt>
      <trkpt lat="44.4248" lon="3.73886">
        <ele>1693.2</ele>
        <time>2022-10-28T12:27:16Z</time>
      </trkpt>
      <trkpt lat="44.42481" lon="3.73887">
        <ele>1693.4</ele>
        <time>2022-10-28T12:27:17Z</time>
      </trkpt>
      <trkpt lat="44.42482" lon="3.73887">
        <ele>1693.4</ele>
        <time>2022-10-28T12:27:18Z</time>
      </trkpt>
      <trkpt lat="44.42484" lon="3.73888">
        <ele>1693.6</ele>
        <time>2022-10-28T12:27:19Z</time>
      </trkpt>
      <trkpt lat="44.42485" lon="3.73888">
        <ele>1693.6</ele>
        <time>2022-10-28T12:27:20Z</time>
      </trkpt>
      <trkpt lat="44.42487" lon="3.73888">
        <ele>1693.8</ele>
        <time>2022-10-28T12:27:21Z</time>
      </trkpt>
      <trkpt lat="44.42489" lon="3.73889">
        <ele>1694</ele>
        <time>2022-10-28T12:27:22Z</time>
      </trkpt>
      <trkpt lat="44.4249" lon="3.73889">
        <ele>1694.2</ele>
        <time>2022-10-28T12:27:23Z</time>
      </trkpt>
      <trkpt lat="44.42492" lon="3.73889">
        <ele>1694.4</ele>
        <time>2022-10-28T12:27:24Z</time>
      </trkpt>
      <trkpt lat="44.42493" lon="3.7389">
        <ele>1694.6</ele>
        <time>2022-10-28T12:27:25Z</time>
      </trkpt>
      <trkpt lat="44.42495" lon="3.7389">
        <ele>1694.8</ele>
        <time>2022-10-28T12:27:26Z</time>
      </trkpt>
      <trkpt lat="44.42496" lon="3.7389">
        <ele>1695</ele>
        <time>2022-10-28T12:27:27Z</time>
      </trkpt>
      <trkpt lat="44.42497" lon="3.7389">
        <ele>1695</ele>
        <time>2022-10-28T12:27:28Z</time>
      </trkpt>
      <trkpt lat="44.42499" lon="3.7389">
        <ele>1695.2</ele>
        <time>2022-10-28T12:27:29Z</time>
      </trkpt>
      <trkpt lat="44.425" lon="3.73891">
        <ele>1695.2</ele>
        <time>2022-10-28T12:27:30Z</time>
      </trkpt>
      <trkpt lat="44.42502" lon="3.73892">
        <ele>1695.4</ele>
        <time>2022-10-28T12:27:31Z</time>
      </trkpt>
      <trkpt lat="44.42503" lon="3.73892">
        <ele>1695.6</ele>
        <time>2022-10-28T12:27:32Z</time>
      </trkpt>
      <trkpt lat="44.42504" lon="3.73892">
        <ele>1695.6</ele>
        <time>2022-10-28T12:27:33Z</time>
      </trkpt>
      <trkpt lat="44.42506" lon="3.73893">
        <ele>1695.8</ele>
        <time>2022-10-28T12:27:34Z</time>
      </trkpt>
      <trkpt lat="44.42507" lon="3.73893">
        <ele>1696</ele>
        <time>2022-10-28T12:27:35Z</time>
      </trkpt>
      <trkpt lat="44.42508" lon="3.73893">
        <ele>1696</ele>
        <time>2022-10-28T12:27:36Z</time>
      </trkpt>
      <trkpt lat="44.42509" lon="3.73893">
        <ele>1696.2</ele>
        <time>2022-10-28T12:27:37Z</time>
      </trkpt>
      <trkpt lat="44.42511" lon="3.73893">
        <ele>1696.2</ele>
        <time>2022-10-28T12:27:38Z</time>
      </trkpt>
      <trkpt lat="44.42512" lon="3.73893">
        <ele>1696.4</ele>
        <time>2022-10-28T12:27:39Z</time>
      </trkpt>
      <trkpt lat="44.42513" lon="3.73893">
        <ele>1696.6</ele>
        <time>2022-10-28T12:27:40Z</time>
      </trkpt>
      <trkpt lat="44.42514" lon="3.73894">
        <ele>1696.6</ele>
        <time>2022-10-28T12:27:41Z</time>
      </trkpt>
      <trkpt lat="44.42516" lon="3.73895">
        <ele>1696.8</ele>
        <time>2022-10-28T12:27:42Z</time>
      </trkpt>
      <trkpt lat="44.42517" lon="3.73896">
        <ele>1697</ele>
        <time>2022-10-28T12:27:43Z</time>
      </trkpt>
      <trkpt lat="44.42518" lon="3.73896">
        <ele>1697</ele>
        <time>2022-10-28T12:27:44Z</time>
      </trkpt>
      <trkpt lat="44.4252" lon="3.73896">
        <ele>1697.2</ele>
        <time>2022-10-28T12:27:45Z</time>
      </trkpt>
      <trkpt lat="44.42521" lon="3.73896">
        <ele>1697.2</ele>
        <time>2022-10-28T12:27:46Z</time>
      </trkpt>
      <trkpt lat="44.42523" lon="3.73897">
        <ele>1697.4</ele>
        <time>2022-10-28T12:27:47Z</time>
      </trkpt>
      <trkpt lat="44.42525" lon="3.73897">
        <ele>1697.6</ele>
        <time>2022-10-28T12:27:48Z</time>
      </trkpt>
      <trkpt lat="44.42526" lon="3.73897">
        <ele>1697.8</ele>
        <time>2022-10-28T12:27:49Z</time>
      </trkpt>
      <trkpt lat="44.42527" lon="3.73897">
        <ele>1698</ele>
        <time>2022-10-28T12:27:50Z</time>
      </trkpt>
      <trkpt lat="44.42529" lon="3.73898">
        <ele>1698</ele>
        <time>2022-10-28T12:27:51Z</time>
      </trkpt>
      <trkpt lat="44.4253" lon="3.73899">
        <ele>1698.2</ele>
        <time>2022-10-28T12:27:52Z</time>
      </trkpt>
      <trkpt lat="44.42532" lon="3.73899">
        <ele>1698.2</ele>
        <time>2022-10-28T12:27:53Z</time>
      </trkpt>
      <trkpt lat="44.42534" lon="3.739">
        <ele>1698.4</ele>
        <time>2022-10-28T12:27:54Z</time>
      </trkpt>
      <trkpt lat="44.42535" lon="3.739">
        <ele>1698.6</ele>
        <time>2022-10-28T12:27:55Z</time>
      </trkpt>
      <trkpt lat="44.42537" lon="3.739">
        <ele>1698.6</ele>
        <time>2022-10-28T12:27:56Z</time>
      </trkpt>
      <trkpt lat="44.42538" lon="3.739">
        <ele>1698.8</ele>
        <time>2022-10-28T12:27:57Z</time>
      </trkpt>
      <trkpt lat="44.4254" lon="3.739">
        <ele>1699</ele>
        <time>2022-10-28T12:27:58Z</time>
      </trkpt>
      <trkpt lat="44.42541" lon="3.73899">
        <ele>1699</ele>
        <time>2022-10-28T12:27:59Z</time>
      </trkpt>
      <trkpt lat="44.42543" lon="3.739">
        <ele>1699.2</ele>
        <time>2022-10-28T12:28:00Z</time>
      </trkpt>
      <trkpt lat="44.42545" lon="3.739">
        <ele>1699.4</ele>
        <time>2022-10-28T12:28:01Z</time>
      </trkpt>
      <trkpt lat="44.42546" lon="3.73901">
        <ele>1699.4</ele>
        <time>2022-10-28T12:28:02Z</time>
      </trkpt>
      <trkpt lat="44.42548" lon="3.73902">
        <ele>1699.6</ele>
        <time>2022-10-28T12:28:03Z</time>
      </trkpt>
      <trkpt lat="44.42549" lon="3.73903">
        <ele>1699.6</ele>
        <time>2022-10-28T12:28:04Z</time>
      </trkpt>
      <trkpt lat="44.42551" lon="3.73903">
        <ele>1699.8</ele>
        <time>2022-10-28T12:28:05Z</time>
      </trkpt>
      <trkpt lat="44.42553" lon="3.73903">
        <ele>1699.8</ele>
        <time>2022-10-28T12:28:06Z</time>
      </trkpt>
      <trkpt lat="44.42554" lon="3.73904">
        <ele>1700</ele>
        <time>2022-10-28T12:28:07Z</time>
      </trkpt>
      <trkpt lat="44.42557" lon="3.73904">
        <ele>1700</ele>
        <time>2022-10-28T12:28:08Z</time>
      </trkpt>
      <trkpt lat="44.42558" lon="3.73905">
        <ele>1700.2</ele>
        <time>2022-10-28T12:28:09Z</time>
      </trkpt>
      <trkpt lat="44.4256" lon="3.73905">
        <ele>1700.4</ele>
        <time>2022-10-28T12:28:10Z</time>
      </trkpt>
      <trkpt lat="44.42562" lon="3.73906">
        <ele>1700.4</ele>
        <time>2022-10-28T12:28:11Z</time>
      </trkpt>
      <trkpt lat="44.42564" lon="3.73906">
        <ele>1700.6</ele>
        <time>2022-10-28T12:28:12Z</time>
      </trkpt>
      <trkpt lat="44.42566" lon="3.73907">
        <ele>1700.8</ele>
        <time>2022-10-28T12:28:13Z</time>
      </trkpt>
      <trkpt lat="44.42567" lon="3.73907">
        <ele>1700.8</ele>
        <time>2022-10-28T12:28:14Z</time>
      </trkpt>
      <trkpt lat="44.42569" lon="3.73908">
        <ele>1700.8</ele>
        <time>2022-10-28T12:28:15Z</time>
      </trkpt>
      <trkpt lat="44.42571" lon="3.73908">
        <ele>1701</ele>
        <time>2022-10-28T12:28:16Z</time>
      </trkpt>
      <trkpt lat="44.42572" lon="3.73909">
        <ele>1701</ele>
        <time>2022-10-28T12:28:17Z</time>
      </trkpt>
      <trkpt lat="44.42574" lon="3.73909">
        <ele>1701.2</ele>
        <time>2022-10-28T12:28:18Z</time>
      </trkpt>
      <trkpt lat="44.42576" lon="3.7391">
        <ele>1701.2</ele>
        <time>2022-10-28T12:28:19Z</time>
      </trkpt>
      <trkpt lat="44.42577" lon="3.73911">
        <ele>1701.4</ele>
        <time>2022-10-28T12:28:20Z</time>
      </trkpt>
      <trkpt lat="44.42579" lon="3.73911">
        <ele>1701.4</ele>
        <time>2022-10-28T12:28:21Z</time>
      </trkpt>
      <trkpt lat="44.4258" lon="3.73912">
        <ele>1701.6</ele>
        <time>2022-10-28T12:28:22Z</time>
      </trkpt>
      <trkpt lat="44.42582" lon="3.73913">
        <ele>1701.8</ele>
        <time>2022-10-28T12:28:23Z</time>
      </trkpt>
      <trkpt lat="44.42583" lon="3.73914">
        <ele>1701.8</ele>
        <time>2022-10-28T12:28:24Z</time>
      </trkpt>
      <trkpt lat="44.42585" lon="3.73915">
        <ele>1701.8</ele>
        <time>2022-10-28T12:28:25Z</time>
      </trkpt>
      <trkpt lat="44.42586" lon="3.73915">
        <ele>1702</ele>
        <time>2022-10-28T12:28:26Z</time>
      </trkpt>
      <trkpt lat="44.42588" lon="3.73915">
        <ele>1702</ele>
        <time>2022-10-28T12:28:27Z</time>
      </trkpt>
      <trkpt lat="44.42589" lon="3.73916">
        <ele>1702</ele>
        <time>2022-10-28T12:28:28Z</time>
      </trkpt>
      <trkpt lat="44.42591" lon="3.73916">
        <ele>1702.2</ele>
        <time>2022-10-28T12:28:29Z</time>
      </trkpt>
      <trkpt lat="44.42592" lon="3.73917">
        <ele>1702.2</ele>
        <time>2022-10-28T12:28:30Z</time>
      </trkpt>
      <trkpt lat="44.42593" lon="3.73917">
        <ele>1702.2</ele>
        <time>2022-10-28T12:28:31Z</time>
      </trkpt>
      <trkpt lat="44.42594" lon="3.73918">
        <ele>1702.2</ele>
        <time>2022-10-28T12:28:32Z</time>
      </trkpt>
      <trkpt lat="44.42596" lon="3.73918">
        <ele>1702.4</ele>
        <time>2022-10-28T12:28:33Z</time>
      </trkpt>
      <trkpt lat="44.42597" lon="3.73918">
        <ele>1702.4</ele>
        <time>2022-10-28T12:28:34Z</time>
      </trkpt>
      <trkpt lat="44.42598" lon="3.73919">
        <ele>1702.4</ele>
        <time>2022-10-28T12:28:35Z</time>
      </trkpt>
      <trkpt lat="44.42599" lon="3.7392">
        <ele>1702.6</ele>
        <time>2022-10-28T12:28:36Z</time>
      </trkpt>
      <trkpt lat="44.426" lon="3.73921">
        <ele>1702.4</ele>
        <time>2022-10-28T12:28:37Z</time>
      </trkpt>
      <trkpt lat="44.42601" lon="3.73921">
        <ele>1702.6</ele>
        <time>2022-10-28T12:28:38Z</time>
      </trkpt>
      <trkpt lat="44.42602" lon="3.73921">
        <ele>1702.6</ele>
        <time>2022-10-28T12:28:39Z</time>
      </trkpt>
      <trkpt lat="44.42603" lon="3.73921">
        <ele>1702.6</ele>
        <time>2022-10-28T12:28:40Z</time>
      </trkpt>
      <trkpt lat="44.42604" lon="3.73922">
        <ele>1702.6</ele>
        <time>2022-10-28T12:28:41Z</time>
      </trkpt>
      <trkpt lat="44.42605" lon="3.73922">
        <ele>1702.8</ele>
        <time>2022-10-28T12:28:42Z</time>
      </trkpt>
      <trkpt lat="44.42605" lon="3.73923">
        <ele>1702.6</ele>
        <time>2022-10-28T12:28:43Z</time>
      </trkpt>
      <trkpt lat="44.42606" lon="3.73921">
        <ele>1703.2</ele>
        <time>2022-10-28T12:28:58Z</time>
      </trkpt>
      <trkpt lat="44.42607" lon="3.7392">
        <ele>1703.2</ele>
        <time>2022-10-28T12:28:59Z</time>
      </trkpt>
      <trkpt lat="44.42607" lon="3.73917">
        <ele>1703.2</ele>
        <time>2022-10-28T12:29:00Z</time>
      </trkpt>
      <trkpt lat="44.42608" lon="3.73915">
        <ele>1703.4</ele>
        <time>2022-10-28T12:29:01Z</time>
      </trkpt>
      <trkpt lat="44.42608" lon="3.73914">
        <ele>1703.4</ele>
        <time>2022-10-28T12:29:02Z</time>
      </trkpt>
      <trkpt lat="44.42608" lon="3.73913">
        <ele>1703.6</ele>
        <time>2022-10-28T12:29:03Z</time>
      </trkpt>
      <trkpt lat="44.42608" lon="3.73912">
        <ele>1703.6</ele>
        <time>2022-10-28T12:29:04Z</time>
      </trkpt>
      <trkpt lat="44.42608" lon="3.73912">
        <ele>1703.8</ele>
        <time>2022-10-28T12:29:05Z</time>
      </trkpt>
      <trkpt lat="44.42608" lon="3.73912">
        <ele>1703.8</ele>
        <time>2022-10-28T12:29:06Z</time>
      </trkpt>
      <trkpt lat="44.42608" lon="3.73912">
        <ele>1703.8</ele>
        <time>2022-10-28T12:29:07Z</time>
      </trkpt>
      <trkpt lat="44.42608" lon="3.73912">
        <ele>1703.8</ele>
        <time>2022-10-28T12:29:08Z</time>
      </trkpt>
      <trkpt lat="44.42607" lon="3.73912">
        <ele>1703.8</ele>
        <time>2022-10-28T12:29:30Z</time>
      </trkpt>
      <trkpt lat="44.42605" lon="3.73913">
        <ele>1703.8</ele>
        <time>2022-10-28T12:29:31Z</time>
      </trkpt>
      <trkpt lat="44.42604" lon="3.73915">
        <ele>1703.8</ele>
        <time>2022-10-28T12:29:32Z</time>
      </trkpt>
      <trkpt lat="44.42602" lon="3.73916">
        <ele>1703.8</ele>
        <time>2022-10-28T12:29:33Z</time>
      </trkpt>
      <trkpt lat="44.42602" lon="3.73917">
        <ele>1703.8</ele>
        <time>2022-10-28T12:29:34Z</time>
      </trkpt>
      <trkpt lat="44.42601" lon="3.73917">
        <ele>1703.6</ele>
        <time>2022-10-28T12:29:35Z</time>
      </trkpt>
      <trkpt lat="44.42601" lon="3.73918">
        <ele>1703.8</ele>
        <time>2022-10-28T12:29:36Z</time>
      </trkpt>
      <trkpt lat="44.426" lon="3.73919">
        <ele>1703.6</ele>
        <time>2022-10-28T12:29:37Z</time>
      </trkpt>
      <trkpt lat="44.426" lon="3.73919">
        <ele>1703.4</ele>
        <time>2022-10-28T12:29:38Z</time>
      </trkpt>
      <trkpt lat="44.426" lon="3.73919">
        <ele>1703.2</ele>
        <time>2022-10-28T12:29:39Z</time>
      </trkpt>
      <trkpt lat="44.426" lon="3.73919">
        <ele>1703.2</ele>
        <time>2022-10-28T12:29:40Z</time>
      </trkpt>
      <trkpt lat="44.426" lon="3.73919">
        <ele>1703.2</ele>
        <time>2022-10-28T12:29:41Z</time>
      </trkpt>
      <trkpt lat="44.426" lon="3.73919">
        <ele>1703.4</ele>
        <time>2022-10-28T12:29:42Z</time>
      </trkpt>
      <trkpt lat="44.426" lon="3.73919">
        <ele>1703.4</ele>
        <time>2022-10-28T12:29:43Z</time>
      </trkpt>
      <trkpt lat="44.42591" lon="3.73926">
        <ele>1703.2</ele>
        <time>2022-10-28T12:32:46Z</time>
      </trkpt>
      <trkpt lat="44.42591" lon="3.73928">
        <ele>1703.2</ele>
        <time>2022-10-28T12:32:47Z</time>
      </trkpt>
      <trkpt lat="44.42591" lon="3.73931">
        <ele>1703.2</ele>
        <time>2022-10-28T12:32:48Z</time>
      </trkpt>
      <trkpt lat="44.4259" lon="3.73933">
        <ele>1703.2</ele>
        <time>2022-10-28T12:32:49Z</time>
      </trkpt>
      <trkpt lat="44.4259" lon="3.73936">
        <ele>1703.2</ele>
        <time>2022-10-28T12:32:50Z</time>
      </trkpt>
      <trkpt lat="44.42589" lon="3.73938">
        <ele>1703.2</ele>
        <time>2022-10-28T12:32:51Z</time>
      </trkpt>
      <trkpt lat="44.42589" lon="3.73941">
        <ele>1703</ele>
        <time>2022-10-28T12:32:52Z</time>
      </trkpt>
      <trkpt lat="44.42588" lon="3.73944">
        <ele>1703</ele>
        <time>2022-10-28T12:32:53Z</time>
      </trkpt>
      <trkpt lat="44.42587" lon="3.73946">
        <ele>1703</ele>
        <time>2022-10-28T12:32:54Z</time>
      </trkpt>
      <trkpt lat="44.42586" lon="3.73949">
        <ele>1703</ele>
        <time>2022-10-28T12:32:55Z</time>
      </trkpt>
      <trkpt lat="44.42586" lon="3.73951">
        <ele>1703</ele>
        <time>2022-10-28T12:32:56Z</time>
      </trkpt>
      <trkpt lat="44.42586" lon="3.73953">
        <ele>1703</ele>
        <time>2022-10-28T12:32:57Z</time>
      </trkpt>
      <trkpt lat="44.42585" lon="3.73955">
        <ele>1703</ele>
        <time>2022-10-28T12:32:58Z</time>
      </trkpt>
      <trkpt lat="44.42585" lon="3.73956">
        <ele>1702.8</ele>
        <time>2022-10-28T12:32:59Z</time>
      </trkpt>
      <trkpt lat="44.42585" lon="3.73956">
        <ele>1702.8</ele>
        <time>2022-10-28T12:33:00Z</time>
      </trkpt>
      <trkpt lat="44.42585" lon="3.73956">
        <ele>1702.6</ele>
        <time>2022-10-28T12:33:01Z</time>
      </trkpt>
      <trkpt lat="44.42584" lon="3.73956">
        <ele>1702.8</ele>
        <time>2022-10-28T12:33:02Z</time>
      </trkpt>
      <trkpt lat="44.42584" lon="3.73956">
        <ele>1702.8</ele>
        <time>2022-10-28T12:33:03Z</time>
      </trkpt>
      <trkpt lat="44.42584" lon="3.73956">
        <ele>1702.8</ele>
        <time>2022-10-28T12:33:04Z</time>
      </trkpt>
      <trkpt lat="44.42584" lon="3.73956">
        <ele>1702.8</ele>
        <time>2022-10-28T12:33:05Z</time>
      </trkpt>
      <trkpt lat="44.42584" lon="3.73957">
        <ele>1702.8</ele>
        <time>2022-10-28T12:33:24Z</time>
      </trkpt>
      <trkpt lat="44.42583" lon="3.73958">
        <ele>1702.8</ele>
        <time>2022-10-28T12:33:25Z</time>
      </trkpt>
      <trkpt lat="44.42582" lon="3.73959">
        <ele>1702.8</ele>
        <time>2022-10-28T12:33:26Z</time>
      </trkpt>
      <trkpt lat="44.42582" lon="3.7396">
        <ele>1703</ele>
        <time>2022-10-28T12:33:27Z</time>
      </trkpt>
      <trkpt lat="44.42582" lon="3.7396">
        <ele>1703</ele>
        <time>2022-10-28T12:33:28Z</time>
      </trkpt>
      <trkpt lat="44.42582" lon="3.7396">
        <ele>1703</ele>
        <time>2022-10-28T12:33:29Z</time>
      </trkpt>
      <trkpt lat="44.42582" lon="3.7396">
        <ele>1703</ele>
        <time>2022-10-28T12:33:30Z</time>
      </trkpt>
      <trkpt lat="44.42582" lon="3.7396">
        <ele>1702.8</ele>
        <time>2022-10-28T12:33:31Z</time>
      </trkpt>
      <trkpt lat="44.42582" lon="3.73959">
        <ele>1703</ele>
        <time>2022-10-28T12:34:08Z</time>
      </trkpt>
      <trkpt lat="44.42581" lon="3.73957">
        <ele>1703</ele>
        <time>2022-10-28T12:34:09Z</time>
      </trkpt>
      <trkpt lat="44.42581" lon="3.73955">
        <ele>1703</ele>
        <time>2022-10-28T12:34:10Z</time>
      </trkpt>
      <trkpt lat="44.42581" lon="3.73954">
        <ele>1703</ele>
        <time>2022-10-28T12:34:11Z</time>
      </trkpt>
      <trkpt lat="44.42581" lon="3.73952">
        <ele>1703</ele>
        <time>2022-10-28T12:34:12Z</time>
      </trkpt>
      <trkpt lat="44.42582" lon="3.73951">
        <ele>1703</ele>
        <time>2022-10-28T12:34:13Z</time>
      </trkpt>
      <trkpt lat="44.42583" lon="3.7395">
        <ele>1703</ele>
        <time>2022-10-28T12:34:14Z</time>
      </trkpt>
      <trkpt lat="44.42584" lon="3.73949">
        <ele>1703</ele>
        <time>2022-10-28T12:34:15Z</time>
      </trkpt>
      <trkpt lat="44.42585" lon="3.73948">
        <ele>1703</ele>
        <time>2022-10-28T12:34:16Z</time>
      </trkpt>
      <trkpt lat="44.42586" lon="3.73948">
        <ele>1703</ele>
        <time>2022-10-28T12:34:17Z</time>
      </trkpt>
      <trkpt lat="44.42587" lon="3.73946">
        <ele>1703</ele>
        <time>2022-10-28T12:34:18Z</time>
      </trkpt>
      <trkpt lat="44.42588" lon="3.73945">
        <ele>1703</ele>
        <time>2022-10-28T12:34:19Z</time>
      </trkpt>
      <trkpt lat="44.42588" lon="3.73944">
        <ele>1703</ele>
        <time>2022-10-28T12:34:20Z</time>
      </trkpt>
      <trkpt lat="44.42589" lon="3.73942">
        <ele>1703</ele>
        <time>2022-10-28T12:34:21Z</time>
      </trkpt>
      <trkpt lat="44.42589" lon="3.73941">
        <ele>1703.2</ele>
        <time>2022-10-28T12:34:22Z</time>
      </trkpt>
      <trkpt lat="44.4259" lon="3.73939">
        <ele>1703.2</ele>
        <time>2022-10-28T12:34:23Z</time>
      </trkpt>
      <trkpt lat="44.4259" lon="3.73937">
        <ele>1703.2</ele>
        <time>2022-10-28T12:34:24Z</time>
      </trkpt>
      <trkpt lat="44.4259" lon="3.73936">
        <ele>1703.2</ele>
        <time>2022-10-28T12:34:25Z</time>
      </trkpt>
      <trkpt lat="44.42591" lon="3.73934">
        <ele>1703.2</ele>
        <time>2022-10-28T12:34:26Z</time>
      </trkpt>
      <trkpt lat="44.42591" lon="3.73933">
        <ele>1703.4</ele>
        <time>2022-10-28T12:34:27Z</time>
      </trkpt>
      <trkpt lat="44.42592" lon="3.73931">
        <ele>1703.4</ele>
        <time>2022-10-28T12:34:28Z</time>
      </trkpt>
      <trkpt lat="44.42592" lon="3.73929">
        <ele>1703.4</ele>
        <time>2022-10-28T12:34:29Z</time>
      </trkpt>
      <trkpt lat="44.42592" lon="3.73928">
        <ele>1703.4</ele>
        <time>2022-10-28T12:34:30Z</time>
      </trkpt>
      <trkpt lat="44.42592" lon="3.73926">
        <ele>1703.4</ele>
        <time>2022-10-28T12:34:31Z</time>
      </trkpt>
      <trkpt lat="44.42592" lon="3.73924">
        <ele>1703.4</ele>
        <time>2022-10-28T12:34:32Z</time>
      </trkpt>
      <trkpt lat="44.42593" lon="3.73923">
        <ele>1703.4</ele>
        <time>2022-10-28T12:34:33Z</time>
      </trkpt>
      <trkpt lat="44.42594" lon="3.73922">
        <ele>1703.4</ele>
        <time>2022-10-28T12:34:34Z</time>
      </trkpt>
      <trkpt lat="44.42595" lon="3.73921">
        <ele>1703.4</ele>
        <time>2022-10-28T12:34:35Z</time>
      </trkpt>
      <trkpt lat="44.42596" lon="3.7392">
        <ele>1703.4</ele>
        <time>2022-10-28T12:34:36Z</time>
      </trkpt>
      <trkpt lat="44.42597" lon="3.7392">
        <ele>1703.4</ele>
        <time>2022-10-28T12:34:37Z</time>
      </trkpt>
      <trkpt lat="44.42599" lon="3.73919">
        <ele>1703.4</ele>
        <time>2022-10-28T12:34:38Z</time>
      </trkpt>
      <trkpt lat="44.426" lon="3.73919">
        <ele>1703.4</ele>
        <time>2022-10-28T12:34:39Z</time>
      </trkpt>
      <trkpt lat="44.42601" lon="3.73919">
        <ele>1703.4</ele>
        <time>2022-10-28T12:34:40Z</time>
      </trkpt>
      <trkpt lat="44.42602" lon="3.73918">
        <ele>1703.4</ele>
        <time>2022-10-28T12:34:41Z</time>
      </trkpt>
      <trkpt lat="44.42603" lon="3.73917">
        <ele>1703.6</ele>
        <time>2022-10-28T12:34:42Z</time>
      </trkpt>
      <trkpt lat="44.42604" lon="3.73916">
        <ele>1703.6</ele>
        <time>2022-10-28T12:34:43Z</time>
      </trkpt>
      <trkpt lat="44.42604" lon="3.73915">
        <ele>1703.6</ele>
        <time>2022-10-28T12:34:44Z</time>
      </trkpt>
      <trkpt lat="44.42605" lon="3.73914">
        <ele>1703.6</ele>
        <time>2022-10-28T12:34:45Z</time>
      </trkpt>
      <trkpt lat="44.42606" lon="3.73913">
        <ele>1703.6</ele>
        <time>2022-10-28T12:34:46Z</time>
      </trkpt>
      <trkpt lat="44.42606" lon="3.73912">
        <ele>1703.6</ele>
        <time>2022-10-28T12:34:47Z</time>
      </trkpt>
      <trkpt lat="44.42607" lon="3.73911">
        <ele>1703.6</ele>
        <time>2022-10-28T12:34:48Z</time>
      </trkpt>
      <trkpt lat="44.42608" lon="3.7391">
        <ele>1703.6</ele>
        <time>2022-10-28T12:34:49Z</time>
      </trkpt>
      <trkpt lat="44.42608" lon="3.73909">
        <ele>1703.8</ele>
        <time>2022-10-28T12:34:50Z</time>
      </trkpt>
      <trkpt lat="44.42609" lon="3.73909">
        <ele>1703.8</ele>
        <time>2022-10-28T12:34:51Z</time>
      </trkpt>
      <trkpt lat="44.426" lon="3.73919">
        <ele>1704</ele>
        <time>2022-10-28T12:42:23Z</time>
      </trkpt>
      <trkpt lat="44.42599" lon="3.7392">
        <ele>1703.8</ele>
        <time>2022-10-28T12:42:24Z</time>
      </trkpt>
      <trkpt lat="44.42598" lon="3.7392">
        <ele>1703.6</ele>
        <time>2022-10-28T12:42:25Z</time>
      </trkpt>
      <trkpt lat="44.42597" lon="3.73921">
        <ele>1703.6</ele>
        <time>2022-10-28T12:42:26Z</time>
      </trkpt>
      <trkpt lat="44.42596" lon="3.73922">
        <ele>1703.6</ele>
        <time>2022-10-28T12:42:27Z</time>
      </trkpt>
      <trkpt lat="44.42594" lon="3.73924">
        <ele>1703.6</ele>
        <time>2022-10-28T12:42:28Z</time>
      </trkpt>
      <trkpt lat="44.42593" lon="3.73926">
        <ele>1703.6</ele>
        <time>2022-10-28T12:42:29Z</time>
      </trkpt>
      <trkpt lat="44.42593" lon="3.73928">
        <ele>1703.6</ele>
        <time>2022-10-28T12:42:30Z</time>
      </trkpt>
      <trkpt lat="44.42592" lon="3.7393">
        <ele>1703.4</ele>
        <time>2022-10-28T12:42:31Z</time>
      </trkpt>
      <trkpt lat="44.42592" lon="3.73933">
        <ele>1703.4</ele>
        <time>2022-10-28T12:42:32Z</time>
      </trkpt>
      <trkpt lat="44.42591" lon="3.73935">
        <ele>1703.4</ele>
        <time>2022-10-28T12:42:33Z</time>
      </trkpt>
      <trkpt lat="44.42591" lon="3.73937">
        <ele>1703.2</ele>
        <time>2022-10-28T12:42:34Z</time>
      </trkpt>
      <trkpt lat="44.4259" lon="3.73939">
        <ele>1703</ele>
        <time>2022-10-28T12:42:35Z</time>
      </trkpt>
      <trkpt lat="44.4259" lon="3.73941">
        <ele>1703</ele>
        <time>2022-10-28T12:42:36Z</time>
      </trkpt>
      <trkpt lat="44.42589" lon="3.73943">
        <ele>1703</ele>
        <time>2022-10-28T12:42:37Z</time>
      </trkpt>
      <trkpt lat="44.42588" lon="3.73946">
        <ele>1702.8</ele>
        <time>2022-10-28T12:42:38Z</time>
      </trkpt>
      <trkpt lat="44.42587" lon="3.73948">
        <ele>1702.8</ele>
        <time>2022-10-28T12:42:39Z</time>
      </trkpt>
      <trkpt lat="44.42586" lon="3.7395">
        <ele>1702.8</ele>
        <time>2022-10-28T12:42:40Z</time>
      </trkpt>
      <trkpt lat="44.42584" lon="3.73952">
        <ele>1702.6</ele>
        <time>2022-10-28T12:42:41Z</time>
      </trkpt>
      <trkpt lat="44.42584" lon="3.73954">
        <ele>1702.8</ele>
        <time>2022-10-28T12:42:42Z</time>
      </trkpt>
      <trkpt lat="44.42583" lon="3.73957">
        <ele>1702.6</ele>
        <time>2022-10-28T12:42:43Z</time>
      </trkpt>
      <trkpt lat="44.42583" lon="3.73958">
        <ele>1702.6</ele>
        <time>2022-10-28T12:42:44Z</time>
      </trkpt>
      <trkpt lat="44.42583" lon="3.7396">
        <ele>1702.4</ele>
        <time>2022-10-28T12:42:45Z</time>
      </trkpt>
      <trkpt lat="44.42583" lon="3.7396">
        <ele>1702.2</ele>
        <time>2022-10-28T12:42:46Z</time>
      </trkpt>
      <trkpt lat="44.42583" lon="3.73961">
        <ele>1702.2</ele>
        <time>2022-10-28T12:42:47Z</time>
      </trkpt>
      <trkpt lat="44.42583" lon="3.73961">
        <ele>1702</ele>
        <time>2022-10-28T12:42:48Z</time>
      </trkpt>
      <trkpt lat="44.42583" lon="3.73961">
        <ele>1702</ele>
        <time>2022-10-28T12:42:49Z</time>
      </trkpt>
      <trkpt lat="44.42583" lon="3.7396">
        <ele>1702</ele>
        <time>2022-10-28T12:42:50Z</time>
      </trkpt>
      <trkpt lat="44.42582" lon="3.7396">
        <ele>1702.2</ele>
        <time>2022-10-28T12:42:51Z</time>
      </trkpt>
      <trkpt lat="44.42575" lon="3.73969">
        <ele>1702.2</ele>
        <time>2022-10-28T12:58:53Z</time>
      </trkpt>
      <trkpt lat="44.42574" lon="3.73971">
        <ele>1702.2</ele>
        <time>2022-10-28T12:58:54Z</time>
      </trkpt>
      <trkpt lat="44.42573" lon="3.73973">
        <ele>1702</ele>
        <time>2022-10-28T12:58:55Z</time>
      </trkpt>
      <trkpt lat="44.42572" lon="3.73974">
        <ele>1702</ele>
        <time>2022-10-28T12:58:56Z</time>
      </trkpt>
      <trkpt lat="44.42571" lon="3.73976">
        <ele>1702</ele>
        <time>2022-10-28T12:58:57Z</time>
      </trkpt>
      <trkpt lat="44.42569" lon="3.73978">
        <ele>1701.8</ele>
        <time>2022-10-28T12:58:58Z</time>
      </trkpt>
      <trkpt lat="44.42568" lon="3.7398">
        <ele>1701.8</ele>
        <time>2022-10-28T12:58:59Z</time>
      </trkpt>
      <trkpt lat="44.42567" lon="3.73982">
        <ele>1701.8</ele>
        <time>2022-10-28T12:59:00Z</time>
      </trkpt>
      <trkpt lat="44.42566" lon="3.73984">
        <ele>1701.8</ele>
        <time>2022-10-28T12:59:01Z</time>
      </trkpt>
      <trkpt lat="44.42565" lon="3.73986">
        <ele>1701.6</ele>
        <time>2022-10-28T12:59:02Z</time>
      </trkpt>
      <trkpt lat="44.42564" lon="3.73988">
        <ele>1701.6</ele>
        <time>2022-10-28T12:59:03Z</time>
      </trkpt>
      <trkpt lat="44.42563" lon="3.7399">
        <ele>1701.4</ele>
        <time>2022-10-28T12:59:04Z</time>
      </trkpt>
      <trkpt lat="44.42562" lon="3.73992">
        <ele>1701.4</ele>
        <time>2022-10-28T12:59:05Z</time>
      </trkpt>
      <trkpt lat="44.42561" lon="3.73994">
        <ele>1701.4</ele>
        <time>2022-10-28T12:59:06Z</time>
      </trkpt>
      <trkpt lat="44.4256" lon="3.73995">
        <ele>1701.2</ele>
        <time>2022-10-28T12:59:07Z</time>
      </trkpt>
      <trkpt lat="44.42558" lon="3.73997">
        <ele>1701.2</ele>
        <time>2022-10-28T12:59:08Z</time>
      </trkpt>
      <trkpt lat="44.42557" lon="3.73999">
        <ele>1701.2</ele>
        <time>2022-10-28T12:59:09Z</time>
      </trkpt>
      <trkpt lat="44.42556" lon="3.74">
        <ele>1701.2</ele>
        <time>2022-10-28T12:59:10Z</time>
      </trkpt>
      <trkpt lat="44.42555" lon="3.74002">
        <ele>1701.2</ele>
        <time>2022-10-28T12:59:11Z</time>
      </trkpt>
      <trkpt lat="44.42554" lon="3.74003">
        <ele>1701</ele>
        <time>2022-10-28T12:59:12Z</time>
      </trkpt>
      <trkpt lat="44.42553" lon="3.74005">
        <ele>1700.8</ele>
        <time>2022-10-28T12:59:13Z</time>
      </trkpt>
      <trkpt lat="44.42553" lon="3.74005">
        <ele>1700.6</ele>
        <time>2022-10-28T12:59:14Z</time>
      </trkpt>
      <trkpt lat="44.42553" lon="3.74005">
        <ele>1700.6</ele>
        <time>2022-10-28T12:59:15Z</time>
      </trkpt>
      <trkpt lat="44.42553" lon="3.74005">
        <ele>1700.6</ele>
        <time>2022-10-28T12:59:16Z</time>
      </trkpt>
      <trkpt lat="44.42553" lon="3.74005">
        <ele>1700.6</ele>
        <time>2022-10-28T12:59:17Z</time>
      </trkpt>
      <trkpt lat="44.42553" lon="3.74005">
        <ele>1700.4</ele>
        <time>2022-10-28T12:59:18Z</time>
      </trkpt>
      <trkpt lat="44.42553" lon="3.74005">
        <ele>1700.4</ele>
        <time>2022-10-28T12:59:19Z</time>
      </trkpt>
      <trkpt lat="44.42555" lon="3.74006">
        <ele>1700.2</ele>
        <time>2022-10-28T12:59:38Z</time>
      </trkpt>
      <trkpt lat="44.42555" lon="3.74008">
        <ele>1700.2</ele>
        <time>2022-10-28T12:59:39Z</time>
      </trkpt>
      <trkpt lat="44.42555" lon="3.7401">
        <ele>1700.2</ele>
        <time>2022-10-28T12:59:40Z</time>
      </trkpt>
      <trkpt lat="44.42556" lon="3.74011">
        <ele>1700.2</ele>
        <time>2022-10-28T12:59:41Z</time>
      </trkpt>
      <trkpt lat="44.42556" lon="3.74012">
        <ele>1700</ele>
        <time>2022-10-28T12:59:42Z</time>
      </trkpt>
      <trkpt lat="44.42556" lon="3.74014">
        <ele>1700</ele>
        <time>2022-10-28T12:59:43Z</time>
      </trkpt>
      <trkpt lat="44.42556" lon="3.74015">
        <ele>1700</ele>
        <time>2022-10-28T12:59:44Z</time>
      </trkpt>
      <trkpt lat="44.42556" lon="3.74017">
        <ele>1700.2</ele>
        <time>2022-10-28T12:59:45Z</time>
      </trkpt>
      <trkpt lat="44.42555" lon="3.74019">
        <ele>1700</ele>
        <time>2022-10-28T12:59:46Z</time>
      </trkpt>
      <trkpt lat="44.42555" lon="3.74021">
        <ele>1699.8</ele>
        <time>2022-10-28T12:59:47Z</time>
      </trkpt>
      <trkpt lat="44.42555" lon="3.74023">
        <ele>1699.6</ele>
        <time>2022-10-28T12:59:48Z</time>
      </trkpt>
      <trkpt lat="44.42555" lon="3.74025">
        <ele>1699.6</ele>
        <time>2022-10-28T12:59:49Z</time>
      </trkpt>
      <trkpt lat="44.42554" lon="3.74026">
        <ele>1699.4</ele>
        <time>2022-10-28T12:59:50Z</time>
      </trkpt>
      <trkpt lat="44.42554" lon="3.74028">
        <ele>1699.2</ele>
        <time>2022-10-28T12:59:51Z</time>
      </trkpt>
      <trkpt lat="44.42554" lon="3.74029">
        <ele>1699.2</ele>
        <time>2022-10-28T12:59:52Z</time>
      </trkpt>
      <trkpt lat="44.42554" lon="3.74029">
        <ele>1699</ele>
        <time>2022-10-28T12:59:53Z</time>
      </trkpt>
      <trkpt lat="44.42554" lon="3.74029">
        <ele>1699</ele>
        <time>2022-10-28T12:59:54Z</time>
      </trkpt>
      <trkpt lat="44.42554" lon="3.74029">
        <ele>1699</ele>
        <time>2022-10-28T12:59:55Z</time>
      </trkpt>
      <trkpt lat="44.42554" lon="3.74029">
        <ele>1699</ele>
        <time>2022-10-28T12:59:56Z</time>
      </trkpt>
      <trkpt lat="44.42554" lon="3.74029">
        <ele>1699</ele>
        <time>2022-10-28T12:59:57Z</time>
      </trkpt>
      <trkpt lat="44.42554" lon="3.74029">
        <ele>1698.8</ele>
        <time>2022-10-28T12:59:58Z</time>
      </trkpt>
      <trkpt lat="44.42552" lon="3.7403">
        <ele>1699</ele>
        <time>2022-10-28T13:00:19Z</time>
      </trkpt>
      <trkpt lat="44.42551" lon="3.74033">
        <ele>1698.8</ele>
        <time>2022-10-28T13:00:20Z</time>
      </trkpt>
      <trkpt lat="44.4255" lon="3.74037">
        <ele>1698.6</ele>
        <time>2022-10-28T13:00:21Z</time>
      </trkpt>
      <trkpt lat="44.42549" lon="3.74042">
        <ele>1698.4</ele>
        <time>2022-10-28T13:00:22Z</time>
      </trkpt>
      <trkpt lat="44.42549" lon="3.74046">
        <ele>1698.2</ele>
        <time>2022-10-28T13:00:23Z</time>
      </trkpt>
      <trkpt lat="44.42548" lon="3.74049">
        <ele>1698</ele>
        <time>2022-10-28T13:00:24Z</time>
      </trkpt>
      <trkpt lat="44.42548" lon="3.74052">
        <ele>1697.6</ele>
        <time>2022-10-28T13:00:25Z</time>
      </trkpt>
      <trkpt lat="44.42547" lon="3.74055">
        <ele>1697.6</ele>
        <time>2022-10-28T13:00:26Z</time>
      </trkpt>
      <trkpt lat="44.42546" lon="3.74058">
        <ele>1697.4</ele>
        <time>2022-10-28T13:00:27Z</time>
      </trkpt>
      <trkpt lat="44.42545" lon="3.74061">
        <ele>1697.2</ele>
        <time>2022-10-28T13:00:28Z</time>
      </trkpt>
      <trkpt lat="44.42543" lon="3.74065">
        <ele>1696.8</ele>
        <time>2022-10-28T13:00:29Z</time>
      </trkpt>
      <trkpt lat="44.42542" lon="3.74067">
        <ele>1696.6</ele>
        <time>2022-10-28T13:00:30Z</time>
      </trkpt>
      <trkpt lat="44.42541" lon="3.74069">
        <ele>1696.2</ele>
        <time>2022-10-28T13:00:31Z</time>
      </trkpt>
      <trkpt lat="44.42541" lon="3.7407">
        <ele>1696</ele>
        <time>2022-10-28T13:00:32Z</time>
      </trkpt>
      <trkpt lat="44.42541" lon="3.7407">
        <ele>1695.8</ele>
        <time>2022-10-28T13:00:33Z</time>
      </trkpt>
      <trkpt lat="44.42541" lon="3.7407">
        <ele>1695.6</ele>
        <time>2022-10-28T13:00:34Z</time>
      </trkpt>
      <trkpt lat="44.42541" lon="3.74069">
        <ele>1695.4</ele>
        <time>2022-10-28T13:00:35Z</time>
      </trkpt>
      <trkpt lat="44.42542" lon="3.74068">
        <ele>1695.4</ele>
        <time>2022-10-28T13:00:36Z</time>
      </trkpt>
      <trkpt lat="44.42542" lon="3.74067">
        <ele>1695.4</ele>
        <time>2022-10-28T13:00:37Z</time>
      </trkpt>
      <trkpt lat="44.42542" lon="3.74066">
        <ele>1695.6</ele>
        <time>2022-10-28T13:00:38Z</time>
      </trkpt>
      <trkpt lat="44.42543" lon="3.74064">
        <ele>1695.6</ele>
        <time>2022-10-28T13:00:39Z</time>
      </trkpt>
      <trkpt lat="44.42544" lon="3.74063">
        <ele>1695.6</ele>
        <time>2022-10-28T13:00:40Z</time>
      </trkpt>
      <trkpt lat="44.42544" lon="3.74062">
        <ele>1695.8</ele>
        <time>2022-10-28T13:00:41Z</time>
      </trkpt>
      <trkpt lat="44.42544" lon="3.74061">
        <ele>1695.8</ele>
        <time>2022-10-28T13:00:42Z</time>
      </trkpt>
      <trkpt lat="44.42545" lon="3.74061">
        <ele>1695.8</ele>
        <time>2022-10-28T13:00:43Z</time>
      </trkpt>
      <trkpt lat="44.42545" lon="3.7406">
        <ele>1695.8</ele>
        <time>2022-10-28T13:00:44Z</time>
      </trkpt>
      <trkpt lat="44.42545" lon="3.7406">
        <ele>1695.8</ele>
        <time>2022-10-28T13:00:45Z</time>
      </trkpt>
      <trkpt lat="44.42545" lon="3.7406">
        <ele>1695.6</ele>
        <time>2022-10-28T13:00:46Z</time>
      </trkpt>
      <trkpt lat="44.42545" lon="3.7406">
        <ele>1695.6</ele>
        <time>2022-10-28T13:00:47Z</time>
      </trkpt>
      <trkpt lat="44.42545" lon="3.7406">
        <ele>1695.6</ele>
        <time>2022-10-28T13:00:48Z</time>
      </trkpt>
      <trkpt lat="44.42545" lon="3.7406">
        <ele>1695.4</ele>
        <time>2022-10-28T13:00:49Z</time>
      </trkpt>
      <trkpt lat="44.42543" lon="3.74065">
        <ele>1695.4</ele>
        <time>2022-10-28T13:01:41Z</time>
      </trkpt>
      <trkpt lat="44.42542" lon="3.74068">
        <ele>1695.4</ele>
        <time>2022-10-28T13:01:42Z</time>
      </trkpt>
      <trkpt lat="44.42541" lon="3.74073">
        <ele>1695.2</ele>
        <time>2022-10-28T13:01:43Z</time>
      </trkpt>
      <trkpt lat="44.42539" lon="3.74077">
        <ele>1695.2</ele>
        <time>2022-10-28T13:01:44Z</time>
      </trkpt>
      <trkpt lat="44.42539" lon="3.74079">
        <ele>1694.8</ele>
        <time>2022-10-28T13:01:45Z</time>
      </trkpt>
      <trkpt lat="44.42537" lon="3.74082">
        <ele>1694.8</ele>
        <time>2022-10-28T13:01:46Z</time>
      </trkpt>
      <trkpt lat="44.42537" lon="3.74085">
        <ele>1694.8</ele>
        <time>2022-10-28T13:01:47Z</time>
      </trkpt>
      <trkpt lat="44.42536" lon="3.74088">
        <ele>1694.4</ele>
        <time>2022-10-28T13:01:48Z</time>
      </trkpt>
      <trkpt lat="44.42535" lon="3.74091">
        <ele>1694.4</ele>
        <time>2022-10-28T13:01:49Z</time>
      </trkpt>
      <trkpt lat="44.42534" lon="3.74094">
        <ele>1694.2</ele>
        <time>2022-10-28T13:01:50Z</time>
      </trkpt>
      <trkpt lat="44.42533" lon="3.74098">
        <ele>1694</ele>
        <time>2022-10-28T13:01:51Z</time>
      </trkpt>
      <trkpt lat="44.42532" lon="3.74102">
        <ele>1693.6</ele>
        <time>2022-10-28T13:01:52Z</time>
      </trkpt>
      <trkpt lat="44.42532" lon="3.74107">
        <ele>1693.2</ele>
        <time>2022-10-28T13:01:53Z</time>
      </trkpt>
      <trkpt lat="44.42531" lon="3.74112">
        <ele>1692.8</ele>
        <time>2022-10-28T13:01:54Z</time>
      </trkpt>
      <trkpt lat="44.42529" lon="3.74117">
        <ele>1692.4</ele>
        <time>2022-10-28T13:01:55Z</time>
      </trkpt>
      <trkpt lat="44.42528" lon="3.74122">
        <ele>1692</ele>
        <time>2022-10-28T13:01:56Z</time>
      </trkpt>
      <trkpt lat="44.42528" lon="3.74126">
        <ele>1691.4</ele>
        <time>2022-10-28T13:01:57Z</time>
      </trkpt>
      <trkpt lat="44.42527" lon="3.74131">
        <ele>1691</ele>
        <time>2022-10-28T13:01:58Z</time>
      </trkpt>
      <trkpt lat="44.42526" lon="3.74135">
        <ele>1690.6</ele>
        <time>2022-10-28T13:01:59Z</time>
      </trkpt>
      <trkpt lat="44.42525" lon="3.74138">
        <ele>1690.2</ele>
        <time>2022-10-28T13:02:00Z</time>
      </trkpt>
      <trkpt lat="44.42524" lon="3.74143">
        <ele>1689.8</ele>
        <time>2022-10-28T13:02:01Z</time>
      </trkpt>
      <trkpt lat="44.42523" lon="3.74147">
        <ele>1689.4</ele>
        <time>2022-10-28T13:02:02Z</time>
      </trkpt>
      <trkpt lat="44.42522" lon="3.74152">
        <ele>1689</ele>
        <time>2022-10-28T13:02:03Z</time>
      </trkpt>
      <trkpt lat="44.42521" lon="3.74156">
        <ele>1688.6</ele>
        <time>2022-10-28T13:02:04Z</time>
      </trkpt>
      <trkpt lat="44.42519" lon="3.74161">
        <ele>1688.2</ele>
        <time>2022-10-28T13:02:05Z</time>
      </trkpt>
      <trkpt lat="44.42518" lon="3.74165">
        <ele>1687.8</ele>
        <time>2022-10-28T13:02:06Z</time>
      </trkpt>
      <trkpt lat="44.42517" lon="3.74169">
        <ele>1687.2</ele>
        <time>2022-10-28T13:02:07Z</time>
      </trkpt>
      <trkpt lat="44.42517" lon="3.74174">
        <ele>1686.8</ele>
        <time>2022-10-28T13:02:08Z</time>
      </trkpt>
      <trkpt lat="44.42516" lon="3.74179">
        <ele>1686.2</ele>
        <time>2022-10-28T13:02:09Z</time>
      </trkpt>
      <trkpt lat="44.42515" lon="3.74183">
        <ele>1685.8</ele>
        <time>2022-10-28T13:02:10Z</time>
      </trkpt>
      <trkpt lat="44.42514" lon="3.74187">
        <ele>1685.2</ele>
        <time>2022-10-28T13:02:11Z</time>
      </trkpt>
      <trkpt lat="44.42514" lon="3.74192">
        <ele>1684.8</ele>
        <time>2022-10-28T13:02:12Z</time>
      </trkpt>
      <trkpt lat="44.42513" lon="3.74196">
        <ele>1684.4</ele>
        <time>2022-10-28T13:02:13Z</time>
      </trkpt>
      <trkpt lat="44.42512" lon="3.742">
        <ele>1683.8</ele>
        <time>2022-10-28T13:02:14Z</time>
      </trkpt>
      <trkpt lat="44.42512" lon="3.74204">
        <ele>1683.4</ele>
        <time>2022-10-28T13:02:15Z</time>
      </trkpt>
      <trkpt lat="44.42511" lon="3.74209">
        <ele>1682.8</ele>
        <time>2022-10-28T13:02:16Z</time>
      </trkpt>
      <trkpt lat="44.42511" lon="3.74213">
        <ele>1682.2</ele>
        <time>2022-10-28T13:02:17Z</time>
      </trkpt>
      <trkpt lat="44.4251" lon="3.74217">
        <ele>1681.6</ele>
        <time>2022-10-28T13:02:18Z</time>
      </trkpt>
      <trkpt lat="44.42509" lon="3.74221">
        <ele>1681.2</ele>
        <time>2022-10-28T13:02:19Z</time>
      </trkpt>
      <trkpt lat="44.42509" lon="3.74225">
        <ele>1680.6</ele>
        <time>2022-10-28T13:02:20Z</time>
      </trkpt>
      <trkpt lat="44.42508" lon="3.7423">
        <ele>1680.2</ele>
        <time>2022-10-28T13:02:21Z</time>
      </trkpt>
      <trkpt lat="44.42508" lon="3.74234">
        <ele>1679.6</ele>
        <time>2022-10-28T13:02:22Z</time>
      </trkpt>
      <trkpt lat="44.42507" lon="3.74238">
        <ele>1679</ele>
        <time>2022-10-28T13:02:23Z</time>
      </trkpt>
      <trkpt lat="44.42506" lon="3.74242">
        <ele>1678.6</ele>
        <time>2022-10-28T13:02:24Z</time>
      </trkpt>
      <trkpt lat="44.42506" lon="3.74247">
        <ele>1677.8</ele>
        <time>2022-10-28T13:02:25Z</time>
      </trkpt>
      <trkpt lat="44.42506" lon="3.74251">
        <ele>1677.4</ele>
        <time>2022-10-28T13:02:26Z</time>
      </trkpt>
      <trkpt lat="44.42505" lon="3.74255">
        <ele>1676.8</ele>
        <time>2022-10-28T13:02:27Z</time>
      </trkpt>
      <trkpt lat="44.42504" lon="3.74259">
        <ele>1676.2</ele>
        <time>2022-10-28T13:02:28Z</time>
      </trkpt>
      <trkpt lat="44.42504" lon="3.74263">
        <ele>1675.6</ele>
        <time>2022-10-28T13:02:29Z</time>
      </trkpt>
      <trkpt lat="44.42503" lon="3.74268">
        <ele>1675</ele>
        <time>2022-10-28T13:02:30Z</time>
      </trkpt>
      <trkpt lat="44.42502" lon="3.74272">
        <ele>1674.4</ele>
        <time>2022-10-28T13:02:31Z</time>
      </trkpt>
      <trkpt lat="44.42502" lon="3.74276">
        <ele>1674</ele>
        <time>2022-10-28T13:02:32Z</time>
      </trkpt>
      <trkpt lat="44.42501" lon="3.74281">
        <ele>1673.6</ele>
        <time>2022-10-28T13:02:33Z</time>
      </trkpt>
      <trkpt lat="44.425" lon="3.74286">
        <ele>1673</ele>
        <time>2022-10-28T13:02:34Z</time>
      </trkpt>
      <trkpt lat="44.425" lon="3.74291">
        <ele>1672.4</ele>
        <time>2022-10-28T13:02:35Z</time>
      </trkpt>
      <trkpt lat="44.42499" lon="3.74297">
        <ele>1671.8</ele>
        <time>2022-10-28T13:02:36Z</time>
      </trkpt>
      <trkpt lat="44.42499" lon="3.74303">
        <ele>1671.2</ele>
        <time>2022-10-28T13:02:37Z</time>
      </trkpt>
      <trkpt lat="44.42499" lon="3.74308">
        <ele>1670.8</ele>
        <time>2022-10-28T13:02:38Z</time>
      </trkpt>
      <trkpt lat="44.42499" lon="3.74313">
        <ele>1670.2</ele>
        <time>2022-10-28T13:02:39Z</time>
      </trkpt>
      <trkpt lat="44.42499" lon="3.74318">
        <ele>1669.8</ele>
        <time>2022-10-28T13:02:40Z</time>
      </trkpt>
      <trkpt lat="44.42498" lon="3.74323">
        <ele>1669.4</ele>
        <time>2022-10-28T13:02:41Z</time>
      </trkpt>
      <trkpt lat="44.42498" lon="3.74329">
        <ele>1669</ele>
        <time>2022-10-28T13:02:42Z</time>
      </trkpt>
      <trkpt lat="44.42498" lon="3.74334">
        <ele>1668.6</ele>
        <time>2022-10-28T13:02:43Z</time>
      </trkpt>
      <trkpt lat="44.42498" lon="3.7434">
        <ele>1668.4</ele>
        <time>2022-10-28T13:02:44Z</time>
      </trkpt>
      <trkpt lat="44.42498" lon="3.74345">
        <ele>1668.2</ele>
        <time>2022-10-28T13:02:45Z</time>
      </trkpt>
      <trkpt lat="44.42497" lon="3.74351">
        <ele>1668</ele>
        <time>2022-10-28T13:02:46Z</time>
      </trkpt>
      <trkpt lat="44.42496" lon="3.74356">
        <ele>1667.6</ele>
        <time>2022-10-28T13:02:47Z</time>
      </trkpt>
      <trkpt lat="44.42496" lon="3.74362">
        <ele>1667.2</ele>
        <time>2022-10-28T13:02:48Z</time>
      </trkpt>
      <trkpt lat="44.42495" lon="3.74368">
        <ele>1666.8</ele>
        <time>2022-10-28T13:02:49Z</time>
      </trkpt>
      <trkpt lat="44.42495" lon="3.74372">
        <ele>1666.4</ele>
        <time>2022-10-28T13:02:50Z</time>
      </trkpt>
      <trkpt lat="44.42495" lon="3.74377">
        <ele>1666</ele>
        <time>2022-10-28T13:02:51Z</time>
      </trkpt>
      <trkpt lat="44.42494" lon="3.7438">
        <ele>1665.8</ele>
        <time>2022-10-28T13:02:52Z</time>
      </trkpt>
      <trkpt lat="44.42494" lon="3.74383">
        <ele>1665.4</ele>
        <time>2022-10-28T13:02:53Z</time>
      </trkpt>
      <trkpt lat="44.42494" lon="3.74386">
        <ele>1665.2</ele>
        <time>2022-10-28T13:02:54Z</time>
      </trkpt>
      <trkpt lat="44.42493" lon="3.74388">
        <ele>1664.8</ele>
        <time>2022-10-28T13:02:55Z</time>
      </trkpt>
      <trkpt lat="44.42492" lon="3.7439">
        <ele>1664.6</ele>
        <time>2022-10-28T13:02:56Z</time>
      </trkpt>
      <trkpt lat="44.42492" lon="3.74391">
        <ele>1664.4</ele>
        <time>2022-10-28T13:02:57Z</time>
      </trkpt>
      <trkpt lat="44.42492" lon="3.74391">
        <ele>1664.2</ele>
        <time>2022-10-28T13:02:58Z</time>
      </trkpt>
      <trkpt lat="44.42491" lon="3.74393">
        <ele>1663.8</ele>
        <time>2022-10-28T13:03:01Z</time>
      </trkpt>
      <trkpt lat="44.4249" lon="3.74396">
        <ele>1663.8</ele>
        <time>2022-10-28T13:03:02Z</time>
      </trkpt>
      <trkpt lat="44.4249" lon="3.74399">
        <ele>1663.6</ele>
        <time>2022-10-28T13:03:03Z</time>
      </trkpt>
      <trkpt lat="44.42489" lon="3.74401">
        <ele>1663.6</ele>
        <time>2022-10-28T13:03:04Z</time>
      </trkpt>
      <trkpt lat="44.42489" lon="3.74404">
        <ele>1663.6</ele>
        <time>2022-10-28T13:03:05Z</time>
      </trkpt>
      <trkpt lat="44.4249" lon="3.74407">
        <ele>1663.4</ele>
        <time>2022-10-28T13:03:06Z</time>
      </trkpt>
      <trkpt lat="44.4249" lon="3.7441">
        <ele>1663.4</ele>
        <time>2022-10-28T13:03:07Z</time>
      </trkpt>
      <trkpt lat="44.4249" lon="3.74413">
        <ele>1663.4</ele>
        <time>2022-10-28T13:03:08Z</time>
      </trkpt>
      <trkpt lat="44.4249" lon="3.74416">
        <ele>1663.4</ele>
        <time>2022-10-28T13:03:09Z</time>
      </trkpt>
      <trkpt lat="44.4249" lon="3.74419">
        <ele>1663.2</ele>
        <time>2022-10-28T13:03:10Z</time>
      </trkpt>
      <trkpt lat="44.4249" lon="3.74422">
        <ele>1663.2</ele>
        <time>2022-10-28T13:03:11Z</time>
      </trkpt>
      <trkpt lat="44.4249" lon="3.74424">
        <ele>1663.2</ele>
        <time>2022-10-28T13:03:12Z</time>
      </trkpt>
      <trkpt lat="44.4249" lon="3.74427">
        <ele>1663.2</ele>
        <time>2022-10-28T13:03:13Z</time>
      </trkpt>
      <trkpt lat="44.4249" lon="3.74429">
        <ele>1663.2</ele>
        <time>2022-10-28T13:03:14Z</time>
      </trkpt>
      <trkpt lat="44.4249" lon="3.7443">
        <ele>1663.2</ele>
        <time>2022-10-28T13:03:15Z</time>
      </trkpt>
      <trkpt lat="44.4249" lon="3.7443">
        <ele>1663</ele>
        <time>2022-10-28T13:03:16Z</time>
      </trkpt>
      <trkpt lat="44.4249" lon="3.7443">
        <ele>1663</ele>
        <time>2022-10-28T13:03:17Z</time>
      </trkpt>
      <trkpt lat="44.4249" lon="3.7443">
        <ele>1663</ele>
        <time>2022-10-28T13:03:18Z</time>
      </trkpt>
      <trkpt lat="44.4249" lon="3.7443">
        <ele>1663</ele>
        <time>2022-10-28T13:03:19Z</time>
      </trkpt>
      <trkpt lat="44.4249" lon="3.7443">
        <ele>1663.2</ele>
        <time>2022-10-28T13:03:20Z</time>
      </trkpt>
      <trkpt lat="44.4249" lon="3.7443">
        <ele>1663.2</ele>
        <time>2022-10-28T13:03:21Z</time>
      </trkpt>
      <trkpt lat="44.4249" lon="3.74431">
        <ele>1663.2</ele>
        <time>2022-10-28T13:03:46Z</time>
      </trkpt>
      <trkpt lat="44.4249" lon="3.74434">
        <ele>1663.2</ele>
        <time>2022-10-28T13:03:47Z</time>
      </trkpt>
      <trkpt lat="44.4249" lon="3.74439">
        <ele>1663</ele>
        <time>2022-10-28T13:03:48Z</time>
      </trkpt>
      <trkpt lat="44.4249" lon="3.74443">
        <ele>1663</ele>
        <time>2022-10-28T13:03:49Z</time>
      </trkpt>
      <trkpt lat="44.42489" lon="3.74448">
        <ele>1663</ele>
        <time>2022-10-28T13:03:50Z</time>
      </trkpt>
      <trkpt lat="44.42489" lon="3.74452">
        <ele>1662.8</ele>
        <time>2022-10-28T13:03:51Z</time>
      </trkpt>
      <trkpt lat="44.42489" lon="3.74457">
        <ele>1662.8</ele>
        <time>2022-10-28T13:03:52Z</time>
      </trkpt>
      <trkpt lat="44.42489" lon="3.74461">
        <ele>1662.8</ele>
        <time>2022-10-28T13:03:53Z</time>
      </trkpt>
      <trkpt lat="44.42489" lon="3.74465">
        <ele>1662.8</ele>
        <time>2022-10-28T13:03:54Z</time>
      </trkpt>
      <trkpt lat="44.42489" lon="3.74469">
        <ele>1662.6</ele>
        <time>2022-10-28T13:03:55Z</time>
      </trkpt>
      <trkpt lat="44.42488" lon="3.74471">
        <ele>1662.6</ele>
        <time>2022-10-28T13:03:56Z</time>
      </trkpt>
      <trkpt lat="44.42488" lon="3.74472">
        <ele>1662.6</ele>
        <time>2022-10-28T13:03:57Z</time>
      </trkpt>
      <trkpt lat="44.42487" lon="3.74471">
        <ele>1662.4</ele>
        <time>2022-10-28T13:03:58Z</time>
      </trkpt>
      <trkpt lat="44.42487" lon="3.74469">
        <ele>1662.4</ele>
        <time>2022-10-28T13:03:59Z</time>
      </trkpt>
      <trkpt lat="44.42488" lon="3.74467">
        <ele>1662.6</ele>
        <time>2022-10-28T13:04:00Z</time>
      </trkpt>
      <trkpt lat="44.42488" lon="3.74465">
        <ele>1662.6</ele>
        <time>2022-10-28T13:04:01Z</time>
      </trkpt>
      <trkpt lat="44.42488" lon="3.74462">
        <ele>1662.6</ele>
        <time>2022-10-28T13:04:02Z</time>
      </trkpt>
      <trkpt lat="44.42489" lon="3.74458">
        <ele>1662.6</ele>
        <time>2022-10-28T13:04:03Z</time>
      </trkpt>
      <trkpt lat="44.42489" lon="3.74455">
        <ele>1662.6</ele>
        <time>2022-10-28T13:04:04Z</time>
      </trkpt>
      <trkpt lat="44.42489" lon="3.74452">
        <ele>1662.6</ele>
        <time>2022-10-28T13:04:05Z</time>
      </trkpt>
      <trkpt lat="44.4249" lon="3.74449">
        <ele>1662.6</ele>
        <time>2022-10-28T13:04:06Z</time>
      </trkpt>
      <trkpt lat="44.4249" lon="3.74445">
        <ele>1662.6</ele>
        <time>2022-10-28T13:04:07Z</time>
      </trkpt>
      <trkpt lat="44.42491" lon="3.74442">
        <ele>1662.8</ele>
        <time>2022-10-28T13:04:08Z</time>
      </trkpt>
      <trkpt lat="44.42491" lon="3.74438">
        <ele>1662.8</ele>
        <time>2022-10-28T13:04:09Z</time>
      </trkpt>
      <trkpt lat="44.42492" lon="3.74434">
        <ele>1663</ele>
        <time>2022-10-28T13:04:10Z</time>
      </trkpt>
      <trkpt lat="44.42492" lon="3.74429">
        <ele>1663</ele>
        <time>2022-10-28T13:04:11Z</time>
      </trkpt>
      <trkpt lat="44.42492" lon="3.74425">
        <ele>1663</ele>
        <time>2022-10-28T13:04:12Z</time>
      </trkpt>
      <trkpt lat="44.42493" lon="3.7442">
        <ele>1663</ele>
        <time>2022-10-28T13:04:13Z</time>
      </trkpt>
      <trkpt lat="44.42493" lon="3.74415">
        <ele>1663</ele>
        <time>2022-10-28T13:04:14Z</time>
      </trkpt>
      <trkpt lat="44.42492" lon="3.74411">
        <ele>1663.2</ele>
        <time>2022-10-28T13:04:15Z</time>
      </trkpt>
      <trkpt lat="44.42491" lon="3.74406">
        <ele>1663.2</ele>
        <time>2022-10-28T13:04:16Z</time>
      </trkpt>
      <trkpt lat="44.4249" lon="3.74402">
        <ele>1663.2</ele>
        <time>2022-10-28T13:04:17Z</time>
      </trkpt>
      <trkpt lat="44.4249" lon="3.744">
        <ele>1663.2</ele>
        <time>2022-10-28T13:04:18Z</time>
      </trkpt>
      <trkpt lat="44.4249" lon="3.74399">
        <ele>1663.2</ele>
        <time>2022-10-28T13:04:19Z</time>
      </trkpt>
      <trkpt lat="44.42491" lon="3.74399">
        <ele>1663.2</ele>
        <time>2022-10-28T13:04:20Z</time>
      </trkpt>
      <trkpt lat="44.42491" lon="3.74401">
        <ele>1663.2</ele>
        <time>2022-10-28T13:04:21Z</time>
      </trkpt>
      <trkpt lat="44.42491" lon="3.74403">
        <ele>1663.4</ele>
        <time>2022-10-28T13:04:22Z</time>
      </trkpt>
      <trkpt lat="44.42491" lon="3.74406">
        <ele>1663.2</ele>
        <time>2022-10-28T13:04:23Z</time>
      </trkpt>
      <trkpt lat="44.42491" lon="3.7441">
        <ele>1663.2</ele>
        <time>2022-10-28T13:04:24Z</time>
      </trkpt>
      <trkpt lat="44.42491" lon="3.74415">
        <ele>1663.2</ele>
        <time>2022-10-28T13:04:25Z</time>
      </trkpt>
      <trkpt lat="44.42491" lon="3.7442">
        <ele>1663.4</ele>
        <time>2022-10-28T13:04:26Z</time>
      </trkpt>
      <trkpt lat="44.42491" lon="3.74425">
        <ele>1663.6</ele>
        <time>2022-10-28T13:04:27Z</time>
      </trkpt>
      <trkpt lat="44.42491" lon="3.74431">
        <ele>1663.6</ele>
        <time>2022-10-28T13:04:28Z</time>
      </trkpt>
      <trkpt lat="44.42491" lon="3.74437">
        <ele>1663.6</ele>
        <time>2022-10-28T13:04:29Z</time>
      </trkpt>
      <trkpt lat="44.4249" lon="3.74443">
        <ele>1663.6</ele>
        <time>2022-10-28T13:04:30Z</time>
      </trkpt>
      <trkpt lat="44.4249" lon="3.74449">
        <ele>1663.6</ele>
        <time>2022-10-28T13:04:31Z</time>
      </trkpt>
      <trkpt lat="44.42489" lon="3.74454">
        <ele>1663.4</ele>
        <time>2022-10-28T13:04:32Z</time>
      </trkpt>
      <trkpt lat="44.42488" lon="3.7446">
        <ele>1663.4</ele>
        <time>2022-10-28T13:04:33Z</time>
      </trkpt>
      <trkpt lat="44.42488" lon="3.74465">
        <ele>1663.2</ele>
        <time>2022-10-28T13:04:34Z</time>
      </trkpt>
      <trkpt lat="44.42487" lon="3.74471">
        <ele>1663</ele>
        <time>2022-10-28T13:04:35Z</time>
      </trkpt>
      <trkpt lat="44.42487" lon="3.74475">
        <ele>1662.8</ele>
        <time>2022-10-28T13:04:36Z</time>
      </trkpt>
      <trkpt lat="44.42486" lon="3.74477">
        <ele>1662.6</ele>
        <time>2022-10-28T13:04:37Z</time>
      </trkpt>
      <trkpt lat="44.42486" lon="3.74478">
        <ele>1662.4</ele>
        <time>2022-10-28T13:04:38Z</time>
      </trkpt>
      <trkpt lat="44.42485" lon="3.74477">
        <ele>1662.4</ele>
        <time>2022-10-28T13:04:39Z</time>
      </trkpt>
      <trkpt lat="44.42485" lon="3.74475">
        <ele>1662.2</ele>
        <time>2022-10-28T13:04:40Z</time>
      </trkpt>
      <trkpt lat="44.42486" lon="3.74473">
        <ele>1662.2</ele>
        <time>2022-10-28T13:04:41Z</time>
      </trkpt>
      <trkpt lat="44.42487" lon="3.74471">
        <ele>1662.2</ele>
        <time>2022-10-28T13:04:42Z</time>
      </trkpt>
      <trkpt lat="44.42488" lon="3.74469">
        <ele>1662.4</ele>
        <time>2022-10-28T13:04:43Z</time>
      </trkpt>
      <trkpt lat="44.42488" lon="3.74466">
        <ele>1662.6</ele>
        <time>2022-10-28T13:04:44Z</time>
      </trkpt>
      <trkpt lat="44.42489" lon="3.74462">
        <ele>1662.8</ele>
        <time>2022-10-28T13:04:45Z</time>
      </trkpt>
      <trkpt lat="44.42489" lon="3.74459">
        <ele>1662.8</ele>
        <time>2022-10-28T13:04:46Z</time>
      </trkpt>
      <trkpt lat="44.42489" lon="3.74456">
        <ele>1662.8</ele>
        <time>2022-10-28T13:04:47Z</time>
      </trkpt>
      <trkpt lat="44.4249" lon="3.74452">
        <ele>1663</ele>
        <time>2022-10-28T13:04:48Z</time>
      </trkpt>
      <trkpt lat="44.4249" lon="3.74448">
        <ele>1663</ele>
        <time>2022-10-28T13:04:49Z</time>
      </trkpt>
      <trkpt lat="44.4249" lon="3.74445">
        <ele>1663</ele>
        <time>2022-10-28T13:04:50Z</time>
      </trkpt>
      <trkpt lat="44.4249" lon="3.74441">
        <ele>1663</ele>
        <time>2022-10-28T13:04:51Z</time>
      </trkpt>
      <trkpt lat="44.42491" lon="3.74438">
        <ele>1663</ele>
        <time>2022-10-28T13:04:52Z</time>
      </trkpt>
      <trkpt lat="44.42491" lon="3.74435">
        <ele>1663</ele>
        <time>2022-10-28T13:04:53Z</time>
      </trkpt>
      <trkpt lat="44.42491" lon="3.74433">
        <ele>1663</ele>
        <time>2022-10-28T13:04:54Z</time>
      </trkpt>
      <trkpt lat="44.42491" lon="3.74431">
        <ele>1663</ele>
        <time>2022-10-28T13:04:55Z</time>
      </trkpt>
      <trkpt lat="44.42491" lon="3.7443">
        <ele>1663</ele>
        <time>2022-10-28T13:04:56Z</time>
      </trkpt>
      <trkpt lat="44.42491" lon="3.7443">
        <ele>1663</ele>
        <time>2022-10-28T13:04:57Z</time>
      </trkpt>
      <trkpt lat="44.42491" lon="3.7443">
        <ele>1663</ele>
        <time>2022-10-28T13:04:58Z</time>
      </trkpt>
      <trkpt lat="44.42491" lon="3.7443">
        <ele>1663</ele>
        <time>2022-10-28T13:04:59Z</time>
      </trkpt>
      <trkpt lat="44.42491" lon="3.7443">
        <ele>1663</ele>
        <time>2022-10-28T13:05:00Z</time>
      </trkpt>
      <trkpt lat="44.42491" lon="3.7443">
        <ele>1663</ele>
        <time>2022-10-28T13:05:01Z</time>
      </trkpt>
      <trkpt lat="44.42492" lon="3.74439">
        <ele>1663</ele>
        <time>2022-10-28T13:05:09Z</time>
      </trkpt>
      <trkpt lat="44.42491" lon="3.74443">
        <ele>1663</ele>
        <time>2022-10-28T13:05:10Z</time>
      </trkpt>
      <trkpt lat="44.42491" lon="3.74447">
        <ele>1663.2</ele>
        <time>2022-10-28T13:05:11Z</time>
      </trkpt>
      <trkpt lat="44.4249" lon="3.74451">
        <ele>1663</ele>
        <time>2022-10-28T13:05:12Z</time>
      </trkpt>
      <trkpt lat="44.4249" lon="3.74456">
        <ele>1663</ele>
        <time>2022-10-28T13:05:13Z</time>
      </trkpt>
      <trkpt lat="44.42489" lon="3.74461">
        <ele>1663</ele>
        <time>2022-10-28T13:05:14Z</time>
      </trkpt>
      <trkpt lat="44.42489" lon="3.74465">
        <ele>1663</ele>
        <time>2022-10-28T13:05:15Z</time>
      </trkpt>
      <trkpt lat="44.42487" lon="3.7447">
        <ele>1663</ele>
        <time>2022-10-28T13:05:16Z</time>
      </trkpt>
      <trkpt lat="44.42486" lon="3.74474">
        <ele>1663</ele>
        <time>2022-10-28T13:05:17Z</time>
      </trkpt>
      <trkpt lat="44.42485" lon="3.74479">
        <ele>1663</ele>
        <time>2022-10-28T13:05:18Z</time>
      </trkpt>
      <trkpt lat="44.42483" lon="3.74484">
        <ele>1662.8</ele>
        <time>2022-10-28T13:05:19Z</time>
      </trkpt>
      <trkpt lat="44.42482" lon="3.74488">
        <ele>1662.8</ele>
        <time>2022-10-28T13:05:20Z</time>
      </trkpt>
      <trkpt lat="44.42481" lon="3.74493">
        <ele>1662.6</ele>
        <time>2022-10-28T13:05:21Z</time>
      </trkpt>
      <trkpt lat="44.42479" lon="3.74499">
        <ele>1662.4</ele>
        <time>2022-10-28T13:05:22Z</time>
      </trkpt>
      <trkpt lat="44.42477" lon="3.74504">
        <ele>1662.2</ele>
        <time>2022-10-28T13:05:23Z</time>
      </trkpt>
      <trkpt lat="44.42475" lon="3.7451">
        <ele>1662</ele>
        <time>2022-10-28T13:05:24Z</time>
      </trkpt>
      <trkpt lat="44.42473" lon="3.74516">
        <ele>1661.8</ele>
        <time>2022-10-28T13:05:25Z</time>
      </trkpt>
      <trkpt lat="44.42472" lon="3.74522">
        <ele>1661.6</ele>
        <time>2022-10-28T13:05:26Z</time>
      </trkpt>
      <trkpt lat="44.4247" lon="3.74528">
        <ele>1661.4</ele>
        <time>2022-10-28T13:05:27Z</time>
      </trkpt>
      <trkpt lat="44.42468" lon="3.74534">
        <ele>1661.2</ele>
        <time>2022-10-28T13:05:28Z</time>
      </trkpt>
      <trkpt lat="44.42467" lon="3.74539">
        <ele>1660.8</ele>
        <time>2022-10-28T13:05:29Z</time>
      </trkpt>
      <trkpt lat="44.42466" lon="3.74545">
        <ele>1660.6</ele>
        <time>2022-10-28T13:05:30Z</time>
      </trkpt>
      <trkpt lat="44.42465" lon="3.7455">
        <ele>1660.4</ele>
        <time>2022-10-28T13:05:31Z</time>
      </trkpt>
      <trkpt lat="44.42464" lon="3.74555">
        <ele>1660.4</ele>
        <time>2022-10-28T13:05:32Z</time>
      </trkpt>
      <trkpt lat="44.42462" lon="3.7456">
        <ele>1660.2</ele>
        <time>2022-10-28T13:05:33Z</time>
      </trkpt>
      <trkpt lat="44.42461" lon="3.74566">
        <ele>1660</ele>
        <time>2022-10-28T13:05:34Z</time>
      </trkpt>
      <trkpt lat="44.4246" lon="3.74571">
        <ele>1659.8</ele>
        <time>2022-10-28T13:05:35Z</time>
      </trkpt>
      <trkpt lat="44.42458" lon="3.74576">
        <ele>1660</ele>
        <time>2022-10-28T13:05:36Z</time>
      </trkpt>
      <trkpt lat="44.42457" lon="3.74581">
        <ele>1660</ele>
        <time>2022-10-28T13:05:37Z</time>
      </trkpt>
      <trkpt lat="44.42456" lon="3.74586">
        <ele>1659.8</ele>
        <time>2022-10-28T13:05:38Z</time>
      </trkpt>
      <trkpt lat="44.42454" lon="3.74592">
        <ele>1659.8</ele>
        <time>2022-10-28T13:05:39Z</time>
      </trkpt>
      <trkpt lat="44.42453" lon="3.74596">
        <ele>1659.6</ele>
        <time>2022-10-28T13:05:40Z</time>
      </trkpt>
      <trkpt lat="44.42451" lon="3.74601">
        <ele>1659.6</ele>
        <time>2022-10-28T13:05:41Z</time>
      </trkpt>
      <trkpt lat="44.4245" lon="3.74605">
        <ele>1659.6</ele>
        <time>2022-10-28T13:05:42Z</time>
      </trkpt>
      <trkpt lat="44.42449" lon="3.7461">
        <ele>1659.6</ele>
        <time>2022-10-28T13:05:43Z</time>
      </trkpt>
      <trkpt lat="44.42448" lon="3.74614">
        <ele>1659.6</ele>
        <time>2022-10-28T13:05:44Z</time>
      </trkpt>
      <trkpt lat="44.42447" lon="3.74619">
        <ele>1659.6</ele>
        <time>2022-10-28T13:05:45Z</time>
      </trkpt>
      <trkpt lat="44.42446" lon="3.74624">
        <ele>1659.4</ele>
        <time>2022-10-28T13:05:46Z</time>
      </trkpt>
      <trkpt lat="44.42445" lon="3.74629">
        <ele>1659.4</ele>
        <time>2022-10-28T13:05:47Z</time>
      </trkpt>
      <trkpt lat="44.42444" lon="3.74633">
        <ele>1659.4</ele>
        <time>2022-10-28T13:05:48Z</time>
      </trkpt>
      <trkpt lat="44.42442" lon="3.74639">
        <ele>1659.4</ele>
        <time>2022-10-28T13:05:49Z</time>
      </trkpt>
      <trkpt lat="44.42441" lon="3.74643">
        <ele>1659.2</ele>
        <time>2022-10-28T13:05:50Z</time>
      </trkpt>
      <trkpt lat="44.4244" lon="3.74648">
        <ele>1659.2</ele>
        <time>2022-10-28T13:05:51Z</time>
      </trkpt>
      <trkpt lat="44.42439" lon="3.74652">
        <ele>1659</ele>
        <time>2022-10-28T13:05:52Z</time>
      </trkpt>
      <trkpt lat="44.42438" lon="3.74657">
        <ele>1658.8</ele>
        <time>2022-10-28T13:05:53Z</time>
      </trkpt>
      <trkpt lat="44.42437" lon="3.74661">
        <ele>1658.6</ele>
        <time>2022-10-28T13:05:54Z</time>
      </trkpt>
      <trkpt lat="44.42436" lon="3.74665">
        <ele>1658.6</ele>
        <time>2022-10-28T13:05:55Z</time>
      </trkpt>
      <trkpt lat="44.42435" lon="3.74669">
        <ele>1658.6</ele>
        <time>2022-10-28T13:05:56Z</time>
      </trkpt>
      <trkpt lat="44.42434" lon="3.74673">
        <ele>1658.4</ele>
        <time>2022-10-28T13:05:57Z</time>
      </trkpt>
      <trkpt lat="44.42433" lon="3.74678">
        <ele>1658.2</ele>
        <time>2022-10-28T13:05:58Z</time>
      </trkpt>
      <trkpt lat="44.42432" lon="3.74682">
        <ele>1658.2</ele>
        <time>2022-10-28T13:05:59Z</time>
      </trkpt>
      <trkpt lat="44.4243" lon="3.74686">
        <ele>1658</ele>
        <time>2022-10-28T13:06:00Z</time>
      </trkpt>
      <trkpt lat="44.42429" lon="3.74691">
        <ele>1658</ele>
        <time>2022-10-28T13:06:01Z</time>
      </trkpt>
      <trkpt lat="44.42427" lon="3.74695">
        <ele>1657.8</ele>
        <time>2022-10-28T13:06:02Z</time>
      </trkpt>
      <trkpt lat="44.42426" lon="3.747">
        <ele>1657.8</ele>
        <time>2022-10-28T13:06:03Z</time>
      </trkpt>
      <trkpt lat="44.42425" lon="3.74705">
        <ele>1657.6</ele>
        <time>2022-10-28T13:06:04Z</time>
      </trkpt>
      <trkpt lat="44.42424" lon="3.74709">
        <ele>1657.6</ele>
        <time>2022-10-28T13:06:05Z</time>
      </trkpt>
      <trkpt lat="44.42423" lon="3.74714">
        <ele>1657.2</ele>
        <time>2022-10-28T13:06:06Z</time>
      </trkpt>
      <trkpt lat="44.42422" lon="3.74719">
        <ele>1657</ele>
        <time>2022-10-28T13:06:07Z</time>
      </trkpt>
      <trkpt lat="44.42421" lon="3.74724">
        <ele>1656.8</ele>
        <time>2022-10-28T13:06:08Z</time>
      </trkpt>
      <trkpt lat="44.42421" lon="3.74729">
        <ele>1656.6</ele>
        <time>2022-10-28T13:06:09Z</time>
      </trkpt>
      <trkpt lat="44.4242" lon="3.74733">
        <ele>1656.6</ele>
        <time>2022-10-28T13:06:10Z</time>
      </trkpt>
      <trkpt lat="44.42419" lon="3.74738">
        <ele>1656.4</ele>
        <time>2022-10-28T13:06:11Z</time>
      </trkpt>
      <trkpt lat="44.42419" lon="3.74742">
        <ele>1656.2</ele>
        <time>2022-10-28T13:06:12Z</time>
      </trkpt>
      <trkpt lat="44.42418" lon="3.74746">
        <ele>1656</ele>
        <time>2022-10-28T13:06:13Z</time>
      </trkpt>
      <trkpt lat="44.42417" lon="3.74751">
        <ele>1656</ele>
        <time>2022-10-28T13:06:14Z</time>
      </trkpt>
      <trkpt lat="44.42417" lon="3.74755">
        <ele>1655.8</ele>
        <time>2022-10-28T13:06:15Z</time>
      </trkpt>
      <trkpt lat="44.42416" lon="3.74759">
        <ele>1655.8</ele>
        <time>2022-10-28T13:06:16Z</time>
      </trkpt>
      <trkpt lat="44.42416" lon="3.74763">
        <ele>1655.6</ele>
        <time>2022-10-28T13:06:17Z</time>
      </trkpt>
      <trkpt lat="44.42415" lon="3.74767">
        <ele>1655.6</ele>
        <time>2022-10-28T13:06:18Z</time>
      </trkpt>
      <trkpt lat="44.42415" lon="3.74772">
        <ele>1655.4</ele>
        <time>2022-10-28T13:06:19Z</time>
      </trkpt>
      <trkpt lat="44.42414" lon="3.74777">
        <ele>1655.4</ele>
        <time>2022-10-28T13:06:20Z</time>
      </trkpt>
      <trkpt lat="44.42414" lon="3.74782">
        <ele>1655.2</ele>
        <time>2022-10-28T13:06:21Z</time>
      </trkpt>
      <trkpt lat="44.42413" lon="3.74787">
        <ele>1655.2</ele>
        <time>2022-10-28T13:06:22Z</time>
      </trkpt>
      <trkpt lat="44.42413" lon="3.74793">
        <ele>1654.8</ele>
        <time>2022-10-28T13:06:23Z</time>
      </trkpt>
      <trkpt lat="44.42413" lon="3.74799">
        <ele>1654.6</ele>
        <time>2022-10-28T13:06:24Z</time>
      </trkpt>
      <trkpt lat="44.42413" lon="3.74806">
        <ele>1654.2</ele>
        <time>2022-10-28T13:06:25Z</time>
      </trkpt>
      <trkpt lat="44.42412" lon="3.74812">
        <ele>1654</ele>
        <time>2022-10-28T13:06:26Z</time>
      </trkpt>
      <trkpt lat="44.42412" lon="3.74819">
        <ele>1653.6</ele>
        <time>2022-10-28T13:06:27Z</time>
      </trkpt>
      <trkpt lat="44.42412" lon="3.74826">
        <ele>1653.4</ele>
        <time>2022-10-28T13:06:28Z</time>
      </trkpt>
      <trkpt lat="44.42412" lon="3.74833">
        <ele>1653.2</ele>
        <time>2022-10-28T13:06:29Z</time>
      </trkpt>
      <trkpt lat="44.42412" lon="3.74841">
        <ele>1653</ele>
        <time>2022-10-28T13:06:30Z</time>
      </trkpt>
      <trkpt lat="44.42413" lon="3.74848">
        <ele>1652.8</ele>
        <time>2022-10-28T13:06:31Z</time>
      </trkpt>
      <trkpt lat="44.42414" lon="3.74855">
        <ele>1652.6</ele>
        <time>2022-10-28T13:06:32Z</time>
      </trkpt>
      <trkpt lat="44.42415" lon="3.74862">
        <ele>1652.2</ele>
        <time>2022-10-28T13:06:33Z</time>
      </trkpt>
      <trkpt lat="44.42416" lon="3.74868">
        <ele>1652</ele>
        <time>2022-10-28T13:06:34Z</time>
      </trkpt>
      <trkpt lat="44.42417" lon="3.74875">
        <ele>1651.6</ele>
        <time>2022-10-28T13:06:35Z</time>
      </trkpt>
      <trkpt lat="44.42418" lon="3.74882">
        <ele>1651.4</ele>
        <time>2022-10-28T13:06:36Z</time>
      </trkpt>
      <trkpt lat="44.4242" lon="3.74888">
        <ele>1651</ele>
        <time>2022-10-28T13:06:37Z</time>
      </trkpt>
      <trkpt lat="44.42422" lon="3.74895">
        <ele>1650.8</ele>
        <time>2022-10-28T13:06:38Z</time>
      </trkpt>
      <trkpt lat="44.42423" lon="3.74902">
        <ele>1650.6</ele>
        <time>2022-10-28T13:06:39Z</time>
      </trkpt>
      <trkpt lat="44.42424" lon="3.74909">
        <ele>1650.4</ele>
        <time>2022-10-28T13:06:40Z</time>
      </trkpt>
      <trkpt lat="44.42426" lon="3.74916">
        <ele>1650.2</ele>
        <time>2022-10-28T13:06:41Z</time>
      </trkpt>
      <trkpt lat="44.42427" lon="3.74923">
        <ele>1650</ele>
        <time>2022-10-28T13:06:42Z</time>
      </trkpt>
      <trkpt lat="44.42429" lon="3.74929">
        <ele>1649.8</ele>
        <time>2022-10-28T13:06:43Z</time>
      </trkpt>
      <trkpt lat="44.42431" lon="3.74936">
        <ele>1649.6</ele>
        <time>2022-10-28T13:06:44Z</time>
      </trkpt>
      <trkpt lat="44.42433" lon="3.74942">
        <ele>1649.2</ele>
        <time>2022-10-28T13:06:45Z</time>
      </trkpt>
      <trkpt lat="44.42435" lon="3.74948">
        <ele>1649</ele>
        <time>2022-10-28T13:06:46Z</time>
      </trkpt>
      <trkpt lat="44.42438" lon="3.74954">
        <ele>1648.8</ele>
        <time>2022-10-28T13:06:47Z</time>
      </trkpt>
      <trkpt lat="44.4244" lon="3.7496">
        <ele>1648.6</ele>
        <time>2022-10-28T13:06:48Z</time>
      </trkpt>
      <trkpt lat="44.42442" lon="3.74966">
        <ele>1648.4</ele>
        <time>2022-10-28T13:06:49Z</time>
      </trkpt>
      <trkpt lat="44.42445" lon="3.74972">
        <ele>1648.2</ele>
        <time>2022-10-28T13:06:50Z</time>
      </trkpt>
      <trkpt lat="44.42447" lon="3.74978">
        <ele>1648</ele>
        <time>2022-10-28T13:06:51Z</time>
      </trkpt>
      <trkpt lat="44.4245" lon="3.74985">
        <ele>1647.8</ele>
        <time>2022-10-28T13:06:52Z</time>
      </trkpt>
      <trkpt lat="44.42452" lon="3.74992">
        <ele>1647.4</ele>
        <time>2022-10-28T13:06:53Z</time>
      </trkpt>
      <trkpt lat="44.42455" lon="3.74999">
        <ele>1647.2</ele>
        <time>2022-10-28T13:06:54Z</time>
      </trkpt>
      <trkpt lat="44.42458" lon="3.75006">
        <ele>1646.8</ele>
        <time>2022-10-28T13:06:55Z</time>
      </trkpt>
      <trkpt lat="44.42461" lon="3.75013">
        <ele>1646.4</ele>
        <time>2022-10-28T13:06:56Z</time>
      </trkpt>
      <trkpt lat="44.42464" lon="3.75021">
        <ele>1646.2</ele>
        <time>2022-10-28T13:06:57Z</time>
      </trkpt>
      <trkpt lat="44.42466" lon="3.75028">
        <ele>1645.8</ele>
        <time>2022-10-28T13:06:58Z</time>
      </trkpt>
      <trkpt lat="44.42469" lon="3.75035">
        <ele>1645.4</ele>
        <time>2022-10-28T13:06:59Z</time>
      </trkpt>
      <trkpt lat="44.42472" lon="3.75043">
        <ele>1645.2</ele>
        <time>2022-10-28T13:07:00Z</time>
      </trkpt>
      <trkpt lat="44.42475" lon="3.7505">
        <ele>1644.8</ele>
        <time>2022-10-28T13:07:01Z</time>
      </trkpt>
      <trkpt lat="44.42478" lon="3.75058">
        <ele>1644.4</ele>
        <time>2022-10-28T13:07:02Z</time>
      </trkpt>
      <trkpt lat="44.42481" lon="3.75066">
        <ele>1644.2</ele>
        <time>2022-10-28T13:07:03Z</time>
      </trkpt>
      <trkpt lat="44.42484" lon="3.75074">
        <ele>1643.8</ele>
        <time>2022-10-28T13:07:04Z</time>
      </trkpt>
      <trkpt lat="44.42486" lon="3.75083">
        <ele>1643.6</ele>
        <time>2022-10-28T13:07:05Z</time>
      </trkpt>
      <trkpt lat="44.42488" lon="3.75091">
        <ele>1643.2</ele>
        <time>2022-10-28T13:07:06Z</time>
      </trkpt>
      <trkpt lat="44.4249" lon="3.751">
        <ele>1643</ele>
        <time>2022-10-28T13:07:07Z</time>
      </trkpt>
      <trkpt lat="44.42492" lon="3.75108">
        <ele>1642.8</ele>
        <time>2022-10-28T13:07:08Z</time>
      </trkpt>
      <trkpt lat="44.42494" lon="3.75116">
        <ele>1642.4</ele>
        <time>2022-10-28T13:07:09Z</time>
      </trkpt>
      <trkpt lat="44.42495" lon="3.75123">
        <ele>1642.2</ele>
        <time>2022-10-28T13:07:10Z</time>
      </trkpt>
      <trkpt lat="44.42496" lon="3.75129">
        <ele>1642</ele>
        <time>2022-10-28T13:07:11Z</time>
      </trkpt>
      <trkpt lat="44.42497" lon="3.75134">
        <ele>1641.6</ele>
        <time>2022-10-28T13:07:12Z</time>
      </trkpt>
      <trkpt lat="44.42498" lon="3.75138">
        <ele>1641.4</ele>
        <time>2022-10-28T13:07:13Z</time>
      </trkpt>
      <trkpt lat="44.42498" lon="3.75141">
        <ele>1641.2</ele>
        <time>2022-10-28T13:07:14Z</time>
      </trkpt>
      <trkpt lat="44.42498" lon="3.75144">
        <ele>1641</ele>
        <time>2022-10-28T13:07:15Z</time>
      </trkpt>
      <trkpt lat="44.42497" lon="3.75146">
        <ele>1641</ele>
        <time>2022-10-28T13:07:16Z</time>
      </trkpt>
      <trkpt lat="44.42497" lon="3.75148">
        <ele>1640.8</ele>
        <time>2022-10-28T13:07:17Z</time>
      </trkpt>
      <trkpt lat="44.42496" lon="3.7515">
        <ele>1640.6</ele>
        <time>2022-10-28T13:07:18Z</time>
      </trkpt>
      <trkpt lat="44.42496" lon="3.75152">
        <ele>1640.6</ele>
        <time>2022-10-28T13:07:19Z</time>
      </trkpt>
      <trkpt lat="44.42495" lon="3.75154">
        <ele>1640.4</ele>
        <time>2022-10-28T13:07:20Z</time>
      </trkpt>
      <trkpt lat="44.42494" lon="3.75154">
        <ele>1640.2</ele>
        <time>2022-10-28T13:07:21Z</time>
      </trkpt>
      <trkpt lat="44.42488" lon="3.75174">
        <ele>1639.8</ele>
        <time>2022-10-28T13:10:33Z</time>
      </trkpt>
      <trkpt lat="44.42486" lon="3.75177">
        <ele>1639.8</ele>
        <time>2022-10-28T13:10:34Z</time>
      </trkpt>
      <trkpt lat="44.42484" lon="3.7518">
        <ele>1640</ele>
        <time>2022-10-28T13:10:35Z</time>
      </trkpt>
      <trkpt lat="44.42482" lon="3.75182">
        <ele>1640</ele>
        <time>2022-10-28T13:10:36Z</time>
      </trkpt>
      <trkpt lat="44.4248" lon="3.75185">
        <ele>1640</ele>
        <time>2022-10-28T13:10:37Z</time>
      </trkpt>
      <trkpt lat="44.42478" lon="3.75187">
        <ele>1640</ele>
        <time>2022-10-28T13:10:38Z</time>
      </trkpt>
      <trkpt lat="44.42475" lon="3.7519">
        <ele>1640</ele>
        <time>2022-10-28T13:10:39Z</time>
      </trkpt>
      <trkpt lat="44.42472" lon="3.75193">
        <ele>1640</ele>
        <time>2022-10-28T13:10:40Z</time>
      </trkpt>
      <trkpt lat="44.42469" lon="3.75196">
        <ele>1639.8</ele>
        <time>2022-10-28T13:10:41Z</time>
      </trkpt>
      <trkpt lat="44.42467" lon="3.75199">
        <ele>1640</ele>
        <time>2022-10-28T13:10:42Z</time>
      </trkpt>
      <trkpt lat="44.42463" lon="3.75203">
        <ele>1639.8</ele>
        <time>2022-10-28T13:10:43Z</time>
      </trkpt>
      <trkpt lat="44.42461" lon="3.75207">
        <ele>1639.8</ele>
        <time>2022-10-28T13:10:44Z</time>
      </trkpt>
      <trkpt lat="44.42458" lon="3.7521">
        <ele>1639.8</ele>
        <time>2022-10-28T13:10:45Z</time>
      </trkpt>
      <trkpt lat="44.42456" lon="3.75214">
        <ele>1639.6</ele>
        <time>2022-10-28T13:10:46Z</time>
      </trkpt>
      <trkpt lat="44.42453" lon="3.75218">
        <ele>1639.6</ele>
        <time>2022-10-28T13:10:47Z</time>
      </trkpt>
      <trkpt lat="44.4245" lon="3.75221">
        <ele>1639.4</ele>
        <time>2022-10-28T13:10:48Z</time>
      </trkpt>
      <trkpt lat="44.42447" lon="3.75224">
        <ele>1639.4</ele>
        <time>2022-10-28T13:10:49Z</time>
      </trkpt>
      <trkpt lat="44.42444" lon="3.75228">
        <ele>1639.4</ele>
        <time>2022-10-28T13:10:50Z</time>
      </trkpt>
      <trkpt lat="44.42441" lon="3.75231">
        <ele>1639.4</ele>
        <time>2022-10-28T13:10:51Z</time>
      </trkpt>
      <trkpt lat="44.42437" lon="3.75235">
        <ele>1639.2</ele>
        <time>2022-10-28T13:10:52Z</time>
      </trkpt>
      <trkpt lat="44.42434" lon="3.75238">
        <ele>1639.2</ele>
        <time>2022-10-28T13:10:53Z</time>
      </trkpt>
      <trkpt lat="44.42431" lon="3.75241">
        <ele>1639.2</ele>
        <time>2022-10-28T13:10:54Z</time>
      </trkpt>
      <trkpt lat="44.42427" lon="3.75244">
        <ele>1639.2</ele>
        <time>2022-10-28T13:10:55Z</time>
      </trkpt>
      <trkpt lat="44.42424" lon="3.75247">
        <ele>1639.2</ele>
        <time>2022-10-28T13:10:56Z</time>
      </trkpt>
      <trkpt lat="44.42421" lon="3.7525">
        <ele>1639.2</ele>
        <time>2022-10-28T13:10:57Z</time>
      </trkpt>
      <trkpt lat="44.42417" lon="3.75253">
        <ele>1639.4</ele>
        <time>2022-10-28T13:10:58Z</time>
      </trkpt>
      <trkpt lat="44.42414" lon="3.75256">
        <ele>1639.4</ele>
        <time>2022-10-28T13:10:59Z</time>
      </trkpt>
      <trkpt lat="44.42411" lon="3.75258">
        <ele>1639.4</ele>
        <time>2022-10-28T13:11:00Z</time>
      </trkpt>
      <trkpt lat="44.42409" lon="3.7526">
        <ele>1639.4</ele>
        <time>2022-10-28T13:11:01Z</time>
      </trkpt>
      <trkpt lat="44.42405" lon="3.75263">
        <ele>1639.4</ele>
        <time>2022-10-28T13:11:02Z</time>
      </trkpt>
      <trkpt lat="44.424" lon="3.75266">
        <ele>1639.4</ele>
        <time>2022-10-28T13:11:03Z</time>
      </trkpt>
      <trkpt lat="44.42397" lon="3.75269">
        <ele>1639.2</ele>
        <time>2022-10-28T13:11:04Z</time>
      </trkpt>
      <trkpt lat="44.42393" lon="3.75271">
        <ele>1639.2</ele>
        <time>2022-10-28T13:11:05Z</time>
      </trkpt>
      <trkpt lat="44.42389" lon="3.75274">
        <ele>1639</ele>
        <time>2022-10-28T13:11:06Z</time>
      </trkpt>
      <trkpt lat="44.42386" lon="3.75276">
        <ele>1639</ele>
        <time>2022-10-28T13:11:07Z</time>
      </trkpt>
      <trkpt lat="44.42382" lon="3.75278">
        <ele>1639</ele>
        <time>2022-10-28T13:11:08Z</time>
      </trkpt>
      <trkpt lat="44.42378" lon="3.7528">
        <ele>1638.8</ele>
        <time>2022-10-28T13:11:09Z</time>
      </trkpt>
      <trkpt lat="44.42375" lon="3.75281">
        <ele>1638.6</ele>
        <time>2022-10-28T13:11:10Z</time>
      </trkpt>
      <trkpt lat="44.42371" lon="3.75283">
        <ele>1638.6</ele>
        <time>2022-10-28T13:11:11Z</time>
      </trkpt>
      <trkpt lat="44.42367" lon="3.75285">
        <ele>1638.4</ele>
        <time>2022-10-28T13:11:12Z</time>
      </trkpt>
      <trkpt lat="44.42364" lon="3.75287">
        <ele>1638.4</ele>
        <time>2022-10-28T13:11:13Z</time>
      </trkpt>
      <trkpt lat="44.4236" lon="3.75288">
        <ele>1638.4</ele>
        <time>2022-10-28T13:11:14Z</time>
      </trkpt>
      <trkpt lat="44.42356" lon="3.7529">
        <ele>1638.2</ele>
        <time>2022-10-28T13:11:15Z</time>
      </trkpt>
      <trkpt lat="44.42353" lon="3.75292">
        <ele>1638.2</ele>
        <time>2022-10-28T13:11:16Z</time>
      </trkpt>
      <trkpt lat="44.42349" lon="3.75293">
        <ele>1638.2</ele>
        <time>2022-10-28T13:11:17Z</time>
      </trkpt>
      <trkpt lat="44.42346" lon="3.75295">
        <ele>1638.2</ele>
        <time>2022-10-28T13:11:18Z</time>
      </trkpt>
      <trkpt lat="44.42342" lon="3.75297">
        <ele>1638.2</ele>
        <time>2022-10-28T13:11:19Z</time>
      </trkpt>
      <trkpt lat="44.42338" lon="3.75299">
        <ele>1638</ele>
        <time>2022-10-28T13:11:20Z</time>
      </trkpt>
      <trkpt lat="44.42334" lon="3.75301">
        <ele>1637.8</ele>
        <time>2022-10-28T13:11:21Z</time>
      </trkpt>
      <trkpt lat="44.4233" lon="3.75302">
        <ele>1637.8</ele>
        <time>2022-10-28T13:11:22Z</time>
      </trkpt>
      <trkpt lat="44.42326" lon="3.75304">
        <ele>1637.8</ele>
        <time>2022-10-28T13:11:23Z</time>
      </trkpt>
      <trkpt lat="44.42322" lon="3.75306">
        <ele>1637.8</ele>
        <time>2022-10-28T13:11:24Z</time>
      </trkpt>
      <trkpt lat="44.42318" lon="3.75308">
        <ele>1637.8</ele>
        <time>2022-10-28T13:11:25Z</time>
      </trkpt>
      <trkpt lat="44.42314" lon="3.75309">
        <ele>1637.6</ele>
        <time>2022-10-28T13:11:26Z</time>
      </trkpt>
      <trkpt lat="44.4231" lon="3.75311">
        <ele>1637.6</ele>
        <time>2022-10-28T13:11:27Z</time>
      </trkpt>
      <trkpt lat="44.42306" lon="3.75312">
        <ele>1637.6</ele>
        <time>2022-10-28T13:11:28Z</time>
      </trkpt>
      <trkpt lat="44.42303" lon="3.75313">
        <ele>1637.6</ele>
        <time>2022-10-28T13:11:29Z</time>
      </trkpt>
      <trkpt lat="44.42299" lon="3.75314">
        <ele>1637.6</ele>
        <time>2022-10-28T13:11:30Z</time>
      </trkpt>
      <trkpt lat="44.42295" lon="3.75316">
        <ele>1637.6</ele>
        <time>2022-10-28T13:11:31Z</time>
      </trkpt>
      <trkpt lat="44.42291" lon="3.75317">
        <ele>1637.6</ele>
        <time>2022-10-28T13:11:32Z</time>
      </trkpt>
      <trkpt lat="44.42287" lon="3.75318">
        <ele>1637.6</ele>
        <time>2022-10-28T13:11:33Z</time>
      </trkpt>
      <trkpt lat="44.42284" lon="3.7532">
        <ele>1637.6</ele>
        <time>2022-10-28T13:11:34Z</time>
      </trkpt>
      <trkpt lat="44.4228" lon="3.75321">
        <ele>1637.6</ele>
        <time>2022-10-28T13:11:35Z</time>
      </trkpt>
      <trkpt lat="44.42276" lon="3.75322">
        <ele>1637.6</ele>
        <time>2022-10-28T13:11:36Z</time>
      </trkpt>
      <trkpt lat="44.42272" lon="3.75323">
        <ele>1637.6</ele>
        <time>2022-10-28T13:11:37Z</time>
      </trkpt>
      <trkpt lat="44.42268" lon="3.75324">
        <ele>1637.6</ele>
        <time>2022-10-28T13:11:38Z</time>
      </trkpt>
      <trkpt lat="44.42264" lon="3.75325">
        <ele>1637.6</ele>
        <time>2022-10-28T13:11:39Z</time>
      </trkpt>
      <trkpt lat="44.4226" lon="3.75326">
        <ele>1637.6</ele>
        <time>2022-10-28T13:11:40Z</time>
      </trkpt>
      <trkpt lat="44.42257" lon="3.75327">
        <ele>1637.6</ele>
        <time>2022-10-28T13:11:41Z</time>
      </trkpt>
      <trkpt lat="44.42253" lon="3.75328">
        <ele>1637.6</ele>
        <time>2022-10-28T13:11:42Z</time>
      </trkpt>
      <trkpt lat="44.4225" lon="3.75329">
        <ele>1637.6</ele>
        <time>2022-10-28T13:11:43Z</time>
      </trkpt>
      <trkpt lat="44.42246" lon="3.75331">
        <ele>1637.6</ele>
        <time>2022-10-28T13:11:44Z</time>
      </trkpt>
      <trkpt lat="44.42242" lon="3.75332">
        <ele>1637.6</ele>
        <time>2022-10-28T13:11:45Z</time>
      </trkpt>
      <trkpt lat="44.42239" lon="3.75334">
        <ele>1637.6</ele>
        <time>2022-10-28T13:11:46Z</time>
      </trkpt>
      <trkpt lat="44.42235" lon="3.75335">
        <ele>1637.4</ele>
        <time>2022-10-28T13:11:47Z</time>
      </trkpt>
      <trkpt lat="44.42232" lon="3.75337">
        <ele>1637.4</ele>
        <time>2022-10-28T13:11:48Z</time>
      </trkpt>
      <trkpt lat="44.42228" lon="3.75338">
        <ele>1637.4</ele>
        <time>2022-10-28T13:11:49Z</time>
      </trkpt>
      <trkpt lat="44.42224" lon="3.7534">
        <ele>1637.4</ele>
        <time>2022-10-28T13:11:50Z</time>
      </trkpt>
      <trkpt lat="44.42221" lon="3.75341">
        <ele>1637.4</ele>
        <time>2022-10-28T13:11:51Z</time>
      </trkpt>
      <trkpt lat="44.42217" lon="3.75342">
        <ele>1637.4</ele>
        <time>2022-10-28T13:11:52Z</time>
      </trkpt>
      <trkpt lat="44.42213" lon="3.75344">
        <ele>1637.2</ele>
        <time>2022-10-28T13:11:53Z</time>
      </trkpt>
      <trkpt lat="44.42209" lon="3.75345">
        <ele>1637.2</ele>
        <time>2022-10-28T13:11:54Z</time>
      </trkpt>
      <trkpt lat="44.42205" lon="3.75346">
        <ele>1637.2</ele>
        <time>2022-10-28T13:11:55Z</time>
      </trkpt>
      <trkpt lat="44.42201" lon="3.75348">
        <ele>1637.2</ele>
        <time>2022-10-28T13:11:56Z</time>
      </trkpt>
      <trkpt lat="44.42198" lon="3.75349">
        <ele>1637.2</ele>
        <time>2022-10-28T13:11:57Z</time>
      </trkpt>
      <trkpt lat="44.42194" lon="3.75351">
        <ele>1637.2</ele>
        <time>2022-10-28T13:11:58Z</time>
      </trkpt>
      <trkpt lat="44.4219" lon="3.75352">
        <ele>1637.2</ele>
        <time>2022-10-28T13:11:59Z</time>
      </trkpt>
      <trkpt lat="44.42186" lon="3.75353">
        <ele>1637.2</ele>
        <time>2022-10-28T13:12:00Z</time>
      </trkpt>
      <trkpt lat="44.42183" lon="3.75354">
        <ele>1637.2</ele>
        <time>2022-10-28T13:12:01Z</time>
      </trkpt>
      <trkpt lat="44.42179" lon="3.75355">
        <ele>1637.2</ele>
        <time>2022-10-28T13:12:02Z</time>
      </trkpt>
      <trkpt lat="44.42176" lon="3.75356">
        <ele>1637.2</ele>
        <time>2022-10-28T13:12:03Z</time>
      </trkpt>
      <trkpt lat="44.42172" lon="3.75357">
        <ele>1637</ele>
        <time>2022-10-28T13:12:04Z</time>
      </trkpt>
      <trkpt lat="44.42168" lon="3.75358">
        <ele>1636.8</ele>
        <time>2022-10-28T13:12:05Z</time>
      </trkpt>
      <trkpt lat="44.42165" lon="3.7536">
        <ele>1636.6</ele>
        <time>2022-10-28T13:12:06Z</time>
      </trkpt>
      <trkpt lat="44.42161" lon="3.75361">
        <ele>1636.6</ele>
        <time>2022-10-28T13:12:07Z</time>
      </trkpt>
      <trkpt lat="44.42157" lon="3.75363">
        <ele>1636.6</ele>
        <time>2022-10-28T13:12:08Z</time>
      </trkpt>
      <trkpt lat="44.42153" lon="3.75364">
        <ele>1636.4</ele>
        <time>2022-10-28T13:12:09Z</time>
      </trkpt>
      <trkpt lat="44.42149" lon="3.75365">
        <ele>1636.2</ele>
        <time>2022-10-28T13:12:10Z</time>
      </trkpt>
      <trkpt lat="44.42145" lon="3.75366">
        <ele>1636</ele>
        <time>2022-10-28T13:12:11Z</time>
      </trkpt>
      <trkpt lat="44.42141" lon="3.75367">
        <ele>1635.8</ele>
        <time>2022-10-28T13:12:12Z</time>
      </trkpt>
      <trkpt lat="44.42137" lon="3.75368">
        <ele>1635.6</ele>
        <time>2022-10-28T13:12:13Z</time>
      </trkpt>
      <trkpt lat="44.42134" lon="3.75369">
        <ele>1635.6</ele>
        <time>2022-10-28T13:12:14Z</time>
      </trkpt>
      <trkpt lat="44.42129" lon="3.7537">
        <ele>1635.4</ele>
        <time>2022-10-28T13:12:15Z</time>
      </trkpt>
      <trkpt lat="44.42126" lon="3.75371">
        <ele>1635.2</ele>
        <time>2022-10-28T13:12:16Z</time>
      </trkpt>
      <trkpt lat="44.42122" lon="3.75372">
        <ele>1635.2</ele>
        <time>2022-10-28T13:12:17Z</time>
      </trkpt>
      <trkpt lat="44.42118" lon="3.75373">
        <ele>1635.2</ele>
        <time>2022-10-28T13:12:18Z</time>
      </trkpt>
      <trkpt lat="44.42114" lon="3.75375">
        <ele>1635</ele>
        <time>2022-10-28T13:12:19Z</time>
      </trkpt>
      <trkpt lat="44.42111" lon="3.75377">
        <ele>1635</ele>
        <time>2022-10-28T13:12:20Z</time>
      </trkpt>
      <trkpt lat="44.42107" lon="3.75379">
        <ele>1634.8</ele>
        <time>2022-10-28T13:12:21Z</time>
      </trkpt>
      <trkpt lat="44.42103" lon="3.75381">
        <ele>1634.8</ele>
        <time>2022-10-28T13:12:22Z</time>
      </trkpt>
      <trkpt lat="44.42099" lon="3.75383">
        <ele>1634.8</ele>
        <time>2022-10-28T13:12:23Z</time>
      </trkpt>
      <trkpt lat="44.42096" lon="3.75385">
        <ele>1634.8</ele>
        <time>2022-10-28T13:12:24Z</time>
      </trkpt>
      <trkpt lat="44.42093" lon="3.75387">
        <ele>1634.6</ele>
        <time>2022-10-28T13:12:25Z</time>
      </trkpt>
      <trkpt lat="44.42089" lon="3.75389">
        <ele>1634.6</ele>
        <time>2022-10-28T13:12:26Z</time>
      </trkpt>
      <trkpt lat="44.42086" lon="3.75391">
        <ele>1634.6</ele>
        <time>2022-10-28T13:12:27Z</time>
      </trkpt>
      <trkpt lat="44.42083" lon="3.75394">
        <ele>1634.4</ele>
        <time>2022-10-28T13:12:28Z</time>
      </trkpt>
      <trkpt lat="44.4208" lon="3.75396">
        <ele>1634.2</ele>
        <time>2022-10-28T13:12:29Z</time>
      </trkpt>
      <trkpt lat="44.42077" lon="3.75398">
        <ele>1634</ele>
        <time>2022-10-28T13:12:30Z</time>
      </trkpt>
      <trkpt lat="44.42073" lon="3.75401">
        <ele>1634</ele>
        <time>2022-10-28T13:12:31Z</time>
      </trkpt>
      <trkpt lat="44.4207" lon="3.75403">
        <ele>1633.8</ele>
        <time>2022-10-28T13:12:32Z</time>
      </trkpt>
      <trkpt lat="44.42067" lon="3.75405">
        <ele>1633.8</ele>
        <time>2022-10-28T13:12:33Z</time>
      </trkpt>
      <trkpt lat="44.42064" lon="3.75407">
        <ele>1633.6</ele>
        <time>2022-10-28T13:12:34Z</time>
      </trkpt>
      <trkpt lat="44.4206" lon="3.7541">
        <ele>1633.6</ele>
        <time>2022-10-28T13:12:35Z</time>
      </trkpt>
      <trkpt lat="44.42057" lon="3.75413">
        <ele>1633.4</ele>
        <time>2022-10-28T13:12:36Z</time>
      </trkpt>
      <trkpt lat="44.42053" lon="3.75416">
        <ele>1633.4</ele>
        <time>2022-10-28T13:12:37Z</time>
      </trkpt>
      <trkpt lat="44.4205" lon="3.75419">
        <ele>1633.2</ele>
        <time>2022-10-28T13:12:38Z</time>
      </trkpt>
      <trkpt lat="44.42046" lon="3.75422">
        <ele>1633.2</ele>
        <time>2022-10-28T13:12:39Z</time>
      </trkpt>
      <trkpt lat="44.42043" lon="3.75425">
        <ele>1633</ele>
        <time>2022-10-28T13:12:40Z</time>
      </trkpt>
      <trkpt lat="44.42039" lon="3.75429">
        <ele>1632.8</ele>
        <time>2022-10-28T13:12:41Z</time>
      </trkpt>
      <trkpt lat="44.42036" lon="3.75432">
        <ele>1632.6</ele>
        <time>2022-10-28T13:12:42Z</time>
      </trkpt>
      <trkpt lat="44.42032" lon="3.75435">
        <ele>1632.4</ele>
        <time>2022-10-28T13:12:43Z</time>
      </trkpt>
      <trkpt lat="44.42028" lon="3.75438">
        <ele>1632.2</ele>
        <time>2022-10-28T13:12:44Z</time>
      </trkpt>
      <trkpt lat="44.42023" lon="3.75441">
        <ele>1631.8</ele>
        <time>2022-10-28T13:12:45Z</time>
      </trkpt>
      <trkpt lat="44.42019" lon="3.75443">
        <ele>1631.6</ele>
        <time>2022-10-28T13:12:46Z</time>
      </trkpt>
      <trkpt lat="44.42016" lon="3.75446">
        <ele>1631.4</ele>
        <time>2022-10-28T13:12:47Z</time>
      </trkpt>
      <trkpt lat="44.42012" lon="3.75449">
        <ele>1631.2</ele>
        <time>2022-10-28T13:12:48Z</time>
      </trkpt>
      <trkpt lat="44.42009" lon="3.75452">
        <ele>1631</ele>
        <time>2022-10-28T13:12:49Z</time>
      </trkpt>
      <trkpt lat="44.42005" lon="3.75455">
        <ele>1630.6</ele>
        <time>2022-10-28T13:12:50Z</time>
      </trkpt>
      <trkpt lat="44.42001" lon="3.75458">
        <ele>1630.6</ele>
        <time>2022-10-28T13:12:51Z</time>
      </trkpt>
      <trkpt lat="44.41997" lon="3.75461">
        <ele>1630.2</ele>
        <time>2022-10-28T13:12:52Z</time>
      </trkpt>
      <trkpt lat="44.41993" lon="3.75464">
        <ele>1630</ele>
        <time>2022-10-28T13:12:53Z</time>
      </trkpt>
      <trkpt lat="44.41989" lon="3.75468">
        <ele>1629.6</ele>
        <time>2022-10-28T13:12:54Z</time>
      </trkpt>
      <trkpt lat="44.41985" lon="3.75471">
        <ele>1629.2</ele>
        <time>2022-10-28T13:12:55Z</time>
      </trkpt>
      <trkpt lat="44.41981" lon="3.75474">
        <ele>1629</ele>
        <time>2022-10-28T13:12:56Z</time>
      </trkpt>
      <trkpt lat="44.41977" lon="3.75478">
        <ele>1628.6</ele>
        <time>2022-10-28T13:12:57Z</time>
      </trkpt>
      <trkpt lat="44.41973" lon="3.75483">
        <ele>1628.4</ele>
        <time>2022-10-28T13:12:58Z</time>
      </trkpt>
      <trkpt lat="44.41969" lon="3.75486">
        <ele>1628.2</ele>
        <time>2022-10-28T13:12:59Z</time>
      </trkpt>
      <trkpt lat="44.41965" lon="3.7549">
        <ele>1628</ele>
        <time>2022-10-28T13:13:00Z</time>
      </trkpt>
      <trkpt lat="44.41961" lon="3.75494">
        <ele>1627.6</ele>
        <time>2022-10-28T13:13:01Z</time>
      </trkpt>
      <trkpt lat="44.41957" lon="3.75498">
        <ele>1627.2</ele>
        <time>2022-10-28T13:13:02Z</time>
      </trkpt>
      <trkpt lat="44.41954" lon="3.75501">
        <ele>1627</ele>
        <time>2022-10-28T13:13:03Z</time>
      </trkpt>
      <trkpt lat="44.4195" lon="3.75505">
        <ele>1626.6</ele>
        <time>2022-10-28T13:13:04Z</time>
      </trkpt>
      <trkpt lat="44.41946" lon="3.7551">
        <ele>1626.4</ele>
        <time>2022-10-28T13:13:05Z</time>
      </trkpt>
      <trkpt lat="44.41944" lon="3.75516">
        <ele>1626.2</ele>
        <time>2022-10-28T13:13:06Z</time>
      </trkpt>
      <trkpt lat="44.41942" lon="3.75523">
        <ele>1625.8</ele>
        <time>2022-10-28T13:13:07Z</time>
      </trkpt>
      <trkpt lat="44.4194" lon="3.7553">
        <ele>1625.6</ele>
        <time>2022-10-28T13:13:08Z</time>
      </trkpt>
      <trkpt lat="44.4194" lon="3.75537">
        <ele>1625.4</ele>
        <time>2022-10-28T13:13:09Z</time>
      </trkpt>
      <trkpt lat="44.41939" lon="3.75544">
        <ele>1625.2</ele>
        <time>2022-10-28T13:13:10Z</time>
      </trkpt>
      <trkpt lat="44.41938" lon="3.75552">
        <ele>1624.8</ele>
        <time>2022-10-28T13:13:11Z</time>
      </trkpt>
      <trkpt lat="44.41937" lon="3.75559">
        <ele>1624.6</ele>
        <time>2022-10-28T13:13:12Z</time>
      </trkpt>
      <trkpt lat="44.41937" lon="3.75567">
        <ele>1624.4</ele>
        <time>2022-10-28T13:13:13Z</time>
      </trkpt>
      <trkpt lat="44.41938" lon="3.75575">
        <ele>1624.2</ele>
        <time>2022-10-28T13:13:14Z</time>
      </trkpt>
      <trkpt lat="44.41938" lon="3.75582">
        <ele>1623.8</ele>
        <time>2022-10-28T13:13:15Z</time>
      </trkpt>
      <trkpt lat="44.41938" lon="3.7559">
        <ele>1623.6</ele>
        <time>2022-10-28T13:13:16Z</time>
      </trkpt>
      <trkpt lat="44.41938" lon="3.75597">
        <ele>1623.4</ele>
        <time>2022-10-28T13:13:17Z</time>
      </trkpt>
      <trkpt lat="44.41938" lon="3.75603">
        <ele>1623</ele>
        <time>2022-10-28T13:13:18Z</time>
      </trkpt>
      <trkpt lat="44.41938" lon="3.75609">
        <ele>1622.8</ele>
        <time>2022-10-28T13:13:19Z</time>
      </trkpt>
      <trkpt lat="44.41937" lon="3.75615">
        <ele>1622.6</ele>
        <time>2022-10-28T13:13:20Z</time>
      </trkpt>
      <trkpt lat="44.41937" lon="3.75621">
        <ele>1622.2</ele>
        <time>2022-10-28T13:13:21Z</time>
      </trkpt>
      <trkpt lat="44.41937" lon="3.75627">
        <ele>1622</ele>
        <time>2022-10-28T13:13:22Z</time>
      </trkpt>
      <trkpt lat="44.41937" lon="3.75632">
        <ele>1621.8</ele>
        <time>2022-10-28T13:13:23Z</time>
      </trkpt>
      <trkpt lat="44.41937" lon="3.75638">
        <ele>1621.6</ele>
        <time>2022-10-28T13:13:24Z</time>
      </trkpt>
      <trkpt lat="44.41937" lon="3.75643">
        <ele>1621.2</ele>
        <time>2022-10-28T13:13:25Z</time>
      </trkpt>
      <trkpt lat="44.41938" lon="3.75648">
        <ele>1621</ele>
        <time>2022-10-28T13:13:26Z</time>
      </trkpt>
      <trkpt lat="44.41938" lon="3.75653">
        <ele>1620.8</ele>
        <time>2022-10-28T13:13:27Z</time>
      </trkpt>
      <trkpt lat="44.41937" lon="3.75658">
        <ele>1620.4</ele>
        <time>2022-10-28T13:13:28Z</time>
      </trkpt>
      <trkpt lat="44.41937" lon="3.75663">
        <ele>1620.2</ele>
        <time>2022-10-28T13:13:29Z</time>
      </trkpt>
      <trkpt lat="44.41936" lon="3.75669">
        <ele>1620</ele>
        <time>2022-10-28T13:13:30Z</time>
      </trkpt>
      <trkpt lat="44.41936" lon="3.75675">
        <ele>1620</ele>
        <time>2022-10-28T13:13:31Z</time>
      </trkpt>
      <trkpt lat="44.41935" lon="3.75682">
        <ele>1619.6</ele>
        <time>2022-10-28T13:13:32Z</time>
      </trkpt>
      <trkpt lat="44.41935" lon="3.75689">
        <ele>1619.4</ele>
        <time>2022-10-28T13:13:33Z</time>
      </trkpt>
      <trkpt lat="44.41935" lon="3.75697">
        <ele>1619</ele>
        <time>2022-10-28T13:13:34Z</time>
      </trkpt>
      <trkpt lat="44.41935" lon="3.75704">
        <ele>1618.6</ele>
        <time>2022-10-28T13:13:35Z</time>
      </trkpt>
      <trkpt lat="44.41935" lon="3.75711">
        <ele>1618.4</ele>
        <time>2022-10-28T13:13:36Z</time>
      </trkpt>
      <trkpt lat="44.41935" lon="3.75717">
        <ele>1618.2</ele>
        <time>2022-10-28T13:13:37Z</time>
      </trkpt>
      <trkpt lat="44.41935" lon="3.75724">
        <ele>1618</ele>
        <time>2022-10-28T13:13:38Z</time>
      </trkpt>
      <trkpt lat="44.41935" lon="3.7573">
        <ele>1617.6</ele>
        <time>2022-10-28T13:13:39Z</time>
      </trkpt>
      <trkpt lat="44.41934" lon="3.75736">
        <ele>1617.4</ele>
        <time>2022-10-28T13:13:40Z</time>
      </trkpt>
      <trkpt lat="44.41934" lon="3.75741">
        <ele>1617.2</ele>
        <time>2022-10-28T13:13:41Z</time>
      </trkpt>
      <trkpt lat="44.41933" lon="3.75745">
        <ele>1617</ele>
        <time>2022-10-28T13:13:42Z</time>
      </trkpt>
      <trkpt lat="44.41933" lon="3.7575">
        <ele>1616.8</ele>
        <time>2022-10-28T13:13:43Z</time>
      </trkpt>
      <trkpt lat="44.41933" lon="3.75754">
        <ele>1616.6</ele>
        <time>2022-10-28T13:13:44Z</time>
      </trkpt>
      <trkpt lat="44.41933" lon="3.75759">
        <ele>1616.4</ele>
        <time>2022-10-28T13:13:45Z</time>
      </trkpt>
      <trkpt lat="44.41933" lon="3.75763">
        <ele>1616.2</ele>
        <time>2022-10-28T13:13:46Z</time>
      </trkpt>
      <trkpt lat="44.41933" lon="3.75768">
        <ele>1616.2</ele>
        <time>2022-10-28T13:13:47Z</time>
      </trkpt>
      <trkpt lat="44.41932" lon="3.75773">
        <ele>1616</ele>
        <time>2022-10-28T13:13:48Z</time>
      </trkpt>
      <trkpt lat="44.41932" lon="3.75778">
        <ele>1615.8</ele>
        <time>2022-10-28T13:13:49Z</time>
      </trkpt>
      <trkpt lat="44.41932" lon="3.75783">
        <ele>1615.6</ele>
        <time>2022-10-28T13:13:50Z</time>
      </trkpt>
      <trkpt lat="44.41932" lon="3.75788">
        <ele>1615.6</ele>
        <time>2022-10-28T13:13:51Z</time>
      </trkpt>
      <trkpt lat="44.41932" lon="3.75794">
        <ele>1615.4</ele>
        <time>2022-10-28T13:13:52Z</time>
      </trkpt>
      <trkpt lat="44.41932" lon="3.75799">
        <ele>1615.2</ele>
        <time>2022-10-28T13:13:53Z</time>
      </trkpt>
      <trkpt lat="44.41932" lon="3.75804">
        <ele>1615.2</ele>
        <time>2022-10-28T13:13:54Z</time>
      </trkpt>
      <trkpt lat="44.41933" lon="3.75809">
        <ele>1615</ele>
        <time>2022-10-28T13:13:55Z</time>
      </trkpt>
      <trkpt lat="44.41933" lon="3.75814">
        <ele>1615</ele>
        <time>2022-10-28T13:13:56Z</time>
      </trkpt>
      <trkpt lat="44.41933" lon="3.75819">
        <ele>1614.8</ele>
        <time>2022-10-28T13:13:57Z</time>
      </trkpt>
      <trkpt lat="44.41933" lon="3.75824">
        <ele>1614.8</ele>
        <time>2022-10-28T13:13:58Z</time>
      </trkpt>
      <trkpt lat="44.41933" lon="3.75829">
        <ele>1614.6</ele>
        <time>2022-10-28T13:13:59Z</time>
      </trkpt>
      <trkpt lat="44.41932" lon="3.75834">
        <ele>1614.6</ele>
        <time>2022-10-28T13:14:00Z</time>
      </trkpt>
      <trkpt lat="44.41932" lon="3.7584">
        <ele>1614.4</ele>
        <time>2022-10-28T13:14:01Z</time>
      </trkpt>
      <trkpt lat="44.41932" lon="3.75845">
        <ele>1614.4</ele>
        <time>2022-10-28T13:14:02Z</time>
      </trkpt>
      <trkpt lat="44.41932" lon="3.75851">
        <ele>1614.4</ele>
        <time>2022-10-28T13:14:03Z</time>
      </trkpt>
      <trkpt lat="44.41932" lon="3.75857">
        <ele>1614.2</ele>
        <time>2022-10-28T13:14:04Z</time>
      </trkpt>
      <trkpt lat="44.41931" lon="3.75862">
        <ele>1614.2</ele>
        <time>2022-10-28T13:14:05Z</time>
      </trkpt>
      <trkpt lat="44.41931" lon="3.75868">
        <ele>1614</ele>
        <time>2022-10-28T13:14:06Z</time>
      </trkpt>
      <trkpt lat="44.41931" lon="3.75873">
        <ele>1614</ele>
        <time>2022-10-28T13:14:07Z</time>
      </trkpt>
      <trkpt lat="44.41931" lon="3.75879">
        <ele>1613.8</ele>
        <time>2022-10-28T13:14:08Z</time>
      </trkpt>
      <trkpt lat="44.4193" lon="3.75884">
        <ele>1613.8</ele>
        <time>2022-10-28T13:14:09Z</time>
      </trkpt>
      <trkpt lat="44.41931" lon="3.7589">
        <ele>1613.8</ele>
        <time>2022-10-28T13:14:10Z</time>
      </trkpt>
      <trkpt lat="44.41931" lon="3.75895">
        <ele>1613.8</ele>
        <time>2022-10-28T13:14:11Z</time>
      </trkpt>
      <trkpt lat="44.41931" lon="3.759">
        <ele>1613.8</ele>
        <time>2022-10-28T13:14:12Z</time>
      </trkpt>
      <trkpt lat="44.41931" lon="3.75905">
        <ele>1613.8</ele>
        <time>2022-10-28T13:14:13Z</time>
      </trkpt>
      <trkpt lat="44.41931" lon="3.7591">
        <ele>1613.8</ele>
        <time>2022-10-28T13:14:14Z</time>
      </trkpt>
      <trkpt lat="44.41931" lon="3.75915">
        <ele>1613.8</ele>
        <time>2022-10-28T13:14:15Z</time>
      </trkpt>
      <trkpt lat="44.41931" lon="3.7592">
        <ele>1613.6</ele>
        <time>2022-10-28T13:14:16Z</time>
      </trkpt>
      <trkpt lat="44.41931" lon="3.75926">
        <ele>1613.4</ele>
        <time>2022-10-28T13:14:17Z</time>
      </trkpt>
      <trkpt lat="44.41931" lon="3.75932">
        <ele>1613.4</ele>
        <time>2022-10-28T13:14:18Z</time>
      </trkpt>
      <trkpt lat="44.41931" lon="3.75938">
        <ele>1613.2</ele>
        <time>2022-10-28T13:14:19Z</time>
      </trkpt>
      <trkpt lat="44.41931" lon="3.75943">
        <ele>1613</ele>
        <time>2022-10-28T13:14:20Z</time>
      </trkpt>
      <trkpt lat="44.4193" lon="3.75949">
        <ele>1613</ele>
        <time>2022-10-28T13:14:21Z</time>
      </trkpt>
      <trkpt lat="44.41929" lon="3.75955">
        <ele>1612.8</ele>
        <time>2022-10-28T13:14:22Z</time>
      </trkpt>
      <trkpt lat="44.41929" lon="3.75961">
        <ele>1612.6</ele>
        <time>2022-10-28T13:14:23Z</time>
      </trkpt>
      <trkpt lat="44.4193" lon="3.75967">
        <ele>1612.6</ele>
        <time>2022-10-28T13:14:24Z</time>
      </trkpt>
      <trkpt lat="44.41931" lon="3.75972">
        <ele>1612.6</ele>
        <time>2022-10-28T13:14:25Z</time>
      </trkpt>
      <trkpt lat="44.41931" lon="3.75978">
        <ele>1612.4</ele>
        <time>2022-10-28T13:14:26Z</time>
      </trkpt>
      <trkpt lat="44.41931" lon="3.75984">
        <ele>1612.4</ele>
        <time>2022-10-28T13:14:27Z</time>
      </trkpt>
      <trkpt lat="44.4193" lon="3.7599">
        <ele>1612.4</ele>
        <time>2022-10-28T13:14:28Z</time>
      </trkpt>
      <trkpt lat="44.4193" lon="3.75994">
        <ele>1612.2</ele>
        <time>2022-10-28T13:14:29Z</time>
      </trkpt>
      <trkpt lat="44.4193" lon="3.75997">
        <ele>1612.2</ele>
        <time>2022-10-28T13:14:30Z</time>
      </trkpt>
      <trkpt lat="44.41929" lon="3.75998">
        <ele>1612</ele>
        <time>2022-10-28T13:14:31Z</time>
      </trkpt>
      <trkpt lat="44.41929" lon="3.75999">
        <ele>1612</ele>
        <time>2022-10-28T13:14:32Z</time>
      </trkpt>
      <trkpt lat="44.4193" lon="3.76001">
        <ele>1611.6</ele>
        <time>2022-10-28T13:14:57Z</time>
      </trkpt>
      <trkpt lat="44.4193" lon="3.76004">
        <ele>1611.6</ele>
        <time>2022-10-28T13:14:58Z</time>
      </trkpt>
      <trkpt lat="44.41929" lon="3.76009">
        <ele>1611.6</ele>
        <time>2022-10-28T13:14:59Z</time>
      </trkpt>
      <trkpt lat="44.41929" lon="3.76015">
        <ele>1611.6</ele>
        <time>2022-10-28T13:15:00Z</time>
      </trkpt>
      <trkpt lat="44.41929" lon="3.76019">
        <ele>1611.4</ele>
        <time>2022-10-28T13:15:01Z</time>
      </trkpt>
      <trkpt lat="44.41929" lon="3.76025">
        <ele>1611.4</ele>
        <time>2022-10-28T13:15:02Z</time>
      </trkpt>
      <trkpt lat="44.41928" lon="3.7603">
        <ele>1611.2</ele>
        <time>2022-10-28T13:15:03Z</time>
      </trkpt>
      <trkpt lat="44.41928" lon="3.76036">
        <ele>1611.2</ele>
        <time>2022-10-28T13:15:04Z</time>
      </trkpt>
      <trkpt lat="44.41927" lon="3.76042">
        <ele>1611</ele>
        <time>2022-10-28T13:15:05Z</time>
      </trkpt>
      <trkpt lat="44.41927" lon="3.76048">
        <ele>1610.8</ele>
        <time>2022-10-28T13:15:06Z</time>
      </trkpt>
      <trkpt lat="44.41926" lon="3.76054">
        <ele>1610.8</ele>
        <time>2022-10-28T13:15:07Z</time>
      </trkpt>
      <trkpt lat="44.41926" lon="3.76059">
        <ele>1610.6</ele>
        <time>2022-10-28T13:15:08Z</time>
      </trkpt>
      <trkpt lat="44.41925" lon="3.76066">
        <ele>1610.4</ele>
        <time>2022-10-28T13:15:09Z</time>
      </trkpt>
      <trkpt lat="44.41924" lon="3.76072">
        <ele>1610.4</ele>
        <time>2022-10-28T13:15:10Z</time>
      </trkpt>
      <trkpt lat="44.41923" lon="3.76078">
        <ele>1610.2</ele>
        <time>2022-10-28T13:15:11Z</time>
      </trkpt>
      <trkpt lat="44.41923" lon="3.76084">
        <ele>1610</ele>
        <time>2022-10-28T13:15:12Z</time>
      </trkpt>
      <trkpt lat="44.41922" lon="3.7609">
        <ele>1610</ele>
        <time>2022-10-28T13:15:13Z</time>
      </trkpt>
      <trkpt lat="44.41921" lon="3.76097">
        <ele>1609.8</ele>
        <time>2022-10-28T13:15:14Z</time>
      </trkpt>
      <trkpt lat="44.41921" lon="3.76103">
        <ele>1609.6</ele>
        <time>2022-10-28T13:15:15Z</time>
      </trkpt>
      <trkpt lat="44.41919" lon="3.76108">
        <ele>1609.6</ele>
        <time>2022-10-28T13:15:16Z</time>
      </trkpt>
      <trkpt lat="44.41919" lon="3.76114">
        <ele>1609.4</ele>
        <time>2022-10-28T13:15:17Z</time>
      </trkpt>
      <trkpt lat="44.41918" lon="3.7612">
        <ele>1609.2</ele>
        <time>2022-10-28T13:15:18Z</time>
      </trkpt>
      <trkpt lat="44.41917" lon="3.76126">
        <ele>1609.2</ele>
        <time>2022-10-28T13:15:19Z</time>
      </trkpt>
      <trkpt lat="44.41916" lon="3.76131">
        <ele>1609.2</ele>
        <time>2022-10-28T13:15:20Z</time>
      </trkpt>
      <trkpt lat="44.41915" lon="3.76138">
        <ele>1609</ele>
        <time>2022-10-28T13:15:21Z</time>
      </trkpt>
      <trkpt lat="44.41913" lon="3.76144">
        <ele>1608.8</ele>
        <time>2022-10-28T13:15:22Z</time>
      </trkpt>
      <trkpt lat="44.41911" lon="3.7615">
        <ele>1608.8</ele>
        <time>2022-10-28T13:15:23Z</time>
      </trkpt>
      <trkpt lat="44.4191" lon="3.76156">
        <ele>1608.8</ele>
        <time>2022-10-28T13:15:24Z</time>
      </trkpt>
      <trkpt lat="44.41908" lon="3.76162">
        <ele>1608.8</ele>
        <time>2022-10-28T13:15:25Z</time>
      </trkpt>
      <trkpt lat="44.41906" lon="3.76167">
        <ele>1608.8</ele>
        <time>2022-10-28T13:15:26Z</time>
      </trkpt>
      <trkpt lat="44.41905" lon="3.76173">
        <ele>1608.6</ele>
        <time>2022-10-28T13:15:27Z</time>
      </trkpt>
      <trkpt lat="44.41903" lon="3.76179">
        <ele>1608.6</ele>
        <time>2022-10-28T13:15:28Z</time>
      </trkpt>
      <trkpt lat="44.41901" lon="3.76184">
        <ele>1608.4</ele>
        <time>2022-10-28T13:15:29Z</time>
      </trkpt>
      <trkpt lat="44.41899" lon="3.7619">
        <ele>1608.4</ele>
        <time>2022-10-28T13:15:30Z</time>
      </trkpt>
      <trkpt lat="44.41897" lon="3.76197">
        <ele>1608.2</ele>
        <time>2022-10-28T13:15:31Z</time>
      </trkpt>
      <trkpt lat="44.41896" lon="3.76202">
        <ele>1608.2</ele>
        <time>2022-10-28T13:15:32Z</time>
      </trkpt>
      <trkpt lat="44.41894" lon="3.76208">
        <ele>1608.2</ele>
        <time>2022-10-28T13:15:33Z</time>
      </trkpt>
      <trkpt lat="44.41893" lon="3.76215">
        <ele>1608</ele>
        <time>2022-10-28T13:15:34Z</time>
      </trkpt>
      <trkpt lat="44.41891" lon="3.76221">
        <ele>1608</ele>
        <time>2022-10-28T13:15:35Z</time>
      </trkpt>
      <trkpt lat="44.41889" lon="3.76227">
        <ele>1608</ele>
        <time>2022-10-28T13:15:36Z</time>
      </trkpt>
      <trkpt lat="44.41888" lon="3.76233">
        <ele>1607.8</ele>
        <time>2022-10-28T13:15:37Z</time>
      </trkpt>
      <trkpt lat="44.41886" lon="3.7624">
        <ele>1607.6</ele>
        <time>2022-10-28T13:15:38Z</time>
      </trkpt>
      <trkpt lat="44.41884" lon="3.76246">
        <ele>1607.6</ele>
        <time>2022-10-28T13:15:39Z</time>
      </trkpt>
      <trkpt lat="44.41882" lon="3.76252">
        <ele>1607.2</ele>
        <time>2022-10-28T13:15:40Z</time>
      </trkpt>
      <trkpt lat="44.4188" lon="3.76259">
        <ele>1607</ele>
        <time>2022-10-28T13:15:41Z</time>
      </trkpt>
      <trkpt lat="44.41878" lon="3.76265">
        <ele>1606.8</ele>
        <time>2022-10-28T13:15:42Z</time>
      </trkpt>
      <trkpt lat="44.41876" lon="3.76272">
        <ele>1606.8</ele>
        <time>2022-10-28T13:15:43Z</time>
      </trkpt>
      <trkpt lat="44.41874" lon="3.76278">
        <ele>1606.4</ele>
        <time>2022-10-28T13:15:44Z</time>
      </trkpt>
      <trkpt lat="44.41872" lon="3.76284">
        <ele>1606.2</ele>
        <time>2022-10-28T13:15:45Z</time>
      </trkpt>
      <trkpt lat="44.4187" lon="3.7629">
        <ele>1606</ele>
        <time>2022-10-28T13:15:46Z</time>
      </trkpt>
      <trkpt lat="44.41867" lon="3.76297">
        <ele>1605.8</ele>
        <time>2022-10-28T13:15:47Z</time>
      </trkpt>
      <trkpt lat="44.41864" lon="3.76303">
        <ele>1605.4</ele>
        <time>2022-10-28T13:15:48Z</time>
      </trkpt>
      <trkpt lat="44.41862" lon="3.7631">
        <ele>1605.2</ele>
        <time>2022-10-28T13:15:49Z</time>
      </trkpt>
      <trkpt lat="44.41859" lon="3.76317">
        <ele>1604.6</ele>
        <time>2022-10-28T13:15:50Z</time>
      </trkpt>
      <trkpt lat="44.41857" lon="3.76324">
        <ele>1604.4</ele>
        <time>2022-10-28T13:15:51Z</time>
      </trkpt>
      <trkpt lat="44.41855" lon="3.76331">
        <ele>1604</ele>
        <time>2022-10-28T13:15:52Z</time>
      </trkpt>
      <trkpt lat="44.41852" lon="3.76338">
        <ele>1603.6</ele>
        <time>2022-10-28T13:15:53Z</time>
      </trkpt>
      <trkpt lat="44.4185" lon="3.76344">
        <ele>1603.2</ele>
        <time>2022-10-28T13:15:54Z</time>
      </trkpt>
      <trkpt lat="44.41848" lon="3.7635">
        <ele>1602.8</ele>
        <time>2022-10-28T13:15:55Z</time>
      </trkpt>
      <trkpt lat="44.41846" lon="3.76356">
        <ele>1602.6</ele>
        <time>2022-10-28T13:15:56Z</time>
      </trkpt>
      <trkpt lat="44.41844" lon="3.76362">
        <ele>1602.2</ele>
        <time>2022-10-28T13:15:57Z</time>
      </trkpt>
      <trkpt lat="44.41843" lon="3.76368">
        <ele>1601.8</ele>
        <time>2022-10-28T13:15:58Z</time>
      </trkpt>
      <trkpt lat="44.41841" lon="3.76375">
        <ele>1601.6</ele>
        <time>2022-10-28T13:15:59Z</time>
      </trkpt>
      <trkpt lat="44.4184" lon="3.76382">
        <ele>1601.4</ele>
        <time>2022-10-28T13:16:00Z</time>
      </trkpt>
      <trkpt lat="44.41838" lon="3.7639">
        <ele>1601.2</ele>
        <time>2022-10-28T13:16:01Z</time>
      </trkpt>
      <trkpt lat="44.41836" lon="3.76397">
        <ele>1601</ele>
        <time>2022-10-28T13:16:02Z</time>
      </trkpt>
      <trkpt lat="44.41834" lon="3.76404">
        <ele>1600.8</ele>
        <time>2022-10-28T13:16:03Z</time>
      </trkpt>
      <trkpt lat="44.41832" lon="3.76412">
        <ele>1600.4</ele>
        <time>2022-10-28T13:16:04Z</time>
      </trkpt>
      <trkpt lat="44.41831" lon="3.76419">
        <ele>1600</ele>
        <time>2022-10-28T13:16:05Z</time>
      </trkpt>
      <trkpt lat="44.4183" lon="3.76425">
        <ele>1599.6</ele>
        <time>2022-10-28T13:16:06Z</time>
      </trkpt>
      <trkpt lat="44.41829" lon="3.76432">
        <ele>1599.2</ele>
        <time>2022-10-28T13:16:07Z</time>
      </trkpt>
      <trkpt lat="44.41828" lon="3.76437">
        <ele>1598.8</ele>
        <time>2022-10-28T13:16:08Z</time>
      </trkpt>
      <trkpt lat="44.41827" lon="3.76443">
        <ele>1598.4</ele>
        <time>2022-10-28T13:16:09Z</time>
      </trkpt>
      <trkpt lat="44.41827" lon="3.76449">
        <ele>1598.2</ele>
        <time>2022-10-28T13:16:10Z</time>
      </trkpt>
      <trkpt lat="44.41826" lon="3.76456">
        <ele>1597.8</ele>
        <time>2022-10-28T13:16:11Z</time>
      </trkpt>
      <trkpt lat="44.41824" lon="3.76463">
        <ele>1597.6</ele>
        <time>2022-10-28T13:16:12Z</time>
      </trkpt>
      <trkpt lat="44.41823" lon="3.7647">
        <ele>1597.4</ele>
        <time>2022-10-28T13:16:13Z</time>
      </trkpt>
      <trkpt lat="44.41821" lon="3.76479">
        <ele>1597</ele>
        <time>2022-10-28T13:16:14Z</time>
      </trkpt>
      <trkpt lat="44.41821" lon="3.76487">
        <ele>1596.6</ele>
        <time>2022-10-28T13:16:15Z</time>
      </trkpt>
      <trkpt lat="44.4182" lon="3.76496">
        <ele>1596.4</ele>
        <time>2022-10-28T13:16:16Z</time>
      </trkpt>
      <trkpt lat="44.41819" lon="3.76505">
        <ele>1595.8</ele>
        <time>2022-10-28T13:16:17Z</time>
      </trkpt>
      <trkpt lat="44.41818" lon="3.76514">
        <ele>1595.4</ele>
        <time>2022-10-28T13:16:18Z</time>
      </trkpt>
      <trkpt lat="44.41817" lon="3.76523">
        <ele>1595</ele>
        <time>2022-10-28T13:16:19Z</time>
      </trkpt>
      <trkpt lat="44.41816" lon="3.76532">
        <ele>1594.6</ele>
        <time>2022-10-28T13:16:20Z</time>
      </trkpt>
      <trkpt lat="44.41815" lon="3.76541">
        <ele>1594</ele>
        <time>2022-10-28T13:16:21Z</time>
      </trkpt>
      <trkpt lat="44.41814" lon="3.7655">
        <ele>1593.6</ele>
        <time>2022-10-28T13:16:22Z</time>
      </trkpt>
      <trkpt lat="44.41814" lon="3.76559">
        <ele>1593.2</ele>
        <time>2022-10-28T13:16:23Z</time>
      </trkpt>
      <trkpt lat="44.41814" lon="3.76567">
        <ele>1592.6</ele>
        <time>2022-10-28T13:16:24Z</time>
      </trkpt>
      <trkpt lat="44.41814" lon="3.76576">
        <ele>1592.2</ele>
        <time>2022-10-28T13:16:25Z</time>
      </trkpt>
      <trkpt lat="44.41813" lon="3.76583">
        <ele>1591.8</ele>
        <time>2022-10-28T13:16:26Z</time>
      </trkpt>
      <trkpt lat="44.41813" lon="3.7659">
        <ele>1591.4</ele>
        <time>2022-10-28T13:16:27Z</time>
      </trkpt>
      <trkpt lat="44.41813" lon="3.76597">
        <ele>1591.2</ele>
        <time>2022-10-28T13:16:28Z</time>
      </trkpt>
      <trkpt lat="44.41813" lon="3.76605">
        <ele>1590.8</ele>
        <time>2022-10-28T13:16:29Z</time>
      </trkpt>
      <trkpt lat="44.41812" lon="3.76613">
        <ele>1590.4</ele>
        <time>2022-10-28T13:16:30Z</time>
      </trkpt>
      <trkpt lat="44.41812" lon="3.7662">
        <ele>1589.8</ele>
        <time>2022-10-28T13:16:31Z</time>
      </trkpt>
      <trkpt lat="44.41813" lon="3.76628">
        <ele>1589.6</ele>
        <time>2022-10-28T13:16:32Z</time>
      </trkpt>
      <trkpt lat="44.41813" lon="3.76636">
        <ele>1589.2</ele>
        <time>2022-10-28T13:16:33Z</time>
      </trkpt>
      <trkpt lat="44.41814" lon="3.76645">
        <ele>1589</ele>
        <time>2022-10-28T13:16:34Z</time>
      </trkpt>
      <trkpt lat="44.41815" lon="3.76653">
        <ele>1588.6</ele>
        <time>2022-10-28T13:16:35Z</time>
      </trkpt>
      <trkpt lat="44.41815" lon="3.76662">
        <ele>1588</ele>
        <time>2022-10-28T13:16:36Z</time>
      </trkpt>
      <trkpt lat="44.41816" lon="3.76671">
        <ele>1587.6</ele>
        <time>2022-10-28T13:16:37Z</time>
      </trkpt>
      <trkpt lat="44.41817" lon="3.76679">
        <ele>1587</ele>
        <time>2022-10-28T13:16:38Z</time>
      </trkpt>
      <trkpt lat="44.41818" lon="3.76686">
        <ele>1586.4</ele>
        <time>2022-10-28T13:16:39Z</time>
      </trkpt>
      <trkpt lat="44.41819" lon="3.76693">
        <ele>1586</ele>
        <time>2022-10-28T13:16:40Z</time>
      </trkpt>
      <trkpt lat="44.41821" lon="3.76701">
        <ele>1585.6</ele>
        <time>2022-10-28T13:16:41Z</time>
      </trkpt>
      <trkpt lat="44.41821" lon="3.76708">
        <ele>1585.2</ele>
        <time>2022-10-28T13:16:42Z</time>
      </trkpt>
      <trkpt lat="44.41822" lon="3.76715">
        <ele>1584.8</ele>
        <time>2022-10-28T13:16:43Z</time>
      </trkpt>
      <trkpt lat="44.41823" lon="3.7672">
        <ele>1584.6</ele>
        <time>2022-10-28T13:16:44Z</time>
      </trkpt>
      <trkpt lat="44.41824" lon="3.76725">
        <ele>1584.2</ele>
        <time>2022-10-28T13:16:45Z</time>
      </trkpt>
      <trkpt lat="44.41825" lon="3.7673">
        <ele>1584</ele>
        <time>2022-10-28T13:16:46Z</time>
      </trkpt>
      <trkpt lat="44.41825" lon="3.76736">
        <ele>1583.6</ele>
        <time>2022-10-28T13:16:47Z</time>
      </trkpt>
      <trkpt lat="44.41826" lon="3.76741">
        <ele>1583.4</ele>
        <time>2022-10-28T13:16:48Z</time>
      </trkpt>
      <trkpt lat="44.41828" lon="3.76747">
        <ele>1583.2</ele>
        <time>2022-10-28T13:16:49Z</time>
      </trkpt>
      <trkpt lat="44.4183" lon="3.76752">
        <ele>1583</ele>
        <time>2022-10-28T13:16:50Z</time>
      </trkpt>
      <trkpt lat="44.41833" lon="3.76757">
        <ele>1582.8</ele>
        <time>2022-10-28T13:16:51Z</time>
      </trkpt>
      <trkpt lat="44.41836" lon="3.76761">
        <ele>1582.6</ele>
        <time>2022-10-28T13:16:52Z</time>
      </trkpt>
      <trkpt lat="44.41839" lon="3.76766">
        <ele>1582.4</ele>
        <time>2022-10-28T13:16:53Z</time>
      </trkpt>
      <trkpt lat="44.41843" lon="3.76771">
        <ele>1582.4</ele>
        <time>2022-10-28T13:16:54Z</time>
      </trkpt>
      <trkpt lat="44.41846" lon="3.76776">
        <ele>1582.2</ele>
        <time>2022-10-28T13:16:55Z</time>
      </trkpt>
      <trkpt lat="44.4185" lon="3.76781">
        <ele>1582</ele>
        <time>2022-10-28T13:16:56Z</time>
      </trkpt>
      <trkpt lat="44.41854" lon="3.76785">
        <ele>1581.8</ele>
        <time>2022-10-28T13:16:57Z</time>
      </trkpt>
      <trkpt lat="44.41859" lon="3.7679">
        <ele>1581.6</ele>
        <time>2022-10-28T13:16:58Z</time>
      </trkpt>
      <trkpt lat="44.41864" lon="3.76793">
        <ele>1581.4</ele>
        <time>2022-10-28T13:16:59Z</time>
      </trkpt>
      <trkpt lat="44.4187" lon="3.76796">
        <ele>1581.2</ele>
        <time>2022-10-28T13:17:00Z</time>
      </trkpt>
      <trkpt lat="44.41875" lon="3.76798">
        <ele>1581</ele>
        <time>2022-10-28T13:17:01Z</time>
      </trkpt>
      <trkpt lat="44.41881" lon="3.768">
        <ele>1580.8</ele>
        <time>2022-10-28T13:17:02Z</time>
      </trkpt>
      <trkpt lat="44.41887" lon="3.76802">
        <ele>1580.6</ele>
        <time>2022-10-28T13:17:03Z</time>
      </trkpt>
      <trkpt lat="44.41892" lon="3.76804">
        <ele>1580.4</ele>
        <time>2022-10-28T13:17:04Z</time>
      </trkpt>
      <trkpt lat="44.41899" lon="3.76806">
        <ele>1580.2</ele>
        <time>2022-10-28T13:17:05Z</time>
      </trkpt>
      <trkpt lat="44.41906" lon="3.76808">
        <ele>1580</ele>
        <time>2022-10-28T13:17:06Z</time>
      </trkpt>
      <trkpt lat="44.41913" lon="3.7681">
        <ele>1579.6</ele>
        <time>2022-10-28T13:17:07Z</time>
      </trkpt>
      <trkpt lat="44.41919" lon="3.76812">
        <ele>1579.2</ele>
        <time>2022-10-28T13:17:08Z</time>
      </trkpt>
      <trkpt lat="44.41925" lon="3.76813">
        <ele>1578.8</ele>
        <time>2022-10-28T13:17:09Z</time>
      </trkpt>
      <trkpt lat="44.41931" lon="3.76814">
        <ele>1578.6</ele>
        <time>2022-10-28T13:17:10Z</time>
      </trkpt>
      <trkpt lat="44.41938" lon="3.76816">
        <ele>1578.2</ele>
        <time>2022-10-28T13:17:11Z</time>
      </trkpt>
      <trkpt lat="44.41944" lon="3.76818">
        <ele>1577.8</ele>
        <time>2022-10-28T13:17:12Z</time>
      </trkpt>
      <trkpt lat="44.41951" lon="3.7682">
        <ele>1577.4</ele>
        <time>2022-10-28T13:17:13Z</time>
      </trkpt>
      <trkpt lat="44.41956" lon="3.76821">
        <ele>1577.2</ele>
        <time>2022-10-28T13:17:14Z</time>
      </trkpt>
      <trkpt lat="44.41961" lon="3.76823">
        <ele>1576.8</ele>
        <time>2022-10-28T13:17:15Z</time>
      </trkpt>
      <trkpt lat="44.41967" lon="3.76825">
        <ele>1576.6</ele>
        <time>2022-10-28T13:17:16Z</time>
      </trkpt>
      <trkpt lat="44.41972" lon="3.76827">
        <ele>1576.2</ele>
        <time>2022-10-28T13:17:17Z</time>
      </trkpt>
      <trkpt lat="44.41978" lon="3.76829">
        <ele>1575.8</ele>
        <time>2022-10-28T13:17:18Z</time>
      </trkpt>
      <trkpt lat="44.41985" lon="3.76831">
        <ele>1575.4</ele>
        <time>2022-10-28T13:17:19Z</time>
      </trkpt>
      <trkpt lat="44.41991" lon="3.76832">
        <ele>1575</ele>
        <time>2022-10-28T13:17:20Z</time>
      </trkpt>
      <trkpt lat="44.41997" lon="3.76833">
        <ele>1574.4</ele>
        <time>2022-10-28T13:17:21Z</time>
      </trkpt>
      <trkpt lat="44.42004" lon="3.76834">
        <ele>1574</ele>
        <time>2022-10-28T13:17:22Z</time>
      </trkpt>
      <trkpt lat="44.4201" lon="3.76836">
        <ele>1573.6</ele>
        <time>2022-10-28T13:17:23Z</time>
      </trkpt>
      <trkpt lat="44.42018" lon="3.76837">
        <ele>1573.2</ele>
        <time>2022-10-28T13:17:24Z</time>
      </trkpt>
      <trkpt lat="44.42025" lon="3.76839">
        <ele>1572.6</ele>
        <time>2022-10-28T13:17:25Z</time>
      </trkpt>
      <trkpt lat="44.42033" lon="3.76841">
        <ele>1572.2</ele>
        <time>2022-10-28T13:17:26Z</time>
      </trkpt>
      <trkpt lat="44.42042" lon="3.76844">
        <ele>1571.6</ele>
        <time>2022-10-28T13:17:27Z</time>
      </trkpt>
      <trkpt lat="44.4205" lon="3.76847">
        <ele>1571</ele>
        <time>2022-10-28T13:17:28Z</time>
      </trkpt>
      <trkpt lat="44.42059" lon="3.76849">
        <ele>1570.6</ele>
        <time>2022-10-28T13:17:29Z</time>
      </trkpt>
      <trkpt lat="44.42068" lon="3.76851">
        <ele>1570.2</ele>
        <time>2022-10-28T13:17:30Z</time>
      </trkpt>
      <trkpt lat="44.42078" lon="3.76853">
        <ele>1569.8</ele>
        <time>2022-10-28T13:17:31Z</time>
      </trkpt>
      <trkpt lat="44.42088" lon="3.76854">
        <ele>1569.2</ele>
        <time>2022-10-28T13:17:32Z</time>
      </trkpt>
      <trkpt lat="44.42097" lon="3.76856">
        <ele>1568.8</ele>
        <time>2022-10-28T13:17:33Z</time>
      </trkpt>
      <trkpt lat="44.42106" lon="3.76858">
        <ele>1568.4</ele>
        <time>2022-10-28T13:17:34Z</time>
      </trkpt>
      <trkpt lat="44.42116" lon="3.7686">
        <ele>1568</ele>
        <time>2022-10-28T13:17:35Z</time>
      </trkpt>
      <trkpt lat="44.42126" lon="3.76863">
        <ele>1567.4</ele>
        <time>2022-10-28T13:17:36Z</time>
      </trkpt>
      <trkpt lat="44.42136" lon="3.76865">
        <ele>1567</ele>
        <time>2022-10-28T13:17:37Z</time>
      </trkpt>
      <trkpt lat="44.42145" lon="3.76867">
        <ele>1566.6</ele>
        <time>2022-10-28T13:17:38Z</time>
      </trkpt>
      <trkpt lat="44.42155" lon="3.76869">
        <ele>1566.2</ele>
        <time>2022-10-28T13:17:39Z</time>
      </trkpt>
      <trkpt lat="44.42165" lon="3.76871">
        <ele>1565.6</ele>
        <time>2022-10-28T13:17:40Z</time>
      </trkpt>
      <trkpt lat="44.42175" lon="3.76874">
        <ele>1565.2</ele>
        <time>2022-10-28T13:17:41Z</time>
      </trkpt>
      <trkpt lat="44.42184" lon="3.76875">
        <ele>1564.8</ele>
        <time>2022-10-28T13:17:42Z</time>
      </trkpt>
      <trkpt lat="44.42194" lon="3.76877">
        <ele>1564.4</ele>
        <time>2022-10-28T13:17:43Z</time>
      </trkpt>
      <trkpt lat="44.42203" lon="3.7688">
        <ele>1564</ele>
        <time>2022-10-28T13:17:44Z</time>
      </trkpt>
      <trkpt lat="44.42212" lon="3.76881">
        <ele>1563.8</ele>
        <time>2022-10-28T13:17:45Z</time>
      </trkpt>
      <trkpt lat="44.42221" lon="3.76883">
        <ele>1563.4</ele>
        <time>2022-10-28T13:17:46Z</time>
      </trkpt>
      <trkpt lat="44.4223" lon="3.76883">
        <ele>1563.2</ele>
        <time>2022-10-28T13:17:47Z</time>
      </trkpt>
      <trkpt lat="44.42239" lon="3.76883">
        <ele>1562.6</ele>
        <time>2022-10-28T13:17:48Z</time>
      </trkpt>
      <trkpt lat="44.42247" lon="3.76881">
        <ele>1562.4</ele>
        <time>2022-10-28T13:17:49Z</time>
      </trkpt>
      <trkpt lat="44.42255" lon="3.76879">
        <ele>1562.2</ele>
        <time>2022-10-28T13:17:50Z</time>
      </trkpt>
      <trkpt lat="44.42263" lon="3.76877">
        <ele>1562</ele>
        <time>2022-10-28T13:17:51Z</time>
      </trkpt>
      <trkpt lat="44.42271" lon="3.76875">
        <ele>1561.8</ele>
        <time>2022-10-28T13:17:52Z</time>
      </trkpt>
      <trkpt lat="44.42279" lon="3.76872">
        <ele>1561.6</ele>
        <time>2022-10-28T13:17:53Z</time>
      </trkpt>
      <trkpt lat="44.42288" lon="3.76871">
        <ele>1561.2</ele>
        <time>2022-10-28T13:17:54Z</time>
      </trkpt>
      <trkpt lat="44.42295" lon="3.76869">
        <ele>1560.8</ele>
        <time>2022-10-28T13:17:55Z</time>
      </trkpt>
      <trkpt lat="44.42303" lon="3.76867">
        <ele>1560.6</ele>
        <time>2022-10-28T13:17:56Z</time>
      </trkpt>
      <trkpt lat="44.42309" lon="3.76866">
        <ele>1560.2</ele>
        <time>2022-10-28T13:17:57Z</time>
      </trkpt>
      <trkpt lat="44.42315" lon="3.76865">
        <ele>1560</ele>
        <time>2022-10-28T13:17:58Z</time>
      </trkpt>
      <trkpt lat="44.42321" lon="3.76863">
        <ele>1559.6</ele>
        <time>2022-10-28T13:17:59Z</time>
      </trkpt>
      <trkpt lat="44.42326" lon="3.76861">
        <ele>1559.2</ele>
        <time>2022-10-28T13:18:00Z</time>
      </trkpt>
      <trkpt lat="44.42331" lon="3.76858">
        <ele>1558.8</ele>
        <time>2022-10-28T13:18:01Z</time>
      </trkpt>
      <trkpt lat="44.42336" lon="3.76855">
        <ele>1558.4</ele>
        <time>2022-10-28T13:18:02Z</time>
      </trkpt>
      <trkpt lat="44.42341" lon="3.76853">
        <ele>1558.2</ele>
        <time>2022-10-28T13:18:03Z</time>
      </trkpt>
      <trkpt lat="44.42346" lon="3.7685">
        <ele>1557.8</ele>
        <time>2022-10-28T13:18:04Z</time>
      </trkpt>
      <trkpt lat="44.42351" lon="3.76848">
        <ele>1557.6</ele>
        <time>2022-10-28T13:18:05Z</time>
      </trkpt>
      <trkpt lat="44.42355" lon="3.76846">
        <ele>1557.2</ele>
        <time>2022-10-28T13:18:06Z</time>
      </trkpt>
      <trkpt lat="44.42359" lon="3.76844">
        <ele>1556.8</ele>
        <time>2022-10-28T13:18:07Z</time>
      </trkpt>
      <trkpt lat="44.42363" lon="3.76843">
        <ele>1556.4</ele>
        <time>2022-10-28T13:18:08Z</time>
      </trkpt>
      <trkpt lat="44.42366" lon="3.76843">
        <ele>1556.2</ele>
        <time>2022-10-28T13:18:09Z</time>
      </trkpt>
      <trkpt lat="44.42368" lon="3.76844">
        <ele>1556</ele>
        <time>2022-10-28T13:18:10Z</time>
      </trkpt>
      <trkpt lat="44.4237" lon="3.76845">
        <ele>1555.8</ele>
        <time>2022-10-28T13:18:11Z</time>
      </trkpt>
      <trkpt lat="44.42372" lon="3.76846">
        <ele>1555.6</ele>
        <time>2022-10-28T13:18:12Z</time>
      </trkpt>
      <trkpt lat="44.42373" lon="3.76848">
        <ele>1555.4</ele>
        <time>2022-10-28T13:18:13Z</time>
      </trkpt>
      <trkpt lat="44.42374" lon="3.7685">
        <ele>1555.2</ele>
        <time>2022-10-28T13:18:14Z</time>
      </trkpt>
      <trkpt lat="44.42375" lon="3.76852">
        <ele>1555</ele>
        <time>2022-10-28T13:18:15Z</time>
      </trkpt>
      <trkpt lat="44.42375" lon="3.76853">
        <ele>1554.6</ele>
        <time>2022-10-28T13:18:16Z</time>
      </trkpt>
      <trkpt lat="44.42377" lon="3.76856">
        <ele>1554.2</ele>
        <time>2022-10-28T13:18:17Z</time>
      </trkpt>
      <trkpt lat="44.42378" lon="3.76858">
        <ele>1554</ele>
        <time>2022-10-28T13:18:18Z</time>
      </trkpt>
      <trkpt lat="44.4238" lon="3.76861">
        <ele>1553.6</ele>
        <time>2022-10-28T13:18:19Z</time>
      </trkpt>
      <trkpt lat="44.42382" lon="3.76863">
        <ele>1553.4</ele>
        <time>2022-10-28T13:18:20Z</time>
      </trkpt>
      <trkpt lat="44.42383" lon="3.76866">
        <ele>1553.2</ele>
        <time>2022-10-28T13:18:21Z</time>
      </trkpt>
      <trkpt lat="44.42385" lon="3.76867">
        <ele>1553</ele>
        <time>2022-10-28T13:18:22Z</time>
      </trkpt>
      <trkpt lat="44.42386" lon="3.76868">
        <ele>1552.8</ele>
        <time>2022-10-28T13:18:23Z</time>
      </trkpt>
      <trkpt lat="44.42387" lon="3.76868">
        <ele>1552.8</ele>
        <time>2022-10-28T13:18:24Z</time>
      </trkpt>
      <trkpt lat="44.42389" lon="3.76869">
        <ele>1552.6</ele>
        <time>2022-10-28T13:18:25Z</time>
      </trkpt>
      <trkpt lat="44.4239" lon="3.76869">
        <ele>1552.6</ele>
        <time>2022-10-28T13:18:26Z</time>
      </trkpt>
      <trkpt lat="44.42392" lon="3.76868">
        <ele>1552.4</ele>
        <time>2022-10-28T13:18:27Z</time>
      </trkpt>
      <trkpt lat="44.42393" lon="3.76869">
        <ele>1552.4</ele>
        <time>2022-10-28T13:18:28Z</time>
      </trkpt>
      <trkpt lat="44.42394" lon="3.76869">
        <ele>1552.2</ele>
        <time>2022-10-28T13:18:29Z</time>
      </trkpt>
      <trkpt lat="44.42395" lon="3.7687">
        <ele>1552.2</ele>
        <time>2022-10-28T13:18:30Z</time>
      </trkpt>
      <trkpt lat="44.42395" lon="3.7687">
        <ele>1552</ele>
        <time>2022-10-28T13:18:31Z</time>
      </trkpt>
      <trkpt lat="44.42395" lon="3.7687">
        <ele>1552</ele>
        <time>2022-10-28T13:18:32Z</time>
      </trkpt>
      <trkpt lat="44.42396" lon="3.76869">
        <ele>1552</ele>
        <time>2022-10-28T13:18:33Z</time>
      </trkpt>
      <trkpt lat="44.42396" lon="3.76869">
        <ele>1552</ele>
        <time>2022-10-28T13:18:34Z</time>
      </trkpt>
      <trkpt lat="44.42396" lon="3.76869">
        <ele>1552</ele>
        <time>2022-10-28T13:18:35Z</time>
      </trkpt>
      <trkpt lat="44.42396" lon="3.76869">
        <ele>1552</ele>
        <time>2022-10-28T13:18:36Z</time>
      </trkpt>
      <trkpt lat="44.42398" lon="3.76873">
        <ele>1551.8</ele>
        <time>2022-10-28T13:18:43Z</time>
      </trkpt>
      <trkpt lat="44.42399" lon="3.76875">
        <ele>1551.8</ele>
        <time>2022-10-28T13:18:44Z</time>
      </trkpt>
      <trkpt lat="44.42399" lon="3.76878">
        <ele>1551.8</ele>
        <time>2022-10-28T13:18:45Z</time>
      </trkpt>
      <trkpt lat="44.424" lon="3.76881">
        <ele>1551.8</ele>
        <time>2022-10-28T13:18:46Z</time>
      </trkpt>
      <trkpt lat="44.42399" lon="3.76884">
        <ele>1551.8</ele>
        <time>2022-10-28T13:18:47Z</time>
      </trkpt>
      <trkpt lat="44.42399" lon="3.76887">
        <ele>1551.8</ele>
        <time>2022-10-28T13:18:48Z</time>
      </trkpt>
      <trkpt lat="44.42398" lon="3.7689">
        <ele>1551.8</ele>
        <time>2022-10-28T13:18:49Z</time>
      </trkpt>
      <trkpt lat="44.42396" lon="3.76893">
        <ele>1551.8</ele>
        <time>2022-10-28T13:18:50Z</time>
      </trkpt>
      <trkpt lat="44.42395" lon="3.76896">
        <ele>1551.8</ele>
        <time>2022-10-28T13:18:51Z</time>
      </trkpt>
      <trkpt lat="44.42394" lon="3.76899">
        <ele>1551.8</ele>
        <time>2022-10-28T13:18:52Z</time>
      </trkpt>
      <trkpt lat="44.42392" lon="3.76903">
        <ele>1552</ele>
        <time>2022-10-28T13:18:53Z</time>
      </trkpt>
      <trkpt lat="44.42392" lon="3.76906">
        <ele>1552</ele>
        <time>2022-10-28T13:18:54Z</time>
      </trkpt>
      <trkpt lat="44.42391" lon="3.7691">
        <ele>1551.8</ele>
        <time>2022-10-28T13:18:55Z</time>
      </trkpt>
      <trkpt lat="44.42391" lon="3.76915">
        <ele>1551.8</ele>
        <time>2022-10-28T13:18:56Z</time>
      </trkpt>
      <trkpt lat="44.42391" lon="3.76919">
        <ele>1551.8</ele>
        <time>2022-10-28T13:18:57Z</time>
      </trkpt>
      <trkpt lat="44.42392" lon="3.76924">
        <ele>1551.8</ele>
        <time>2022-10-28T13:18:58Z</time>
      </trkpt>
      <trkpt lat="44.42393" lon="3.7693">
        <ele>1551.6</ele>
        <time>2022-10-28T13:18:59Z</time>
      </trkpt>
      <trkpt lat="44.42395" lon="3.76936">
        <ele>1551.4</ele>
        <time>2022-10-28T13:19:00Z</time>
      </trkpt>
      <trkpt lat="44.42397" lon="3.76942">
        <ele>1551.2</ele>
        <time>2022-10-28T13:19:01Z</time>
      </trkpt>
      <trkpt lat="44.42398" lon="3.76949">
        <ele>1551.2</ele>
        <time>2022-10-28T13:19:02Z</time>
      </trkpt>
      <trkpt lat="44.424" lon="3.76956">
        <ele>1551</ele>
        <time>2022-10-28T13:19:03Z</time>
      </trkpt>
      <trkpt lat="44.42402" lon="3.76963">
        <ele>1551</ele>
        <time>2022-10-28T13:19:04Z</time>
      </trkpt>
      <trkpt lat="44.42403" lon="3.7697">
        <ele>1550.8</ele>
        <time>2022-10-28T13:19:05Z</time>
      </trkpt>
      <trkpt lat="44.42405" lon="3.76977">
        <ele>1550.8</ele>
        <time>2022-10-28T13:19:06Z</time>
      </trkpt>
      <trkpt lat="44.42407" lon="3.76984">
        <ele>1550.6</ele>
        <time>2022-10-28T13:19:07Z</time>
      </trkpt>
      <trkpt lat="44.42409" lon="3.7699">
        <ele>1550.6</ele>
        <time>2022-10-28T13:19:08Z</time>
      </trkpt>
      <trkpt lat="44.42411" lon="3.76995">
        <ele>1550.6</ele>
        <time>2022-10-28T13:19:09Z</time>
      </trkpt>
      <trkpt lat="44.42413" lon="3.77001">
        <ele>1550.6</ele>
        <time>2022-10-28T13:19:10Z</time>
      </trkpt>
      <trkpt lat="44.42415" lon="3.77006">
        <ele>1550.6</ele>
        <time>2022-10-28T13:19:11Z</time>
      </trkpt>
      <trkpt lat="44.42417" lon="3.77012">
        <ele>1550.4</ele>
        <time>2022-10-28T13:19:12Z</time>
      </trkpt>
      <trkpt lat="44.42419" lon="3.77018">
        <ele>1550.6</ele>
        <time>2022-10-28T13:19:13Z</time>
      </trkpt>
      <trkpt lat="44.4242" lon="3.77023">
        <ele>1550.4</ele>
        <time>2022-10-28T13:19:14Z</time>
      </trkpt>
      <trkpt lat="44.42422" lon="3.77029">
        <ele>1550.4</ele>
        <time>2022-10-28T13:19:15Z</time>
      </trkpt>
      <trkpt lat="44.42423" lon="3.77034">
        <ele>1550.4</ele>
        <time>2022-10-28T13:19:16Z</time>
      </trkpt>
      <trkpt lat="44.42425" lon="3.7704">
        <ele>1550.4</ele>
        <time>2022-10-28T13:19:17Z</time>
      </trkpt>
      <trkpt lat="44.42426" lon="3.77045">
        <ele>1550.4</ele>
        <time>2022-10-28T13:19:18Z</time>
      </trkpt>
      <trkpt lat="44.42428" lon="3.77051">
        <ele>1550.4</ele>
        <time>2022-10-28T13:19:19Z</time>
      </trkpt>
      <trkpt lat="44.4243" lon="3.77056">
        <ele>1550.4</ele>
        <time>2022-10-28T13:19:20Z</time>
      </trkpt>
      <trkpt lat="44.42431" lon="3.77061">
        <ele>1550.4</ele>
        <time>2022-10-28T13:19:21Z</time>
      </trkpt>
      <trkpt lat="44.42433" lon="3.77066">
        <ele>1550.4</ele>
        <time>2022-10-28T13:19:22Z</time>
      </trkpt>
      <trkpt lat="44.42435" lon="3.77071">
        <ele>1550.4</ele>
        <time>2022-10-28T13:19:23Z</time>
      </trkpt>
      <trkpt lat="44.42437" lon="3.77076">
        <ele>1550.4</ele>
        <time>2022-10-28T13:19:24Z</time>
      </trkpt>
      <trkpt lat="44.42438" lon="3.77081">
        <ele>1550.4</ele>
        <time>2022-10-28T13:19:25Z</time>
      </trkpt>
      <trkpt lat="44.42439" lon="3.77086">
        <ele>1550.4</ele>
        <time>2022-10-28T13:19:26Z</time>
      </trkpt>
      <trkpt lat="44.42441" lon="3.7709">
        <ele>1550.4</ele>
        <time>2022-10-28T13:19:27Z</time>
      </trkpt>
      <trkpt lat="44.42443" lon="3.77095">
        <ele>1550.4</ele>
        <time>2022-10-28T13:19:28Z</time>
      </trkpt>
      <trkpt lat="44.42444" lon="3.77099">
        <ele>1550.4</ele>
        <time>2022-10-28T13:19:29Z</time>
      </trkpt>
      <trkpt lat="44.42445" lon="3.77103">
        <ele>1550.6</ele>
        <time>2022-10-28T13:19:30Z</time>
      </trkpt>
      <trkpt lat="44.42446" lon="3.77108">
        <ele>1550.6</ele>
        <time>2022-10-28T13:19:31Z</time>
      </trkpt>
      <trkpt lat="44.42447" lon="3.77112">
        <ele>1550.8</ele>
        <time>2022-10-28T13:19:32Z</time>
      </trkpt>
      <trkpt lat="44.42449" lon="3.77116">
        <ele>1550.8</ele>
        <time>2022-10-28T13:19:33Z</time>
      </trkpt>
      <trkpt lat="44.4245" lon="3.7712">
        <ele>1551</ele>
        <time>2022-10-28T13:19:34Z</time>
      </trkpt>
      <trkpt lat="44.42452" lon="3.77125">
        <ele>1551.2</ele>
        <time>2022-10-28T13:19:35Z</time>
      </trkpt>
      <trkpt lat="44.42453" lon="3.77129">
        <ele>1551.2</ele>
        <time>2022-10-28T13:19:36Z</time>
      </trkpt>
      <trkpt lat="44.42455" lon="3.77133">
        <ele>1551.2</ele>
        <time>2022-10-28T13:19:37Z</time>
      </trkpt>
      <trkpt lat="44.42456" lon="3.77137">
        <ele>1551.4</ele>
        <time>2022-10-28T13:19:38Z</time>
      </trkpt>
      <trkpt lat="44.42456" lon="3.7714">
        <ele>1551.4</ele>
        <time>2022-10-28T13:19:39Z</time>
      </trkpt>
      <trkpt lat="44.42457" lon="3.77144">
        <ele>1551.8</ele>
        <time>2022-10-28T13:19:40Z</time>
      </trkpt>
      <trkpt lat="44.42458" lon="3.77148">
        <ele>1552</ele>
        <time>2022-10-28T13:19:41Z</time>
      </trkpt>
      <trkpt lat="44.4246" lon="3.77152">
        <ele>1552.2</ele>
        <time>2022-10-28T13:19:42Z</time>
      </trkpt>
      <trkpt lat="44.42461" lon="3.77156">
        <ele>1552.4</ele>
        <time>2022-10-28T13:19:43Z</time>
      </trkpt>
      <trkpt lat="44.42462" lon="3.77159">
        <ele>1552.6</ele>
        <time>2022-10-28T13:19:44Z</time>
      </trkpt>
      <trkpt lat="44.42463" lon="3.77162">
        <ele>1553</ele>
        <time>2022-10-28T13:19:45Z</time>
      </trkpt>
      <trkpt lat="44.42464" lon="3.77165">
        <ele>1553.2</ele>
        <time>2022-10-28T13:19:46Z</time>
      </trkpt>
      <trkpt lat="44.42465" lon="3.77168">
        <ele>1553.2</ele>
        <time>2022-10-28T13:19:47Z</time>
      </trkpt>
      <trkpt lat="44.42467" lon="3.77171">
        <ele>1553.4</ele>
        <time>2022-10-28T13:19:48Z</time>
      </trkpt>
      <trkpt lat="44.42468" lon="3.77174">
        <ele>1553.6</ele>
        <time>2022-10-28T13:19:49Z</time>
      </trkpt>
      <trkpt lat="44.42469" lon="3.77177">
        <ele>1553.6</ele>
        <time>2022-10-28T13:19:50Z</time>
      </trkpt>
      <trkpt lat="44.4247" lon="3.77179">
        <ele>1553.8</ele>
        <time>2022-10-28T13:19:51Z</time>
      </trkpt>
      <trkpt lat="44.42471" lon="3.77181">
        <ele>1553.8</ele>
        <time>2022-10-28T13:19:52Z</time>
      </trkpt>
      <trkpt lat="44.42472" lon="3.77183">
        <ele>1553.8</ele>
        <time>2022-10-28T13:19:53Z</time>
      </trkpt>
      <trkpt lat="44.42472" lon="3.77184">
        <ele>1553.8</ele>
        <time>2022-10-28T13:19:54Z</time>
      </trkpt>
      <trkpt lat="44.42472" lon="3.77186">
        <ele>1553.8</ele>
        <time>2022-10-28T13:19:55Z</time>
      </trkpt>
      <trkpt lat="44.42472" lon="3.77188">
        <ele>1553.8</ele>
        <time>2022-10-28T13:19:56Z</time>
      </trkpt>
      <trkpt lat="44.42472" lon="3.77189">
        <ele>1553.8</ele>
        <time>2022-10-28T13:19:57Z</time>
      </trkpt>
      <trkpt lat="44.42471" lon="3.7719">
        <ele>1553.8</ele>
        <time>2022-10-28T13:19:58Z</time>
      </trkpt>
      <trkpt lat="44.42471" lon="3.77191">
        <ele>1554</ele>
        <time>2022-10-28T13:19:59Z</time>
      </trkpt>
      <trkpt lat="44.4247" lon="3.7719">
        <ele>1554</ele>
        <time>2022-10-28T13:20:02Z</time>
      </trkpt>
      <trkpt lat="44.42469" lon="3.77188">
        <ele>1554</ele>
        <time>2022-10-28T13:20:03Z</time>
      </trkpt>
      <trkpt lat="44.42471" lon="3.77186">
        <ele>1554</ele>
        <time>2022-10-28T13:20:04Z</time>
      </trkpt>
      <trkpt lat="44.42472" lon="3.77186">
        <ele>1554</ele>
        <time>2022-10-28T13:20:05Z</time>
      </trkpt>
      <trkpt lat="44.42473" lon="3.77186">
        <ele>1554.2</ele>
        <time>2022-10-28T13:20:06Z</time>
      </trkpt>
      <trkpt lat="44.42473" lon="3.77186">
        <ele>1554.2</ele>
        <time>2022-10-28T13:20:07Z</time>
      </trkpt>
      <trkpt lat="44.42474" lon="3.77186">
        <ele>1554.2</ele>
        <time>2022-10-28T13:20:08Z</time>
      </trkpt>
      <trkpt lat="44.42474" lon="3.77186">
        <ele>1554.2</ele>
        <time>2022-10-28T13:20:09Z</time>
      </trkpt>
      <trkpt lat="44.42474" lon="3.77186">
        <ele>1554.2</ele>
        <time>2022-10-28T13:20:10Z</time>
      </trkpt>
      <trkpt lat="44.42474" lon="3.77186">
        <ele>1554.2</ele>
        <time>2022-10-28T13:20:11Z</time>
      </trkpt>
      <trkpt lat="44.42474" lon="3.77186">
        <ele>1554</ele>
        <time>2022-10-28T13:20:12Z</time>
      </trkpt>
      <trkpt lat="44.42474" lon="3.77186">
        <ele>1554</ele>
        <time>2022-10-28T13:20:13Z</time>
      </trkpt>
      <trkpt lat="44.42476" lon="3.77186">
        <ele>1554</ele>
        <time>2022-10-28T13:20:26Z</time>
      </trkpt>
      <trkpt lat="44.42478" lon="3.77187">
        <ele>1554</ele>
        <time>2022-10-28T13:20:27Z</time>
      </trkpt>
      <trkpt lat="44.4248" lon="3.77188">
        <ele>1554</ele>
        <time>2022-10-28T13:20:28Z</time>
      </trkpt>
      <trkpt lat="44.42482" lon="3.7719">
        <ele>1554</ele>
        <time>2022-10-28T13:20:29Z</time>
      </trkpt>
      <trkpt lat="44.42484" lon="3.77192">
        <ele>1554.2</ele>
        <time>2022-10-28T13:20:30Z</time>
      </trkpt>
      <trkpt lat="44.42486" lon="3.77193">
        <ele>1554.2</ele>
        <time>2022-10-28T13:20:31Z</time>
      </trkpt>
      <trkpt lat="44.42488" lon="3.77195">
        <ele>1554.4</ele>
        <time>2022-10-28T13:20:32Z</time>
      </trkpt>
      <trkpt lat="44.4249" lon="3.77197">
        <ele>1554.4</ele>
        <time>2022-10-28T13:20:33Z</time>
      </trkpt>
      <trkpt lat="44.42492" lon="3.77199">
        <ele>1554.4</ele>
        <time>2022-10-28T13:20:34Z</time>
      </trkpt>
      <trkpt lat="44.42495" lon="3.772">
        <ele>1554.6</ele>
        <time>2022-10-28T13:20:35Z</time>
      </trkpt>
      <trkpt lat="44.42497" lon="3.77201">
        <ele>1554.8</ele>
        <time>2022-10-28T13:20:36Z</time>
      </trkpt>
      <trkpt lat="44.425" lon="3.77203">
        <ele>1555</ele>
        <time>2022-10-28T13:20:37Z</time>
      </trkpt>
      <trkpt lat="44.42502" lon="3.77204">
        <ele>1555.2</ele>
        <time>2022-10-28T13:20:38Z</time>
      </trkpt>
      <trkpt lat="44.42504" lon="3.77206">
        <ele>1555.4</ele>
        <time>2022-10-28T13:20:39Z</time>
      </trkpt>
      <trkpt lat="44.42507" lon="3.77207">
        <ele>1555.6</ele>
        <time>2022-10-28T13:20:40Z</time>
      </trkpt>
      <trkpt lat="44.42509" lon="3.77207">
        <ele>1555.8</ele>
        <time>2022-10-28T13:20:41Z</time>
      </trkpt>
      <trkpt lat="44.42512" lon="3.77208">
        <ele>1555.8</ele>
        <time>2022-10-28T13:20:42Z</time>
      </trkpt>
      <trkpt lat="44.42514" lon="3.77209">
        <ele>1556</ele>
        <time>2022-10-28T13:20:43Z</time>
      </trkpt>
      <trkpt lat="44.42517" lon="3.7721">
        <ele>1556.2</ele>
        <time>2022-10-28T13:20:44Z</time>
      </trkpt>
      <trkpt lat="44.42519" lon="3.77211">
        <ele>1556.4</ele>
        <time>2022-10-28T13:20:45Z</time>
      </trkpt>
      <trkpt lat="44.42522" lon="3.77212">
        <ele>1556.6</ele>
        <time>2022-10-28T13:20:46Z</time>
      </trkpt>
      <trkpt lat="44.42525" lon="3.77213">
        <ele>1556.8</ele>
        <time>2022-10-28T13:20:47Z</time>
      </trkpt>
      <trkpt lat="44.42527" lon="3.77214">
        <ele>1557</ele>
        <time>2022-10-28T13:20:48Z</time>
      </trkpt>
      <trkpt lat="44.4253" lon="3.77214">
        <ele>1557</ele>
        <time>2022-10-28T13:20:49Z</time>
      </trkpt>
      <trkpt lat="44.42533" lon="3.77214">
        <ele>1557.2</ele>
        <time>2022-10-28T13:20:50Z</time>
      </trkpt>
      <trkpt lat="44.42535" lon="3.77214">
        <ele>1557.4</ele>
        <time>2022-10-28T13:20:51Z</time>
      </trkpt>
      <trkpt lat="44.42538" lon="3.77214">
        <ele>1557.6</ele>
        <time>2022-10-28T13:20:52Z</time>
      </trkpt>
      <trkpt lat="44.4254" lon="3.77215">
        <ele>1557.8</ele>
        <time>2022-10-28T13:20:53Z</time>
      </trkpt>
      <trkpt lat="44.42542" lon="3.77216">
        <ele>1557.8</ele>
        <time>2022-10-28T13:20:54Z</time>
      </trkpt>
      <trkpt lat="44.42545" lon="3.77217">
        <ele>1558</ele>
        <time>2022-10-28T13:20:55Z</time>
      </trkpt>
      <trkpt lat="44.42547" lon="3.77217">
        <ele>1558.2</ele>
        <time>2022-10-28T13:20:56Z</time>
      </trkpt>
      <trkpt lat="44.42549" lon="3.77218">
        <ele>1558.4</ele>
        <time>2022-10-28T13:20:57Z</time>
      </trkpt>
      <trkpt lat="44.42552" lon="3.77219">
        <ele>1558.6</ele>
        <time>2022-10-28T13:20:58Z</time>
      </trkpt>
      <trkpt lat="44.42554" lon="3.77219">
        <ele>1558.6</ele>
        <time>2022-10-28T13:20:59Z</time>
      </trkpt>
      <trkpt lat="44.42556" lon="3.7722">
        <ele>1558.8</ele>
        <time>2022-10-28T13:21:00Z</time>
      </trkpt>
      <trkpt lat="44.42559" lon="3.77221">
        <ele>1559</ele>
        <time>2022-10-28T13:21:01Z</time>
      </trkpt>
      <trkpt lat="44.42561" lon="3.77222">
        <ele>1559.2</ele>
        <time>2022-10-28T13:21:02Z</time>
      </trkpt>
      <trkpt lat="44.42564" lon="3.77224">
        <ele>1559.2</ele>
        <time>2022-10-28T13:21:03Z</time>
      </trkpt>
      <trkpt lat="44.42566" lon="3.77225">
        <ele>1559.4</ele>
        <time>2022-10-28T13:21:04Z</time>
      </trkpt>
      <trkpt lat="44.42568" lon="3.77226">
        <ele>1559.6</ele>
        <time>2022-10-28T13:21:05Z</time>
      </trkpt>
      <trkpt lat="44.42571" lon="3.77228">
        <ele>1559.8</ele>
        <time>2022-10-28T13:21:06Z</time>
      </trkpt>
      <trkpt lat="44.42573" lon="3.7723">
        <ele>1560</ele>
        <time>2022-10-28T13:21:07Z</time>
      </trkpt>
      <trkpt lat="44.42574" lon="3.77231">
        <ele>1560</ele>
        <time>2022-10-28T13:21:08Z</time>
      </trkpt>
      <trkpt lat="44.42577" lon="3.77233">
        <ele>1560.2</ele>
        <time>2022-10-28T13:21:09Z</time>
      </trkpt>
      <trkpt lat="44.42579" lon="3.77234">
        <ele>1560.4</ele>
        <time>2022-10-28T13:21:10Z</time>
      </trkpt>
      <trkpt lat="44.42582" lon="3.77234">
        <ele>1560.4</ele>
        <time>2022-10-28T13:21:11Z</time>
      </trkpt>
      <trkpt lat="44.42584" lon="3.77235">
        <ele>1560.6</ele>
        <time>2022-10-28T13:21:12Z</time>
      </trkpt>
      <trkpt lat="44.42587" lon="3.77236">
        <ele>1560.8</ele>
        <time>2022-10-28T13:21:13Z</time>
      </trkpt>
      <trkpt lat="44.42589" lon="3.77237">
        <ele>1561</ele>
        <time>2022-10-28T13:21:14Z</time>
      </trkpt>
      <trkpt lat="44.42592" lon="3.77238">
        <ele>1561</ele>
        <time>2022-10-28T13:21:15Z</time>
      </trkpt>
      <trkpt lat="44.42595" lon="3.77239">
        <ele>1561.2</ele>
        <time>2022-10-28T13:21:16Z</time>
      </trkpt>
      <trkpt lat="44.42597" lon="3.7724">
        <ele>1561.4</ele>
        <time>2022-10-28T13:21:17Z</time>
      </trkpt>
      <trkpt lat="44.426" lon="3.77241">
        <ele>1561.4</ele>
        <time>2022-10-28T13:21:18Z</time>
      </trkpt>
      <trkpt lat="44.42603" lon="3.77242">
        <ele>1561.6</ele>
        <time>2022-10-28T13:21:19Z</time>
      </trkpt>
      <trkpt lat="44.42606" lon="3.77244">
        <ele>1561.6</ele>
        <time>2022-10-28T13:21:20Z</time>
      </trkpt>
      <trkpt lat="44.42608" lon="3.77245">
        <ele>1561.8</ele>
        <time>2022-10-28T13:21:21Z</time>
      </trkpt>
      <trkpt lat="44.42611" lon="3.77246">
        <ele>1562</ele>
        <time>2022-10-28T13:21:22Z</time>
      </trkpt>
      <trkpt lat="44.42614" lon="3.77247">
        <ele>1562</ele>
        <time>2022-10-28T13:21:23Z</time>
      </trkpt>
      <trkpt lat="44.42617" lon="3.77248">
        <ele>1562.2</ele>
        <time>2022-10-28T13:21:24Z</time>
      </trkpt>
      <trkpt lat="44.4262" lon="3.77249">
        <ele>1562.2</ele>
        <time>2022-10-28T13:21:25Z</time>
      </trkpt>
      <trkpt lat="44.42623" lon="3.7725">
        <ele>1562.4</ele>
        <time>2022-10-28T13:21:26Z</time>
      </trkpt>
      <trkpt lat="44.42625" lon="3.77252">
        <ele>1562.4</ele>
        <time>2022-10-28T13:21:27Z</time>
      </trkpt>
      <trkpt lat="44.42628" lon="3.77252">
        <ele>1562.4</ele>
        <time>2022-10-28T13:21:28Z</time>
      </trkpt>
      <trkpt lat="44.42631" lon="3.77253">
        <ele>1562.6</ele>
        <time>2022-10-28T13:21:29Z</time>
      </trkpt>
      <trkpt lat="44.42634" lon="3.77254">
        <ele>1562.6</ele>
        <time>2022-10-28T13:21:30Z</time>
      </trkpt>
      <trkpt lat="44.42638" lon="3.77255">
        <ele>1562.8</ele>
        <time>2022-10-28T13:21:31Z</time>
      </trkpt>
      <trkpt lat="44.42641" lon="3.77255">
        <ele>1562.8</ele>
        <time>2022-10-28T13:21:32Z</time>
      </trkpt>
      <trkpt lat="44.42644" lon="3.77256">
        <ele>1563</ele>
        <time>2022-10-28T13:21:33Z</time>
      </trkpt>
      <trkpt lat="44.42647" lon="3.77258">
        <ele>1563</ele>
        <time>2022-10-28T13:21:34Z</time>
      </trkpt>
      <trkpt lat="44.4265" lon="3.77259">
        <ele>1563.2</ele>
        <time>2022-10-28T13:21:35Z</time>
      </trkpt>
      <trkpt lat="44.42654" lon="3.7726">
        <ele>1563.2</ele>
        <time>2022-10-28T13:21:36Z</time>
      </trkpt>
      <trkpt lat="44.42656" lon="3.77261">
        <ele>1563.4</ele>
        <time>2022-10-28T13:21:37Z</time>
      </trkpt>
      <trkpt lat="44.42659" lon="3.77263">
        <ele>1563.4</ele>
        <time>2022-10-28T13:21:38Z</time>
      </trkpt>
      <trkpt lat="44.42662" lon="3.77265">
        <ele>1563.4</ele>
        <time>2022-10-28T13:21:39Z</time>
      </trkpt>
      <trkpt lat="44.42664" lon="3.77268">
        <ele>1563.6</ele>
        <time>2022-10-28T13:21:40Z</time>
      </trkpt>
      <trkpt lat="44.42667" lon="3.7727">
        <ele>1563.6</ele>
        <time>2022-10-28T13:21:41Z</time>
      </trkpt>
      <trkpt lat="44.42669" lon="3.77273">
        <ele>1563.8</ele>
        <time>2022-10-28T13:21:42Z</time>
      </trkpt>
      <trkpt lat="44.42672" lon="3.77276">
        <ele>1563.8</ele>
        <time>2022-10-28T13:21:43Z</time>
      </trkpt>
      <trkpt lat="44.42675" lon="3.77279">
        <ele>1564</ele>
        <time>2022-10-28T13:21:44Z</time>
      </trkpt>
      <trkpt lat="44.42677" lon="3.77282">
        <ele>1564</ele>
        <time>2022-10-28T13:21:45Z</time>
      </trkpt>
      <trkpt lat="44.4268" lon="3.77284">
        <ele>1564.2</ele>
        <time>2022-10-28T13:21:46Z</time>
      </trkpt>
      <trkpt lat="44.42682" lon="3.77288">
        <ele>1564.2</ele>
        <time>2022-10-28T13:21:47Z</time>
      </trkpt>
      <trkpt lat="44.42683" lon="3.77291">
        <ele>1564.4</ele>
        <time>2022-10-28T13:21:48Z</time>
      </trkpt>
      <trkpt lat="44.42685" lon="3.77295">
        <ele>1564.4</ele>
        <time>2022-10-28T13:21:49Z</time>
      </trkpt>
      <trkpt lat="44.42687" lon="3.77298">
        <ele>1564.6</ele>
        <time>2022-10-28T13:21:50Z</time>
      </trkpt>
      <trkpt lat="44.4269" lon="3.77301">
        <ele>1564.6</ele>
        <time>2022-10-28T13:21:51Z</time>
      </trkpt>
      <trkpt lat="44.42692" lon="3.77303">
        <ele>1564.6</ele>
        <time>2022-10-28T13:21:52Z</time>
      </trkpt>
      <trkpt lat="44.42695" lon="3.77306">
        <ele>1564.8</ele>
        <time>2022-10-28T13:21:53Z</time>
      </trkpt>
      <trkpt lat="44.42697" lon="3.77309">
        <ele>1564.8</ele>
        <time>2022-10-28T13:21:54Z</time>
      </trkpt>
      <trkpt lat="44.427" lon="3.77311">
        <ele>1565</ele>
        <time>2022-10-28T13:21:55Z</time>
      </trkpt>
      <trkpt lat="44.42702" lon="3.77314">
        <ele>1565</ele>
        <time>2022-10-28T13:21:56Z</time>
      </trkpt>
      <trkpt lat="44.42705" lon="3.77318">
        <ele>1565.2</ele>
        <time>2022-10-28T13:21:57Z</time>
      </trkpt>
      <trkpt lat="44.42707" lon="3.77321">
        <ele>1565.2</ele>
        <time>2022-10-28T13:21:58Z</time>
      </trkpt>
      <trkpt lat="44.42709" lon="3.77324">
        <ele>1565.4</ele>
        <time>2022-10-28T13:21:59Z</time>
      </trkpt>
      <trkpt lat="44.42711" lon="3.77327">
        <ele>1565.6</ele>
        <time>2022-10-28T13:22:00Z</time>
      </trkpt>
      <trkpt lat="44.42713" lon="3.77331">
        <ele>1565.6</ele>
        <time>2022-10-28T13:22:01Z</time>
      </trkpt>
      <trkpt lat="44.42715" lon="3.77334">
        <ele>1565.8</ele>
        <time>2022-10-28T13:22:02Z</time>
      </trkpt>
      <trkpt lat="44.42717" lon="3.77338">
        <ele>1565.8</ele>
        <time>2022-10-28T13:22:03Z</time>
      </trkpt>
      <trkpt lat="44.42719" lon="3.77342">
        <ele>1566</ele>
        <time>2022-10-28T13:22:04Z</time>
      </trkpt>
      <trkpt lat="44.42721" lon="3.77345">
        <ele>1566</ele>
        <time>2022-10-28T13:22:05Z</time>
      </trkpt>
      <trkpt lat="44.42723" lon="3.77348">
        <ele>1566</ele>
        <time>2022-10-28T13:22:06Z</time>
      </trkpt>
      <trkpt lat="44.42725" lon="3.77352">
        <ele>1566.2</ele>
        <time>2022-10-28T13:22:07Z</time>
      </trkpt>
      <trkpt lat="44.42727" lon="3.77356">
        <ele>1566.4</ele>
        <time>2022-10-28T13:22:08Z</time>
      </trkpt>
      <trkpt lat="44.42729" lon="3.77359">
        <ele>1566.4</ele>
        <time>2022-10-28T13:22:09Z</time>
      </trkpt>
      <trkpt lat="44.42731" lon="3.77363">
        <ele>1566.6</ele>
        <time>2022-10-28T13:22:10Z</time>
      </trkpt>
      <trkpt lat="44.42733" lon="3.77366">
        <ele>1566.6</ele>
        <time>2022-10-28T13:22:11Z</time>
      </trkpt>
      <trkpt lat="44.42736" lon="3.77369">
        <ele>1566.6</ele>
        <time>2022-10-28T13:22:12Z</time>
      </trkpt>
      <trkpt lat="44.42738" lon="3.77373">
        <ele>1566.8</ele>
        <time>2022-10-28T13:22:13Z</time>
      </trkpt>
      <trkpt lat="44.42741" lon="3.77376">
        <ele>1567</ele>
        <time>2022-10-28T13:22:14Z</time>
      </trkpt>
      <trkpt lat="44.42743" lon="3.77379">
        <ele>1567</ele>
        <time>2022-10-28T13:22:15Z</time>
      </trkpt>
      <trkpt lat="44.42745" lon="3.77382">
        <ele>1567</ele>
        <time>2022-10-28T13:22:16Z</time>
      </trkpt>
      <trkpt lat="44.42747" lon="3.77386">
        <ele>1567.2</ele>
        <time>2022-10-28T13:22:17Z</time>
      </trkpt>
      <trkpt lat="44.42749" lon="3.77389">
        <ele>1567.2</ele>
        <time>2022-10-28T13:22:18Z</time>
      </trkpt>
      <trkpt lat="44.42752" lon="3.77393">
        <ele>1567.4</ele>
        <time>2022-10-28T13:22:19Z</time>
      </trkpt>
      <trkpt lat="44.42754" lon="3.77396">
        <ele>1567.4</ele>
        <time>2022-10-28T13:22:20Z</time>
      </trkpt>
      <trkpt lat="44.42756" lon="3.774">
        <ele>1567.4</ele>
        <time>2022-10-28T13:22:21Z</time>
      </trkpt>
      <trkpt lat="44.42758" lon="3.77403">
        <ele>1567.6</ele>
        <time>2022-10-28T13:22:22Z</time>
      </trkpt>
      <trkpt lat="44.4276" lon="3.77407">
        <ele>1567.6</ele>
        <time>2022-10-28T13:22:23Z</time>
      </trkpt>
      <trkpt lat="44.42762" lon="3.7741">
        <ele>1567.8</ele>
        <time>2022-10-28T13:22:24Z</time>
      </trkpt>
      <trkpt lat="44.42764" lon="3.77414">
        <ele>1567.8</ele>
        <time>2022-10-28T13:22:25Z</time>
      </trkpt>
      <trkpt lat="44.42766" lon="3.77418">
        <ele>1568</ele>
        <time>2022-10-28T13:22:26Z</time>
      </trkpt>
      <trkpt lat="44.42768" lon="3.77422">
        <ele>1568</ele>
        <time>2022-10-28T13:22:27Z</time>
      </trkpt>
      <trkpt lat="44.4277" lon="3.77426">
        <ele>1568</ele>
        <time>2022-10-28T13:22:28Z</time>
      </trkpt>
      <trkpt lat="44.42771" lon="3.7743">
        <ele>1568.2</ele>
        <time>2022-10-28T13:22:29Z</time>
      </trkpt>
      <trkpt lat="44.42773" lon="3.77434">
        <ele>1568.2</ele>
        <time>2022-10-28T13:22:30Z</time>
      </trkpt>
      <trkpt lat="44.42774" lon="3.77438">
        <ele>1568.2</ele>
        <time>2022-10-28T13:22:31Z</time>
      </trkpt>
      <trkpt lat="44.42775" lon="3.77442">
        <ele>1568.4</ele>
        <time>2022-10-28T13:22:32Z</time>
      </trkpt>
      <trkpt lat="44.42776" lon="3.77447">
        <ele>1568.4</ele>
        <time>2022-10-28T13:22:33Z</time>
      </trkpt>
      <trkpt lat="44.42776" lon="3.77452">
        <ele>1568.4</ele>
        <time>2022-10-28T13:22:34Z</time>
      </trkpt>
      <trkpt lat="44.42776" lon="3.77456">
        <ele>1568.6</ele>
        <time>2022-10-28T13:22:35Z</time>
      </trkpt>
      <trkpt lat="44.42776" lon="3.77461">
        <ele>1568.6</ele>
        <time>2022-10-28T13:22:36Z</time>
      </trkpt>
      <trkpt lat="44.42775" lon="3.77465">
        <ele>1568.6</ele>
        <time>2022-10-28T13:22:37Z</time>
      </trkpt>
      <trkpt lat="44.42773" lon="3.77469">
        <ele>1568.8</ele>
        <time>2022-10-28T13:22:38Z</time>
      </trkpt>
      <trkpt lat="44.42772" lon="3.77473">
        <ele>1568.8</ele>
        <time>2022-10-28T13:22:39Z</time>
      </trkpt>
      <trkpt lat="44.4277" lon="3.77478">
        <ele>1569</ele>
        <time>2022-10-28T13:22:40Z</time>
      </trkpt>
      <trkpt lat="44.42768" lon="3.77481">
        <ele>1569</ele>
        <time>2022-10-28T13:22:41Z</time>
      </trkpt>
      <trkpt lat="44.42766" lon="3.77485">
        <ele>1569.4</ele>
        <time>2022-10-28T13:22:42Z</time>
      </trkpt>
      <trkpt lat="44.42764" lon="3.77488">
        <ele>1569.4</ele>
        <time>2022-10-28T13:22:43Z</time>
      </trkpt>
      <trkpt lat="44.42761" lon="3.77492">
        <ele>1569.4</ele>
        <time>2022-10-28T13:22:44Z</time>
      </trkpt>
      <trkpt lat="44.4276" lon="3.77496">
        <ele>1569.4</ele>
        <time>2022-10-28T13:22:45Z</time>
      </trkpt>
      <trkpt lat="44.42758" lon="3.775">
        <ele>1569.4</ele>
        <time>2022-10-28T13:22:46Z</time>
      </trkpt>
      <trkpt lat="44.42755" lon="3.77504">
        <ele>1569.4</ele>
        <time>2022-10-28T13:22:47Z</time>
      </trkpt>
      <trkpt lat="44.42753" lon="3.77509">
        <ele>1569.4</ele>
        <time>2022-10-28T13:22:48Z</time>
      </trkpt>
      <trkpt lat="44.42751" lon="3.77513">
        <ele>1569.4</ele>
        <time>2022-10-28T13:22:49Z</time>
      </trkpt>
      <trkpt lat="44.42749" lon="3.77517">
        <ele>1569.6</ele>
        <time>2022-10-28T13:22:50Z</time>
      </trkpt>
      <trkpt lat="44.42747" lon="3.77521">
        <ele>1569.6</ele>
        <time>2022-10-28T13:22:51Z</time>
      </trkpt>
      <trkpt lat="44.42745" lon="3.77525">
        <ele>1569.6</ele>
        <time>2022-10-28T13:22:52Z</time>
      </trkpt>
      <trkpt lat="44.42742" lon="3.77529">
        <ele>1569.6</ele>
        <time>2022-10-28T13:22:53Z</time>
      </trkpt>
      <trkpt lat="44.4274" lon="3.77533">
        <ele>1569.8</ele>
        <time>2022-10-28T13:22:54Z</time>
      </trkpt>
      <trkpt lat="44.42737" lon="3.77537">
        <ele>1569.8</ele>
        <time>2022-10-28T13:22:55Z</time>
      </trkpt>
      <trkpt lat="44.42735" lon="3.77541">
        <ele>1570</ele>
        <time>2022-10-28T13:22:56Z</time>
      </trkpt>
      <trkpt lat="44.42733" lon="3.77545">
        <ele>1570</ele>
        <time>2022-10-28T13:22:57Z</time>
      </trkpt>
      <trkpt lat="44.42731" lon="3.77549">
        <ele>1570</ele>
        <time>2022-10-28T13:22:58Z</time>
      </trkpt>
      <trkpt lat="44.42729" lon="3.77554">
        <ele>1570</ele>
        <time>2022-10-28T13:22:59Z</time>
      </trkpt>
      <trkpt lat="44.42727" lon="3.77558">
        <ele>1570</ele>
        <time>2022-10-28T13:23:00Z</time>
      </trkpt>
      <trkpt lat="44.42725" lon="3.77563">
        <ele>1570</ele>
        <time>2022-10-28T13:23:01Z</time>
      </trkpt>
      <trkpt lat="44.42723" lon="3.77567">
        <ele>1570</ele>
        <time>2022-10-28T13:23:02Z</time>
      </trkpt>
      <trkpt lat="44.42721" lon="3.77572">
        <ele>1570</ele>
        <time>2022-10-28T13:23:03Z</time>
      </trkpt>
      <trkpt lat="44.4272" lon="3.77577">
        <ele>1570</ele>
        <time>2022-10-28T13:23:04Z</time>
      </trkpt>
      <trkpt lat="44.42719" lon="3.77583">
        <ele>1570</ele>
        <time>2022-10-28T13:23:05Z</time>
      </trkpt>
      <trkpt lat="44.42718" lon="3.77588">
        <ele>1570</ele>
        <time>2022-10-28T13:23:06Z</time>
      </trkpt>
      <trkpt lat="44.42718" lon="3.77593">
        <ele>1570</ele>
        <time>2022-10-28T13:23:07Z</time>
      </trkpt>
      <trkpt lat="44.42717" lon="3.77598">
        <ele>1570</ele>
        <time>2022-10-28T13:23:08Z</time>
      </trkpt>
      <trkpt lat="44.42717" lon="3.77604">
        <ele>1570.2</ele>
        <time>2022-10-28T13:23:09Z</time>
      </trkpt>
      <trkpt lat="44.42718" lon="3.77609">
        <ele>1570.2</ele>
        <time>2022-10-28T13:23:10Z</time>
      </trkpt>
      <trkpt lat="44.42718" lon="3.77614">
        <ele>1570.2</ele>
        <time>2022-10-28T13:23:11Z</time>
      </trkpt>
      <trkpt lat="44.42719" lon="3.77619">
        <ele>1570.2</ele>
        <time>2022-10-28T13:23:12Z</time>
      </trkpt>
      <trkpt lat="44.42719" lon="3.77625">
        <ele>1570.2</ele>
        <time>2022-10-28T13:23:13Z</time>
      </trkpt>
      <trkpt lat="44.4272" lon="3.7763">
        <ele>1570.4</ele>
        <time>2022-10-28T13:23:14Z</time>
      </trkpt>
      <trkpt lat="44.42719" lon="3.77635">
        <ele>1570.4</ele>
        <time>2022-10-28T13:23:15Z</time>
      </trkpt>
      <trkpt lat="44.42719" lon="3.77641">
        <ele>1570.4</ele>
        <time>2022-10-28T13:23:16Z</time>
      </trkpt>
      <trkpt lat="44.42718" lon="3.77646">
        <ele>1570.4</ele>
        <time>2022-10-28T13:23:17Z</time>
      </trkpt>
      <trkpt lat="44.42717" lon="3.77652">
        <ele>1570.2</ele>
        <time>2022-10-28T13:23:18Z</time>
      </trkpt>
      <trkpt lat="44.42716" lon="3.77657">
        <ele>1570.4</ele>
        <time>2022-10-28T13:23:19Z</time>
      </trkpt>
      <trkpt lat="44.42715" lon="3.77662">
        <ele>1570.2</ele>
        <time>2022-10-28T13:23:20Z</time>
      </trkpt>
      <trkpt lat="44.42714" lon="3.77667">
        <ele>1570.2</ele>
        <time>2022-10-28T13:23:21Z</time>
      </trkpt>
      <trkpt lat="44.42713" lon="3.77672">
        <ele>1570.2</ele>
        <time>2022-10-28T13:23:22Z</time>
      </trkpt>
      <trkpt lat="44.42713" lon="3.77678">
        <ele>1570.2</ele>
        <time>2022-10-28T13:23:23Z</time>
      </trkpt>
      <trkpt lat="44.42713" lon="3.77683">
        <ele>1570.2</ele>
        <time>2022-10-28T13:23:24Z</time>
      </trkpt>
      <trkpt lat="44.42712" lon="3.77689">
        <ele>1570.2</ele>
        <time>2022-10-28T13:23:25Z</time>
      </trkpt>
      <trkpt lat="44.42712" lon="3.77694">
        <ele>1570.2</ele>
        <time>2022-10-28T13:23:26Z</time>
      </trkpt>
      <trkpt lat="44.42711" lon="3.77699">
        <ele>1570.4</ele>
        <time>2022-10-28T13:23:27Z</time>
      </trkpt>
      <trkpt lat="44.4271" lon="3.77704">
        <ele>1570.4</ele>
        <time>2022-10-28T13:23:28Z</time>
      </trkpt>
      <trkpt lat="44.4271" lon="3.7771">
        <ele>1570.4</ele>
        <time>2022-10-28T13:23:29Z</time>
      </trkpt>
      <trkpt lat="44.4271" lon="3.77715">
        <ele>1570.4</ele>
        <time>2022-10-28T13:23:30Z</time>
      </trkpt>
      <trkpt lat="44.42709" lon="3.7772">
        <ele>1570.4</ele>
        <time>2022-10-28T13:23:31Z</time>
      </trkpt>
      <trkpt lat="44.42708" lon="3.77724">
        <ele>1570.4</ele>
        <time>2022-10-28T13:23:32Z</time>
      </trkpt>
      <trkpt lat="44.42707" lon="3.7773">
        <ele>1570.6</ele>
        <time>2022-10-28T13:23:33Z</time>
      </trkpt>
      <trkpt lat="44.42707" lon="3.77735">
        <ele>1570.6</ele>
        <time>2022-10-28T13:23:34Z</time>
      </trkpt>
      <trkpt lat="44.42706" lon="3.7774">
        <ele>1570.6</ele>
        <time>2022-10-28T13:23:35Z</time>
      </trkpt>
      <trkpt lat="44.42705" lon="3.77745">
        <ele>1570.6</ele>
        <time>2022-10-28T13:23:36Z</time>
      </trkpt>
      <trkpt lat="44.42704" lon="3.7775">
        <ele>1570.8</ele>
        <time>2022-10-28T13:23:37Z</time>
      </trkpt>
      <trkpt lat="44.42704" lon="3.77755">
        <ele>1570.8</ele>
        <time>2022-10-28T13:23:38Z</time>
      </trkpt>
      <trkpt lat="44.42703" lon="3.7776">
        <ele>1570.8</ele>
        <time>2022-10-28T13:23:39Z</time>
      </trkpt>
      <trkpt lat="44.42703" lon="3.77765">
        <ele>1571</ele>
        <time>2022-10-28T13:23:40Z</time>
      </trkpt>
      <trkpt lat="44.42702" lon="3.7777">
        <ele>1571</ele>
        <time>2022-10-28T13:23:41Z</time>
      </trkpt>
      <trkpt lat="44.42701" lon="3.77776">
        <ele>1571.4</ele>
        <time>2022-10-28T13:23:42Z</time>
      </trkpt>
      <trkpt lat="44.427" lon="3.77781">
        <ele>1571.4</ele>
        <time>2022-10-28T13:23:43Z</time>
      </trkpt>
      <trkpt lat="44.427" lon="3.77786">
        <ele>1571.4</ele>
        <time>2022-10-28T13:23:44Z</time>
      </trkpt>
      <trkpt lat="44.42699" lon="3.77791">
        <ele>1571.4</ele>
        <time>2022-10-28T13:23:45Z</time>
      </trkpt>
      <trkpt lat="44.42698" lon="3.77796">
        <ele>1571.4</ele>
        <time>2022-10-28T13:23:46Z</time>
      </trkpt>
      <trkpt lat="44.42698" lon="3.77802">
        <ele>1571.4</ele>
        <time>2022-10-28T13:23:47Z</time>
      </trkpt>
      <trkpt lat="44.42697" lon="3.77807">
        <ele>1571.4</ele>
        <time>2022-10-28T13:23:48Z</time>
      </trkpt>
      <trkpt lat="44.42696" lon="3.77813">
        <ele>1571.4</ele>
        <time>2022-10-28T13:23:49Z</time>
      </trkpt>
      <trkpt lat="44.42695" lon="3.77819">
        <ele>1571.4</ele>
        <time>2022-10-28T13:23:50Z</time>
      </trkpt>
      <trkpt lat="44.42695" lon="3.77824">
        <ele>1571.4</ele>
        <time>2022-10-28T13:23:51Z</time>
      </trkpt>
      <trkpt lat="44.42694" lon="3.7783">
        <ele>1571.6</ele>
        <time>2022-10-28T13:23:52Z</time>
      </trkpt>
      <trkpt lat="44.42693" lon="3.77835">
        <ele>1571.6</ele>
        <time>2022-10-28T13:23:53Z</time>
      </trkpt>
      <trkpt lat="44.42693" lon="3.77841">
        <ele>1571.6</ele>
        <time>2022-10-28T13:23:54Z</time>
      </trkpt>
      <trkpt lat="44.42692" lon="3.77847">
        <ele>1571.8</ele>
        <time>2022-10-28T13:23:55Z</time>
      </trkpt>
      <trkpt lat="44.42691" lon="3.77853">
        <ele>1571.8</ele>
        <time>2022-10-28T13:23:56Z</time>
      </trkpt>
      <trkpt lat="44.42691" lon="3.77858">
        <ele>1572</ele>
        <time>2022-10-28T13:23:57Z</time>
      </trkpt>
      <trkpt lat="44.4269" lon="3.77864">
        <ele>1571.8</ele>
        <time>2022-10-28T13:23:58Z</time>
      </trkpt>
      <trkpt lat="44.4269" lon="3.7787">
        <ele>1571.8</ele>
        <time>2022-10-28T13:23:59Z</time>
      </trkpt>
      <trkpt lat="44.4269" lon="3.77875">
        <ele>1571.8</ele>
        <time>2022-10-28T13:24:00Z</time>
      </trkpt>
      <trkpt lat="44.42689" lon="3.77881">
        <ele>1571.8</ele>
        <time>2022-10-28T13:24:01Z</time>
      </trkpt>
      <trkpt lat="44.42689" lon="3.77887">
        <ele>1571.8</ele>
        <time>2022-10-28T13:24:02Z</time>
      </trkpt>
      <trkpt lat="44.42688" lon="3.77892">
        <ele>1571.8</ele>
        <time>2022-10-28T13:24:03Z</time>
      </trkpt>
      <trkpt lat="44.42687" lon="3.77898">
        <ele>1571.8</ele>
        <time>2022-10-28T13:24:04Z</time>
      </trkpt>
      <trkpt lat="44.42686" lon="3.77903">
        <ele>1571.8</ele>
        <time>2022-10-28T13:24:05Z</time>
      </trkpt>
      <trkpt lat="44.42685" lon="3.77909">
        <ele>1572</ele>
        <time>2022-10-28T13:24:06Z</time>
      </trkpt>
      <trkpt lat="44.42684" lon="3.77915">
        <ele>1572</ele>
        <time>2022-10-28T13:24:07Z</time>
      </trkpt>
      <trkpt lat="44.42684" lon="3.7792">
        <ele>1572.2</ele>
        <time>2022-10-28T13:24:08Z</time>
      </trkpt>
      <trkpt lat="44.42683" lon="3.77926">
        <ele>1572</ele>
        <time>2022-10-28T13:24:09Z</time>
      </trkpt>
      <trkpt lat="44.42682" lon="3.77932">
        <ele>1572.2</ele>
        <time>2022-10-28T13:24:10Z</time>
      </trkpt>
      <trkpt lat="44.42682" lon="3.77937">
        <ele>1572.2</ele>
        <time>2022-10-28T13:24:11Z</time>
      </trkpt>
      <trkpt lat="44.4268" lon="3.77943">
        <ele>1572.4</ele>
        <time>2022-10-28T13:24:12Z</time>
      </trkpt>
      <trkpt lat="44.42679" lon="3.77948">
        <ele>1572.4</ele>
        <time>2022-10-28T13:24:13Z</time>
      </trkpt>
      <trkpt lat="44.42678" lon="3.77954">
        <ele>1572.4</ele>
        <time>2022-10-28T13:24:14Z</time>
      </trkpt>
      <trkpt lat="44.42677" lon="3.7796">
        <ele>1572.4</ele>
        <time>2022-10-28T13:24:15Z</time>
      </trkpt>
      <trkpt lat="44.42676" lon="3.77966">
        <ele>1572.6</ele>
        <time>2022-10-28T13:24:16Z</time>
      </trkpt>
      <trkpt lat="44.42675" lon="3.77972">
        <ele>1572.4</ele>
        <time>2022-10-28T13:24:17Z</time>
      </trkpt>
      <trkpt lat="44.42674" lon="3.77978">
        <ele>1572.4</ele>
        <time>2022-10-28T13:24:18Z</time>
      </trkpt>
      <trkpt lat="44.42674" lon="3.77984">
        <ele>1572.4</ele>
        <time>2022-10-28T13:24:19Z</time>
      </trkpt>
      <trkpt lat="44.42672" lon="3.7799">
        <ele>1572.2</ele>
        <time>2022-10-28T13:24:20Z</time>
      </trkpt>
      <trkpt lat="44.42671" lon="3.77996">
        <ele>1572.4</ele>
        <time>2022-10-28T13:24:21Z</time>
      </trkpt>
      <trkpt lat="44.4267" lon="3.78002">
        <ele>1572.2</ele>
        <time>2022-10-28T13:24:22Z</time>
      </trkpt>
      <trkpt lat="44.42669" lon="3.78007">
        <ele>1572.2</ele>
        <time>2022-10-28T13:24:23Z</time>
      </trkpt>
      <trkpt lat="44.42668" lon="3.78013">
        <ele>1572</ele>
        <time>2022-10-28T13:24:24Z</time>
      </trkpt>
      <trkpt lat="44.42668" lon="3.7802">
        <ele>1572</ele>
        <time>2022-10-28T13:24:25Z</time>
      </trkpt>
      <trkpt lat="44.42668" lon="3.78026">
        <ele>1572</ele>
        <time>2022-10-28T13:24:26Z</time>
      </trkpt>
      <trkpt lat="44.42668" lon="3.78032">
        <ele>1571.8</ele>
        <time>2022-10-28T13:24:27Z</time>
      </trkpt>
      <trkpt lat="44.42668" lon="3.78038">
        <ele>1571.8</ele>
        <time>2022-10-28T13:24:28Z</time>
      </trkpt>
      <trkpt lat="44.42668" lon="3.78044">
        <ele>1572</ele>
        <time>2022-10-28T13:24:29Z</time>
      </trkpt>
      <trkpt lat="44.42669" lon="3.7805">
        <ele>1572</ele>
        <time>2022-10-28T13:24:30Z</time>
      </trkpt>
      <trkpt lat="44.4267" lon="3.78056">
        <ele>1572</ele>
        <time>2022-10-28T13:24:31Z</time>
      </trkpt>
      <trkpt lat="44.42671" lon="3.78062">
        <ele>1571.8</ele>
        <time>2022-10-28T13:24:32Z</time>
      </trkpt>
      <trkpt lat="44.42671" lon="3.78068">
        <ele>1571.8</ele>
        <time>2022-10-28T13:24:33Z</time>
      </trkpt>
      <trkpt lat="44.42671" lon="3.78074">
        <ele>1571.8</ele>
        <time>2022-10-28T13:24:34Z</time>
      </trkpt>
      <trkpt lat="44.42672" lon="3.7808">
        <ele>1571.8</ele>
        <time>2022-10-28T13:24:35Z</time>
      </trkpt>
      <trkpt lat="44.42673" lon="3.78086">
        <ele>1571.8</ele>
        <time>2022-10-28T13:24:36Z</time>
      </trkpt>
      <trkpt lat="44.42674" lon="3.78092">
        <ele>1571.8</ele>
        <time>2022-10-28T13:24:37Z</time>
      </trkpt>
      <trkpt lat="44.42675" lon="3.78098">
        <ele>1571.8</ele>
        <time>2022-10-28T13:24:38Z</time>
      </trkpt>
      <trkpt lat="44.42676" lon="3.78104">
        <ele>1571.8</ele>
        <time>2022-10-28T13:24:39Z</time>
      </trkpt>
      <trkpt lat="44.42678" lon="3.7811">
        <ele>1571.8</ele>
        <time>2022-10-28T13:24:40Z</time>
      </trkpt>
      <trkpt lat="44.42679" lon="3.78116">
        <ele>1571.6</ele>
        <time>2022-10-28T13:24:41Z</time>
      </trkpt>
      <trkpt lat="44.42681" lon="3.78122">
        <ele>1571.6</ele>
        <time>2022-10-28T13:24:42Z</time>
      </trkpt>
      <trkpt lat="44.42683" lon="3.78127">
        <ele>1571.6</ele>
        <time>2022-10-28T13:24:43Z</time>
      </trkpt>
      <trkpt lat="44.42685" lon="3.78132">
        <ele>1571.4</ele>
        <time>2022-10-28T13:24:44Z</time>
      </trkpt>
      <trkpt lat="44.42687" lon="3.78137">
        <ele>1571.4</ele>
        <time>2022-10-28T13:24:45Z</time>
      </trkpt>
      <trkpt lat="44.42689" lon="3.78142">
        <ele>1571.4</ele>
        <time>2022-10-28T13:24:46Z</time>
      </trkpt>
      <trkpt lat="44.42691" lon="3.78147">
        <ele>1571.4</ele>
        <time>2022-10-28T13:24:47Z</time>
      </trkpt>
      <trkpt lat="44.42692" lon="3.78151">
        <ele>1571.4</ele>
        <time>2022-10-28T13:24:48Z</time>
      </trkpt>
      <trkpt lat="44.42694" lon="3.78156">
        <ele>1571.4</ele>
        <time>2022-10-28T13:24:49Z</time>
      </trkpt>
      <trkpt lat="44.42695" lon="3.78159">
        <ele>1571.4</ele>
        <time>2022-10-28T13:24:50Z</time>
      </trkpt>
      <trkpt lat="44.42696" lon="3.78163">
        <ele>1571.4</ele>
        <time>2022-10-28T13:24:51Z</time>
      </trkpt>
      <trkpt lat="44.42697" lon="3.78166">
        <ele>1571.2</ele>
        <time>2022-10-28T13:24:52Z</time>
      </trkpt>
      <trkpt lat="44.42698" lon="3.7817">
        <ele>1571.4</ele>
        <time>2022-10-28T13:24:53Z</time>
      </trkpt>
      <trkpt lat="44.427" lon="3.78174">
        <ele>1571.4</ele>
        <time>2022-10-28T13:24:54Z</time>
      </trkpt>
      <trkpt lat="44.42701" lon="3.78178">
        <ele>1571.2</ele>
        <time>2022-10-28T13:24:55Z</time>
      </trkpt>
      <trkpt lat="44.42703" lon="3.78183">
        <ele>1571.4</ele>
        <time>2022-10-28T13:24:56Z</time>
      </trkpt>
      <trkpt lat="44.42704" lon="3.78188">
        <ele>1571.4</ele>
        <time>2022-10-28T13:24:57Z</time>
      </trkpt>
      <trkpt lat="44.42704" lon="3.78193">
        <ele>1571.4</ele>
        <time>2022-10-28T13:24:58Z</time>
      </trkpt>
      <trkpt lat="44.42705" lon="3.78198">
        <ele>1571.4</ele>
        <time>2022-10-28T13:24:59Z</time>
      </trkpt>
      <trkpt lat="44.42706" lon="3.78203">
        <ele>1571.4</ele>
        <time>2022-10-28T13:25:00Z</time>
      </trkpt>
      <trkpt lat="44.42708" lon="3.78208">
        <ele>1571.4</ele>
        <time>2022-10-28T13:25:01Z</time>
      </trkpt>
      <trkpt lat="44.42709" lon="3.78213">
        <ele>1571.4</ele>
        <time>2022-10-28T13:25:02Z</time>
      </trkpt>
      <trkpt lat="44.4271" lon="3.78219">
        <ele>1571.6</ele>
        <time>2022-10-28T13:25:03Z</time>
      </trkpt>
      <trkpt lat="44.42711" lon="3.78224">
        <ele>1571.6</ele>
        <time>2022-10-28T13:25:04Z</time>
      </trkpt>
      <trkpt lat="44.42711" lon="3.78229">
        <ele>1571.6</ele>
        <time>2022-10-28T13:25:05Z</time>
      </trkpt>
      <trkpt lat="44.42711" lon="3.78234">
        <ele>1571.8</ele>
        <time>2022-10-28T13:25:06Z</time>
      </trkpt>
      <trkpt lat="44.42711" lon="3.7824">
        <ele>1572</ele>
        <time>2022-10-28T13:25:07Z</time>
      </trkpt>
      <trkpt lat="44.42711" lon="3.78245">
        <ele>1572</ele>
        <time>2022-10-28T13:25:08Z</time>
      </trkpt>
      <trkpt lat="44.42711" lon="3.7825">
        <ele>1572.2</ele>
        <time>2022-10-28T13:25:09Z</time>
      </trkpt>
      <trkpt lat="44.42711" lon="3.78255">
        <ele>1572.2</ele>
        <time>2022-10-28T13:25:10Z</time>
      </trkpt>
      <trkpt lat="44.42712" lon="3.78261">
        <ele>1572.4</ele>
        <time>2022-10-28T13:25:11Z</time>
      </trkpt>
      <trkpt lat="44.42712" lon="3.78266">
        <ele>1572.6</ele>
        <time>2022-10-28T13:25:12Z</time>
      </trkpt>
      <trkpt lat="44.42712" lon="3.78272">
        <ele>1572.6</ele>
        <time>2022-10-28T13:25:13Z</time>
      </trkpt>
      <trkpt lat="44.42712" lon="3.78278">
        <ele>1572.8</ele>
        <time>2022-10-28T13:25:14Z</time>
      </trkpt>
      <trkpt lat="44.42712" lon="3.78283">
        <ele>1572.8</ele>
        <time>2022-10-28T13:25:15Z</time>
      </trkpt>
      <trkpt lat="44.4271" lon="3.78289">
        <ele>1572.8</ele>
        <time>2022-10-28T13:25:16Z</time>
      </trkpt>
      <trkpt lat="44.42709" lon="3.78294">
        <ele>1572.8</ele>
        <time>2022-10-28T13:25:17Z</time>
      </trkpt>
      <trkpt lat="44.42708" lon="3.783">
        <ele>1572.8</ele>
        <time>2022-10-28T13:25:18Z</time>
      </trkpt>
      <trkpt lat="44.42706" lon="3.78306">
        <ele>1572.6</ele>
        <time>2022-10-28T13:25:19Z</time>
      </trkpt>
      <trkpt lat="44.42705" lon="3.78312">
        <ele>1572.8</ele>
        <time>2022-10-28T13:25:20Z</time>
      </trkpt>
      <trkpt lat="44.42704" lon="3.78318">
        <ele>1572.8</ele>
        <time>2022-10-28T13:25:21Z</time>
      </trkpt>
      <trkpt lat="44.42703" lon="3.78324">
        <ele>1572.8</ele>
        <time>2022-10-28T13:25:22Z</time>
      </trkpt>
      <trkpt lat="44.42702" lon="3.7833">
        <ele>1572.8</ele>
        <time>2022-10-28T13:25:23Z</time>
      </trkpt>
      <trkpt lat="44.427" lon="3.78336">
        <ele>1572.6</ele>
        <time>2022-10-28T13:25:24Z</time>
      </trkpt>
      <trkpt lat="44.42699" lon="3.78342">
        <ele>1572.6</ele>
        <time>2022-10-28T13:25:25Z</time>
      </trkpt>
      <trkpt lat="44.42698" lon="3.78347">
        <ele>1572.6</ele>
        <time>2022-10-28T13:25:26Z</time>
      </trkpt>
      <trkpt lat="44.42697" lon="3.78352">
        <ele>1572.4</ele>
        <time>2022-10-28T13:25:27Z</time>
      </trkpt>
      <trkpt lat="44.42697" lon="3.78357">
        <ele>1572.4</ele>
        <time>2022-10-28T13:25:28Z</time>
      </trkpt>
      <trkpt lat="44.42696" lon="3.78362">
        <ele>1572.4</ele>
        <time>2022-10-28T13:25:29Z</time>
      </trkpt>
      <trkpt lat="44.42695" lon="3.78366">
        <ele>1572.4</ele>
        <time>2022-10-28T13:25:30Z</time>
      </trkpt>
      <trkpt lat="44.42694" lon="3.78371">
        <ele>1572.2</ele>
        <time>2022-10-28T13:25:31Z</time>
      </trkpt>
      <trkpt lat="44.42693" lon="3.78376">
        <ele>1572.2</ele>
        <time>2022-10-28T13:25:32Z</time>
      </trkpt>
      <trkpt lat="44.42691" lon="3.78381">
        <ele>1572.2</ele>
        <time>2022-10-28T13:25:33Z</time>
      </trkpt>
      <trkpt lat="44.4269" lon="3.78385">
        <ele>1572.2</ele>
        <time>2022-10-28T13:25:34Z</time>
      </trkpt>
      <trkpt lat="44.42689" lon="3.78389">
        <ele>1572.2</ele>
        <time>2022-10-28T13:25:35Z</time>
      </trkpt>
      <trkpt lat="44.42687" lon="3.78394">
        <ele>1572.2</ele>
        <time>2022-10-28T13:25:36Z</time>
      </trkpt>
      <trkpt lat="44.42686" lon="3.78399">
        <ele>1572.4</ele>
        <time>2022-10-28T13:25:37Z</time>
      </trkpt>
      <trkpt lat="44.42685" lon="3.78404">
        <ele>1572.4</ele>
        <time>2022-10-28T13:25:38Z</time>
      </trkpt>
      <trkpt lat="44.42684" lon="3.78409">
        <ele>1572.2</ele>
        <time>2022-10-28T13:25:39Z</time>
      </trkpt>
      <trkpt lat="44.42682" lon="3.78414">
        <ele>1572.2</ele>
        <time>2022-10-28T13:25:40Z</time>
      </trkpt>
      <trkpt lat="44.42681" lon="3.78419">
        <ele>1572.2</ele>
        <time>2022-10-28T13:25:41Z</time>
      </trkpt>
      <trkpt lat="44.42679" lon="3.78424">
        <ele>1572.2</ele>
        <time>2022-10-28T13:25:42Z</time>
      </trkpt>
      <trkpt lat="44.42677" lon="3.78429">
        <ele>1572.2</ele>
        <time>2022-10-28T13:25:43Z</time>
      </trkpt>
      <trkpt lat="44.42675" lon="3.78434">
        <ele>1572.4</ele>
        <time>2022-10-28T13:25:44Z</time>
      </trkpt>
      <trkpt lat="44.42673" lon="3.78439">
        <ele>1572.4</ele>
        <time>2022-10-28T13:25:45Z</time>
      </trkpt>
      <trkpt lat="44.42672" lon="3.78443">
        <ele>1572.4</ele>
        <time>2022-10-28T13:25:46Z</time>
      </trkpt>
      <trkpt lat="44.42669" lon="3.78448">
        <ele>1572.4</ele>
        <time>2022-10-28T13:25:47Z</time>
      </trkpt>
      <trkpt lat="44.42667" lon="3.78452">
        <ele>1572.4</ele>
        <time>2022-10-28T13:25:48Z</time>
      </trkpt>
      <trkpt lat="44.42665" lon="3.78457">
        <ele>1572.6</ele>
        <time>2022-10-28T13:25:49Z</time>
      </trkpt>
      <trkpt lat="44.42663" lon="3.78461">
        <ele>1572.6</ele>
        <time>2022-10-28T13:25:50Z</time>
      </trkpt>
      <trkpt lat="44.42661" lon="3.78466">
        <ele>1572.6</ele>
        <time>2022-10-28T13:25:51Z</time>
      </trkpt>
      <trkpt lat="44.42659" lon="3.7847">
        <ele>1572.8</ele>
        <time>2022-10-28T13:25:52Z</time>
      </trkpt>
      <trkpt lat="44.42656" lon="3.78475">
        <ele>1572.8</ele>
        <time>2022-10-28T13:25:53Z</time>
      </trkpt>
      <trkpt lat="44.42654" lon="3.78479">
        <ele>1572.6</ele>
        <time>2022-10-28T13:25:54Z</time>
      </trkpt>
      <trkpt lat="44.42652" lon="3.78484">
        <ele>1572.8</ele>
        <time>2022-10-28T13:25:55Z</time>
      </trkpt>
      <trkpt lat="44.4265" lon="3.78489">
        <ele>1572.6</ele>
        <time>2022-10-28T13:25:56Z</time>
      </trkpt>
      <trkpt lat="44.42647" lon="3.78494">
        <ele>1572.8</ele>
        <time>2022-10-28T13:25:57Z</time>
      </trkpt>
      <trkpt lat="44.42645" lon="3.78499">
        <ele>1572.8</ele>
        <time>2022-10-28T13:25:58Z</time>
      </trkpt>
      <trkpt lat="44.42642" lon="3.78504">
        <ele>1572.8</ele>
        <time>2022-10-28T13:25:59Z</time>
      </trkpt>
      <trkpt lat="44.42639" lon="3.78508">
        <ele>1572.8</ele>
        <time>2022-10-28T13:26:00Z</time>
      </trkpt>
      <trkpt lat="44.42636" lon="3.78513">
        <ele>1572.8</ele>
        <time>2022-10-28T13:26:01Z</time>
      </trkpt>
      <trkpt lat="44.42633" lon="3.78517">
        <ele>1572.8</ele>
        <time>2022-10-28T13:26:02Z</time>
      </trkpt>
      <trkpt lat="44.4263" lon="3.78521">
        <ele>1572.8</ele>
        <time>2022-10-28T13:26:03Z</time>
      </trkpt>
      <trkpt lat="44.42626" lon="3.78525">
        <ele>1572.8</ele>
        <time>2022-10-28T13:26:04Z</time>
      </trkpt>
      <trkpt lat="44.42623" lon="3.78529">
        <ele>1573</ele>
        <time>2022-10-28T13:26:05Z</time>
      </trkpt>
      <trkpt lat="44.4262" lon="3.78533">
        <ele>1573</ele>
        <time>2022-10-28T13:26:06Z</time>
      </trkpt>
      <trkpt lat="44.42617" lon="3.78537">
        <ele>1573</ele>
        <time>2022-10-28T13:26:07Z</time>
      </trkpt>
      <trkpt lat="44.42614" lon="3.78541">
        <ele>1573</ele>
        <time>2022-10-28T13:26:08Z</time>
      </trkpt>
      <trkpt lat="44.42611" lon="3.78546">
        <ele>1573</ele>
        <time>2022-10-28T13:26:09Z</time>
      </trkpt>
      <trkpt lat="44.42608" lon="3.78549">
        <ele>1573</ele>
        <time>2022-10-28T13:26:10Z</time>
      </trkpt>
      <trkpt lat="44.42605" lon="3.78553">
        <ele>1573</ele>
        <time>2022-10-28T13:26:11Z</time>
      </trkpt>
      <trkpt lat="44.42602" lon="3.78557">
        <ele>1573</ele>
        <time>2022-10-28T13:26:12Z</time>
      </trkpt>
      <trkpt lat="44.42599" lon="3.78561">
        <ele>1573</ele>
        <time>2022-10-28T13:26:13Z</time>
      </trkpt>
      <trkpt lat="44.42596" lon="3.78565">
        <ele>1573</ele>
        <time>2022-10-28T13:26:14Z</time>
      </trkpt>
      <trkpt lat="44.42592" lon="3.78569">
        <ele>1573</ele>
        <time>2022-10-28T13:26:15Z</time>
      </trkpt>
      <trkpt lat="44.42589" lon="3.78573">
        <ele>1573</ele>
        <time>2022-10-28T13:26:16Z</time>
      </trkpt>
      <trkpt lat="44.42586" lon="3.78577">
        <ele>1572.8</ele>
        <time>2022-10-28T13:26:17Z</time>
      </trkpt>
      <trkpt lat="44.42582" lon="3.78581">
        <ele>1572.8</ele>
        <time>2022-10-28T13:26:18Z</time>
      </trkpt>
      <trkpt lat="44.42578" lon="3.78585">
        <ele>1572.8</ele>
        <time>2022-10-28T13:26:19Z</time>
      </trkpt>
      <trkpt lat="44.42575" lon="3.78589">
        <ele>1572.8</ele>
        <time>2022-10-28T13:26:20Z</time>
      </trkpt>
      <trkpt lat="44.42571" lon="3.78592">
        <ele>1572.8</ele>
        <time>2022-10-28T13:26:21Z</time>
      </trkpt>
      <trkpt lat="44.42568" lon="3.78597">
        <ele>1572.8</ele>
        <time>2022-10-28T13:26:22Z</time>
      </trkpt>
      <trkpt lat="44.42564" lon="3.786">
        <ele>1572.8</ele>
        <time>2022-10-28T13:26:23Z</time>
      </trkpt>
      <trkpt lat="44.42561" lon="3.78604">
        <ele>1572.8</ele>
        <time>2022-10-28T13:26:24Z</time>
      </trkpt>
      <trkpt lat="44.42558" lon="3.78609">
        <ele>1573</ele>
        <time>2022-10-28T13:26:25Z</time>
      </trkpt>
      <trkpt lat="44.42554" lon="3.78613">
        <ele>1572.8</ele>
        <time>2022-10-28T13:26:26Z</time>
      </trkpt>
      <trkpt lat="44.42551" lon="3.78617">
        <ele>1573</ele>
        <time>2022-10-28T13:26:27Z</time>
      </trkpt>
      <trkpt lat="44.42548" lon="3.78621">
        <ele>1573</ele>
        <time>2022-10-28T13:26:28Z</time>
      </trkpt>
      <trkpt lat="44.42545" lon="3.78625">
        <ele>1573</ele>
        <time>2022-10-28T13:26:29Z</time>
      </trkpt>
      <trkpt lat="44.42542" lon="3.78628">
        <ele>1573.2</ele>
        <time>2022-10-28T13:26:30Z</time>
      </trkpt>
      <trkpt lat="44.42538" lon="3.78632">
        <ele>1573.2</ele>
        <time>2022-10-28T13:26:31Z</time>
      </trkpt>
      <trkpt lat="44.42534" lon="3.78635">
        <ele>1573.2</ele>
        <time>2022-10-28T13:26:32Z</time>
      </trkpt>
      <trkpt lat="44.4253" lon="3.78637">
        <ele>1573.2</ele>
        <time>2022-10-28T13:26:33Z</time>
      </trkpt>
      <trkpt lat="44.42526" lon="3.78638">
        <ele>1573</ele>
        <time>2022-10-28T13:26:34Z</time>
      </trkpt>
      <trkpt lat="44.42522" lon="3.7864">
        <ele>1573.2</ele>
        <time>2022-10-28T13:26:35Z</time>
      </trkpt>
      <trkpt lat="44.42518" lon="3.78641">
        <ele>1573</ele>
        <time>2022-10-28T13:26:36Z</time>
      </trkpt>
      <trkpt lat="44.42513" lon="3.78642">
        <ele>1573</ele>
        <time>2022-10-28T13:26:37Z</time>
      </trkpt>
      <trkpt lat="44.42509" lon="3.78643">
        <ele>1573.2</ele>
        <time>2022-10-28T13:26:38Z</time>
      </trkpt>
      <trkpt lat="44.42505" lon="3.78643">
        <ele>1573.2</ele>
        <time>2022-10-28T13:26:39Z</time>
      </trkpt>
      <trkpt lat="44.42501" lon="3.78644">
        <ele>1573.2</ele>
        <time>2022-10-28T13:26:40Z</time>
      </trkpt>
      <trkpt lat="44.42497" lon="3.78643">
        <ele>1573.2</ele>
        <time>2022-10-28T13:26:41Z</time>
      </trkpt>
      <trkpt lat="44.42494" lon="3.78643">
        <ele>1573.2</ele>
        <time>2022-10-28T13:26:42Z</time>
      </trkpt>
      <trkpt lat="44.42491" lon="3.78644">
        <ele>1573.2</ele>
        <time>2022-10-28T13:26:43Z</time>
      </trkpt>
      <trkpt lat="44.42489" lon="3.78645">
        <ele>1573.2</ele>
        <time>2022-10-28T13:26:44Z</time>
      </trkpt>
      <trkpt lat="44.42487" lon="3.78645">
        <ele>1573.2</ele>
        <time>2022-10-28T13:26:45Z</time>
      </trkpt>
      <trkpt lat="44.42485" lon="3.78646">
        <ele>1573.2</ele>
        <time>2022-10-28T13:26:46Z</time>
      </trkpt>
      <trkpt lat="44.42484" lon="3.78645">
        <ele>1572.8</ele>
        <time>2022-10-28T13:27:24Z</time>
      </trkpt>
      <trkpt lat="44.42483" lon="3.78644">
        <ele>1572.8</ele>
        <time>2022-10-28T13:27:25Z</time>
      </trkpt>
      <trkpt lat="44.42481" lon="3.78644">
        <ele>1573</ele>
        <time>2022-10-28T13:27:26Z</time>
      </trkpt>
      <trkpt lat="44.42477" lon="3.78643">
        <ele>1573</ele>
        <time>2022-10-28T13:27:27Z</time>
      </trkpt>
      <trkpt lat="44.42472" lon="3.78643">
        <ele>1573.4</ele>
        <time>2022-10-28T13:27:28Z</time>
      </trkpt>
      <trkpt lat="44.42468" lon="3.78643">
        <ele>1573.6</ele>
        <time>2022-10-28T13:27:29Z</time>
      </trkpt>
      <trkpt lat="44.42464" lon="3.78643">
        <ele>1573.8</ele>
        <time>2022-10-28T13:27:30Z</time>
      </trkpt>
      <trkpt lat="44.4246" lon="3.78643">
        <ele>1574</ele>
        <time>2022-10-28T13:27:31Z</time>
      </trkpt>
      <trkpt lat="44.42456" lon="3.78643">
        <ele>1574</ele>
        <time>2022-10-28T13:27:32Z</time>
      </trkpt>
      <trkpt lat="44.42452" lon="3.78644">
        <ele>1574.2</ele>
        <time>2022-10-28T13:27:33Z</time>
      </trkpt>
      <trkpt lat="44.42448" lon="3.78644">
        <ele>1574.4</ele>
        <time>2022-10-28T13:27:34Z</time>
      </trkpt>
      <trkpt lat="44.42444" lon="3.78645">
        <ele>1574.4</ele>
        <time>2022-10-28T13:27:35Z</time>
      </trkpt>
      <trkpt lat="44.4244" lon="3.78647">
        <ele>1574.6</ele>
        <time>2022-10-28T13:27:36Z</time>
      </trkpt>
      <trkpt lat="44.42436" lon="3.78649">
        <ele>1574.8</ele>
        <time>2022-10-28T13:27:37Z</time>
      </trkpt>
      <trkpt lat="44.42432" lon="3.78651">
        <ele>1574.8</ele>
        <time>2022-10-28T13:27:38Z</time>
      </trkpt>
      <trkpt lat="44.42428" lon="3.78655">
        <ele>1574.8</ele>
        <time>2022-10-28T13:27:39Z</time>
      </trkpt>
      <trkpt lat="44.42425" lon="3.78659">
        <ele>1574.8</ele>
        <time>2022-10-28T13:27:40Z</time>
      </trkpt>
      <trkpt lat="44.42422" lon="3.78665">
        <ele>1574.8</ele>
        <time>2022-10-28T13:27:41Z</time>
      </trkpt>
      <trkpt lat="44.42419" lon="3.78671">
        <ele>1574.6</ele>
        <time>2022-10-28T13:27:42Z</time>
      </trkpt>
      <trkpt lat="44.42418" lon="3.78677">
        <ele>1574.4</ele>
        <time>2022-10-28T13:27:43Z</time>
      </trkpt>
      <trkpt lat="44.42417" lon="3.78684">
        <ele>1574.2</ele>
        <time>2022-10-28T13:27:44Z</time>
      </trkpt>
      <trkpt lat="44.42417" lon="3.78692">
        <ele>1574</ele>
        <time>2022-10-28T13:27:45Z</time>
      </trkpt>
      <trkpt lat="44.42417" lon="3.787">
        <ele>1573.8</ele>
        <time>2022-10-28T13:27:46Z</time>
      </trkpt>
      <trkpt lat="44.42418" lon="3.78708">
        <ele>1573.6</ele>
        <time>2022-10-28T13:27:47Z</time>
      </trkpt>
      <trkpt lat="44.42419" lon="3.78716">
        <ele>1573.4</ele>
        <time>2022-10-28T13:27:48Z</time>
      </trkpt>
      <trkpt lat="44.4242" lon="3.78725">
        <ele>1573.4</ele>
        <time>2022-10-28T13:27:49Z</time>
      </trkpt>
      <trkpt lat="44.42422" lon="3.78733">
        <ele>1573.2</ele>
        <time>2022-10-28T13:27:50Z</time>
      </trkpt>
      <trkpt lat="44.42423" lon="3.78741">
        <ele>1573.2</ele>
        <time>2022-10-28T13:27:51Z</time>
      </trkpt>
      <trkpt lat="44.42424" lon="3.7875">
        <ele>1573.2</ele>
        <time>2022-10-28T13:27:52Z</time>
      </trkpt>
      <trkpt lat="44.42426" lon="3.78759">
        <ele>1573</ele>
        <time>2022-10-28T13:27:53Z</time>
      </trkpt>
      <trkpt lat="44.42428" lon="3.78767">
        <ele>1572.8</ele>
        <time>2022-10-28T13:27:54Z</time>
      </trkpt>
      <trkpt lat="44.4243" lon="3.78776">
        <ele>1572.6</ele>
        <time>2022-10-28T13:27:55Z</time>
      </trkpt>
      <trkpt lat="44.42432" lon="3.78784">
        <ele>1572.4</ele>
        <time>2022-10-28T13:27:56Z</time>
      </trkpt>
      <trkpt lat="44.42434" lon="3.78791">
        <ele>1572.4</ele>
        <time>2022-10-28T13:27:57Z</time>
      </trkpt>
      <trkpt lat="44.42437" lon="3.78799">
        <ele>1572.2</ele>
        <time>2022-10-28T13:27:58Z</time>
      </trkpt>
      <trkpt lat="44.4244" lon="3.78806">
        <ele>1572.4</ele>
        <time>2022-10-28T13:27:59Z</time>
      </trkpt>
      <trkpt lat="44.42443" lon="3.78813">
        <ele>1572.2</ele>
        <time>2022-10-28T13:28:00Z</time>
      </trkpt>
      <trkpt lat="44.42445" lon="3.78822">
        <ele>1572.2</ele>
        <time>2022-10-28T13:28:01Z</time>
      </trkpt>
      <trkpt lat="44.42446" lon="3.7883">
        <ele>1572.2</ele>
        <time>2022-10-28T13:28:02Z</time>
      </trkpt>
      <trkpt lat="44.42446" lon="3.78837">
        <ele>1572.2</ele>
        <time>2022-10-28T13:28:03Z</time>
      </trkpt>
      <trkpt lat="44.42447" lon="3.78845">
        <ele>1572</ele>
        <time>2022-10-28T13:28:04Z</time>
      </trkpt>
      <trkpt lat="44.42449" lon="3.78851">
        <ele>1572</ele>
        <time>2022-10-28T13:28:05Z</time>
      </trkpt>
      <trkpt lat="44.42451" lon="3.78855">
        <ele>1572</ele>
        <time>2022-10-28T13:28:06Z</time>
      </trkpt>
      <trkpt lat="44.42453" lon="3.78859">
        <ele>1571.8</ele>
        <time>2022-10-28T13:28:07Z</time>
      </trkpt>
      <trkpt lat="44.42453" lon="3.78861">
        <ele>1571.8</ele>
        <time>2022-10-28T13:28:08Z</time>
      </trkpt>
      <trkpt lat="44.42451" lon="3.78861">
        <ele>1571.8</ele>
        <time>2022-10-28T13:28:09Z</time>
      </trkpt>
      <trkpt lat="44.4245" lon="3.78859">
        <ele>1572</ele>
        <time>2022-10-28T13:28:10Z</time>
      </trkpt>
      <trkpt lat="44.4245" lon="3.78856">
        <ele>1572.2</ele>
        <time>2022-10-28T13:28:11Z</time>
      </trkpt>
      <trkpt lat="44.42449" lon="3.78852">
        <ele>1572.2</ele>
        <time>2022-10-28T13:28:12Z</time>
      </trkpt>
      <trkpt lat="44.42448" lon="3.78846">
        <ele>1572.2</ele>
        <time>2022-10-28T13:28:13Z</time>
      </trkpt>
      <trkpt lat="44.42447" lon="3.78841">
        <ele>1572.2</ele>
        <time>2022-10-28T13:28:14Z</time>
      </trkpt>
      <trkpt lat="44.42446" lon="3.78834">
        <ele>1572.4</ele>
        <time>2022-10-28T13:28:15Z</time>
      </trkpt>
      <trkpt lat="44.42444" lon="3.78828">
        <ele>1572.4</ele>
        <time>2022-10-28T13:28:16Z</time>
      </trkpt>
      <trkpt lat="44.42442" lon="3.78821">
        <ele>1572.6</ele>
        <time>2022-10-28T13:28:17Z</time>
      </trkpt>
      <trkpt lat="44.4244" lon="3.78813">
        <ele>1572.8</ele>
        <time>2022-10-28T13:28:18Z</time>
      </trkpt>
      <trkpt lat="44.42438" lon="3.78806">
        <ele>1573</ele>
        <time>2022-10-28T13:28:19Z</time>
      </trkpt>
      <trkpt lat="44.42436" lon="3.788">
        <ele>1573</ele>
        <time>2022-10-28T13:28:20Z</time>
      </trkpt>
      <trkpt lat="44.42434" lon="3.78793">
        <ele>1573</ele>
        <time>2022-10-28T13:28:21Z</time>
      </trkpt>
      <trkpt lat="44.42432" lon="3.78786">
        <ele>1573.2</ele>
        <time>2022-10-28T13:28:22Z</time>
      </trkpt>
      <trkpt lat="44.42431" lon="3.78779">
        <ele>1573</ele>
        <time>2022-10-28T13:28:23Z</time>
      </trkpt>
      <trkpt lat="44.42429" lon="3.78773">
        <ele>1573</ele>
        <time>2022-10-28T13:28:24Z</time>
      </trkpt>
      <trkpt lat="44.42428" lon="3.78766">
        <ele>1573</ele>
        <time>2022-10-28T13:28:25Z</time>
      </trkpt>
      <trkpt lat="44.42426" lon="3.78759">
        <ele>1573.2</ele>
        <time>2022-10-28T13:28:26Z</time>
      </trkpt>
      <trkpt lat="44.42425" lon="3.78752">
        <ele>1573.2</ele>
        <time>2022-10-28T13:28:27Z</time>
      </trkpt>
      <trkpt lat="44.42424" lon="3.78745">
        <ele>1573.2</ele>
        <time>2022-10-28T13:28:28Z</time>
      </trkpt>
      <trkpt lat="44.42423" lon="3.78738">
        <ele>1573.4</ele>
        <time>2022-10-28T13:28:29Z</time>
      </trkpt>
      <trkpt lat="44.42422" lon="3.78731">
        <ele>1573.4</ele>
        <time>2022-10-28T13:28:30Z</time>
      </trkpt>
      <trkpt lat="44.42421" lon="3.78724">
        <ele>1573.6</ele>
        <time>2022-10-28T13:28:31Z</time>
      </trkpt>
      <trkpt lat="44.4242" lon="3.78717">
        <ele>1573.6</ele>
        <time>2022-10-28T13:28:32Z</time>
      </trkpt>
      <trkpt lat="44.4242" lon="3.7871">
        <ele>1573.8</ele>
        <time>2022-10-28T13:28:33Z</time>
      </trkpt>
      <trkpt lat="44.42419" lon="3.78704">
        <ele>1573.8</ele>
        <time>2022-10-28T13:28:34Z</time>
      </trkpt>
      <trkpt lat="44.42418" lon="3.78698">
        <ele>1573.8</ele>
        <time>2022-10-28T13:28:35Z</time>
      </trkpt>
      <trkpt lat="44.42418" lon="3.78692">
        <ele>1574</ele>
        <time>2022-10-28T13:28:36Z</time>
      </trkpt>
      <trkpt lat="44.42418" lon="3.78686">
        <ele>1574</ele>
        <time>2022-10-28T13:28:37Z</time>
      </trkpt>
      <trkpt lat="44.42419" lon="3.7868">
        <ele>1574.2</ele>
        <time>2022-10-28T13:28:38Z</time>
      </trkpt>
      <trkpt lat="44.42419" lon="3.78675">
        <ele>1574.4</ele>
        <time>2022-10-28T13:28:39Z</time>
      </trkpt>
      <trkpt lat="44.42421" lon="3.78669">
        <ele>1574.2</ele>
        <time>2022-10-28T13:28:40Z</time>
      </trkpt>
      <trkpt lat="44.42423" lon="3.78665">
        <ele>1574.2</ele>
        <time>2022-10-28T13:28:41Z</time>
      </trkpt>
      <trkpt lat="44.42425" lon="3.7866">
        <ele>1574.2</ele>
        <time>2022-10-28T13:28:42Z</time>
      </trkpt>
      <trkpt lat="44.42428" lon="3.78656">
        <ele>1574.2</ele>
        <time>2022-10-28T13:28:43Z</time>
      </trkpt>
      <trkpt lat="44.42432" lon="3.78652">
        <ele>1574.2</ele>
        <time>2022-10-28T13:28:44Z</time>
      </trkpt>
      <trkpt lat="44.42435" lon="3.78649">
        <ele>1574</ele>
        <time>2022-10-28T13:28:45Z</time>
      </trkpt>
      <trkpt lat="44.42439" lon="3.78647">
        <ele>1574</ele>
        <time>2022-10-28T13:28:46Z</time>
      </trkpt>
      <trkpt lat="44.42443" lon="3.78645">
        <ele>1574</ele>
        <time>2022-10-28T13:28:47Z</time>
      </trkpt>
      <trkpt lat="44.42447" lon="3.78644">
        <ele>1574</ele>
        <time>2022-10-28T13:28:48Z</time>
      </trkpt>
      <trkpt lat="44.42452" lon="3.78644">
        <ele>1573.8</ele>
        <time>2022-10-28T13:28:49Z</time>
      </trkpt>
      <trkpt lat="44.42456" lon="3.78643">
        <ele>1573.8</ele>
        <time>2022-10-28T13:28:50Z</time>
      </trkpt>
      <trkpt lat="44.4246" lon="3.78643">
        <ele>1573.6</ele>
        <time>2022-10-28T13:28:51Z</time>
      </trkpt>
      <trkpt lat="44.42466" lon="3.78643">
        <ele>1573.4</ele>
        <time>2022-10-28T13:28:52Z</time>
      </trkpt>
      <trkpt lat="44.42471" lon="3.78643">
        <ele>1573.4</ele>
        <time>2022-10-28T13:28:53Z</time>
      </trkpt>
      <trkpt lat="44.42475" lon="3.78644">
        <ele>1573.2</ele>
        <time>2022-10-28T13:28:54Z</time>
      </trkpt>
      <trkpt lat="44.42479" lon="3.78644">
        <ele>1573</ele>
        <time>2022-10-28T13:28:55Z</time>
      </trkpt>
      <trkpt lat="44.42482" lon="3.78645">
        <ele>1572.8</ele>
        <time>2022-10-28T13:28:56Z</time>
      </trkpt>
      <trkpt lat="44.42484" lon="3.78646">
        <ele>1572.8</ele>
        <time>2022-10-28T13:28:57Z</time>
      </trkpt>
      <trkpt lat="44.42486" lon="3.78645">
        <ele>1572.4</ele>
        <time>2022-10-28T13:29:07Z</time>
      </trkpt>
      <trkpt lat="44.42486" lon="3.78643">
        <ele>1572.6</ele>
        <time>2022-10-28T13:29:08Z</time>
      </trkpt>
      <trkpt lat="44.42486" lon="3.78642">
        <ele>1572.6</ele>
        <time>2022-10-28T13:29:09Z</time>
      </trkpt>
      <trkpt lat="44.42486" lon="3.78641">
        <ele>1572.6</ele>
        <time>2022-10-28T13:29:10Z</time>
      </trkpt>
      <trkpt lat="44.42485" lon="3.78641">
        <ele>1572.6</ele>
        <time>2022-10-28T13:29:11Z</time>
      </trkpt>
      <trkpt lat="44.42484" lon="3.78642">
        <ele>1572.8</ele>
        <time>2022-10-28T13:29:12Z</time>
      </trkpt>
      <trkpt lat="44.42481" lon="3.78643">
        <ele>1572.8</ele>
        <time>2022-10-28T13:29:13Z</time>
      </trkpt>
      <trkpt lat="44.42479" lon="3.78644">
        <ele>1573</ele>
        <time>2022-10-28T13:29:14Z</time>
      </trkpt>
      <trkpt lat="44.42476" lon="3.78643">
        <ele>1573.2</ele>
        <time>2022-10-28T13:29:15Z</time>
      </trkpt>
      <trkpt lat="44.42473" lon="3.78643">
        <ele>1573.2</ele>
        <time>2022-10-28T13:29:16Z</time>
      </trkpt>
      <trkpt lat="44.4247" lon="3.78643">
        <ele>1573.4</ele>
        <time>2022-10-28T13:29:17Z</time>
      </trkpt>
      <trkpt lat="44.42467" lon="3.78643">
        <ele>1573.4</ele>
        <time>2022-10-28T13:29:18Z</time>
      </trkpt>
      <trkpt lat="44.42464" lon="3.78643">
        <ele>1573.4</ele>
        <time>2022-10-28T13:29:19Z</time>
      </trkpt>
      <trkpt lat="44.4246" lon="3.78644">
        <ele>1573.6</ele>
        <time>2022-10-28T13:29:20Z</time>
      </trkpt>
      <trkpt lat="44.42457" lon="3.78644">
        <ele>1573.8</ele>
        <time>2022-10-28T13:29:21Z</time>
      </trkpt>
      <trkpt lat="44.42454" lon="3.78644">
        <ele>1574</ele>
        <time>2022-10-28T13:29:22Z</time>
      </trkpt>
      <trkpt lat="44.42451" lon="3.78644">
        <ele>1574</ele>
        <time>2022-10-28T13:29:23Z</time>
      </trkpt>
      <trkpt lat="44.42447" lon="3.78645">
        <ele>1574.2</ele>
        <time>2022-10-28T13:29:24Z</time>
      </trkpt>
      <trkpt lat="44.42444" lon="3.78646">
        <ele>1574.2</ele>
        <time>2022-10-28T13:29:25Z</time>
      </trkpt>
      <trkpt lat="44.42441" lon="3.78647">
        <ele>1574.4</ele>
        <time>2022-10-28T13:29:26Z</time>
      </trkpt>
      <trkpt lat="44.42437" lon="3.78648">
        <ele>1574.4</ele>
        <time>2022-10-28T13:29:27Z</time>
      </trkpt>
      <trkpt lat="44.42434" lon="3.7865">
        <ele>1574.4</ele>
        <time>2022-10-28T13:29:28Z</time>
      </trkpt>
      <trkpt lat="44.42431" lon="3.78653">
        <ele>1574.4</ele>
        <time>2022-10-28T13:29:29Z</time>
      </trkpt>
      <trkpt lat="44.42428" lon="3.78656">
        <ele>1574.4</ele>
        <time>2022-10-28T13:29:30Z</time>
      </trkpt>
      <trkpt lat="44.42425" lon="3.7866">
        <ele>1574.4</ele>
        <time>2022-10-28T13:29:31Z</time>
      </trkpt>
      <trkpt lat="44.42422" lon="3.78664">
        <ele>1574.6</ele>
        <time>2022-10-28T13:29:32Z</time>
      </trkpt>
      <trkpt lat="44.4242" lon="3.78669">
        <ele>1574.6</ele>
        <time>2022-10-28T13:29:33Z</time>
      </trkpt>
      <trkpt lat="44.42418" lon="3.78675">
        <ele>1574.4</ele>
        <time>2022-10-28T13:29:34Z</time>
      </trkpt>
      <trkpt lat="44.42417" lon="3.78682">
        <ele>1574.4</ele>
        <time>2022-10-28T13:29:35Z</time>
      </trkpt>
      <trkpt lat="44.42416" lon="3.78688">
        <ele>1574.2</ele>
        <time>2022-10-28T13:29:36Z</time>
      </trkpt>
      <trkpt lat="44.42417" lon="3.78696">
        <ele>1574</ele>
        <time>2022-10-28T13:29:37Z</time>
      </trkpt>
      <trkpt lat="44.42418" lon="3.78703">
        <ele>1573.8</ele>
        <time>2022-10-28T13:29:38Z</time>
      </trkpt>
      <trkpt lat="44.42419" lon="3.7871">
        <ele>1573.8</ele>
        <time>2022-10-28T13:29:39Z</time>
      </trkpt>
      <trkpt lat="44.42419" lon="3.78718">
        <ele>1573.6</ele>
        <time>2022-10-28T13:29:40Z</time>
      </trkpt>
      <trkpt lat="44.42421" lon="3.78725">
        <ele>1573.4</ele>
        <time>2022-10-28T13:29:41Z</time>
      </trkpt>
      <trkpt lat="44.42422" lon="3.78733">
        <ele>1573.2</ele>
        <time>2022-10-28T13:29:42Z</time>
      </trkpt>
      <trkpt lat="44.42423" lon="3.78741">
        <ele>1573.2</ele>
        <time>2022-10-28T13:29:43Z</time>
      </trkpt>
      <trkpt lat="44.42424" lon="3.78748">
        <ele>1573</ele>
        <time>2022-10-28T13:29:44Z</time>
      </trkpt>
      <trkpt lat="44.42425" lon="3.78755">
        <ele>1573</ele>
        <time>2022-10-28T13:29:45Z</time>
      </trkpt>
      <trkpt lat="44.42427" lon="3.78763">
        <ele>1572.6</ele>
        <time>2022-10-28T13:29:46Z</time>
      </trkpt>
      <trkpt lat="44.42428" lon="3.7877">
        <ele>1572.6</ele>
        <time>2022-10-28T13:29:47Z</time>
      </trkpt>
      <trkpt lat="44.4243" lon="3.78777">
        <ele>1572.4</ele>
        <time>2022-10-28T13:29:48Z</time>
      </trkpt>
      <trkpt lat="44.42432" lon="3.78784">
        <ele>1572.4</ele>
        <time>2022-10-28T13:29:49Z</time>
      </trkpt>
      <trkpt lat="44.42434" lon="3.7879">
        <ele>1572.2</ele>
        <time>2022-10-28T13:29:50Z</time>
      </trkpt>
      <trkpt lat="44.42436" lon="3.78797">
        <ele>1572.2</ele>
        <time>2022-10-28T13:29:51Z</time>
      </trkpt>
      <trkpt lat="44.42439" lon="3.78803">
        <ele>1572</ele>
        <time>2022-10-28T13:29:52Z</time>
      </trkpt>
      <trkpt lat="44.42441" lon="3.78809">
        <ele>1572</ele>
        <time>2022-10-28T13:29:53Z</time>
      </trkpt>
      <trkpt lat="44.42444" lon="3.78816">
        <ele>1572</ele>
        <time>2022-10-28T13:29:54Z</time>
      </trkpt>
      <trkpt lat="44.42445" lon="3.78823">
        <ele>1572.2</ele>
        <time>2022-10-28T13:29:55Z</time>
      </trkpt>
      <trkpt lat="44.42446" lon="3.7883">
        <ele>1572.2</ele>
        <time>2022-10-28T13:29:56Z</time>
      </trkpt>
      <trkpt lat="44.42446" lon="3.78837">
        <ele>1572.2</ele>
        <time>2022-10-28T13:29:57Z</time>
      </trkpt>
      <trkpt lat="44.42447" lon="3.78843">
        <ele>1572</ele>
        <time>2022-10-28T13:29:58Z</time>
      </trkpt>
      <trkpt lat="44.42448" lon="3.7885">
        <ele>1572</ele>
        <time>2022-10-28T13:29:59Z</time>
      </trkpt>
      <trkpt lat="44.4245" lon="3.78856">
        <ele>1572</ele>
        <time>2022-10-28T13:30:00Z</time>
      </trkpt>
      <trkpt lat="44.42452" lon="3.78862">
        <ele>1572</ele>
        <time>2022-10-28T13:30:01Z</time>
      </trkpt>
      <trkpt lat="44.42453" lon="3.78869">
        <ele>1572.2</ele>
        <time>2022-10-28T13:30:02Z</time>
      </trkpt>
      <trkpt lat="44.42454" lon="3.78875">
        <ele>1572.2</ele>
        <time>2022-10-28T13:30:03Z</time>
      </trkpt>
      <trkpt lat="44.42455" lon="3.78882">
        <ele>1572.4</ele>
        <time>2022-10-28T13:30:04Z</time>
      </trkpt>
      <trkpt lat="44.42456" lon="3.78889">
        <ele>1572.4</ele>
        <time>2022-10-28T13:30:05Z</time>
      </trkpt>
      <trkpt lat="44.42457" lon="3.78895">
        <ele>1572.4</ele>
        <time>2022-10-28T13:30:06Z</time>
      </trkpt>
      <trkpt lat="44.42459" lon="3.78902">
        <ele>1572.6</ele>
        <time>2022-10-28T13:30:07Z</time>
      </trkpt>
      <trkpt lat="44.4246" lon="3.78908">
        <ele>1572.6</ele>
        <time>2022-10-28T13:30:08Z</time>
      </trkpt>
      <trkpt lat="44.42462" lon="3.78914">
        <ele>1572.6</ele>
        <time>2022-10-28T13:30:09Z</time>
      </trkpt>
      <trkpt lat="44.42464" lon="3.7892">
        <ele>1572.6</ele>
        <time>2022-10-28T13:30:10Z</time>
      </trkpt>
      <trkpt lat="44.42465" lon="3.78926">
        <ele>1572.6</ele>
        <time>2022-10-28T13:30:11Z</time>
      </trkpt>
      <trkpt lat="44.42465" lon="3.78933">
        <ele>1572.8</ele>
        <time>2022-10-28T13:30:12Z</time>
      </trkpt>
      <trkpt lat="44.42466" lon="3.7894">
        <ele>1572.8</ele>
        <time>2022-10-28T13:30:13Z</time>
      </trkpt>
      <trkpt lat="44.42466" lon="3.78946">
        <ele>1572.8</ele>
        <time>2022-10-28T13:30:14Z</time>
      </trkpt>
      <trkpt lat="44.42466" lon="3.78952">
        <ele>1573</ele>
        <time>2022-10-28T13:30:15Z</time>
      </trkpt>
      <trkpt lat="44.42466" lon="3.78958">
        <ele>1573</ele>
        <time>2022-10-28T13:30:16Z</time>
      </trkpt>
      <trkpt lat="44.42466" lon="3.78964">
        <ele>1573</ele>
        <time>2022-10-28T13:30:17Z</time>
      </trkpt>
      <trkpt lat="44.42465" lon="3.78971">
        <ele>1573</ele>
        <time>2022-10-28T13:30:18Z</time>
      </trkpt>
      <trkpt lat="44.42465" lon="3.78977">
        <ele>1573.2</ele>
        <time>2022-10-28T13:30:19Z</time>
      </trkpt>
      <trkpt lat="44.42464" lon="3.78982">
        <ele>1573.2</ele>
        <time>2022-10-28T13:30:20Z</time>
      </trkpt>
      <trkpt lat="44.42463" lon="3.78988">
        <ele>1573.4</ele>
        <time>2022-10-28T13:30:21Z</time>
      </trkpt>
      <trkpt lat="44.42463" lon="3.78994">
        <ele>1573.4</ele>
        <time>2022-10-28T13:30:22Z</time>
      </trkpt>
      <trkpt lat="44.42462" lon="3.79">
        <ele>1573.6</ele>
        <time>2022-10-28T13:30:23Z</time>
      </trkpt>
      <trkpt lat="44.42461" lon="3.79006">
        <ele>1573.6</ele>
        <time>2022-10-28T13:30:24Z</time>
      </trkpt>
      <trkpt lat="44.4246" lon="3.79011">
        <ele>1573.6</ele>
        <time>2022-10-28T13:30:25Z</time>
      </trkpt>
      <trkpt lat="44.42459" lon="3.79017">
        <ele>1573.6</ele>
        <time>2022-10-28T13:30:26Z</time>
      </trkpt>
      <trkpt lat="44.42458" lon="3.79022">
        <ele>1573.6</ele>
        <time>2022-10-28T13:30:27Z</time>
      </trkpt>
      <trkpt lat="44.42457" lon="3.79027">
        <ele>1573.8</ele>
        <time>2022-10-28T13:30:28Z</time>
      </trkpt>
      <trkpt lat="44.42456" lon="3.79032">
        <ele>1573.8</ele>
        <time>2022-10-28T13:30:29Z</time>
      </trkpt>
      <trkpt lat="44.42455" lon="3.79037">
        <ele>1574</ele>
        <time>2022-10-28T13:30:30Z</time>
      </trkpt>
      <trkpt lat="44.42454" lon="3.79042">
        <ele>1574</ele>
        <time>2022-10-28T13:30:31Z</time>
      </trkpt>
      <trkpt lat="44.42453" lon="3.79048">
        <ele>1574.2</ele>
        <time>2022-10-28T13:30:32Z</time>
      </trkpt>
      <trkpt lat="44.42452" lon="3.79053">
        <ele>1574.4</ele>
        <time>2022-10-28T13:30:33Z</time>
      </trkpt>
      <trkpt lat="44.4245" lon="3.79058">
        <ele>1574.4</ele>
        <time>2022-10-28T13:30:34Z</time>
      </trkpt>
      <trkpt lat="44.42449" lon="3.79064">
        <ele>1574.6</ele>
        <time>2022-10-28T13:30:35Z</time>
      </trkpt>
      <trkpt lat="44.42448" lon="3.79069">
        <ele>1574.8</ele>
        <time>2022-10-28T13:30:36Z</time>
      </trkpt>
      <trkpt lat="44.42447" lon="3.79074">
        <ele>1574.8</ele>
        <time>2022-10-28T13:30:37Z</time>
      </trkpt>
      <trkpt lat="44.42445" lon="3.7908">
        <ele>1575</ele>
        <time>2022-10-28T13:30:38Z</time>
      </trkpt>
      <trkpt lat="44.42444" lon="3.79085">
        <ele>1575.2</ele>
        <time>2022-10-28T13:30:39Z</time>
      </trkpt>
      <trkpt lat="44.42442" lon="3.7909">
        <ele>1575.2</ele>
        <time>2022-10-28T13:30:40Z</time>
      </trkpt>
      <trkpt lat="44.42441" lon="3.79094">
        <ele>1575.4</ele>
        <time>2022-10-28T13:30:41Z</time>
      </trkpt>
      <trkpt lat="44.42439" lon="3.79099">
        <ele>1575.4</ele>
        <time>2022-10-28T13:30:42Z</time>
      </trkpt>
      <trkpt lat="44.42437" lon="3.79104">
        <ele>1575.6</ele>
        <time>2022-10-28T13:30:43Z</time>
      </trkpt>
      <trkpt lat="44.42435" lon="3.79109">
        <ele>1575.6</ele>
        <time>2022-10-28T13:30:44Z</time>
      </trkpt>
      <trkpt lat="44.42433" lon="3.79113">
        <ele>1575.8</ele>
        <time>2022-10-28T13:30:45Z</time>
      </trkpt>
      <trkpt lat="44.42431" lon="3.79117">
        <ele>1576</ele>
        <time>2022-10-28T13:30:46Z</time>
      </trkpt>
      <trkpt lat="44.42429" lon="3.79121">
        <ele>1576.2</ele>
        <time>2022-10-28T13:30:47Z</time>
      </trkpt>
      <trkpt lat="44.42426" lon="3.79125">
        <ele>1576.2</ele>
        <time>2022-10-28T13:30:48Z</time>
      </trkpt>
      <trkpt lat="44.42424" lon="3.79128">
        <ele>1576.4</ele>
        <time>2022-10-28T13:30:49Z</time>
      </trkpt>
      <trkpt lat="44.42422" lon="3.79132">
        <ele>1576.6</ele>
        <time>2022-10-28T13:30:50Z</time>
      </trkpt>
      <trkpt lat="44.42419" lon="3.79135">
        <ele>1576.8</ele>
        <time>2022-10-28T13:30:51Z</time>
      </trkpt>
      <trkpt lat="44.42417" lon="3.79138">
        <ele>1577</ele>
        <time>2022-10-28T13:30:52Z</time>
      </trkpt>
      <trkpt lat="44.42414" lon="3.79141">
        <ele>1577.2</ele>
        <time>2022-10-28T13:30:53Z</time>
      </trkpt>
      <trkpt lat="44.42412" lon="3.79143">
        <ele>1577.2</ele>
        <time>2022-10-28T13:30:54Z</time>
      </trkpt>
      <trkpt lat="44.4241" lon="3.79146">
        <ele>1577.4</ele>
        <time>2022-10-28T13:30:55Z</time>
      </trkpt>
      <trkpt lat="44.42407" lon="3.79148">
        <ele>1577.4</ele>
        <time>2022-10-28T13:30:56Z</time>
      </trkpt>
      <trkpt lat="44.42405" lon="3.79151">
        <ele>1577.4</ele>
        <time>2022-10-28T13:30:57Z</time>
      </trkpt>
      <trkpt lat="44.42403" lon="3.79153">
        <ele>1577.6</ele>
        <time>2022-10-28T13:30:58Z</time>
      </trkpt>
      <trkpt lat="44.42401" lon="3.79156">
        <ele>1577.6</ele>
        <time>2022-10-28T13:30:59Z</time>
      </trkpt>
      <trkpt lat="44.42398" lon="3.79159">
        <ele>1577.8</ele>
        <time>2022-10-28T13:31:00Z</time>
      </trkpt>
      <trkpt lat="44.42396" lon="3.79161">
        <ele>1578</ele>
        <time>2022-10-28T13:31:01Z</time>
      </trkpt>
      <trkpt lat="44.42394" lon="3.79164">
        <ele>1578.2</ele>
        <time>2022-10-28T13:31:02Z</time>
      </trkpt>
      <trkpt lat="44.42391" lon="3.79166">
        <ele>1578.4</ele>
        <time>2022-10-28T13:31:03Z</time>
      </trkpt>
      <trkpt lat="44.42389" lon="3.79169">
        <ele>1578.4</ele>
        <time>2022-10-28T13:31:04Z</time>
      </trkpt>
      <trkpt lat="44.42387" lon="3.79171">
        <ele>1578.6</ele>
        <time>2022-10-28T13:31:05Z</time>
      </trkpt>
      <trkpt lat="44.42385" lon="3.79174">
        <ele>1578.6</ele>
        <time>2022-10-28T13:31:06Z</time>
      </trkpt>
      <trkpt lat="44.42382" lon="3.79177">
        <ele>1578.8</ele>
        <time>2022-10-28T13:31:07Z</time>
      </trkpt>
      <trkpt lat="44.4238" lon="3.79179">
        <ele>1578.8</ele>
        <time>2022-10-28T13:31:08Z</time>
      </trkpt>
      <trkpt lat="44.42378" lon="3.79182">
        <ele>1579</ele>
        <time>2022-10-28T13:31:09Z</time>
      </trkpt>
      <trkpt lat="44.42375" lon="3.79184">
        <ele>1579.2</ele>
        <time>2022-10-28T13:31:10Z</time>
      </trkpt>
      <trkpt lat="44.42373" lon="3.79187">
        <ele>1579.4</ele>
        <time>2022-10-28T13:31:11Z</time>
      </trkpt>
      <trkpt lat="44.4237" lon="3.79189">
        <ele>1579.6</ele>
        <time>2022-10-28T13:31:12Z</time>
      </trkpt>
      <trkpt lat="44.42368" lon="3.79192">
        <ele>1579.8</ele>
        <time>2022-10-28T13:31:13Z</time>
      </trkpt>
      <trkpt lat="44.42366" lon="3.79194">
        <ele>1580</ele>
        <time>2022-10-28T13:31:14Z</time>
      </trkpt>
      <trkpt lat="44.42363" lon="3.79197">
        <ele>1580</ele>
        <time>2022-10-28T13:31:15Z</time>
      </trkpt>
      <trkpt lat="44.42361" lon="3.79199">
        <ele>1580.2</ele>
        <time>2022-10-28T13:31:16Z</time>
      </trkpt>
      <trkpt lat="44.42358" lon="3.79202">
        <ele>1580.2</ele>
        <time>2022-10-28T13:31:17Z</time>
      </trkpt>
      <trkpt lat="44.42356" lon="3.79204">
        <ele>1580.2</ele>
        <time>2022-10-28T13:31:18Z</time>
      </trkpt>
      <trkpt lat="44.42353" lon="3.79206">
        <ele>1580.4</ele>
        <time>2022-10-28T13:31:19Z</time>
      </trkpt>
      <trkpt lat="44.42351" lon="3.79209">
        <ele>1580.4</ele>
        <time>2022-10-28T13:31:20Z</time>
      </trkpt>
      <trkpt lat="44.42348" lon="3.79211">
        <ele>1580.6</ele>
        <time>2022-10-28T13:31:21Z</time>
      </trkpt>
      <trkpt lat="44.42345" lon="3.79213">
        <ele>1580.6</ele>
        <time>2022-10-28T13:31:22Z</time>
      </trkpt>
      <trkpt lat="44.42343" lon="3.79216">
        <ele>1581</ele>
        <time>2022-10-28T13:31:23Z</time>
      </trkpt>
      <trkpt lat="44.4234" lon="3.79218">
        <ele>1581.2</ele>
        <time>2022-10-28T13:31:24Z</time>
      </trkpt>
      <trkpt lat="44.42337" lon="3.7922">
        <ele>1581.2</ele>
        <time>2022-10-28T13:31:25Z</time>
      </trkpt>
      <trkpt lat="44.42335" lon="3.79222">
        <ele>1581.2</ele>
        <time>2022-10-28T13:31:26Z</time>
      </trkpt>
      <trkpt lat="44.42332" lon="3.79223">
        <ele>1581.4</ele>
        <time>2022-10-28T13:31:27Z</time>
      </trkpt>
      <trkpt lat="44.42329" lon="3.79225">
        <ele>1581.4</ele>
        <time>2022-10-28T13:31:28Z</time>
      </trkpt>
      <trkpt lat="44.42325" lon="3.79226">
        <ele>1581.6</ele>
        <time>2022-10-28T13:31:29Z</time>
      </trkpt>
      <trkpt lat="44.42323" lon="3.79227">
        <ele>1581.6</ele>
        <time>2022-10-28T13:31:30Z</time>
      </trkpt>
      <trkpt lat="44.42319" lon="3.79229">
        <ele>1581.6</ele>
        <time>2022-10-28T13:31:31Z</time>
      </trkpt>
      <trkpt lat="44.42316" lon="3.7923">
        <ele>1581.8</ele>
        <time>2022-10-28T13:31:32Z</time>
      </trkpt>
      <trkpt lat="44.42313" lon="3.79232">
        <ele>1581.8</ele>
        <time>2022-10-28T13:31:33Z</time>
      </trkpt>
      <trkpt lat="44.4231" lon="3.79234">
        <ele>1582</ele>
        <time>2022-10-28T13:31:34Z</time>
      </trkpt>
      <trkpt lat="44.42307" lon="3.79235">
        <ele>1582</ele>
        <time>2022-10-28T13:31:35Z</time>
      </trkpt>
      <trkpt lat="44.42304" lon="3.79237">
        <ele>1582</ele>
        <time>2022-10-28T13:31:36Z</time>
      </trkpt>
      <trkpt lat="44.42301" lon="3.79238">
        <ele>1582.2</ele>
        <time>2022-10-28T13:31:37Z</time>
      </trkpt>
      <trkpt lat="44.42298" lon="3.7924">
        <ele>1582.4</ele>
        <time>2022-10-28T13:31:38Z</time>
      </trkpt>
      <trkpt lat="44.42295" lon="3.79241">
        <ele>1582.6</ele>
        <time>2022-10-28T13:31:39Z</time>
      </trkpt>
      <trkpt lat="44.42292" lon="3.79243">
        <ele>1582.6</ele>
        <time>2022-10-28T13:31:40Z</time>
      </trkpt>
      <trkpt lat="44.42289" lon="3.79246">
        <ele>1582.8</ele>
        <time>2022-10-28T13:31:41Z</time>
      </trkpt>
      <trkpt lat="44.42286" lon="3.79248">
        <ele>1582.8</ele>
        <time>2022-10-28T13:31:42Z</time>
      </trkpt>
      <trkpt lat="44.42284" lon="3.79251">
        <ele>1582.8</ele>
        <time>2022-10-28T13:31:43Z</time>
      </trkpt>
      <trkpt lat="44.42282" lon="3.79255">
        <ele>1582.6</ele>
        <time>2022-10-28T13:31:44Z</time>
      </trkpt>
      <trkpt lat="44.4228" lon="3.7926">
        <ele>1582.6</ele>
        <time>2022-10-28T13:31:45Z</time>
      </trkpt>
      <trkpt lat="44.42279" lon="3.79265">
        <ele>1582.4</ele>
        <time>2022-10-28T13:31:46Z</time>
      </trkpt>
      <trkpt lat="44.42279" lon="3.7927">
        <ele>1582.4</ele>
        <time>2022-10-28T13:31:47Z</time>
      </trkpt>
      <trkpt lat="44.4228" lon="3.79276">
        <ele>1582.2</ele>
        <time>2022-10-28T13:31:48Z</time>
      </trkpt>
      <trkpt lat="44.42281" lon="3.7928">
        <ele>1582.2</ele>
        <time>2022-10-28T13:31:49Z</time>
      </trkpt>
      <trkpt lat="44.42283" lon="3.79284">
        <ele>1582.2</ele>
        <time>2022-10-28T13:31:50Z</time>
      </trkpt>
      <trkpt lat="44.42285" lon="3.79288">
        <ele>1582.2</ele>
        <time>2022-10-28T13:31:51Z</time>
      </trkpt>
      <trkpt lat="44.42288" lon="3.79292">
        <ele>1582.2</ele>
        <time>2022-10-28T13:31:52Z</time>
      </trkpt>
      <trkpt lat="44.4229" lon="3.79295">
        <ele>1582.2</ele>
        <time>2022-10-28T13:31:53Z</time>
      </trkpt>
      <trkpt lat="44.42293" lon="3.79298">
        <ele>1582</ele>
        <time>2022-10-28T13:31:54Z</time>
      </trkpt>
      <trkpt lat="44.42296" lon="3.79301">
        <ele>1582</ele>
        <time>2022-10-28T13:31:55Z</time>
      </trkpt>
      <trkpt lat="44.42299" lon="3.79303">
        <ele>1582</ele>
        <time>2022-10-28T13:31:56Z</time>
      </trkpt>
      <trkpt lat="44.42303" lon="3.79305">
        <ele>1582</ele>
        <time>2022-10-28T13:31:57Z</time>
      </trkpt>
      <trkpt lat="44.42307" lon="3.79305">
        <ele>1581.8</ele>
        <time>2022-10-28T13:31:58Z</time>
      </trkpt>
      <trkpt lat="44.42311" lon="3.79306">
        <ele>1581.8</ele>
        <time>2022-10-28T13:31:59Z</time>
      </trkpt>
      <trkpt lat="44.42314" lon="3.79307">
        <ele>1581.8</ele>
        <time>2022-10-28T13:32:00Z</time>
      </trkpt>
      <trkpt lat="44.42319" lon="3.79307">
        <ele>1581.6</ele>
        <time>2022-10-28T13:32:01Z</time>
      </trkpt>
      <trkpt lat="44.42323" lon="3.79308">
        <ele>1581.6</ele>
        <time>2022-10-28T13:32:02Z</time>
      </trkpt>
      <trkpt lat="44.42328" lon="3.79309">
        <ele>1581.4</ele>
        <time>2022-10-28T13:32:03Z</time>
      </trkpt>
      <trkpt lat="44.42332" lon="3.7931">
        <ele>1581.4</ele>
        <time>2022-10-28T13:32:04Z</time>
      </trkpt>
      <trkpt lat="44.42337" lon="3.79311">
        <ele>1581.2</ele>
        <time>2022-10-28T13:32:05Z</time>
      </trkpt>
      <trkpt lat="44.42342" lon="3.79312">
        <ele>1581.2</ele>
        <time>2022-10-28T13:32:06Z</time>
      </trkpt>
      <trkpt lat="44.42347" lon="3.79313">
        <ele>1581</ele>
        <time>2022-10-28T13:32:07Z</time>
      </trkpt>
      <trkpt lat="44.42352" lon="3.79314">
        <ele>1580.8</ele>
        <time>2022-10-28T13:32:08Z</time>
      </trkpt>
      <trkpt lat="44.42358" lon="3.79316">
        <ele>1580.8</ele>
        <time>2022-10-28T13:32:09Z</time>
      </trkpt>
      <trkpt lat="44.42363" lon="3.79317">
        <ele>1580.6</ele>
        <time>2022-10-28T13:32:10Z</time>
      </trkpt>
      <trkpt lat="44.42368" lon="3.79319">
        <ele>1580.6</ele>
        <time>2022-10-28T13:32:11Z</time>
      </trkpt>
      <trkpt lat="44.42374" lon="3.7932">
        <ele>1580.4</ele>
        <time>2022-10-28T13:32:12Z</time>
      </trkpt>
      <trkpt lat="44.42379" lon="3.79322">
        <ele>1580.4</ele>
        <time>2022-10-28T13:32:13Z</time>
      </trkpt>
      <trkpt lat="44.42385" lon="3.79323">
        <ele>1580.2</ele>
        <time>2022-10-28T13:32:14Z</time>
      </trkpt>
      <trkpt lat="44.4239" lon="3.79324">
        <ele>1580</ele>
        <time>2022-10-28T13:32:15Z</time>
      </trkpt>
      <trkpt lat="44.42396" lon="3.79325">
        <ele>1580</ele>
        <time>2022-10-28T13:32:16Z</time>
      </trkpt>
      <trkpt lat="44.42402" lon="3.79326">
        <ele>1579.8</ele>
        <time>2022-10-28T13:32:17Z</time>
      </trkpt>
      <trkpt lat="44.42407" lon="3.79327">
        <ele>1579.6</ele>
        <time>2022-10-28T13:32:18Z</time>
      </trkpt>
      <trkpt lat="44.42414" lon="3.79328">
        <ele>1579.4</ele>
        <time>2022-10-28T13:32:19Z</time>
      </trkpt>
      <trkpt lat="44.4242" lon="3.79328">
        <ele>1579.2</ele>
        <time>2022-10-28T13:32:20Z</time>
      </trkpt>
      <trkpt lat="44.42426" lon="3.79328">
        <ele>1579</ele>
        <time>2022-10-28T13:32:21Z</time>
      </trkpt>
      <trkpt lat="44.42432" lon="3.79328">
        <ele>1578.8</ele>
        <time>2022-10-28T13:32:22Z</time>
      </trkpt>
      <trkpt lat="44.42438" lon="3.79328">
        <ele>1578.8</ele>
        <time>2022-10-28T13:32:23Z</time>
      </trkpt>
      <trkpt lat="44.42443" lon="3.79327">
        <ele>1578.6</ele>
        <time>2022-10-28T13:32:24Z</time>
      </trkpt>
      <trkpt lat="44.42449" lon="3.79327">
        <ele>1578.6</ele>
        <time>2022-10-28T13:32:25Z</time>
      </trkpt>
      <trkpt lat="44.42455" lon="3.79327">
        <ele>1578.4</ele>
        <time>2022-10-28T13:32:26Z</time>
      </trkpt>
      <trkpt lat="44.42461" lon="3.79326">
        <ele>1578.4</ele>
        <time>2022-10-28T13:32:27Z</time>
      </trkpt>
      <trkpt lat="44.42467" lon="3.79326">
        <ele>1578.2</ele>
        <time>2022-10-28T13:32:28Z</time>
      </trkpt>
      <trkpt lat="44.42473" lon="3.79326">
        <ele>1578</ele>
        <time>2022-10-28T13:32:29Z</time>
      </trkpt>
      <trkpt lat="44.42479" lon="3.79326">
        <ele>1578</ele>
        <time>2022-10-28T13:32:30Z</time>
      </trkpt>
      <trkpt lat="44.42485" lon="3.79326">
        <ele>1577.8</ele>
        <time>2022-10-28T13:32:31Z</time>
      </trkpt>
      <trkpt lat="44.42491" lon="3.79327">
        <ele>1577.8</ele>
        <time>2022-10-28T13:32:32Z</time>
      </trkpt>
      <trkpt lat="44.42498" lon="3.79328">
        <ele>1577.6</ele>
        <time>2022-10-28T13:32:33Z</time>
      </trkpt>
      <trkpt lat="44.42504" lon="3.79329">
        <ele>1577.6</ele>
        <time>2022-10-28T13:32:34Z</time>
      </trkpt>
      <trkpt lat="44.42509" lon="3.79331">
        <ele>1577.6</ele>
        <time>2022-10-28T13:32:35Z</time>
      </trkpt>
      <trkpt lat="44.42515" lon="3.79333">
        <ele>1577.4</ele>
        <time>2022-10-28T13:32:36Z</time>
      </trkpt>
      <trkpt lat="44.42521" lon="3.79334">
        <ele>1577.4</ele>
        <time>2022-10-28T13:32:37Z</time>
      </trkpt>
      <trkpt lat="44.42527" lon="3.79335">
        <ele>1577.4</ele>
        <time>2022-10-28T13:32:38Z</time>
      </trkpt>
      <trkpt lat="44.42532" lon="3.79337">
        <ele>1577.4</ele>
        <time>2022-10-28T13:32:39Z</time>
      </trkpt>
      <trkpt lat="44.42537" lon="3.79339">
        <ele>1577.2</ele>
        <time>2022-10-28T13:32:40Z</time>
      </trkpt>
      <trkpt lat="44.42543" lon="3.79341">
        <ele>1577.2</ele>
        <time>2022-10-28T13:32:41Z</time>
      </trkpt>
      <trkpt lat="44.42548" lon="3.79344">
        <ele>1577.2</ele>
        <time>2022-10-28T13:32:42Z</time>
      </trkpt>
      <trkpt lat="44.42554" lon="3.79346">
        <ele>1577.2</ele>
        <time>2022-10-28T13:32:43Z</time>
      </trkpt>
      <trkpt lat="44.42559" lon="3.79348">
        <ele>1577</ele>
        <time>2022-10-28T13:32:44Z</time>
      </trkpt>
      <trkpt lat="44.42564" lon="3.79352">
        <ele>1577</ele>
        <time>2022-10-28T13:32:45Z</time>
      </trkpt>
      <trkpt lat="44.42569" lon="3.79356">
        <ele>1576.8</ele>
        <time>2022-10-28T13:32:46Z</time>
      </trkpt>
      <trkpt lat="44.42574" lon="3.79361">
        <ele>1576.8</ele>
        <time>2022-10-28T13:32:47Z</time>
      </trkpt>
      <trkpt lat="44.42578" lon="3.79365">
        <ele>1576.8</ele>
        <time>2022-10-28T13:32:48Z</time>
      </trkpt>
      <trkpt lat="44.42582" lon="3.7937">
        <ele>1576.6</ele>
        <time>2022-10-28T13:32:49Z</time>
      </trkpt>
      <trkpt lat="44.42586" lon="3.79374">
        <ele>1576.6</ele>
        <time>2022-10-28T13:32:50Z</time>
      </trkpt>
      <trkpt lat="44.4259" lon="3.79379">
        <ele>1576.6</ele>
        <time>2022-10-28T13:32:51Z</time>
      </trkpt>
      <trkpt lat="44.42593" lon="3.79384">
        <ele>1576.6</ele>
        <time>2022-10-28T13:32:52Z</time>
      </trkpt>
      <trkpt lat="44.42597" lon="3.79389">
        <ele>1576.8</ele>
        <time>2022-10-28T13:32:53Z</time>
      </trkpt>
      <trkpt lat="44.42599" lon="3.79395">
        <ele>1576.8</ele>
        <time>2022-10-28T13:32:54Z</time>
      </trkpt>
      <trkpt lat="44.426" lon="3.79401">
        <ele>1576.8</ele>
        <time>2022-10-28T13:32:55Z</time>
      </trkpt>
      <trkpt lat="44.42602" lon="3.79408">
        <ele>1576.8</ele>
        <time>2022-10-28T13:32:56Z</time>
      </trkpt>
      <trkpt lat="44.42603" lon="3.79414">
        <ele>1576.8</ele>
        <time>2022-10-28T13:32:57Z</time>
      </trkpt>
      <trkpt lat="44.42604" lon="3.79421">
        <ele>1577</ele>
        <time>2022-10-28T13:32:58Z</time>
      </trkpt>
      <trkpt lat="44.42605" lon="3.79427">
        <ele>1577</ele>
        <time>2022-10-28T13:32:59Z</time>
      </trkpt>
      <trkpt lat="44.42605" lon="3.79434">
        <ele>1577</ele>
        <time>2022-10-28T13:33:00Z</time>
      </trkpt>
      <trkpt lat="44.42606" lon="3.79441">
        <ele>1577.2</ele>
        <time>2022-10-28T13:33:01Z</time>
      </trkpt>
      <trkpt lat="44.42606" lon="3.79447">
        <ele>1577.2</ele>
        <time>2022-10-28T13:33:02Z</time>
      </trkpt>
      <trkpt lat="44.42606" lon="3.79454">
        <ele>1577.2</ele>
        <time>2022-10-28T13:33:03Z</time>
      </trkpt>
      <trkpt lat="44.42606" lon="3.79461">
        <ele>1577.4</ele>
        <time>2022-10-28T13:33:04Z</time>
      </trkpt>
      <trkpt lat="44.42606" lon="3.79467">
        <ele>1577.4</ele>
        <time>2022-10-28T13:33:05Z</time>
      </trkpt>
      <trkpt lat="44.42606" lon="3.79474">
        <ele>1577.4</ele>
        <time>2022-10-28T13:33:06Z</time>
      </trkpt>
      <trkpt lat="44.42605" lon="3.7948">
        <ele>1577.6</ele>
        <time>2022-10-28T13:33:07Z</time>
      </trkpt>
      <trkpt lat="44.42604" lon="3.79487">
        <ele>1577.8</ele>
        <time>2022-10-28T13:33:08Z</time>
      </trkpt>
      <trkpt lat="44.42603" lon="3.79493">
        <ele>1578</ele>
        <time>2022-10-28T13:33:09Z</time>
      </trkpt>
      <trkpt lat="44.42602" lon="3.79499">
        <ele>1578</ele>
        <time>2022-10-28T13:33:10Z</time>
      </trkpt>
      <trkpt lat="44.42601" lon="3.79506">
        <ele>1578</ele>
        <time>2022-10-28T13:33:11Z</time>
      </trkpt>
      <trkpt lat="44.426" lon="3.79513">
        <ele>1578</ele>
        <time>2022-10-28T13:33:12Z</time>
      </trkpt>
      <trkpt lat="44.42598" lon="3.79519">
        <ele>1578</ele>
        <time>2022-10-28T13:33:13Z</time>
      </trkpt>
      <trkpt lat="44.42597" lon="3.79526">
        <ele>1578</ele>
        <time>2022-10-28T13:33:14Z</time>
      </trkpt>
      <trkpt lat="44.42595" lon="3.79532">
        <ele>1578</ele>
        <time>2022-10-28T13:33:15Z</time>
      </trkpt>
      <trkpt lat="44.42593" lon="3.79537">
        <ele>1578.2</ele>
        <time>2022-10-28T13:33:16Z</time>
      </trkpt>
      <trkpt lat="44.42591" lon="3.79543">
        <ele>1578.2</ele>
        <time>2022-10-28T13:33:17Z</time>
      </trkpt>
      <trkpt lat="44.42588" lon="3.79549">
        <ele>1578.4</ele>
        <time>2022-10-28T13:33:18Z</time>
      </trkpt>
      <trkpt lat="44.42586" lon="3.79554">
        <ele>1578.4</ele>
        <time>2022-10-28T13:33:19Z</time>
      </trkpt>
      <trkpt lat="44.42584" lon="3.79559">
        <ele>1578.6</ele>
        <time>2022-10-28T13:33:20Z</time>
      </trkpt>
      <trkpt lat="44.42581" lon="3.79565">
        <ele>1578.6</ele>
        <time>2022-10-28T13:33:21Z</time>
      </trkpt>
      <trkpt lat="44.42579" lon="3.7957">
        <ele>1578.8</ele>
        <time>2022-10-28T13:33:22Z</time>
      </trkpt>
      <trkpt lat="44.42576" lon="3.79575">
        <ele>1578.8</ele>
        <time>2022-10-28T13:33:23Z</time>
      </trkpt>
      <trkpt lat="44.42574" lon="3.7958">
        <ele>1579</ele>
        <time>2022-10-28T13:33:24Z</time>
      </trkpt>
      <trkpt lat="44.42572" lon="3.79586">
        <ele>1579</ele>
        <time>2022-10-28T13:33:25Z</time>
      </trkpt>
      <trkpt lat="44.4257" lon="3.79591">
        <ele>1579.2</ele>
        <time>2022-10-28T13:33:26Z</time>
      </trkpt>
      <trkpt lat="44.42568" lon="3.79596">
        <ele>1579.2</ele>
        <time>2022-10-28T13:33:27Z</time>
      </trkpt>
      <trkpt lat="44.42566" lon="3.79601">
        <ele>1579.4</ele>
        <time>2022-10-28T13:33:28Z</time>
      </trkpt>
      <trkpt lat="44.42563" lon="3.79606">
        <ele>1579.4</ele>
        <time>2022-10-28T13:33:29Z</time>
      </trkpt>
      <trkpt lat="44.42561" lon="3.79611">
        <ele>1579.4</ele>
        <time>2022-10-28T13:33:30Z</time>
      </trkpt>
      <trkpt lat="44.42559" lon="3.79616">
        <ele>1579.6</ele>
        <time>2022-10-28T13:33:31Z</time>
      </trkpt>
      <trkpt lat="44.42557" lon="3.79621">
        <ele>1579.6</ele>
        <time>2022-10-28T13:33:32Z</time>
      </trkpt>
      <trkpt lat="44.42555" lon="3.79627">
        <ele>1579.6</ele>
        <time>2022-10-28T13:33:33Z</time>
      </trkpt>
      <trkpt lat="44.42552" lon="3.79632">
        <ele>1579.6</ele>
        <time>2022-10-28T13:33:34Z</time>
      </trkpt>
      <trkpt lat="44.4255" lon="3.79637">
        <ele>1579.6</ele>
        <time>2022-10-28T13:33:35Z</time>
      </trkpt>
      <trkpt lat="44.42548" lon="3.79642">
        <ele>1579.8</ele>
        <time>2022-10-28T13:33:36Z</time>
      </trkpt>
      <trkpt lat="44.42546" lon="3.79647">
        <ele>1579.8</ele>
        <time>2022-10-28T13:33:37Z</time>
      </trkpt>
      <trkpt lat="44.42544" lon="3.79652">
        <ele>1580</ele>
        <time>2022-10-28T13:33:38Z</time>
      </trkpt>
      <trkpt lat="44.42542" lon="3.79657">
        <ele>1580</ele>
        <time>2022-10-28T13:33:39Z</time>
      </trkpt>
      <trkpt lat="44.42539" lon="3.79662">
        <ele>1580.2</ele>
        <time>2022-10-28T13:33:40Z</time>
      </trkpt>
      <trkpt lat="44.42537" lon="3.79667">
        <ele>1580.2</ele>
        <time>2022-10-28T13:33:41Z</time>
      </trkpt>
      <trkpt lat="44.42535" lon="3.79672">
        <ele>1580.2</ele>
        <time>2022-10-28T13:33:42Z</time>
      </trkpt>
      <trkpt lat="44.42533" lon="3.79678">
        <ele>1580.2</ele>
        <time>2022-10-28T13:33:43Z</time>
      </trkpt>
      <trkpt lat="44.42531" lon="3.79683">
        <ele>1580.2</ele>
        <time>2022-10-28T13:33:44Z</time>
      </trkpt>
      <trkpt lat="44.42528" lon="3.79688">
        <ele>1580.2</ele>
        <time>2022-10-28T13:33:45Z</time>
      </trkpt>
      <trkpt lat="44.42526" lon="3.79694">
        <ele>1580.2</ele>
        <time>2022-10-28T13:33:46Z</time>
      </trkpt>
      <trkpt lat="44.42525" lon="3.79699">
        <ele>1580.2</ele>
        <time>2022-10-28T13:33:47Z</time>
      </trkpt>
      <trkpt lat="44.42522" lon="3.79704">
        <ele>1580.2</ele>
        <time>2022-10-28T13:33:48Z</time>
      </trkpt>
      <trkpt lat="44.4252" lon="3.79709">
        <ele>1580.2</ele>
        <time>2022-10-28T13:33:49Z</time>
      </trkpt>
      <trkpt lat="44.42519" lon="3.79715">
        <ele>1580</ele>
        <time>2022-10-28T13:33:50Z</time>
      </trkpt>
      <trkpt lat="44.42518" lon="3.79721">
        <ele>1580.2</ele>
        <time>2022-10-28T13:33:51Z</time>
      </trkpt>
      <trkpt lat="44.42516" lon="3.79727">
        <ele>1580</ele>
        <time>2022-10-28T13:33:52Z</time>
      </trkpt>
      <trkpt lat="44.42514" lon="3.79732">
        <ele>1580</ele>
        <time>2022-10-28T13:33:53Z</time>
      </trkpt>
      <trkpt lat="44.42512" lon="3.79737">
        <ele>1580</ele>
        <time>2022-10-28T13:33:54Z</time>
      </trkpt>
      <trkpt lat="44.42509" lon="3.79742">
        <ele>1580</ele>
        <time>2022-10-28T13:33:55Z</time>
      </trkpt>
      <trkpt lat="44.42507" lon="3.79746">
        <ele>1580</ele>
        <time>2022-10-28T13:33:56Z</time>
      </trkpt>
      <trkpt lat="44.42504" lon="3.79751">
        <ele>1580.2</ele>
        <time>2022-10-28T13:33:57Z</time>
      </trkpt>
      <trkpt lat="44.42502" lon="3.79756">
        <ele>1580.2</ele>
        <time>2022-10-28T13:33:58Z</time>
      </trkpt>
      <trkpt lat="44.425" lon="3.79761">
        <ele>1580.2</ele>
        <time>2022-10-28T13:33:59Z</time>
      </trkpt>
      <trkpt lat="44.42498" lon="3.79766">
        <ele>1580.2</ele>
        <time>2022-10-28T13:34:00Z</time>
      </trkpt>
      <trkpt lat="44.42495" lon="3.79771">
        <ele>1580.2</ele>
        <time>2022-10-28T13:34:01Z</time>
      </trkpt>
      <trkpt lat="44.42493" lon="3.79776">
        <ele>1580.4</ele>
        <time>2022-10-28T13:34:02Z</time>
      </trkpt>
      <trkpt lat="44.42491" lon="3.79781">
        <ele>1580.4</ele>
        <time>2022-10-28T13:34:03Z</time>
      </trkpt>
      <trkpt lat="44.42489" lon="3.79786">
        <ele>1580.4</ele>
        <time>2022-10-28T13:34:04Z</time>
      </trkpt>
      <trkpt lat="44.42487" lon="3.79791">
        <ele>1580.6</ele>
        <time>2022-10-28T13:34:05Z</time>
      </trkpt>
      <trkpt lat="44.42485" lon="3.79796">
        <ele>1580.4</ele>
        <time>2022-10-28T13:34:06Z</time>
      </trkpt>
      <trkpt lat="44.42483" lon="3.79801">
        <ele>1580.4</ele>
        <time>2022-10-28T13:34:07Z</time>
      </trkpt>
      <trkpt lat="44.42481" lon="3.79806">
        <ele>1580.4</ele>
        <time>2022-10-28T13:34:08Z</time>
      </trkpt>
      <trkpt lat="44.42478" lon="3.79811">
        <ele>1580.6</ele>
        <time>2022-10-28T13:34:09Z</time>
      </trkpt>
      <trkpt lat="44.42476" lon="3.79816">
        <ele>1580.6</ele>
        <time>2022-10-28T13:34:10Z</time>
      </trkpt>
      <trkpt lat="44.42474" lon="3.79821">
        <ele>1580.6</ele>
        <time>2022-10-28T13:34:11Z</time>
      </trkpt>
      <trkpt lat="44.42471" lon="3.79826">
        <ele>1580.6</ele>
        <time>2022-10-28T13:34:12Z</time>
      </trkpt>
      <trkpt lat="44.42469" lon="3.79831">
        <ele>1580.6</ele>
        <time>2022-10-28T13:34:13Z</time>
      </trkpt>
      <trkpt lat="44.42467" lon="3.79836">
        <ele>1580.8</ele>
        <time>2022-10-28T13:34:14Z</time>
      </trkpt>
      <trkpt lat="44.42465" lon="3.79841">
        <ele>1581</ele>
        <time>2022-10-28T13:34:15Z</time>
      </trkpt>
      <trkpt lat="44.42463" lon="3.79846">
        <ele>1581</ele>
        <time>2022-10-28T13:34:16Z</time>
      </trkpt>
      <trkpt lat="44.4246" lon="3.7985">
        <ele>1581</ele>
        <time>2022-10-28T13:34:17Z</time>
      </trkpt>
      <trkpt lat="44.42458" lon="3.79855">
        <ele>1581.2</ele>
        <time>2022-10-28T13:34:18Z</time>
      </trkpt>
      <trkpt lat="44.42456" lon="3.79859">
        <ele>1581.4</ele>
        <time>2022-10-28T13:34:19Z</time>
      </trkpt>
      <trkpt lat="44.42453" lon="3.79863">
        <ele>1581.4</ele>
        <time>2022-10-28T13:34:20Z</time>
      </trkpt>
      <trkpt lat="44.42451" lon="3.79867">
        <ele>1581.6</ele>
        <time>2022-10-28T13:34:21Z</time>
      </trkpt>
      <trkpt lat="44.42449" lon="3.79871">
        <ele>1581.6</ele>
        <time>2022-10-28T13:34:22Z</time>
      </trkpt>
      <trkpt lat="44.42446" lon="3.79875">
        <ele>1581.6</ele>
        <time>2022-10-28T13:34:23Z</time>
      </trkpt>
      <trkpt lat="44.42444" lon="3.79879">
        <ele>1581.6</ele>
        <time>2022-10-28T13:34:24Z</time>
      </trkpt>
      <trkpt lat="44.42442" lon="3.79884">
        <ele>1581.6</ele>
        <time>2022-10-28T13:34:25Z</time>
      </trkpt>
      <trkpt lat="44.42439" lon="3.79888">
        <ele>1581.8</ele>
        <time>2022-10-28T13:34:26Z</time>
      </trkpt>
      <trkpt lat="44.42437" lon="3.79893">
        <ele>1581.8</ele>
        <time>2022-10-28T13:34:27Z</time>
      </trkpt>
      <trkpt lat="44.42434" lon="3.79898">
        <ele>1581.8</ele>
        <time>2022-10-28T13:34:28Z</time>
      </trkpt>
      <trkpt lat="44.42432" lon="3.79903">
        <ele>1582</ele>
        <time>2022-10-28T13:34:29Z</time>
      </trkpt>
      <trkpt lat="44.42429" lon="3.79908">
        <ele>1582</ele>
        <time>2022-10-28T13:34:30Z</time>
      </trkpt>
      <trkpt lat="44.42427" lon="3.79913">
        <ele>1582</ele>
        <time>2022-10-28T13:34:31Z</time>
      </trkpt>
      <trkpt lat="44.42424" lon="3.79917">
        <ele>1582</ele>
        <time>2022-10-28T13:34:32Z</time>
      </trkpt>
      <trkpt lat="44.42422" lon="3.79923">
        <ele>1582</ele>
        <time>2022-10-28T13:34:33Z</time>
      </trkpt>
      <trkpt lat="44.4242" lon="3.79928">
        <ele>1581.8</ele>
        <time>2022-10-28T13:34:34Z</time>
      </trkpt>
      <trkpt lat="44.42418" lon="3.79934">
        <ele>1582</ele>
        <time>2022-10-28T13:34:35Z</time>
      </trkpt>
      <trkpt lat="44.42417" lon="3.79939">
        <ele>1581.8</ele>
        <time>2022-10-28T13:34:36Z</time>
      </trkpt>
      <trkpt lat="44.42414" lon="3.79945">
        <ele>1581.8</ele>
        <time>2022-10-28T13:34:37Z</time>
      </trkpt>
      <trkpt lat="44.42413" lon="3.79951">
        <ele>1582</ele>
        <time>2022-10-28T13:34:38Z</time>
      </trkpt>
      <trkpt lat="44.42412" lon="3.79957">
        <ele>1581.8</ele>
        <time>2022-10-28T13:34:39Z</time>
      </trkpt>
      <trkpt lat="44.4241" lon="3.79963">
        <ele>1581.6</ele>
        <time>2022-10-28T13:34:40Z</time>
      </trkpt>
      <trkpt lat="44.4241" lon="3.79969">
        <ele>1581.6</ele>
        <time>2022-10-28T13:34:41Z</time>
      </trkpt>
      <trkpt lat="44.4241" lon="3.79976">
        <ele>1581.4</ele>
        <time>2022-10-28T13:34:42Z</time>
      </trkpt>
      <trkpt lat="44.4241" lon="3.79983">
        <ele>1581.2</ele>
        <time>2022-10-28T13:34:43Z</time>
      </trkpt>
      <trkpt lat="44.4241" lon="3.7999">
        <ele>1581.2</ele>
        <time>2022-10-28T13:34:44Z</time>
      </trkpt>
      <trkpt lat="44.4241" lon="3.79996">
        <ele>1581.2</ele>
        <time>2022-10-28T13:34:45Z</time>
      </trkpt>
      <trkpt lat="44.4241" lon="3.80003">
        <ele>1581</ele>
        <time>2022-10-28T13:34:46Z</time>
      </trkpt>
      <trkpt lat="44.4241" lon="3.8001">
        <ele>1581</ele>
        <time>2022-10-28T13:34:47Z</time>
      </trkpt>
      <trkpt lat="44.4241" lon="3.80017">
        <ele>1581</ele>
        <time>2022-10-28T13:34:48Z</time>
      </trkpt>
      <trkpt lat="44.4241" lon="3.80024">
        <ele>1580.8</ele>
        <time>2022-10-28T13:34:49Z</time>
      </trkpt>
      <trkpt lat="44.42411" lon="3.80031">
        <ele>1580.8</ele>
        <time>2022-10-28T13:34:50Z</time>
      </trkpt>
      <trkpt lat="44.42412" lon="3.80038">
        <ele>1580.6</ele>
        <time>2022-10-28T13:34:51Z</time>
      </trkpt>
      <trkpt lat="44.42413" lon="3.80045">
        <ele>1580.6</ele>
        <time>2022-10-28T13:34:52Z</time>
      </trkpt>
      <trkpt lat="44.42414" lon="3.80051">
        <ele>1580.4</ele>
        <time>2022-10-28T13:34:53Z</time>
      </trkpt>
      <trkpt lat="44.42415" lon="3.80058">
        <ele>1580.2</ele>
        <time>2022-10-28T13:34:54Z</time>
      </trkpt>
      <trkpt lat="44.42416" lon="3.80064">
        <ele>1580.2</ele>
        <time>2022-10-28T13:34:55Z</time>
      </trkpt>
      <trkpt lat="44.42417" lon="3.8007">
        <ele>1580.2</ele>
        <time>2022-10-28T13:34:56Z</time>
      </trkpt>
      <trkpt lat="44.42419" lon="3.80077">
        <ele>1580.2</ele>
        <time>2022-10-28T13:34:57Z</time>
      </trkpt>
      <trkpt lat="44.4242" lon="3.80083">
        <ele>1580</ele>
        <time>2022-10-28T13:34:58Z</time>
      </trkpt>
      <trkpt lat="44.42422" lon="3.80089">
        <ele>1580</ele>
        <time>2022-10-28T13:34:59Z</time>
      </trkpt>
      <trkpt lat="44.42423" lon="3.80095">
        <ele>1580</ele>
        <time>2022-10-28T13:35:00Z</time>
      </trkpt>
      <trkpt lat="44.42425" lon="3.80101">
        <ele>1580</ele>
        <time>2022-10-28T13:35:01Z</time>
      </trkpt>
      <trkpt lat="44.42426" lon="3.80108">
        <ele>1580</ele>
        <time>2022-10-28T13:35:02Z</time>
      </trkpt>
      <trkpt lat="44.42427" lon="3.80114">
        <ele>1580</ele>
        <time>2022-10-28T13:35:03Z</time>
      </trkpt>
      <trkpt lat="44.42428" lon="3.80121">
        <ele>1579.8</ele>
        <time>2022-10-28T13:35:04Z</time>
      </trkpt>
      <trkpt lat="44.42428" lon="3.80128">
        <ele>1579.8</ele>
        <time>2022-10-28T13:35:05Z</time>
      </trkpt>
      <trkpt lat="44.42429" lon="3.80135">
        <ele>1579.8</ele>
        <time>2022-10-28T13:35:06Z</time>
      </trkpt>
      <trkpt lat="44.4243" lon="3.80142">
        <ele>1579.6</ele>
        <time>2022-10-28T13:35:07Z</time>
      </trkpt>
      <trkpt lat="44.4243" lon="3.80149">
        <ele>1579.6</ele>
        <time>2022-10-28T13:35:08Z</time>
      </trkpt>
      <trkpt lat="44.42431" lon="3.80155">
        <ele>1579.6</ele>
        <time>2022-10-28T13:35:09Z</time>
      </trkpt>
      <trkpt lat="44.42431" lon="3.80162">
        <ele>1579.6</ele>
        <time>2022-10-28T13:35:10Z</time>
      </trkpt>
      <trkpt lat="44.4243" lon="3.80168">
        <ele>1579.6</ele>
        <time>2022-10-28T13:35:11Z</time>
      </trkpt>
      <trkpt lat="44.42429" lon="3.80174">
        <ele>1579.6</ele>
        <time>2022-10-28T13:35:12Z</time>
      </trkpt>
      <trkpt lat="44.42428" lon="3.80179">
        <ele>1579.6</ele>
        <time>2022-10-28T13:35:13Z</time>
      </trkpt>
      <trkpt lat="44.42427" lon="3.80185">
        <ele>1579.6</ele>
        <time>2022-10-28T13:35:14Z</time>
      </trkpt>
      <trkpt lat="44.42426" lon="3.80191">
        <ele>1579.8</ele>
        <time>2022-10-28T13:35:15Z</time>
      </trkpt>
      <trkpt lat="44.42425" lon="3.80197">
        <ele>1579.8</ele>
        <time>2022-10-28T13:35:16Z</time>
      </trkpt>
      <trkpt lat="44.42424" lon="3.80204">
        <ele>1579.8</ele>
        <time>2022-10-28T13:35:17Z</time>
      </trkpt>
      <trkpt lat="44.42423" lon="3.8021">
        <ele>1579.8</ele>
        <time>2022-10-28T13:35:18Z</time>
      </trkpt>
      <trkpt lat="44.42422" lon="3.80216">
        <ele>1579.8</ele>
        <time>2022-10-28T13:35:19Z</time>
      </trkpt>
      <trkpt lat="44.42421" lon="3.80223">
        <ele>1580</ele>
        <time>2022-10-28T13:35:20Z</time>
      </trkpt>
      <trkpt lat="44.4242" lon="3.80229">
        <ele>1580</ele>
        <time>2022-10-28T13:35:21Z</time>
      </trkpt>
      <trkpt lat="44.42418" lon="3.80235">
        <ele>1580.2</ele>
        <time>2022-10-28T13:35:22Z</time>
      </trkpt>
      <trkpt lat="44.42416" lon="3.80242">
        <ele>1580</ele>
        <time>2022-10-28T13:35:23Z</time>
      </trkpt>
      <trkpt lat="44.42414" lon="3.80248">
        <ele>1580.4</ele>
        <time>2022-10-28T13:35:24Z</time>
      </trkpt>
      <trkpt lat="44.42413" lon="3.80255">
        <ele>1580.4</ele>
        <time>2022-10-28T13:35:25Z</time>
      </trkpt>
      <trkpt lat="44.42411" lon="3.80261">
        <ele>1580.4</ele>
        <time>2022-10-28T13:35:26Z</time>
      </trkpt>
      <trkpt lat="44.42409" lon="3.80268">
        <ele>1580.2</ele>
        <time>2022-10-28T13:35:27Z</time>
      </trkpt>
      <trkpt lat="44.42408" lon="3.80274">
        <ele>1580.4</ele>
        <time>2022-10-28T13:35:28Z</time>
      </trkpt>
      <trkpt lat="44.42406" lon="3.8028">
        <ele>1580.2</ele>
        <time>2022-10-28T13:35:29Z</time>
      </trkpt>
      <trkpt lat="44.42405" lon="3.80287">
        <ele>1580.2</ele>
        <time>2022-10-28T13:35:30Z</time>
      </trkpt>
      <trkpt lat="44.42404" lon="3.80294">
        <ele>1580</ele>
        <time>2022-10-28T13:35:31Z</time>
      </trkpt>
      <trkpt lat="44.42403" lon="3.80301">
        <ele>1580</ele>
        <time>2022-10-28T13:35:32Z</time>
      </trkpt>
      <trkpt lat="44.42402" lon="3.80307">
        <ele>1580</ele>
        <time>2022-10-28T13:35:33Z</time>
      </trkpt>
      <trkpt lat="44.42401" lon="3.80314">
        <ele>1579.8</ele>
        <time>2022-10-28T13:35:34Z</time>
      </trkpt>
      <trkpt lat="44.42399" lon="3.8032">
        <ele>1580</ele>
        <time>2022-10-28T13:35:35Z</time>
      </trkpt>
      <trkpt lat="44.42397" lon="3.80326">
        <ele>1580</ele>
        <time>2022-10-28T13:35:36Z</time>
      </trkpt>
      <trkpt lat="44.42396" lon="3.80332">
        <ele>1580</ele>
        <time>2022-10-28T13:35:37Z</time>
      </trkpt>
      <trkpt lat="44.42394" lon="3.80338">
        <ele>1580.4</ele>
        <time>2022-10-28T13:35:38Z</time>
      </trkpt>
      <trkpt lat="44.42393" lon="3.80344">
        <ele>1580.4</ele>
        <time>2022-10-28T13:35:39Z</time>
      </trkpt>
      <trkpt lat="44.42391" lon="3.8035">
        <ele>1580.4</ele>
        <time>2022-10-28T13:35:40Z</time>
      </trkpt>
      <trkpt lat="44.4239" lon="3.80355">
        <ele>1580.4</ele>
        <time>2022-10-28T13:35:41Z</time>
      </trkpt>
      <trkpt lat="44.42388" lon="3.8036">
        <ele>1580.4</ele>
        <time>2022-10-28T13:35:42Z</time>
      </trkpt>
      <trkpt lat="44.42386" lon="3.80366">
        <ele>1580.4</ele>
        <time>2022-10-28T13:35:43Z</time>
      </trkpt>
      <trkpt lat="44.42385" lon="3.80372">
        <ele>1580.4</ele>
        <time>2022-10-28T13:35:44Z</time>
      </trkpt>
      <trkpt lat="44.42383" lon="3.80378">
        <ele>1580.4</ele>
        <time>2022-10-28T13:35:45Z</time>
      </trkpt>
      <trkpt lat="44.42382" lon="3.80384">
        <ele>1580.6</ele>
        <time>2022-10-28T13:35:46Z</time>
      </trkpt>
      <trkpt lat="44.4238" lon="3.8039">
        <ele>1580.4</ele>
        <time>2022-10-28T13:35:47Z</time>
      </trkpt>
      <trkpt lat="44.42379" lon="3.80396">
        <ele>1580.6</ele>
        <time>2022-10-28T13:35:48Z</time>
      </trkpt>
      <trkpt lat="44.42378" lon="3.80402">
        <ele>1580.6</ele>
        <time>2022-10-28T13:35:49Z</time>
      </trkpt>
      <trkpt lat="44.42376" lon="3.80408">
        <ele>1580.4</ele>
        <time>2022-10-28T13:35:50Z</time>
      </trkpt>
      <trkpt lat="44.42375" lon="3.80415">
        <ele>1580.4</ele>
        <time>2022-10-28T13:35:51Z</time>
      </trkpt>
      <trkpt lat="44.42373" lon="3.80421">
        <ele>1580.4</ele>
        <time>2022-10-28T13:35:52Z</time>
      </trkpt>
      <trkpt lat="44.42372" lon="3.80427">
        <ele>1580.4</ele>
        <time>2022-10-28T13:35:53Z</time>
      </trkpt>
      <trkpt lat="44.42371" lon="3.80432">
        <ele>1580.4</ele>
        <time>2022-10-28T13:35:54Z</time>
      </trkpt>
      <trkpt lat="44.42369" lon="3.80439">
        <ele>1580.4</ele>
        <time>2022-10-28T13:35:55Z</time>
      </trkpt>
      <trkpt lat="44.42368" lon="3.80445">
        <ele>1580.4</ele>
        <time>2022-10-28T13:35:56Z</time>
      </trkpt>
      <trkpt lat="44.42367" lon="3.80451">
        <ele>1580.4</ele>
        <time>2022-10-28T13:35:57Z</time>
      </trkpt>
      <trkpt lat="44.42365" lon="3.80457">
        <ele>1580.2</ele>
        <time>2022-10-28T13:35:58Z</time>
      </trkpt>
      <trkpt lat="44.42364" lon="3.80464">
        <ele>1580.2</ele>
        <time>2022-10-28T13:35:59Z</time>
      </trkpt>
      <trkpt lat="44.42363" lon="3.8047">
        <ele>1580.2</ele>
        <time>2022-10-28T13:36:00Z</time>
      </trkpt>
      <trkpt lat="44.42362" lon="3.80476">
        <ele>1580</ele>
        <time>2022-10-28T13:36:01Z</time>
      </trkpt>
      <trkpt lat="44.42361" lon="3.80482">
        <ele>1580</ele>
        <time>2022-10-28T13:36:02Z</time>
      </trkpt>
      <trkpt lat="44.4236" lon="3.80488">
        <ele>1579.8</ele>
        <time>2022-10-28T13:36:03Z</time>
      </trkpt>
      <trkpt lat="44.42359" lon="3.80494">
        <ele>1580</ele>
        <time>2022-10-28T13:36:04Z</time>
      </trkpt>
      <trkpt lat="44.42359" lon="3.805">
        <ele>1580</ele>
        <time>2022-10-28T13:36:05Z</time>
      </trkpt>
      <trkpt lat="44.42358" lon="3.80506">
        <ele>1580.2</ele>
        <time>2022-10-28T13:36:06Z</time>
      </trkpt>
      <trkpt lat="44.42357" lon="3.80513">
        <ele>1580.2</ele>
        <time>2022-10-28T13:36:07Z</time>
      </trkpt>
      <trkpt lat="44.42356" lon="3.80519">
        <ele>1580</ele>
        <time>2022-10-28T13:36:08Z</time>
      </trkpt>
      <trkpt lat="44.42355" lon="3.80525">
        <ele>1579.8</ele>
        <time>2022-10-28T13:36:09Z</time>
      </trkpt>
      <trkpt lat="44.42354" lon="3.80532">
        <ele>1579.8</ele>
        <time>2022-10-28T13:36:10Z</time>
      </trkpt>
      <trkpt lat="44.42354" lon="3.80539">
        <ele>1579.6</ele>
        <time>2022-10-28T13:36:11Z</time>
      </trkpt>
      <trkpt lat="44.42353" lon="3.80546">
        <ele>1579.4</ele>
        <time>2022-10-28T13:36:12Z</time>
      </trkpt>
      <trkpt lat="44.42353" lon="3.80553">
        <ele>1579.4</ele>
        <time>2022-10-28T13:36:13Z</time>
      </trkpt>
      <trkpt lat="44.42354" lon="3.8056">
        <ele>1579.4</ele>
        <time>2022-10-28T13:36:14Z</time>
      </trkpt>
      <trkpt lat="44.42354" lon="3.80567">
        <ele>1579.4</ele>
        <time>2022-10-28T13:36:15Z</time>
      </trkpt>
      <trkpt lat="44.42354" lon="3.80574">
        <ele>1579.2</ele>
        <time>2022-10-28T13:36:16Z</time>
      </trkpt>
      <trkpt lat="44.42355" lon="3.80582">
        <ele>1579</ele>
        <time>2022-10-28T13:36:17Z</time>
      </trkpt>
      <trkpt lat="44.42357" lon="3.80589">
        <ele>1578.6</ele>
        <time>2022-10-28T13:36:18Z</time>
      </trkpt>
      <trkpt lat="44.42358" lon="3.80597">
        <ele>1578.4</ele>
        <time>2022-10-28T13:36:19Z</time>
      </trkpt>
      <trkpt lat="44.4236" lon="3.80604">
        <ele>1578</ele>
        <time>2022-10-28T13:36:20Z</time>
      </trkpt>
      <trkpt lat="44.42363" lon="3.80612">
        <ele>1578</ele>
        <time>2022-10-28T13:36:21Z</time>
      </trkpt>
      <trkpt lat="44.42365" lon="3.8062">
        <ele>1577.6</ele>
        <time>2022-10-28T13:36:22Z</time>
      </trkpt>
      <trkpt lat="44.42368" lon="3.80628">
        <ele>1577.2</ele>
        <time>2022-10-28T13:36:23Z</time>
      </trkpt>
      <trkpt lat="44.4237" lon="3.80636">
        <ele>1577</ele>
        <time>2022-10-28T13:36:24Z</time>
      </trkpt>
      <trkpt lat="44.42372" lon="3.80645">
        <ele>1576.8</ele>
        <time>2022-10-28T13:36:25Z</time>
      </trkpt>
      <trkpt lat="44.42374" lon="3.80654">
        <ele>1576.6</ele>
        <time>2022-10-28T13:36:26Z</time>
      </trkpt>
      <trkpt lat="44.42376" lon="3.80663">
        <ele>1576.2</ele>
        <time>2022-10-28T13:36:27Z</time>
      </trkpt>
      <trkpt lat="44.42378" lon="3.80672">
        <ele>1576</ele>
        <time>2022-10-28T13:36:28Z</time>
      </trkpt>
      <trkpt lat="44.4238" lon="3.8068">
        <ele>1575.6</ele>
        <time>2022-10-28T13:36:29Z</time>
      </trkpt>
      <trkpt lat="44.42382" lon="3.80689">
        <ele>1575.4</ele>
        <time>2022-10-28T13:36:30Z</time>
      </trkpt>
      <trkpt lat="44.42385" lon="3.80698">
        <ele>1575.2</ele>
        <time>2022-10-28T13:36:31Z</time>
      </trkpt>
      <trkpt lat="44.42388" lon="3.80708">
        <ele>1574.8</ele>
        <time>2022-10-28T13:36:32Z</time>
      </trkpt>
      <trkpt lat="44.42391" lon="3.80718">
        <ele>1574.6</ele>
        <time>2022-10-28T13:36:33Z</time>
      </trkpt>
      <trkpt lat="44.42393" lon="3.80727">
        <ele>1574.4</ele>
        <time>2022-10-28T13:36:34Z</time>
      </trkpt>
      <trkpt lat="44.42396" lon="3.80737">
        <ele>1574.2</ele>
        <time>2022-10-28T13:36:35Z</time>
      </trkpt>
      <trkpt lat="44.42399" lon="3.80746">
        <ele>1574</ele>
        <time>2022-10-28T13:36:36Z</time>
      </trkpt>
      <trkpt lat="44.42401" lon="3.80755">
        <ele>1573.8</ele>
        <time>2022-10-28T13:36:37Z</time>
      </trkpt>
      <trkpt lat="44.42403" lon="3.80764">
        <ele>1573.8</ele>
        <time>2022-10-28T13:36:38Z</time>
      </trkpt>
      <trkpt lat="44.42406" lon="3.80773">
        <ele>1573.8</ele>
        <time>2022-10-28T13:36:39Z</time>
      </trkpt>
      <trkpt lat="44.42408" lon="3.80782">
        <ele>1573.6</ele>
        <time>2022-10-28T13:36:40Z</time>
      </trkpt>
      <trkpt lat="44.4241" lon="3.8079">
        <ele>1573.2</ele>
        <time>2022-10-28T13:36:41Z</time>
      </trkpt>
      <trkpt lat="44.42413" lon="3.80798">
        <ele>1573.2</ele>
        <time>2022-10-28T13:36:42Z</time>
      </trkpt>
      <trkpt lat="44.42415" lon="3.80805">
        <ele>1573.2</ele>
        <time>2022-10-28T13:36:43Z</time>
      </trkpt>
      <trkpt lat="44.42418" lon="3.80812">
        <ele>1573.2</ele>
        <time>2022-10-28T13:36:44Z</time>
      </trkpt>
      <trkpt lat="44.4242" lon="3.80819">
        <ele>1573</ele>
        <time>2022-10-28T13:36:45Z</time>
      </trkpt>
      <trkpt lat="44.42422" lon="3.80827">
        <ele>1573</ele>
        <time>2022-10-28T13:36:46Z</time>
      </trkpt>
      <trkpt lat="44.42423" lon="3.80834">
        <ele>1573</ele>
        <time>2022-10-28T13:36:47Z</time>
      </trkpt>
      <trkpt lat="44.42425" lon="3.80841">
        <ele>1573</ele>
        <time>2022-10-28T13:36:48Z</time>
      </trkpt>
      <trkpt lat="44.42427" lon="3.80848">
        <ele>1573</ele>
        <time>2022-10-28T13:36:49Z</time>
      </trkpt>
      <trkpt lat="44.42428" lon="3.80855">
        <ele>1573</ele>
        <time>2022-10-28T13:36:50Z</time>
      </trkpt>
      <trkpt lat="44.4243" lon="3.80863">
        <ele>1572.8</ele>
        <time>2022-10-28T13:36:51Z</time>
      </trkpt>
      <trkpt lat="44.42431" lon="3.8087">
        <ele>1572.8</ele>
        <time>2022-10-28T13:36:52Z</time>
      </trkpt>
      <trkpt lat="44.42432" lon="3.80876">
        <ele>1572.8</ele>
        <time>2022-10-28T13:36:53Z</time>
      </trkpt>
      <trkpt lat="44.42434" lon="3.80882">
        <ele>1572.8</ele>
        <time>2022-10-28T13:36:54Z</time>
      </trkpt>
      <trkpt lat="44.42435" lon="3.80888">
        <ele>1572.6</ele>
        <time>2022-10-28T13:36:55Z</time>
      </trkpt>
      <trkpt lat="44.42437" lon="3.80895">
        <ele>1572.6</ele>
        <time>2022-10-28T13:36:56Z</time>
      </trkpt>
      <trkpt lat="44.42438" lon="3.80901">
        <ele>1572.6</ele>
        <time>2022-10-28T13:36:57Z</time>
      </trkpt>
      <trkpt lat="44.42439" lon="3.80908">
        <ele>1572.6</ele>
        <time>2022-10-28T13:36:58Z</time>
      </trkpt>
      <trkpt lat="44.42441" lon="3.80915">
        <ele>1572.6</ele>
        <time>2022-10-28T13:36:59Z</time>
      </trkpt>
      <trkpt lat="44.42443" lon="3.80922">
        <ele>1572.6</ele>
        <time>2022-10-28T13:37:00Z</time>
      </trkpt>
      <trkpt lat="44.42444" lon="3.80929">
        <ele>1572.4</ele>
        <time>2022-10-28T13:37:01Z</time>
      </trkpt>
      <trkpt lat="44.42446" lon="3.80936">
        <ele>1572.4</ele>
        <time>2022-10-28T13:37:02Z</time>
      </trkpt>
      <trkpt lat="44.42447" lon="3.80943">
        <ele>1572.4</ele>
        <time>2022-10-28T13:37:03Z</time>
      </trkpt>
      <trkpt lat="44.42449" lon="3.8095">
        <ele>1572.2</ele>
        <time>2022-10-28T13:37:04Z</time>
      </trkpt>
      <trkpt lat="44.4245" lon="3.80957">
        <ele>1572.4</ele>
        <time>2022-10-28T13:37:05Z</time>
      </trkpt>
      <trkpt lat="44.42452" lon="3.80964">
        <ele>1572.2</ele>
        <time>2022-10-28T13:37:06Z</time>
      </trkpt>
      <trkpt lat="44.42453" lon="3.80971">
        <ele>1572.2</ele>
        <time>2022-10-28T13:37:07Z</time>
      </trkpt>
      <trkpt lat="44.42455" lon="3.80979">
        <ele>1572.2</ele>
        <time>2022-10-28T13:37:08Z</time>
      </trkpt>
      <trkpt lat="44.42456" lon="3.80986">
        <ele>1572</ele>
        <time>2022-10-28T13:37:09Z</time>
      </trkpt>
      <trkpt lat="44.42456" lon="3.80993">
        <ele>1572</ele>
        <time>2022-10-28T13:37:10Z</time>
      </trkpt>
      <trkpt lat="44.42457" lon="3.81001">
        <ele>1571.8</ele>
        <time>2022-10-28T13:37:11Z</time>
      </trkpt>
      <trkpt lat="44.42457" lon="3.81009">
        <ele>1572</ele>
        <time>2022-10-28T13:37:12Z</time>
      </trkpt>
      <trkpt lat="44.42456" lon="3.81017">
        <ele>1571.8</ele>
        <time>2022-10-28T13:37:13Z</time>
      </trkpt>
      <trkpt lat="44.42454" lon="3.81024">
        <ele>1572</ele>
        <time>2022-10-28T13:37:14Z</time>
      </trkpt>
      <trkpt lat="44.42452" lon="3.81031">
        <ele>1572</ele>
        <time>2022-10-28T13:37:15Z</time>
      </trkpt>
      <trkpt lat="44.42449" lon="3.81037">
        <ele>1572.2</ele>
        <time>2022-10-28T13:37:16Z</time>
      </trkpt>
      <trkpt lat="44.42446" lon="3.81043">
        <ele>1572.2</ele>
        <time>2022-10-28T13:37:17Z</time>
      </trkpt>
      <trkpt lat="44.42444" lon="3.81049">
        <ele>1572.2</ele>
        <time>2022-10-28T13:37:18Z</time>
      </trkpt>
      <trkpt lat="44.42441" lon="3.81054">
        <ele>1572.2</ele>
        <time>2022-10-28T13:37:19Z</time>
      </trkpt>
      <trkpt lat="44.42439" lon="3.81059">
        <ele>1572.4</ele>
        <time>2022-10-28T13:37:20Z</time>
      </trkpt>
      <trkpt lat="44.42436" lon="3.81064">
        <ele>1572.4</ele>
        <time>2022-10-28T13:37:21Z</time>
      </trkpt>
      <trkpt lat="44.42433" lon="3.8107">
        <ele>1572.4</ele>
        <time>2022-10-28T13:37:22Z</time>
      </trkpt>
      <trkpt lat="44.42431" lon="3.81074">
        <ele>1572.6</ele>
        <time>2022-10-28T13:37:23Z</time>
      </trkpt>
      <trkpt lat="44.42428" lon="3.81079">
        <ele>1572.6</ele>
        <time>2022-10-28T13:37:24Z</time>
      </trkpt>
      <trkpt lat="44.42425" lon="3.81084">
        <ele>1572.8</ele>
        <time>2022-10-28T13:37:25Z</time>
      </trkpt>
      <trkpt lat="44.42423" lon="3.8109">
        <ele>1572.8</ele>
        <time>2022-10-28T13:37:26Z</time>
      </trkpt>
      <trkpt lat="44.4242" lon="3.81095">
        <ele>1572.8</ele>
        <time>2022-10-28T13:37:27Z</time>
      </trkpt>
      <trkpt lat="44.42417" lon="3.811">
        <ele>1572.6</ele>
        <time>2022-10-28T13:37:28Z</time>
      </trkpt>
      <trkpt lat="44.42415" lon="3.81104">
        <ele>1572.6</ele>
        <time>2022-10-28T13:37:29Z</time>
      </trkpt>
      <trkpt lat="44.42413" lon="3.81109">
        <ele>1572.6</ele>
        <time>2022-10-28T13:37:30Z</time>
      </trkpt>
      <trkpt lat="44.4241" lon="3.81114">
        <ele>1572.6</ele>
        <time>2022-10-28T13:37:31Z</time>
      </trkpt>
      <trkpt lat="44.42407" lon="3.81119">
        <ele>1572.6</ele>
        <time>2022-10-28T13:37:32Z</time>
      </trkpt>
      <trkpt lat="44.42404" lon="3.81124">
        <ele>1572.8</ele>
        <time>2022-10-28T13:37:33Z</time>
      </trkpt>
      <trkpt lat="44.42401" lon="3.81129">
        <ele>1573</ele>
        <time>2022-10-28T13:37:34Z</time>
      </trkpt>
      <trkpt lat="44.42398" lon="3.81134">
        <ele>1572.8</ele>
        <time>2022-10-28T13:37:35Z</time>
      </trkpt>
      <trkpt lat="44.42395" lon="3.81139">
        <ele>1572.6</ele>
        <time>2022-10-28T13:37:36Z</time>
      </trkpt>
      <trkpt lat="44.42393" lon="3.81144">
        <ele>1572.8</ele>
        <time>2022-10-28T13:37:37Z</time>
      </trkpt>
      <trkpt lat="44.42389" lon="3.81149">
        <ele>1573</ele>
        <time>2022-10-28T13:37:38Z</time>
      </trkpt>
      <trkpt lat="44.42386" lon="3.81154">
        <ele>1572.8</ele>
        <time>2022-10-28T13:37:39Z</time>
      </trkpt>
      <trkpt lat="44.42383" lon="3.81159">
        <ele>1572.8</ele>
        <time>2022-10-28T13:37:40Z</time>
      </trkpt>
      <trkpt lat="44.4238" lon="3.81164">
        <ele>1572.8</ele>
        <time>2022-10-28T13:37:41Z</time>
      </trkpt>
      <trkpt lat="44.42377" lon="3.81169">
        <ele>1572.8</ele>
        <time>2022-10-28T13:37:42Z</time>
      </trkpt>
      <trkpt lat="44.42374" lon="3.81173">
        <ele>1572.8</ele>
        <time>2022-10-28T13:37:43Z</time>
      </trkpt>
      <trkpt lat="44.42371" lon="3.81178">
        <ele>1572.8</ele>
        <time>2022-10-28T13:37:44Z</time>
      </trkpt>
      <trkpt lat="44.42368" lon="3.81182">
        <ele>1572.6</ele>
        <time>2022-10-28T13:37:45Z</time>
      </trkpt>
      <trkpt lat="44.42365" lon="3.81187">
        <ele>1572.6</ele>
        <time>2022-10-28T13:37:46Z</time>
      </trkpt>
      <trkpt lat="44.42362" lon="3.81191">
        <ele>1572.6</ele>
        <time>2022-10-28T13:37:47Z</time>
      </trkpt>
      <trkpt lat="44.42359" lon="3.81196">
        <ele>1572.4</ele>
        <time>2022-10-28T13:37:48Z</time>
      </trkpt>
      <trkpt lat="44.42357" lon="3.81201">
        <ele>1572.4</ele>
        <time>2022-10-28T13:37:49Z</time>
      </trkpt>
      <trkpt lat="44.42353" lon="3.81206">
        <ele>1572.4</ele>
        <time>2022-10-28T13:37:50Z</time>
      </trkpt>
      <trkpt lat="44.4235" lon="3.8121">
        <ele>1572.4</ele>
        <time>2022-10-28T13:37:51Z</time>
      </trkpt>
      <trkpt lat="44.42347" lon="3.81214">
        <ele>1572.4</ele>
        <time>2022-10-28T13:37:52Z</time>
      </trkpt>
      <trkpt lat="44.42344" lon="3.81218">
        <ele>1572.6</ele>
        <time>2022-10-28T13:37:53Z</time>
      </trkpt>
      <trkpt lat="44.42341" lon="3.81223">
        <ele>1572.8</ele>
        <time>2022-10-28T13:37:54Z</time>
      </trkpt>
      <trkpt lat="44.42338" lon="3.81227">
        <ele>1572.8</ele>
        <time>2022-10-28T13:37:55Z</time>
      </trkpt>
      <trkpt lat="44.42336" lon="3.81232">
        <ele>1572.8</ele>
        <time>2022-10-28T13:37:56Z</time>
      </trkpt>
      <trkpt lat="44.42333" lon="3.81236">
        <ele>1572.6</ele>
        <time>2022-10-28T13:37:57Z</time>
      </trkpt>
      <trkpt lat="44.4233" lon="3.8124">
        <ele>1572.8</ele>
        <time>2022-10-28T13:37:58Z</time>
      </trkpt>
      <trkpt lat="44.42327" lon="3.81244">
        <ele>1572.8</ele>
        <time>2022-10-28T13:37:59Z</time>
      </trkpt>
      <trkpt lat="44.42323" lon="3.81248">
        <ele>1572.8</ele>
        <time>2022-10-28T13:38:00Z</time>
      </trkpt>
      <trkpt lat="44.4232" lon="3.81253">
        <ele>1572.8</ele>
        <time>2022-10-28T13:38:01Z</time>
      </trkpt>
      <trkpt lat="44.42317" lon="3.81257">
        <ele>1572.6</ele>
        <time>2022-10-28T13:38:02Z</time>
      </trkpt>
      <trkpt lat="44.42314" lon="3.81261">
        <ele>1572.4</ele>
        <time>2022-10-28T13:38:03Z</time>
      </trkpt>
      <trkpt lat="44.42311" lon="3.81266">
        <ele>1572.4</ele>
        <time>2022-10-28T13:38:04Z</time>
      </trkpt>
      <trkpt lat="44.42308" lon="3.81271">
        <ele>1572.4</ele>
        <time>2022-10-28T13:38:05Z</time>
      </trkpt>
      <trkpt lat="44.42305" lon="3.81276">
        <ele>1572.4</ele>
        <time>2022-10-28T13:38:06Z</time>
      </trkpt>
      <trkpt lat="44.42302" lon="3.81281">
        <ele>1572.4</ele>
        <time>2022-10-28T13:38:07Z</time>
      </trkpt>
      <trkpt lat="44.42299" lon="3.81286">
        <ele>1572.4</ele>
        <time>2022-10-28T13:38:08Z</time>
      </trkpt>
      <trkpt lat="44.42296" lon="3.8129">
        <ele>1572.4</ele>
        <time>2022-10-28T13:38:09Z</time>
      </trkpt>
      <trkpt lat="44.42293" lon="3.81295">
        <ele>1572.4</ele>
        <time>2022-10-28T13:38:10Z</time>
      </trkpt>
      <trkpt lat="44.42289" lon="3.81299">
        <ele>1572.4</ele>
        <time>2022-10-28T13:38:11Z</time>
      </trkpt>
      <trkpt lat="44.42286" lon="3.81304">
        <ele>1572.2</ele>
        <time>2022-10-28T13:38:12Z</time>
      </trkpt>
      <trkpt lat="44.42283" lon="3.81309">
        <ele>1572</ele>
        <time>2022-10-28T13:38:13Z</time>
      </trkpt>
      <trkpt lat="44.4228" lon="3.81313">
        <ele>1572</ele>
        <time>2022-10-28T13:38:14Z</time>
      </trkpt>
      <trkpt lat="44.42277" lon="3.81318">
        <ele>1572</ele>
        <time>2022-10-28T13:38:15Z</time>
      </trkpt>
      <trkpt lat="44.42274" lon="3.81323">
        <ele>1572.2</ele>
        <time>2022-10-28T13:38:16Z</time>
      </trkpt>
      <trkpt lat="44.42271" lon="3.81328">
        <ele>1572.2</ele>
        <time>2022-10-28T13:38:17Z</time>
      </trkpt>
      <trkpt lat="44.42268" lon="3.81333">
        <ele>1572.2</ele>
        <time>2022-10-28T13:38:18Z</time>
      </trkpt>
      <trkpt lat="44.42264" lon="3.81337">
        <ele>1572.2</ele>
        <time>2022-10-28T13:38:19Z</time>
      </trkpt>
      <trkpt lat="44.42262" lon="3.81341">
        <ele>1572.2</ele>
        <time>2022-10-28T13:38:20Z</time>
      </trkpt>
      <trkpt lat="44.42259" lon="3.81346">
        <ele>1572.4</ele>
        <time>2022-10-28T13:38:21Z</time>
      </trkpt>
      <trkpt lat="44.42256" lon="3.8135">
        <ele>1572.4</ele>
        <time>2022-10-28T13:38:22Z</time>
      </trkpt>
      <trkpt lat="44.42253" lon="3.81354">
        <ele>1572.6</ele>
        <time>2022-10-28T13:38:23Z</time>
      </trkpt>
      <trkpt lat="44.42251" lon="3.81358">
        <ele>1572.8</ele>
        <time>2022-10-28T13:38:24Z</time>
      </trkpt>
      <trkpt lat="44.42248" lon="3.81362">
        <ele>1572.8</ele>
        <time>2022-10-28T13:38:25Z</time>
      </trkpt>
      <trkpt lat="44.42246" lon="3.81366">
        <ele>1573</ele>
        <time>2022-10-28T13:38:26Z</time>
      </trkpt>
      <trkpt lat="44.42244" lon="3.8137">
        <ele>1573</ele>
        <time>2022-10-28T13:38:27Z</time>
      </trkpt>
      <trkpt lat="44.42242" lon="3.81374">
        <ele>1573.2</ele>
        <time>2022-10-28T13:38:28Z</time>
      </trkpt>
      <trkpt lat="44.4224" lon="3.81378">
        <ele>1573</ele>
        <time>2022-10-28T13:38:29Z</time>
      </trkpt>
      <trkpt lat="44.42237" lon="3.81383">
        <ele>1573.2</ele>
        <time>2022-10-28T13:38:30Z</time>
      </trkpt>
      <trkpt lat="44.42235" lon="3.81388">
        <ele>1573</ele>
        <time>2022-10-28T13:38:31Z</time>
      </trkpt>
      <trkpt lat="44.42233" lon="3.81392">
        <ele>1573</ele>
        <time>2022-10-28T13:38:32Z</time>
      </trkpt>
      <trkpt lat="44.4223" lon="3.81398">
        <ele>1572.8</ele>
        <time>2022-10-28T13:38:33Z</time>
      </trkpt>
      <trkpt lat="44.42228" lon="3.81403">
        <ele>1572.6</ele>
        <time>2022-10-28T13:38:34Z</time>
      </trkpt>
      <trkpt lat="44.42227" lon="3.81408">
        <ele>1572.6</ele>
        <time>2022-10-28T13:38:35Z</time>
      </trkpt>
      <trkpt lat="44.42225" lon="3.81414">
        <ele>1572.4</ele>
        <time>2022-10-28T13:38:36Z</time>
      </trkpt>
      <trkpt lat="44.42223" lon="3.81421">
        <ele>1572.4</ele>
        <time>2022-10-28T13:38:37Z</time>
      </trkpt>
      <trkpt lat="44.42222" lon="3.81427">
        <ele>1572.2</ele>
        <time>2022-10-28T13:38:38Z</time>
      </trkpt>
      <trkpt lat="44.42221" lon="3.81433">
        <ele>1571.8</ele>
        <time>2022-10-28T13:38:39Z</time>
      </trkpt>
      <trkpt lat="44.4222" lon="3.8144">
        <ele>1571.6</ele>
        <time>2022-10-28T13:38:40Z</time>
      </trkpt>
      <trkpt lat="44.42219" lon="3.81447">
        <ele>1571.6</ele>
        <time>2022-10-28T13:38:41Z</time>
      </trkpt>
      <trkpt lat="44.42219" lon="3.81454">
        <ele>1571.4</ele>
        <time>2022-10-28T13:38:42Z</time>
      </trkpt>
      <trkpt lat="44.42219" lon="3.81462">
        <ele>1571.4</ele>
        <time>2022-10-28T13:38:43Z</time>
      </trkpt>
      <trkpt lat="44.42219" lon="3.81469">
        <ele>1571.2</ele>
        <time>2022-10-28T13:38:44Z</time>
      </trkpt>
      <trkpt lat="44.42218" lon="3.81477">
        <ele>1571.2</ele>
        <time>2022-10-28T13:38:45Z</time>
      </trkpt>
      <trkpt lat="44.42217" lon="3.81485">
        <ele>1571</ele>
        <time>2022-10-28T13:38:46Z</time>
      </trkpt>
      <trkpt lat="44.42216" lon="3.81492">
        <ele>1570.8</ele>
        <time>2022-10-28T13:38:47Z</time>
      </trkpt>
      <trkpt lat="44.42215" lon="3.815">
        <ele>1570.6</ele>
        <time>2022-10-28T13:38:48Z</time>
      </trkpt>
      <trkpt lat="44.42214" lon="3.81508">
        <ele>1570.4</ele>
        <time>2022-10-28T13:38:49Z</time>
      </trkpt>
      <trkpt lat="44.42212" lon="3.81515">
        <ele>1570.4</ele>
        <time>2022-10-28T13:38:50Z</time>
      </trkpt>
      <trkpt lat="44.42211" lon="3.81523">
        <ele>1570.4</ele>
        <time>2022-10-28T13:38:51Z</time>
      </trkpt>
      <trkpt lat="44.4221" lon="3.81531">
        <ele>1570.2</ele>
        <time>2022-10-28T13:38:52Z</time>
      </trkpt>
      <trkpt lat="44.42208" lon="3.81539">
        <ele>1570</ele>
        <time>2022-10-28T13:38:53Z</time>
      </trkpt>
      <trkpt lat="44.42207" lon="3.81546">
        <ele>1569.8</ele>
        <time>2022-10-28T13:38:54Z</time>
      </trkpt>
      <trkpt lat="44.42206" lon="3.81554">
        <ele>1569.8</ele>
        <time>2022-10-28T13:38:55Z</time>
      </trkpt>
      <trkpt lat="44.42205" lon="3.81563">
        <ele>1570</ele>
        <time>2022-10-28T13:38:56Z</time>
      </trkpt>
      <trkpt lat="44.42204" lon="3.8157">
        <ele>1569.8</ele>
        <time>2022-10-28T13:38:57Z</time>
      </trkpt>
      <trkpt lat="44.42203" lon="3.81578">
        <ele>1569.8</ele>
        <time>2022-10-28T13:38:58Z</time>
      </trkpt>
      <trkpt lat="44.42203" lon="3.81586">
        <ele>1569.8</ele>
        <time>2022-10-28T13:38:59Z</time>
      </trkpt>
      <trkpt lat="44.42202" lon="3.81594">
        <ele>1569.8</ele>
        <time>2022-10-28T13:39:00Z</time>
      </trkpt>
      <trkpt lat="44.42202" lon="3.81601">
        <ele>1569.8</ele>
        <time>2022-10-28T13:39:01Z</time>
      </trkpt>
      <trkpt lat="44.42201" lon="3.81609">
        <ele>1569.8</ele>
        <time>2022-10-28T13:39:02Z</time>
      </trkpt>
      <trkpt lat="44.42201" lon="3.81616">
        <ele>1569.8</ele>
        <time>2022-10-28T13:39:03Z</time>
      </trkpt>
      <trkpt lat="44.422" lon="3.81624">
        <ele>1569.8</ele>
        <time>2022-10-28T13:39:04Z</time>
      </trkpt>
      <trkpt lat="44.42199" lon="3.81631">
        <ele>1569.8</ele>
        <time>2022-10-28T13:39:05Z</time>
      </trkpt>
      <trkpt lat="44.42199" lon="3.81639">
        <ele>1569.8</ele>
        <time>2022-10-28T13:39:06Z</time>
      </trkpt>
      <trkpt lat="44.42198" lon="3.81647">
        <ele>1569.8</ele>
        <time>2022-10-28T13:39:07Z</time>
      </trkpt>
      <trkpt lat="44.42198" lon="3.81655">
        <ele>1570</ele>
        <time>2022-10-28T13:39:08Z</time>
      </trkpt>
      <trkpt lat="44.42197" lon="3.81662">
        <ele>1570</ele>
        <time>2022-10-28T13:39:09Z</time>
      </trkpt>
      <trkpt lat="44.42196" lon="3.8167">
        <ele>1569.8</ele>
        <time>2022-10-28T13:39:10Z</time>
      </trkpt>
      <trkpt lat="44.42195" lon="3.81677">
        <ele>1569.6</ele>
        <time>2022-10-28T13:39:11Z</time>
      </trkpt>
      <trkpt lat="44.42194" lon="3.81685">
        <ele>1569.6</ele>
        <time>2022-10-28T13:39:12Z</time>
      </trkpt>
      <trkpt lat="44.42193" lon="3.81693">
        <ele>1569.6</ele>
        <time>2022-10-28T13:39:13Z</time>
      </trkpt>
      <trkpt lat="44.42193" lon="3.81701">
        <ele>1569.6</ele>
        <time>2022-10-28T13:39:14Z</time>
      </trkpt>
      <trkpt lat="44.42192" lon="3.81709">
        <ele>1569.4</ele>
        <time>2022-10-28T13:39:15Z</time>
      </trkpt>
      <trkpt lat="44.42191" lon="3.81717">
        <ele>1569.2</ele>
        <time>2022-10-28T13:39:16Z</time>
      </trkpt>
      <trkpt lat="44.42191" lon="3.81725">
        <ele>1569</ele>
        <time>2022-10-28T13:39:17Z</time>
      </trkpt>
      <trkpt lat="44.4219" lon="3.81733">
        <ele>1569</ele>
        <time>2022-10-28T13:39:18Z</time>
      </trkpt>
      <trkpt lat="44.4219" lon="3.81741">
        <ele>1568.8</ele>
        <time>2022-10-28T13:39:19Z</time>
      </trkpt>
      <trkpt lat="44.42189" lon="3.81749">
        <ele>1568.6</ele>
        <time>2022-10-28T13:39:20Z</time>
      </trkpt>
      <trkpt lat="44.42189" lon="3.81757">
        <ele>1568.6</ele>
        <time>2022-10-28T13:39:21Z</time>
      </trkpt>
      <trkpt lat="44.42188" lon="3.81766">
        <ele>1568.4</ele>
        <time>2022-10-28T13:39:22Z</time>
      </trkpt>
      <trkpt lat="44.42187" lon="3.81774">
        <ele>1568.4</ele>
        <time>2022-10-28T13:39:23Z</time>
      </trkpt>
      <trkpt lat="44.42187" lon="3.81782">
        <ele>1568.2</ele>
        <time>2022-10-28T13:39:24Z</time>
      </trkpt>
      <trkpt lat="44.42186" lon="3.8179">
        <ele>1568.2</ele>
        <time>2022-10-28T13:39:25Z</time>
      </trkpt>
      <trkpt lat="44.42186" lon="3.81799">
        <ele>1568.2</ele>
        <time>2022-10-28T13:39:26Z</time>
      </trkpt>
      <trkpt lat="44.42185" lon="3.81806">
        <ele>1568</ele>
        <time>2022-10-28T13:39:27Z</time>
      </trkpt>
      <trkpt lat="44.42185" lon="3.81814">
        <ele>1568</ele>
        <time>2022-10-28T13:39:28Z</time>
      </trkpt>
      <trkpt lat="44.42184" lon="3.81821">
        <ele>1568</ele>
        <time>2022-10-28T13:39:29Z</time>
      </trkpt>
      <trkpt lat="44.42184" lon="3.81829">
        <ele>1568</ele>
        <time>2022-10-28T13:39:30Z</time>
      </trkpt>
      <trkpt lat="44.42183" lon="3.81838">
        <ele>1567.8</ele>
        <time>2022-10-28T13:39:31Z</time>
      </trkpt>
      <trkpt lat="44.42183" lon="3.81845">
        <ele>1567.8</ele>
        <time>2022-10-28T13:39:32Z</time>
      </trkpt>
      <trkpt lat="44.42182" lon="3.81853">
        <ele>1567.8</ele>
        <time>2022-10-28T13:39:33Z</time>
      </trkpt>
      <trkpt lat="44.42182" lon="3.8186">
        <ele>1567.8</ele>
        <time>2022-10-28T13:39:34Z</time>
      </trkpt>
      <trkpt lat="44.42181" lon="3.81867">
        <ele>1568</ele>
        <time>2022-10-28T13:39:35Z</time>
      </trkpt>
      <trkpt lat="44.4218" lon="3.81874">
        <ele>1568</ele>
        <time>2022-10-28T13:39:36Z</time>
      </trkpt>
      <trkpt lat="44.42179" lon="3.81881">
        <ele>1568</ele>
        <time>2022-10-28T13:39:37Z</time>
      </trkpt>
      <trkpt lat="44.42179" lon="3.81888">
        <ele>1568.2</ele>
        <time>2022-10-28T13:39:38Z</time>
      </trkpt>
      <trkpt lat="44.42178" lon="3.81895">
        <ele>1568.2</ele>
        <time>2022-10-28T13:39:39Z</time>
      </trkpt>
      <trkpt lat="44.42177" lon="3.81903">
        <ele>1568.4</ele>
        <time>2022-10-28T13:39:40Z</time>
      </trkpt>
      <trkpt lat="44.42175" lon="3.8191">
        <ele>1568.4</ele>
        <time>2022-10-28T13:39:41Z</time>
      </trkpt>
      <trkpt lat="44.42174" lon="3.81917">
        <ele>1568.4</ele>
        <time>2022-10-28T13:39:42Z</time>
      </trkpt>
      <trkpt lat="44.42173" lon="3.81924">
        <ele>1568.4</ele>
        <time>2022-10-28T13:39:43Z</time>
      </trkpt>
      <trkpt lat="44.42171" lon="3.81931">
        <ele>1568.4</ele>
        <time>2022-10-28T13:39:44Z</time>
      </trkpt>
      <trkpt lat="44.4217" lon="3.81937">
        <ele>1568.4</ele>
        <time>2022-10-28T13:39:45Z</time>
      </trkpt>
      <trkpt lat="44.42167" lon="3.81944">
        <ele>1568.4</ele>
        <time>2022-10-28T13:39:46Z</time>
      </trkpt>
      <trkpt lat="44.42165" lon="3.81951">
        <ele>1568.6</ele>
        <time>2022-10-28T13:39:47Z</time>
      </trkpt>
      <trkpt lat="44.42162" lon="3.81957">
        <ele>1568.4</ele>
        <time>2022-10-28T13:39:48Z</time>
      </trkpt>
      <trkpt lat="44.42158" lon="3.81962">
        <ele>1568.4</ele>
        <time>2022-10-28T13:39:49Z</time>
      </trkpt>
      <trkpt lat="44.42155" lon="3.81968">
        <ele>1568.4</ele>
        <time>2022-10-28T13:39:50Z</time>
      </trkpt>
      <trkpt lat="44.42152" lon="3.81974">
        <ele>1568.4</ele>
        <time>2022-10-28T13:39:51Z</time>
      </trkpt>
      <trkpt lat="44.42149" lon="3.81979">
        <ele>1568.4</ele>
        <time>2022-10-28T13:39:52Z</time>
      </trkpt>
      <trkpt lat="44.42146" lon="3.81985">
        <ele>1568.2</ele>
        <time>2022-10-28T13:39:53Z</time>
      </trkpt>
      <trkpt lat="44.42142" lon="3.81989">
        <ele>1568.2</ele>
        <time>2022-10-28T13:39:54Z</time>
      </trkpt>
      <trkpt lat="44.42139" lon="3.81994">
        <ele>1568.2</ele>
        <time>2022-10-28T13:39:55Z</time>
      </trkpt>
      <trkpt lat="44.42136" lon="3.81998">
        <ele>1568</ele>
        <time>2022-10-28T13:39:56Z</time>
      </trkpt>
      <trkpt lat="44.42132" lon="3.82003">
        <ele>1568</ele>
        <time>2022-10-28T13:39:57Z</time>
      </trkpt>
      <trkpt lat="44.42129" lon="3.82006">
        <ele>1568</ele>
        <time>2022-10-28T13:39:58Z</time>
      </trkpt>
      <trkpt lat="44.42126" lon="3.8201">
        <ele>1567.8</ele>
        <time>2022-10-28T13:39:59Z</time>
      </trkpt>
      <trkpt lat="44.42123" lon="3.82013">
        <ele>1567.8</ele>
        <time>2022-10-28T13:40:00Z</time>
      </trkpt>
      <trkpt lat="44.4212" lon="3.82016">
        <ele>1567.8</ele>
        <time>2022-10-28T13:40:01Z</time>
      </trkpt>
      <trkpt lat="44.42117" lon="3.82019">
        <ele>1567.6</ele>
        <time>2022-10-28T13:40:02Z</time>
      </trkpt>
      <trkpt lat="44.42114" lon="3.82022">
        <ele>1567.4</ele>
        <time>2022-10-28T13:40:03Z</time>
      </trkpt>
      <trkpt lat="44.42111" lon="3.82024">
        <ele>1567.4</ele>
        <time>2022-10-28T13:40:04Z</time>
      </trkpt>
      <trkpt lat="44.42108" lon="3.82027">
        <ele>1567.2</ele>
        <time>2022-10-28T13:40:05Z</time>
      </trkpt>
      <trkpt lat="44.42105" lon="3.8203">
        <ele>1567.2</ele>
        <time>2022-10-28T13:40:06Z</time>
      </trkpt>
      <trkpt lat="44.42102" lon="3.82032">
        <ele>1567.2</ele>
        <time>2022-10-28T13:40:07Z</time>
      </trkpt>
      <trkpt lat="44.42099" lon="3.82035">
        <ele>1567.4</ele>
        <time>2022-10-28T13:40:08Z</time>
      </trkpt>
      <trkpt lat="44.42095" lon="3.82038">
        <ele>1567.4</ele>
        <time>2022-10-28T13:40:09Z</time>
      </trkpt>
      <trkpt lat="44.42092" lon="3.82041">
        <ele>1567.4</ele>
        <time>2022-10-28T13:40:10Z</time>
      </trkpt>
      <trkpt lat="44.42088" lon="3.82044">
        <ele>1567.4</ele>
        <time>2022-10-28T13:40:11Z</time>
      </trkpt>
      <trkpt lat="44.42085" lon="3.82046">
        <ele>1567.4</ele>
        <time>2022-10-28T13:40:12Z</time>
      </trkpt>
      <trkpt lat="44.42081" lon="3.82047">
        <ele>1567.4</ele>
        <time>2022-10-28T13:40:13Z</time>
      </trkpt>
      <trkpt lat="44.42078" lon="3.82048">
        <ele>1567.4</ele>
        <time>2022-10-28T13:40:14Z</time>
      </trkpt>
      <trkpt lat="44.42074" lon="3.82048">
        <ele>1567.2</ele>
        <time>2022-10-28T13:40:15Z</time>
      </trkpt>
      <trkpt lat="44.4207" lon="3.82049">
        <ele>1567.4</ele>
        <time>2022-10-28T13:40:16Z</time>
      </trkpt>
      <trkpt lat="44.42066" lon="3.82051">
        <ele>1567.4</ele>
        <time>2022-10-28T13:40:17Z</time>
      </trkpt>
      <trkpt lat="44.42062" lon="3.82054">
        <ele>1567.2</ele>
        <time>2022-10-28T13:40:18Z</time>
      </trkpt>
      <trkpt lat="44.42058" lon="3.82055">
        <ele>1567.4</ele>
        <time>2022-10-28T13:40:19Z</time>
      </trkpt>
      <trkpt lat="44.42054" lon="3.82057">
        <ele>1567.4</ele>
        <time>2022-10-28T13:40:20Z</time>
      </trkpt>
      <trkpt lat="44.42049" lon="3.82058">
        <ele>1567.4</ele>
        <time>2022-10-28T13:40:21Z</time>
      </trkpt>
      <trkpt lat="44.42045" lon="3.82059">
        <ele>1567.4</ele>
        <time>2022-10-28T13:40:22Z</time>
      </trkpt>
      <trkpt lat="44.42041" lon="3.8206">
        <ele>1567.4</ele>
        <time>2022-10-28T13:40:23Z</time>
      </trkpt>
      <trkpt lat="44.42036" lon="3.82061">
        <ele>1567.6</ele>
        <time>2022-10-28T13:40:24Z</time>
      </trkpt>
      <trkpt lat="44.42031" lon="3.82061">
        <ele>1567.6</ele>
        <time>2022-10-28T13:40:25Z</time>
      </trkpt>
      <trkpt lat="44.42026" lon="3.82061">
        <ele>1567.6</ele>
        <time>2022-10-28T13:40:26Z</time>
      </trkpt>
      <trkpt lat="44.42022" lon="3.8206">
        <ele>1568</ele>
        <time>2022-10-28T13:40:27Z</time>
      </trkpt>
      <trkpt lat="44.42018" lon="3.82059">
        <ele>1568</ele>
        <time>2022-10-28T13:40:28Z</time>
      </trkpt>
      <trkpt lat="44.42014" lon="3.82057">
        <ele>1568</ele>
        <time>2022-10-28T13:40:29Z</time>
      </trkpt>
      <trkpt lat="44.4201" lon="3.82056">
        <ele>1568.2</ele>
        <time>2022-10-28T13:40:30Z</time>
      </trkpt>
      <trkpt lat="44.42005" lon="3.82055">
        <ele>1568.2</ele>
        <time>2022-10-28T13:40:31Z</time>
      </trkpt>
      <trkpt lat="44.42001" lon="3.82054">
        <ele>1567.8</ele>
        <time>2022-10-28T13:40:32Z</time>
      </trkpt>
      <trkpt lat="44.41997" lon="3.82054">
        <ele>1567.8</ele>
        <time>2022-10-28T13:40:33Z</time>
      </trkpt>
      <trkpt lat="44.41992" lon="3.82053">
        <ele>1567.8</ele>
        <time>2022-10-28T13:40:34Z</time>
      </trkpt>
      <trkpt lat="44.41987" lon="3.82053">
        <ele>1567.6</ele>
        <time>2022-10-28T13:40:35Z</time>
      </trkpt>
      <trkpt lat="44.41982" lon="3.82052">
        <ele>1567.6</ele>
        <time>2022-10-28T13:40:36Z</time>
      </trkpt>
      <trkpt lat="44.41978" lon="3.82052">
        <ele>1567.8</ele>
        <time>2022-10-28T13:40:37Z</time>
      </trkpt>
      <trkpt lat="44.41973" lon="3.82052">
        <ele>1567.8</ele>
        <time>2022-10-28T13:40:38Z</time>
      </trkpt>
      <trkpt lat="44.41969" lon="3.82052">
        <ele>1567.8</ele>
        <time>2022-10-28T13:40:39Z</time>
      </trkpt>
      <trkpt lat="44.41964" lon="3.82052">
        <ele>1567.8</ele>
        <time>2022-10-28T13:40:40Z</time>
      </trkpt>
      <trkpt lat="44.4196" lon="3.82052">
        <ele>1567.8</ele>
        <time>2022-10-28T13:40:41Z</time>
      </trkpt>
      <trkpt lat="44.41956" lon="3.82052">
        <ele>1567.6</ele>
        <time>2022-10-28T13:40:42Z</time>
      </trkpt>
      <trkpt lat="44.41952" lon="3.82051">
        <ele>1567.6</ele>
        <time>2022-10-28T13:40:43Z</time>
      </trkpt>
      <trkpt lat="44.41948" lon="3.8205">
        <ele>1567.6</ele>
        <time>2022-10-28T13:40:44Z</time>
      </trkpt>
      <trkpt lat="44.41945" lon="3.82049">
        <ele>1567.6</ele>
        <time>2022-10-28T13:40:45Z</time>
      </trkpt>
      <trkpt lat="44.4194" lon="3.82048">
        <ele>1567.6</ele>
        <time>2022-10-28T13:40:46Z</time>
      </trkpt>
      <trkpt lat="44.41936" lon="3.82046">
        <ele>1567.6</ele>
        <time>2022-10-28T13:40:47Z</time>
      </trkpt>
      <trkpt lat="44.41932" lon="3.82045">
        <ele>1567.6</ele>
        <time>2022-10-28T13:40:48Z</time>
      </trkpt>
      <trkpt lat="44.41928" lon="3.82043">
        <ele>1567.4</ele>
        <time>2022-10-28T13:40:49Z</time>
      </trkpt>
      <trkpt lat="44.41923" lon="3.82041">
        <ele>1567.6</ele>
        <time>2022-10-28T13:40:50Z</time>
      </trkpt>
      <trkpt lat="44.41919" lon="3.82039">
        <ele>1567.6</ele>
        <time>2022-10-28T13:40:51Z</time>
      </trkpt>
      <trkpt lat="44.41915" lon="3.82038">
        <ele>1567.4</ele>
        <time>2022-10-28T13:40:52Z</time>
      </trkpt>
      <trkpt lat="44.41911" lon="3.82036">
        <ele>1567.2</ele>
        <time>2022-10-28T13:40:53Z</time>
      </trkpt>
      <trkpt lat="44.41907" lon="3.82035">
        <ele>1567</ele>
        <time>2022-10-28T13:40:54Z</time>
      </trkpt>
      <trkpt lat="44.41903" lon="3.82033">
        <ele>1566.8</ele>
        <time>2022-10-28T13:40:55Z</time>
      </trkpt>
      <trkpt lat="44.41898" lon="3.82032">
        <ele>1566.8</ele>
        <time>2022-10-28T13:40:56Z</time>
      </trkpt>
      <trkpt lat="44.41894" lon="3.82032">
        <ele>1566.6</ele>
        <time>2022-10-28T13:40:57Z</time>
      </trkpt>
      <trkpt lat="44.41889" lon="3.82032">
        <ele>1566.6</ele>
        <time>2022-10-28T13:40:58Z</time>
      </trkpt>
      <trkpt lat="44.41885" lon="3.82033">
        <ele>1566.4</ele>
        <time>2022-10-28T13:40:59Z</time>
      </trkpt>
      <trkpt lat="44.4188" lon="3.82034">
        <ele>1566.4</ele>
        <time>2022-10-28T13:41:00Z</time>
      </trkpt>
      <trkpt lat="44.41876" lon="3.82037">
        <ele>1566.2</ele>
        <time>2022-10-28T13:41:01Z</time>
      </trkpt>
      <trkpt lat="44.41872" lon="3.8204">
        <ele>1566.4</ele>
        <time>2022-10-28T13:41:02Z</time>
      </trkpt>
      <trkpt lat="44.41867" lon="3.82044">
        <ele>1566.4</ele>
        <time>2022-10-28T13:41:03Z</time>
      </trkpt>
      <trkpt lat="44.41863" lon="3.82048">
        <ele>1566.4</ele>
        <time>2022-10-28T13:41:04Z</time>
      </trkpt>
      <trkpt lat="44.4186" lon="3.82053">
        <ele>1566.2</ele>
        <time>2022-10-28T13:41:05Z</time>
      </trkpt>
      <trkpt lat="44.41856" lon="3.82058">
        <ele>1566.2</ele>
        <time>2022-10-28T13:41:06Z</time>
      </trkpt>
      <trkpt lat="44.41852" lon="3.82062">
        <ele>1566</ele>
        <time>2022-10-28T13:41:07Z</time>
      </trkpt>
      <trkpt lat="44.41849" lon="3.82066">
        <ele>1565.8</ele>
        <time>2022-10-28T13:41:08Z</time>
      </trkpt>
      <trkpt lat="44.41845" lon="3.82071">
        <ele>1565.8</ele>
        <time>2022-10-28T13:41:09Z</time>
      </trkpt>
      <trkpt lat="44.41842" lon="3.82075">
        <ele>1565.6</ele>
        <time>2022-10-28T13:41:10Z</time>
      </trkpt>
      <trkpt lat="44.41838" lon="3.82079">
        <ele>1565.6</ele>
        <time>2022-10-28T13:41:11Z</time>
      </trkpt>
      <trkpt lat="44.41834" lon="3.82083">
        <ele>1565.6</ele>
        <time>2022-10-28T13:41:12Z</time>
      </trkpt>
      <trkpt lat="44.41831" lon="3.82086">
        <ele>1565.4</ele>
        <time>2022-10-28T13:41:13Z</time>
      </trkpt>
      <trkpt lat="44.41827" lon="3.8209">
        <ele>1565.4</ele>
        <time>2022-10-28T13:41:14Z</time>
      </trkpt>
      <trkpt lat="44.41824" lon="3.82094">
        <ele>1565.2</ele>
        <time>2022-10-28T13:41:15Z</time>
      </trkpt>
      <trkpt lat="44.4182" lon="3.82098">
        <ele>1565.2</ele>
        <time>2022-10-28T13:41:16Z</time>
      </trkpt>
      <trkpt lat="44.41817" lon="3.82102">
        <ele>1565</ele>
        <time>2022-10-28T13:41:17Z</time>
      </trkpt>
      <trkpt lat="44.41813" lon="3.82106">
        <ele>1564.6</ele>
        <time>2022-10-28T13:41:18Z</time>
      </trkpt>
      <trkpt lat="44.4181" lon="3.82111">
        <ele>1564.6</ele>
        <time>2022-10-28T13:41:19Z</time>
      </trkpt>
      <trkpt lat="44.41807" lon="3.82115">
        <ele>1564.4</ele>
        <time>2022-10-28T13:41:20Z</time>
      </trkpt>
      <trkpt lat="44.41804" lon="3.8212">
        <ele>1564.2</ele>
        <time>2022-10-28T13:41:21Z</time>
      </trkpt>
      <trkpt lat="44.418" lon="3.82125">
        <ele>1564</ele>
        <time>2022-10-28T13:41:22Z</time>
      </trkpt>
      <trkpt lat="44.41796" lon="3.8213">
        <ele>1563.8</ele>
        <time>2022-10-28T13:41:23Z</time>
      </trkpt>
      <trkpt lat="44.41792" lon="3.82135">
        <ele>1563.8</ele>
        <time>2022-10-28T13:41:24Z</time>
      </trkpt>
      <trkpt lat="44.41788" lon="3.8214">
        <ele>1563.6</ele>
        <time>2022-10-28T13:41:25Z</time>
      </trkpt>
      <trkpt lat="44.41784" lon="3.82145">
        <ele>1563.4</ele>
        <time>2022-10-28T13:41:26Z</time>
      </trkpt>
      <trkpt lat="44.4178" lon="3.8215">
        <ele>1563.2</ele>
        <time>2022-10-28T13:41:27Z</time>
      </trkpt>
      <trkpt lat="44.41776" lon="3.82155">
        <ele>1563.2</ele>
        <time>2022-10-28T13:41:28Z</time>
      </trkpt>
      <trkpt lat="44.41771" lon="3.8216">
        <ele>1563</ele>
        <time>2022-10-28T13:41:29Z</time>
      </trkpt>
      <trkpt lat="44.41767" lon="3.82166">
        <ele>1563</ele>
        <time>2022-10-28T13:41:30Z</time>
      </trkpt>
      <trkpt lat="44.41763" lon="3.82171">
        <ele>1563</ele>
        <time>2022-10-28T13:41:31Z</time>
      </trkpt>
      <trkpt lat="44.41759" lon="3.82176">
        <ele>1562.6</ele>
        <time>2022-10-28T13:41:32Z</time>
      </trkpt>
      <trkpt lat="44.41754" lon="3.82182">
        <ele>1562.6</ele>
        <time>2022-10-28T13:41:33Z</time>
      </trkpt>
      <trkpt lat="44.4175" lon="3.82186">
        <ele>1562.2</ele>
        <time>2022-10-28T13:41:34Z</time>
      </trkpt>
      <trkpt lat="44.41747" lon="3.8219">
        <ele>1562</ele>
        <time>2022-10-28T13:41:35Z</time>
      </trkpt>
      <trkpt lat="44.41743" lon="3.82194">
        <ele>1561.8</ele>
        <time>2022-10-28T13:41:36Z</time>
      </trkpt>
      <trkpt lat="44.4174" lon="3.82198">
        <ele>1561.6</ele>
        <time>2022-10-28T13:41:37Z</time>
      </trkpt>
      <trkpt lat="44.41737" lon="3.82202">
        <ele>1561.6</ele>
        <time>2022-10-28T13:41:38Z</time>
      </trkpt>
      <trkpt lat="44.41734" lon="3.82206">
        <ele>1561.4</ele>
        <time>2022-10-28T13:41:39Z</time>
      </trkpt>
      <trkpt lat="44.41732" lon="3.8221">
        <ele>1561.2</ele>
        <time>2022-10-28T13:41:40Z</time>
      </trkpt>
      <trkpt lat="44.4173" lon="3.82213">
        <ele>1561</ele>
        <time>2022-10-28T13:41:41Z</time>
      </trkpt>
      <trkpt lat="44.41729" lon="3.82215">
        <ele>1560.8</ele>
        <time>2022-10-28T13:41:42Z</time>
      </trkpt>
      <trkpt lat="44.41729" lon="3.82214">
        <ele>1560.6</ele>
        <time>2022-10-28T13:42:27Z</time>
      </trkpt>
      <trkpt lat="44.41729" lon="3.82213">
        <ele>1560.4</ele>
        <time>2022-10-28T13:42:28Z</time>
      </trkpt>
      <trkpt lat="44.41728" lon="3.82211">
        <ele>1560.4</ele>
        <time>2022-10-28T13:42:29Z</time>
      </trkpt>
      <trkpt lat="44.41727" lon="3.82207">
        <ele>1560.4</ele>
        <time>2022-10-28T13:42:30Z</time>
      </trkpt>
      <trkpt lat="44.41725" lon="3.82202">
        <ele>1560.4</ele>
        <time>2022-10-28T13:42:31Z</time>
      </trkpt>
      <trkpt lat="44.41723" lon="3.82199">
        <ele>1560.4</ele>
        <time>2022-10-28T13:42:32Z</time>
      </trkpt>
      <trkpt lat="44.41721" lon="3.82196">
        <ele>1560.4</ele>
        <time>2022-10-28T13:42:33Z</time>
      </trkpt>
      <trkpt lat="44.41719" lon="3.82192">
        <ele>1560.6</ele>
        <time>2022-10-28T13:42:34Z</time>
      </trkpt>
      <trkpt lat="44.41717" lon="3.82189">
        <ele>1560.6</ele>
        <time>2022-10-28T13:42:35Z</time>
      </trkpt>
      <trkpt lat="44.41715" lon="3.82186">
        <ele>1560.6</ele>
        <time>2022-10-28T13:42:36Z</time>
      </trkpt>
      <trkpt lat="44.41713" lon="3.82184">
        <ele>1560.8</ele>
        <time>2022-10-28T13:42:37Z</time>
      </trkpt>
      <trkpt lat="44.41711" lon="3.8218">
        <ele>1560.8</ele>
        <time>2022-10-28T13:42:38Z</time>
      </trkpt>
      <trkpt lat="44.41709" lon="3.82177">
        <ele>1561</ele>
        <time>2022-10-28T13:42:39Z</time>
      </trkpt>
      <trkpt lat="44.41708" lon="3.82174">
        <ele>1561.2</ele>
        <time>2022-10-28T13:42:40Z</time>
      </trkpt>
      <trkpt lat="44.41706" lon="3.82172">
        <ele>1561.2</ele>
        <time>2022-10-28T13:42:41Z</time>
      </trkpt>
      <trkpt lat="44.41704" lon="3.82169">
        <ele>1561.4</ele>
        <time>2022-10-28T13:42:42Z</time>
      </trkpt>
      <trkpt lat="44.41703" lon="3.82166">
        <ele>1561.6</ele>
        <time>2022-10-28T13:42:43Z</time>
      </trkpt>
      <trkpt lat="44.41701" lon="3.82163">
        <ele>1561.8</ele>
        <time>2022-10-28T13:42:44Z</time>
      </trkpt>
      <trkpt lat="44.417" lon="3.8216">
        <ele>1562</ele>
        <time>2022-10-28T13:42:45Z</time>
      </trkpt>
      <trkpt lat="44.41698" lon="3.82157">
        <ele>1562.2</ele>
        <time>2022-10-28T13:42:46Z</time>
      </trkpt>
      <trkpt lat="44.41697" lon="3.82155">
        <ele>1562.4</ele>
        <time>2022-10-28T13:42:47Z</time>
      </trkpt>
      <trkpt lat="44.41696" lon="3.82152">
        <ele>1562.8</ele>
        <time>2022-10-28T13:42:48Z</time>
      </trkpt>
      <trkpt lat="44.41695" lon="3.82149">
        <ele>1563.2</ele>
        <time>2022-10-28T13:42:49Z</time>
      </trkpt>
      <trkpt lat="44.41694" lon="3.82145">
        <ele>1563.6</ele>
        <time>2022-10-28T13:42:50Z</time>
      </trkpt>
      <trkpt lat="44.41693" lon="3.82142">
        <ele>1563.8</ele>
        <time>2022-10-28T13:42:51Z</time>
      </trkpt>
      <trkpt lat="44.41693" lon="3.82139">
        <ele>1564</ele>
        <time>2022-10-28T13:42:52Z</time>
      </trkpt>
      <trkpt lat="44.41693" lon="3.82136">
        <ele>1564.2</ele>
        <time>2022-10-28T13:42:53Z</time>
      </trkpt>
      <trkpt lat="44.41693" lon="3.82132">
        <ele>1564.4</ele>
        <time>2022-10-28T13:42:54Z</time>
      </trkpt>
      <trkpt lat="44.41693" lon="3.82129">
        <ele>1564.6</ele>
        <time>2022-10-28T13:42:55Z</time>
      </trkpt>
      <trkpt lat="44.41692" lon="3.82126">
        <ele>1564.8</ele>
        <time>2022-10-28T13:42:56Z</time>
      </trkpt>
      <trkpt lat="44.4169" lon="3.82123">
        <ele>1565</ele>
        <time>2022-10-28T13:42:57Z</time>
      </trkpt>
      <trkpt lat="44.41688" lon="3.82121">
        <ele>1565.2</ele>
        <time>2022-10-28T13:42:58Z</time>
      </trkpt>
      <trkpt lat="44.41687" lon="3.82118">
        <ele>1565.4</ele>
        <time>2022-10-28T13:42:59Z</time>
      </trkpt>
      <trkpt lat="44.41686" lon="3.82115">
        <ele>1565.6</ele>
        <time>2022-10-28T13:43:00Z</time>
      </trkpt>
      <trkpt lat="44.41684" lon="3.82113">
        <ele>1565.8</ele>
        <time>2022-10-28T13:43:01Z</time>
      </trkpt>
      <trkpt lat="44.41682" lon="3.8211">
        <ele>1565.8</ele>
        <time>2022-10-28T13:43:02Z</time>
      </trkpt>
      <trkpt lat="44.41681" lon="3.82108">
        <ele>1565.8</ele>
        <time>2022-10-28T13:43:03Z</time>
      </trkpt>
      <trkpt lat="44.41679" lon="3.82105">
        <ele>1565.8</ele>
        <time>2022-10-28T13:43:04Z</time>
      </trkpt>
      <trkpt lat="44.41677" lon="3.82103">
        <ele>1566</ele>
        <time>2022-10-28T13:43:05Z</time>
      </trkpt>
      <trkpt lat="44.41675" lon="3.82101">
        <ele>1566</ele>
        <time>2022-10-28T13:43:06Z</time>
      </trkpt>
      <trkpt lat="44.41673" lon="3.82099">
        <ele>1566</ele>
        <time>2022-10-28T13:43:07Z</time>
      </trkpt>
      <trkpt lat="44.41671" lon="3.82096">
        <ele>1566.2</ele>
        <time>2022-10-28T13:43:08Z</time>
      </trkpt>
      <trkpt lat="44.4167" lon="3.82095">
        <ele>1566.2</ele>
        <time>2022-10-28T13:43:09Z</time>
      </trkpt>
      <trkpt lat="44.41668" lon="3.82093">
        <ele>1566.2</ele>
        <time>2022-10-28T13:43:10Z</time>
      </trkpt>
      <trkpt lat="44.41666" lon="3.82091">
        <ele>1566</ele>
        <time>2022-10-28T13:43:11Z</time>
      </trkpt>
      <trkpt lat="44.41663" lon="3.82089">
        <ele>1566</ele>
        <time>2022-10-28T13:43:12Z</time>
      </trkpt>
      <trkpt lat="44.41661" lon="3.82087">
        <ele>1565.8</ele>
        <time>2022-10-28T13:43:13Z</time>
      </trkpt>
      <trkpt lat="44.41658" lon="3.82085">
        <ele>1565.6</ele>
        <time>2022-10-28T13:43:14Z</time>
      </trkpt>
      <trkpt lat="44.41655" lon="3.82083">
        <ele>1565.6</ele>
        <time>2022-10-28T13:43:15Z</time>
      </trkpt>
      <trkpt lat="44.41653" lon="3.82082">
        <ele>1565.8</ele>
        <time>2022-10-28T13:43:16Z</time>
      </trkpt>
      <trkpt lat="44.41651" lon="3.8208">
        <ele>1565.8</ele>
        <time>2022-10-28T13:43:17Z</time>
      </trkpt>
      <trkpt lat="44.4165" lon="3.82079">
        <ele>1565.8</ele>
        <time>2022-10-28T13:43:18Z</time>
      </trkpt>
      <trkpt lat="44.41648" lon="3.82078">
        <ele>1566</ele>
        <time>2022-10-28T13:43:19Z</time>
      </trkpt>
      <trkpt lat="44.41647" lon="3.82077">
        <ele>1566</ele>
        <time>2022-10-28T13:43:20Z</time>
      </trkpt>
      <trkpt lat="44.41646" lon="3.82076">
        <ele>1566</ele>
        <time>2022-10-28T13:43:21Z</time>
      </trkpt>
      <trkpt lat="44.41644" lon="3.82074">
        <ele>1566</ele>
        <time>2022-10-28T13:43:22Z</time>
      </trkpt>
      <trkpt lat="44.41642" lon="3.82072">
        <ele>1565.8</ele>
        <time>2022-10-28T13:43:23Z</time>
      </trkpt>
      <trkpt lat="44.4164" lon="3.8207">
        <ele>1565.8</ele>
        <time>2022-10-28T13:43:24Z</time>
      </trkpt>
      <trkpt lat="44.41638" lon="3.82067">
        <ele>1565.6</ele>
        <time>2022-10-28T13:43:25Z</time>
      </trkpt>
      <trkpt lat="44.41636" lon="3.82065">
        <ele>1565.2</ele>
        <time>2022-10-28T13:43:26Z</time>
      </trkpt>
      <trkpt lat="44.41635" lon="3.82064">
        <ele>1565</ele>
        <time>2022-10-28T13:43:27Z</time>
      </trkpt>
      <trkpt lat="44.41633" lon="3.82062">
        <ele>1565</ele>
        <time>2022-10-28T13:43:28Z</time>
      </trkpt>
      <trkpt lat="44.41631" lon="3.82061">
        <ele>1564.8</ele>
        <time>2022-10-28T13:43:29Z</time>
      </trkpt>
      <trkpt lat="44.4163" lon="3.82059">
        <ele>1564.6</ele>
        <time>2022-10-28T13:43:30Z</time>
      </trkpt>
      <trkpt lat="44.41627" lon="3.82057">
        <ele>1564.4</ele>
        <time>2022-10-28T13:43:31Z</time>
      </trkpt>
      <trkpt lat="44.41625" lon="3.82055">
        <ele>1564.2</ele>
        <time>2022-10-28T13:43:32Z</time>
      </trkpt>
      <trkpt lat="44.41623" lon="3.82054">
        <ele>1564</ele>
        <time>2022-10-28T13:43:33Z</time>
      </trkpt>
      <trkpt lat="44.41622" lon="3.82052">
        <ele>1563.8</ele>
        <time>2022-10-28T13:43:34Z</time>
      </trkpt>
      <trkpt lat="44.41621" lon="3.82051">
        <ele>1563.6</ele>
        <time>2022-10-28T13:43:35Z</time>
      </trkpt>
      <trkpt lat="44.41619" lon="3.8205">
        <ele>1563.4</ele>
        <time>2022-10-28T13:43:36Z</time>
      </trkpt>
      <trkpt lat="44.41617" lon="3.82048">
        <ele>1563</ele>
        <time>2022-10-28T13:43:37Z</time>
      </trkpt>
      <trkpt lat="44.41615" lon="3.82047">
        <ele>1562.8</ele>
        <time>2022-10-28T13:43:38Z</time>
      </trkpt>
      <trkpt lat="44.41612" lon="3.82045">
        <ele>1562.4</ele>
        <time>2022-10-28T13:43:39Z</time>
      </trkpt>
      <trkpt lat="44.4161" lon="3.82043">
        <ele>1562.2</ele>
        <time>2022-10-28T13:43:40Z</time>
      </trkpt>
      <trkpt lat="44.41608" lon="3.82042">
        <ele>1561.8</ele>
        <time>2022-10-28T13:43:41Z</time>
      </trkpt>
      <trkpt lat="44.41605" lon="3.82041">
        <ele>1561.6</ele>
        <time>2022-10-28T13:43:42Z</time>
      </trkpt>
      <trkpt lat="44.41602" lon="3.82041">
        <ele>1561.2</ele>
        <time>2022-10-28T13:43:43Z</time>
      </trkpt>
      <trkpt lat="44.41601" lon="3.82041">
        <ele>1560.8</ele>
        <time>2022-10-28T13:43:44Z</time>
      </trkpt>
      <trkpt lat="44.41599" lon="3.8204">
        <ele>1559.8</ele>
        <time>2022-10-28T13:44:30Z</time>
      </trkpt>
      <trkpt lat="44.41598" lon="3.8204">
        <ele>1559.8</ele>
        <time>2022-10-28T13:44:31Z</time>
      </trkpt>
      <trkpt lat="44.41596" lon="3.8204">
        <ele>1559.6</ele>
        <time>2022-10-28T13:44:32Z</time>
      </trkpt>
      <trkpt lat="44.41593" lon="3.82039">
        <ele>1559.4</ele>
        <time>2022-10-28T13:44:33Z</time>
      </trkpt>
      <trkpt lat="44.41589" lon="3.82038">
        <ele>1559.2</ele>
        <time>2022-10-28T13:44:34Z</time>
      </trkpt>
      <trkpt lat="44.41586" lon="3.82038">
        <ele>1558.8</ele>
        <time>2022-10-28T13:44:35Z</time>
      </trkpt>
      <trkpt lat="44.41584" lon="3.82039">
        <ele>1558.6</ele>
        <time>2022-10-28T13:44:36Z</time>
      </trkpt>
      <trkpt lat="44.41581" lon="3.82039">
        <ele>1558.4</ele>
        <time>2022-10-28T13:44:37Z</time>
      </trkpt>
      <trkpt lat="44.4158" lon="3.8204">
        <ele>1558</ele>
        <time>2022-10-28T13:44:38Z</time>
      </trkpt>
      <trkpt lat="44.41579" lon="3.82039">
        <ele>1557.8</ele>
        <time>2022-10-28T13:44:39Z</time>
      </trkpt>
      <trkpt lat="44.41578" lon="3.82039">
        <ele>1557.4</ele>
        <time>2022-10-28T13:44:40Z</time>
      </trkpt>
      <trkpt lat="44.41578" lon="3.82039">
        <ele>1557.2</ele>
        <time>2022-10-28T13:44:41Z</time>
      </trkpt>
      <trkpt lat="44.41578" lon="3.82039">
        <ele>1557.2</ele>
        <time>2022-10-28T13:44:42Z</time>
      </trkpt>
      <trkpt lat="44.41578" lon="3.8204">
        <ele>1557.2</ele>
        <time>2022-10-28T13:44:43Z</time>
      </trkpt>
      <trkpt lat="44.41577" lon="3.82041">
        <ele>1557</ele>
        <time>2022-10-28T13:44:44Z</time>
      </trkpt>
      <trkpt lat="44.41578" lon="3.82042">
        <ele>1557</ele>
        <time>2022-10-28T13:44:45Z</time>
      </trkpt>
      <trkpt lat="44.41578" lon="3.82042">
        <ele>1557</ele>
        <time>2022-10-28T13:44:46Z</time>
      </trkpt>
      <trkpt lat="44.41578" lon="3.82042">
        <ele>1556.8</ele>
        <time>2022-10-28T13:44:47Z</time>
      </trkpt>
      <trkpt lat="44.41578" lon="3.82042">
        <ele>1556.8</ele>
        <time>2022-10-28T13:44:48Z</time>
      </trkpt>
      <trkpt lat="44.41566" lon="3.82026">
        <ele>1556.8</ele>
        <time>2022-10-28T13:47:42Z</time>
      </trkpt>
      <trkpt lat="44.41564" lon="3.82024">
        <ele>1556.8</ele>
        <time>2022-10-28T13:47:43Z</time>
      </trkpt>
      <trkpt lat="44.41563" lon="3.82022">
        <ele>1556.8</ele>
        <time>2022-10-28T13:47:44Z</time>
      </trkpt>
      <trkpt lat="44.41562" lon="3.82019">
        <ele>1556.6</ele>
        <time>2022-10-28T13:47:45Z</time>
      </trkpt>
      <trkpt lat="44.4156" lon="3.82017">
        <ele>1556.2</ele>
        <time>2022-10-28T13:47:46Z</time>
      </trkpt>
      <trkpt lat="44.41559" lon="3.82016">
        <ele>1556.2</ele>
        <time>2022-10-28T13:47:47Z</time>
      </trkpt>
      <trkpt lat="44.41558" lon="3.82014">
        <ele>1555.8</ele>
        <time>2022-10-28T13:47:48Z</time>
      </trkpt>
      <trkpt lat="44.41557" lon="3.82013">
        <ele>1555.6</ele>
        <time>2022-10-28T13:47:49Z</time>
      </trkpt>
      <trkpt lat="44.41555" lon="3.82011">
        <ele>1555.2</ele>
        <time>2022-10-28T13:47:50Z</time>
      </trkpt>
      <trkpt lat="44.41553" lon="3.8201">
        <ele>1554.8</ele>
        <time>2022-10-28T13:47:51Z</time>
      </trkpt>
      <trkpt lat="44.41551" lon="3.82008">
        <ele>1554.6</ele>
        <time>2022-10-28T13:47:52Z</time>
      </trkpt>
      <trkpt lat="44.41549" lon="3.82006">
        <ele>1554.6</ele>
        <time>2022-10-28T13:47:53Z</time>
      </trkpt>
      <trkpt lat="44.41546" lon="3.82004">
        <ele>1554.4</ele>
        <time>2022-10-28T13:47:54Z</time>
      </trkpt>
      <trkpt lat="44.41544" lon="3.82001">
        <ele>1554.2</ele>
        <time>2022-10-28T13:47:55Z</time>
      </trkpt>
      <trkpt lat="44.41542" lon="3.81999">
        <ele>1554</ele>
        <time>2022-10-28T13:47:56Z</time>
      </trkpt>
      <trkpt lat="44.4154" lon="3.81998">
        <ele>1553.8</ele>
        <time>2022-10-28T13:47:57Z</time>
      </trkpt>
      <trkpt lat="44.41538" lon="3.81996">
        <ele>1553.4</ele>
        <time>2022-10-28T13:47:58Z</time>
      </trkpt>
      <trkpt lat="44.41537" lon="3.81995">
        <ele>1553.2</ele>
        <time>2022-10-28T13:47:59Z</time>
      </trkpt>
      <trkpt lat="44.41536" lon="3.81994">
        <ele>1553</ele>
        <time>2022-10-28T13:48:00Z</time>
      </trkpt>
      <trkpt lat="44.41535" lon="3.81992">
        <ele>1553</ele>
        <time>2022-10-28T13:48:01Z</time>
      </trkpt>
      <trkpt lat="44.41533" lon="3.81991">
        <ele>1552.8</ele>
        <time>2022-10-28T13:48:02Z</time>
      </trkpt>
      <trkpt lat="44.41531" lon="3.8199">
        <ele>1552.4</ele>
        <time>2022-10-28T13:48:03Z</time>
      </trkpt>
      <trkpt lat="44.41528" lon="3.81988">
        <ele>1552.4</ele>
        <time>2022-10-28T13:48:04Z</time>
      </trkpt>
      <trkpt lat="44.41526" lon="3.81987">
        <ele>1552.2</ele>
        <time>2022-10-28T13:48:05Z</time>
      </trkpt>
      <trkpt lat="44.41523" lon="3.81985">
        <ele>1552</ele>
        <time>2022-10-28T13:48:06Z</time>
      </trkpt>
      <trkpt lat="44.4152" lon="3.81983">
        <ele>1551.8</ele>
        <time>2022-10-28T13:48:07Z</time>
      </trkpt>
      <trkpt lat="44.41517" lon="3.81982">
        <ele>1551.6</ele>
        <time>2022-10-28T13:48:08Z</time>
      </trkpt>
      <trkpt lat="44.41514" lon="3.8198">
        <ele>1551.4</ele>
        <time>2022-10-28T13:48:09Z</time>
      </trkpt>
      <trkpt lat="44.41512" lon="3.81979">
        <ele>1551.2</ele>
        <time>2022-10-28T13:48:10Z</time>
      </trkpt>
      <trkpt lat="44.41509" lon="3.81978">
        <ele>1551</ele>
        <time>2022-10-28T13:48:11Z</time>
      </trkpt>
      <trkpt lat="44.41507" lon="3.81976">
        <ele>1550.8</ele>
        <time>2022-10-28T13:48:12Z</time>
      </trkpt>
      <trkpt lat="44.41504" lon="3.81975">
        <ele>1550.6</ele>
        <time>2022-10-28T13:48:13Z</time>
      </trkpt>
      <trkpt lat="44.41503" lon="3.81975">
        <ele>1550.6</ele>
        <time>2022-10-28T13:48:14Z</time>
      </trkpt>
      <trkpt lat="44.41501" lon="3.81975">
        <ele>1550.6</ele>
        <time>2022-10-28T13:48:15Z</time>
      </trkpt>
      <trkpt lat="44.41499" lon="3.81974">
        <ele>1550.4</ele>
        <time>2022-10-28T13:48:16Z</time>
      </trkpt>
      <trkpt lat="44.41496" lon="3.81974">
        <ele>1550.2</ele>
        <time>2022-10-28T13:48:17Z</time>
      </trkpt>
      <trkpt lat="44.41494" lon="3.81973">
        <ele>1550</ele>
        <time>2022-10-28T13:48:18Z</time>
      </trkpt>
      <trkpt lat="44.41492" lon="3.81972">
        <ele>1550</ele>
        <time>2022-10-28T13:48:19Z</time>
      </trkpt>
      <trkpt lat="44.4149" lon="3.81971">
        <ele>1549.8</ele>
        <time>2022-10-28T13:48:20Z</time>
      </trkpt>
      <trkpt lat="44.41488" lon="3.8197">
        <ele>1549.6</ele>
        <time>2022-10-28T13:48:21Z</time>
      </trkpt>
      <trkpt lat="44.41486" lon="3.8197">
        <ele>1549.6</ele>
        <time>2022-10-28T13:48:22Z</time>
      </trkpt>
      <trkpt lat="44.41484" lon="3.81969">
        <ele>1549.4</ele>
        <time>2022-10-28T13:48:23Z</time>
      </trkpt>
      <trkpt lat="44.41482" lon="3.81967">
        <ele>1549.4</ele>
        <time>2022-10-28T13:48:24Z</time>
      </trkpt>
      <trkpt lat="44.4148" lon="3.81966">
        <ele>1549.2</ele>
        <time>2022-10-28T13:48:25Z</time>
      </trkpt>
      <trkpt lat="44.41478" lon="3.81965">
        <ele>1549.2</ele>
        <time>2022-10-28T13:48:26Z</time>
      </trkpt>
      <trkpt lat="44.41475" lon="3.81964">
        <ele>1549</ele>
        <time>2022-10-28T13:48:27Z</time>
      </trkpt>
      <trkpt lat="44.41473" lon="3.81962">
        <ele>1548.8</ele>
        <time>2022-10-28T13:48:28Z</time>
      </trkpt>
      <trkpt lat="44.41471" lon="3.81961">
        <ele>1548.6</ele>
        <time>2022-10-28T13:48:29Z</time>
      </trkpt>
      <trkpt lat="44.41468" lon="3.8196">
        <ele>1548.6</ele>
        <time>2022-10-28T13:48:30Z</time>
      </trkpt>
      <trkpt lat="44.41466" lon="3.81959">
        <ele>1548.4</ele>
        <time>2022-10-28T13:48:31Z</time>
      </trkpt>
      <trkpt lat="44.41463" lon="3.81958">
        <ele>1548.4</ele>
        <time>2022-10-28T13:48:32Z</time>
      </trkpt>
      <trkpt lat="44.41461" lon="3.81957">
        <ele>1548.4</ele>
        <time>2022-10-28T13:48:33Z</time>
      </trkpt>
      <trkpt lat="44.41459" lon="3.81955">
        <ele>1548.4</ele>
        <time>2022-10-28T13:48:34Z</time>
      </trkpt>
      <trkpt lat="44.41458" lon="3.81954">
        <ele>1548.2</ele>
        <time>2022-10-28T13:48:35Z</time>
      </trkpt>
      <trkpt lat="44.41456" lon="3.81953">
        <ele>1548</ele>
        <time>2022-10-28T13:48:36Z</time>
      </trkpt>
      <trkpt lat="44.41454" lon="3.81953">
        <ele>1548</ele>
        <time>2022-10-28T13:48:37Z</time>
      </trkpt>
      <trkpt lat="44.41452" lon="3.81952">
        <ele>1548.2</ele>
        <time>2022-10-28T13:48:38Z</time>
      </trkpt>
      <trkpt lat="44.4145" lon="3.81951">
        <ele>1548.2</ele>
        <time>2022-10-28T13:48:39Z</time>
      </trkpt>
      <trkpt lat="44.41447" lon="3.81951">
        <ele>1548.2</ele>
        <time>2022-10-28T13:48:40Z</time>
      </trkpt>
      <trkpt lat="44.41445" lon="3.8195">
        <ele>1548</ele>
        <time>2022-10-28T13:48:41Z</time>
      </trkpt>
      <trkpt lat="44.41442" lon="3.8195">
        <ele>1548</ele>
        <time>2022-10-28T13:48:42Z</time>
      </trkpt>
      <trkpt lat="44.4144" lon="3.81949">
        <ele>1547.8</ele>
        <time>2022-10-28T13:48:43Z</time>
      </trkpt>
      <trkpt lat="44.41437" lon="3.81949">
        <ele>1547.8</ele>
        <time>2022-10-28T13:48:44Z</time>
      </trkpt>
      <trkpt lat="44.41435" lon="3.81948">
        <ele>1547.8</ele>
        <time>2022-10-28T13:48:45Z</time>
      </trkpt>
      <trkpt lat="44.41433" lon="3.81947">
        <ele>1547.6</ele>
        <time>2022-10-28T13:48:46Z</time>
      </trkpt>
      <trkpt lat="44.41431" lon="3.81947">
        <ele>1547.6</ele>
        <time>2022-10-28T13:48:47Z</time>
      </trkpt>
      <trkpt lat="44.41429" lon="3.81947">
        <ele>1547.4</ele>
        <time>2022-10-28T13:48:48Z</time>
      </trkpt>
      <trkpt lat="44.41427" lon="3.81946">
        <ele>1547.4</ele>
        <time>2022-10-28T13:48:49Z</time>
      </trkpt>
      <trkpt lat="44.41426" lon="3.81946">
        <ele>1547.2</ele>
        <time>2022-10-28T13:48:50Z</time>
      </trkpt>
      <trkpt lat="44.41424" lon="3.81946">
        <ele>1547.2</ele>
        <time>2022-10-28T13:48:51Z</time>
      </trkpt>
      <trkpt lat="44.41423" lon="3.81946">
        <ele>1547</ele>
        <time>2022-10-28T13:48:52Z</time>
      </trkpt>
      <trkpt lat="44.41423" lon="3.81946">
        <ele>1547</ele>
        <time>2022-10-28T13:48:53Z</time>
      </trkpt>
      <trkpt lat="44.4142" lon="3.81949">
        <ele>1546.8</ele>
        <time>2022-10-28T13:53:15Z</time>
      </trkpt>
      <trkpt lat="44.41419" lon="3.8195">
        <ele>1546.8</ele>
        <time>2022-10-28T13:53:16Z</time>
      </trkpt>
      <trkpt lat="44.41418" lon="3.8195">
        <ele>1546.6</ele>
        <time>2022-10-28T13:53:17Z</time>
      </trkpt>
      <trkpt lat="44.41417" lon="3.8195">
        <ele>1546.6</ele>
        <time>2022-10-28T13:53:18Z</time>
      </trkpt>
      <trkpt lat="44.41417" lon="3.8195">
        <ele>1546.4</ele>
        <time>2022-10-28T13:53:19Z</time>
      </trkpt>
      <trkpt lat="44.41416" lon="3.81951">
        <ele>1546.4</ele>
        <time>2022-10-28T13:53:20Z</time>
      </trkpt>
      <trkpt lat="44.41416" lon="3.81951">
        <ele>1546.2</ele>
        <time>2022-10-28T13:53:21Z</time>
      </trkpt>
      <trkpt lat="44.41415" lon="3.8195">
        <ele>1546.4</ele>
        <time>2022-10-28T13:53:22Z</time>
      </trkpt>
      <trkpt lat="44.41415" lon="3.8195">
        <ele>1546.4</ele>
        <time>2022-10-28T13:53:23Z</time>
      </trkpt>
      <trkpt lat="44.41414" lon="3.8195">
        <ele>1546.4</ele>
        <time>2022-10-28T13:53:24Z</time>
      </trkpt>
      <trkpt lat="44.41413" lon="3.8195">
        <ele>1546.6</ele>
        <time>2022-10-28T13:53:25Z</time>
      </trkpt>
      <trkpt lat="44.41412" lon="3.8195">
        <ele>1546.6</ele>
        <time>2022-10-28T13:53:26Z</time>
      </trkpt>
      <trkpt lat="44.41411" lon="3.8195">
        <ele>1546.6</ele>
        <time>2022-10-28T13:53:27Z</time>
      </trkpt>
      <trkpt lat="44.4141" lon="3.81949">
        <ele>1546.6</ele>
        <time>2022-10-28T13:53:28Z</time>
      </trkpt>
      <trkpt lat="44.4141" lon="3.81949">
        <ele>1546.6</ele>
        <time>2022-10-28T13:53:29Z</time>
      </trkpt>
      <trkpt lat="44.4141" lon="3.81949">
        <ele>1546.6</ele>
        <time>2022-10-28T13:53:30Z</time>
      </trkpt>
      <trkpt lat="44.4141" lon="3.81949">
        <ele>1546.8</ele>
        <time>2022-10-28T13:53:31Z</time>
      </trkpt>
      <trkpt lat="44.41411" lon="3.81948">
        <ele>1546.8</ele>
        <time>2022-10-28T13:53:32Z</time>
      </trkpt>
      <trkpt lat="44.41411" lon="3.81948">
        <ele>1546.8</ele>
        <time>2022-10-28T13:53:33Z</time>
      </trkpt>
      <trkpt lat="44.41411" lon="3.81948">
        <ele>1546.8</ele>
        <time>2022-10-28T13:53:34Z</time>
      </trkpt>
      <trkpt lat="44.41411" lon="3.81948">
        <ele>1546.8</ele>
        <time>2022-10-28T13:53:35Z</time>
      </trkpt>
      <trkpt lat="44.41412" lon="3.81947">
        <ele>1546.8</ele>
        <time>2022-10-28T13:53:36Z</time>
      </trkpt>
      <trkpt lat="44.41413" lon="3.81946">
        <ele>1546.8</ele>
        <time>2022-10-28T13:53:37Z</time>
      </trkpt>
      <trkpt lat="44.41414" lon="3.81944">
        <ele>1546.8</ele>
        <time>2022-10-28T13:53:38Z</time>
      </trkpt>
      <trkpt lat="44.41415" lon="3.81942">
        <ele>1546.8</ele>
        <time>2022-10-28T13:53:39Z</time>
      </trkpt>
      <trkpt lat="44.41417" lon="3.8194">
        <ele>1546.8</ele>
        <time>2022-10-28T13:53:40Z</time>
      </trkpt>
      <trkpt lat="44.41418" lon="3.81938">
        <ele>1546.8</ele>
        <time>2022-10-28T13:53:41Z</time>
      </trkpt>
      <trkpt lat="44.41419" lon="3.81936">
        <ele>1547</ele>
        <time>2022-10-28T13:53:42Z</time>
      </trkpt>
      <trkpt lat="44.41421" lon="3.81934">
        <ele>1547</ele>
        <time>2022-10-28T13:53:43Z</time>
      </trkpt>
      <trkpt lat="44.41423" lon="3.81932">
        <ele>1547</ele>
        <time>2022-10-28T13:53:44Z</time>
      </trkpt>
      <trkpt lat="44.41424" lon="3.8193">
        <ele>1547</ele>
        <time>2022-10-28T13:53:45Z</time>
      </trkpt>
      <trkpt lat="44.41426" lon="3.81928">
        <ele>1547</ele>
        <time>2022-10-28T13:53:46Z</time>
      </trkpt>
      <trkpt lat="44.41428" lon="3.81926">
        <ele>1547.2</ele>
        <time>2022-10-28T13:53:47Z</time>
      </trkpt>
      <trkpt lat="44.41429" lon="3.81923">
        <ele>1547.2</ele>
        <time>2022-10-28T13:53:48Z</time>
      </trkpt>
      <trkpt lat="44.41431" lon="3.81921">
        <ele>1547.2</ele>
        <time>2022-10-28T13:53:49Z</time>
      </trkpt>
      <trkpt lat="44.41432" lon="3.81919">
        <ele>1547.2</ele>
        <time>2022-10-28T13:53:50Z</time>
      </trkpt>
      <trkpt lat="44.41433" lon="3.81916">
        <ele>1547.2</ele>
        <time>2022-10-28T13:53:51Z</time>
      </trkpt>
      <trkpt lat="44.41435" lon="3.81914">
        <ele>1547.2</ele>
        <time>2022-10-28T13:53:52Z</time>
      </trkpt>
      <trkpt lat="44.41436" lon="3.81912">
        <ele>1547.4</ele>
        <time>2022-10-28T13:53:53Z</time>
      </trkpt>
      <trkpt lat="44.41438" lon="3.8191">
        <ele>1547.4</ele>
        <time>2022-10-28T13:53:54Z</time>
      </trkpt>
      <trkpt lat="44.41439" lon="3.81908">
        <ele>1547.4</ele>
        <time>2022-10-28T13:53:55Z</time>
      </trkpt>
      <trkpt lat="44.4144" lon="3.81907">
        <ele>1547.4</ele>
        <time>2022-10-28T13:53:56Z</time>
      </trkpt>
      <trkpt lat="44.41441" lon="3.81906">
        <ele>1547.6</ele>
        <time>2022-10-28T13:53:57Z</time>
      </trkpt>
      <trkpt lat="44.41441" lon="3.81906">
        <ele>1547.4</ele>
        <time>2022-10-28T13:53:58Z</time>
      </trkpt>
      <trkpt lat="44.41441" lon="3.81906">
        <ele>1547.4</ele>
        <time>2022-10-28T13:53:59Z</time>
      </trkpt>
      <trkpt lat="44.41441" lon="3.81906">
        <ele>1547.6</ele>
        <time>2022-10-28T13:54:00Z</time>
      </trkpt>
      <trkpt lat="44.4144" lon="3.81906">
        <ele>1547.6</ele>
        <time>2022-10-28T13:54:01Z</time>
      </trkpt>
      <trkpt lat="44.4144" lon="3.81906">
        <ele>1547.6</ele>
        <time>2022-10-28T13:54:02Z</time>
      </trkpt>
      <trkpt lat="44.41438" lon="3.81909">
        <ele>1547.6</ele>
        <time>2022-10-28T13:54:05Z</time>
      </trkpt>
      <trkpt lat="44.41437" lon="3.81911">
        <ele>1547.6</ele>
        <time>2022-10-28T13:54:06Z</time>
      </trkpt>
      <trkpt lat="44.41435" lon="3.81913">
        <ele>1547.6</ele>
        <time>2022-10-28T13:54:07Z</time>
      </trkpt>
      <trkpt lat="44.41434" lon="3.81914">
        <ele>1547.6</ele>
        <time>2022-10-28T13:54:08Z</time>
      </trkpt>
      <trkpt lat="44.41434" lon="3.81916">
        <ele>1547.4</ele>
        <time>2022-10-28T13:54:09Z</time>
      </trkpt>
      <trkpt lat="44.41433" lon="3.81918">
        <ele>1547.4</ele>
        <time>2022-10-28T13:54:10Z</time>
      </trkpt>
      <trkpt lat="44.41432" lon="3.8192">
        <ele>1547.4</ele>
        <time>2022-10-28T13:54:11Z</time>
      </trkpt>
      <trkpt lat="44.4143" lon="3.81921">
        <ele>1547.4</ele>
        <time>2022-10-28T13:54:12Z</time>
      </trkpt>
      <trkpt lat="44.41429" lon="3.81923">
        <ele>1547.4</ele>
        <time>2022-10-28T13:54:13Z</time>
      </trkpt>
      <trkpt lat="44.41428" lon="3.81925">
        <ele>1547.4</ele>
        <time>2022-10-28T13:54:14Z</time>
      </trkpt>
      <trkpt lat="44.41427" lon="3.81926">
        <ele>1547.2</ele>
        <time>2022-10-28T13:54:15Z</time>
      </trkpt>
      <trkpt lat="44.41426" lon="3.81928">
        <ele>1547.2</ele>
        <time>2022-10-28T13:54:16Z</time>
      </trkpt>
      <trkpt lat="44.41425" lon="3.81929">
        <ele>1547.2</ele>
        <time>2022-10-28T13:54:17Z</time>
      </trkpt>
      <trkpt lat="44.41425" lon="3.81929">
        <ele>1547.2</ele>
        <time>2022-10-28T13:54:18Z</time>
      </trkpt>
      <trkpt lat="44.41425" lon="3.81929">
        <ele>1547.2</ele>
        <time>2022-10-28T13:54:19Z</time>
      </trkpt>
      <trkpt lat="44.41425" lon="3.81929">
        <ele>1547</ele>
        <time>2022-10-28T13:54:20Z</time>
      </trkpt>
      <trkpt lat="44.41425" lon="3.81929">
        <ele>1547</ele>
        <time>2022-10-28T13:54:21Z</time>
      </trkpt>
      <trkpt lat="44.41424" lon="3.8193">
        <ele>1547</ele>
        <time>2022-10-28T13:54:22Z</time>
      </trkpt>
      <trkpt lat="44.41423" lon="3.81931">
        <ele>1547</ele>
        <time>2022-10-28T13:54:23Z</time>
      </trkpt>
      <trkpt lat="44.41423" lon="3.81931">
        <ele>1547</ele>
        <time>2022-10-28T13:54:24Z</time>
      </trkpt>
      <trkpt lat="44.41423" lon="3.81931">
        <ele>1547</ele>
        <time>2022-10-28T13:54:25Z</time>
      </trkpt>
      <trkpt lat="44.41424" lon="3.81931">
        <ele>1547</ele>
        <time>2022-10-28T13:54:26Z</time>
      </trkpt>
      <trkpt lat="44.41424" lon="3.81931">
        <ele>1547</ele>
        <time>2022-10-28T13:54:27Z</time>
      </trkpt>
      <trkpt lat="44.41424" lon="3.8193">
        <ele>1547</ele>
        <time>2022-10-28T13:54:28Z</time>
      </trkpt>
      <trkpt lat="44.41424" lon="3.8193">
        <ele>1547</ele>
        <time>2022-10-28T13:54:29Z</time>
      </trkpt>
      <trkpt lat="44.41424" lon="3.81929">
        <ele>1547</ele>
        <time>2022-10-28T13:54:30Z</time>
      </trkpt>
      <trkpt lat="44.41425" lon="3.81928">
        <ele>1547</ele>
        <time>2022-10-28T13:54:31Z</time>
      </trkpt>
      <trkpt lat="44.41426" lon="3.81927">
        <ele>1547</ele>
        <time>2022-10-28T13:54:32Z</time>
      </trkpt>
      <trkpt lat="44.41427" lon="3.81925">
        <ele>1547.2</ele>
        <time>2022-10-28T13:54:33Z</time>
      </trkpt>
      <trkpt lat="44.41429" lon="3.81924">
        <ele>1547.2</ele>
        <time>2022-10-28T13:54:34Z</time>
      </trkpt>
      <trkpt lat="44.4143" lon="3.81923">
        <ele>1547.2</ele>
        <time>2022-10-28T13:54:35Z</time>
      </trkpt>
      <trkpt lat="44.4143" lon="3.81922">
        <ele>1547.2</ele>
        <time>2022-10-28T13:54:36Z</time>
      </trkpt>
      <trkpt lat="44.4143" lon="3.81922">
        <ele>1547.2</ele>
        <time>2022-10-28T13:54:37Z</time>
      </trkpt>
      <trkpt lat="44.4143" lon="3.81922">
        <ele>1547.2</ele>
        <time>2022-10-28T13:54:38Z</time>
      </trkpt>
      <trkpt lat="44.4143" lon="3.81922">
        <ele>1547.2</ele>
        <time>2022-10-28T13:54:39Z</time>
      </trkpt>
      <trkpt lat="44.4143" lon="3.81922">
        <ele>1547.2</ele>
        <time>2022-10-28T13:54:40Z</time>
      </trkpt>
      <trkpt lat="44.41431" lon="3.81921">
        <ele>1547.2</ele>
        <time>2022-10-28T13:54:48Z</time>
      </trkpt>
      <trkpt lat="44.41432" lon="3.81919">
        <ele>1547.2</ele>
        <time>2022-10-28T13:54:49Z</time>
      </trkpt>
      <trkpt lat="44.41434" lon="3.81916">
        <ele>1547.2</ele>
        <time>2022-10-28T13:54:50Z</time>
      </trkpt>
      <trkpt lat="44.41435" lon="3.81913">
        <ele>1547.2</ele>
        <time>2022-10-28T13:54:51Z</time>
      </trkpt>
      <trkpt lat="44.41437" lon="3.81911">
        <ele>1547.2</ele>
        <time>2022-10-28T13:54:52Z</time>
      </trkpt>
      <trkpt lat="44.41438" lon="3.81909">
        <ele>1547.4</ele>
        <time>2022-10-28T13:54:53Z</time>
      </trkpt>
      <trkpt lat="44.4144" lon="3.81907">
        <ele>1547.4</ele>
        <time>2022-10-28T13:54:54Z</time>
      </trkpt>
      <trkpt lat="44.41442" lon="3.81906">
        <ele>1547.4</ele>
        <time>2022-10-28T13:54:55Z</time>
      </trkpt>
      <trkpt lat="44.41443" lon="3.81903">
        <ele>1547.4</ele>
        <time>2022-10-28T13:54:56Z</time>
      </trkpt>
      <trkpt lat="44.41445" lon="3.81901">
        <ele>1547.4</ele>
        <time>2022-10-28T13:54:57Z</time>
      </trkpt>
      <trkpt lat="44.41447" lon="3.81899">
        <ele>1547.4</ele>
        <time>2022-10-28T13:54:58Z</time>
      </trkpt>
      <trkpt lat="44.41449" lon="3.81897">
        <ele>1547.4</ele>
        <time>2022-10-28T13:54:59Z</time>
      </trkpt>
      <trkpt lat="44.41451" lon="3.81895">
        <ele>1547.4</ele>
        <time>2022-10-28T13:55:00Z</time>
      </trkpt>
      <trkpt lat="44.41453" lon="3.81893">
        <ele>1547.4</ele>
        <time>2022-10-28T13:55:01Z</time>
      </trkpt>
      <trkpt lat="44.41455" lon="3.81891">
        <ele>1547.4</ele>
        <time>2022-10-28T13:55:02Z</time>
      </trkpt>
      <trkpt lat="44.41457" lon="3.81888">
        <ele>1547.4</ele>
        <time>2022-10-28T13:55:03Z</time>
      </trkpt>
      <trkpt lat="44.41458" lon="3.81886">
        <ele>1547.4</ele>
        <time>2022-10-28T13:55:04Z</time>
      </trkpt>
      <trkpt lat="44.4146" lon="3.81884">
        <ele>1547.4</ele>
        <time>2022-10-28T13:55:05Z</time>
      </trkpt>
      <trkpt lat="44.41463" lon="3.81883">
        <ele>1547.4</ele>
        <time>2022-10-28T13:55:06Z</time>
      </trkpt>
      <trkpt lat="44.41464" lon="3.81881">
        <ele>1547.4</ele>
        <time>2022-10-28T13:55:07Z</time>
      </trkpt>
      <trkpt lat="44.41466" lon="3.81879">
        <ele>1547.4</ele>
        <time>2022-10-28T13:55:08Z</time>
      </trkpt>
      <trkpt lat="44.41468" lon="3.81877">
        <ele>1547.4</ele>
        <time>2022-10-28T13:55:09Z</time>
      </trkpt>
      <trkpt lat="44.41469" lon="3.81875">
        <ele>1547.4</ele>
        <time>2022-10-28T13:55:10Z</time>
      </trkpt>
      <trkpt lat="44.41471" lon="3.81873">
        <ele>1547.4</ele>
        <time>2022-10-28T13:55:11Z</time>
      </trkpt>
      <trkpt lat="44.41473" lon="3.81871">
        <ele>1547.4</ele>
        <time>2022-10-28T13:55:12Z</time>
      </trkpt>
      <trkpt lat="44.41475" lon="3.81869">
        <ele>1547.4</ele>
        <time>2022-10-28T13:55:13Z</time>
      </trkpt>
      <trkpt lat="44.41477" lon="3.81867">
        <ele>1547.4</ele>
        <time>2022-10-28T13:55:14Z</time>
      </trkpt>
      <trkpt lat="44.41479" lon="3.81864">
        <ele>1547.4</ele>
        <time>2022-10-28T13:55:15Z</time>
      </trkpt>
      <trkpt lat="44.4148" lon="3.81862">
        <ele>1547.4</ele>
        <time>2022-10-28T13:55:16Z</time>
      </trkpt>
      <trkpt lat="44.41482" lon="3.81859">
        <ele>1547.4</ele>
        <time>2022-10-28T13:55:17Z</time>
      </trkpt>
      <trkpt lat="44.41483" lon="3.81857">
        <ele>1547.4</ele>
        <time>2022-10-28T13:55:18Z</time>
      </trkpt>
      <trkpt lat="44.41484" lon="3.81854">
        <ele>1547.4</ele>
        <time>2022-10-28T13:55:19Z</time>
      </trkpt>
      <trkpt lat="44.41485" lon="3.81852">
        <ele>1547.4</ele>
        <time>2022-10-28T13:55:20Z</time>
      </trkpt>
      <trkpt lat="44.41486" lon="3.81848">
        <ele>1547.4</ele>
        <time>2022-10-28T13:55:21Z</time>
      </trkpt>
      <trkpt lat="44.41486" lon="3.81845">
        <ele>1547.4</ele>
        <time>2022-10-28T13:55:22Z</time>
      </trkpt>
      <trkpt lat="44.41487" lon="3.81842">
        <ele>1547.4</ele>
        <time>2022-10-28T13:55:23Z</time>
      </trkpt>
      <trkpt lat="44.41488" lon="3.8184">
        <ele>1547.4</ele>
        <time>2022-10-28T13:55:24Z</time>
      </trkpt>
      <trkpt lat="44.41489" lon="3.81837">
        <ele>1547.6</ele>
        <time>2022-10-28T13:55:25Z</time>
      </trkpt>
      <trkpt lat="44.41489" lon="3.81834">
        <ele>1547.6</ele>
        <time>2022-10-28T13:55:26Z</time>
      </trkpt>
      <trkpt lat="44.4149" lon="3.81831">
        <ele>1547.6</ele>
        <time>2022-10-28T13:55:27Z</time>
      </trkpt>
      <trkpt lat="44.41491" lon="3.81829">
        <ele>1547.4</ele>
        <time>2022-10-28T13:55:28Z</time>
      </trkpt>
      <trkpt lat="44.41492" lon="3.81827">
        <ele>1547.6</ele>
        <time>2022-10-28T13:55:29Z</time>
      </trkpt>
      <trkpt lat="44.41493" lon="3.81824">
        <ele>1547.6</ele>
        <time>2022-10-28T13:55:30Z</time>
      </trkpt>
      <trkpt lat="44.41494" lon="3.81823">
        <ele>1547.6</ele>
        <time>2022-10-28T13:55:31Z</time>
      </trkpt>
      <trkpt lat="44.41494" lon="3.81821">
        <ele>1547.6</ele>
        <time>2022-10-28T13:55:32Z</time>
      </trkpt>
      <trkpt lat="44.41494" lon="3.8182">
        <ele>1547.6</ele>
        <time>2022-10-28T13:55:33Z</time>
      </trkpt>
      <trkpt lat="44.41494" lon="3.81819">
        <ele>1547.6</ele>
        <time>2022-10-28T13:55:34Z</time>
      </trkpt>
      <trkpt lat="44.41494" lon="3.81816">
        <ele>1547.8</ele>
        <time>2022-10-28T13:55:35Z</time>
      </trkpt>
      <trkpt lat="44.41495" lon="3.81814">
        <ele>1547.8</ele>
        <time>2022-10-28T13:55:36Z</time>
      </trkpt>
      <trkpt lat="44.41496" lon="3.81812">
        <ele>1547.8</ele>
        <time>2022-10-28T13:55:37Z</time>
      </trkpt>
      <trkpt lat="44.41497" lon="3.8181">
        <ele>1547.8</ele>
        <time>2022-10-28T13:55:38Z</time>
      </trkpt>
      <trkpt lat="44.41498" lon="3.81808">
        <ele>1547.8</ele>
        <time>2022-10-28T13:55:39Z</time>
      </trkpt>
      <trkpt lat="44.41499" lon="3.81805">
        <ele>1547.8</ele>
        <time>2022-10-28T13:55:40Z</time>
      </trkpt>
      <trkpt lat="44.41501" lon="3.81803">
        <ele>1547.8</ele>
        <time>2022-10-28T13:55:41Z</time>
      </trkpt>
      <trkpt lat="44.41502" lon="3.818">
        <ele>1547.8</ele>
        <time>2022-10-28T13:55:42Z</time>
      </trkpt>
      <trkpt lat="44.41504" lon="3.81798">
        <ele>1547.8</ele>
        <time>2022-10-28T13:55:43Z</time>
      </trkpt>
      <trkpt lat="44.41505" lon="3.81795">
        <ele>1547.8</ele>
        <time>2022-10-28T13:55:44Z</time>
      </trkpt>
      <trkpt lat="44.41506" lon="3.81792">
        <ele>1547.8</ele>
        <time>2022-10-28T13:55:45Z</time>
      </trkpt>
      <trkpt lat="44.41507" lon="3.81789">
        <ele>1547.8</ele>
        <time>2022-10-28T13:55:46Z</time>
      </trkpt>
      <trkpt lat="44.41508" lon="3.81786">
        <ele>1547.8</ele>
        <time>2022-10-28T13:55:47Z</time>
      </trkpt>
      <trkpt lat="44.41509" lon="3.81783">
        <ele>1547.8</ele>
        <time>2022-10-28T13:55:48Z</time>
      </trkpt>
      <trkpt lat="44.4151" lon="3.8178">
        <ele>1547.8</ele>
        <time>2022-10-28T13:55:49Z</time>
      </trkpt>
      <trkpt lat="44.41511" lon="3.81778">
        <ele>1547.8</ele>
        <time>2022-10-28T13:55:50Z</time>
      </trkpt>
      <trkpt lat="44.41511" lon="3.81775">
        <ele>1547.8</ele>
        <time>2022-10-28T13:55:51Z</time>
      </trkpt>
      <trkpt lat="44.41512" lon="3.81772">
        <ele>1548</ele>
        <time>2022-10-28T13:55:52Z</time>
      </trkpt>
      <trkpt lat="44.41512" lon="3.81769">
        <ele>1548</ele>
        <time>2022-10-28T13:55:53Z</time>
      </trkpt>
      <trkpt lat="44.41512" lon="3.81766">
        <ele>1548</ele>
        <time>2022-10-28T13:55:54Z</time>
      </trkpt>
      <trkpt lat="44.41512" lon="3.81763">
        <ele>1548</ele>
        <time>2022-10-28T13:55:55Z</time>
      </trkpt>
      <trkpt lat="44.41512" lon="3.8176">
        <ele>1548.2</ele>
        <time>2022-10-28T13:55:56Z</time>
      </trkpt>
      <trkpt lat="44.41512" lon="3.81757">
        <ele>1548.2</ele>
        <time>2022-10-28T13:55:57Z</time>
      </trkpt>
      <trkpt lat="44.41512" lon="3.81753">
        <ele>1548.2</ele>
        <time>2022-10-28T13:55:58Z</time>
      </trkpt>
      <trkpt lat="44.41512" lon="3.8175">
        <ele>1548.2</ele>
        <time>2022-10-28T13:55:59Z</time>
      </trkpt>
      <trkpt lat="44.41511" lon="3.81747">
        <ele>1548.2</ele>
        <time>2022-10-28T13:56:00Z</time>
      </trkpt>
      <trkpt lat="44.41511" lon="3.81744">
        <ele>1548.2</ele>
        <time>2022-10-28T13:56:01Z</time>
      </trkpt>
      <trkpt lat="44.41511" lon="3.8174">
        <ele>1548.4</ele>
        <time>2022-10-28T13:56:02Z</time>
      </trkpt>
      <trkpt lat="44.4151" lon="3.81737">
        <ele>1548.4</ele>
        <time>2022-10-28T13:56:03Z</time>
      </trkpt>
      <trkpt lat="44.4151" lon="3.81734">
        <ele>1548.4</ele>
        <time>2022-10-28T13:56:04Z</time>
      </trkpt>
      <trkpt lat="44.4151" lon="3.81731">
        <ele>1548.4</ele>
        <time>2022-10-28T13:56:05Z</time>
      </trkpt>
      <trkpt lat="44.4151" lon="3.81728">
        <ele>1548.4</ele>
        <time>2022-10-28T13:56:06Z</time>
      </trkpt>
      <trkpt lat="44.41509" lon="3.81725">
        <ele>1548.4</ele>
        <time>2022-10-28T13:56:07Z</time>
      </trkpt>
      <trkpt lat="44.41508" lon="3.81723">
        <ele>1548.4</ele>
        <time>2022-10-28T13:56:08Z</time>
      </trkpt>
      <trkpt lat="44.41508" lon="3.8172">
        <ele>1548.4</ele>
        <time>2022-10-28T13:56:09Z</time>
      </trkpt>
      <trkpt lat="44.41507" lon="3.81717">
        <ele>1548.6</ele>
        <time>2022-10-28T13:56:10Z</time>
      </trkpt>
      <trkpt lat="44.41507" lon="3.81714">
        <ele>1548.6</ele>
        <time>2022-10-28T13:56:11Z</time>
      </trkpt>
      <trkpt lat="44.41506" lon="3.81711">
        <ele>1548.6</ele>
        <time>2022-10-28T13:56:12Z</time>
      </trkpt>
      <trkpt lat="44.41506" lon="3.81708">
        <ele>1548.6</ele>
        <time>2022-10-28T13:56:13Z</time>
      </trkpt>
      <trkpt lat="44.41505" lon="3.81705">
        <ele>1548.6</ele>
        <time>2022-10-28T13:56:14Z</time>
      </trkpt>
      <trkpt lat="44.41505" lon="3.81702">
        <ele>1548.8</ele>
        <time>2022-10-28T13:56:15Z</time>
      </trkpt>
      <trkpt lat="44.41504" lon="3.81699">
        <ele>1548.6</ele>
        <time>2022-10-28T13:56:16Z</time>
      </trkpt>
      <trkpt lat="44.41503" lon="3.81696">
        <ele>1548.8</ele>
        <time>2022-10-28T13:56:17Z</time>
      </trkpt>
      <trkpt lat="44.41503" lon="3.81693">
        <ele>1548.8</ele>
        <time>2022-10-28T13:56:18Z</time>
      </trkpt>
      <trkpt lat="44.41502" lon="3.8169">
        <ele>1548.8</ele>
        <time>2022-10-28T13:56:19Z</time>
      </trkpt>
      <trkpt lat="44.41502" lon="3.81688">
        <ele>1548.8</ele>
        <time>2022-10-28T13:56:20Z</time>
      </trkpt>
      <trkpt lat="44.41502" lon="3.81685">
        <ele>1548.8</ele>
        <time>2022-10-28T13:56:21Z</time>
      </trkpt>
      <trkpt lat="44.41501" lon="3.81682">
        <ele>1549</ele>
        <time>2022-10-28T13:56:22Z</time>
      </trkpt>
      <trkpt lat="44.41501" lon="3.81679">
        <ele>1549</ele>
        <time>2022-10-28T13:56:23Z</time>
      </trkpt>
      <trkpt lat="44.415" lon="3.81676">
        <ele>1549</ele>
        <time>2022-10-28T13:56:24Z</time>
      </trkpt>
      <trkpt lat="44.415" lon="3.81673">
        <ele>1549.2</ele>
        <time>2022-10-28T13:56:25Z</time>
      </trkpt>
      <trkpt lat="44.41499" lon="3.81671">
        <ele>1549.2</ele>
        <time>2022-10-28T13:56:26Z</time>
      </trkpt>
      <trkpt lat="44.41499" lon="3.81668">
        <ele>1549</ele>
        <time>2022-10-28T13:56:27Z</time>
      </trkpt>
      <trkpt lat="44.41499" lon="3.81666">
        <ele>1549</ele>
        <time>2022-10-28T13:56:28Z</time>
      </trkpt>
      <trkpt lat="44.41499" lon="3.81663">
        <ele>1549</ele>
        <time>2022-10-28T13:56:29Z</time>
      </trkpt>
      <trkpt lat="44.41499" lon="3.81661">
        <ele>1549.2</ele>
        <time>2022-10-28T13:56:30Z</time>
      </trkpt>
      <trkpt lat="44.41499" lon="3.81659">
        <ele>1549.2</ele>
        <time>2022-10-28T13:56:31Z</time>
      </trkpt>
      <trkpt lat="44.41498" lon="3.81656">
        <ele>1549.2</ele>
        <time>2022-10-28T13:56:32Z</time>
      </trkpt>
      <trkpt lat="44.41498" lon="3.81654">
        <ele>1549.2</ele>
        <time>2022-10-28T13:56:33Z</time>
      </trkpt>
      <trkpt lat="44.41498" lon="3.81652">
        <ele>1549.2</ele>
        <time>2022-10-28T13:56:34Z</time>
      </trkpt>
      <trkpt lat="44.41497" lon="3.81649">
        <ele>1549.2</ele>
        <time>2022-10-28T13:56:35Z</time>
      </trkpt>
      <trkpt lat="44.41497" lon="3.81647">
        <ele>1549.2</ele>
        <time>2022-10-28T13:56:36Z</time>
      </trkpt>
      <trkpt lat="44.41497" lon="3.81645">
        <ele>1549.2</ele>
        <time>2022-10-28T13:56:37Z</time>
      </trkpt>
      <trkpt lat="44.41498" lon="3.81656">
        <ele>1549.2</ele>
        <time>2022-10-28T14:18:57Z</time>
      </trkpt>
      <trkpt lat="44.41499" lon="3.81659">
        <ele>1549.2</ele>
        <time>2022-10-28T14:18:58Z</time>
      </trkpt>
      <trkpt lat="44.41499" lon="3.81661">
        <ele>1549</ele>
        <time>2022-10-28T14:18:59Z</time>
      </trkpt>
      <trkpt lat="44.41499" lon="3.81664">
        <ele>1549</ele>
        <time>2022-10-28T14:19:00Z</time>
      </trkpt>
      <trkpt lat="44.41499" lon="3.81666">
        <ele>1549</ele>
        <time>2022-10-28T14:19:01Z</time>
      </trkpt>
      <trkpt lat="44.41499" lon="3.81669">
        <ele>1549</ele>
        <time>2022-10-28T14:19:02Z</time>
      </trkpt>
      <trkpt lat="44.41499" lon="3.81671">
        <ele>1549</ele>
        <time>2022-10-28T14:19:03Z</time>
      </trkpt>
      <trkpt lat="44.415" lon="3.81673">
        <ele>1549</ele>
        <time>2022-10-28T14:19:04Z</time>
      </trkpt>
      <trkpt lat="44.415" lon="3.81676">
        <ele>1549</ele>
        <time>2022-10-28T14:19:05Z</time>
      </trkpt>
      <trkpt lat="44.415" lon="3.81678">
        <ele>1549</ele>
        <time>2022-10-28T14:19:06Z</time>
      </trkpt>
      <trkpt lat="44.41501" lon="3.81681">
        <ele>1548.8</ele>
        <time>2022-10-28T14:19:07Z</time>
      </trkpt>
      <trkpt lat="44.41501" lon="3.81684">
        <ele>1548.8</ele>
        <time>2022-10-28T14:19:08Z</time>
      </trkpt>
      <trkpt lat="44.41502" lon="3.81687">
        <ele>1548.8</ele>
        <time>2022-10-28T14:19:09Z</time>
      </trkpt>
      <trkpt lat="44.41502" lon="3.8169">
        <ele>1548.8</ele>
        <time>2022-10-28T14:19:10Z</time>
      </trkpt>
      <trkpt lat="44.41502" lon="3.81692">
        <ele>1548.6</ele>
        <time>2022-10-28T14:19:11Z</time>
      </trkpt>
      <trkpt lat="44.41503" lon="3.81694">
        <ele>1548.6</ele>
        <time>2022-10-28T14:19:12Z</time>
      </trkpt>
      <trkpt lat="44.41503" lon="3.81697">
        <ele>1548.6</ele>
        <time>2022-10-28T14:19:13Z</time>
      </trkpt>
      <trkpt lat="44.41504" lon="3.817">
        <ele>1548.4</ele>
        <time>2022-10-28T14:19:14Z</time>
      </trkpt>
      <trkpt lat="44.41505" lon="3.81703">
        <ele>1548.4</ele>
        <time>2022-10-28T14:19:15Z</time>
      </trkpt>
      <trkpt lat="44.41505" lon="3.81706">
        <ele>1548.4</ele>
        <time>2022-10-28T14:19:16Z</time>
      </trkpt>
      <trkpt lat="44.41506" lon="3.81709">
        <ele>1548.2</ele>
        <time>2022-10-28T14:19:17Z</time>
      </trkpt>
      <trkpt lat="44.41506" lon="3.81712">
        <ele>1548.2</ele>
        <time>2022-10-28T14:19:18Z</time>
      </trkpt>
      <trkpt lat="44.41507" lon="3.81715">
        <ele>1548.2</ele>
        <time>2022-10-28T14:19:19Z</time>
      </trkpt>
      <trkpt lat="44.41508" lon="3.81718">
        <ele>1548</ele>
        <time>2022-10-28T14:19:20Z</time>
      </trkpt>
      <trkpt lat="44.41508" lon="3.81721">
        <ele>1548</ele>
        <time>2022-10-28T14:19:21Z</time>
      </trkpt>
      <trkpt lat="44.41509" lon="3.81723">
        <ele>1548</ele>
        <time>2022-10-28T14:19:22Z</time>
      </trkpt>
      <trkpt lat="44.4151" lon="3.81725">
        <ele>1548</ele>
        <time>2022-10-28T14:19:23Z</time>
      </trkpt>
      <trkpt lat="44.4151" lon="3.81727">
        <ele>1548</ele>
        <time>2022-10-28T14:19:24Z</time>
      </trkpt>
      <trkpt lat="44.4151" lon="3.81728">
        <ele>1548</ele>
        <time>2022-10-28T14:19:25Z</time>
      </trkpt>
      <trkpt lat="44.4151" lon="3.81729">
        <ele>1547.8</ele>
        <time>2022-10-28T14:19:26Z</time>
      </trkpt>
      <trkpt lat="44.4151" lon="3.81729">
        <ele>1547.8</ele>
        <time>2022-10-28T14:19:27Z</time>
      </trkpt>
      <trkpt lat="44.4151" lon="3.81729">
        <ele>1547.8</ele>
        <time>2022-10-28T14:19:28Z</time>
      </trkpt>
      <trkpt lat="44.4151" lon="3.81729">
        <ele>1547.8</ele>
        <time>2022-10-28T14:19:29Z</time>
      </trkpt>
      <trkpt lat="44.4151" lon="3.81729">
        <ele>1547.8</ele>
        <time>2022-10-28T14:19:30Z</time>
      </trkpt>
      <trkpt lat="44.4151" lon="3.81729">
        <ele>1547.8</ele>
        <time>2022-10-28T14:19:31Z</time>
      </trkpt>
      <trkpt lat="44.41512" lon="3.81744">
        <ele>1547.6</ele>
        <time>2022-10-28T14:24:08Z</time>
      </trkpt>
      <trkpt lat="44.41512" lon="3.81747">
        <ele>1547.6</ele>
        <time>2022-10-28T14:24:09Z</time>
      </trkpt>
      <trkpt lat="44.41513" lon="3.8175">
        <ele>1547.6</ele>
        <time>2022-10-28T14:24:10Z</time>
      </trkpt>
      <trkpt lat="44.41513" lon="3.81753">
        <ele>1547.6</ele>
        <time>2022-10-28T14:24:11Z</time>
      </trkpt>
      <trkpt lat="44.41513" lon="3.81756">
        <ele>1547.6</ele>
        <time>2022-10-28T14:24:12Z</time>
      </trkpt>
      <trkpt lat="44.41513" lon="3.8176">
        <ele>1547.6</ele>
        <time>2022-10-28T14:24:13Z</time>
      </trkpt>
      <trkpt lat="44.41513" lon="3.81763">
        <ele>1547.6</ele>
        <time>2022-10-28T14:24:14Z</time>
      </trkpt>
      <trkpt lat="44.41513" lon="3.81766">
        <ele>1547.6</ele>
        <time>2022-10-28T14:24:15Z</time>
      </trkpt>
      <trkpt lat="44.41513" lon="3.8177">
        <ele>1547.6</ele>
        <time>2022-10-28T14:24:16Z</time>
      </trkpt>
      <trkpt lat="44.41512" lon="3.81773">
        <ele>1547.6</ele>
        <time>2022-10-28T14:24:17Z</time>
      </trkpt>
      <trkpt lat="44.41512" lon="3.81777">
        <ele>1547.6</ele>
        <time>2022-10-28T14:24:18Z</time>
      </trkpt>
      <trkpt lat="44.41511" lon="3.8178">
        <ele>1547.6</ele>
        <time>2022-10-28T14:24:19Z</time>
      </trkpt>
      <trkpt lat="44.4151" lon="3.81783">
        <ele>1547.4</ele>
        <time>2022-10-28T14:24:20Z</time>
      </trkpt>
      <trkpt lat="44.41509" lon="3.81786">
        <ele>1547.4</ele>
        <time>2022-10-28T14:24:21Z</time>
      </trkpt>
      <trkpt lat="44.41508" lon="3.81789">
        <ele>1547.4</ele>
        <time>2022-10-28T14:24:22Z</time>
      </trkpt>
      <trkpt lat="44.41507" lon="3.81792">
        <ele>1547.4</ele>
        <time>2022-10-28T14:24:23Z</time>
      </trkpt>
      <trkpt lat="44.41505" lon="3.81795">
        <ele>1547.4</ele>
        <time>2022-10-28T14:24:24Z</time>
      </trkpt>
      <trkpt lat="44.41504" lon="3.81798">
        <ele>1547.4</ele>
        <time>2022-10-28T14:24:25Z</time>
      </trkpt>
      <trkpt lat="44.41502" lon="3.81801">
        <ele>1547.4</ele>
        <time>2022-10-28T14:24:26Z</time>
      </trkpt>
      <trkpt lat="44.41501" lon="3.81804">
        <ele>1547.2</ele>
        <time>2022-10-28T14:24:27Z</time>
      </trkpt>
      <trkpt lat="44.41499" lon="3.81806">
        <ele>1547.2</ele>
        <time>2022-10-28T14:24:28Z</time>
      </trkpt>
      <trkpt lat="44.41498" lon="3.81808">
        <ele>1547.2</ele>
        <time>2022-10-28T14:24:29Z</time>
      </trkpt>
      <trkpt lat="44.41497" lon="3.81811">
        <ele>1547.2</ele>
        <time>2022-10-28T14:24:30Z</time>
      </trkpt>
      <trkpt lat="44.41496" lon="3.81814">
        <ele>1547.2</ele>
        <time>2022-10-28T14:24:31Z</time>
      </trkpt>
      <trkpt lat="44.41495" lon="3.81817">
        <ele>1547.2</ele>
        <time>2022-10-28T14:24:32Z</time>
      </trkpt>
      <trkpt lat="44.41494" lon="3.81819">
        <ele>1547</ele>
        <time>2022-10-28T14:24:33Z</time>
      </trkpt>
      <trkpt lat="44.41494" lon="3.81822">
        <ele>1547</ele>
        <time>2022-10-28T14:24:34Z</time>
      </trkpt>
      <trkpt lat="44.41493" lon="3.81825">
        <ele>1547</ele>
        <time>2022-10-28T14:24:35Z</time>
      </trkpt>
      <trkpt lat="44.41493" lon="3.81827">
        <ele>1547</ele>
        <time>2022-10-28T14:24:36Z</time>
      </trkpt>
      <trkpt lat="44.41491" lon="3.8183">
        <ele>1547</ele>
        <time>2022-10-28T14:24:37Z</time>
      </trkpt>
      <trkpt lat="44.4149" lon="3.81832">
        <ele>1547</ele>
        <time>2022-10-28T14:24:38Z</time>
      </trkpt>
      <trkpt lat="44.4149" lon="3.81834">
        <ele>1546.8</ele>
        <time>2022-10-28T14:24:39Z</time>
      </trkpt>
      <trkpt lat="44.41489" lon="3.81837">
        <ele>1546.8</ele>
        <time>2022-10-28T14:24:40Z</time>
      </trkpt>
      <trkpt lat="44.41489" lon="3.81839">
        <ele>1546.8</ele>
        <time>2022-10-28T14:24:41Z</time>
      </trkpt>
      <trkpt lat="44.41488" lon="3.81842">
        <ele>1546.8</ele>
        <time>2022-10-28T14:24:42Z</time>
      </trkpt>
      <trkpt lat="44.41487" lon="3.81845">
        <ele>1546.8</ele>
        <time>2022-10-28T14:24:43Z</time>
      </trkpt>
      <trkpt lat="44.41486" lon="3.81847">
        <ele>1546.8</ele>
        <time>2022-10-28T14:24:44Z</time>
      </trkpt>
      <trkpt lat="44.41485" lon="3.8185">
        <ele>1546.8</ele>
        <time>2022-10-28T14:24:45Z</time>
      </trkpt>
      <trkpt lat="44.41485" lon="3.81853">
        <ele>1546.8</ele>
        <time>2022-10-28T14:24:46Z</time>
      </trkpt>
      <trkpt lat="44.41484" lon="3.81855">
        <ele>1546.8</ele>
        <time>2022-10-28T14:24:47Z</time>
      </trkpt>
      <trkpt lat="44.41483" lon="3.81858">
        <ele>1546.8</ele>
        <time>2022-10-28T14:24:48Z</time>
      </trkpt>
      <trkpt lat="44.41482" lon="3.8186">
        <ele>1546.8</ele>
        <time>2022-10-28T14:24:49Z</time>
      </trkpt>
      <trkpt lat="44.41481" lon="3.81862">
        <ele>1546.8</ele>
        <time>2022-10-28T14:24:50Z</time>
      </trkpt>
      <trkpt lat="44.41479" lon="3.81864">
        <ele>1546.8</ele>
        <time>2022-10-28T14:24:51Z</time>
      </trkpt>
      <trkpt lat="44.41478" lon="3.81865">
        <ele>1546.8</ele>
        <time>2022-10-28T14:24:52Z</time>
      </trkpt>
      <trkpt lat="44.41476" lon="3.81867">
        <ele>1546.8</ele>
        <time>2022-10-28T14:24:53Z</time>
      </trkpt>
      <trkpt lat="44.41475" lon="3.81869">
        <ele>1546.8</ele>
        <time>2022-10-28T14:24:54Z</time>
      </trkpt>
      <trkpt lat="44.41473" lon="3.81871">
        <ele>1546.8</ele>
        <time>2022-10-28T14:24:55Z</time>
      </trkpt>
      <trkpt lat="44.41471" lon="3.81873">
        <ele>1546.8</ele>
        <time>2022-10-28T14:24:56Z</time>
      </trkpt>
      <trkpt lat="44.41469" lon="3.81875">
        <ele>1546.8</ele>
        <time>2022-10-28T14:24:57Z</time>
      </trkpt>
      <trkpt lat="44.41468" lon="3.81877">
        <ele>1546.8</ele>
        <time>2022-10-28T14:24:58Z</time>
      </trkpt>
      <trkpt lat="44.41466" lon="3.81879">
        <ele>1546.8</ele>
        <time>2022-10-28T14:24:59Z</time>
      </trkpt>
      <trkpt lat="44.41464" lon="3.81881">
        <ele>1546.8</ele>
        <time>2022-10-28T14:25:00Z</time>
      </trkpt>
      <trkpt lat="44.41462" lon="3.81883">
        <ele>1546.8</ele>
        <time>2022-10-28T14:25:01Z</time>
      </trkpt>
      <trkpt lat="44.41461" lon="3.81885">
        <ele>1546.8</ele>
        <time>2022-10-28T14:25:02Z</time>
      </trkpt>
      <trkpt lat="44.41459" lon="3.81887">
        <ele>1546.8</ele>
        <time>2022-10-28T14:25:03Z</time>
      </trkpt>
      <trkpt lat="44.41457" lon="3.81888">
        <ele>1546.8</ele>
        <time>2022-10-28T14:25:04Z</time>
      </trkpt>
      <trkpt lat="44.41455" lon="3.8189">
        <ele>1546.6</ele>
        <time>2022-10-28T14:25:05Z</time>
      </trkpt>
      <trkpt lat="44.41454" lon="3.81892">
        <ele>1546.8</ele>
        <time>2022-10-28T14:25:06Z</time>
      </trkpt>
      <trkpt lat="44.41452" lon="3.81894">
        <ele>1546.8</ele>
        <time>2022-10-28T14:25:07Z</time>
      </trkpt>
      <trkpt lat="44.4145" lon="3.81896">
        <ele>1546.8</ele>
        <time>2022-10-28T14:25:08Z</time>
      </trkpt>
      <trkpt lat="44.41448" lon="3.81898">
        <ele>1546.6</ele>
        <time>2022-10-28T14:25:09Z</time>
      </trkpt>
      <trkpt lat="44.41447" lon="3.819">
        <ele>1546.6</ele>
        <time>2022-10-28T14:25:10Z</time>
      </trkpt>
      <trkpt lat="44.41445" lon="3.81902">
        <ele>1546.6</ele>
        <time>2022-10-28T14:25:11Z</time>
      </trkpt>
      <trkpt lat="44.41444" lon="3.81903">
        <ele>1546.6</ele>
        <time>2022-10-28T14:25:12Z</time>
      </trkpt>
      <trkpt lat="44.41442" lon="3.81905">
        <ele>1546.6</ele>
        <time>2022-10-28T14:25:13Z</time>
      </trkpt>
      <trkpt lat="44.4144" lon="3.81907">
        <ele>1546.6</ele>
        <time>2022-10-28T14:25:14Z</time>
      </trkpt>
      <trkpt lat="44.41439" lon="3.8191">
        <ele>1546.6</ele>
        <time>2022-10-28T14:25:15Z</time>
      </trkpt>
      <trkpt lat="44.41437" lon="3.81913">
        <ele>1546.6</ele>
        <time>2022-10-28T14:25:16Z</time>
      </trkpt>
      <trkpt lat="44.41435" lon="3.81915">
        <ele>1546.4</ele>
        <time>2022-10-28T14:25:17Z</time>
      </trkpt>
      <trkpt lat="44.41433" lon="3.81918">
        <ele>1546.4</ele>
        <time>2022-10-28T14:25:18Z</time>
      </trkpt>
      <trkpt lat="44.41432" lon="3.8192">
        <ele>1546.4</ele>
        <time>2022-10-28T14:25:19Z</time>
      </trkpt>
      <trkpt lat="44.4143" lon="3.81922">
        <ele>1546.4</ele>
        <time>2022-10-28T14:25:20Z</time>
      </trkpt>
      <trkpt lat="44.41429" lon="3.81924">
        <ele>1546.4</ele>
        <time>2022-10-28T14:25:21Z</time>
      </trkpt>
      <trkpt lat="44.41428" lon="3.81926">
        <ele>1546.2</ele>
        <time>2022-10-28T14:25:22Z</time>
      </trkpt>
      <trkpt lat="44.41426" lon="3.81928">
        <ele>1546.2</ele>
        <time>2022-10-28T14:25:23Z</time>
      </trkpt>
      <trkpt lat="44.41425" lon="3.8193">
        <ele>1546.2</ele>
        <time>2022-10-28T14:25:24Z</time>
      </trkpt>
      <trkpt lat="44.41423" lon="3.81931">
        <ele>1546</ele>
        <time>2022-10-28T14:25:25Z</time>
      </trkpt>
      <trkpt lat="44.41423" lon="3.81932">
        <ele>1546</ele>
        <time>2022-10-28T14:25:26Z</time>
      </trkpt>
      <trkpt lat="44.41422" lon="3.81933">
        <ele>1545.8</ele>
        <time>2022-10-28T14:27:24Z</time>
      </trkpt>
      <trkpt lat="44.41421" lon="3.81935">
        <ele>1545.8</ele>
        <time>2022-10-28T14:27:25Z</time>
      </trkpt>
      <trkpt lat="44.41419" lon="3.81938">
        <ele>1545.8</ele>
        <time>2022-10-28T14:27:26Z</time>
      </trkpt>
      <trkpt lat="44.41417" lon="3.81941">
        <ele>1545.6</ele>
        <time>2022-10-28T14:27:27Z</time>
      </trkpt>
      <trkpt lat="44.41415" lon="3.81943">
        <ele>1545.6</ele>
        <time>2022-10-28T14:27:28Z</time>
      </trkpt>
      <trkpt lat="44.41413" lon="3.81946">
        <ele>1545.6</ele>
        <time>2022-10-28T14:27:29Z</time>
      </trkpt>
      <trkpt lat="44.41411" lon="3.81948">
        <ele>1545.6</ele>
        <time>2022-10-28T14:27:30Z</time>
      </trkpt>
      <trkpt lat="44.41409" lon="3.8195">
        <ele>1545.6</ele>
        <time>2022-10-28T14:27:31Z</time>
      </trkpt>
      <trkpt lat="44.41407" lon="3.81953">
        <ele>1545.6</ele>
        <time>2022-10-28T14:27:32Z</time>
      </trkpt>
      <trkpt lat="44.41406" lon="3.81956">
        <ele>1545.6</ele>
        <time>2022-10-28T14:27:33Z</time>
      </trkpt>
      <trkpt lat="44.41404" lon="3.81958">
        <ele>1545.6</ele>
        <time>2022-10-28T14:27:34Z</time>
      </trkpt>
      <trkpt lat="44.41402" lon="3.81961">
        <ele>1545.6</ele>
        <time>2022-10-28T14:27:35Z</time>
      </trkpt>
      <trkpt lat="44.414" lon="3.81963">
        <ele>1545.6</ele>
        <time>2022-10-28T14:27:36Z</time>
      </trkpt>
      <trkpt lat="44.41398" lon="3.81965">
        <ele>1545.4</ele>
        <time>2022-10-28T14:27:37Z</time>
      </trkpt>
      <trkpt lat="44.41397" lon="3.81968">
        <ele>1545.4</ele>
        <time>2022-10-28T14:27:38Z</time>
      </trkpt>
      <trkpt lat="44.41395" lon="3.8197">
        <ele>1545.4</ele>
        <time>2022-10-28T14:27:39Z</time>
      </trkpt>
      <trkpt lat="44.41393" lon="3.81972">
        <ele>1545.4</ele>
        <time>2022-10-28T14:27:40Z</time>
      </trkpt>
      <trkpt lat="44.41391" lon="3.81974">
        <ele>1545.4</ele>
        <time>2022-10-28T14:27:41Z</time>
      </trkpt>
      <trkpt lat="44.4139" lon="3.81977">
        <ele>1545.4</ele>
        <time>2022-10-28T14:27:42Z</time>
      </trkpt>
      <trkpt lat="44.41388" lon="3.8198">
        <ele>1545.4</ele>
        <time>2022-10-28T14:27:43Z</time>
      </trkpt>
      <trkpt lat="44.41386" lon="3.81983">
        <ele>1545.4</ele>
        <time>2022-10-28T14:27:44Z</time>
      </trkpt>
      <trkpt lat="44.41384" lon="3.81986">
        <ele>1545.4</ele>
        <time>2022-10-28T14:27:45Z</time>
      </trkpt>
      <trkpt lat="44.41383" lon="3.81988">
        <ele>1545.2</ele>
        <time>2022-10-28T14:27:46Z</time>
      </trkpt>
      <trkpt lat="44.41382" lon="3.81991">
        <ele>1545.2</ele>
        <time>2022-10-28T14:27:47Z</time>
      </trkpt>
      <trkpt lat="44.41381" lon="3.81994">
        <ele>1545.2</ele>
        <time>2022-10-28T14:27:48Z</time>
      </trkpt>
      <trkpt lat="44.4138" lon="3.81997">
        <ele>1545</ele>
        <time>2022-10-28T14:27:49Z</time>
      </trkpt>
      <trkpt lat="44.41379" lon="3.82001">
        <ele>1545</ele>
        <time>2022-10-28T14:27:50Z</time>
      </trkpt>
      <trkpt lat="44.41379" lon="3.82004">
        <ele>1544.8</ele>
        <time>2022-10-28T14:27:51Z</time>
      </trkpt>
      <trkpt lat="44.41378" lon="3.82008">
        <ele>1544.6</ele>
        <time>2022-10-28T14:27:52Z</time>
      </trkpt>
      <trkpt lat="44.41376" lon="3.82011">
        <ele>1544.6</ele>
        <time>2022-10-28T14:27:53Z</time>
      </trkpt>
      <trkpt lat="44.41375" lon="3.82014">
        <ele>1544.4</ele>
        <time>2022-10-28T14:27:54Z</time>
      </trkpt>
      <trkpt lat="44.41373" lon="3.82018">
        <ele>1544.4</ele>
        <time>2022-10-28T14:27:55Z</time>
      </trkpt>
      <trkpt lat="44.41372" lon="3.82021">
        <ele>1544.2</ele>
        <time>2022-10-28T14:27:56Z</time>
      </trkpt>
      <trkpt lat="44.4137" lon="3.82025">
        <ele>1544.2</ele>
        <time>2022-10-28T14:27:57Z</time>
      </trkpt>
      <trkpt lat="44.41369" lon="3.82028">
        <ele>1544</ele>
        <time>2022-10-28T14:27:58Z</time>
      </trkpt>
      <trkpt lat="44.41368" lon="3.82031">
        <ele>1544</ele>
        <time>2022-10-28T14:27:59Z</time>
      </trkpt>
      <trkpt lat="44.41366" lon="3.82034">
        <ele>1543.8</ele>
        <time>2022-10-28T14:28:00Z</time>
      </trkpt>
      <trkpt lat="44.41364" lon="3.82036">
        <ele>1543.8</ele>
        <time>2022-10-28T14:28:01Z</time>
      </trkpt>
      <trkpt lat="44.41363" lon="3.82039">
        <ele>1543.6</ele>
        <time>2022-10-28T14:28:02Z</time>
      </trkpt>
      <trkpt lat="44.41362" lon="3.82042">
        <ele>1543.4</ele>
        <time>2022-10-28T14:28:03Z</time>
      </trkpt>
      <trkpt lat="44.41361" lon="3.82044">
        <ele>1543.4</ele>
        <time>2022-10-28T14:28:04Z</time>
      </trkpt>
      <trkpt lat="44.4136" lon="3.82047">
        <ele>1543.2</ele>
        <time>2022-10-28T14:28:05Z</time>
      </trkpt>
      <trkpt lat="44.41359" lon="3.82049">
        <ele>1543.2</ele>
        <time>2022-10-28T14:28:06Z</time>
      </trkpt>
      <trkpt lat="44.41358" lon="3.82052">
        <ele>1543</ele>
        <time>2022-10-28T14:28:07Z</time>
      </trkpt>
      <trkpt lat="44.41357" lon="3.82055">
        <ele>1543</ele>
        <time>2022-10-28T14:28:08Z</time>
      </trkpt>
      <trkpt lat="44.41356" lon="3.82057">
        <ele>1543</ele>
        <time>2022-10-28T14:28:09Z</time>
      </trkpt>
      <trkpt lat="44.41354" lon="3.82059">
        <ele>1542.8</ele>
        <time>2022-10-28T14:28:10Z</time>
      </trkpt>
      <trkpt lat="44.41352" lon="3.82062">
        <ele>1542.6</ele>
        <time>2022-10-28T14:28:11Z</time>
      </trkpt>
      <trkpt lat="44.41351" lon="3.82065">
        <ele>1542.6</ele>
        <time>2022-10-28T14:28:12Z</time>
      </trkpt>
      <trkpt lat="44.4135" lon="3.82067">
        <ele>1542.4</ele>
        <time>2022-10-28T14:28:13Z</time>
      </trkpt>
      <trkpt lat="44.41348" lon="3.8207">
        <ele>1542.4</ele>
        <time>2022-10-28T14:28:14Z</time>
      </trkpt>
      <trkpt lat="44.41346" lon="3.82072">
        <ele>1542.2</ele>
        <time>2022-10-28T14:28:15Z</time>
      </trkpt>
      <trkpt lat="44.41344" lon="3.82074">
        <ele>1542.2</ele>
        <time>2022-10-28T14:28:16Z</time>
      </trkpt>
      <trkpt lat="44.41342" lon="3.82077">
        <ele>1542</ele>
        <time>2022-10-28T14:28:17Z</time>
      </trkpt>
      <trkpt lat="44.4134" lon="3.8208">
        <ele>1542</ele>
        <time>2022-10-28T14:28:18Z</time>
      </trkpt>
      <trkpt lat="44.41338" lon="3.82083">
        <ele>1541.8</ele>
        <time>2022-10-28T14:28:19Z</time>
      </trkpt>
      <trkpt lat="44.41335" lon="3.82086">
        <ele>1541.8</ele>
        <time>2022-10-28T14:28:20Z</time>
      </trkpt>
      <trkpt lat="44.41333" lon="3.82089">
        <ele>1541.6</ele>
        <time>2022-10-28T14:28:21Z</time>
      </trkpt>
      <trkpt lat="44.41331" lon="3.82093">
        <ele>1541.4</ele>
        <time>2022-10-28T14:28:22Z</time>
      </trkpt>
      <trkpt lat="44.41329" lon="3.82096">
        <ele>1541.4</ele>
        <time>2022-10-28T14:28:23Z</time>
      </trkpt>
      <trkpt lat="44.41327" lon="3.82099">
        <ele>1541.2</ele>
        <time>2022-10-28T14:28:24Z</time>
      </trkpt>
      <trkpt lat="44.41325" lon="3.82102">
        <ele>1541.2</ele>
        <time>2022-10-28T14:28:25Z</time>
      </trkpt>
      <trkpt lat="44.41323" lon="3.82105">
        <ele>1541</ele>
        <time>2022-10-28T14:28:26Z</time>
      </trkpt>
      <trkpt lat="44.41321" lon="3.82107">
        <ele>1541</ele>
        <time>2022-10-28T14:28:27Z</time>
      </trkpt>
      <trkpt lat="44.4132" lon="3.8211">
        <ele>1541</ele>
        <time>2022-10-28T14:28:28Z</time>
      </trkpt>
      <trkpt lat="44.41318" lon="3.82113">
        <ele>1540.8</ele>
        <time>2022-10-28T14:28:29Z</time>
      </trkpt>
      <trkpt lat="44.41316" lon="3.82116">
        <ele>1540.8</ele>
        <time>2022-10-28T14:28:30Z</time>
      </trkpt>
      <trkpt lat="44.41314" lon="3.82119">
        <ele>1540.6</ele>
        <time>2022-10-28T14:28:31Z</time>
      </trkpt>
      <trkpt lat="44.41312" lon="3.82123">
        <ele>1540.6</ele>
        <time>2022-10-28T14:28:32Z</time>
      </trkpt>
      <trkpt lat="44.4131" lon="3.82126">
        <ele>1540.4</ele>
        <time>2022-10-28T14:28:33Z</time>
      </trkpt>
      <trkpt lat="44.41307" lon="3.8213">
        <ele>1540.4</ele>
        <time>2022-10-28T14:28:34Z</time>
      </trkpt>
      <trkpt lat="44.41305" lon="3.82133">
        <ele>1540.2</ele>
        <time>2022-10-28T14:28:35Z</time>
      </trkpt>
      <trkpt lat="44.41303" lon="3.82137">
        <ele>1540</ele>
        <time>2022-10-28T14:28:36Z</time>
      </trkpt>
      <trkpt lat="44.413" lon="3.82141">
        <ele>1539.8</ele>
        <time>2022-10-28T14:28:37Z</time>
      </trkpt>
      <trkpt lat="44.41298" lon="3.82144">
        <ele>1539.6</ele>
        <time>2022-10-28T14:28:38Z</time>
      </trkpt>
      <trkpt lat="44.41296" lon="3.82148">
        <ele>1539.4</ele>
        <time>2022-10-28T14:28:39Z</time>
      </trkpt>
      <trkpt lat="44.41294" lon="3.82151">
        <ele>1539.2</ele>
        <time>2022-10-28T14:28:40Z</time>
      </trkpt>
      <trkpt lat="44.41292" lon="3.82154">
        <ele>1539</ele>
        <time>2022-10-28T14:28:41Z</time>
      </trkpt>
      <trkpt lat="44.4129" lon="3.82156">
        <ele>1539</ele>
        <time>2022-10-28T14:28:42Z</time>
      </trkpt>
      <trkpt lat="44.41288" lon="3.82158">
        <ele>1538.8</ele>
        <time>2022-10-28T14:28:43Z</time>
      </trkpt>
      <trkpt lat="44.41287" lon="3.8216">
        <ele>1538.8</ele>
        <time>2022-10-28T14:28:44Z</time>
      </trkpt>
      <trkpt lat="44.41285" lon="3.82161">
        <ele>1538.6</ele>
        <time>2022-10-28T14:28:45Z</time>
      </trkpt>
      <trkpt lat="44.41284" lon="3.82163">
        <ele>1538.4</ele>
        <time>2022-10-28T14:28:46Z</time>
      </trkpt>
      <trkpt lat="44.41284" lon="3.82166">
        <ele>1538.4</ele>
        <time>2022-10-28T14:28:47Z</time>
      </trkpt>
      <trkpt lat="44.41282" lon="3.82167">
        <ele>1538.2</ele>
        <time>2022-10-28T14:28:48Z</time>
      </trkpt>
      <trkpt lat="44.41281" lon="3.8217">
        <ele>1538</ele>
        <time>2022-10-28T14:28:49Z</time>
      </trkpt>
      <trkpt lat="44.4128" lon="3.82172">
        <ele>1538</ele>
        <time>2022-10-28T14:28:50Z</time>
      </trkpt>
      <trkpt lat="44.41278" lon="3.82175">
        <ele>1537.8</ele>
        <time>2022-10-28T14:28:51Z</time>
      </trkpt>
      <trkpt lat="44.41276" lon="3.82178">
        <ele>1537.6</ele>
        <time>2022-10-28T14:28:52Z</time>
      </trkpt>
      <trkpt lat="44.41274" lon="3.82181">
        <ele>1537.4</ele>
        <time>2022-10-28T14:28:53Z</time>
      </trkpt>
      <trkpt lat="44.41272" lon="3.82184">
        <ele>1537.4</ele>
        <time>2022-10-28T14:28:54Z</time>
      </trkpt>
      <trkpt lat="44.4127" lon="3.82187">
        <ele>1537.2</ele>
        <time>2022-10-28T14:28:55Z</time>
      </trkpt>
      <trkpt lat="44.41268" lon="3.8219">
        <ele>1537.2</ele>
        <time>2022-10-28T14:28:56Z</time>
      </trkpt>
      <trkpt lat="44.41265" lon="3.82194">
        <ele>1537</ele>
        <time>2022-10-28T14:28:57Z</time>
      </trkpt>
      <trkpt lat="44.41263" lon="3.82197">
        <ele>1537</ele>
        <time>2022-10-28T14:28:58Z</time>
      </trkpt>
      <trkpt lat="44.41261" lon="3.822">
        <ele>1536.8</ele>
        <time>2022-10-28T14:28:59Z</time>
      </trkpt>
      <trkpt lat="44.41259" lon="3.82203">
        <ele>1536.6</ele>
        <time>2022-10-28T14:29:00Z</time>
      </trkpt>
      <trkpt lat="44.41256" lon="3.82206">
        <ele>1536.4</ele>
        <time>2022-10-28T14:29:01Z</time>
      </trkpt>
      <trkpt lat="44.41253" lon="3.82209">
        <ele>1536.2</ele>
        <time>2022-10-28T14:29:02Z</time>
      </trkpt>
      <trkpt lat="44.41251" lon="3.82213">
        <ele>1536.2</ele>
        <time>2022-10-28T14:29:03Z</time>
      </trkpt>
      <trkpt lat="44.4125" lon="3.82216">
        <ele>1536</ele>
        <time>2022-10-28T14:29:04Z</time>
      </trkpt>
      <trkpt lat="44.41249" lon="3.82221">
        <ele>1535.8</ele>
        <time>2022-10-28T14:29:05Z</time>
      </trkpt>
      <trkpt lat="44.41249" lon="3.82225">
        <ele>1535.6</ele>
        <time>2022-10-28T14:29:06Z</time>
      </trkpt>
      <trkpt lat="44.41248" lon="3.82229">
        <ele>1535.4</ele>
        <time>2022-10-28T14:29:07Z</time>
      </trkpt>
      <trkpt lat="44.41248" lon="3.82233">
        <ele>1535.2</ele>
        <time>2022-10-28T14:29:08Z</time>
      </trkpt>
      <trkpt lat="44.41248" lon="3.82236">
        <ele>1535</ele>
        <time>2022-10-28T14:29:09Z</time>
      </trkpt>
      <trkpt lat="44.41247" lon="3.82239">
        <ele>1535</ele>
        <time>2022-10-28T14:29:10Z</time>
      </trkpt>
      <trkpt lat="44.41246" lon="3.82241">
        <ele>1534.8</ele>
        <time>2022-10-28T14:29:11Z</time>
      </trkpt>
      <trkpt lat="44.41245" lon="3.82243">
        <ele>1534.8</ele>
        <time>2022-10-28T14:29:12Z</time>
      </trkpt>
      <trkpt lat="44.41245" lon="3.82244">
        <ele>1534.6</ele>
        <time>2022-10-28T14:29:13Z</time>
      </trkpt>
      <trkpt lat="44.41245" lon="3.82244">
        <ele>1534.4</ele>
        <time>2022-10-28T14:29:14Z</time>
      </trkpt>
      <trkpt lat="44.41244" lon="3.82244">
        <ele>1533.6</ele>
        <time>2022-10-28T14:31:04Z</time>
      </trkpt>
      <trkpt lat="44.41243" lon="3.82245">
        <ele>1533.6</ele>
        <time>2022-10-28T14:31:05Z</time>
      </trkpt>
      <trkpt lat="44.41242" lon="3.82245">
        <ele>1533.6</ele>
        <time>2022-10-28T14:31:06Z</time>
      </trkpt>
      <trkpt lat="44.4124" lon="3.82246">
        <ele>1533.6</ele>
        <time>2022-10-28T14:31:07Z</time>
      </trkpt>
      <trkpt lat="44.41239" lon="3.82246">
        <ele>1533.6</ele>
        <time>2022-10-28T14:31:08Z</time>
      </trkpt>
      <trkpt lat="44.41238" lon="3.82247">
        <ele>1533.8</ele>
        <time>2022-10-28T14:31:09Z</time>
      </trkpt>
      <trkpt lat="44.41236" lon="3.82247">
        <ele>1533.8</ele>
        <time>2022-10-28T14:31:10Z</time>
      </trkpt>
      <trkpt lat="44.41235" lon="3.82247">
        <ele>1533.8</ele>
        <time>2022-10-28T14:31:11Z</time>
      </trkpt>
      <trkpt lat="44.41234" lon="3.82248">
        <ele>1533.8</ele>
        <time>2022-10-28T14:31:12Z</time>
      </trkpt>
      <trkpt lat="44.41234" lon="3.82248">
        <ele>1533.8</ele>
        <time>2022-10-28T14:31:13Z</time>
      </trkpt>
      <trkpt lat="44.41234" lon="3.82249">
        <ele>1534</ele>
        <time>2022-10-28T14:31:14Z</time>
      </trkpt>
      <trkpt lat="44.41234" lon="3.82249">
        <ele>1534</ele>
        <time>2022-10-28T14:31:15Z</time>
      </trkpt>
      <trkpt lat="44.41233" lon="3.82249">
        <ele>1534</ele>
        <time>2022-10-28T14:31:16Z</time>
      </trkpt>
      <trkpt lat="44.41233" lon="3.82249">
        <ele>1534</ele>
        <time>2022-10-28T14:31:17Z</time>
      </trkpt>
      <trkpt lat="44.41232" lon="3.82251">
        <ele>1533.8</ele>
        <time>2022-10-28T14:31:21Z</time>
      </trkpt>
      <trkpt lat="44.4123" lon="3.82253">
        <ele>1533.8</ele>
        <time>2022-10-28T14:31:22Z</time>
      </trkpt>
      <trkpt lat="44.41229" lon="3.82255">
        <ele>1533.8</ele>
        <time>2022-10-28T14:31:23Z</time>
      </trkpt>
      <trkpt lat="44.41229" lon="3.82257">
        <ele>1533.8</ele>
        <time>2022-10-28T14:31:24Z</time>
      </trkpt>
      <trkpt lat="44.41227" lon="3.82259">
        <ele>1533.8</ele>
        <time>2022-10-28T14:31:25Z</time>
      </trkpt>
      <trkpt lat="44.41226" lon="3.82262">
        <ele>1533.8</ele>
        <time>2022-10-28T14:31:26Z</time>
      </trkpt>
      <trkpt lat="44.41225" lon="3.82264">
        <ele>1533.6</ele>
        <time>2022-10-28T14:31:27Z</time>
      </trkpt>
      <trkpt lat="44.41223" lon="3.82266">
        <ele>1533.6</ele>
        <time>2022-10-28T14:31:28Z</time>
      </trkpt>
      <trkpt lat="44.41222" lon="3.82269">
        <ele>1533.4</ele>
        <time>2022-10-28T14:31:29Z</time>
      </trkpt>
      <trkpt lat="44.41221" lon="3.82272">
        <ele>1533.4</ele>
        <time>2022-10-28T14:31:30Z</time>
      </trkpt>
      <trkpt lat="44.41219" lon="3.82275">
        <ele>1533.2</ele>
        <time>2022-10-28T14:31:31Z</time>
      </trkpt>
      <trkpt lat="44.41218" lon="3.82277">
        <ele>1533</ele>
        <time>2022-10-28T14:31:32Z</time>
      </trkpt>
      <trkpt lat="44.41216" lon="3.82281">
        <ele>1532.8</ele>
        <time>2022-10-28T14:31:33Z</time>
      </trkpt>
      <trkpt lat="44.41214" lon="3.82284">
        <ele>1532.6</ele>
        <time>2022-10-28T14:31:34Z</time>
      </trkpt>
      <trkpt lat="44.41212" lon="3.82287">
        <ele>1532.4</ele>
        <time>2022-10-28T14:31:35Z</time>
      </trkpt>
      <trkpt lat="44.4121" lon="3.8229">
        <ele>1532.4</ele>
        <time>2022-10-28T14:31:36Z</time>
      </trkpt>
      <trkpt lat="44.41208" lon="3.82293">
        <ele>1532.2</ele>
        <time>2022-10-28T14:31:37Z</time>
      </trkpt>
      <trkpt lat="44.41205" lon="3.82296">
        <ele>1532</ele>
        <time>2022-10-28T14:31:38Z</time>
      </trkpt>
      <trkpt lat="44.41203" lon="3.82298">
        <ele>1531.8</ele>
        <time>2022-10-28T14:31:39Z</time>
      </trkpt>
      <trkpt lat="44.41202" lon="3.82301">
        <ele>1531.8</ele>
        <time>2022-10-28T14:31:40Z</time>
      </trkpt>
      <trkpt lat="44.41199" lon="3.82303">
        <ele>1531.6</ele>
        <time>2022-10-28T14:31:41Z</time>
      </trkpt>
      <trkpt lat="44.41198" lon="3.82305">
        <ele>1531.4</ele>
        <time>2022-10-28T14:31:42Z</time>
      </trkpt>
      <trkpt lat="44.41196" lon="3.82305">
        <ele>1531.4</ele>
        <time>2022-10-28T14:31:43Z</time>
      </trkpt>
      <trkpt lat="44.41194" lon="3.82306">
        <ele>1531.2</ele>
        <time>2022-10-28T14:31:44Z</time>
      </trkpt>
      <trkpt lat="44.41192" lon="3.82306">
        <ele>1531.2</ele>
        <time>2022-10-28T14:31:45Z</time>
      </trkpt>
      <trkpt lat="44.41191" lon="3.82307">
        <ele>1531.2</ele>
        <time>2022-10-28T14:31:46Z</time>
      </trkpt>
      <trkpt lat="44.41189" lon="3.82307">
        <ele>1531</ele>
        <time>2022-10-28T14:31:47Z</time>
      </trkpt>
      <trkpt lat="44.41188" lon="3.82307">
        <ele>1531</ele>
        <time>2022-10-28T14:31:48Z</time>
      </trkpt>
      <trkpt lat="44.41187" lon="3.82309">
        <ele>1531</ele>
        <time>2022-10-28T14:31:49Z</time>
      </trkpt>
      <trkpt lat="44.41185" lon="3.82311">
        <ele>1530.8</ele>
        <time>2022-10-28T14:31:50Z</time>
      </trkpt>
      <trkpt lat="44.41184" lon="3.82312">
        <ele>1530.6</ele>
        <time>2022-10-28T14:31:51Z</time>
      </trkpt>
      <trkpt lat="44.41182" lon="3.82314">
        <ele>1530.6</ele>
        <time>2022-10-28T14:31:52Z</time>
      </trkpt>
      <trkpt lat="44.41181" lon="3.82315">
        <ele>1530.4</ele>
        <time>2022-10-28T14:31:53Z</time>
      </trkpt>
      <trkpt lat="44.41179" lon="3.82317">
        <ele>1530.4</ele>
        <time>2022-10-28T14:31:54Z</time>
      </trkpt>
      <trkpt lat="44.41178" lon="3.82319">
        <ele>1530.2</ele>
        <time>2022-10-28T14:31:55Z</time>
      </trkpt>
      <trkpt lat="44.41175" lon="3.82321">
        <ele>1530.2</ele>
        <time>2022-10-28T14:31:56Z</time>
      </trkpt>
      <trkpt lat="44.41173" lon="3.82322">
        <ele>1530</ele>
        <time>2022-10-28T14:31:57Z</time>
      </trkpt>
      <trkpt lat="44.41171" lon="3.82323">
        <ele>1529.8</ele>
        <time>2022-10-28T14:31:58Z</time>
      </trkpt>
      <trkpt lat="44.41169" lon="3.82324">
        <ele>1529.8</ele>
        <time>2022-10-28T14:31:59Z</time>
      </trkpt>
      <trkpt lat="44.41166" lon="3.82324">
        <ele>1529.6</ele>
        <time>2022-10-28T14:32:00Z</time>
      </trkpt>
      <trkpt lat="44.41164" lon="3.82324">
        <ele>1529.6</ele>
        <time>2022-10-28T14:32:01Z</time>
      </trkpt>
      <trkpt lat="44.41162" lon="3.82325">
        <ele>1529.4</ele>
        <time>2022-10-28T14:32:02Z</time>
      </trkpt>
      <trkpt lat="44.4116" lon="3.82325">
        <ele>1529.4</ele>
        <time>2022-10-28T14:32:03Z</time>
      </trkpt>
      <trkpt lat="44.41157" lon="3.82325">
        <ele>1529.2</ele>
        <time>2022-10-28T14:32:04Z</time>
      </trkpt>
      <trkpt lat="44.41155" lon="3.82325">
        <ele>1529.2</ele>
        <time>2022-10-28T14:32:05Z</time>
      </trkpt>
      <trkpt lat="44.41153" lon="3.82325">
        <ele>1529.2</ele>
        <time>2022-10-28T14:32:06Z</time>
      </trkpt>
      <trkpt lat="44.4115" lon="3.82326">
        <ele>1529</ele>
        <time>2022-10-28T14:32:07Z</time>
      </trkpt>
      <trkpt lat="44.41147" lon="3.82325">
        <ele>1529</ele>
        <time>2022-10-28T14:32:08Z</time>
      </trkpt>
      <trkpt lat="44.41145" lon="3.82326">
        <ele>1528.8</ele>
        <time>2022-10-28T14:32:09Z</time>
      </trkpt>
      <trkpt lat="44.41143" lon="3.82326">
        <ele>1528.8</ele>
        <time>2022-10-28T14:32:10Z</time>
      </trkpt>
      <trkpt lat="44.41141" lon="3.82326">
        <ele>1528.6</ele>
        <time>2022-10-28T14:32:11Z</time>
      </trkpt>
      <trkpt lat="44.41139" lon="3.82327">
        <ele>1528.6</ele>
        <time>2022-10-28T14:32:12Z</time>
      </trkpt>
      <trkpt lat="44.41137" lon="3.82327">
        <ele>1528.4</ele>
        <time>2022-10-28T14:32:13Z</time>
      </trkpt>
      <trkpt lat="44.41134" lon="3.82328">
        <ele>1528.4</ele>
        <time>2022-10-28T14:32:14Z</time>
      </trkpt>
      <trkpt lat="44.41132" lon="3.82327">
        <ele>1528.2</ele>
        <time>2022-10-28T14:32:15Z</time>
      </trkpt>
      <trkpt lat="44.4113" lon="3.82327">
        <ele>1528</ele>
        <time>2022-10-28T14:32:16Z</time>
      </trkpt>
      <trkpt lat="44.41128" lon="3.82327">
        <ele>1527.8</ele>
        <time>2022-10-28T14:32:17Z</time>
      </trkpt>
      <trkpt lat="44.41126" lon="3.82327">
        <ele>1527.6</ele>
        <time>2022-10-28T14:32:18Z</time>
      </trkpt>
      <trkpt lat="44.41124" lon="3.82327">
        <ele>1527.6</ele>
        <time>2022-10-28T14:32:19Z</time>
      </trkpt>
      <trkpt lat="44.41122" lon="3.82328">
        <ele>1527.4</ele>
        <time>2022-10-28T14:32:20Z</time>
      </trkpt>
      <trkpt lat="44.41121" lon="3.82328">
        <ele>1527.2</ele>
        <time>2022-10-28T14:32:21Z</time>
      </trkpt>
      <trkpt lat="44.41119" lon="3.82328">
        <ele>1527.2</ele>
        <time>2022-10-28T14:32:22Z</time>
      </trkpt>
      <trkpt lat="44.41117" lon="3.82328">
        <ele>1527</ele>
        <time>2022-10-28T14:32:23Z</time>
      </trkpt>
      <trkpt lat="44.41115" lon="3.82327">
        <ele>1526.8</ele>
        <time>2022-10-28T14:32:24Z</time>
      </trkpt>
      <trkpt lat="44.41112" lon="3.82327">
        <ele>1526.8</ele>
        <time>2022-10-28T14:32:25Z</time>
      </trkpt>
      <trkpt lat="44.4111" lon="3.82327">
        <ele>1526.6</ele>
        <time>2022-10-28T14:32:26Z</time>
      </trkpt>
      <trkpt lat="44.41108" lon="3.82326">
        <ele>1526.4</ele>
        <time>2022-10-28T14:32:27Z</time>
      </trkpt>
      <trkpt lat="44.41105" lon="3.82326">
        <ele>1526.2</ele>
        <time>2022-10-28T14:32:28Z</time>
      </trkpt>
      <trkpt lat="44.41103" lon="3.82326">
        <ele>1526</ele>
        <time>2022-10-28T14:32:29Z</time>
      </trkpt>
      <trkpt lat="44.41101" lon="3.82325">
        <ele>1525.8</ele>
        <time>2022-10-28T14:32:30Z</time>
      </trkpt>
      <trkpt lat="44.411" lon="3.82325">
        <ele>1525.6</ele>
        <time>2022-10-28T14:32:31Z</time>
      </trkpt>
      <trkpt lat="44.41098" lon="3.82326">
        <ele>1525.4</ele>
        <time>2022-10-28T14:32:32Z</time>
      </trkpt>
      <trkpt lat="44.41096" lon="3.82326">
        <ele>1525.4</ele>
        <time>2022-10-28T14:32:33Z</time>
      </trkpt>
      <trkpt lat="44.41094" lon="3.82326">
        <ele>1525.2</ele>
        <time>2022-10-28T14:32:34Z</time>
      </trkpt>
      <trkpt lat="44.41091" lon="3.82327">
        <ele>1525</ele>
        <time>2022-10-28T14:32:35Z</time>
      </trkpt>
      <trkpt lat="44.41088" lon="3.82327">
        <ele>1524.6</ele>
        <time>2022-10-28T14:32:36Z</time>
      </trkpt>
      <trkpt lat="44.41086" lon="3.82327">
        <ele>1524.6</ele>
        <time>2022-10-28T14:32:37Z</time>
      </trkpt>
      <trkpt lat="44.41083" lon="3.82327">
        <ele>1524.4</ele>
        <time>2022-10-28T14:32:38Z</time>
      </trkpt>
      <trkpt lat="44.41082" lon="3.82326">
        <ele>1524.2</ele>
        <time>2022-10-28T14:32:39Z</time>
      </trkpt>
      <trkpt lat="44.4108" lon="3.82324">
        <ele>1524</ele>
        <time>2022-10-28T14:32:40Z</time>
      </trkpt>
      <trkpt lat="44.41078" lon="3.82322">
        <ele>1523.8</ele>
        <time>2022-10-28T14:32:41Z</time>
      </trkpt>
      <trkpt lat="44.41076" lon="3.82321">
        <ele>1523.6</ele>
        <time>2022-10-28T14:32:42Z</time>
      </trkpt>
      <trkpt lat="44.41073" lon="3.82319">
        <ele>1523.4</ele>
        <time>2022-10-28T14:32:43Z</time>
      </trkpt>
      <trkpt lat="44.4107" lon="3.82317">
        <ele>1523.2</ele>
        <time>2022-10-28T14:32:44Z</time>
      </trkpt>
      <trkpt lat="44.41067" lon="3.82315">
        <ele>1523</ele>
        <time>2022-10-28T14:32:45Z</time>
      </trkpt>
      <trkpt lat="44.41063" lon="3.82313">
        <ele>1522.8</ele>
        <time>2022-10-28T14:32:46Z</time>
      </trkpt>
      <trkpt lat="44.41061" lon="3.82311">
        <ele>1522.6</ele>
        <time>2022-10-28T14:32:47Z</time>
      </trkpt>
      <trkpt lat="44.41058" lon="3.8231">
        <ele>1522.4</ele>
        <time>2022-10-28T14:32:48Z</time>
      </trkpt>
      <trkpt lat="44.41055" lon="3.82309">
        <ele>1522.2</ele>
        <time>2022-10-28T14:32:49Z</time>
      </trkpt>
      <trkpt lat="44.41052" lon="3.82307">
        <ele>1521.8</ele>
        <time>2022-10-28T14:32:50Z</time>
      </trkpt>
      <trkpt lat="44.41049" lon="3.82306">
        <ele>1521.6</ele>
        <time>2022-10-28T14:32:51Z</time>
      </trkpt>
      <trkpt lat="44.41046" lon="3.82304">
        <ele>1521.2</ele>
        <time>2022-10-28T14:32:52Z</time>
      </trkpt>
      <trkpt lat="44.41041" lon="3.82303">
        <ele>1521</ele>
        <time>2022-10-28T14:32:53Z</time>
      </trkpt>
      <trkpt lat="44.41037" lon="3.82302">
        <ele>1521</ele>
        <time>2022-10-28T14:32:54Z</time>
      </trkpt>
      <trkpt lat="44.41033" lon="3.823">
        <ele>1520.6</ele>
        <time>2022-10-28T14:32:55Z</time>
      </trkpt>
      <trkpt lat="44.41029" lon="3.82299">
        <ele>1520.4</ele>
        <time>2022-10-28T14:32:56Z</time>
      </trkpt>
      <trkpt lat="44.41026" lon="3.82298">
        <ele>1520.4</ele>
        <time>2022-10-28T14:32:57Z</time>
      </trkpt>
      <trkpt lat="44.41023" lon="3.82297">
        <ele>1520.2</ele>
        <time>2022-10-28T14:32:58Z</time>
      </trkpt>
      <trkpt lat="44.41022" lon="3.82297">
        <ele>1520.2</ele>
        <time>2022-10-28T14:32:59Z</time>
      </trkpt>
      <trkpt lat="44.41017" lon="3.82298">
        <ele>1520</ele>
        <time>2022-10-28T14:33:11Z</time>
      </trkpt>
      <trkpt lat="44.41017" lon="3.82299">
        <ele>1520</ele>
        <time>2022-10-28T14:33:12Z</time>
      </trkpt>
      <trkpt lat="44.41016" lon="3.823">
        <ele>1520</ele>
        <time>2022-10-28T14:33:13Z</time>
      </trkpt>
      <trkpt lat="44.41015" lon="3.82301">
        <ele>1520</ele>
        <time>2022-10-28T14:33:14Z</time>
      </trkpt>
      <trkpt lat="44.41014" lon="3.82301">
        <ele>1520</ele>
        <time>2022-10-28T14:33:15Z</time>
      </trkpt>
      <trkpt lat="44.41014" lon="3.82302">
        <ele>1519.8</ele>
        <time>2022-10-28T14:33:16Z</time>
      </trkpt>
      <trkpt lat="44.41013" lon="3.82302">
        <ele>1519.8</ele>
        <time>2022-10-28T14:33:17Z</time>
      </trkpt>
      <trkpt lat="44.41013" lon="3.82302">
        <ele>1519.8</ele>
        <time>2022-10-28T14:33:18Z</time>
      </trkpt>
      <trkpt lat="44.41013" lon="3.82302">
        <ele>1519.8</ele>
        <time>2022-10-28T14:33:19Z</time>
      </trkpt>
      <trkpt lat="44.41013" lon="3.82302">
        <ele>1519.8</ele>
        <time>2022-10-28T14:33:20Z</time>
      </trkpt>
      <trkpt lat="44.41013" lon="3.82302">
        <ele>1519.8</ele>
        <time>2022-10-28T14:33:21Z</time>
      </trkpt>
      <trkpt lat="44.41017" lon="3.82302">
        <ele>1519.6</ele>
        <time>2022-10-28T14:34:04Z</time>
      </trkpt>
      <trkpt lat="44.41018" lon="3.82302">
        <ele>1519.6</ele>
        <time>2022-10-28T14:34:05Z</time>
      </trkpt>
      <trkpt lat="44.41019" lon="3.82303">
        <ele>1519.6</ele>
        <time>2022-10-28T14:34:06Z</time>
      </trkpt>
      <trkpt lat="44.4102" lon="3.82303">
        <ele>1519.6</ele>
        <time>2022-10-28T14:34:07Z</time>
      </trkpt>
      <trkpt lat="44.41021" lon="3.82302">
        <ele>1519.6</ele>
        <time>2022-10-28T14:34:08Z</time>
      </trkpt>
      <trkpt lat="44.41021" lon="3.82302">
        <ele>1519.6</ele>
        <time>2022-10-28T14:34:09Z</time>
      </trkpt>
      <trkpt lat="44.41022" lon="3.82301">
        <ele>1519.6</ele>
        <time>2022-10-28T14:34:10Z</time>
      </trkpt>
      <trkpt lat="44.41023" lon="3.823">
        <ele>1519.6</ele>
        <time>2022-10-28T14:34:11Z</time>
      </trkpt>
      <trkpt lat="44.41024" lon="3.823">
        <ele>1519.8</ele>
        <time>2022-10-28T14:34:12Z</time>
      </trkpt>
      <trkpt lat="44.41025" lon="3.82299">
        <ele>1519.8</ele>
        <time>2022-10-28T14:34:13Z</time>
      </trkpt>
      <trkpt lat="44.41026" lon="3.82299">
        <ele>1520</ele>
        <time>2022-10-28T14:34:14Z</time>
      </trkpt>
      <trkpt lat="44.41027" lon="3.82298">
        <ele>1520</ele>
        <time>2022-10-28T14:34:15Z</time>
      </trkpt>
      <trkpt lat="44.41027" lon="3.82298">
        <ele>1520.2</ele>
        <time>2022-10-28T14:34:16Z</time>
      </trkpt>
      <trkpt lat="44.41028" lon="3.82298">
        <ele>1520.2</ele>
        <time>2022-10-28T14:34:17Z</time>
      </trkpt>
      <trkpt lat="44.41028" lon="3.82298">
        <ele>1520.2</ele>
        <time>2022-10-28T14:34:18Z</time>
      </trkpt>
      <trkpt lat="44.41028" lon="3.82298">
        <ele>1520.2</ele>
        <time>2022-10-28T14:34:19Z</time>
      </trkpt>
      <trkpt lat="44.41028" lon="3.82298">
        <ele>1520.4</ele>
        <time>2022-10-28T14:34:20Z</time>
      </trkpt>
      <trkpt lat="44.41028" lon="3.82298">
        <ele>1520.4</ele>
        <time>2022-10-28T14:34:21Z</time>
      </trkpt>
      <trkpt lat="44.41028" lon="3.82298">
        <ele>1520.4</ele>
        <time>2022-10-28T14:34:22Z</time>
      </trkpt>
      <trkpt lat="44.41029" lon="3.82299">
        <ele>1520.4</ele>
        <time>2022-10-28T14:34:34Z</time>
      </trkpt>
      <trkpt lat="44.41031" lon="3.82299">
        <ele>1520.4</ele>
        <time>2022-10-28T14:34:35Z</time>
      </trkpt>
      <trkpt lat="44.41033" lon="3.823">
        <ele>1520.4</ele>
        <time>2022-10-28T14:34:36Z</time>
      </trkpt>
      <trkpt lat="44.41036" lon="3.82301">
        <ele>1520.6</ele>
        <time>2022-10-28T14:34:37Z</time>
      </trkpt>
      <trkpt lat="44.41039" lon="3.82302">
        <ele>1520.6</ele>
        <time>2022-10-28T14:34:38Z</time>
      </trkpt>
      <trkpt lat="44.41041" lon="3.82302">
        <ele>1520.6</ele>
        <time>2022-10-28T14:34:39Z</time>
      </trkpt>
      <trkpt lat="44.41044" lon="3.82303">
        <ele>1520.8</ele>
        <time>2022-10-28T14:34:40Z</time>
      </trkpt>
      <trkpt lat="44.41046" lon="3.82304">
        <ele>1521</ele>
        <time>2022-10-28T14:34:41Z</time>
      </trkpt>
      <trkpt lat="44.41048" lon="3.82305">
        <ele>1521</ele>
        <time>2022-10-28T14:34:42Z</time>
      </trkpt>
      <trkpt lat="44.4105" lon="3.82306">
        <ele>1521.2</ele>
        <time>2022-10-28T14:34:43Z</time>
      </trkpt>
      <trkpt lat="44.41052" lon="3.82307">
        <ele>1521.4</ele>
        <time>2022-10-28T14:34:44Z</time>
      </trkpt>
      <trkpt lat="44.41054" lon="3.82307">
        <ele>1521.6</ele>
        <time>2022-10-28T14:34:45Z</time>
      </trkpt>
      <trkpt lat="44.41056" lon="3.82308">
        <ele>1521.8</ele>
        <time>2022-10-28T14:34:46Z</time>
      </trkpt>
      <trkpt lat="44.41057" lon="3.82309">
        <ele>1522</ele>
        <time>2022-10-28T14:34:47Z</time>
      </trkpt>
      <trkpt lat="44.41059" lon="3.8231">
        <ele>1522.2</ele>
        <time>2022-10-28T14:34:48Z</time>
      </trkpt>
      <trkpt lat="44.4106" lon="3.82311">
        <ele>1522.4</ele>
        <time>2022-10-28T14:34:49Z</time>
      </trkpt>
      <trkpt lat="44.41062" lon="3.82312">
        <ele>1522.6</ele>
        <time>2022-10-28T14:34:50Z</time>
      </trkpt>
      <trkpt lat="44.41064" lon="3.82314">
        <ele>1522.6</ele>
        <time>2022-10-28T14:34:51Z</time>
      </trkpt>
      <trkpt lat="44.41065" lon="3.82315">
        <ele>1522.8</ele>
        <time>2022-10-28T14:34:52Z</time>
      </trkpt>
      <trkpt lat="44.41067" lon="3.82316">
        <ele>1523</ele>
        <time>2022-10-28T14:34:53Z</time>
      </trkpt>
      <trkpt lat="44.41069" lon="3.82317">
        <ele>1523.2</ele>
        <time>2022-10-28T14:34:54Z</time>
      </trkpt>
      <trkpt lat="44.41071" lon="3.82317">
        <ele>1523.4</ele>
        <time>2022-10-28T14:34:55Z</time>
      </trkpt>
      <trkpt lat="44.41073" lon="3.82319">
        <ele>1523.6</ele>
        <time>2022-10-28T14:34:56Z</time>
      </trkpt>
      <trkpt lat="44.41074" lon="3.8232">
        <ele>1523.6</ele>
        <time>2022-10-28T14:34:57Z</time>
      </trkpt>
      <trkpt lat="44.41076" lon="3.82321">
        <ele>1523.8</ele>
        <time>2022-10-28T14:34:58Z</time>
      </trkpt>
      <trkpt lat="44.41077" lon="3.82322">
        <ele>1524</ele>
        <time>2022-10-28T14:34:59Z</time>
      </trkpt>
      <trkpt lat="44.41079" lon="3.82323">
        <ele>1524.2</ele>
        <time>2022-10-28T14:35:00Z</time>
      </trkpt>
      <trkpt lat="44.4108" lon="3.82324">
        <ele>1524.4</ele>
        <time>2022-10-28T14:35:01Z</time>
      </trkpt>
      <trkpt lat="44.41082" lon="3.82326">
        <ele>1524.4</ele>
        <time>2022-10-28T14:35:02Z</time>
      </trkpt>
      <trkpt lat="44.41083" lon="3.82326">
        <ele>1524.6</ele>
        <time>2022-10-28T14:35:03Z</time>
      </trkpt>
      <trkpt lat="44.41085" lon="3.82327">
        <ele>1524.8</ele>
        <time>2022-10-28T14:35:04Z</time>
      </trkpt>
      <trkpt lat="44.41086" lon="3.82327">
        <ele>1524.8</ele>
        <time>2022-10-28T14:35:05Z</time>
      </trkpt>
      <trkpt lat="44.41088" lon="3.82327">
        <ele>1525</ele>
        <time>2022-10-28T14:35:06Z</time>
      </trkpt>
      <trkpt lat="44.41089" lon="3.82327">
        <ele>1525.2</ele>
        <time>2022-10-28T14:35:07Z</time>
      </trkpt>
      <trkpt lat="44.4109" lon="3.82326">
        <ele>1525.4</ele>
        <time>2022-10-28T14:35:08Z</time>
      </trkpt>
      <trkpt lat="44.41092" lon="3.82326">
        <ele>1525.6</ele>
        <time>2022-10-28T14:35:09Z</time>
      </trkpt>
      <trkpt lat="44.41093" lon="3.82326">
        <ele>1525.6</ele>
        <time>2022-10-28T14:35:10Z</time>
      </trkpt>
      <trkpt lat="44.41094" lon="3.82326">
        <ele>1525.8</ele>
        <time>2022-10-28T14:35:11Z</time>
      </trkpt>
      <trkpt lat="44.41094" lon="3.82326">
        <ele>1525.8</ele>
        <time>2022-10-28T14:35:12Z</time>
      </trkpt>
      <trkpt lat="44.41095" lon="3.82326">
        <ele>1526</ele>
        <time>2022-10-28T14:35:13Z</time>
      </trkpt>
      <trkpt lat="44.41095" lon="3.82326">
        <ele>1526</ele>
        <time>2022-10-28T14:35:14Z</time>
      </trkpt>
      <trkpt lat="44.41096" lon="3.82326">
        <ele>1526.2</ele>
        <time>2022-10-28T14:35:15Z</time>
      </trkpt>
      <trkpt lat="44.41097" lon="3.82325">
        <ele>1526.2</ele>
        <time>2022-10-28T14:35:16Z</time>
      </trkpt>
      <trkpt lat="44.41098" lon="3.82325">
        <ele>1526.4</ele>
        <time>2022-10-28T14:35:17Z</time>
      </trkpt>
      <trkpt lat="44.41099" lon="3.82325">
        <ele>1526.4</ele>
        <time>2022-10-28T14:35:18Z</time>
      </trkpt>
      <trkpt lat="44.41099" lon="3.82324">
        <ele>1526.4</ele>
        <time>2022-10-28T14:35:19Z</time>
      </trkpt>
      <trkpt lat="44.411" lon="3.82324">
        <ele>1526.6</ele>
        <time>2022-10-28T14:35:20Z</time>
      </trkpt>
      <trkpt lat="44.41101" lon="3.82324">
        <ele>1526.6</ele>
        <time>2022-10-28T14:35:21Z</time>
      </trkpt>
      <trkpt lat="44.41101" lon="3.82324">
        <ele>1526.6</ele>
        <time>2022-10-28T14:35:22Z</time>
      </trkpt>
      <trkpt lat="44.41103" lon="3.82324">
        <ele>1526.8</ele>
        <time>2022-10-28T14:35:25Z</time>
      </trkpt>
      <trkpt lat="44.41105" lon="3.82325">
        <ele>1527</ele>
        <time>2022-10-28T14:35:26Z</time>
      </trkpt>
      <trkpt lat="44.41106" lon="3.82325">
        <ele>1527</ele>
        <time>2022-10-28T14:35:27Z</time>
      </trkpt>
      <trkpt lat="44.41106" lon="3.82325">
        <ele>1527</ele>
        <time>2022-10-28T14:35:28Z</time>
      </trkpt>
      <trkpt lat="44.41108" lon="3.82326">
        <ele>1527.2</ele>
        <time>2022-10-28T14:35:29Z</time>
      </trkpt>
      <trkpt lat="44.41109" lon="3.82326">
        <ele>1527.4</ele>
        <time>2022-10-28T14:35:30Z</time>
      </trkpt>
      <trkpt lat="44.4111" lon="3.82326">
        <ele>1527.4</ele>
        <time>2022-10-28T14:35:31Z</time>
      </trkpt>
      <trkpt lat="44.41111" lon="3.82326">
        <ele>1527.4</ele>
        <time>2022-10-28T14:35:32Z</time>
      </trkpt>
      <trkpt lat="44.41112" lon="3.82326">
        <ele>1527.6</ele>
        <time>2022-10-28T14:35:33Z</time>
      </trkpt>
      <trkpt lat="44.41112" lon="3.82326">
        <ele>1527.8</ele>
        <time>2022-10-28T14:35:34Z</time>
      </trkpt>
      <trkpt lat="44.41113" lon="3.82326">
        <ele>1527.8</ele>
        <time>2022-10-28T14:35:35Z</time>
      </trkpt>
      <trkpt lat="44.41114" lon="3.82326">
        <ele>1528</ele>
        <time>2022-10-28T14:35:36Z</time>
      </trkpt>
      <trkpt lat="44.41115" lon="3.82326">
        <ele>1528</ele>
        <time>2022-10-28T14:35:37Z</time>
      </trkpt>
      <trkpt lat="44.41116" lon="3.82326">
        <ele>1528.2</ele>
        <time>2022-10-28T14:35:38Z</time>
      </trkpt>
      <trkpt lat="44.41117" lon="3.82326">
        <ele>1528.2</ele>
        <time>2022-10-28T14:35:39Z</time>
      </trkpt>
      <trkpt lat="44.41118" lon="3.82326">
        <ele>1528.2</ele>
        <time>2022-10-28T14:35:40Z</time>
      </trkpt>
      <trkpt lat="44.41119" lon="3.82326">
        <ele>1528.4</ele>
        <time>2022-10-28T14:35:41Z</time>
      </trkpt>
      <trkpt lat="44.4112" lon="3.82327">
        <ele>1528.4</ele>
        <time>2022-10-28T14:35:42Z</time>
      </trkpt>
      <trkpt lat="44.41121" lon="3.82327">
        <ele>1528.4</ele>
        <time>2022-10-28T14:35:43Z</time>
      </trkpt>
      <trkpt lat="44.41122" lon="3.82327">
        <ele>1528.6</ele>
        <time>2022-10-28T14:35:44Z</time>
      </trkpt>
      <trkpt lat="44.41123" lon="3.82327">
        <ele>1528.6</ele>
        <time>2022-10-28T14:35:45Z</time>
      </trkpt>
      <trkpt lat="44.41124" lon="3.82326">
        <ele>1528.8</ele>
        <time>2022-10-28T14:35:46Z</time>
      </trkpt>
      <trkpt lat="44.41125" lon="3.82326">
        <ele>1528.8</ele>
        <time>2022-10-28T14:35:47Z</time>
      </trkpt>
      <trkpt lat="44.41126" lon="3.82326">
        <ele>1529</ele>
        <time>2022-10-28T14:35:48Z</time>
      </trkpt>
      <trkpt lat="44.41127" lon="3.82325">
        <ele>1529</ele>
        <time>2022-10-28T14:35:49Z</time>
      </trkpt>
      <trkpt lat="44.41128" lon="3.82326">
        <ele>1529.2</ele>
        <time>2022-10-28T14:35:50Z</time>
      </trkpt>
      <trkpt lat="44.41129" lon="3.82326">
        <ele>1529.2</ele>
        <time>2022-10-28T14:35:51Z</time>
      </trkpt>
      <trkpt lat="44.4113" lon="3.82326">
        <ele>1529.2</ele>
        <time>2022-10-28T14:35:52Z</time>
      </trkpt>
      <trkpt lat="44.41131" lon="3.82326">
        <ele>1529.4</ele>
        <time>2022-10-28T14:35:53Z</time>
      </trkpt>
      <trkpt lat="44.41133" lon="3.82326">
        <ele>1529.4</ele>
        <time>2022-10-28T14:35:54Z</time>
      </trkpt>
      <trkpt lat="44.41134" lon="3.82326">
        <ele>1529.6</ele>
        <time>2022-10-28T14:35:55Z</time>
      </trkpt>
      <trkpt lat="44.41135" lon="3.82327">
        <ele>1529.6</ele>
        <time>2022-10-28T14:35:56Z</time>
      </trkpt>
      <trkpt lat="44.41136" lon="3.82327">
        <ele>1529.6</ele>
        <time>2022-10-28T14:35:57Z</time>
      </trkpt>
      <trkpt lat="44.41137" lon="3.82326">
        <ele>1529.8</ele>
        <time>2022-10-28T14:35:58Z</time>
      </trkpt>
      <trkpt lat="44.41138" lon="3.82326">
        <ele>1529.8</ele>
        <time>2022-10-28T14:35:59Z</time>
      </trkpt>
      <trkpt lat="44.41139" lon="3.82325">
        <ele>1530</ele>
        <time>2022-10-28T14:36:00Z</time>
      </trkpt>
      <trkpt lat="44.4114" lon="3.82325">
        <ele>1530</ele>
        <time>2022-10-28T14:36:01Z</time>
      </trkpt>
      <trkpt lat="44.41141" lon="3.82324">
        <ele>1530</ele>
        <time>2022-10-28T14:36:02Z</time>
      </trkpt>
      <trkpt lat="44.41142" lon="3.82324">
        <ele>1530.2</ele>
        <time>2022-10-28T14:36:03Z</time>
      </trkpt>
      <trkpt lat="44.41143" lon="3.82324">
        <ele>1530.2</ele>
        <time>2022-10-28T14:36:04Z</time>
      </trkpt>
      <trkpt lat="44.41144" lon="3.82324">
        <ele>1530.2</ele>
        <time>2022-10-28T14:36:05Z</time>
      </trkpt>
      <trkpt lat="44.41145" lon="3.82324">
        <ele>1530.4</ele>
        <time>2022-10-28T14:36:06Z</time>
      </trkpt>
      <trkpt lat="44.41145" lon="3.82324">
        <ele>1530.4</ele>
        <time>2022-10-28T14:36:07Z</time>
      </trkpt>
      <trkpt lat="44.41146" lon="3.82324">
        <ele>1530.4</ele>
        <time>2022-10-28T14:36:08Z</time>
      </trkpt>
      <trkpt lat="44.41148" lon="3.82325">
        <ele>1530.6</ele>
        <time>2022-10-28T14:36:15Z</time>
      </trkpt>
      <trkpt lat="44.41149" lon="3.82325">
        <ele>1530.6</ele>
        <time>2022-10-28T14:36:16Z</time>
      </trkpt>
      <trkpt lat="44.41151" lon="3.82325">
        <ele>1530.6</ele>
        <time>2022-10-28T14:36:17Z</time>
      </trkpt>
      <trkpt lat="44.41153" lon="3.82325">
        <ele>1530.6</ele>
        <time>2022-10-28T14:36:18Z</time>
      </trkpt>
      <trkpt lat="44.41155" lon="3.82325">
        <ele>1530.8</ele>
        <time>2022-10-28T14:36:19Z</time>
      </trkpt>
      <trkpt lat="44.41157" lon="3.82324">
        <ele>1530.8</ele>
        <time>2022-10-28T14:36:20Z</time>
      </trkpt>
      <trkpt lat="44.41159" lon="3.82324">
        <ele>1530.8</ele>
        <time>2022-10-28T14:36:21Z</time>
      </trkpt>
      <trkpt lat="44.41161" lon="3.82324">
        <ele>1531</ele>
        <time>2022-10-28T14:36:22Z</time>
      </trkpt>
      <trkpt lat="44.41163" lon="3.82324">
        <ele>1531</ele>
        <time>2022-10-28T14:36:23Z</time>
      </trkpt>
      <trkpt lat="44.41165" lon="3.82323">
        <ele>1531.2</ele>
        <time>2022-10-28T14:36:24Z</time>
      </trkpt>
      <trkpt lat="44.41166" lon="3.82323">
        <ele>1531.2</ele>
        <time>2022-10-28T14:36:25Z</time>
      </trkpt>
      <trkpt lat="44.41168" lon="3.82323">
        <ele>1531.4</ele>
        <time>2022-10-28T14:36:26Z</time>
      </trkpt>
      <trkpt lat="44.4117" lon="3.82322">
        <ele>1531.4</ele>
        <time>2022-10-28T14:36:27Z</time>
      </trkpt>
      <trkpt lat="44.41172" lon="3.82322">
        <ele>1531.6</ele>
        <time>2022-10-28T14:36:28Z</time>
      </trkpt>
      <trkpt lat="44.41174" lon="3.82321">
        <ele>1531.6</ele>
        <time>2022-10-28T14:36:29Z</time>
      </trkpt>
      <trkpt lat="44.41176" lon="3.8232">
        <ele>1531.8</ele>
        <time>2022-10-28T14:36:30Z</time>
      </trkpt>
      <trkpt lat="44.41178" lon="3.82319">
        <ele>1531.8</ele>
        <time>2022-10-28T14:36:31Z</time>
      </trkpt>
      <trkpt lat="44.41179" lon="3.82317">
        <ele>1532</ele>
        <time>2022-10-28T14:36:32Z</time>
      </trkpt>
      <trkpt lat="44.41181" lon="3.82315">
        <ele>1532</ele>
        <time>2022-10-28T14:36:33Z</time>
      </trkpt>
      <trkpt lat="44.41183" lon="3.82314">
        <ele>1532.2</ele>
        <time>2022-10-28T14:36:34Z</time>
      </trkpt>
      <trkpt lat="44.41184" lon="3.82313">
        <ele>1532.4</ele>
        <time>2022-10-28T14:36:35Z</time>
      </trkpt>
      <trkpt lat="44.41186" lon="3.82311">
        <ele>1532.4</ele>
        <time>2022-10-28T14:36:36Z</time>
      </trkpt>
      <trkpt lat="44.41187" lon="3.8231">
        <ele>1532.6</ele>
        <time>2022-10-28T14:36:37Z</time>
      </trkpt>
      <trkpt lat="44.41189" lon="3.82308">
        <ele>1532.6</ele>
        <time>2022-10-28T14:36:38Z</time>
      </trkpt>
      <trkpt lat="44.4119" lon="3.82307">
        <ele>1532.8</ele>
        <time>2022-10-28T14:36:39Z</time>
      </trkpt>
      <trkpt lat="44.41191" lon="3.82306">
        <ele>1532.8</ele>
        <time>2022-10-28T14:36:40Z</time>
      </trkpt>
      <trkpt lat="44.41191" lon="3.82306">
        <ele>1533</ele>
        <time>2022-10-28T14:36:41Z</time>
      </trkpt>
      <trkpt lat="44.41191" lon="3.82306">
        <ele>1533</ele>
        <time>2022-10-28T14:36:42Z</time>
      </trkpt>
      <trkpt lat="44.41192" lon="3.82306">
        <ele>1533</ele>
        <time>2022-10-28T14:36:43Z</time>
      </trkpt>
      <trkpt lat="44.41193" lon="3.82306">
        <ele>1533</ele>
        <time>2022-10-28T14:36:44Z</time>
      </trkpt>
      <trkpt lat="44.41194" lon="3.82306">
        <ele>1533.2</ele>
        <time>2022-10-28T14:36:45Z</time>
      </trkpt>
      <trkpt lat="44.41195" lon="3.82305">
        <ele>1533.2</ele>
        <time>2022-10-28T14:36:46Z</time>
      </trkpt>
      <trkpt lat="44.41197" lon="3.82305">
        <ele>1533.2</ele>
        <time>2022-10-28T14:36:47Z</time>
      </trkpt>
      <trkpt lat="44.41198" lon="3.82304">
        <ele>1533.2</ele>
        <time>2022-10-28T14:36:48Z</time>
      </trkpt>
      <trkpt lat="44.412" lon="3.82303">
        <ele>1533.4</ele>
        <time>2022-10-28T14:36:49Z</time>
      </trkpt>
      <trkpt lat="44.41201" lon="3.82301">
        <ele>1533.4</ele>
        <time>2022-10-28T14:36:50Z</time>
      </trkpt>
      <trkpt lat="44.41203" lon="3.823">
        <ele>1533.4</ele>
        <time>2022-10-28T14:36:51Z</time>
      </trkpt>
      <trkpt lat="44.41204" lon="3.82298">
        <ele>1533.6</ele>
        <time>2022-10-28T14:36:52Z</time>
      </trkpt>
      <trkpt lat="44.41205" lon="3.82297">
        <ele>1533.6</ele>
        <time>2022-10-28T14:36:53Z</time>
      </trkpt>
      <trkpt lat="44.41207" lon="3.82295">
        <ele>1533.8</ele>
        <time>2022-10-28T14:36:54Z</time>
      </trkpt>
      <trkpt lat="44.41208" lon="3.82293">
        <ele>1533.8</ele>
        <time>2022-10-28T14:36:55Z</time>
      </trkpt>
      <trkpt lat="44.41209" lon="3.82292">
        <ele>1534</ele>
        <time>2022-10-28T14:36:56Z</time>
      </trkpt>
      <trkpt lat="44.41211" lon="3.8229">
        <ele>1534</ele>
        <time>2022-10-28T14:36:57Z</time>
      </trkpt>
      <trkpt lat="44.41212" lon="3.82289">
        <ele>1534.2</ele>
        <time>2022-10-28T14:36:58Z</time>
      </trkpt>
      <trkpt lat="44.41213" lon="3.82287">
        <ele>1534.2</ele>
        <time>2022-10-28T14:36:59Z</time>
      </trkpt>
      <trkpt lat="44.41214" lon="3.82285">
        <ele>1534.4</ele>
        <time>2022-10-28T14:37:00Z</time>
      </trkpt>
      <trkpt lat="44.41215" lon="3.82283">
        <ele>1534.4</ele>
        <time>2022-10-28T14:37:01Z</time>
      </trkpt>
      <trkpt lat="44.41216" lon="3.82281">
        <ele>1534.6</ele>
        <time>2022-10-28T14:37:02Z</time>
      </trkpt>
      <trkpt lat="44.41217" lon="3.82279">
        <ele>1534.6</ele>
        <time>2022-10-28T14:37:03Z</time>
      </trkpt>
      <trkpt lat="44.41218" lon="3.82277">
        <ele>1534.8</ele>
        <time>2022-10-28T14:37:04Z</time>
      </trkpt>
      <trkpt lat="44.41219" lon="3.82275">
        <ele>1535</ele>
        <time>2022-10-28T14:37:05Z</time>
      </trkpt>
      <trkpt lat="44.4122" lon="3.82273">
        <ele>1535</ele>
        <time>2022-10-28T14:37:06Z</time>
      </trkpt>
      <trkpt lat="44.41221" lon="3.82271">
        <ele>1535.2</ele>
        <time>2022-10-28T14:37:07Z</time>
      </trkpt>
      <trkpt lat="44.41222" lon="3.82269">
        <ele>1535.2</ele>
        <time>2022-10-28T14:37:08Z</time>
      </trkpt>
      <trkpt lat="44.41223" lon="3.82267">
        <ele>1535.4</ele>
        <time>2022-10-28T14:37:09Z</time>
      </trkpt>
      <trkpt lat="44.41224" lon="3.82265">
        <ele>1535.4</ele>
        <time>2022-10-28T14:37:10Z</time>
      </trkpt>
      <trkpt lat="44.41226" lon="3.82263">
        <ele>1535.6</ele>
        <time>2022-10-28T14:37:11Z</time>
      </trkpt>
      <trkpt lat="44.41227" lon="3.82261">
        <ele>1535.6</ele>
        <time>2022-10-28T14:37:12Z</time>
      </trkpt>
      <trkpt lat="44.41228" lon="3.82259">
        <ele>1535.8</ele>
        <time>2022-10-28T14:37:13Z</time>
      </trkpt>
      <trkpt lat="44.41229" lon="3.82257">
        <ele>1535.8</ele>
        <time>2022-10-28T14:37:14Z</time>
      </trkpt>
      <trkpt lat="44.4123" lon="3.82255">
        <ele>1536</ele>
        <time>2022-10-28T14:37:15Z</time>
      </trkpt>
      <trkpt lat="44.41231" lon="3.82253">
        <ele>1536</ele>
        <time>2022-10-28T14:37:16Z</time>
      </trkpt>
      <trkpt lat="44.41232" lon="3.82251">
        <ele>1536.2</ele>
        <time>2022-10-28T14:37:17Z</time>
      </trkpt>
      <trkpt lat="44.41234" lon="3.82249">
        <ele>1536.2</ele>
        <time>2022-10-28T14:37:18Z</time>
      </trkpt>
      <trkpt lat="44.41235" lon="3.82247">
        <ele>1536.4</ele>
        <time>2022-10-28T14:37:19Z</time>
      </trkpt>
      <trkpt lat="44.41236" lon="3.82245">
        <ele>1536.4</ele>
        <time>2022-10-28T14:37:20Z</time>
      </trkpt>
      <trkpt lat="44.41237" lon="3.82243">
        <ele>1536.6</ele>
        <time>2022-10-28T14:37:21Z</time>
      </trkpt>
      <trkpt lat="44.41238" lon="3.82241">
        <ele>1536.6</ele>
        <time>2022-10-28T14:37:22Z</time>
      </trkpt>
      <trkpt lat="44.4124" lon="3.82239">
        <ele>1536.6</ele>
        <time>2022-10-28T14:37:23Z</time>
      </trkpt>
      <trkpt lat="44.41241" lon="3.82236">
        <ele>1536.8</ele>
        <time>2022-10-28T14:37:24Z</time>
      </trkpt>
      <trkpt lat="44.41242" lon="3.82234">
        <ele>1536.8</ele>
        <time>2022-10-28T14:37:25Z</time>
      </trkpt>
      <trkpt lat="44.41243" lon="3.82232">
        <ele>1536.8</ele>
        <time>2022-10-28T14:37:26Z</time>
      </trkpt>
      <trkpt lat="44.41244" lon="3.82229">
        <ele>1536.8</ele>
        <time>2022-10-28T14:37:27Z</time>
      </trkpt>
      <trkpt lat="44.41245" lon="3.82227">
        <ele>1536.8</ele>
        <time>2022-10-28T14:37:28Z</time>
      </trkpt>
      <trkpt lat="44.41246" lon="3.82224">
        <ele>1537</ele>
        <time>2022-10-28T14:37:29Z</time>
      </trkpt>
      <trkpt lat="44.41248" lon="3.82222">
        <ele>1537</ele>
        <time>2022-10-28T14:37:30Z</time>
      </trkpt>
      <trkpt lat="44.41249" lon="3.82219">
        <ele>1537</ele>
        <time>2022-10-28T14:37:31Z</time>
      </trkpt>
      <trkpt lat="44.4125" lon="3.82217">
        <ele>1537</ele>
        <time>2022-10-28T14:37:32Z</time>
      </trkpt>
      <trkpt lat="44.41252" lon="3.82215">
        <ele>1537.2</ele>
        <time>2022-10-28T14:37:33Z</time>
      </trkpt>
      <trkpt lat="44.41253" lon="3.82213">
        <ele>1537.2</ele>
        <time>2022-10-28T14:37:34Z</time>
      </trkpt>
      <trkpt lat="44.41254" lon="3.8221">
        <ele>1537.2</ele>
        <time>2022-10-28T14:37:35Z</time>
      </trkpt>
      <trkpt lat="44.41255" lon="3.82208">
        <ele>1537.2</ele>
        <time>2022-10-28T14:37:36Z</time>
      </trkpt>
      <trkpt lat="44.41257" lon="3.82206">
        <ele>1537.4</ele>
        <time>2022-10-28T14:37:37Z</time>
      </trkpt>
      <trkpt lat="44.41258" lon="3.82205">
        <ele>1537.4</ele>
        <time>2022-10-28T14:37:38Z</time>
      </trkpt>
      <trkpt lat="44.4126" lon="3.82203">
        <ele>1537.4</ele>
        <time>2022-10-28T14:37:39Z</time>
      </trkpt>
      <trkpt lat="44.41261" lon="3.82202">
        <ele>1537.6</ele>
        <time>2022-10-28T14:37:40Z</time>
      </trkpt>
      <trkpt lat="44.41263" lon="3.822">
        <ele>1537.6</ele>
        <time>2022-10-28T14:37:41Z</time>
      </trkpt>
      <trkpt lat="44.41264" lon="3.82198">
        <ele>1537.8</ele>
        <time>2022-10-28T14:37:42Z</time>
      </trkpt>
      <trkpt lat="44.41266" lon="3.82196">
        <ele>1537.8</ele>
        <time>2022-10-28T14:37:43Z</time>
      </trkpt>
      <trkpt lat="44.41267" lon="3.82194">
        <ele>1538</ele>
        <time>2022-10-28T14:37:44Z</time>
      </trkpt>
      <trkpt lat="44.41269" lon="3.82192">
        <ele>1538</ele>
        <time>2022-10-28T14:37:45Z</time>
      </trkpt>
      <trkpt lat="44.4127" lon="3.82189">
        <ele>1538.2</ele>
        <time>2022-10-28T14:37:46Z</time>
      </trkpt>
      <trkpt lat="44.41272" lon="3.82187">
        <ele>1538.2</ele>
        <time>2022-10-28T14:37:47Z</time>
      </trkpt>
      <trkpt lat="44.41273" lon="3.82185">
        <ele>1538.4</ele>
        <time>2022-10-28T14:37:48Z</time>
      </trkpt>
      <trkpt lat="44.41274" lon="3.82183">
        <ele>1538.4</ele>
        <time>2022-10-28T14:37:49Z</time>
      </trkpt>
      <trkpt lat="44.41275" lon="3.82181">
        <ele>1538.6</ele>
        <time>2022-10-28T14:37:50Z</time>
      </trkpt>
      <trkpt lat="44.41277" lon="3.82179">
        <ele>1538.6</ele>
        <time>2022-10-28T14:37:51Z</time>
      </trkpt>
      <trkpt lat="44.41278" lon="3.82177">
        <ele>1538.8</ele>
        <time>2022-10-28T14:37:52Z</time>
      </trkpt>
      <trkpt lat="44.41279" lon="3.82175">
        <ele>1538.8</ele>
        <time>2022-10-28T14:37:53Z</time>
      </trkpt>
      <trkpt lat="44.41281" lon="3.82174">
        <ele>1539</ele>
        <time>2022-10-28T14:37:54Z</time>
      </trkpt>
      <trkpt lat="44.41282" lon="3.82172">
        <ele>1539</ele>
        <time>2022-10-28T14:37:55Z</time>
      </trkpt>
      <trkpt lat="44.41283" lon="3.8217">
        <ele>1539.2</ele>
        <time>2022-10-28T14:37:56Z</time>
      </trkpt>
      <trkpt lat="44.41284" lon="3.82168">
        <ele>1539.2</ele>
        <time>2022-10-28T14:37:57Z</time>
      </trkpt>
      <trkpt lat="44.41285" lon="3.82167">
        <ele>1539.4</ele>
        <time>2022-10-28T14:37:58Z</time>
      </trkpt>
      <trkpt lat="44.41286" lon="3.82166">
        <ele>1539.4</ele>
        <time>2022-10-28T14:37:59Z</time>
      </trkpt>
      <trkpt lat="44.41287" lon="3.82164">
        <ele>1539.4</ele>
        <time>2022-10-28T14:38:00Z</time>
      </trkpt>
      <trkpt lat="44.41289" lon="3.82162">
        <ele>1539.6</ele>
        <time>2022-10-28T14:38:01Z</time>
      </trkpt>
      <trkpt lat="44.4129" lon="3.8216">
        <ele>1539.6</ele>
        <time>2022-10-28T14:38:02Z</time>
      </trkpt>
      <trkpt lat="44.41291" lon="3.82158">
        <ele>1539.8</ele>
        <time>2022-10-28T14:38:03Z</time>
      </trkpt>
      <trkpt lat="44.41292" lon="3.82156">
        <ele>1539.8</ele>
        <time>2022-10-28T14:38:04Z</time>
      </trkpt>
      <trkpt lat="44.41294" lon="3.82155">
        <ele>1540</ele>
        <time>2022-10-28T14:38:05Z</time>
      </trkpt>
      <trkpt lat="44.41295" lon="3.82153">
        <ele>1540</ele>
        <time>2022-10-28T14:38:06Z</time>
      </trkpt>
      <trkpt lat="44.41296" lon="3.82151">
        <ele>1540.2</ele>
        <time>2022-10-28T14:38:07Z</time>
      </trkpt>
      <trkpt lat="44.41297" lon="3.8215">
        <ele>1540.2</ele>
        <time>2022-10-28T14:38:08Z</time>
      </trkpt>
      <trkpt lat="44.41298" lon="3.82148">
        <ele>1540.4</ele>
        <time>2022-10-28T14:38:09Z</time>
      </trkpt>
      <trkpt lat="44.41299" lon="3.82146">
        <ele>1540.4</ele>
        <time>2022-10-28T14:38:10Z</time>
      </trkpt>
      <trkpt lat="44.413" lon="3.82144">
        <ele>1540.6</ele>
        <time>2022-10-28T14:38:11Z</time>
      </trkpt>
      <trkpt lat="44.41302" lon="3.82143">
        <ele>1540.6</ele>
        <time>2022-10-28T14:38:12Z</time>
      </trkpt>
      <trkpt lat="44.41303" lon="3.8214">
        <ele>1540.8</ele>
        <time>2022-10-28T14:38:13Z</time>
      </trkpt>
      <trkpt lat="44.41304" lon="3.82139">
        <ele>1540.8</ele>
        <time>2022-10-28T14:38:14Z</time>
      </trkpt>
      <trkpt lat="44.41305" lon="3.82137">
        <ele>1541</ele>
        <time>2022-10-28T14:38:15Z</time>
      </trkpt>
      <trkpt lat="44.41306" lon="3.82136">
        <ele>1541</ele>
        <time>2022-10-28T14:38:16Z</time>
      </trkpt>
      <trkpt lat="44.41307" lon="3.82135">
        <ele>1541.2</ele>
        <time>2022-10-28T14:38:17Z</time>
      </trkpt>
      <trkpt lat="44.41308" lon="3.82133">
        <ele>1541.2</ele>
        <time>2022-10-28T14:38:18Z</time>
      </trkpt>
      <trkpt lat="44.41309" lon="3.82131">
        <ele>1541.2</ele>
        <time>2022-10-28T14:38:19Z</time>
      </trkpt>
      <trkpt lat="44.4131" lon="3.82129">
        <ele>1541.4</ele>
        <time>2022-10-28T14:38:20Z</time>
      </trkpt>
      <trkpt lat="44.41311" lon="3.82127">
        <ele>1541.6</ele>
        <time>2022-10-28T14:38:21Z</time>
      </trkpt>
      <trkpt lat="44.41312" lon="3.82126">
        <ele>1541.6</ele>
        <time>2022-10-28T14:38:22Z</time>
      </trkpt>
      <trkpt lat="44.41313" lon="3.82124">
        <ele>1541.6</ele>
        <time>2022-10-28T14:38:23Z</time>
      </trkpt>
      <trkpt lat="44.41314" lon="3.82123">
        <ele>1541.8</ele>
        <time>2022-10-28T14:38:24Z</time>
      </trkpt>
      <trkpt lat="44.41315" lon="3.82121">
        <ele>1541.8</ele>
        <time>2022-10-28T14:38:25Z</time>
      </trkpt>
      <trkpt lat="44.41316" lon="3.82119">
        <ele>1542</ele>
        <time>2022-10-28T14:38:26Z</time>
      </trkpt>
      <trkpt lat="44.41317" lon="3.82117">
        <ele>1542.2</ele>
        <time>2022-10-28T14:38:27Z</time>
      </trkpt>
      <trkpt lat="44.41318" lon="3.82115">
        <ele>1542.2</ele>
        <time>2022-10-28T14:38:28Z</time>
      </trkpt>
      <trkpt lat="44.41318" lon="3.82113">
        <ele>1542.2</ele>
        <time>2022-10-28T14:38:29Z</time>
      </trkpt>
      <trkpt lat="44.41319" lon="3.82111">
        <ele>1542.4</ele>
        <time>2022-10-28T14:38:30Z</time>
      </trkpt>
      <trkpt lat="44.4132" lon="3.82109">
        <ele>1542.4</ele>
        <time>2022-10-28T14:38:31Z</time>
      </trkpt>
      <trkpt lat="44.41322" lon="3.82106">
        <ele>1542.4</ele>
        <time>2022-10-28T14:38:32Z</time>
      </trkpt>
      <trkpt lat="44.41323" lon="3.82104">
        <ele>1542.6</ele>
        <time>2022-10-28T14:38:33Z</time>
      </trkpt>
      <trkpt lat="44.41324" lon="3.82102">
        <ele>1542.6</ele>
        <time>2022-10-28T14:38:34Z</time>
      </trkpt>
      <trkpt lat="44.41326" lon="3.82101">
        <ele>1542.6</ele>
        <time>2022-10-28T14:38:35Z</time>
      </trkpt>
      <trkpt lat="44.41327" lon="3.82098">
        <ele>1542.6</ele>
        <time>2022-10-28T14:38:36Z</time>
      </trkpt>
      <trkpt lat="44.41329" lon="3.82096">
        <ele>1542.8</ele>
        <time>2022-10-28T14:38:37Z</time>
      </trkpt>
      <trkpt lat="44.4133" lon="3.82094">
        <ele>1542.8</ele>
        <time>2022-10-28T14:38:38Z</time>
      </trkpt>
      <trkpt lat="44.41332" lon="3.82092">
        <ele>1542.8</ele>
        <time>2022-10-28T14:38:39Z</time>
      </trkpt>
      <trkpt lat="44.41333" lon="3.82089">
        <ele>1543</ele>
        <time>2022-10-28T14:38:40Z</time>
      </trkpt>
      <trkpt lat="44.41335" lon="3.82087">
        <ele>1543</ele>
        <time>2022-10-28T14:38:41Z</time>
      </trkpt>
      <trkpt lat="44.41336" lon="3.82085">
        <ele>1543</ele>
        <time>2022-10-28T14:38:42Z</time>
      </trkpt>
      <trkpt lat="44.41337" lon="3.82083">
        <ele>1543</ele>
        <time>2022-10-28T14:38:43Z</time>
      </trkpt>
      <trkpt lat="44.41339" lon="3.82082">
        <ele>1543.2</ele>
        <time>2022-10-28T14:38:44Z</time>
      </trkpt>
      <trkpt lat="44.4134" lon="3.8208">
        <ele>1543.2</ele>
        <time>2022-10-28T14:38:45Z</time>
      </trkpt>
      <trkpt lat="44.41341" lon="3.82078">
        <ele>1543.2</ele>
        <time>2022-10-28T14:38:46Z</time>
      </trkpt>
      <trkpt lat="44.41343" lon="3.82076">
        <ele>1543.4</ele>
        <time>2022-10-28T14:38:47Z</time>
      </trkpt>
      <trkpt lat="44.41344" lon="3.82074">
        <ele>1543.4</ele>
        <time>2022-10-28T14:38:48Z</time>
      </trkpt>
      <trkpt lat="44.41346" lon="3.82072">
        <ele>1543.4</ele>
        <time>2022-10-28T14:38:49Z</time>
      </trkpt>
      <trkpt lat="44.41347" lon="3.82071">
        <ele>1543.6</ele>
        <time>2022-10-28T14:38:50Z</time>
      </trkpt>
      <trkpt lat="44.41348" lon="3.82069">
        <ele>1543.6</ele>
        <time>2022-10-28T14:38:51Z</time>
      </trkpt>
      <trkpt lat="44.41349" lon="3.82067">
        <ele>1543.6</ele>
        <time>2022-10-28T14:38:52Z</time>
      </trkpt>
      <trkpt lat="44.41351" lon="3.82065">
        <ele>1543.8</ele>
        <time>2022-10-28T14:38:53Z</time>
      </trkpt>
      <trkpt lat="44.41352" lon="3.82063">
        <ele>1543.8</ele>
        <time>2022-10-28T14:38:54Z</time>
      </trkpt>
      <trkpt lat="44.41353" lon="3.82061">
        <ele>1543.8</ele>
        <time>2022-10-28T14:38:55Z</time>
      </trkpt>
      <trkpt lat="44.41354" lon="3.82059">
        <ele>1544</ele>
        <time>2022-10-28T14:38:56Z</time>
      </trkpt>
      <trkpt lat="44.41355" lon="3.82057">
        <ele>1544</ele>
        <time>2022-10-28T14:38:57Z</time>
      </trkpt>
      <trkpt lat="44.41356" lon="3.82055">
        <ele>1544.2</ele>
        <time>2022-10-28T14:38:58Z</time>
      </trkpt>
      <trkpt lat="44.41358" lon="3.82053">
        <ele>1544.2</ele>
        <time>2022-10-28T14:38:59Z</time>
      </trkpt>
      <trkpt lat="44.41359" lon="3.82051">
        <ele>1544.4</ele>
        <time>2022-10-28T14:39:00Z</time>
      </trkpt>
      <trkpt lat="44.4136" lon="3.82049">
        <ele>1544.4</ele>
        <time>2022-10-28T14:39:01Z</time>
      </trkpt>
      <trkpt lat="44.41361" lon="3.82047">
        <ele>1544.4</ele>
        <time>2022-10-28T14:39:02Z</time>
      </trkpt>
      <trkpt lat="44.41362" lon="3.82045">
        <ele>1544.6</ele>
        <time>2022-10-28T14:39:03Z</time>
      </trkpt>
      <trkpt lat="44.41363" lon="3.82043">
        <ele>1544.6</ele>
        <time>2022-10-28T14:39:04Z</time>
      </trkpt>
      <trkpt lat="44.41363" lon="3.82041">
        <ele>1544.6</ele>
        <time>2022-10-28T14:39:05Z</time>
      </trkpt>
      <trkpt lat="44.41364" lon="3.82039">
        <ele>1544.8</ele>
        <time>2022-10-28T14:39:06Z</time>
      </trkpt>
      <trkpt lat="44.41365" lon="3.82038">
        <ele>1544.8</ele>
        <time>2022-10-28T14:39:07Z</time>
      </trkpt>
      <trkpt lat="44.41366" lon="3.82036">
        <ele>1544.8</ele>
        <time>2022-10-28T14:39:08Z</time>
      </trkpt>
      <trkpt lat="44.41368" lon="3.82034">
        <ele>1544.8</ele>
        <time>2022-10-28T14:39:09Z</time>
      </trkpt>
      <trkpt lat="44.41369" lon="3.82033">
        <ele>1545</ele>
        <time>2022-10-28T14:39:10Z</time>
      </trkpt>
      <trkpt lat="44.4137" lon="3.82031">
        <ele>1545</ele>
        <time>2022-10-28T14:39:11Z</time>
      </trkpt>
      <trkpt lat="44.41371" lon="3.82028">
        <ele>1545</ele>
        <time>2022-10-28T14:39:12Z</time>
      </trkpt>
      <trkpt lat="44.41372" lon="3.82026">
        <ele>1545.2</ele>
        <time>2022-10-28T14:39:13Z</time>
      </trkpt>
      <trkpt lat="44.41373" lon="3.82024">
        <ele>1545.2</ele>
        <time>2022-10-28T14:39:14Z</time>
      </trkpt>
      <trkpt lat="44.41374" lon="3.82022">
        <ele>1545.2</ele>
        <time>2022-10-28T14:39:15Z</time>
      </trkpt>
      <trkpt lat="44.41374" lon="3.82019">
        <ele>1545.4</ele>
        <time>2022-10-28T14:39:16Z</time>
      </trkpt>
      <trkpt lat="44.41375" lon="3.82017">
        <ele>1545.4</ele>
        <time>2022-10-28T14:39:17Z</time>
      </trkpt>
      <trkpt lat="44.41376" lon="3.82015">
        <ele>1545.4</ele>
        <time>2022-10-28T14:39:18Z</time>
      </trkpt>
      <trkpt lat="44.41377" lon="3.82013">
        <ele>1545.6</ele>
        <time>2022-10-28T14:39:19Z</time>
      </trkpt>
      <trkpt lat="44.41378" lon="3.82011">
        <ele>1545.6</ele>
        <time>2022-10-28T14:39:20Z</time>
      </trkpt>
      <trkpt lat="44.4138" lon="3.82009">
        <ele>1545.8</ele>
        <time>2022-10-28T14:39:21Z</time>
      </trkpt>
      <trkpt lat="44.4138" lon="3.82006">
        <ele>1545.8</ele>
        <time>2022-10-28T14:39:22Z</time>
      </trkpt>
      <trkpt lat="44.41381" lon="3.82004">
        <ele>1546</ele>
        <time>2022-10-28T14:39:23Z</time>
      </trkpt>
      <trkpt lat="44.41381" lon="3.82001">
        <ele>1546</ele>
        <time>2022-10-28T14:39:24Z</time>
      </trkpt>
      <trkpt lat="44.41382" lon="3.81998">
        <ele>1546</ele>
        <time>2022-10-28T14:39:25Z</time>
      </trkpt>
      <trkpt lat="44.41382" lon="3.81996">
        <ele>1546.2</ele>
        <time>2022-10-28T14:39:26Z</time>
      </trkpt>
      <trkpt lat="44.41383" lon="3.81993">
        <ele>1546.2</ele>
        <time>2022-10-28T14:39:27Z</time>
      </trkpt>
      <trkpt lat="44.41384" lon="3.81991">
        <ele>1546.2</ele>
        <time>2022-10-28T14:39:28Z</time>
      </trkpt>
      <trkpt lat="44.41385" lon="3.81989">
        <ele>1546.4</ele>
        <time>2022-10-28T14:39:29Z</time>
      </trkpt>
      <trkpt lat="44.41386" lon="3.81986">
        <ele>1546.4</ele>
        <time>2022-10-28T14:39:30Z</time>
      </trkpt>
      <trkpt lat="44.41388" lon="3.81984">
        <ele>1546.4</ele>
        <time>2022-10-28T14:39:31Z</time>
      </trkpt>
      <trkpt lat="44.41389" lon="3.81982">
        <ele>1546.4</ele>
        <time>2022-10-28T14:39:32Z</time>
      </trkpt>
      <trkpt lat="44.4139" lon="3.81979">
        <ele>1546.6</ele>
        <time>2022-10-28T14:39:33Z</time>
      </trkpt>
      <trkpt lat="44.41392" lon="3.81977">
        <ele>1546.6</ele>
        <time>2022-10-28T14:39:34Z</time>
      </trkpt>
      <trkpt lat="44.41393" lon="3.81975">
        <ele>1546.6</ele>
        <time>2022-10-28T14:39:35Z</time>
      </trkpt>
      <trkpt lat="44.41394" lon="3.81972">
        <ele>1546.6</ele>
        <time>2022-10-28T14:39:36Z</time>
      </trkpt>
      <trkpt lat="44.41396" lon="3.8197">
        <ele>1546.6</ele>
        <time>2022-10-28T14:39:37Z</time>
      </trkpt>
      <trkpt lat="44.41397" lon="3.81968">
        <ele>1546.6</ele>
        <time>2022-10-28T14:39:38Z</time>
      </trkpt>
      <trkpt lat="44.41399" lon="3.81966">
        <ele>1546.6</ele>
        <time>2022-10-28T14:39:39Z</time>
      </trkpt>
      <trkpt lat="44.41401" lon="3.81964">
        <ele>1546.6</ele>
        <time>2022-10-28T14:39:40Z</time>
      </trkpt>
      <trkpt lat="44.41402" lon="3.81962">
        <ele>1546.6</ele>
        <time>2022-10-28T14:39:41Z</time>
      </trkpt>
      <trkpt lat="44.41404" lon="3.8196">
        <ele>1546.6</ele>
        <time>2022-10-28T14:39:42Z</time>
      </trkpt>
      <trkpt lat="44.41405" lon="3.81958">
        <ele>1546.6</ele>
        <time>2022-10-28T14:39:43Z</time>
      </trkpt>
      <trkpt lat="44.41406" lon="3.81956">
        <ele>1546.8</ele>
        <time>2022-10-28T14:39:44Z</time>
      </trkpt>
      <trkpt lat="44.41407" lon="3.81954">
        <ele>1546.8</ele>
        <time>2022-10-28T14:39:45Z</time>
      </trkpt>
      <trkpt lat="44.41409" lon="3.81952">
        <ele>1546.8</ele>
        <time>2022-10-28T14:39:46Z</time>
      </trkpt>
      <trkpt lat="44.4141" lon="3.81951">
        <ele>1546.8</ele>
        <time>2022-10-28T14:39:47Z</time>
      </trkpt>
      <trkpt lat="44.4141" lon="3.81949">
        <ele>1546.8</ele>
        <time>2022-10-28T14:39:48Z</time>
      </trkpt>
      <trkpt lat="44.41412" lon="3.81947">
        <ele>1546.8</ele>
        <time>2022-10-28T14:39:49Z</time>
      </trkpt>
      <trkpt lat="44.41413" lon="3.81946">
        <ele>1546.8</ele>
        <time>2022-10-28T14:39:50Z</time>
      </trkpt>
      <trkpt lat="44.41414" lon="3.81945">
        <ele>1546.8</ele>
        <time>2022-10-28T14:39:51Z</time>
      </trkpt>
      <trkpt lat="44.41416" lon="3.81944">
        <ele>1546.6</ele>
        <time>2022-10-28T14:39:52Z</time>
      </trkpt>
      <trkpt lat="44.41417" lon="3.81944">
        <ele>1546.6</ele>
        <time>2022-10-28T14:39:53Z</time>
      </trkpt>
      <trkpt lat="44.41418" lon="3.81945">
        <ele>1546.6</ele>
        <time>2022-10-28T14:39:54Z</time>
      </trkpt>
      <trkpt lat="44.41419" lon="3.81945">
        <ele>1546.4</ele>
        <time>2022-10-28T14:39:55Z</time>
      </trkpt>
      <trkpt lat="44.41419" lon="3.81945">
        <ele>1546.4</ele>
        <time>2022-10-28T14:39:56Z</time>
      </trkpt>
      <trkpt lat="44.41421" lon="3.81945">
        <ele>1546.4</ele>
        <time>2022-10-28T14:40:00Z</time>
      </trkpt>
      <trkpt lat="44.41421" lon="3.81945">
        <ele>1546.4</ele>
        <time>2022-10-28T14:40:01Z</time>
      </trkpt>
      <trkpt lat="44.41421" lon="3.81945">
        <ele>1546.2</ele>
        <time>2022-10-28T14:40:02Z</time>
      </trkpt>
      <trkpt lat="44.41422" lon="3.81945">
        <ele>1546.2</ele>
        <time>2022-10-28T14:40:03Z</time>
      </trkpt>
      <trkpt lat="44.41422" lon="3.81945">
        <ele>1546.2</ele>
        <time>2022-10-28T14:40:04Z</time>
      </trkpt>
      <trkpt lat="44.41422" lon="3.81945">
        <ele>1546.2</ele>
        <time>2022-10-28T14:40:05Z</time>
      </trkpt>
      <trkpt lat="44.41426" lon="3.81947">
        <ele>1546.2</ele>
        <time>2022-10-28T14:40:46Z</time>
      </trkpt>
      <trkpt lat="44.41429" lon="3.81947">
        <ele>1546.2</ele>
        <time>2022-10-28T14:40:47Z</time>
      </trkpt>
      <trkpt lat="44.41431" lon="3.81947">
        <ele>1546.2</ele>
        <time>2022-10-28T14:40:48Z</time>
      </trkpt>
      <trkpt lat="44.41434" lon="3.81948">
        <ele>1546.2</ele>
        <time>2022-10-28T14:40:49Z</time>
      </trkpt>
      <trkpt lat="44.41436" lon="3.81948">
        <ele>1546.4</ele>
        <time>2022-10-28T14:40:50Z</time>
      </trkpt>
      <trkpt lat="44.41438" lon="3.81949">
        <ele>1546.4</ele>
        <time>2022-10-28T14:40:51Z</time>
      </trkpt>
      <trkpt lat="44.4144" lon="3.81949">
        <ele>1546.4</ele>
        <time>2022-10-28T14:40:52Z</time>
      </trkpt>
      <trkpt lat="44.41442" lon="3.81949">
        <ele>1546.4</ele>
        <time>2022-10-28T14:40:53Z</time>
      </trkpt>
      <trkpt lat="44.41444" lon="3.8195">
        <ele>1546.4</ele>
        <time>2022-10-28T14:40:54Z</time>
      </trkpt>
      <trkpt lat="44.41446" lon="3.8195">
        <ele>1546.6</ele>
        <time>2022-10-28T14:40:55Z</time>
      </trkpt>
      <trkpt lat="44.41448" lon="3.81951">
        <ele>1546.6</ele>
        <time>2022-10-28T14:40:56Z</time>
      </trkpt>
      <trkpt lat="44.4145" lon="3.81952">
        <ele>1546.6</ele>
        <time>2022-10-28T14:40:57Z</time>
      </trkpt>
      <trkpt lat="44.41452" lon="3.81953">
        <ele>1546.6</ele>
        <time>2022-10-28T14:40:58Z</time>
      </trkpt>
      <trkpt lat="44.41454" lon="3.81953">
        <ele>1546.6</ele>
        <time>2022-10-28T14:40:59Z</time>
      </trkpt>
      <trkpt lat="44.41456" lon="3.81954">
        <ele>1546.6</ele>
        <time>2022-10-28T14:41:00Z</time>
      </trkpt>
      <trkpt lat="44.41458" lon="3.81955">
        <ele>1546.6</ele>
        <time>2022-10-28T14:41:01Z</time>
      </trkpt>
      <trkpt lat="44.4146" lon="3.81955">
        <ele>1546.6</ele>
        <time>2022-10-28T14:41:02Z</time>
      </trkpt>
      <trkpt lat="44.41461" lon="3.81956">
        <ele>1546.8</ele>
        <time>2022-10-28T14:41:03Z</time>
      </trkpt>
      <trkpt lat="44.41462" lon="3.81956">
        <ele>1546.8</ele>
        <time>2022-10-28T14:41:04Z</time>
      </trkpt>
      <trkpt lat="44.41462" lon="3.81956">
        <ele>1546.8</ele>
        <time>2022-10-28T14:41:05Z</time>
      </trkpt>
      <trkpt lat="44.41462" lon="3.81956">
        <ele>1546.8</ele>
        <time>2022-10-28T14:41:06Z</time>
      </trkpt>
      <trkpt lat="44.41461" lon="3.81957">
        <ele>1546.8</ele>
        <time>2022-10-28T14:41:07Z</time>
      </trkpt>
      <trkpt lat="44.41461" lon="3.81957">
        <ele>1546.8</ele>
        <time>2022-10-28T14:41:08Z</time>
      </trkpt>
      <trkpt lat="44.41461" lon="3.81957">
        <ele>1546.8</ele>
        <time>2022-10-28T14:41:09Z</time>
      </trkpt>
      <trkpt lat="44.41459" lon="3.81956">
        <ele>1546.8</ele>
        <time>2022-10-28T14:41:12Z</time>
      </trkpt>
      <trkpt lat="44.41458" lon="3.81956">
        <ele>1547</ele>
        <time>2022-10-28T14:41:13Z</time>
      </trkpt>
      <trkpt lat="44.41456" lon="3.81955">
        <ele>1547</ele>
        <time>2022-10-28T14:41:14Z</time>
      </trkpt>
      <trkpt lat="44.41454" lon="3.81954">
        <ele>1547</ele>
        <time>2022-10-28T14:41:15Z</time>
      </trkpt>
      <trkpt lat="44.41451" lon="3.81953">
        <ele>1547</ele>
        <time>2022-10-28T14:41:16Z</time>
      </trkpt>
      <trkpt lat="44.41449" lon="3.81952">
        <ele>1547</ele>
        <time>2022-10-28T14:41:17Z</time>
      </trkpt>
      <trkpt lat="44.41446" lon="3.81952">
        <ele>1547</ele>
        <time>2022-10-28T14:41:18Z</time>
      </trkpt>
      <trkpt lat="44.41443" lon="3.81951">
        <ele>1547</ele>
        <time>2022-10-28T14:41:19Z</time>
      </trkpt>
      <trkpt lat="44.41441" lon="3.81951">
        <ele>1547</ele>
        <time>2022-10-28T14:41:20Z</time>
      </trkpt>
      <trkpt lat="44.41439" lon="3.8195">
        <ele>1547</ele>
        <time>2022-10-28T14:41:21Z</time>
      </trkpt>
      <trkpt lat="44.41436" lon="3.8195">
        <ele>1546.8</ele>
        <time>2022-10-28T14:41:22Z</time>
      </trkpt>
      <trkpt lat="44.41434" lon="3.81949">
        <ele>1546.8</ele>
        <time>2022-10-28T14:41:23Z</time>
      </trkpt>
      <trkpt lat="44.41432" lon="3.81949">
        <ele>1546.8</ele>
        <time>2022-10-28T14:41:24Z</time>
      </trkpt>
      <trkpt lat="44.4143" lon="3.81948">
        <ele>1546.6</ele>
        <time>2022-10-28T14:41:25Z</time>
      </trkpt>
      <trkpt lat="44.41428" lon="3.81948">
        <ele>1546.6</ele>
        <time>2022-10-28T14:41:26Z</time>
      </trkpt>
      <trkpt lat="44.41427" lon="3.81947">
        <ele>1546.4</ele>
        <time>2022-10-28T14:41:27Z</time>
      </trkpt>
      <trkpt lat="44.41426" lon="3.81947">
        <ele>1546.4</ele>
        <time>2022-10-28T14:41:28Z</time>
      </trkpt>
      <trkpt lat="44.41425" lon="3.81947">
        <ele>1546.4</ele>
        <time>2022-10-28T14:41:29Z</time>
      </trkpt>
      <trkpt lat="44.41425" lon="3.81946">
        <ele>1546.2</ele>
        <time>2022-10-28T14:41:30Z</time>
      </trkpt>
      <trkpt lat="44.41424" lon="3.81946">
        <ele>1546.2</ele>
        <time>2022-10-28T14:41:31Z</time>
      </trkpt>
      <trkpt lat="44.41424" lon="3.81946">
        <ele>1546.2</ele>
        <time>2022-10-28T14:41:32Z</time>
      </trkpt>
      <trkpt lat="44.41424" lon="3.81946">
        <ele>1546</ele>
        <time>2022-10-28T14:41:33Z</time>
      </trkpt>
      <trkpt lat="44.41424" lon="3.81946">
        <ele>1546</ele>
        <time>2022-10-28T14:41:34Z</time>
      </trkpt>
      <trkpt lat="44.41425" lon="3.81946">
        <ele>1546</ele>
        <time>2022-10-28T14:41:39Z</time>
      </trkpt>
      <trkpt lat="44.41425" lon="3.81947">
        <ele>1546</ele>
        <time>2022-10-28T14:41:40Z</time>
      </trkpt>
      <trkpt lat="44.41426" lon="3.81947">
        <ele>1546</ele>
        <time>2022-10-28T14:41:41Z</time>
      </trkpt>
      <trkpt lat="44.41426" lon="3.81948">
        <ele>1545.8</ele>
        <time>2022-10-28T14:41:42Z</time>
      </trkpt>
      <trkpt lat="44.41427" lon="3.81948">
        <ele>1545.8</ele>
        <time>2022-10-28T14:41:43Z</time>
      </trkpt>
      <trkpt lat="44.41428" lon="3.81948">
        <ele>1546</ele>
        <time>2022-10-28T14:41:44Z</time>
      </trkpt>
      <trkpt lat="44.4143" lon="3.81948">
        <ele>1546</ele>
        <time>2022-10-28T14:41:45Z</time>
      </trkpt>
      <trkpt lat="44.41431" lon="3.81948">
        <ele>1546</ele>
        <time>2022-10-28T14:41:46Z</time>
      </trkpt>
      <trkpt lat="44.41433" lon="3.81949">
        <ele>1546</ele>
        <time>2022-10-28T14:41:47Z</time>
      </trkpt>
      <trkpt lat="44.41436" lon="3.81949">
        <ele>1546</ele>
        <time>2022-10-28T14:41:48Z</time>
      </trkpt>
      <trkpt lat="44.41438" lon="3.8195">
        <ele>1546</ele>
        <time>2022-10-28T14:41:49Z</time>
      </trkpt>
      <trkpt lat="44.41441" lon="3.8195">
        <ele>1546.2</ele>
        <time>2022-10-28T14:41:50Z</time>
      </trkpt>
      <trkpt lat="44.41443" lon="3.81951">
        <ele>1546.2</ele>
        <time>2022-10-28T14:41:51Z</time>
      </trkpt>
      <trkpt lat="44.41445" lon="3.81951">
        <ele>1546.2</ele>
        <time>2022-10-28T14:41:52Z</time>
      </trkpt>
      <trkpt lat="44.41447" lon="3.81952">
        <ele>1546.2</ele>
        <time>2022-10-28T14:41:53Z</time>
      </trkpt>
      <trkpt lat="44.41449" lon="3.81953">
        <ele>1546.2</ele>
        <time>2022-10-28T14:41:54Z</time>
      </trkpt>
      <trkpt lat="44.41452" lon="3.81953">
        <ele>1546.2</ele>
        <time>2022-10-28T14:41:55Z</time>
      </trkpt>
      <trkpt lat="44.41455" lon="3.81954">
        <ele>1546.4</ele>
        <time>2022-10-28T14:41:56Z</time>
      </trkpt>
      <trkpt lat="44.41457" lon="3.81955">
        <ele>1546.4</ele>
        <time>2022-10-28T14:41:57Z</time>
      </trkpt>
      <trkpt lat="44.41459" lon="3.81956">
        <ele>1546.4</ele>
        <time>2022-10-28T14:41:58Z</time>
      </trkpt>
      <trkpt lat="44.41462" lon="3.81957">
        <ele>1546.4</ele>
        <time>2022-10-28T14:41:59Z</time>
      </trkpt>
      <trkpt lat="44.41464" lon="3.81959">
        <ele>1546.4</ele>
        <time>2022-10-28T14:42:00Z</time>
      </trkpt>
      <trkpt lat="44.41466" lon="3.8196">
        <ele>1546.6</ele>
        <time>2022-10-28T14:42:01Z</time>
      </trkpt>
      <trkpt lat="44.41468" lon="3.81961">
        <ele>1546.6</ele>
        <time>2022-10-28T14:42:02Z</time>
      </trkpt>
      <trkpt lat="44.41471" lon="3.81962">
        <ele>1546.6</ele>
        <time>2022-10-28T14:42:03Z</time>
      </trkpt>
      <trkpt lat="44.41473" lon="3.81963">
        <ele>1546.8</ele>
        <time>2022-10-28T14:42:04Z</time>
      </trkpt>
      <trkpt lat="44.41475" lon="3.81964">
        <ele>1546.8</ele>
        <time>2022-10-28T14:42:05Z</time>
      </trkpt>
      <trkpt lat="44.41477" lon="3.81965">
        <ele>1547</ele>
        <time>2022-10-28T14:42:06Z</time>
      </trkpt>
      <trkpt lat="44.41479" lon="3.81966">
        <ele>1547.2</ele>
        <time>2022-10-28T14:42:07Z</time>
      </trkpt>
      <trkpt lat="44.41481" lon="3.81967">
        <ele>1547.2</ele>
        <time>2022-10-28T14:42:08Z</time>
      </trkpt>
      <trkpt lat="44.41482" lon="3.81968">
        <ele>1547.4</ele>
        <time>2022-10-28T14:42:09Z</time>
      </trkpt>
      <trkpt lat="44.41485" lon="3.81969">
        <ele>1547.4</ele>
        <time>2022-10-28T14:42:10Z</time>
      </trkpt>
      <trkpt lat="44.41487" lon="3.8197">
        <ele>1547.6</ele>
        <time>2022-10-28T14:42:11Z</time>
      </trkpt>
      <trkpt lat="44.41489" lon="3.81971">
        <ele>1547.6</ele>
        <time>2022-10-28T14:42:12Z</time>
      </trkpt>
      <trkpt lat="44.41491" lon="3.81972">
        <ele>1547.8</ele>
        <time>2022-10-28T14:42:13Z</time>
      </trkpt>
      <trkpt lat="44.41493" lon="3.81973">
        <ele>1547.8</ele>
        <time>2022-10-28T14:42:14Z</time>
      </trkpt>
      <trkpt lat="44.41495" lon="3.81974">
        <ele>1548</ele>
        <time>2022-10-28T14:42:15Z</time>
      </trkpt>
      <trkpt lat="44.41497" lon="3.81975">
        <ele>1548</ele>
        <time>2022-10-28T14:42:16Z</time>
      </trkpt>
      <trkpt lat="44.41499" lon="3.81975">
        <ele>1548.2</ele>
        <time>2022-10-28T14:42:17Z</time>
      </trkpt>
      <trkpt lat="44.41502" lon="3.81976">
        <ele>1548.2</ele>
        <time>2022-10-28T14:42:18Z</time>
      </trkpt>
      <trkpt lat="44.41503" lon="3.81976">
        <ele>1548.4</ele>
        <time>2022-10-28T14:42:19Z</time>
      </trkpt>
      <trkpt lat="44.41505" lon="3.81977">
        <ele>1548.4</ele>
        <time>2022-10-28T14:42:20Z</time>
      </trkpt>
      <trkpt lat="44.41507" lon="3.81978">
        <ele>1548.6</ele>
        <time>2022-10-28T14:42:21Z</time>
      </trkpt>
      <trkpt lat="44.41509" lon="3.81979">
        <ele>1548.6</ele>
        <time>2022-10-28T14:42:22Z</time>
      </trkpt>
      <trkpt lat="44.41511" lon="3.81981">
        <ele>1548.6</ele>
        <time>2022-10-28T14:42:23Z</time>
      </trkpt>
      <trkpt lat="44.41513" lon="3.81982">
        <ele>1548.8</ele>
        <time>2022-10-28T14:42:24Z</time>
      </trkpt>
      <trkpt lat="44.41515" lon="3.81982">
        <ele>1549</ele>
        <time>2022-10-28T14:42:25Z</time>
      </trkpt>
      <trkpt lat="44.41517" lon="3.81983">
        <ele>1549</ele>
        <time>2022-10-28T14:42:26Z</time>
      </trkpt>
      <trkpt lat="44.41518" lon="3.81984">
        <ele>1549.2</ele>
        <time>2022-10-28T14:42:27Z</time>
      </trkpt>
      <trkpt lat="44.4152" lon="3.81984">
        <ele>1549.2</ele>
        <time>2022-10-28T14:42:28Z</time>
      </trkpt>
      <trkpt lat="44.41521" lon="3.81985">
        <ele>1549.4</ele>
        <time>2022-10-28T14:42:29Z</time>
      </trkpt>
      <trkpt lat="44.41522" lon="3.81985">
        <ele>1549.4</ele>
        <time>2022-10-28T14:42:30Z</time>
      </trkpt>
      <trkpt lat="44.41523" lon="3.81986">
        <ele>1549.4</ele>
        <time>2022-10-28T14:42:31Z</time>
      </trkpt>
      <trkpt lat="44.41523" lon="3.81986">
        <ele>1549.6</ele>
        <time>2022-10-28T14:42:32Z</time>
      </trkpt>
      <trkpt lat="44.41524" lon="3.81986">
        <ele>1549.6</ele>
        <time>2022-10-28T14:42:33Z</time>
      </trkpt>
      <trkpt lat="44.41526" lon="3.81987">
        <ele>1549.6</ele>
        <time>2022-10-28T14:42:34Z</time>
      </trkpt>
      <trkpt lat="44.41527" lon="3.81988">
        <ele>1549.8</ele>
        <time>2022-10-28T14:42:35Z</time>
      </trkpt>
      <trkpt lat="44.41528" lon="3.81989">
        <ele>1549.8</ele>
        <time>2022-10-28T14:42:36Z</time>
      </trkpt>
      <trkpt lat="44.4153" lon="3.8199">
        <ele>1550</ele>
        <time>2022-10-28T14:42:37Z</time>
      </trkpt>
      <trkpt lat="44.41532" lon="3.8199">
        <ele>1550</ele>
        <time>2022-10-28T14:42:38Z</time>
      </trkpt>
      <trkpt lat="44.41534" lon="3.81991">
        <ele>1550.2</ele>
        <time>2022-10-28T14:42:39Z</time>
      </trkpt>
      <trkpt lat="44.41535" lon="3.81992">
        <ele>1550.4</ele>
        <time>2022-10-28T14:42:40Z</time>
      </trkpt>
      <trkpt lat="44.41537" lon="3.81994">
        <ele>1550.6</ele>
        <time>2022-10-28T14:42:41Z</time>
      </trkpt>
      <trkpt lat="44.41538" lon="3.81995">
        <ele>1550.6</ele>
        <time>2022-10-28T14:42:42Z</time>
      </trkpt>
      <trkpt lat="44.41539" lon="3.81996">
        <ele>1550.8</ele>
        <time>2022-10-28T14:42:43Z</time>
      </trkpt>
      <trkpt lat="44.41541" lon="3.81997">
        <ele>1551</ele>
        <time>2022-10-28T14:42:44Z</time>
      </trkpt>
      <trkpt lat="44.41542" lon="3.81999">
        <ele>1551.2</ele>
        <time>2022-10-28T14:42:45Z</time>
      </trkpt>
      <trkpt lat="44.41543" lon="3.82">
        <ele>1551.4</ele>
        <time>2022-10-28T14:42:46Z</time>
      </trkpt>
      <trkpt lat="44.41545" lon="3.82001">
        <ele>1551.6</ele>
        <time>2022-10-28T14:42:47Z</time>
      </trkpt>
      <trkpt lat="44.41546" lon="3.82002">
        <ele>1551.6</ele>
        <time>2022-10-28T14:42:48Z</time>
      </trkpt>
      <trkpt lat="44.41548" lon="3.82004">
        <ele>1551.8</ele>
        <time>2022-10-28T14:42:49Z</time>
      </trkpt>
      <trkpt lat="44.41549" lon="3.82006">
        <ele>1551.8</ele>
        <time>2022-10-28T14:42:50Z</time>
      </trkpt>
      <trkpt lat="44.4155" lon="3.82008">
        <ele>1552</ele>
        <time>2022-10-28T14:42:51Z</time>
      </trkpt>
      <trkpt lat="44.41552" lon="3.82009">
        <ele>1552</ele>
        <time>2022-10-28T14:42:52Z</time>
      </trkpt>
      <trkpt lat="44.41554" lon="3.8201">
        <ele>1552.2</ele>
        <time>2022-10-28T14:42:53Z</time>
      </trkpt>
      <trkpt lat="44.41556" lon="3.82011">
        <ele>1552.4</ele>
        <time>2022-10-28T14:42:54Z</time>
      </trkpt>
      <trkpt lat="44.41557" lon="3.82011">
        <ele>1552.6</ele>
        <time>2022-10-28T14:42:55Z</time>
      </trkpt>
      <trkpt lat="44.41558" lon="3.82013">
        <ele>1552.8</ele>
        <time>2022-10-28T14:42:56Z</time>
      </trkpt>
      <trkpt lat="44.41559" lon="3.82014">
        <ele>1553</ele>
        <time>2022-10-28T14:42:57Z</time>
      </trkpt>
      <trkpt lat="44.4156" lon="3.82015">
        <ele>1553.2</ele>
        <time>2022-10-28T14:42:58Z</time>
      </trkpt>
      <trkpt lat="44.4156" lon="3.82016">
        <ele>1553.2</ele>
        <time>2022-10-28T14:42:59Z</time>
      </trkpt>
      <trkpt lat="44.41561" lon="3.82017">
        <ele>1553.4</ele>
        <time>2022-10-28T14:43:00Z</time>
      </trkpt>
      <trkpt lat="44.41561" lon="3.82018">
        <ele>1553.4</ele>
        <time>2022-10-28T14:43:01Z</time>
      </trkpt>
      <trkpt lat="44.41561" lon="3.82018">
        <ele>1553.4</ele>
        <time>2022-10-28T14:43:02Z</time>
      </trkpt>
      <trkpt lat="44.41562" lon="3.82019">
        <ele>1553.6</ele>
        <time>2022-10-28T14:43:03Z</time>
      </trkpt>
      <trkpt lat="44.41563" lon="3.8202">
        <ele>1553.8</ele>
        <time>2022-10-28T14:43:04Z</time>
      </trkpt>
      <trkpt lat="44.41563" lon="3.82021">
        <ele>1553.8</ele>
        <time>2022-10-28T14:43:05Z</time>
      </trkpt>
      <trkpt lat="44.41564" lon="3.82022">
        <ele>1554</ele>
        <time>2022-10-28T14:43:06Z</time>
      </trkpt>
      <trkpt lat="44.41564" lon="3.82022">
        <ele>1554</ele>
        <time>2022-10-28T14:43:07Z</time>
      </trkpt>
      <trkpt lat="44.41565" lon="3.82023">
        <ele>1554.2</ele>
        <time>2022-10-28T14:43:08Z</time>
      </trkpt>
      <trkpt lat="44.41565" lon="3.82023">
        <ele>1554.2</ele>
        <time>2022-10-28T14:43:09Z</time>
      </trkpt>
      <trkpt lat="44.41566" lon="3.82024">
        <ele>1554.2</ele>
        <time>2022-10-28T14:43:10Z</time>
      </trkpt>
      <trkpt lat="44.41566" lon="3.82024">
        <ele>1554.4</ele>
        <time>2022-10-28T14:43:11Z</time>
      </trkpt>
      <trkpt lat="44.41567" lon="3.82025">
        <ele>1554.4</ele>
        <time>2022-10-28T14:43:12Z</time>
      </trkpt>
      <trkpt lat="44.41568" lon="3.82026">
        <ele>1554.6</ele>
        <time>2022-10-28T14:43:13Z</time>
      </trkpt>
      <trkpt lat="44.41569" lon="3.82028">
        <ele>1554.8</ele>
        <time>2022-10-28T14:43:14Z</time>
      </trkpt>
      <trkpt lat="44.4157" lon="3.82029">
        <ele>1554.8</ele>
        <time>2022-10-28T14:43:15Z</time>
      </trkpt>
      <trkpt lat="44.41571" lon="3.8203">
        <ele>1555</ele>
        <time>2022-10-28T14:43:16Z</time>
      </trkpt>
      <trkpt lat="44.41572" lon="3.82032">
        <ele>1555.2</ele>
        <time>2022-10-28T14:43:17Z</time>
      </trkpt>
      <trkpt lat="44.41573" lon="3.82034">
        <ele>1555.2</ele>
        <time>2022-10-28T14:43:18Z</time>
      </trkpt>
      <trkpt lat="44.41574" lon="3.82035">
        <ele>1555.4</ele>
        <time>2022-10-28T14:43:19Z</time>
      </trkpt>
      <trkpt lat="44.41575" lon="3.82036">
        <ele>1555.6</ele>
        <time>2022-10-28T14:43:20Z</time>
      </trkpt>
      <trkpt lat="44.41576" lon="3.82038">
        <ele>1555.8</ele>
        <time>2022-10-28T14:43:21Z</time>
      </trkpt>
      <trkpt lat="44.41578" lon="3.82038">
        <ele>1555.8</ele>
        <time>2022-10-28T14:43:22Z</time>
      </trkpt>
      <trkpt lat="44.41579" lon="3.82039">
        <ele>1556</ele>
        <time>2022-10-28T14:43:23Z</time>
      </trkpt>
      <trkpt lat="44.4158" lon="3.8204">
        <ele>1556.2</ele>
        <time>2022-10-28T14:43:24Z</time>
      </trkpt>
      <trkpt lat="44.41582" lon="3.8204">
        <ele>1556.2</ele>
        <time>2022-10-28T14:43:25Z</time>
      </trkpt>
      <trkpt lat="44.41583" lon="3.82039">
        <ele>1556.4</ele>
        <time>2022-10-28T14:43:26Z</time>
      </trkpt>
      <trkpt lat="44.41585" lon="3.82039">
        <ele>1556.6</ele>
        <time>2022-10-28T14:43:27Z</time>
      </trkpt>
      <trkpt lat="44.41587" lon="3.82038">
        <ele>1556.8</ele>
        <time>2022-10-28T14:43:28Z</time>
      </trkpt>
      <trkpt lat="44.41589" lon="3.82038">
        <ele>1556.8</ele>
        <time>2022-10-28T14:43:29Z</time>
      </trkpt>
      <trkpt lat="44.4159" lon="3.82038">
        <ele>1557</ele>
        <time>2022-10-28T14:43:30Z</time>
      </trkpt>
      <trkpt lat="44.41592" lon="3.82038">
        <ele>1557.2</ele>
        <time>2022-10-28T14:43:31Z</time>
      </trkpt>
      <trkpt lat="44.41594" lon="3.82039">
        <ele>1557.4</ele>
        <time>2022-10-28T14:43:32Z</time>
      </trkpt>
      <trkpt lat="44.41595" lon="3.82039">
        <ele>1557.6</ele>
        <time>2022-10-28T14:43:33Z</time>
      </trkpt>
      <trkpt lat="44.41597" lon="3.8204">
        <ele>1557.8</ele>
        <time>2022-10-28T14:43:34Z</time>
      </trkpt>
      <trkpt lat="44.41598" lon="3.8204">
        <ele>1558</ele>
        <time>2022-10-28T14:43:35Z</time>
      </trkpt>
      <trkpt lat="44.416" lon="3.82041">
        <ele>1558.2</ele>
        <time>2022-10-28T14:43:36Z</time>
      </trkpt>
      <trkpt lat="44.41601" lon="3.82041">
        <ele>1558.4</ele>
        <time>2022-10-28T14:43:37Z</time>
      </trkpt>
      <trkpt lat="44.41603" lon="3.82041">
        <ele>1558.6</ele>
        <time>2022-10-28T14:43:38Z</time>
      </trkpt>
      <trkpt lat="44.41604" lon="3.82041">
        <ele>1558.8</ele>
        <time>2022-10-28T14:43:39Z</time>
      </trkpt>
      <trkpt lat="44.41606" lon="3.82041">
        <ele>1558.8</ele>
        <time>2022-10-28T14:43:40Z</time>
      </trkpt>
      <trkpt lat="44.41608" lon="3.82042">
        <ele>1559</ele>
        <time>2022-10-28T14:43:41Z</time>
      </trkpt>
      <trkpt lat="44.41609" lon="3.82042">
        <ele>1559.2</ele>
        <time>2022-10-28T14:43:42Z</time>
      </trkpt>
      <trkpt lat="44.41611" lon="3.82043">
        <ele>1559.4</ele>
        <time>2022-10-28T14:43:43Z</time>
      </trkpt>
      <trkpt lat="44.41612" lon="3.82044">
        <ele>1559.6</ele>
        <time>2022-10-28T14:43:44Z</time>
      </trkpt>
      <trkpt lat="44.41614" lon="3.82045">
        <ele>1559.8</ele>
        <time>2022-10-28T14:43:45Z</time>
      </trkpt>
      <trkpt lat="44.41615" lon="3.82046">
        <ele>1560</ele>
        <time>2022-10-28T14:43:46Z</time>
      </trkpt>
      <trkpt lat="44.41616" lon="3.82047">
        <ele>1560.2</ele>
        <time>2022-10-28T14:43:47Z</time>
      </trkpt>
      <trkpt lat="44.41618" lon="3.82048">
        <ele>1560.4</ele>
        <time>2022-10-28T14:43:48Z</time>
      </trkpt>
      <trkpt lat="44.41619" lon="3.82049">
        <ele>1560.6</ele>
        <time>2022-10-28T14:43:49Z</time>
      </trkpt>
      <trkpt lat="44.4162" lon="3.8205">
        <ele>1560.8</ele>
        <time>2022-10-28T14:43:50Z</time>
      </trkpt>
      <trkpt lat="44.41622" lon="3.82051">
        <ele>1561</ele>
        <time>2022-10-28T14:43:51Z</time>
      </trkpt>
      <trkpt lat="44.41623" lon="3.82053">
        <ele>1561.2</ele>
        <time>2022-10-28T14:43:52Z</time>
      </trkpt>
      <trkpt lat="44.41625" lon="3.82054">
        <ele>1561.4</ele>
        <time>2022-10-28T14:43:53Z</time>
      </trkpt>
      <trkpt lat="44.41626" lon="3.82055">
        <ele>1561.6</ele>
        <time>2022-10-28T14:43:54Z</time>
      </trkpt>
      <trkpt lat="44.41628" lon="3.82057">
        <ele>1561.6</ele>
        <time>2022-10-28T14:43:55Z</time>
      </trkpt>
      <trkpt lat="44.41629" lon="3.82058">
        <ele>1561.8</ele>
        <time>2022-10-28T14:43:56Z</time>
      </trkpt>
      <trkpt lat="44.41631" lon="3.82059">
        <ele>1562</ele>
        <time>2022-10-28T14:43:57Z</time>
      </trkpt>
      <trkpt lat="44.41632" lon="3.8206">
        <ele>1562.2</ele>
        <time>2022-10-28T14:43:58Z</time>
      </trkpt>
      <trkpt lat="44.41633" lon="3.82061">
        <ele>1562.2</ele>
        <time>2022-10-28T14:43:59Z</time>
      </trkpt>
      <trkpt lat="44.41635" lon="3.82063">
        <ele>1562.4</ele>
        <time>2022-10-28T14:44:00Z</time>
      </trkpt>
      <trkpt lat="44.41636" lon="3.82064">
        <ele>1562.6</ele>
        <time>2022-10-28T14:44:01Z</time>
      </trkpt>
      <trkpt lat="44.41638" lon="3.82065">
        <ele>1562.6</ele>
        <time>2022-10-28T14:44:02Z</time>
      </trkpt>
      <trkpt lat="44.41639" lon="3.82066">
        <ele>1562.8</ele>
        <time>2022-10-28T14:44:03Z</time>
      </trkpt>
      <trkpt lat="44.41641" lon="3.82068">
        <ele>1563</ele>
        <time>2022-10-28T14:44:04Z</time>
      </trkpt>
      <trkpt lat="44.41642" lon="3.82069">
        <ele>1563.2</ele>
        <time>2022-10-28T14:44:05Z</time>
      </trkpt>
      <trkpt lat="44.41643" lon="3.82071">
        <ele>1563.2</ele>
        <time>2022-10-28T14:44:06Z</time>
      </trkpt>
      <trkpt lat="44.41644" lon="3.82072">
        <ele>1563.4</ele>
        <time>2022-10-28T14:44:07Z</time>
      </trkpt>
      <trkpt lat="44.41646" lon="3.82073">
        <ele>1563.4</ele>
        <time>2022-10-28T14:44:08Z</time>
      </trkpt>
      <trkpt lat="44.41647" lon="3.82075">
        <ele>1563.6</ele>
        <time>2022-10-28T14:44:09Z</time>
      </trkpt>
      <trkpt lat="44.41648" lon="3.82076">
        <ele>1563.6</ele>
        <time>2022-10-28T14:44:10Z</time>
      </trkpt>
      <trkpt lat="44.4165" lon="3.82078">
        <ele>1563.8</ele>
        <time>2022-10-28T14:44:11Z</time>
      </trkpt>
      <trkpt lat="44.41651" lon="3.82079">
        <ele>1563.8</ele>
        <time>2022-10-28T14:44:12Z</time>
      </trkpt>
      <trkpt lat="44.41653" lon="3.8208">
        <ele>1564</ele>
        <time>2022-10-28T14:44:13Z</time>
      </trkpt>
      <trkpt lat="44.41654" lon="3.82081">
        <ele>1564</ele>
        <time>2022-10-28T14:44:14Z</time>
      </trkpt>
      <trkpt lat="44.41656" lon="3.82082">
        <ele>1563.8</ele>
        <time>2022-10-28T14:44:15Z</time>
      </trkpt>
      <trkpt lat="44.41658" lon="3.82084">
        <ele>1563.8</ele>
        <time>2022-10-28T14:44:16Z</time>
      </trkpt>
      <trkpt lat="44.41661" lon="3.82086">
        <ele>1563.6</ele>
        <time>2022-10-28T14:44:17Z</time>
      </trkpt>
      <trkpt lat="44.41663" lon="3.82088">
        <ele>1563.8</ele>
        <time>2022-10-28T14:44:18Z</time>
      </trkpt>
      <trkpt lat="44.41665" lon="3.82089">
        <ele>1563.8</ele>
        <time>2022-10-28T14:44:19Z</time>
      </trkpt>
      <trkpt lat="44.41667" lon="3.82091">
        <ele>1563.8</ele>
        <time>2022-10-28T14:44:20Z</time>
      </trkpt>
      <trkpt lat="44.41668" lon="3.82092">
        <ele>1564</ele>
        <time>2022-10-28T14:44:21Z</time>
      </trkpt>
      <trkpt lat="44.4167" lon="3.82093">
        <ele>1564.2</ele>
        <time>2022-10-28T14:44:22Z</time>
      </trkpt>
      <trkpt lat="44.41671" lon="3.82094">
        <ele>1564.2</ele>
        <time>2022-10-28T14:44:23Z</time>
      </trkpt>
      <trkpt lat="44.41673" lon="3.82096">
        <ele>1564.2</ele>
        <time>2022-10-28T14:44:24Z</time>
      </trkpt>
      <trkpt lat="44.41674" lon="3.82098">
        <ele>1564.2</ele>
        <time>2022-10-28T14:44:25Z</time>
      </trkpt>
      <trkpt lat="44.41676" lon="3.821">
        <ele>1564.2</ele>
        <time>2022-10-28T14:44:26Z</time>
      </trkpt>
      <trkpt lat="44.41678" lon="3.82103">
        <ele>1564.2</ele>
        <time>2022-10-28T14:44:27Z</time>
      </trkpt>
      <trkpt lat="44.4168" lon="3.82105">
        <ele>1564</ele>
        <time>2022-10-28T14:44:28Z</time>
      </trkpt>
      <trkpt lat="44.41682" lon="3.82108">
        <ele>1564</ele>
        <time>2022-10-28T14:44:29Z</time>
      </trkpt>
      <trkpt lat="44.41684" lon="3.82111">
        <ele>1564</ele>
        <time>2022-10-28T14:44:30Z</time>
      </trkpt>
      <trkpt lat="44.41686" lon="3.82114">
        <ele>1563.8</ele>
        <time>2022-10-28T14:44:31Z</time>
      </trkpt>
      <trkpt lat="44.41688" lon="3.82117">
        <ele>1563.8</ele>
        <time>2022-10-28T14:44:32Z</time>
      </trkpt>
      <trkpt lat="44.4169" lon="3.8212">
        <ele>1563.6</ele>
        <time>2022-10-28T14:44:33Z</time>
      </trkpt>
      <trkpt lat="44.41691" lon="3.82123">
        <ele>1563.6</ele>
        <time>2022-10-28T14:44:34Z</time>
      </trkpt>
      <trkpt lat="44.41693" lon="3.82125">
        <ele>1563.4</ele>
        <time>2022-10-28T14:44:35Z</time>
      </trkpt>
      <trkpt lat="44.41694" lon="3.82129">
        <ele>1563.2</ele>
        <time>2022-10-28T14:44:36Z</time>
      </trkpt>
      <trkpt lat="44.41694" lon="3.82133">
        <ele>1563</ele>
        <time>2022-10-28T14:44:37Z</time>
      </trkpt>
      <trkpt lat="44.41694" lon="3.82137">
        <ele>1562.8</ele>
        <time>2022-10-28T14:44:38Z</time>
      </trkpt>
      <trkpt lat="44.41695" lon="3.82141">
        <ele>1562.6</ele>
        <time>2022-10-28T14:44:39Z</time>
      </trkpt>
      <trkpt lat="44.41696" lon="3.82147">
        <ele>1562.2</ele>
        <time>2022-10-28T14:44:40Z</time>
      </trkpt>
      <trkpt lat="44.41697" lon="3.82152">
        <ele>1561.8</ele>
        <time>2022-10-28T14:44:41Z</time>
      </trkpt>
      <trkpt lat="44.41699" lon="3.82157">
        <ele>1561.6</ele>
        <time>2022-10-28T14:44:42Z</time>
      </trkpt>
      <trkpt lat="44.41702" lon="3.82162">
        <ele>1561.2</ele>
        <time>2022-10-28T14:44:43Z</time>
      </trkpt>
      <trkpt lat="44.41704" lon="3.82167">
        <ele>1560.8</ele>
        <time>2022-10-28T14:44:44Z</time>
      </trkpt>
      <trkpt lat="44.41707" lon="3.82171">
        <ele>1560.4</ele>
        <time>2022-10-28T14:44:45Z</time>
      </trkpt>
      <trkpt lat="44.41709" lon="3.82175">
        <ele>1560.2</ele>
        <time>2022-10-28T14:44:46Z</time>
      </trkpt>
      <trkpt lat="44.41711" lon="3.82178">
        <ele>1559.8</ele>
        <time>2022-10-28T14:44:47Z</time>
      </trkpt>
      <trkpt lat="44.41714" lon="3.82182">
        <ele>1559.6</ele>
        <time>2022-10-28T14:44:48Z</time>
      </trkpt>
      <trkpt lat="44.41717" lon="3.82186">
        <ele>1559.4</ele>
        <time>2022-10-28T14:44:49Z</time>
      </trkpt>
      <trkpt lat="44.41719" lon="3.8219">
        <ele>1559.2</ele>
        <time>2022-10-28T14:44:50Z</time>
      </trkpt>
      <trkpt lat="44.41722" lon="3.82194">
        <ele>1559</ele>
        <time>2022-10-28T14:44:51Z</time>
      </trkpt>
      <trkpt lat="44.41724" lon="3.82199">
        <ele>1558.8</ele>
        <time>2022-10-28T14:44:52Z</time>
      </trkpt>
      <trkpt lat="44.41726" lon="3.82203">
        <ele>1558.8</ele>
        <time>2022-10-28T14:44:53Z</time>
      </trkpt>
      <trkpt lat="44.41728" lon="3.82207">
        <ele>1558.6</ele>
        <time>2022-10-28T14:44:54Z</time>
      </trkpt>
      <trkpt lat="44.4173" lon="3.8221">
        <ele>1558.8</ele>
        <time>2022-10-28T14:44:55Z</time>
      </trkpt>
      <trkpt lat="44.41731" lon="3.82213">
        <ele>1558.8</ele>
        <time>2022-10-28T14:44:56Z</time>
      </trkpt>
      <trkpt lat="44.41731" lon="3.82215">
        <ele>1558.8</ele>
        <time>2022-10-28T14:44:57Z</time>
      </trkpt>
      <trkpt lat="44.4173" lon="3.82218">
        <ele>1559</ele>
        <time>2022-10-28T14:44:58Z</time>
      </trkpt>
      <trkpt lat="44.41729" lon="3.82222">
        <ele>1559</ele>
        <time>2022-10-28T14:44:59Z</time>
      </trkpt>
      <trkpt lat="44.41728" lon="3.82225">
        <ele>1559.2</ele>
        <time>2022-10-28T14:45:00Z</time>
      </trkpt>
      <trkpt lat="44.41726" lon="3.82229">
        <ele>1559.4</ele>
        <time>2022-10-28T14:45:01Z</time>
      </trkpt>
      <trkpt lat="44.41725" lon="3.82233">
        <ele>1559.4</ele>
        <time>2022-10-28T14:45:02Z</time>
      </trkpt>
      <trkpt lat="44.41723" lon="3.82237">
        <ele>1559.4</ele>
        <time>2022-10-28T14:45:03Z</time>
      </trkpt>
      <trkpt lat="44.41721" lon="3.82241">
        <ele>1559.4</ele>
        <time>2022-10-28T14:45:04Z</time>
      </trkpt>
      <trkpt lat="44.41719" lon="3.82245">
        <ele>1559.4</ele>
        <time>2022-10-28T14:45:05Z</time>
      </trkpt>
      <trkpt lat="44.41717" lon="3.82249">
        <ele>1559.6</ele>
        <time>2022-10-28T14:45:06Z</time>
      </trkpt>
      <trkpt lat="44.41715" lon="3.82254">
        <ele>1559.6</ele>
        <time>2022-10-28T14:45:07Z</time>
      </trkpt>
      <trkpt lat="44.41714" lon="3.82258">
        <ele>1559.6</ele>
        <time>2022-10-28T14:45:08Z</time>
      </trkpt>
      <trkpt lat="44.41712" lon="3.82263">
        <ele>1559.6</ele>
        <time>2022-10-28T14:45:09Z</time>
      </trkpt>
      <trkpt lat="44.4171" lon="3.82268">
        <ele>1559.6</ele>
        <time>2022-10-28T14:45:10Z</time>
      </trkpt>
      <trkpt lat="44.41707" lon="3.82273">
        <ele>1559.6</ele>
        <time>2022-10-28T14:45:11Z</time>
      </trkpt>
      <trkpt lat="44.41705" lon="3.82277">
        <ele>1559.6</ele>
        <time>2022-10-28T14:45:12Z</time>
      </trkpt>
      <trkpt lat="44.41702" lon="3.82282">
        <ele>1559.6</ele>
        <time>2022-10-28T14:45:13Z</time>
      </trkpt>
      <trkpt lat="44.417" lon="3.82286">
        <ele>1559.6</ele>
        <time>2022-10-28T14:45:14Z</time>
      </trkpt>
      <trkpt lat="44.41698" lon="3.8229">
        <ele>1559.6</ele>
        <time>2022-10-28T14:45:15Z</time>
      </trkpt>
      <trkpt lat="44.41695" lon="3.82293">
        <ele>1559.4</ele>
        <time>2022-10-28T14:45:16Z</time>
      </trkpt>
      <trkpt lat="44.41693" lon="3.82297">
        <ele>1559.4</ele>
        <time>2022-10-28T14:45:17Z</time>
      </trkpt>
      <trkpt lat="44.4169" lon="3.82302">
        <ele>1559.4</ele>
        <time>2022-10-28T14:45:18Z</time>
      </trkpt>
      <trkpt lat="44.41687" lon="3.82306">
        <ele>1559.2</ele>
        <time>2022-10-28T14:45:19Z</time>
      </trkpt>
      <trkpt lat="44.41684" lon="3.8231">
        <ele>1559</ele>
        <time>2022-10-28T14:45:20Z</time>
      </trkpt>
      <trkpt lat="44.41681" lon="3.82314">
        <ele>1559</ele>
        <time>2022-10-28T14:45:21Z</time>
      </trkpt>
      <trkpt lat="44.41678" lon="3.82319">
        <ele>1559</ele>
        <time>2022-10-28T14:45:22Z</time>
      </trkpt>
      <trkpt lat="44.41676" lon="3.82324">
        <ele>1558.8</ele>
        <time>2022-10-28T14:45:23Z</time>
      </trkpt>
      <trkpt lat="44.41673" lon="3.82329">
        <ele>1558.8</ele>
        <time>2022-10-28T14:45:24Z</time>
      </trkpt>
      <trkpt lat="44.41671" lon="3.82334">
        <ele>1558.8</ele>
        <time>2022-10-28T14:45:25Z</time>
      </trkpt>
      <trkpt lat="44.41668" lon="3.82339">
        <ele>1558.6</ele>
        <time>2022-10-28T14:45:26Z</time>
      </trkpt>
      <trkpt lat="44.41666" lon="3.82345">
        <ele>1558.6</ele>
        <time>2022-10-28T14:45:27Z</time>
      </trkpt>
      <trkpt lat="44.41664" lon="3.8235">
        <ele>1558.6</ele>
        <time>2022-10-28T14:45:28Z</time>
      </trkpt>
      <trkpt lat="44.41663" lon="3.82355">
        <ele>1558.4</ele>
        <time>2022-10-28T14:45:29Z</time>
      </trkpt>
      <trkpt lat="44.41662" lon="3.8236">
        <ele>1558.2</ele>
        <time>2022-10-28T14:45:30Z</time>
      </trkpt>
      <trkpt lat="44.41661" lon="3.82365">
        <ele>1558.2</ele>
        <time>2022-10-28T14:45:31Z</time>
      </trkpt>
      <trkpt lat="44.4166" lon="3.82371">
        <ele>1558.2</ele>
        <time>2022-10-28T14:45:32Z</time>
      </trkpt>
      <trkpt lat="44.4166" lon="3.82376">
        <ele>1557.8</ele>
        <time>2022-10-28T14:45:33Z</time>
      </trkpt>
      <trkpt lat="44.4166" lon="3.82381">
        <ele>1557.8</ele>
        <time>2022-10-28T14:45:34Z</time>
      </trkpt>
      <trkpt lat="44.4166" lon="3.82385">
        <ele>1557.6</ele>
        <time>2022-10-28T14:45:35Z</time>
      </trkpt>
      <trkpt lat="44.4166" lon="3.8239">
        <ele>1557.4</ele>
        <time>2022-10-28T14:45:36Z</time>
      </trkpt>
      <trkpt lat="44.41661" lon="3.82393">
        <ele>1557.2</ele>
        <time>2022-10-28T14:45:37Z</time>
      </trkpt>
      <trkpt lat="44.41662" lon="3.82397">
        <ele>1557</ele>
        <time>2022-10-28T14:45:38Z</time>
      </trkpt>
      <trkpt lat="44.41663" lon="3.824">
        <ele>1557</ele>
        <time>2022-10-28T14:45:39Z</time>
      </trkpt>
      <trkpt lat="44.41664" lon="3.82402">
        <ele>1556.8</ele>
        <time>2022-10-28T14:45:40Z</time>
      </trkpt>
      <trkpt lat="44.41663" lon="3.82407">
        <ele>1556.4</ele>
        <time>2022-10-28T14:45:52Z</time>
      </trkpt>
      <trkpt lat="44.41662" lon="3.8241">
        <ele>1556.4</ele>
        <time>2022-10-28T14:45:53Z</time>
      </trkpt>
      <trkpt lat="44.41661" lon="3.82411">
        <ele>1556.4</ele>
        <time>2022-10-28T14:45:54Z</time>
      </trkpt>
      <trkpt lat="44.41661" lon="3.82412">
        <ele>1556.4</ele>
        <time>2022-10-28T14:45:55Z</time>
      </trkpt>
      <trkpt lat="44.41661" lon="3.82412">
        <ele>1556.4</ele>
        <time>2022-10-28T14:45:56Z</time>
      </trkpt>
      <trkpt lat="44.41661" lon="3.82412">
        <ele>1556.4</ele>
        <time>2022-10-28T14:45:57Z</time>
      </trkpt>
      <trkpt lat="44.41661" lon="3.82412">
        <ele>1556.4</ele>
        <time>2022-10-28T14:45:58Z</time>
      </trkpt>
      <trkpt lat="44.41653" lon="3.82422">
        <ele>1556.2</ele>
        <time>2022-10-28T14:49:44Z</time>
      </trkpt>
      <trkpt lat="44.41652" lon="3.82423">
        <ele>1556.4</ele>
        <time>2022-10-28T14:49:45Z</time>
      </trkpt>
      <trkpt lat="44.41651" lon="3.82424">
        <ele>1556.4</ele>
        <time>2022-10-28T14:49:46Z</time>
      </trkpt>
      <trkpt lat="44.41649" lon="3.82424">
        <ele>1556.4</ele>
        <time>2022-10-28T14:49:47Z</time>
      </trkpt>
      <trkpt lat="44.41648" lon="3.82425">
        <ele>1556.4</ele>
        <time>2022-10-28T14:49:48Z</time>
      </trkpt>
      <trkpt lat="44.41647" lon="3.82425">
        <ele>1556.6</ele>
        <time>2022-10-28T14:49:49Z</time>
      </trkpt>
      <trkpt lat="44.41645" lon="3.82426">
        <ele>1556.6</ele>
        <time>2022-10-28T14:49:50Z</time>
      </trkpt>
      <trkpt lat="44.41643" lon="3.82426">
        <ele>1556.8</ele>
        <time>2022-10-28T14:49:51Z</time>
      </trkpt>
      <trkpt lat="44.41641" lon="3.82427">
        <ele>1556.8</ele>
        <time>2022-10-28T14:49:52Z</time>
      </trkpt>
      <trkpt lat="44.4164" lon="3.82427">
        <ele>1557</ele>
        <time>2022-10-28T14:49:53Z</time>
      </trkpt>
      <trkpt lat="44.41638" lon="3.82428">
        <ele>1557</ele>
        <time>2022-10-28T14:49:54Z</time>
      </trkpt>
      <trkpt lat="44.41636" lon="3.82428">
        <ele>1557</ele>
        <time>2022-10-28T14:49:55Z</time>
      </trkpt>
      <trkpt lat="44.41634" lon="3.82429">
        <ele>1557.2</ele>
        <time>2022-10-28T14:49:56Z</time>
      </trkpt>
      <trkpt lat="44.41632" lon="3.82429">
        <ele>1557.2</ele>
        <time>2022-10-28T14:49:57Z</time>
      </trkpt>
      <trkpt lat="44.41631" lon="3.82429">
        <ele>1557.4</ele>
        <time>2022-10-28T14:49:58Z</time>
      </trkpt>
      <trkpt lat="44.41629" lon="3.82429">
        <ele>1557.4</ele>
        <time>2022-10-28T14:49:59Z</time>
      </trkpt>
      <trkpt lat="44.41627" lon="3.82429">
        <ele>1557.4</ele>
        <time>2022-10-28T14:50:00Z</time>
      </trkpt>
      <trkpt lat="44.41625" lon="3.8243">
        <ele>1557.4</ele>
        <time>2022-10-28T14:50:01Z</time>
      </trkpt>
      <trkpt lat="44.41623" lon="3.82431">
        <ele>1557.6</ele>
        <time>2022-10-28T14:50:02Z</time>
      </trkpt>
      <trkpt lat="44.41621" lon="3.82432">
        <ele>1557.6</ele>
        <time>2022-10-28T14:50:03Z</time>
      </trkpt>
      <trkpt lat="44.4162" lon="3.82433">
        <ele>1557.8</ele>
        <time>2022-10-28T14:50:04Z</time>
      </trkpt>
      <trkpt lat="44.41619" lon="3.82434">
        <ele>1557.8</ele>
        <time>2022-10-28T14:50:05Z</time>
      </trkpt>
      <trkpt lat="44.41617" lon="3.82434">
        <ele>1558</ele>
        <time>2022-10-28T14:50:06Z</time>
      </trkpt>
      <trkpt lat="44.41616" lon="3.82436">
        <ele>1558</ele>
        <time>2022-10-28T14:50:07Z</time>
      </trkpt>
      <trkpt lat="44.41614" lon="3.82437">
        <ele>1558.2</ele>
        <time>2022-10-28T14:50:08Z</time>
      </trkpt>
      <trkpt lat="44.41612" lon="3.82438">
        <ele>1558.2</ele>
        <time>2022-10-28T14:50:09Z</time>
      </trkpt>
      <trkpt lat="44.4161" lon="3.82439">
        <ele>1558.4</ele>
        <time>2022-10-28T14:50:10Z</time>
      </trkpt>
      <trkpt lat="44.41608" lon="3.8244">
        <ele>1558.6</ele>
        <time>2022-10-28T14:50:11Z</time>
      </trkpt>
      <trkpt lat="44.41607" lon="3.82441">
        <ele>1558.6</ele>
        <time>2022-10-28T14:50:12Z</time>
      </trkpt>
      <trkpt lat="44.41605" lon="3.82442">
        <ele>1558.8</ele>
        <time>2022-10-28T14:50:13Z</time>
      </trkpt>
      <trkpt lat="44.41603" lon="3.82443">
        <ele>1559</ele>
        <time>2022-10-28T14:50:14Z</time>
      </trkpt>
      <trkpt lat="44.41602" lon="3.82444">
        <ele>1559</ele>
        <time>2022-10-28T14:50:15Z</time>
      </trkpt>
      <trkpt lat="44.416" lon="3.82445">
        <ele>1559</ele>
        <time>2022-10-28T14:50:16Z</time>
      </trkpt>
      <trkpt lat="44.41598" lon="3.82446">
        <ele>1559.2</ele>
        <time>2022-10-28T14:50:17Z</time>
      </trkpt>
      <trkpt lat="44.41596" lon="3.82447">
        <ele>1559.4</ele>
        <time>2022-10-28T14:50:18Z</time>
      </trkpt>
      <trkpt lat="44.41594" lon="3.82448">
        <ele>1559.6</ele>
        <time>2022-10-28T14:50:19Z</time>
      </trkpt>
      <trkpt lat="44.41593" lon="3.82449">
        <ele>1559.8</ele>
        <time>2022-10-28T14:50:20Z</time>
      </trkpt>
      <trkpt lat="44.41591" lon="3.82451">
        <ele>1560</ele>
        <time>2022-10-28T14:50:21Z</time>
      </trkpt>
      <trkpt lat="44.41589" lon="3.82452">
        <ele>1560.2</ele>
        <time>2022-10-28T14:50:22Z</time>
      </trkpt>
      <trkpt lat="44.41587" lon="3.82453">
        <ele>1560.2</ele>
        <time>2022-10-28T14:50:23Z</time>
      </trkpt>
      <trkpt lat="44.41585" lon="3.82454">
        <ele>1560.2</ele>
        <time>2022-10-28T14:50:24Z</time>
      </trkpt>
      <trkpt lat="44.41584" lon="3.82456">
        <ele>1560.4</ele>
        <time>2022-10-28T14:50:25Z</time>
      </trkpt>
      <trkpt lat="44.41582" lon="3.82457">
        <ele>1560.4</ele>
        <time>2022-10-28T14:50:26Z</time>
      </trkpt>
      <trkpt lat="44.4158" lon="3.82459">
        <ele>1560.6</ele>
        <time>2022-10-28T14:50:27Z</time>
      </trkpt>
      <trkpt lat="44.41579" lon="3.8246">
        <ele>1560.6</ele>
        <time>2022-10-28T14:50:28Z</time>
      </trkpt>
      <trkpt lat="44.41577" lon="3.82462">
        <ele>1560.8</ele>
        <time>2022-10-28T14:50:29Z</time>
      </trkpt>
      <trkpt lat="44.41576" lon="3.82463">
        <ele>1560.8</ele>
        <time>2022-10-28T14:50:30Z</time>
      </trkpt>
      <trkpt lat="44.41574" lon="3.82464">
        <ele>1560.8</ele>
        <time>2022-10-28T14:50:31Z</time>
      </trkpt>
      <trkpt lat="44.41573" lon="3.82465">
        <ele>1560.8</ele>
        <time>2022-10-28T14:50:32Z</time>
      </trkpt>
      <trkpt lat="44.41572" lon="3.82466">
        <ele>1560.8</ele>
        <time>2022-10-28T14:50:33Z</time>
      </trkpt>
      <trkpt lat="44.41571" lon="3.82467">
        <ele>1560.6</ele>
        <time>2022-10-28T14:50:34Z</time>
      </trkpt>
      <trkpt lat="44.41571" lon="3.82467">
        <ele>1560.6</ele>
        <time>2022-10-28T14:50:35Z</time>
      </trkpt>
      <trkpt lat="44.41573" lon="3.82465">
        <ele>1560.6</ele>
        <time>2022-10-28T14:50:44Z</time>
      </trkpt>
      <trkpt lat="44.41574" lon="3.82463">
        <ele>1560.6</ele>
        <time>2022-10-28T14:50:45Z</time>
      </trkpt>
      <trkpt lat="44.41576" lon="3.82462">
        <ele>1560.6</ele>
        <time>2022-10-28T14:50:46Z</time>
      </trkpt>
      <trkpt lat="44.41578" lon="3.8246">
        <ele>1560.6</ele>
        <time>2022-10-28T14:50:47Z</time>
      </trkpt>
      <trkpt lat="44.41579" lon="3.82459">
        <ele>1560.6</ele>
        <time>2022-10-28T14:50:48Z</time>
      </trkpt>
      <trkpt lat="44.41581" lon="3.82457">
        <ele>1560.6</ele>
        <time>2022-10-28T14:50:49Z</time>
      </trkpt>
      <trkpt lat="44.41583" lon="3.82456">
        <ele>1560.6</ele>
        <time>2022-10-28T14:50:50Z</time>
      </trkpt>
      <trkpt lat="44.41585" lon="3.82454">
        <ele>1560.4</ele>
        <time>2022-10-28T14:50:51Z</time>
      </trkpt>
      <trkpt lat="44.41587" lon="3.82453">
        <ele>1560.4</ele>
        <time>2022-10-28T14:50:52Z</time>
      </trkpt>
      <trkpt lat="44.41589" lon="3.82451">
        <ele>1560.4</ele>
        <time>2022-10-28T14:50:53Z</time>
      </trkpt>
      <trkpt lat="44.41591" lon="3.8245">
        <ele>1560.4</ele>
        <time>2022-10-28T14:50:54Z</time>
      </trkpt>
      <trkpt lat="44.41593" lon="3.82448">
        <ele>1560.2</ele>
        <time>2022-10-28T14:50:55Z</time>
      </trkpt>
      <trkpt lat="44.41595" lon="3.82447">
        <ele>1560.2</ele>
        <time>2022-10-28T14:50:56Z</time>
      </trkpt>
      <trkpt lat="44.41598" lon="3.82445">
        <ele>1560</ele>
        <time>2022-10-28T14:50:57Z</time>
      </trkpt>
      <trkpt lat="44.41601" lon="3.82443">
        <ele>1559.8</ele>
        <time>2022-10-28T14:50:58Z</time>
      </trkpt>
      <trkpt lat="44.41604" lon="3.82442">
        <ele>1559.6</ele>
        <time>2022-10-28T14:50:59Z</time>
      </trkpt>
      <trkpt lat="44.41606" lon="3.8244">
        <ele>1559.4</ele>
        <time>2022-10-28T14:51:00Z</time>
      </trkpt>
      <trkpt lat="44.41609" lon="3.82438">
        <ele>1559.2</ele>
        <time>2022-10-28T14:51:01Z</time>
      </trkpt>
      <trkpt lat="44.41612" lon="3.82437">
        <ele>1559</ele>
        <time>2022-10-28T14:51:02Z</time>
      </trkpt>
      <trkpt lat="44.41614" lon="3.82435">
        <ele>1558.8</ele>
        <time>2022-10-28T14:51:03Z</time>
      </trkpt>
      <trkpt lat="44.41616" lon="3.82434">
        <ele>1558.6</ele>
        <time>2022-10-28T14:51:04Z</time>
      </trkpt>
      <trkpt lat="44.41618" lon="3.82433">
        <ele>1558.4</ele>
        <time>2022-10-28T14:51:05Z</time>
      </trkpt>
      <trkpt lat="44.41618" lon="3.82433">
        <ele>1558.4</ele>
        <time>2022-10-28T14:51:06Z</time>
      </trkpt>
      <trkpt lat="44.41618" lon="3.82433">
        <ele>1558.2</ele>
        <time>2022-10-28T14:51:07Z</time>
      </trkpt>
      <trkpt lat="44.41618" lon="3.82433">
        <ele>1558.2</ele>
        <time>2022-10-28T14:51:08Z</time>
      </trkpt>
      <trkpt lat="44.41618" lon="3.82433">
        <ele>1558.2</ele>
        <time>2022-10-28T14:51:09Z</time>
      </trkpt>
      <trkpt lat="44.41618" lon="3.82433">
        <ele>1558.2</ele>
        <time>2022-10-28T14:51:10Z</time>
      </trkpt>
      <trkpt lat="44.41618" lon="3.82433">
        <ele>1558.2</ele>
        <time>2022-10-28T14:51:11Z</time>
      </trkpt>
      <trkpt lat="44.41623" lon="3.82426">
        <ele>1558</ele>
        <time>2022-10-28T14:51:40Z</time>
      </trkpt>
      <trkpt lat="44.41625" lon="3.82423">
        <ele>1558</ele>
        <time>2022-10-28T14:51:41Z</time>
      </trkpt>
      <trkpt lat="44.41627" lon="3.8242">
        <ele>1558</ele>
        <time>2022-10-28T14:51:42Z</time>
      </trkpt>
      <trkpt lat="44.41629" lon="3.82417">
        <ele>1557.8</ele>
        <time>2022-10-28T14:51:43Z</time>
      </trkpt>
      <trkpt lat="44.41631" lon="3.82415">
        <ele>1557.8</ele>
        <time>2022-10-28T14:51:44Z</time>
      </trkpt>
      <trkpt lat="44.41634" lon="3.82412">
        <ele>1557.8</ele>
        <time>2022-10-28T14:51:45Z</time>
      </trkpt>
      <trkpt lat="44.41635" lon="3.8241">
        <ele>1557.6</ele>
        <time>2022-10-28T14:51:46Z</time>
      </trkpt>
      <trkpt lat="44.41637" lon="3.82407">
        <ele>1557.6</ele>
        <time>2022-10-28T14:51:47Z</time>
      </trkpt>
      <trkpt lat="44.4164" lon="3.82403">
        <ele>1557.6</ele>
        <time>2022-10-28T14:51:48Z</time>
      </trkpt>
      <trkpt lat="44.41642" lon="3.824">
        <ele>1557.6</ele>
        <time>2022-10-28T14:51:49Z</time>
      </trkpt>
      <trkpt lat="44.41644" lon="3.82397">
        <ele>1557.4</ele>
        <time>2022-10-28T14:51:50Z</time>
      </trkpt>
      <trkpt lat="44.41647" lon="3.82394">
        <ele>1557.4</ele>
        <time>2022-10-28T14:51:51Z</time>
      </trkpt>
      <trkpt lat="44.4165" lon="3.82391">
        <ele>1557.2</ele>
        <time>2022-10-28T14:51:52Z</time>
      </trkpt>
      <trkpt lat="44.41652" lon="3.82389">
        <ele>1557.2</ele>
        <time>2022-10-28T14:51:53Z</time>
      </trkpt>
      <trkpt lat="44.41654" lon="3.82386">
        <ele>1557.2</ele>
        <time>2022-10-28T14:51:54Z</time>
      </trkpt>
      <trkpt lat="44.41655" lon="3.82384">
        <ele>1557</ele>
        <time>2022-10-28T14:51:55Z</time>
      </trkpt>
      <trkpt lat="44.41656" lon="3.82383">
        <ele>1556.8</ele>
        <time>2022-10-28T14:51:56Z</time>
      </trkpt>
      <trkpt lat="44.41657" lon="3.82381">
        <ele>1556.8</ele>
        <time>2022-10-28T14:51:57Z</time>
      </trkpt>
      <trkpt lat="44.41658" lon="3.8238">
        <ele>1556.8</ele>
        <time>2022-10-28T14:51:58Z</time>
      </trkpt>
      <trkpt lat="44.41658" lon="3.8238">
        <ele>1556.8</ele>
        <time>2022-10-28T14:51:59Z</time>
      </trkpt>
      <trkpt lat="44.41659" lon="3.82378">
        <ele>1556.8</ele>
        <time>2022-10-28T14:52:00Z</time>
      </trkpt>
      <trkpt lat="44.4166" lon="3.82376">
        <ele>1556.8</ele>
        <time>2022-10-28T14:52:01Z</time>
      </trkpt>
      <trkpt lat="44.41661" lon="3.82374">
        <ele>1556.8</ele>
        <time>2022-10-28T14:52:02Z</time>
      </trkpt>
      <trkpt lat="44.41662" lon="3.82371">
        <ele>1557</ele>
        <time>2022-10-28T14:52:03Z</time>
      </trkpt>
      <trkpt lat="44.41663" lon="3.82367">
        <ele>1557</ele>
        <time>2022-10-28T14:52:04Z</time>
      </trkpt>
      <trkpt lat="44.41664" lon="3.82363">
        <ele>1557.2</ele>
        <time>2022-10-28T14:52:05Z</time>
      </trkpt>
      <trkpt lat="44.41664" lon="3.82358">
        <ele>1557.2</ele>
        <time>2022-10-28T14:52:06Z</time>
      </trkpt>
      <trkpt lat="44.41666" lon="3.82353">
        <ele>1557.2</ele>
        <time>2022-10-28T14:52:07Z</time>
      </trkpt>
      <trkpt lat="44.41667" lon="3.82348">
        <ele>1557.4</ele>
        <time>2022-10-28T14:52:08Z</time>
      </trkpt>
      <trkpt lat="44.41669" lon="3.82342">
        <ele>1557.4</ele>
        <time>2022-10-28T14:52:09Z</time>
      </trkpt>
      <trkpt lat="44.41671" lon="3.82337">
        <ele>1557.4</ele>
        <time>2022-10-28T14:52:10Z</time>
      </trkpt>
      <trkpt lat="44.41673" lon="3.82331">
        <ele>1557.6</ele>
        <time>2022-10-28T14:52:11Z</time>
      </trkpt>
      <trkpt lat="44.41676" lon="3.82326">
        <ele>1557.6</ele>
        <time>2022-10-28T14:52:12Z</time>
      </trkpt>
      <trkpt lat="44.41679" lon="3.82321">
        <ele>1557.6</ele>
        <time>2022-10-28T14:52:13Z</time>
      </trkpt>
      <trkpt lat="44.41682" lon="3.82316">
        <ele>1557.6</ele>
        <time>2022-10-28T14:52:14Z</time>
      </trkpt>
      <trkpt lat="44.41686" lon="3.82312">
        <ele>1557.6</ele>
        <time>2022-10-28T14:52:15Z</time>
      </trkpt>
      <trkpt lat="44.41689" lon="3.82307">
        <ele>1557.8</ele>
        <time>2022-10-28T14:52:16Z</time>
      </trkpt>
      <trkpt lat="44.41692" lon="3.82303">
        <ele>1557.8</ele>
        <time>2022-10-28T14:52:17Z</time>
      </trkpt>
      <trkpt lat="44.41695" lon="3.82298">
        <ele>1558</ele>
        <time>2022-10-28T14:52:18Z</time>
      </trkpt>
      <trkpt lat="44.41698" lon="3.82293">
        <ele>1558.2</ele>
        <time>2022-10-28T14:52:19Z</time>
      </trkpt>
      <trkpt lat="44.41701" lon="3.82289">
        <ele>1558.2</ele>
        <time>2022-10-28T14:52:20Z</time>
      </trkpt>
      <trkpt lat="44.41703" lon="3.82284">
        <ele>1558.2</ele>
        <time>2022-10-28T14:52:21Z</time>
      </trkpt>
      <trkpt lat="44.41706" lon="3.8228">
        <ele>1558.2</ele>
        <time>2022-10-28T14:52:22Z</time>
      </trkpt>
      <trkpt lat="44.41708" lon="3.82275">
        <ele>1558.2</ele>
        <time>2022-10-28T14:52:23Z</time>
      </trkpt>
      <trkpt lat="44.4171" lon="3.82271">
        <ele>1558.4</ele>
        <time>2022-10-28T14:52:24Z</time>
      </trkpt>
      <trkpt lat="44.41711" lon="3.82267">
        <ele>1558.4</ele>
        <time>2022-10-28T14:52:25Z</time>
      </trkpt>
      <trkpt lat="44.41713" lon="3.82263">
        <ele>1558.4</ele>
        <time>2022-10-28T14:52:26Z</time>
      </trkpt>
      <trkpt lat="44.41715" lon="3.8226">
        <ele>1558.4</ele>
        <time>2022-10-28T14:52:27Z</time>
      </trkpt>
      <trkpt lat="44.41716" lon="3.82256">
        <ele>1558.4</ele>
        <time>2022-10-28T14:52:28Z</time>
      </trkpt>
      <trkpt lat="44.41718" lon="3.82254">
        <ele>1558.4</ele>
        <time>2022-10-28T14:52:29Z</time>
      </trkpt>
      <trkpt lat="44.4172" lon="3.82253">
        <ele>1558.4</ele>
        <time>2022-10-28T14:52:30Z</time>
      </trkpt>
      <trkpt lat="44.41721" lon="3.82255">
        <ele>1558.4</ele>
        <time>2022-10-28T14:52:31Z</time>
      </trkpt>
      <trkpt lat="44.41721" lon="3.82257">
        <ele>1558.4</ele>
        <time>2022-10-28T14:52:32Z</time>
      </trkpt>
      <trkpt lat="44.41719" lon="3.8226">
        <ele>1558.6</ele>
        <time>2022-10-28T14:52:33Z</time>
      </trkpt>
      <trkpt lat="44.41717" lon="3.82262">
        <ele>1558.6</ele>
        <time>2022-10-28T14:52:34Z</time>
      </trkpt>
      <trkpt lat="44.41714" lon="3.82266">
        <ele>1558.8</ele>
        <time>2022-10-28T14:52:35Z</time>
      </trkpt>
      <trkpt lat="44.41711" lon="3.8227">
        <ele>1558.8</ele>
        <time>2022-10-28T14:52:36Z</time>
      </trkpt>
      <trkpt lat="44.41708" lon="3.82275">
        <ele>1558.8</ele>
        <time>2022-10-28T14:52:37Z</time>
      </trkpt>
      <trkpt lat="44.41706" lon="3.82279">
        <ele>1559</ele>
        <time>2022-10-28T14:52:38Z</time>
      </trkpt>
      <trkpt lat="44.41703" lon="3.82284">
        <ele>1558.8</ele>
        <time>2022-10-28T14:52:39Z</time>
      </trkpt>
      <trkpt lat="44.41699" lon="3.8229">
        <ele>1558.8</ele>
        <time>2022-10-28T14:52:40Z</time>
      </trkpt>
      <trkpt lat="44.41696" lon="3.82295">
        <ele>1558.8</ele>
        <time>2022-10-28T14:52:41Z</time>
      </trkpt>
      <trkpt lat="44.41693" lon="3.82301">
        <ele>1558.8</ele>
        <time>2022-10-28T14:52:42Z</time>
      </trkpt>
      <trkpt lat="44.41689" lon="3.82306">
        <ele>1558.8</ele>
        <time>2022-10-28T14:52:43Z</time>
      </trkpt>
      <trkpt lat="44.41685" lon="3.82312">
        <ele>1558.6</ele>
        <time>2022-10-28T14:52:44Z</time>
      </trkpt>
      <trkpt lat="44.41682" lon="3.82318">
        <ele>1558.8</ele>
        <time>2022-10-28T14:52:45Z</time>
      </trkpt>
      <trkpt lat="44.41678" lon="3.82324">
        <ele>1558.6</ele>
        <time>2022-10-28T14:52:46Z</time>
      </trkpt>
      <trkpt lat="44.41674" lon="3.8233">
        <ele>1558.4</ele>
        <time>2022-10-28T14:52:47Z</time>
      </trkpt>
      <trkpt lat="44.41671" lon="3.82337">
        <ele>1558.4</ele>
        <time>2022-10-28T14:52:48Z</time>
      </trkpt>
      <trkpt lat="44.41668" lon="3.82344">
        <ele>1558.4</ele>
        <time>2022-10-28T14:52:49Z</time>
      </trkpt>
      <trkpt lat="44.41666" lon="3.82351">
        <ele>1558.2</ele>
        <time>2022-10-28T14:52:50Z</time>
      </trkpt>
      <trkpt lat="44.41664" lon="3.82358">
        <ele>1558.2</ele>
        <time>2022-10-28T14:52:51Z</time>
      </trkpt>
      <trkpt lat="44.41663" lon="3.82366">
        <ele>1558</ele>
        <time>2022-10-28T14:52:52Z</time>
      </trkpt>
      <trkpt lat="44.41662" lon="3.82374">
        <ele>1557.8</ele>
        <time>2022-10-28T14:52:53Z</time>
      </trkpt>
      <trkpt lat="44.41662" lon="3.82381">
        <ele>1557.6</ele>
        <time>2022-10-28T14:52:54Z</time>
      </trkpt>
      <trkpt lat="44.41664" lon="3.82389">
        <ele>1557.4</ele>
        <time>2022-10-28T14:52:55Z</time>
      </trkpt>
      <trkpt lat="44.41666" lon="3.82397">
        <ele>1557.2</ele>
        <time>2022-10-28T14:52:56Z</time>
      </trkpt>
      <trkpt lat="44.4167" lon="3.82405">
        <ele>1556.8</ele>
        <time>2022-10-28T14:52:57Z</time>
      </trkpt>
      <trkpt lat="44.41674" lon="3.82413">
        <ele>1556.6</ele>
        <time>2022-10-28T14:52:58Z</time>
      </trkpt>
      <trkpt lat="44.41678" lon="3.82419">
        <ele>1556.2</ele>
        <time>2022-10-28T14:52:59Z</time>
      </trkpt>
      <trkpt lat="44.41683" lon="3.82425">
        <ele>1556</ele>
        <time>2022-10-28T14:53:00Z</time>
      </trkpt>
      <trkpt lat="44.41688" lon="3.82431">
        <ele>1555.8</ele>
        <time>2022-10-28T14:53:01Z</time>
      </trkpt>
      <trkpt lat="44.41692" lon="3.82437">
        <ele>1555.4</ele>
        <time>2022-10-28T14:53:02Z</time>
      </trkpt>
      <trkpt lat="44.41694" lon="3.82441">
        <ele>1555.2</ele>
        <time>2022-10-28T14:53:03Z</time>
      </trkpt>
      <trkpt lat="44.41696" lon="3.82444">
        <ele>1555.2</ele>
        <time>2022-10-28T14:53:04Z</time>
      </trkpt>
      <trkpt lat="44.41696" lon="3.82445">
        <ele>1555</ele>
        <time>2022-10-28T14:53:05Z</time>
      </trkpt>
      <trkpt lat="44.41695" lon="3.82445">
        <ele>1555</ele>
        <time>2022-10-28T14:53:06Z</time>
      </trkpt>
      <trkpt lat="44.41694" lon="3.82444">
        <ele>1555.2</ele>
        <time>2022-10-28T14:53:07Z</time>
      </trkpt>
      <trkpt lat="44.41693" lon="3.82443">
        <ele>1555.2</ele>
        <time>2022-10-28T14:53:08Z</time>
      </trkpt>
      <trkpt lat="44.41691" lon="3.8244">
        <ele>1555.2</ele>
        <time>2022-10-28T14:53:09Z</time>
      </trkpt>
      <trkpt lat="44.4169" lon="3.82437">
        <ele>1555.4</ele>
        <time>2022-10-28T14:53:10Z</time>
      </trkpt>
      <trkpt lat="44.41688" lon="3.82434">
        <ele>1555.6</ele>
        <time>2022-10-28T14:53:11Z</time>
      </trkpt>
      <trkpt lat="44.41686" lon="3.8243">
        <ele>1555.6</ele>
        <time>2022-10-28T14:53:12Z</time>
      </trkpt>
      <trkpt lat="44.41684" lon="3.82426">
        <ele>1555.6</ele>
        <time>2022-10-28T14:53:13Z</time>
      </trkpt>
      <trkpt lat="44.41681" lon="3.82422">
        <ele>1555.6</ele>
        <time>2022-10-28T14:53:14Z</time>
      </trkpt>
      <trkpt lat="44.41679" lon="3.82418">
        <ele>1555.8</ele>
        <time>2022-10-28T14:53:15Z</time>
      </trkpt>
      <trkpt lat="44.41677" lon="3.82414">
        <ele>1555.8</ele>
        <time>2022-10-28T14:53:16Z</time>
      </trkpt>
      <trkpt lat="44.41674" lon="3.82411">
        <ele>1555.8</ele>
        <time>2022-10-28T14:53:17Z</time>
      </trkpt>
      <trkpt lat="44.41672" lon="3.82408">
        <ele>1556</ele>
        <time>2022-10-28T14:53:18Z</time>
      </trkpt>
      <trkpt lat="44.4167" lon="3.82406">
        <ele>1556</ele>
        <time>2022-10-28T14:53:19Z</time>
      </trkpt>
      <trkpt lat="44.41667" lon="3.82405">
        <ele>1555.8</ele>
        <time>2022-10-28T14:53:20Z</time>
      </trkpt>
      <trkpt lat="44.41665" lon="3.82406">
        <ele>1555.8</ele>
        <time>2022-10-28T14:53:21Z</time>
      </trkpt>
      <trkpt lat="44.41662" lon="3.82408">
        <ele>1555.8</ele>
        <time>2022-10-28T14:53:22Z</time>
      </trkpt>
      <trkpt lat="44.4166" lon="3.8241">
        <ele>1555.8</ele>
        <time>2022-10-28T14:53:23Z</time>
      </trkpt>
      <trkpt lat="44.41659" lon="3.82412">
        <ele>1556</ele>
        <time>2022-10-28T14:53:24Z</time>
      </trkpt>
      <trkpt lat="44.41658" lon="3.82415">
        <ele>1556.2</ele>
        <time>2022-10-28T14:53:25Z</time>
      </trkpt>
      <trkpt lat="44.41656" lon="3.82417">
        <ele>1556.2</ele>
        <time>2022-10-28T14:53:26Z</time>
      </trkpt>
      <trkpt lat="44.41654" lon="3.82419">
        <ele>1556.4</ele>
        <time>2022-10-28T14:53:27Z</time>
      </trkpt>
      <trkpt lat="44.41652" lon="3.8242">
        <ele>1556.4</ele>
        <time>2022-10-28T14:53:28Z</time>
      </trkpt>
      <trkpt lat="44.4165" lon="3.82422">
        <ele>1556.6</ele>
        <time>2022-10-28T14:53:29Z</time>
      </trkpt>
      <trkpt lat="44.41647" lon="3.82423">
        <ele>1556.6</ele>
        <time>2022-10-28T14:53:30Z</time>
      </trkpt>
      <trkpt lat="44.41645" lon="3.82424">
        <ele>1556.8</ele>
        <time>2022-10-28T14:53:31Z</time>
      </trkpt>
      <trkpt lat="44.41643" lon="3.82424">
        <ele>1557</ele>
        <time>2022-10-28T14:53:32Z</time>
      </trkpt>
      <trkpt lat="44.4164" lon="3.82425">
        <ele>1557.2</ele>
        <time>2022-10-28T14:53:33Z</time>
      </trkpt>
      <trkpt lat="44.41638" lon="3.82426">
        <ele>1557.2</ele>
        <time>2022-10-28T14:53:34Z</time>
      </trkpt>
      <trkpt lat="44.41635" lon="3.82426">
        <ele>1557.4</ele>
        <time>2022-10-28T14:53:35Z</time>
      </trkpt>
      <trkpt lat="44.41633" lon="3.82427">
        <ele>1557.4</ele>
        <time>2022-10-28T14:53:36Z</time>
      </trkpt>
      <trkpt lat="44.4163" lon="3.82427">
        <ele>1557.6</ele>
        <time>2022-10-28T14:53:37Z</time>
      </trkpt>
      <trkpt lat="44.41628" lon="3.82427">
        <ele>1557.8</ele>
        <time>2022-10-28T14:53:38Z</time>
      </trkpt>
      <trkpt lat="44.41625" lon="3.82428">
        <ele>1557.8</ele>
        <time>2022-10-28T14:53:39Z</time>
      </trkpt>
      <trkpt lat="44.41623" lon="3.82429">
        <ele>1558</ele>
        <time>2022-10-28T14:53:40Z</time>
      </trkpt>
      <trkpt lat="44.41621" lon="3.8243">
        <ele>1558</ele>
        <time>2022-10-28T14:53:41Z</time>
      </trkpt>
      <trkpt lat="44.4162" lon="3.82431">
        <ele>1558</ele>
        <time>2022-10-28T14:53:42Z</time>
      </trkpt>
      <trkpt lat="44.4162" lon="3.82431">
        <ele>1558</ele>
        <time>2022-10-28T14:53:43Z</time>
      </trkpt>
      <trkpt lat="44.4162" lon="3.82432">
        <ele>1558.2</ele>
        <time>2022-10-28T14:53:44Z</time>
      </trkpt>
      <trkpt lat="44.41623" lon="3.8243">
        <ele>1558</ele>
        <time>2022-10-28T14:54:03Z</time>
      </trkpt>
      <trkpt lat="44.41625" lon="3.82429">
        <ele>1558</ele>
        <time>2022-10-28T14:54:04Z</time>
      </trkpt>
      <trkpt lat="44.41627" lon="3.82428">
        <ele>1558</ele>
        <time>2022-10-28T14:54:05Z</time>
      </trkpt>
      <trkpt lat="44.41629" lon="3.82427">
        <ele>1558</ele>
        <time>2022-10-28T14:54:06Z</time>
      </trkpt>
      <trkpt lat="44.41632" lon="3.82427">
        <ele>1558</ele>
        <time>2022-10-28T14:54:07Z</time>
      </trkpt>
      <trkpt lat="44.41634" lon="3.82427">
        <ele>1557.8</ele>
        <time>2022-10-28T14:54:08Z</time>
      </trkpt>
      <trkpt lat="44.41637" lon="3.82426">
        <ele>1557.8</ele>
        <time>2022-10-28T14:54:09Z</time>
      </trkpt>
      <trkpt lat="44.41639" lon="3.82426">
        <ele>1557.8</ele>
        <time>2022-10-28T14:54:10Z</time>
      </trkpt>
      <trkpt lat="44.41641" lon="3.82425">
        <ele>1557.6</ele>
        <time>2022-10-28T14:54:11Z</time>
      </trkpt>
      <trkpt lat="44.41644" lon="3.82425">
        <ele>1557.4</ele>
        <time>2022-10-28T14:54:12Z</time>
      </trkpt>
      <trkpt lat="44.41646" lon="3.82424">
        <ele>1557.4</ele>
        <time>2022-10-28T14:54:13Z</time>
      </trkpt>
      <trkpt lat="44.41649" lon="3.82423">
        <ele>1557.2</ele>
        <time>2022-10-28T14:54:14Z</time>
      </trkpt>
      <trkpt lat="44.41651" lon="3.82422">
        <ele>1557</ele>
        <time>2022-10-28T14:54:15Z</time>
      </trkpt>
      <trkpt lat="44.41654" lon="3.8242">
        <ele>1557</ele>
        <time>2022-10-28T14:54:16Z</time>
      </trkpt>
      <trkpt lat="44.41656" lon="3.82419">
        <ele>1556.8</ele>
        <time>2022-10-28T14:54:17Z</time>
      </trkpt>
      <trkpt lat="44.41659" lon="3.82416">
        <ele>1556.8</ele>
        <time>2022-10-28T14:54:18Z</time>
      </trkpt>
      <trkpt lat="44.41661" lon="3.82414">
        <ele>1556.6</ele>
        <time>2022-10-28T14:54:19Z</time>
      </trkpt>
      <trkpt lat="44.41663" lon="3.8241">
        <ele>1556.4</ele>
        <time>2022-10-28T14:54:20Z</time>
      </trkpt>
      <trkpt lat="44.41665" lon="3.82406">
        <ele>1556.2</ele>
        <time>2022-10-28T14:54:21Z</time>
      </trkpt>
      <trkpt lat="44.41668" lon="3.82404">
        <ele>1556</ele>
        <time>2022-10-28T14:54:22Z</time>
      </trkpt>
      <trkpt lat="44.4167" lon="3.82403">
        <ele>1556</ele>
        <time>2022-10-28T14:54:23Z</time>
      </trkpt>
      <trkpt lat="44.41672" lon="3.82404">
        <ele>1555.8</ele>
        <time>2022-10-28T14:54:24Z</time>
      </trkpt>
      <trkpt lat="44.41673" lon="3.82407">
        <ele>1555.8</ele>
        <time>2022-10-28T14:54:25Z</time>
      </trkpt>
      <trkpt lat="44.41674" lon="3.8241">
        <ele>1555.6</ele>
        <time>2022-10-28T14:54:26Z</time>
      </trkpt>
      <trkpt lat="44.41675" lon="3.82414">
        <ele>1555.6</ele>
        <time>2022-10-28T14:54:27Z</time>
      </trkpt>
      <trkpt lat="44.41677" lon="3.82417">
        <ele>1555.6</ele>
        <time>2022-10-28T14:54:28Z</time>
      </trkpt>
      <trkpt lat="44.41679" lon="3.82421">
        <ele>1555.4</ele>
        <time>2022-10-28T14:54:29Z</time>
      </trkpt>
      <trkpt lat="44.41682" lon="3.82425">
        <ele>1555.4</ele>
        <time>2022-10-28T14:54:30Z</time>
      </trkpt>
      <trkpt lat="44.41684" lon="3.82429">
        <ele>1555.4</ele>
        <time>2022-10-28T14:54:31Z</time>
      </trkpt>
      <trkpt lat="44.41687" lon="3.82433">
        <ele>1555.2</ele>
        <time>2022-10-28T14:54:32Z</time>
      </trkpt>
      <trkpt lat="44.4169" lon="3.82437">
        <ele>1555.2</ele>
        <time>2022-10-28T14:54:33Z</time>
      </trkpt>
      <trkpt lat="44.41693" lon="3.82441">
        <ele>1555.2</ele>
        <time>2022-10-28T14:54:34Z</time>
      </trkpt>
      <trkpt lat="44.41695" lon="3.82446">
        <ele>1555.2</ele>
        <time>2022-10-28T14:54:35Z</time>
      </trkpt>
      <trkpt lat="44.41698" lon="3.8245">
        <ele>1555</ele>
        <time>2022-10-28T14:54:36Z</time>
      </trkpt>
      <trkpt lat="44.41701" lon="3.82453">
        <ele>1555</ele>
        <time>2022-10-28T14:54:37Z</time>
      </trkpt>
      <trkpt lat="44.41704" lon="3.82457">
        <ele>1555</ele>
        <time>2022-10-28T14:54:38Z</time>
      </trkpt>
      <trkpt lat="44.41707" lon="3.82462">
        <ele>1555</ele>
        <time>2022-10-28T14:54:39Z</time>
      </trkpt>
      <trkpt lat="44.4171" lon="3.82466">
        <ele>1555</ele>
        <time>2022-10-28T14:54:40Z</time>
      </trkpt>
      <trkpt lat="44.41714" lon="3.8247">
        <ele>1554.8</ele>
        <time>2022-10-28T14:54:41Z</time>
      </trkpt>
      <trkpt lat="44.41717" lon="3.82474">
        <ele>1554.8</ele>
        <time>2022-10-28T14:54:42Z</time>
      </trkpt>
      <trkpt lat="44.41721" lon="3.82478">
        <ele>1554.8</ele>
        <time>2022-10-28T14:54:43Z</time>
      </trkpt>
      <trkpt lat="44.41724" lon="3.82482">
        <ele>1555</ele>
        <time>2022-10-28T14:54:44Z</time>
      </trkpt>
      <trkpt lat="44.41727" lon="3.82486">
        <ele>1555</ele>
        <time>2022-10-28T14:54:45Z</time>
      </trkpt>
      <trkpt lat="44.41731" lon="3.8249">
        <ele>1555</ele>
        <time>2022-10-28T14:54:46Z</time>
      </trkpt>
      <trkpt lat="44.41734" lon="3.82493">
        <ele>1555</ele>
        <time>2022-10-28T14:54:47Z</time>
      </trkpt>
      <trkpt lat="44.41738" lon="3.82497">
        <ele>1555.2</ele>
        <time>2022-10-28T14:54:48Z</time>
      </trkpt>
      <trkpt lat="44.41741" lon="3.82501">
        <ele>1555</ele>
        <time>2022-10-28T14:54:49Z</time>
      </trkpt>
      <trkpt lat="44.41744" lon="3.82505">
        <ele>1555.2</ele>
        <time>2022-10-28T14:54:50Z</time>
      </trkpt>
      <trkpt lat="44.41748" lon="3.82509">
        <ele>1555.2</ele>
        <time>2022-10-28T14:54:51Z</time>
      </trkpt>
      <trkpt lat="44.41751" lon="3.82513">
        <ele>1555.2</ele>
        <time>2022-10-28T14:54:52Z</time>
      </trkpt>
      <trkpt lat="44.41754" lon="3.82517">
        <ele>1555.2</ele>
        <time>2022-10-28T14:54:53Z</time>
      </trkpt>
      <trkpt lat="44.41758" lon="3.82521">
        <ele>1555.2</ele>
        <time>2022-10-28T14:54:54Z</time>
      </trkpt>
      <trkpt lat="44.41761" lon="3.82525">
        <ele>1555.2</ele>
        <time>2022-10-28T14:54:55Z</time>
      </trkpt>
      <trkpt lat="44.41765" lon="3.82529">
        <ele>1555.2</ele>
        <time>2022-10-28T14:54:56Z</time>
      </trkpt>
      <trkpt lat="44.41768" lon="3.82533">
        <ele>1555.2</ele>
        <time>2022-10-28T14:54:57Z</time>
      </trkpt>
      <trkpt lat="44.41772" lon="3.82537">
        <ele>1555.2</ele>
        <time>2022-10-28T14:54:58Z</time>
      </trkpt>
      <trkpt lat="44.41775" lon="3.8254">
        <ele>1555.2</ele>
        <time>2022-10-28T14:54:59Z</time>
      </trkpt>
      <trkpt lat="44.41779" lon="3.82544">
        <ele>1555.2</ele>
        <time>2022-10-28T14:55:00Z</time>
      </trkpt>
      <trkpt lat="44.41782" lon="3.82548">
        <ele>1555.2</ele>
        <time>2022-10-28T14:55:01Z</time>
      </trkpt>
      <trkpt lat="44.41786" lon="3.82553">
        <ele>1555.2</ele>
        <time>2022-10-28T14:55:02Z</time>
      </trkpt>
      <trkpt lat="44.41789" lon="3.82557">
        <ele>1555.2</ele>
        <time>2022-10-28T14:55:03Z</time>
      </trkpt>
      <trkpt lat="44.41793" lon="3.82561">
        <ele>1555.2</ele>
        <time>2022-10-28T14:55:04Z</time>
      </trkpt>
      <trkpt lat="44.41796" lon="3.82565">
        <ele>1555.2</ele>
        <time>2022-10-28T14:55:05Z</time>
      </trkpt>
      <trkpt lat="44.418" lon="3.82569">
        <ele>1555.2</ele>
        <time>2022-10-28T14:55:06Z</time>
      </trkpt>
      <trkpt lat="44.41804" lon="3.82573">
        <ele>1555.2</ele>
        <time>2022-10-28T14:55:07Z</time>
      </trkpt>
      <trkpt lat="44.41807" lon="3.82577">
        <ele>1555.4</ele>
        <time>2022-10-28T14:55:08Z</time>
      </trkpt>
      <trkpt lat="44.41811" lon="3.82581">
        <ele>1555.4</ele>
        <time>2022-10-28T14:55:09Z</time>
      </trkpt>
      <trkpt lat="44.41815" lon="3.82586">
        <ele>1555.4</ele>
        <time>2022-10-28T14:55:10Z</time>
      </trkpt>
      <trkpt lat="44.41818" lon="3.8259">
        <ele>1555.4</ele>
        <time>2022-10-28T14:55:11Z</time>
      </trkpt>
      <trkpt lat="44.41822" lon="3.82595">
        <ele>1555.4</ele>
        <time>2022-10-28T14:55:12Z</time>
      </trkpt>
      <trkpt lat="44.41825" lon="3.82599">
        <ele>1555.4</ele>
        <time>2022-10-28T14:55:13Z</time>
      </trkpt>
      <trkpt lat="44.41829" lon="3.82604">
        <ele>1555.4</ele>
        <time>2022-10-28T14:55:14Z</time>
      </trkpt>
      <trkpt lat="44.41832" lon="3.82608">
        <ele>1555.4</ele>
        <time>2022-10-28T14:55:15Z</time>
      </trkpt>
      <trkpt lat="44.41836" lon="3.82612">
        <ele>1555.4</ele>
        <time>2022-10-28T14:55:16Z</time>
      </trkpt>
      <trkpt lat="44.41839" lon="3.82617">
        <ele>1555.4</ele>
        <time>2022-10-28T14:55:17Z</time>
      </trkpt>
      <trkpt lat="44.41842" lon="3.82621">
        <ele>1555.4</ele>
        <time>2022-10-28T14:55:18Z</time>
      </trkpt>
      <trkpt lat="44.41845" lon="3.82626">
        <ele>1555.6</ele>
        <time>2022-10-28T14:55:19Z</time>
      </trkpt>
      <trkpt lat="44.41849" lon="3.8263">
        <ele>1555.6</ele>
        <time>2022-10-28T14:55:20Z</time>
      </trkpt>
      <trkpt lat="44.41852" lon="3.82635">
        <ele>1555.6</ele>
        <time>2022-10-28T14:55:21Z</time>
      </trkpt>
      <trkpt lat="44.41855" lon="3.8264">
        <ele>1555.6</ele>
        <time>2022-10-28T14:55:22Z</time>
      </trkpt>
      <trkpt lat="44.41857" lon="3.82645">
        <ele>1555.6</ele>
        <time>2022-10-28T14:55:23Z</time>
      </trkpt>
      <trkpt lat="44.4186" lon="3.8265">
        <ele>1555.6</ele>
        <time>2022-10-28T14:55:24Z</time>
      </trkpt>
      <trkpt lat="44.41863" lon="3.82655">
        <ele>1555.6</ele>
        <time>2022-10-28T14:55:25Z</time>
      </trkpt>
      <trkpt lat="44.41866" lon="3.82659">
        <ele>1555.8</ele>
        <time>2022-10-28T14:55:26Z</time>
      </trkpt>
      <trkpt lat="44.41868" lon="3.82664">
        <ele>1555.8</ele>
        <time>2022-10-28T14:55:27Z</time>
      </trkpt>
      <trkpt lat="44.41871" lon="3.82669">
        <ele>1555.8</ele>
        <time>2022-10-28T14:55:28Z</time>
      </trkpt>
      <trkpt lat="44.41873" lon="3.82674">
        <ele>1555.8</ele>
        <time>2022-10-28T14:55:29Z</time>
      </trkpt>
      <trkpt lat="44.41875" lon="3.82679">
        <ele>1555.8</ele>
        <time>2022-10-28T14:55:30Z</time>
      </trkpt>
      <trkpt lat="44.41877" lon="3.82685">
        <ele>1555.8</ele>
        <time>2022-10-28T14:55:31Z</time>
      </trkpt>
      <trkpt lat="44.41879" lon="3.82691">
        <ele>1555.8</ele>
        <time>2022-10-28T14:55:32Z</time>
      </trkpt>
      <trkpt lat="44.41881" lon="3.82696">
        <ele>1555.8</ele>
        <time>2022-10-28T14:55:33Z</time>
      </trkpt>
      <trkpt lat="44.41883" lon="3.82702">
        <ele>1556</ele>
        <time>2022-10-28T14:55:34Z</time>
      </trkpt>
      <trkpt lat="44.41884" lon="3.82708">
        <ele>1556</ele>
        <time>2022-10-28T14:55:35Z</time>
      </trkpt>
      <trkpt lat="44.41885" lon="3.82714">
        <ele>1556</ele>
        <time>2022-10-28T14:55:36Z</time>
      </trkpt>
      <trkpt lat="44.41886" lon="3.8272">
        <ele>1556</ele>
        <time>2022-10-28T14:55:37Z</time>
      </trkpt>
      <trkpt lat="44.41887" lon="3.82727">
        <ele>1556</ele>
        <time>2022-10-28T14:55:38Z</time>
      </trkpt>
      <trkpt lat="44.41887" lon="3.82733">
        <ele>1556</ele>
        <time>2022-10-28T14:55:39Z</time>
      </trkpt>
      <trkpt lat="44.41888" lon="3.82739">
        <ele>1556.2</ele>
        <time>2022-10-28T14:55:40Z</time>
      </trkpt>
      <trkpt lat="44.41889" lon="3.82745">
        <ele>1556.2</ele>
        <time>2022-10-28T14:55:41Z</time>
      </trkpt>
      <trkpt lat="44.41891" lon="3.8275">
        <ele>1556.2</ele>
        <time>2022-10-28T14:55:42Z</time>
      </trkpt>
      <trkpt lat="44.41892" lon="3.82756">
        <ele>1556.2</ele>
        <time>2022-10-28T14:55:43Z</time>
      </trkpt>
      <trkpt lat="44.41893" lon="3.82762">
        <ele>1556.4</ele>
        <time>2022-10-28T14:55:44Z</time>
      </trkpt>
      <trkpt lat="44.41894" lon="3.82768">
        <ele>1556.4</ele>
        <time>2022-10-28T14:55:45Z</time>
      </trkpt>
      <trkpt lat="44.41896" lon="3.82774">
        <ele>1556.4</ele>
        <time>2022-10-28T14:55:46Z</time>
      </trkpt>
      <trkpt lat="44.41897" lon="3.8278">
        <ele>1556.4</ele>
        <time>2022-10-28T14:55:47Z</time>
      </trkpt>
      <trkpt lat="44.41898" lon="3.82786">
        <ele>1556.6</ele>
        <time>2022-10-28T14:55:48Z</time>
      </trkpt>
      <trkpt lat="44.41899" lon="3.82792">
        <ele>1556.6</ele>
        <time>2022-10-28T14:55:49Z</time>
      </trkpt>
      <trkpt lat="44.419" lon="3.82798">
        <ele>1556.6</ele>
        <time>2022-10-28T14:55:50Z</time>
      </trkpt>
      <trkpt lat="44.41901" lon="3.82803">
        <ele>1556.8</ele>
        <time>2022-10-28T14:55:51Z</time>
      </trkpt>
      <trkpt lat="44.41903" lon="3.82809">
        <ele>1556.8</ele>
        <time>2022-10-28T14:55:52Z</time>
      </trkpt>
      <trkpt lat="44.41904" lon="3.82815">
        <ele>1556.8</ele>
        <time>2022-10-28T14:55:53Z</time>
      </trkpt>
      <trkpt lat="44.41906" lon="3.8282">
        <ele>1556.8</ele>
        <time>2022-10-28T14:55:54Z</time>
      </trkpt>
      <trkpt lat="44.41907" lon="3.82825">
        <ele>1557</ele>
        <time>2022-10-28T14:55:55Z</time>
      </trkpt>
      <trkpt lat="44.41909" lon="3.82831">
        <ele>1557</ele>
        <time>2022-10-28T14:55:56Z</time>
      </trkpt>
      <trkpt lat="44.4191" lon="3.82837">
        <ele>1557</ele>
        <time>2022-10-28T14:55:57Z</time>
      </trkpt>
      <trkpt lat="44.41911" lon="3.82842">
        <ele>1557</ele>
        <time>2022-10-28T14:55:58Z</time>
      </trkpt>
      <trkpt lat="44.41913" lon="3.82848">
        <ele>1557</ele>
        <time>2022-10-28T14:55:59Z</time>
      </trkpt>
      <trkpt lat="44.41914" lon="3.82853">
        <ele>1557</ele>
        <time>2022-10-28T14:56:00Z</time>
      </trkpt>
      <trkpt lat="44.41916" lon="3.82859">
        <ele>1557.2</ele>
        <time>2022-10-28T14:56:01Z</time>
      </trkpt>
      <trkpt lat="44.41917" lon="3.82865">
        <ele>1557.2</ele>
        <time>2022-10-28T14:56:02Z</time>
      </trkpt>
      <trkpt lat="44.41919" lon="3.82871">
        <ele>1557.2</ele>
        <time>2022-10-28T14:56:03Z</time>
      </trkpt>
      <trkpt lat="44.4192" lon="3.82876">
        <ele>1557.2</ele>
        <time>2022-10-28T14:56:04Z</time>
      </trkpt>
      <trkpt lat="44.41922" lon="3.82881">
        <ele>1557.2</ele>
        <time>2022-10-28T14:56:05Z</time>
      </trkpt>
      <trkpt lat="44.41923" lon="3.82887">
        <ele>1557.2</ele>
        <time>2022-10-28T14:56:06Z</time>
      </trkpt>
      <trkpt lat="44.41925" lon="3.82892">
        <ele>1557.2</ele>
        <time>2022-10-28T14:56:07Z</time>
      </trkpt>
      <trkpt lat="44.41926" lon="3.82898">
        <ele>1557.2</ele>
        <time>2022-10-28T14:56:08Z</time>
      </trkpt>
      <trkpt lat="44.41927" lon="3.82904">
        <ele>1557.2</ele>
        <time>2022-10-28T14:56:09Z</time>
      </trkpt>
      <trkpt lat="44.41928" lon="3.8291">
        <ele>1557.2</ele>
        <time>2022-10-28T14:56:10Z</time>
      </trkpt>
      <trkpt lat="44.41929" lon="3.82916">
        <ele>1557.2</ele>
        <time>2022-10-28T14:56:11Z</time>
      </trkpt>
      <trkpt lat="44.4193" lon="3.82922">
        <ele>1557</ele>
        <time>2022-10-28T14:56:12Z</time>
      </trkpt>
      <trkpt lat="44.41931" lon="3.82928">
        <ele>1557</ele>
        <time>2022-10-28T14:56:13Z</time>
      </trkpt>
      <trkpt lat="44.41932" lon="3.82933">
        <ele>1557.2</ele>
        <time>2022-10-28T14:56:14Z</time>
      </trkpt>
      <trkpt lat="44.41933" lon="3.82939">
        <ele>1557.2</ele>
        <time>2022-10-28T14:56:15Z</time>
      </trkpt>
      <trkpt lat="44.41933" lon="3.82944">
        <ele>1557.2</ele>
        <time>2022-10-28T14:56:16Z</time>
      </trkpt>
      <trkpt lat="44.41934" lon="3.8295">
        <ele>1557.2</ele>
        <time>2022-10-28T14:56:17Z</time>
      </trkpt>
      <trkpt lat="44.41935" lon="3.82956">
        <ele>1557.4</ele>
        <time>2022-10-28T14:56:18Z</time>
      </trkpt>
      <trkpt lat="44.41936" lon="3.82962">
        <ele>1557.4</ele>
        <time>2022-10-28T14:56:19Z</time>
      </trkpt>
      <trkpt lat="44.41936" lon="3.82967">
        <ele>1557.4</ele>
        <time>2022-10-28T14:56:20Z</time>
      </trkpt>
      <trkpt lat="44.41936" lon="3.82973">
        <ele>1557.4</ele>
        <time>2022-10-28T14:56:21Z</time>
      </trkpt>
      <trkpt lat="44.41936" lon="3.82979">
        <ele>1557.4</ele>
        <time>2022-10-28T14:56:22Z</time>
      </trkpt>
      <trkpt lat="44.41935" lon="3.82985">
        <ele>1557.4</ele>
        <time>2022-10-28T14:56:23Z</time>
      </trkpt>
      <trkpt lat="44.41935" lon="3.82991">
        <ele>1557.4</ele>
        <time>2022-10-28T14:56:24Z</time>
      </trkpt>
      <trkpt lat="44.41934" lon="3.82996">
        <ele>1557.6</ele>
        <time>2022-10-28T14:56:25Z</time>
      </trkpt>
      <trkpt lat="44.41933" lon="3.83002">
        <ele>1557.6</ele>
        <time>2022-10-28T14:56:26Z</time>
      </trkpt>
      <trkpt lat="44.41932" lon="3.83007">
        <ele>1557.6</ele>
        <time>2022-10-28T14:56:27Z</time>
      </trkpt>
      <trkpt lat="44.41931" lon="3.83012">
        <ele>1557.6</ele>
        <time>2022-10-28T14:56:28Z</time>
      </trkpt>
      <trkpt lat="44.4193" lon="3.83017">
        <ele>1557.8</ele>
        <time>2022-10-28T14:56:29Z</time>
      </trkpt>
      <trkpt lat="44.41929" lon="3.83022">
        <ele>1557.8</ele>
        <time>2022-10-28T14:56:30Z</time>
      </trkpt>
      <trkpt lat="44.41928" lon="3.83027">
        <ele>1557.8</ele>
        <time>2022-10-28T14:56:31Z</time>
      </trkpt>
      <trkpt lat="44.41927" lon="3.83033">
        <ele>1558</ele>
        <time>2022-10-28T14:56:32Z</time>
      </trkpt>
      <trkpt lat="44.41926" lon="3.83038">
        <ele>1558</ele>
        <time>2022-10-28T14:56:33Z</time>
      </trkpt>
      <trkpt lat="44.41925" lon="3.83043">
        <ele>1558.2</ele>
        <time>2022-10-28T14:56:34Z</time>
      </trkpt>
      <trkpt lat="44.41923" lon="3.83047">
        <ele>1558.2</ele>
        <time>2022-10-28T14:56:35Z</time>
      </trkpt>
      <trkpt lat="44.41922" lon="3.83052">
        <ele>1558.4</ele>
        <time>2022-10-28T14:56:36Z</time>
      </trkpt>
      <trkpt lat="44.4192" lon="3.83057">
        <ele>1558.4</ele>
        <time>2022-10-28T14:56:37Z</time>
      </trkpt>
      <trkpt lat="44.41918" lon="3.83061">
        <ele>1558.6</ele>
        <time>2022-10-28T14:56:38Z</time>
      </trkpt>
      <trkpt lat="44.41916" lon="3.83065">
        <ele>1558.6</ele>
        <time>2022-10-28T14:56:39Z</time>
      </trkpt>
      <trkpt lat="44.41913" lon="3.83069">
        <ele>1558.8</ele>
        <time>2022-10-28T14:56:40Z</time>
      </trkpt>
      <trkpt lat="44.41911" lon="3.83073">
        <ele>1558.8</ele>
        <time>2022-10-28T14:56:41Z</time>
      </trkpt>
      <trkpt lat="44.41909" lon="3.83077">
        <ele>1559</ele>
        <time>2022-10-28T14:56:42Z</time>
      </trkpt>
      <trkpt lat="44.41907" lon="3.83081">
        <ele>1559</ele>
        <time>2022-10-28T14:56:43Z</time>
      </trkpt>
      <trkpt lat="44.41905" lon="3.83085">
        <ele>1559.2</ele>
        <time>2022-10-28T14:56:44Z</time>
      </trkpt>
      <trkpt lat="44.41903" lon="3.83088">
        <ele>1559.2</ele>
        <time>2022-10-28T14:56:45Z</time>
      </trkpt>
      <trkpt lat="44.41901" lon="3.83092">
        <ele>1559.4</ele>
        <time>2022-10-28T14:56:46Z</time>
      </trkpt>
      <trkpt lat="44.41899" lon="3.83097">
        <ele>1559.6</ele>
        <time>2022-10-28T14:56:47Z</time>
      </trkpt>
      <trkpt lat="44.41898" lon="3.83101">
        <ele>1559.6</ele>
        <time>2022-10-28T14:56:48Z</time>
      </trkpt>
      <trkpt lat="44.41895" lon="3.83105">
        <ele>1559.8</ele>
        <time>2022-10-28T14:56:49Z</time>
      </trkpt>
      <trkpt lat="44.41894" lon="3.83109">
        <ele>1559.8</ele>
        <time>2022-10-28T14:56:50Z</time>
      </trkpt>
      <trkpt lat="44.41891" lon="3.83112">
        <ele>1560</ele>
        <time>2022-10-28T14:56:51Z</time>
      </trkpt>
      <trkpt lat="44.41889" lon="3.83116">
        <ele>1560.2</ele>
        <time>2022-10-28T14:56:52Z</time>
      </trkpt>
      <trkpt lat="44.41887" lon="3.8312">
        <ele>1560.4</ele>
        <time>2022-10-28T14:56:53Z</time>
      </trkpt>
      <trkpt lat="44.41885" lon="3.83123">
        <ele>1560.4</ele>
        <time>2022-10-28T14:56:54Z</time>
      </trkpt>
      <trkpt lat="44.41882" lon="3.83127">
        <ele>1560.4</ele>
        <time>2022-10-28T14:56:55Z</time>
      </trkpt>
      <trkpt lat="44.4188" lon="3.8313">
        <ele>1560.6</ele>
        <time>2022-10-28T14:56:56Z</time>
      </trkpt>
      <trkpt lat="44.41877" lon="3.83133">
        <ele>1560.6</ele>
        <time>2022-10-28T14:56:57Z</time>
      </trkpt>
      <trkpt lat="44.41875" lon="3.83137">
        <ele>1560.6</ele>
        <time>2022-10-28T14:56:58Z</time>
      </trkpt>
      <trkpt lat="44.41872" lon="3.83139">
        <ele>1560.8</ele>
        <time>2022-10-28T14:56:59Z</time>
      </trkpt>
      <trkpt lat="44.41869" lon="3.83143">
        <ele>1560.8</ele>
        <time>2022-10-28T14:57:00Z</time>
      </trkpt>
      <trkpt lat="44.41866" lon="3.83146">
        <ele>1561</ele>
        <time>2022-10-28T14:57:01Z</time>
      </trkpt>
      <trkpt lat="44.41864" lon="3.83149">
        <ele>1561.2</ele>
        <time>2022-10-28T14:57:02Z</time>
      </trkpt>
      <trkpt lat="44.41861" lon="3.83152">
        <ele>1561.4</ele>
        <time>2022-10-28T14:57:03Z</time>
      </trkpt>
      <trkpt lat="44.41858" lon="3.83155">
        <ele>1561.4</ele>
        <time>2022-10-28T14:57:04Z</time>
      </trkpt>
      <trkpt lat="44.41856" lon="3.83158">
        <ele>1561.6</ele>
        <time>2022-10-28T14:57:05Z</time>
      </trkpt>
      <trkpt lat="44.41854" lon="3.83161">
        <ele>1561.8</ele>
        <time>2022-10-28T14:57:06Z</time>
      </trkpt>
      <trkpt lat="44.41851" lon="3.83164">
        <ele>1562</ele>
        <time>2022-10-28T14:57:07Z</time>
      </trkpt>
      <trkpt lat="44.41849" lon="3.83166">
        <ele>1562</ele>
        <time>2022-10-28T14:57:08Z</time>
      </trkpt>
      <trkpt lat="44.41847" lon="3.83169">
        <ele>1562.2</ele>
        <time>2022-10-28T14:57:09Z</time>
      </trkpt>
      <trkpt lat="44.41844" lon="3.83172">
        <ele>1562.2</ele>
        <time>2022-10-28T14:57:10Z</time>
      </trkpt>
      <trkpt lat="44.41842" lon="3.83175">
        <ele>1562.4</ele>
        <time>2022-10-28T14:57:11Z</time>
      </trkpt>
      <trkpt lat="44.41839" lon="3.83178">
        <ele>1562.6</ele>
        <time>2022-10-28T14:57:12Z</time>
      </trkpt>
      <trkpt lat="44.41837" lon="3.83181">
        <ele>1562.8</ele>
        <time>2022-10-28T14:57:13Z</time>
      </trkpt>
      <trkpt lat="44.41834" lon="3.83184">
        <ele>1562.8</ele>
        <time>2022-10-28T14:57:14Z</time>
      </trkpt>
      <trkpt lat="44.41832" lon="3.83187">
        <ele>1563</ele>
        <time>2022-10-28T14:57:15Z</time>
      </trkpt>
      <trkpt lat="44.41829" lon="3.8319">
        <ele>1563</ele>
        <time>2022-10-28T14:57:16Z</time>
      </trkpt>
      <trkpt lat="44.41827" lon="3.83193">
        <ele>1563</ele>
        <time>2022-10-28T14:57:17Z</time>
      </trkpt>
      <trkpt lat="44.41824" lon="3.83196">
        <ele>1563.2</ele>
        <time>2022-10-28T14:57:18Z</time>
      </trkpt>
      <trkpt lat="44.41822" lon="3.83199">
        <ele>1563.2</ele>
        <time>2022-10-28T14:57:19Z</time>
      </trkpt>
      <trkpt lat="44.41819" lon="3.83202">
        <ele>1563.4</ele>
        <time>2022-10-28T14:57:20Z</time>
      </trkpt>
      <trkpt lat="44.41817" lon="3.83205">
        <ele>1563.4</ele>
        <time>2022-10-28T14:57:21Z</time>
      </trkpt>
      <trkpt lat="44.41814" lon="3.83208">
        <ele>1563.6</ele>
        <time>2022-10-28T14:57:22Z</time>
      </trkpt>
      <trkpt lat="44.41811" lon="3.83211">
        <ele>1563.6</ele>
        <time>2022-10-28T14:57:23Z</time>
      </trkpt>
      <trkpt lat="44.41809" lon="3.83214">
        <ele>1563.6</ele>
        <time>2022-10-28T14:57:24Z</time>
      </trkpt>
      <trkpt lat="44.41806" lon="3.83218">
        <ele>1563.8</ele>
        <time>2022-10-28T14:57:25Z</time>
      </trkpt>
      <trkpt lat="44.41804" lon="3.83221">
        <ele>1563.8</ele>
        <time>2022-10-28T14:57:26Z</time>
      </trkpt>
      <trkpt lat="44.41802" lon="3.83224">
        <ele>1563.8</ele>
        <time>2022-10-28T14:57:27Z</time>
      </trkpt>
      <trkpt lat="44.41799" lon="3.83227">
        <ele>1564</ele>
        <time>2022-10-28T14:57:28Z</time>
      </trkpt>
      <trkpt lat="44.41797" lon="3.8323">
        <ele>1564</ele>
        <time>2022-10-28T14:57:29Z</time>
      </trkpt>
      <trkpt lat="44.41795" lon="3.83233">
        <ele>1564</ele>
        <time>2022-10-28T14:57:30Z</time>
      </trkpt>
      <trkpt lat="44.41792" lon="3.83237">
        <ele>1564</ele>
        <time>2022-10-28T14:57:31Z</time>
      </trkpt>
      <trkpt lat="44.4179" lon="3.8324">
        <ele>1564</ele>
        <time>2022-10-28T14:57:32Z</time>
      </trkpt>
      <trkpt lat="44.41788" lon="3.83243">
        <ele>1564.2</ele>
        <time>2022-10-28T14:57:33Z</time>
      </trkpt>
      <trkpt lat="44.41785" lon="3.83246">
        <ele>1564.2</ele>
        <time>2022-10-28T14:57:34Z</time>
      </trkpt>
      <trkpt lat="44.41782" lon="3.8325">
        <ele>1564.4</ele>
        <time>2022-10-28T14:57:35Z</time>
      </trkpt>
      <trkpt lat="44.4178" lon="3.83253">
        <ele>1564.4</ele>
        <time>2022-10-28T14:57:36Z</time>
      </trkpt>
      <trkpt lat="44.41777" lon="3.83257">
        <ele>1564.4</ele>
        <time>2022-10-28T14:57:37Z</time>
      </trkpt>
      <trkpt lat="44.41774" lon="3.83261">
        <ele>1564.4</ele>
        <time>2022-10-28T14:57:38Z</time>
      </trkpt>
      <trkpt lat="44.41772" lon="3.83265">
        <ele>1564.4</ele>
        <time>2022-10-28T14:57:39Z</time>
      </trkpt>
      <trkpt lat="44.41769" lon="3.83269">
        <ele>1564.4</ele>
        <time>2022-10-28T14:57:40Z</time>
      </trkpt>
      <trkpt lat="44.41767" lon="3.83273">
        <ele>1564.6</ele>
        <time>2022-10-28T14:57:41Z</time>
      </trkpt>
      <trkpt lat="44.41765" lon="3.83277">
        <ele>1564.6</ele>
        <time>2022-10-28T14:57:42Z</time>
      </trkpt>
      <trkpt lat="44.41763" lon="3.8328">
        <ele>1564.6</ele>
        <time>2022-10-28T14:57:43Z</time>
      </trkpt>
      <trkpt lat="44.4176" lon="3.83284">
        <ele>1564.8</ele>
        <time>2022-10-28T14:57:44Z</time>
      </trkpt>
      <trkpt lat="44.41758" lon="3.83288">
        <ele>1564.8</ele>
        <time>2022-10-28T14:57:45Z</time>
      </trkpt>
      <trkpt lat="44.41756" lon="3.83291">
        <ele>1564.8</ele>
        <time>2022-10-28T14:57:46Z</time>
      </trkpt>
      <trkpt lat="44.41753" lon="3.83295">
        <ele>1565</ele>
        <time>2022-10-28T14:57:47Z</time>
      </trkpt>
      <trkpt lat="44.41751" lon="3.83298">
        <ele>1565</ele>
        <time>2022-10-28T14:57:48Z</time>
      </trkpt>
      <trkpt lat="44.41749" lon="3.83302">
        <ele>1565.2</ele>
        <time>2022-10-28T14:57:49Z</time>
      </trkpt>
      <trkpt lat="44.41747" lon="3.83306">
        <ele>1565.2</ele>
        <time>2022-10-28T14:57:50Z</time>
      </trkpt>
      <trkpt lat="44.41744" lon="3.83309">
        <ele>1565.4</ele>
        <time>2022-10-28T14:57:51Z</time>
      </trkpt>
      <trkpt lat="44.41742" lon="3.83313">
        <ele>1565.4</ele>
        <time>2022-10-28T14:57:52Z</time>
      </trkpt>
      <trkpt lat="44.41739" lon="3.83316">
        <ele>1565.4</ele>
        <time>2022-10-28T14:57:53Z</time>
      </trkpt>
      <trkpt lat="44.41737" lon="3.8332">
        <ele>1565.6</ele>
        <time>2022-10-28T14:57:54Z</time>
      </trkpt>
      <trkpt lat="44.41735" lon="3.83323">
        <ele>1565.6</ele>
        <time>2022-10-28T14:57:55Z</time>
      </trkpt>
      <trkpt lat="44.41732" lon="3.83327">
        <ele>1565.8</ele>
        <time>2022-10-28T14:57:56Z</time>
      </trkpt>
      <trkpt lat="44.4173" lon="3.8333">
        <ele>1566</ele>
        <time>2022-10-28T14:57:57Z</time>
      </trkpt>
      <trkpt lat="44.41727" lon="3.83333">
        <ele>1566.2</ele>
        <time>2022-10-28T14:57:58Z</time>
      </trkpt>
      <trkpt lat="44.41725" lon="3.83336">
        <ele>1566.2</ele>
        <time>2022-10-28T14:57:59Z</time>
      </trkpt>
      <trkpt lat="44.41722" lon="3.8334">
        <ele>1566.4</ele>
        <time>2022-10-28T14:58:00Z</time>
      </trkpt>
      <trkpt lat="44.4172" lon="3.83343">
        <ele>1566.6</ele>
        <time>2022-10-28T14:58:01Z</time>
      </trkpt>
      <trkpt lat="44.41718" lon="3.83346">
        <ele>1566.6</ele>
        <time>2022-10-28T14:58:02Z</time>
      </trkpt>
      <trkpt lat="44.41715" lon="3.8335">
        <ele>1566.8</ele>
        <time>2022-10-28T14:58:03Z</time>
      </trkpt>
      <trkpt lat="44.41713" lon="3.83353">
        <ele>1566.8</ele>
        <time>2022-10-28T14:58:04Z</time>
      </trkpt>
      <trkpt lat="44.4171" lon="3.83357">
        <ele>1567</ele>
        <time>2022-10-28T14:58:05Z</time>
      </trkpt>
      <trkpt lat="44.41708" lon="3.8336">
        <ele>1567</ele>
        <time>2022-10-28T14:58:06Z</time>
      </trkpt>
      <trkpt lat="44.41705" lon="3.83363">
        <ele>1567.2</ele>
        <time>2022-10-28T14:58:07Z</time>
      </trkpt>
      <trkpt lat="44.41702" lon="3.83366">
        <ele>1567.2</ele>
        <time>2022-10-28T14:58:08Z</time>
      </trkpt>
      <trkpt lat="44.417" lon="3.8337">
        <ele>1567.4</ele>
        <time>2022-10-28T14:58:09Z</time>
      </trkpt>
      <trkpt lat="44.41698" lon="3.83373">
        <ele>1567.4</ele>
        <time>2022-10-28T14:58:10Z</time>
      </trkpt>
      <trkpt lat="44.41695" lon="3.83376">
        <ele>1567.6</ele>
        <time>2022-10-28T14:58:11Z</time>
      </trkpt>
      <trkpt lat="44.41693" lon="3.83379">
        <ele>1567.6</ele>
        <time>2022-10-28T14:58:12Z</time>
      </trkpt>
      <trkpt lat="44.4169" lon="3.83382">
        <ele>1567.8</ele>
        <time>2022-10-28T14:58:13Z</time>
      </trkpt>
      <trkpt lat="44.41687" lon="3.83385">
        <ele>1567.8</ele>
        <time>2022-10-28T14:58:14Z</time>
      </trkpt>
      <trkpt lat="44.41685" lon="3.83388">
        <ele>1568</ele>
        <time>2022-10-28T14:58:15Z</time>
      </trkpt>
      <trkpt lat="44.41682" lon="3.83391">
        <ele>1568.2</ele>
        <time>2022-10-28T14:58:16Z</time>
      </trkpt>
      <trkpt lat="44.41679" lon="3.83394">
        <ele>1568.2</ele>
        <time>2022-10-28T14:58:17Z</time>
      </trkpt>
      <trkpt lat="44.41676" lon="3.83396">
        <ele>1568.4</ele>
        <time>2022-10-28T14:58:18Z</time>
      </trkpt>
      <trkpt lat="44.41673" lon="3.83399">
        <ele>1568.4</ele>
        <time>2022-10-28T14:58:19Z</time>
      </trkpt>
      <trkpt lat="44.41671" lon="3.83402">
        <ele>1568.4</ele>
        <time>2022-10-28T14:58:20Z</time>
      </trkpt>
      <trkpt lat="44.41668" lon="3.83405">
        <ele>1568.6</ele>
        <time>2022-10-28T14:58:21Z</time>
      </trkpt>
      <trkpt lat="44.41665" lon="3.83407">
        <ele>1568.8</ele>
        <time>2022-10-28T14:58:22Z</time>
      </trkpt>
      <trkpt lat="44.41662" lon="3.8341">
        <ele>1568.8</ele>
        <time>2022-10-28T14:58:23Z</time>
      </trkpt>
      <trkpt lat="44.41659" lon="3.83413">
        <ele>1569</ele>
        <time>2022-10-28T14:58:24Z</time>
      </trkpt>
      <trkpt lat="44.41657" lon="3.83416">
        <ele>1569</ele>
        <time>2022-10-28T14:58:25Z</time>
      </trkpt>
      <trkpt lat="44.41654" lon="3.83418">
        <ele>1569.2</ele>
        <time>2022-10-28T14:58:26Z</time>
      </trkpt>
      <trkpt lat="44.41651" lon="3.83421">
        <ele>1569.2</ele>
        <time>2022-10-28T14:58:27Z</time>
      </trkpt>
      <trkpt lat="44.41648" lon="3.83423">
        <ele>1569.4</ele>
        <time>2022-10-28T14:58:28Z</time>
      </trkpt>
      <trkpt lat="44.41645" lon="3.83426">
        <ele>1569.6</ele>
        <time>2022-10-28T14:58:29Z</time>
      </trkpt>
      <trkpt lat="44.41642" lon="3.83429">
        <ele>1569.6</ele>
        <time>2022-10-28T14:58:30Z</time>
      </trkpt>
      <trkpt lat="44.4164" lon="3.83432">
        <ele>1569.8</ele>
        <time>2022-10-28T14:58:31Z</time>
      </trkpt>
      <trkpt lat="44.41637" lon="3.83434">
        <ele>1570</ele>
        <time>2022-10-28T14:58:32Z</time>
      </trkpt>
      <trkpt lat="44.41635" lon="3.83437">
        <ele>1570</ele>
        <time>2022-10-28T14:58:33Z</time>
      </trkpt>
      <trkpt lat="44.41632" lon="3.83439">
        <ele>1570.4</ele>
        <time>2022-10-28T14:58:34Z</time>
      </trkpt>
      <trkpt lat="44.41629" lon="3.83442">
        <ele>1570.6</ele>
        <time>2022-10-28T14:58:35Z</time>
      </trkpt>
      <trkpt lat="44.41626" lon="3.83444">
        <ele>1570.6</ele>
        <time>2022-10-28T14:58:36Z</time>
      </trkpt>
      <trkpt lat="44.41624" lon="3.83447">
        <ele>1570.8</ele>
        <time>2022-10-28T14:58:37Z</time>
      </trkpt>
      <trkpt lat="44.41621" lon="3.83449">
        <ele>1571</ele>
        <time>2022-10-28T14:58:38Z</time>
      </trkpt>
      <trkpt lat="44.41619" lon="3.83452">
        <ele>1571.2</ele>
        <time>2022-10-28T14:58:39Z</time>
      </trkpt>
      <trkpt lat="44.41616" lon="3.83455">
        <ele>1571.2</ele>
        <time>2022-10-28T14:58:40Z</time>
      </trkpt>
      <trkpt lat="44.41614" lon="3.83458">
        <ele>1571.4</ele>
        <time>2022-10-28T14:58:41Z</time>
      </trkpt>
      <trkpt lat="44.41612" lon="3.83462">
        <ele>1571.6</ele>
        <time>2022-10-28T14:58:42Z</time>
      </trkpt>
      <trkpt lat="44.41609" lon="3.83465">
        <ele>1571.6</ele>
        <time>2022-10-28T14:58:43Z</time>
      </trkpt>
      <trkpt lat="44.41606" lon="3.83469">
        <ele>1571.8</ele>
        <time>2022-10-28T14:58:44Z</time>
      </trkpt>
      <trkpt lat="44.41604" lon="3.83472">
        <ele>1571.8</ele>
        <time>2022-10-28T14:58:45Z</time>
      </trkpt>
      <trkpt lat="44.41601" lon="3.83475">
        <ele>1572</ele>
        <time>2022-10-28T14:58:46Z</time>
      </trkpt>
      <trkpt lat="44.41599" lon="3.83478">
        <ele>1572</ele>
        <time>2022-10-28T14:58:47Z</time>
      </trkpt>
      <trkpt lat="44.41596" lon="3.83481">
        <ele>1572.2</ele>
        <time>2022-10-28T14:58:48Z</time>
      </trkpt>
      <trkpt lat="44.41593" lon="3.83484">
        <ele>1572.2</ele>
        <time>2022-10-28T14:58:49Z</time>
      </trkpt>
      <trkpt lat="44.41591" lon="3.83487">
        <ele>1572.4</ele>
        <time>2022-10-28T14:58:50Z</time>
      </trkpt>
      <trkpt lat="44.41588" lon="3.8349">
        <ele>1572.6</ele>
        <time>2022-10-28T14:58:51Z</time>
      </trkpt>
      <trkpt lat="44.41586" lon="3.83492">
        <ele>1572.8</ele>
        <time>2022-10-28T14:58:52Z</time>
      </trkpt>
      <trkpt lat="44.41583" lon="3.83495">
        <ele>1572.8</ele>
        <time>2022-10-28T14:58:53Z</time>
      </trkpt>
      <trkpt lat="44.4158" lon="3.83497">
        <ele>1572.8</ele>
        <time>2022-10-28T14:58:54Z</time>
      </trkpt>
      <trkpt lat="44.41577" lon="3.835">
        <ele>1573</ele>
        <time>2022-10-28T14:58:55Z</time>
      </trkpt>
      <trkpt lat="44.41574" lon="3.83502">
        <ele>1573</ele>
        <time>2022-10-28T14:58:56Z</time>
      </trkpt>
      <trkpt lat="44.41571" lon="3.83505">
        <ele>1573</ele>
        <time>2022-10-28T14:58:57Z</time>
      </trkpt>
      <trkpt lat="44.41568" lon="3.83507">
        <ele>1573</ele>
        <time>2022-10-28T14:58:58Z</time>
      </trkpt>
      <trkpt lat="44.41564" lon="3.8351">
        <ele>1573.2</ele>
        <time>2022-10-28T14:58:59Z</time>
      </trkpt>
      <trkpt lat="44.41561" lon="3.83513">
        <ele>1573.2</ele>
        <time>2022-10-28T14:59:00Z</time>
      </trkpt>
      <trkpt lat="44.41558" lon="3.83515">
        <ele>1573.2</ele>
        <time>2022-10-28T14:59:01Z</time>
      </trkpt>
      <trkpt lat="44.41555" lon="3.83517">
        <ele>1573.4</ele>
        <time>2022-10-28T14:59:02Z</time>
      </trkpt>
      <trkpt lat="44.41552" lon="3.83518">
        <ele>1573.4</ele>
        <time>2022-10-28T14:59:03Z</time>
      </trkpt>
      <trkpt lat="44.41549" lon="3.8352">
        <ele>1573.6</ele>
        <time>2022-10-28T14:59:04Z</time>
      </trkpt>
      <trkpt lat="44.41546" lon="3.83521">
        <ele>1573.8</ele>
        <time>2022-10-28T14:59:05Z</time>
      </trkpt>
      <trkpt lat="44.41542" lon="3.83522">
        <ele>1574</ele>
        <time>2022-10-28T14:59:06Z</time>
      </trkpt>
      <trkpt lat="44.41539" lon="3.83523">
        <ele>1574.2</ele>
        <time>2022-10-28T14:59:07Z</time>
      </trkpt>
      <trkpt lat="44.41537" lon="3.83523">
        <ele>1574.2</ele>
        <time>2022-10-28T14:59:08Z</time>
      </trkpt>
      <trkpt lat="44.41534" lon="3.83524">
        <ele>1574.4</ele>
        <time>2022-10-28T14:59:09Z</time>
      </trkpt>
      <trkpt lat="44.41531" lon="3.83524">
        <ele>1574.6</ele>
        <time>2022-10-28T14:59:10Z</time>
      </trkpt>
      <trkpt lat="44.41528" lon="3.83524">
        <ele>1575</ele>
        <time>2022-10-28T14:59:11Z</time>
      </trkpt>
      <trkpt lat="44.41525" lon="3.83523">
        <ele>1575</ele>
        <time>2022-10-28T14:59:12Z</time>
      </trkpt>
      <trkpt lat="44.41522" lon="3.83523">
        <ele>1575</ele>
        <time>2022-10-28T14:59:13Z</time>
      </trkpt>
      <trkpt lat="44.41519" lon="3.83522">
        <ele>1575.2</ele>
        <time>2022-10-28T14:59:14Z</time>
      </trkpt>
      <trkpt lat="44.41516" lon="3.83521">
        <ele>1575.2</ele>
        <time>2022-10-28T14:59:15Z</time>
      </trkpt>
      <trkpt lat="44.41513" lon="3.83521">
        <ele>1575.4</ele>
        <time>2022-10-28T14:59:16Z</time>
      </trkpt>
      <trkpt lat="44.4151" lon="3.8352">
        <ele>1575.4</ele>
        <time>2022-10-28T14:59:17Z</time>
      </trkpt>
      <trkpt lat="44.41508" lon="3.83519">
        <ele>1575.6</ele>
        <time>2022-10-28T14:59:18Z</time>
      </trkpt>
      <trkpt lat="44.41505" lon="3.83517">
        <ele>1575.8</ele>
        <time>2022-10-28T14:59:19Z</time>
      </trkpt>
      <trkpt lat="44.41502" lon="3.83516">
        <ele>1576</ele>
        <time>2022-10-28T14:59:20Z</time>
      </trkpt>
      <trkpt lat="44.415" lon="3.83514">
        <ele>1576.2</ele>
        <time>2022-10-28T14:59:21Z</time>
      </trkpt>
      <trkpt lat="44.41497" lon="3.83512">
        <ele>1576.2</ele>
        <time>2022-10-28T14:59:22Z</time>
      </trkpt>
      <trkpt lat="44.41494" lon="3.8351">
        <ele>1576.4</ele>
        <time>2022-10-28T14:59:23Z</time>
      </trkpt>
      <trkpt lat="44.41491" lon="3.83509">
        <ele>1576.6</ele>
        <time>2022-10-28T14:59:24Z</time>
      </trkpt>
      <trkpt lat="44.41489" lon="3.83507">
        <ele>1576.6</ele>
        <time>2022-10-28T14:59:25Z</time>
      </trkpt>
      <trkpt lat="44.41486" lon="3.83505">
        <ele>1576.8</ele>
        <time>2022-10-28T14:59:26Z</time>
      </trkpt>
      <trkpt lat="44.41484" lon="3.83504">
        <ele>1576.8</ele>
        <time>2022-10-28T14:59:27Z</time>
      </trkpt>
      <trkpt lat="44.41481" lon="3.83502">
        <ele>1576.8</ele>
        <time>2022-10-28T14:59:28Z</time>
      </trkpt>
      <trkpt lat="44.41478" lon="3.83501">
        <ele>1576.8</ele>
        <time>2022-10-28T14:59:29Z</time>
      </trkpt>
      <trkpt lat="44.41474" lon="3.835">
        <ele>1576.8</ele>
        <time>2022-10-28T14:59:30Z</time>
      </trkpt>
      <trkpt lat="44.41471" lon="3.83501">
        <ele>1576.8</ele>
        <time>2022-10-28T14:59:31Z</time>
      </trkpt>
      <trkpt lat="44.41468" lon="3.83502">
        <ele>1576.8</ele>
        <time>2022-10-28T14:59:32Z</time>
      </trkpt>
      <trkpt lat="44.41465" lon="3.83505">
        <ele>1576.8</ele>
        <time>2022-10-28T14:59:33Z</time>
      </trkpt>
      <trkpt lat="44.41462" lon="3.83509">
        <ele>1576.8</ele>
        <time>2022-10-28T14:59:34Z</time>
      </trkpt>
      <trkpt lat="44.41459" lon="3.83513">
        <ele>1576.8</ele>
        <time>2022-10-28T14:59:35Z</time>
      </trkpt>
      <trkpt lat="44.41457" lon="3.83518">
        <ele>1576.6</ele>
        <time>2022-10-28T14:59:36Z</time>
      </trkpt>
      <trkpt lat="44.41454" lon="3.83523">
        <ele>1576.6</ele>
        <time>2022-10-28T14:59:37Z</time>
      </trkpt>
      <trkpt lat="44.41452" lon="3.83528">
        <ele>1576.4</ele>
        <time>2022-10-28T14:59:38Z</time>
      </trkpt>
      <trkpt lat="44.4145" lon="3.83533">
        <ele>1576.4</ele>
        <time>2022-10-28T14:59:39Z</time>
      </trkpt>
      <trkpt lat="44.41449" lon="3.83539">
        <ele>1576.2</ele>
        <time>2022-10-28T14:59:40Z</time>
      </trkpt>
      <trkpt lat="44.41447" lon="3.83544">
        <ele>1576.2</ele>
        <time>2022-10-28T14:59:41Z</time>
      </trkpt>
      <trkpt lat="44.41446" lon="3.83549">
        <ele>1576.2</ele>
        <time>2022-10-28T14:59:42Z</time>
      </trkpt>
      <trkpt lat="44.41445" lon="3.83555">
        <ele>1576.2</ele>
        <time>2022-10-28T14:59:43Z</time>
      </trkpt>
      <trkpt lat="44.41444" lon="3.8356">
        <ele>1576</ele>
        <time>2022-10-28T14:59:44Z</time>
      </trkpt>
      <trkpt lat="44.41443" lon="3.83564">
        <ele>1576</ele>
        <time>2022-10-28T14:59:45Z</time>
      </trkpt>
      <trkpt lat="44.41441" lon="3.83569">
        <ele>1576.2</ele>
        <time>2022-10-28T14:59:46Z</time>
      </trkpt>
      <trkpt lat="44.4144" lon="3.83574">
        <ele>1576.2</ele>
        <time>2022-10-28T14:59:47Z</time>
      </trkpt>
      <trkpt lat="44.41438" lon="3.83579">
        <ele>1576.2</ele>
        <time>2022-10-28T14:59:48Z</time>
      </trkpt>
      <trkpt lat="44.41437" lon="3.83585">
        <ele>1576.2</ele>
        <time>2022-10-28T14:59:49Z</time>
      </trkpt>
      <trkpt lat="44.41436" lon="3.8359">
        <ele>1576.2</ele>
        <time>2022-10-28T14:59:50Z</time>
      </trkpt>
      <trkpt lat="44.41435" lon="3.83595">
        <ele>1576.2</ele>
        <time>2022-10-28T14:59:51Z</time>
      </trkpt>
      <trkpt lat="44.41433" lon="3.83601">
        <ele>1576</ele>
        <time>2022-10-28T14:59:52Z</time>
      </trkpt>
      <trkpt lat="44.41432" lon="3.83606">
        <ele>1576</ele>
        <time>2022-10-28T14:59:53Z</time>
      </trkpt>
      <trkpt lat="44.4143" lon="3.83612">
        <ele>1576</ele>
        <time>2022-10-28T14:59:54Z</time>
      </trkpt>
      <trkpt lat="44.41428" lon="3.83617">
        <ele>1576</ele>
        <time>2022-10-28T14:59:55Z</time>
      </trkpt>
      <trkpt lat="44.41425" lon="3.83621">
        <ele>1576</ele>
        <time>2022-10-28T14:59:56Z</time>
      </trkpt>
      <trkpt lat="44.41422" lon="3.83624">
        <ele>1576.2</ele>
        <time>2022-10-28T14:59:57Z</time>
      </trkpt>
      <trkpt lat="44.4142" lon="3.83629">
        <ele>1576.2</ele>
        <time>2022-10-28T14:59:58Z</time>
      </trkpt>
      <trkpt lat="44.41418" lon="3.83633">
        <ele>1576.2</ele>
        <time>2022-10-28T14:59:59Z</time>
      </trkpt>
      <trkpt lat="44.41416" lon="3.83637">
        <ele>1576.4</ele>
        <time>2022-10-28T15:00:00Z</time>
      </trkpt>
      <trkpt lat="44.41414" lon="3.83641">
        <ele>1576.6</ele>
        <time>2022-10-28T15:00:01Z</time>
      </trkpt>
      <trkpt lat="44.41412" lon="3.83645">
        <ele>1576.6</ele>
        <time>2022-10-28T15:00:02Z</time>
      </trkpt>
      <trkpt lat="44.4141" lon="3.83649">
        <ele>1576.8</ele>
        <time>2022-10-28T15:00:03Z</time>
      </trkpt>
      <trkpt lat="44.41409" lon="3.83653">
        <ele>1577</ele>
        <time>2022-10-28T15:00:04Z</time>
      </trkpt>
      <trkpt lat="44.41407" lon="3.83657">
        <ele>1577</ele>
        <time>2022-10-28T15:00:05Z</time>
      </trkpt>
      <trkpt lat="44.41405" lon="3.83661">
        <ele>1577.2</ele>
        <time>2022-10-28T15:00:06Z</time>
      </trkpt>
      <trkpt lat="44.41404" lon="3.83664">
        <ele>1577.4</ele>
        <time>2022-10-28T15:00:07Z</time>
      </trkpt>
      <trkpt lat="44.41402" lon="3.83668">
        <ele>1577.6</ele>
        <time>2022-10-28T15:00:08Z</time>
      </trkpt>
      <trkpt lat="44.41401" lon="3.83671">
        <ele>1577.6</ele>
        <time>2022-10-28T15:00:09Z</time>
      </trkpt>
      <trkpt lat="44.41399" lon="3.83675">
        <ele>1577.8</ele>
        <time>2022-10-28T15:00:10Z</time>
      </trkpt>
      <trkpt lat="44.41397" lon="3.83678">
        <ele>1578</ele>
        <time>2022-10-28T15:00:11Z</time>
      </trkpt>
      <trkpt lat="44.41396" lon="3.83682">
        <ele>1578.2</ele>
        <time>2022-10-28T15:00:12Z</time>
      </trkpt>
      <trkpt lat="44.41394" lon="3.83686">
        <ele>1578.4</ele>
        <time>2022-10-28T15:00:13Z</time>
      </trkpt>
      <trkpt lat="44.41392" lon="3.8369">
        <ele>1578.4</ele>
        <time>2022-10-28T15:00:14Z</time>
      </trkpt>
      <trkpt lat="44.4139" lon="3.83694">
        <ele>1578.6</ele>
        <time>2022-10-28T15:00:15Z</time>
      </trkpt>
      <trkpt lat="44.41389" lon="3.83698">
        <ele>1578.6</ele>
        <time>2022-10-28T15:00:16Z</time>
      </trkpt>
      <trkpt lat="44.41387" lon="3.83701">
        <ele>1578.8</ele>
        <time>2022-10-28T15:00:17Z</time>
      </trkpt>
      <trkpt lat="44.41385" lon="3.83705">
        <ele>1578.8</ele>
        <time>2022-10-28T15:00:18Z</time>
      </trkpt>
      <trkpt lat="44.41383" lon="3.83709">
        <ele>1578.8</ele>
        <time>2022-10-28T15:00:19Z</time>
      </trkpt>
      <trkpt lat="44.41382" lon="3.83713">
        <ele>1579</ele>
        <time>2022-10-28T15:00:20Z</time>
      </trkpt>
      <trkpt lat="44.4138" lon="3.83718">
        <ele>1579</ele>
        <time>2022-10-28T15:00:21Z</time>
      </trkpt>
      <trkpt lat="44.41378" lon="3.83722">
        <ele>1579</ele>
        <time>2022-10-28T15:00:22Z</time>
      </trkpt>
      <trkpt lat="44.41376" lon="3.83726">
        <ele>1579.2</ele>
        <time>2022-10-28T15:00:23Z</time>
      </trkpt>
      <trkpt lat="44.41374" lon="3.83731">
        <ele>1579.2</ele>
        <time>2022-10-28T15:00:24Z</time>
      </trkpt>
      <trkpt lat="44.41372" lon="3.83736">
        <ele>1579.2</ele>
        <time>2022-10-28T15:00:25Z</time>
      </trkpt>
      <trkpt lat="44.4137" lon="3.8374">
        <ele>1579.2</ele>
        <time>2022-10-28T15:00:26Z</time>
      </trkpt>
      <trkpt lat="44.41368" lon="3.83745">
        <ele>1579.2</ele>
        <time>2022-10-28T15:00:27Z</time>
      </trkpt>
      <trkpt lat="44.41366" lon="3.83749">
        <ele>1579.4</ele>
        <time>2022-10-28T15:00:28Z</time>
      </trkpt>
      <trkpt lat="44.41364" lon="3.83753">
        <ele>1579.4</ele>
        <time>2022-10-28T15:00:29Z</time>
      </trkpt>
      <trkpt lat="44.41362" lon="3.83757">
        <ele>1579.4</ele>
        <time>2022-10-28T15:00:30Z</time>
      </trkpt>
      <trkpt lat="44.41361" lon="3.83762">
        <ele>1579.2</ele>
        <time>2022-10-28T15:00:31Z</time>
      </trkpt>
      <trkpt lat="44.41359" lon="3.83767">
        <ele>1579.2</ele>
        <time>2022-10-28T15:00:32Z</time>
      </trkpt>
      <trkpt lat="44.41356" lon="3.83771">
        <ele>1579.2</ele>
        <time>2022-10-28T15:00:33Z</time>
      </trkpt>
      <trkpt lat="44.41354" lon="3.83776">
        <ele>1579.2</ele>
        <time>2022-10-28T15:00:34Z</time>
      </trkpt>
      <trkpt lat="44.41352" lon="3.83781">
        <ele>1579.2</ele>
        <time>2022-10-28T15:00:35Z</time>
      </trkpt>
      <trkpt lat="44.4135" lon="3.83786">
        <ele>1579.2</ele>
        <time>2022-10-28T15:00:36Z</time>
      </trkpt>
      <trkpt lat="44.41348" lon="3.83792">
        <ele>1579.2</ele>
        <time>2022-10-28T15:00:37Z</time>
      </trkpt>
      <trkpt lat="44.41346" lon="3.83797">
        <ele>1579.2</ele>
        <time>2022-10-28T15:00:38Z</time>
      </trkpt>
      <trkpt lat="44.41344" lon="3.83802">
        <ele>1579.2</ele>
        <time>2022-10-28T15:00:39Z</time>
      </trkpt>
      <trkpt lat="44.41342" lon="3.83807">
        <ele>1579.2</ele>
        <time>2022-10-28T15:00:40Z</time>
      </trkpt>
      <trkpt lat="44.41341" lon="3.83813">
        <ele>1579</ele>
        <time>2022-10-28T15:00:41Z</time>
      </trkpt>
      <trkpt lat="44.41339" lon="3.83818">
        <ele>1579</ele>
        <time>2022-10-28T15:00:42Z</time>
      </trkpt>
      <trkpt lat="44.41338" lon="3.83823">
        <ele>1579</ele>
        <time>2022-10-28T15:00:43Z</time>
      </trkpt>
      <trkpt lat="44.41336" lon="3.83829">
        <ele>1578.8</ele>
        <time>2022-10-28T15:00:44Z</time>
      </trkpt>
      <trkpt lat="44.41335" lon="3.83834">
        <ele>1578.6</ele>
        <time>2022-10-28T15:00:45Z</time>
      </trkpt>
      <trkpt lat="44.41333" lon="3.8384">
        <ele>1578.6</ele>
        <time>2022-10-28T15:00:46Z</time>
      </trkpt>
      <trkpt lat="44.41332" lon="3.83845">
        <ele>1578.6</ele>
        <time>2022-10-28T15:00:47Z</time>
      </trkpt>
      <trkpt lat="44.4133" lon="3.8385">
        <ele>1578.6</ele>
        <time>2022-10-28T15:00:48Z</time>
      </trkpt>
      <trkpt lat="44.41329" lon="3.83856">
        <ele>1578.4</ele>
        <time>2022-10-28T15:00:49Z</time>
      </trkpt>
      <trkpt lat="44.41328" lon="3.8386">
        <ele>1578.4</ele>
        <time>2022-10-28T15:00:50Z</time>
      </trkpt>
      <trkpt lat="44.41326" lon="3.83865">
        <ele>1578.4</ele>
        <time>2022-10-28T15:00:51Z</time>
      </trkpt>
      <trkpt lat="44.41325" lon="3.8387">
        <ele>1578.2</ele>
        <time>2022-10-28T15:00:52Z</time>
      </trkpt>
      <trkpt lat="44.41324" lon="3.83875">
        <ele>1578.4</ele>
        <time>2022-10-28T15:00:53Z</time>
      </trkpt>
      <trkpt lat="44.41322" lon="3.83879">
        <ele>1578.4</ele>
        <time>2022-10-28T15:00:54Z</time>
      </trkpt>
      <trkpt lat="44.41321" lon="3.83884">
        <ele>1578.4</ele>
        <time>2022-10-28T15:00:55Z</time>
      </trkpt>
      <trkpt lat="44.41321" lon="3.83889">
        <ele>1578.4</ele>
        <time>2022-10-28T15:00:56Z</time>
      </trkpt>
      <trkpt lat="44.4132" lon="3.83894">
        <ele>1578.6</ele>
        <time>2022-10-28T15:00:57Z</time>
      </trkpt>
      <trkpt lat="44.41319" lon="3.83899">
        <ele>1578.8</ele>
        <time>2022-10-28T15:00:58Z</time>
      </trkpt>
      <trkpt lat="44.41318" lon="3.83903">
        <ele>1578.8</ele>
        <time>2022-10-28T15:00:59Z</time>
      </trkpt>
      <trkpt lat="44.41317" lon="3.83907">
        <ele>1579</ele>
        <time>2022-10-28T15:01:00Z</time>
      </trkpt>
      <trkpt lat="44.41315" lon="3.83911">
        <ele>1579</ele>
        <time>2022-10-28T15:01:01Z</time>
      </trkpt>
      <trkpt lat="44.41314" lon="3.83915">
        <ele>1579</ele>
        <time>2022-10-28T15:01:02Z</time>
      </trkpt>
      <trkpt lat="44.41313" lon="3.8392">
        <ele>1579</ele>
        <time>2022-10-28T15:01:03Z</time>
      </trkpt>
      <trkpt lat="44.41311" lon="3.83924">
        <ele>1579</ele>
        <time>2022-10-28T15:01:04Z</time>
      </trkpt>
      <trkpt lat="44.4131" lon="3.83928">
        <ele>1579.2</ele>
        <time>2022-10-28T15:01:05Z</time>
      </trkpt>
      <trkpt lat="44.41309" lon="3.83933">
        <ele>1579.2</ele>
        <time>2022-10-28T15:01:06Z</time>
      </trkpt>
      <trkpt lat="44.41307" lon="3.83937">
        <ele>1579.4</ele>
        <time>2022-10-28T15:01:07Z</time>
      </trkpt>
      <trkpt lat="44.41306" lon="3.83941">
        <ele>1579.4</ele>
        <time>2022-10-28T15:01:08Z</time>
      </trkpt>
      <trkpt lat="44.41305" lon="3.83946">
        <ele>1579.6</ele>
        <time>2022-10-28T15:01:09Z</time>
      </trkpt>
      <trkpt lat="44.41304" lon="3.8395">
        <ele>1579.6</ele>
        <time>2022-10-28T15:01:10Z</time>
      </trkpt>
      <trkpt lat="44.41303" lon="3.83954">
        <ele>1579.8</ele>
        <time>2022-10-28T15:01:11Z</time>
      </trkpt>
      <trkpt lat="44.41302" lon="3.83957">
        <ele>1579.8</ele>
        <time>2022-10-28T15:01:12Z</time>
      </trkpt>
      <trkpt lat="44.41302" lon="3.83962">
        <ele>1580</ele>
        <time>2022-10-28T15:01:13Z</time>
      </trkpt>
      <trkpt lat="44.41301" lon="3.83966">
        <ele>1580.2</ele>
        <time>2022-10-28T15:01:14Z</time>
      </trkpt>
      <trkpt lat="44.413" lon="3.83971">
        <ele>1580.2</ele>
        <time>2022-10-28T15:01:15Z</time>
      </trkpt>
      <trkpt lat="44.41299" lon="3.83975">
        <ele>1580.4</ele>
        <time>2022-10-28T15:01:16Z</time>
      </trkpt>
      <trkpt lat="44.41298" lon="3.83979">
        <ele>1580.6</ele>
        <time>2022-10-28T15:01:17Z</time>
      </trkpt>
      <trkpt lat="44.41297" lon="3.83984">
        <ele>1580.6</ele>
        <time>2022-10-28T15:01:18Z</time>
      </trkpt>
      <trkpt lat="44.41297" lon="3.83988">
        <ele>1580.6</ele>
        <time>2022-10-28T15:01:19Z</time>
      </trkpt>
      <trkpt lat="44.41296" lon="3.83993">
        <ele>1580.8</ele>
        <time>2022-10-28T15:01:20Z</time>
      </trkpt>
      <trkpt lat="44.41295" lon="3.83997">
        <ele>1580.8</ele>
        <time>2022-10-28T15:01:21Z</time>
      </trkpt>
      <trkpt lat="44.41294" lon="3.84001">
        <ele>1581</ele>
        <time>2022-10-28T15:01:22Z</time>
      </trkpt>
      <trkpt lat="44.41293" lon="3.84004">
        <ele>1581.2</ele>
        <time>2022-10-28T15:01:23Z</time>
      </trkpt>
      <trkpt lat="44.41292" lon="3.84008">
        <ele>1581.2</ele>
        <time>2022-10-28T15:01:24Z</time>
      </trkpt>
      <trkpt lat="44.4129" lon="3.84011">
        <ele>1581.2</ele>
        <time>2022-10-28T15:01:25Z</time>
      </trkpt>
      <trkpt lat="44.41289" lon="3.84015">
        <ele>1581.4</ele>
        <time>2022-10-28T15:01:26Z</time>
      </trkpt>
      <trkpt lat="44.41289" lon="3.84019">
        <ele>1581.6</ele>
        <time>2022-10-28T15:01:27Z</time>
      </trkpt>
      <trkpt lat="44.41288" lon="3.84024">
        <ele>1581.8</ele>
        <time>2022-10-28T15:01:28Z</time>
      </trkpt>
      <trkpt lat="44.41287" lon="3.84028">
        <ele>1582</ele>
        <time>2022-10-28T15:01:29Z</time>
      </trkpt>
      <trkpt lat="44.41286" lon="3.84032">
        <ele>1582</ele>
        <time>2022-10-28T15:01:30Z</time>
      </trkpt>
      <trkpt lat="44.41286" lon="3.84037">
        <ele>1582.2</ele>
        <time>2022-10-28T15:01:31Z</time>
      </trkpt>
      <trkpt lat="44.41286" lon="3.84041">
        <ele>1582.4</ele>
        <time>2022-10-28T15:01:32Z</time>
      </trkpt>
      <trkpt lat="44.41285" lon="3.84045">
        <ele>1582.6</ele>
        <time>2022-10-28T15:01:33Z</time>
      </trkpt>
      <trkpt lat="44.41284" lon="3.84049">
        <ele>1582.8</ele>
        <time>2022-10-28T15:01:34Z</time>
      </trkpt>
      <trkpt lat="44.41283" lon="3.84053">
        <ele>1583</ele>
        <time>2022-10-28T15:01:35Z</time>
      </trkpt>
      <trkpt lat="44.41282" lon="3.84057">
        <ele>1583.2</ele>
        <time>2022-10-28T15:01:36Z</time>
      </trkpt>
      <trkpt lat="44.41282" lon="3.84061">
        <ele>1583.4</ele>
        <time>2022-10-28T15:01:37Z</time>
      </trkpt>
      <trkpt lat="44.41281" lon="3.84065">
        <ele>1583.4</ele>
        <time>2022-10-28T15:01:38Z</time>
      </trkpt>
      <trkpt lat="44.4128" lon="3.8407">
        <ele>1583.6</ele>
        <time>2022-10-28T15:01:39Z</time>
      </trkpt>
      <trkpt lat="44.41279" lon="3.84074">
        <ele>1583.8</ele>
        <time>2022-10-28T15:01:40Z</time>
      </trkpt>
      <trkpt lat="44.41277" lon="3.84078">
        <ele>1584</ele>
        <time>2022-10-28T15:01:41Z</time>
      </trkpt>
      <trkpt lat="44.41277" lon="3.84082">
        <ele>1584</ele>
        <time>2022-10-28T15:01:42Z</time>
      </trkpt>
      <trkpt lat="44.41276" lon="3.84087">
        <ele>1584</ele>
        <time>2022-10-28T15:01:43Z</time>
      </trkpt>
      <trkpt lat="44.41275" lon="3.84091">
        <ele>1584.2</ele>
        <time>2022-10-28T15:01:44Z</time>
      </trkpt>
      <trkpt lat="44.41274" lon="3.84096">
        <ele>1584.2</ele>
        <time>2022-10-28T15:01:45Z</time>
      </trkpt>
      <trkpt lat="44.41273" lon="3.841">
        <ele>1584.4</ele>
        <time>2022-10-28T15:01:46Z</time>
      </trkpt>
      <trkpt lat="44.41272" lon="3.84105">
        <ele>1584.4</ele>
        <time>2022-10-28T15:01:47Z</time>
      </trkpt>
      <trkpt lat="44.41272" lon="3.84109">
        <ele>1584.6</ele>
        <time>2022-10-28T15:01:48Z</time>
      </trkpt>
      <trkpt lat="44.41271" lon="3.84114">
        <ele>1584.6</ele>
        <time>2022-10-28T15:01:49Z</time>
      </trkpt>
      <trkpt lat="44.4127" lon="3.84119">
        <ele>1584.6</ele>
        <time>2022-10-28T15:01:50Z</time>
      </trkpt>
      <trkpt lat="44.41269" lon="3.84123">
        <ele>1584.8</ele>
        <time>2022-10-28T15:01:51Z</time>
      </trkpt>
      <trkpt lat="44.41268" lon="3.84128">
        <ele>1584.8</ele>
        <time>2022-10-28T15:01:52Z</time>
      </trkpt>
      <trkpt lat="44.41267" lon="3.84133">
        <ele>1585</ele>
        <time>2022-10-28T15:01:53Z</time>
      </trkpt>
      <trkpt lat="44.41267" lon="3.84138">
        <ele>1585</ele>
        <time>2022-10-28T15:01:54Z</time>
      </trkpt>
      <trkpt lat="44.41266" lon="3.84143">
        <ele>1585.2</ele>
        <time>2022-10-28T15:01:55Z</time>
      </trkpt>
      <trkpt lat="44.41265" lon="3.84148">
        <ele>1585.2</ele>
        <time>2022-10-28T15:01:56Z</time>
      </trkpt>
      <trkpt lat="44.41264" lon="3.84152">
        <ele>1585.4</ele>
        <time>2022-10-28T15:01:57Z</time>
      </trkpt>
      <trkpt lat="44.41263" lon="3.84157">
        <ele>1585.4</ele>
        <time>2022-10-28T15:01:58Z</time>
      </trkpt>
      <trkpt lat="44.41262" lon="3.84161">
        <ele>1585.6</ele>
        <time>2022-10-28T15:01:59Z</time>
      </trkpt>
      <trkpt lat="44.41261" lon="3.84166">
        <ele>1585.8</ele>
        <time>2022-10-28T15:02:00Z</time>
      </trkpt>
      <trkpt lat="44.41261" lon="3.84171">
        <ele>1585.8</ele>
        <time>2022-10-28T15:02:01Z</time>
      </trkpt>
      <trkpt lat="44.41261" lon="3.84176">
        <ele>1585.8</ele>
        <time>2022-10-28T15:02:02Z</time>
      </trkpt>
      <trkpt lat="44.4126" lon="3.84181">
        <ele>1586</ele>
        <time>2022-10-28T15:02:03Z</time>
      </trkpt>
      <trkpt lat="44.4126" lon="3.84186">
        <ele>1586</ele>
        <time>2022-10-28T15:02:04Z</time>
      </trkpt>
      <trkpt lat="44.4126" lon="3.84192">
        <ele>1586</ele>
        <time>2022-10-28T15:02:05Z</time>
      </trkpt>
      <trkpt lat="44.4126" lon="3.84197">
        <ele>1586.2</ele>
        <time>2022-10-28T15:02:06Z</time>
      </trkpt>
      <trkpt lat="44.41261" lon="3.84203">
        <ele>1586.2</ele>
        <time>2022-10-28T15:02:07Z</time>
      </trkpt>
      <trkpt lat="44.41261" lon="3.84208">
        <ele>1586.2</ele>
        <time>2022-10-28T15:02:08Z</time>
      </trkpt>
      <trkpt lat="44.41261" lon="3.84214">
        <ele>1586.2</ele>
        <time>2022-10-28T15:02:09Z</time>
      </trkpt>
      <trkpt lat="44.41261" lon="3.8422">
        <ele>1586.2</ele>
        <time>2022-10-28T15:02:10Z</time>
      </trkpt>
      <trkpt lat="44.41261" lon="3.84226">
        <ele>1586</ele>
        <time>2022-10-28T15:02:11Z</time>
      </trkpt>
      <trkpt lat="44.41261" lon="3.84232">
        <ele>1586</ele>
        <time>2022-10-28T15:02:12Z</time>
      </trkpt>
      <trkpt lat="44.41261" lon="3.84238">
        <ele>1586</ele>
        <time>2022-10-28T15:02:13Z</time>
      </trkpt>
      <trkpt lat="44.41261" lon="3.84245">
        <ele>1585.8</ele>
        <time>2022-10-28T15:02:14Z</time>
      </trkpt>
      <trkpt lat="44.41261" lon="3.84251">
        <ele>1585.8</ele>
        <time>2022-10-28T15:02:15Z</time>
      </trkpt>
      <trkpt lat="44.41261" lon="3.84257">
        <ele>1585.6</ele>
        <time>2022-10-28T15:02:16Z</time>
      </trkpt>
      <trkpt lat="44.41261" lon="3.84263">
        <ele>1585.6</ele>
        <time>2022-10-28T15:02:17Z</time>
      </trkpt>
      <trkpt lat="44.41262" lon="3.84269">
        <ele>1585.4</ele>
        <time>2022-10-28T15:02:18Z</time>
      </trkpt>
      <trkpt lat="44.41262" lon="3.84275">
        <ele>1585.4</ele>
        <time>2022-10-28T15:02:19Z</time>
      </trkpt>
      <trkpt lat="44.41263" lon="3.84281">
        <ele>1585.4</ele>
        <time>2022-10-28T15:02:20Z</time>
      </trkpt>
      <trkpt lat="44.41264" lon="3.84288">
        <ele>1585.2</ele>
        <time>2022-10-28T15:02:21Z</time>
      </trkpt>
      <trkpt lat="44.41265" lon="3.84294">
        <ele>1585</ele>
        <time>2022-10-28T15:02:22Z</time>
      </trkpt>
      <trkpt lat="44.41266" lon="3.84301">
        <ele>1585</ele>
        <time>2022-10-28T15:02:23Z</time>
      </trkpt>
      <trkpt lat="44.41267" lon="3.84308">
        <ele>1584.8</ele>
        <time>2022-10-28T15:02:24Z</time>
      </trkpt>
      <trkpt lat="44.41269" lon="3.84316">
        <ele>1584.6</ele>
        <time>2022-10-28T15:02:25Z</time>
      </trkpt>
      <trkpt lat="44.4127" lon="3.84324">
        <ele>1584.4</ele>
        <time>2022-10-28T15:02:26Z</time>
      </trkpt>
      <trkpt lat="44.41271" lon="3.84331">
        <ele>1584.4</ele>
        <time>2022-10-28T15:02:27Z</time>
      </trkpt>
      <trkpt lat="44.41273" lon="3.84338">
        <ele>1584.4</ele>
        <time>2022-10-28T15:02:28Z</time>
      </trkpt>
      <trkpt lat="44.41274" lon="3.84345">
        <ele>1584.2</ele>
        <time>2022-10-28T15:02:29Z</time>
      </trkpt>
      <trkpt lat="44.41276" lon="3.84352">
        <ele>1584.2</ele>
        <time>2022-10-28T15:02:30Z</time>
      </trkpt>
      <trkpt lat="44.41278" lon="3.84359">
        <ele>1584</ele>
        <time>2022-10-28T15:02:31Z</time>
      </trkpt>
      <trkpt lat="44.4128" lon="3.84366">
        <ele>1584</ele>
        <time>2022-10-28T15:02:32Z</time>
      </trkpt>
      <trkpt lat="44.41281" lon="3.84373">
        <ele>1583.8</ele>
        <time>2022-10-28T15:02:33Z</time>
      </trkpt>
      <trkpt lat="44.41284" lon="3.8438">
        <ele>1583.6</ele>
        <time>2022-10-28T15:02:34Z</time>
      </trkpt>
      <trkpt lat="44.41286" lon="3.84387">
        <ele>1583.6</ele>
        <time>2022-10-28T15:02:35Z</time>
      </trkpt>
      <trkpt lat="44.41288" lon="3.84393">
        <ele>1583.6</ele>
        <time>2022-10-28T15:02:36Z</time>
      </trkpt>
      <trkpt lat="44.41291" lon="3.844">
        <ele>1583.4</ele>
        <time>2022-10-28T15:02:37Z</time>
      </trkpt>
      <trkpt lat="44.41294" lon="3.84406">
        <ele>1583.2</ele>
        <time>2022-10-28T15:02:38Z</time>
      </trkpt>
      <trkpt lat="44.41296" lon="3.84412">
        <ele>1583.2</ele>
        <time>2022-10-28T15:02:39Z</time>
      </trkpt>
      <trkpt lat="44.41298" lon="3.84418">
        <ele>1583.2</ele>
        <time>2022-10-28T15:02:40Z</time>
      </trkpt>
      <trkpt lat="44.41301" lon="3.84423">
        <ele>1583</ele>
        <time>2022-10-28T15:02:41Z</time>
      </trkpt>
      <trkpt lat="44.41304" lon="3.84428">
        <ele>1583</ele>
        <time>2022-10-28T15:02:42Z</time>
      </trkpt>
      <trkpt lat="44.41307" lon="3.84433">
        <ele>1583</ele>
        <time>2022-10-28T15:02:43Z</time>
      </trkpt>
      <trkpt lat="44.41309" lon="3.84438">
        <ele>1583</ele>
        <time>2022-10-28T15:02:44Z</time>
      </trkpt>
      <trkpt lat="44.41311" lon="3.84443">
        <ele>1583</ele>
        <time>2022-10-28T15:02:45Z</time>
      </trkpt>
      <trkpt lat="44.41313" lon="3.84449">
        <ele>1583</ele>
        <time>2022-10-28T15:02:46Z</time>
      </trkpt>
      <trkpt lat="44.41316" lon="3.84453">
        <ele>1583</ele>
        <time>2022-10-28T15:02:47Z</time>
      </trkpt>
      <trkpt lat="44.41318" lon="3.84458">
        <ele>1583</ele>
        <time>2022-10-28T15:02:48Z</time>
      </trkpt>
      <trkpt lat="44.4132" lon="3.84463">
        <ele>1582.8</ele>
        <time>2022-10-28T15:02:49Z</time>
      </trkpt>
      <trkpt lat="44.41322" lon="3.84468">
        <ele>1583</ele>
        <time>2022-10-28T15:02:50Z</time>
      </trkpt>
      <trkpt lat="44.41325" lon="3.84472">
        <ele>1583</ele>
        <time>2022-10-28T15:02:51Z</time>
      </trkpt>
      <trkpt lat="44.41328" lon="3.84477">
        <ele>1583</ele>
        <time>2022-10-28T15:02:52Z</time>
      </trkpt>
      <trkpt lat="44.4133" lon="3.84481">
        <ele>1583</ele>
        <time>2022-10-28T15:02:53Z</time>
      </trkpt>
      <trkpt lat="44.41333" lon="3.84486">
        <ele>1583</ele>
        <time>2022-10-28T15:02:54Z</time>
      </trkpt>
      <trkpt lat="44.41336" lon="3.84491">
        <ele>1582.8</ele>
        <time>2022-10-28T15:02:55Z</time>
      </trkpt>
      <trkpt lat="44.41338" lon="3.84497">
        <ele>1582.8</ele>
        <time>2022-10-28T15:02:56Z</time>
      </trkpt>
      <trkpt lat="44.41341" lon="3.84503">
        <ele>1582.8</ele>
        <time>2022-10-28T15:02:57Z</time>
      </trkpt>
      <trkpt lat="44.41343" lon="3.84509">
        <ele>1582.6</ele>
        <time>2022-10-28T15:02:58Z</time>
      </trkpt>
      <trkpt lat="44.41346" lon="3.84515">
        <ele>1582.4</ele>
        <time>2022-10-28T15:02:59Z</time>
      </trkpt>
      <trkpt lat="44.41348" lon="3.84522">
        <ele>1582.4</ele>
        <time>2022-10-28T15:03:00Z</time>
      </trkpt>
      <trkpt lat="44.4135" lon="3.84529">
        <ele>1582.2</ele>
        <time>2022-10-28T15:03:01Z</time>
      </trkpt>
      <trkpt lat="44.41352" lon="3.84536">
        <ele>1582.2</ele>
        <time>2022-10-28T15:03:02Z</time>
      </trkpt>
      <trkpt lat="44.41353" lon="3.84542">
        <ele>1582.2</ele>
        <time>2022-10-28T15:03:03Z</time>
      </trkpt>
      <trkpt lat="44.41355" lon="3.84549">
        <ele>1582.2</ele>
        <time>2022-10-28T15:03:04Z</time>
      </trkpt>
      <trkpt lat="44.41356" lon="3.84555">
        <ele>1582.2</ele>
        <time>2022-10-28T15:03:05Z</time>
      </trkpt>
      <trkpt lat="44.41357" lon="3.84561">
        <ele>1582.2</ele>
        <time>2022-10-28T15:03:06Z</time>
      </trkpt>
      <trkpt lat="44.41358" lon="3.84567">
        <ele>1582.2</ele>
        <time>2022-10-28T15:03:07Z</time>
      </trkpt>
      <trkpt lat="44.41359" lon="3.84573">
        <ele>1582.2</ele>
        <time>2022-10-28T15:03:08Z</time>
      </trkpt>
      <trkpt lat="44.4136" lon="3.84579">
        <ele>1582.2</ele>
        <time>2022-10-28T15:03:09Z</time>
      </trkpt>
      <trkpt lat="44.4136" lon="3.84585">
        <ele>1582.2</ele>
        <time>2022-10-28T15:03:10Z</time>
      </trkpt>
      <trkpt lat="44.41361" lon="3.84591">
        <ele>1582.2</ele>
        <time>2022-10-28T15:03:11Z</time>
      </trkpt>
      <trkpt lat="44.41363" lon="3.84597">
        <ele>1582.2</ele>
        <time>2022-10-28T15:03:12Z</time>
      </trkpt>
      <trkpt lat="44.41364" lon="3.84603">
        <ele>1582</ele>
        <time>2022-10-28T15:03:13Z</time>
      </trkpt>
      <trkpt lat="44.41365" lon="3.84609">
        <ele>1582</ele>
        <time>2022-10-28T15:03:14Z</time>
      </trkpt>
      <trkpt lat="44.41365" lon="3.84614">
        <ele>1582</ele>
        <time>2022-10-28T15:03:15Z</time>
      </trkpt>
      <trkpt lat="44.41366" lon="3.84621">
        <ele>1581.8</ele>
        <time>2022-10-28T15:03:16Z</time>
      </trkpt>
      <trkpt lat="44.41366" lon="3.84627">
        <ele>1581.6</ele>
        <time>2022-10-28T15:03:17Z</time>
      </trkpt>
      <trkpt lat="44.41367" lon="3.84633">
        <ele>1581.6</ele>
        <time>2022-10-28T15:03:18Z</time>
      </trkpt>
      <trkpt lat="44.41368" lon="3.8464">
        <ele>1581.4</ele>
        <time>2022-10-28T15:03:19Z</time>
      </trkpt>
      <trkpt lat="44.41369" lon="3.84647">
        <ele>1581.2</ele>
        <time>2022-10-28T15:03:20Z</time>
      </trkpt>
      <trkpt lat="44.4137" lon="3.84654">
        <ele>1581</ele>
        <time>2022-10-28T15:03:21Z</time>
      </trkpt>
      <trkpt lat="44.41372" lon="3.84661">
        <ele>1581</ele>
        <time>2022-10-28T15:03:22Z</time>
      </trkpt>
      <trkpt lat="44.41372" lon="3.84669">
        <ele>1580.8</ele>
        <time>2022-10-28T15:03:23Z</time>
      </trkpt>
      <trkpt lat="44.41373" lon="3.84677">
        <ele>1580.6</ele>
        <time>2022-10-28T15:03:24Z</time>
      </trkpt>
      <trkpt lat="44.41373" lon="3.84684">
        <ele>1580.4</ele>
        <time>2022-10-28T15:03:25Z</time>
      </trkpt>
      <trkpt lat="44.41373" lon="3.84692">
        <ele>1580.2</ele>
        <time>2022-10-28T15:03:26Z</time>
      </trkpt>
      <trkpt lat="44.41373" lon="3.84699">
        <ele>1580.2</ele>
        <time>2022-10-28T15:03:27Z</time>
      </trkpt>
      <trkpt lat="44.41372" lon="3.84707">
        <ele>1580.2</ele>
        <time>2022-10-28T15:03:28Z</time>
      </trkpt>
      <trkpt lat="44.41373" lon="3.84714">
        <ele>1580</ele>
        <time>2022-10-28T15:03:29Z</time>
      </trkpt>
      <trkpt lat="44.41373" lon="3.84721">
        <ele>1580</ele>
        <time>2022-10-28T15:03:30Z</time>
      </trkpt>
      <trkpt lat="44.41373" lon="3.84727">
        <ele>1579.8</ele>
        <time>2022-10-28T15:03:31Z</time>
      </trkpt>
      <trkpt lat="44.41373" lon="3.84734">
        <ele>1579.8</ele>
        <time>2022-10-28T15:03:32Z</time>
      </trkpt>
      <trkpt lat="44.41373" lon="3.8474">
        <ele>1579.8</ele>
        <time>2022-10-28T15:03:33Z</time>
      </trkpt>
      <trkpt lat="44.41374" lon="3.84747">
        <ele>1579.8</ele>
        <time>2022-10-28T15:03:34Z</time>
      </trkpt>
      <trkpt lat="44.41375" lon="3.84753">
        <ele>1579.8</ele>
        <time>2022-10-28T15:03:35Z</time>
      </trkpt>
      <trkpt lat="44.41375" lon="3.84759">
        <ele>1579.8</ele>
        <time>2022-10-28T15:03:36Z</time>
      </trkpt>
      <trkpt lat="44.41376" lon="3.84765">
        <ele>1579.6</ele>
        <time>2022-10-28T15:03:37Z</time>
      </trkpt>
      <trkpt lat="44.41378" lon="3.84771">
        <ele>1579.6</ele>
        <time>2022-10-28T15:03:38Z</time>
      </trkpt>
      <trkpt lat="44.4138" lon="3.84777">
        <ele>1579.4</ele>
        <time>2022-10-28T15:03:39Z</time>
      </trkpt>
      <trkpt lat="44.41381" lon="3.84784">
        <ele>1579.2</ele>
        <time>2022-10-28T15:03:40Z</time>
      </trkpt>
      <trkpt lat="44.41383" lon="3.8479">
        <ele>1579</ele>
        <time>2022-10-28T15:03:41Z</time>
      </trkpt>
      <trkpt lat="44.41386" lon="3.84796">
        <ele>1579</ele>
        <time>2022-10-28T15:03:42Z</time>
      </trkpt>
      <trkpt lat="44.41389" lon="3.84803">
        <ele>1578.8</ele>
        <time>2022-10-28T15:03:43Z</time>
      </trkpt>
      <trkpt lat="44.41392" lon="3.84809">
        <ele>1578.6</ele>
        <time>2022-10-28T15:03:44Z</time>
      </trkpt>
      <trkpt lat="44.41395" lon="3.84816">
        <ele>1578.4</ele>
        <time>2022-10-28T15:03:45Z</time>
      </trkpt>
      <trkpt lat="44.41398" lon="3.84823">
        <ele>1578.4</ele>
        <time>2022-10-28T15:03:46Z</time>
      </trkpt>
      <trkpt lat="44.41401" lon="3.8483">
        <ele>1578.2</ele>
        <time>2022-10-28T15:03:47Z</time>
      </trkpt>
      <trkpt lat="44.41404" lon="3.84838">
        <ele>1578</ele>
        <time>2022-10-28T15:03:48Z</time>
      </trkpt>
      <trkpt lat="44.41406" lon="3.84846">
        <ele>1577.8</ele>
        <time>2022-10-28T15:03:49Z</time>
      </trkpt>
      <trkpt lat="44.41409" lon="3.84854">
        <ele>1577.6</ele>
        <time>2022-10-28T15:03:50Z</time>
      </trkpt>
      <trkpt lat="44.41411" lon="3.84862">
        <ele>1577.6</ele>
        <time>2022-10-28T15:03:51Z</time>
      </trkpt>
      <trkpt lat="44.41414" lon="3.8487">
        <ele>1577.4</ele>
        <time>2022-10-28T15:03:52Z</time>
      </trkpt>
      <trkpt lat="44.41415" lon="3.84878">
        <ele>1577.2</ele>
        <time>2022-10-28T15:03:53Z</time>
      </trkpt>
      <trkpt lat="44.41416" lon="3.84886">
        <ele>1577.2</ele>
        <time>2022-10-28T15:03:54Z</time>
      </trkpt>
      <trkpt lat="44.41417" lon="3.84894">
        <ele>1577</ele>
        <time>2022-10-28T15:03:55Z</time>
      </trkpt>
      <trkpt lat="44.41418" lon="3.84903">
        <ele>1576.8</ele>
        <time>2022-10-28T15:03:56Z</time>
      </trkpt>
      <trkpt lat="44.41418" lon="3.8491">
        <ele>1576.8</ele>
        <time>2022-10-28T15:03:57Z</time>
      </trkpt>
      <trkpt lat="44.41418" lon="3.84919">
        <ele>1576.6</ele>
        <time>2022-10-28T15:03:58Z</time>
      </trkpt>
      <trkpt lat="44.41418" lon="3.84926">
        <ele>1576.6</ele>
        <time>2022-10-28T15:03:59Z</time>
      </trkpt>
      <trkpt lat="44.41418" lon="3.84934">
        <ele>1576.4</ele>
        <time>2022-10-28T15:04:00Z</time>
      </trkpt>
      <trkpt lat="44.41417" lon="3.84942">
        <ele>1576.2</ele>
        <time>2022-10-28T15:04:01Z</time>
      </trkpt>
      <trkpt lat="44.41417" lon="3.8495">
        <ele>1576</ele>
        <time>2022-10-28T15:04:02Z</time>
      </trkpt>
      <trkpt lat="44.41416" lon="3.84958">
        <ele>1575.8</ele>
        <time>2022-10-28T15:04:03Z</time>
      </trkpt>
      <trkpt lat="44.41416" lon="3.84966">
        <ele>1575.6</ele>
        <time>2022-10-28T15:04:04Z</time>
      </trkpt>
      <trkpt lat="44.41415" lon="3.84973">
        <ele>1575.4</ele>
        <time>2022-10-28T15:04:05Z</time>
      </trkpt>
      <trkpt lat="44.41414" lon="3.8498">
        <ele>1575.4</ele>
        <time>2022-10-28T15:04:06Z</time>
      </trkpt>
      <trkpt lat="44.41413" lon="3.84988">
        <ele>1575</ele>
        <time>2022-10-28T15:04:07Z</time>
      </trkpt>
      <trkpt lat="44.41411" lon="3.84996">
        <ele>1574.8</ele>
        <time>2022-10-28T15:04:08Z</time>
      </trkpt>
      <trkpt lat="44.4141" lon="3.85004">
        <ele>1574.6</ele>
        <time>2022-10-28T15:04:09Z</time>
      </trkpt>
      <trkpt lat="44.41408" lon="3.85012">
        <ele>1574.2</ele>
        <time>2022-10-28T15:04:10Z</time>
      </trkpt>
      <trkpt lat="44.41407" lon="3.8502">
        <ele>1574</ele>
        <time>2022-10-28T15:04:11Z</time>
      </trkpt>
      <trkpt lat="44.41405" lon="3.85028">
        <ele>1573.8</ele>
        <time>2022-10-28T15:04:12Z</time>
      </trkpt>
      <trkpt lat="44.41403" lon="3.85037">
        <ele>1573.4</ele>
        <time>2022-10-28T15:04:13Z</time>
      </trkpt>
      <trkpt lat="44.41402" lon="3.85046">
        <ele>1573</ele>
        <time>2022-10-28T15:04:14Z</time>
      </trkpt>
      <trkpt lat="44.414" lon="3.85054">
        <ele>1572.8</ele>
        <time>2022-10-28T15:04:15Z</time>
      </trkpt>
      <trkpt lat="44.41399" lon="3.85063">
        <ele>1572.6</ele>
        <time>2022-10-28T15:04:16Z</time>
      </trkpt>
      <trkpt lat="44.41398" lon="3.85072">
        <ele>1572.2</ele>
        <time>2022-10-28T15:04:17Z</time>
      </trkpt>
      <trkpt lat="44.41396" lon="3.85081">
        <ele>1572</ele>
        <time>2022-10-28T15:04:18Z</time>
      </trkpt>
      <trkpt lat="44.41395" lon="3.85089">
        <ele>1571.8</ele>
        <time>2022-10-28T15:04:19Z</time>
      </trkpt>
      <trkpt lat="44.41395" lon="3.85097">
        <ele>1571.4</ele>
        <time>2022-10-28T15:04:20Z</time>
      </trkpt>
      <trkpt lat="44.41394" lon="3.85105">
        <ele>1571.2</ele>
        <time>2022-10-28T15:04:21Z</time>
      </trkpt>
      <trkpt lat="44.41392" lon="3.85113">
        <ele>1570.8</ele>
        <time>2022-10-28T15:04:22Z</time>
      </trkpt>
      <trkpt lat="44.4139" lon="3.8512">
        <ele>1570.6</ele>
        <time>2022-10-28T15:04:23Z</time>
      </trkpt>
      <trkpt lat="44.41389" lon="3.85128">
        <ele>1570.2</ele>
        <time>2022-10-28T15:04:24Z</time>
      </trkpt>
      <trkpt lat="44.41387" lon="3.85136">
        <ele>1570</ele>
        <time>2022-10-28T15:04:25Z</time>
      </trkpt>
      <trkpt lat="44.41386" lon="3.85144">
        <ele>1569.6</ele>
        <time>2022-10-28T15:04:26Z</time>
      </trkpt>
      <trkpt lat="44.41384" lon="3.85153">
        <ele>1569.4</ele>
        <time>2022-10-28T15:04:27Z</time>
      </trkpt>
      <trkpt lat="44.41383" lon="3.85162">
        <ele>1569.2</ele>
        <time>2022-10-28T15:04:28Z</time>
      </trkpt>
      <trkpt lat="44.41381" lon="3.85171">
        <ele>1568.8</ele>
        <time>2022-10-28T15:04:29Z</time>
      </trkpt>
      <trkpt lat="44.41379" lon="3.85179">
        <ele>1568.6</ele>
        <time>2022-10-28T15:04:30Z</time>
      </trkpt>
      <trkpt lat="44.41377" lon="3.85188">
        <ele>1568.2</ele>
        <time>2022-10-28T15:04:31Z</time>
      </trkpt>
      <trkpt lat="44.41375" lon="3.85196">
        <ele>1568</ele>
        <time>2022-10-28T15:04:32Z</time>
      </trkpt>
      <trkpt lat="44.41373" lon="3.85204">
        <ele>1567.6</ele>
        <time>2022-10-28T15:04:33Z</time>
      </trkpt>
      <trkpt lat="44.41371" lon="3.85212">
        <ele>1567.2</ele>
        <time>2022-10-28T15:04:34Z</time>
      </trkpt>
      <trkpt lat="44.41369" lon="3.85221">
        <ele>1567</ele>
        <time>2022-10-28T15:04:35Z</time>
      </trkpt>
      <trkpt lat="44.41367" lon="3.85229">
        <ele>1566.6</ele>
        <time>2022-10-28T15:04:36Z</time>
      </trkpt>
      <trkpt lat="44.41365" lon="3.85238">
        <ele>1566.2</ele>
        <time>2022-10-28T15:04:37Z</time>
      </trkpt>
      <trkpt lat="44.41362" lon="3.85247">
        <ele>1565.8</ele>
        <time>2022-10-28T15:04:38Z</time>
      </trkpt>
      <trkpt lat="44.4136" lon="3.85256">
        <ele>1565.6</ele>
        <time>2022-10-28T15:04:39Z</time>
      </trkpt>
      <trkpt lat="44.41358" lon="3.85266">
        <ele>1565.2</ele>
        <time>2022-10-28T15:04:40Z</time>
      </trkpt>
      <trkpt lat="44.41356" lon="3.85275">
        <ele>1565</ele>
        <time>2022-10-28T15:04:41Z</time>
      </trkpt>
      <trkpt lat="44.41354" lon="3.85284">
        <ele>1564.8</ele>
        <time>2022-10-28T15:04:42Z</time>
      </trkpt>
      <trkpt lat="44.41352" lon="3.85293">
        <ele>1564.4</ele>
        <time>2022-10-28T15:04:43Z</time>
      </trkpt>
      <trkpt lat="44.4135" lon="3.85302">
        <ele>1564.2</ele>
        <time>2022-10-28T15:04:44Z</time>
      </trkpt>
      <trkpt lat="44.41347" lon="3.85311">
        <ele>1564</ele>
        <time>2022-10-28T15:04:45Z</time>
      </trkpt>
      <trkpt lat="44.41345" lon="3.8532">
        <ele>1563.8</ele>
        <time>2022-10-28T15:04:46Z</time>
      </trkpt>
      <trkpt lat="44.41343" lon="3.85328">
        <ele>1563.6</ele>
        <time>2022-10-28T15:04:47Z</time>
      </trkpt>
      <trkpt lat="44.41341" lon="3.85336">
        <ele>1563.4</ele>
        <time>2022-10-28T15:04:48Z</time>
      </trkpt>
      <trkpt lat="44.41338" lon="3.85344">
        <ele>1563.2</ele>
        <time>2022-10-28T15:04:49Z</time>
      </trkpt>
      <trkpt lat="44.41336" lon="3.85352">
        <ele>1562.8</ele>
        <time>2022-10-28T15:04:50Z</time>
      </trkpt>
      <trkpt lat="44.41333" lon="3.8536">
        <ele>1562.6</ele>
        <time>2022-10-28T15:04:51Z</time>
      </trkpt>
      <trkpt lat="44.41331" lon="3.85368">
        <ele>1562.4</ele>
        <time>2022-10-28T15:04:52Z</time>
      </trkpt>
      <trkpt lat="44.41327" lon="3.85376">
        <ele>1562.2</ele>
        <time>2022-10-28T15:04:53Z</time>
      </trkpt>
      <trkpt lat="44.41324" lon="3.85383">
        <ele>1562</ele>
        <time>2022-10-28T15:04:54Z</time>
      </trkpt>
      <trkpt lat="44.41321" lon="3.85391">
        <ele>1561.8</ele>
        <time>2022-10-28T15:04:55Z</time>
      </trkpt>
      <trkpt lat="44.41318" lon="3.85398">
        <ele>1561.8</ele>
        <time>2022-10-28T15:04:56Z</time>
      </trkpt>
      <trkpt lat="44.41314" lon="3.85405">
        <ele>1561.6</ele>
        <time>2022-10-28T15:04:57Z</time>
      </trkpt>
      <trkpt lat="44.4131" lon="3.85412">
        <ele>1561.2</ele>
        <time>2022-10-28T15:04:58Z</time>
      </trkpt>
      <trkpt lat="44.41306" lon="3.85419">
        <ele>1561.2</ele>
        <time>2022-10-28T15:04:59Z</time>
      </trkpt>
      <trkpt lat="44.41301" lon="3.85426">
        <ele>1561</ele>
        <time>2022-10-28T15:05:00Z</time>
      </trkpt>
      <trkpt lat="44.41298" lon="3.85433">
        <ele>1560.8</ele>
        <time>2022-10-28T15:05:01Z</time>
      </trkpt>
      <trkpt lat="44.41294" lon="3.8544">
        <ele>1560.6</ele>
        <time>2022-10-28T15:05:02Z</time>
      </trkpt>
      <trkpt lat="44.41291" lon="3.85447">
        <ele>1560.4</ele>
        <time>2022-10-28T15:05:03Z</time>
      </trkpt>
      <trkpt lat="44.41287" lon="3.85454">
        <ele>1560</ele>
        <time>2022-10-28T15:05:04Z</time>
      </trkpt>
      <trkpt lat="44.41282" lon="3.85461">
        <ele>1559.8</ele>
        <time>2022-10-28T15:05:05Z</time>
      </trkpt>
      <trkpt lat="44.41278" lon="3.85469">
        <ele>1559.6</ele>
        <time>2022-10-28T15:05:06Z</time>
      </trkpt>
      <trkpt lat="44.41273" lon="3.85476">
        <ele>1559.2</ele>
        <time>2022-10-28T15:05:07Z</time>
      </trkpt>
      <trkpt lat="44.41268" lon="3.85483">
        <ele>1559</ele>
        <time>2022-10-28T15:05:08Z</time>
      </trkpt>
      <trkpt lat="44.41263" lon="3.85489">
        <ele>1558.6</ele>
        <time>2022-10-28T15:05:09Z</time>
      </trkpt>
      <trkpt lat="44.41259" lon="3.85494">
        <ele>1558.4</ele>
        <time>2022-10-28T15:05:10Z</time>
      </trkpt>
      <trkpt lat="44.41254" lon="3.85498">
        <ele>1558</ele>
        <time>2022-10-28T15:05:11Z</time>
      </trkpt>
      <trkpt lat="44.4125" lon="3.85502">
        <ele>1557.6</ele>
        <time>2022-10-28T15:05:12Z</time>
      </trkpt>
      <trkpt lat="44.41247" lon="3.85507">
        <ele>1557.4</ele>
        <time>2022-10-28T15:05:13Z</time>
      </trkpt>
      <trkpt lat="44.41245" lon="3.85511">
        <ele>1557</ele>
        <time>2022-10-28T15:05:14Z</time>
      </trkpt>
      <trkpt lat="44.41244" lon="3.85515">
        <ele>1556.8</ele>
        <time>2022-10-28T15:05:15Z</time>
      </trkpt>
      <trkpt lat="44.41245" lon="3.85518">
        <ele>1556.4</ele>
        <time>2022-10-28T15:05:16Z</time>
      </trkpt>
      <trkpt lat="44.41246" lon="3.85519">
        <ele>1556.2</ele>
        <time>2022-10-28T15:05:17Z</time>
      </trkpt>
      <trkpt lat="44.41247" lon="3.8552">
        <ele>1556</ele>
        <time>2022-10-28T15:05:18Z</time>
      </trkpt>
      <trkpt lat="44.41248" lon="3.8552">
        <ele>1556</ele>
        <time>2022-10-28T15:05:19Z</time>
      </trkpt>
      <trkpt lat="44.41247" lon="3.85518">
        <ele>1555.6</ele>
        <time>2022-10-28T15:05:27Z</time>
      </trkpt>
      <trkpt lat="44.41246" lon="3.85518">
        <ele>1555.6</ele>
        <time>2022-10-28T15:05:28Z</time>
      </trkpt>
      <trkpt lat="44.41245" lon="3.85519">
        <ele>1555.6</ele>
        <time>2022-10-28T15:05:29Z</time>
      </trkpt>
      <trkpt lat="44.41243" lon="3.85519">
        <ele>1555.6</ele>
        <time>2022-10-28T15:05:30Z</time>
      </trkpt>
      <trkpt lat="44.41242" lon="3.8552">
        <ele>1555.6</ele>
        <time>2022-10-28T15:05:31Z</time>
      </trkpt>
      <trkpt lat="44.4124" lon="3.85522">
        <ele>1555.6</ele>
        <time>2022-10-28T15:05:32Z</time>
      </trkpt>
      <trkpt lat="44.41237" lon="3.85524">
        <ele>1555.6</ele>
        <time>2022-10-28T15:05:33Z</time>
      </trkpt>
      <trkpt lat="44.41235" lon="3.85526">
        <ele>1555.6</ele>
        <time>2022-10-28T15:05:34Z</time>
      </trkpt>
      <trkpt lat="44.41232" lon="3.85528">
        <ele>1555.6</ele>
        <time>2022-10-28T15:05:35Z</time>
      </trkpt>
      <trkpt lat="44.41229" lon="3.8553">
        <ele>1555.6</ele>
        <time>2022-10-28T15:05:36Z</time>
      </trkpt>
      <trkpt lat="44.41226" lon="3.85531">
        <ele>1555.4</ele>
        <time>2022-10-28T15:05:37Z</time>
      </trkpt>
      <trkpt lat="44.41223" lon="3.85533">
        <ele>1555.4</ele>
        <time>2022-10-28T15:05:38Z</time>
      </trkpt>
      <trkpt lat="44.4122" lon="3.85535">
        <ele>1555.4</ele>
        <time>2022-10-28T15:05:39Z</time>
      </trkpt>
      <trkpt lat="44.41216" lon="3.85538">
        <ele>1555.2</ele>
        <time>2022-10-28T15:05:40Z</time>
      </trkpt>
      <trkpt lat="44.41212" lon="3.8554">
        <ele>1555.2</ele>
        <time>2022-10-28T15:05:41Z</time>
      </trkpt>
      <trkpt lat="44.41209" lon="3.85542">
        <ele>1555</ele>
        <time>2022-10-28T15:05:42Z</time>
      </trkpt>
      <trkpt lat="44.41206" lon="3.85544">
        <ele>1554.8</ele>
        <time>2022-10-28T15:05:43Z</time>
      </trkpt>
      <trkpt lat="44.41204" lon="3.85545">
        <ele>1554.6</ele>
        <time>2022-10-28T15:05:44Z</time>
      </trkpt>
      <trkpt lat="44.41202" lon="3.85546">
        <ele>1554.6</ele>
        <time>2022-10-28T15:05:45Z</time>
      </trkpt>
      <trkpt lat="44.41202" lon="3.85546">
        <ele>1554.4</ele>
        <time>2022-10-28T15:05:46Z</time>
      </trkpt>
      <trkpt lat="44.41202" lon="3.85546">
        <ele>1554.4</ele>
        <time>2022-10-28T15:05:47Z</time>
      </trkpt>
      <trkpt lat="44.41202" lon="3.85546">
        <ele>1554.2</ele>
        <time>2022-10-28T15:05:48Z</time>
      </trkpt>
      <trkpt lat="44.41202" lon="3.85546">
        <ele>1554.2</ele>
        <time>2022-10-28T15:05:49Z</time>
      </trkpt>
      <trkpt lat="44.41202" lon="3.85546">
        <ele>1554.2</ele>
        <time>2022-10-28T15:05:50Z</time>
      </trkpt>
      <trkpt lat="44.41202" lon="3.85546">
        <ele>1554.2</ele>
        <time>2022-10-28T15:05:51Z</time>
      </trkpt>
      <trkpt lat="44.41201" lon="3.85548">
        <ele>1554</ele>
        <time>2022-10-28T15:06:24Z</time>
      </trkpt>
      <trkpt lat="44.41199" lon="3.85549">
        <ele>1554</ele>
        <time>2022-10-28T15:06:25Z</time>
      </trkpt>
      <trkpt lat="44.41197" lon="3.85552">
        <ele>1553.8</ele>
        <time>2022-10-28T15:06:26Z</time>
      </trkpt>
      <trkpt lat="44.41193" lon="3.85554">
        <ele>1553.8</ele>
        <time>2022-10-28T15:06:27Z</time>
      </trkpt>
      <trkpt lat="44.41191" lon="3.85557">
        <ele>1553.8</ele>
        <time>2022-10-28T15:06:28Z</time>
      </trkpt>
      <trkpt lat="44.41188" lon="3.85559">
        <ele>1553.6</ele>
        <time>2022-10-28T15:06:29Z</time>
      </trkpt>
      <trkpt lat="44.41184" lon="3.85562">
        <ele>1553.6</ele>
        <time>2022-10-28T15:06:30Z</time>
      </trkpt>
      <trkpt lat="44.41181" lon="3.85566">
        <ele>1553.6</ele>
        <time>2022-10-28T15:06:31Z</time>
      </trkpt>
      <trkpt lat="44.41178" lon="3.85569">
        <ele>1553.6</ele>
        <time>2022-10-28T15:06:32Z</time>
      </trkpt>
      <trkpt lat="44.41175" lon="3.85572">
        <ele>1553.6</ele>
        <time>2022-10-28T15:06:33Z</time>
      </trkpt>
      <trkpt lat="44.41171" lon="3.85575">
        <ele>1553.4</ele>
        <time>2022-10-28T15:06:34Z</time>
      </trkpt>
      <trkpt lat="44.41168" lon="3.85578">
        <ele>1553.4</ele>
        <time>2022-10-28T15:06:35Z</time>
      </trkpt>
      <trkpt lat="44.41164" lon="3.85581">
        <ele>1553.4</ele>
        <time>2022-10-28T15:06:36Z</time>
      </trkpt>
      <trkpt lat="44.4116" lon="3.85583">
        <ele>1553.2</ele>
        <time>2022-10-28T15:06:37Z</time>
      </trkpt>
      <trkpt lat="44.41156" lon="3.85586">
        <ele>1553.2</ele>
        <time>2022-10-28T15:06:38Z</time>
      </trkpt>
      <trkpt lat="44.41151" lon="3.85588">
        <ele>1553</ele>
        <time>2022-10-28T15:06:39Z</time>
      </trkpt>
      <trkpt lat="44.41147" lon="3.8559">
        <ele>1553</ele>
        <time>2022-10-28T15:06:40Z</time>
      </trkpt>
      <trkpt lat="44.41143" lon="3.85592">
        <ele>1552.8</ele>
        <time>2022-10-28T15:06:41Z</time>
      </trkpt>
      <trkpt lat="44.41139" lon="3.85594">
        <ele>1552.8</ele>
        <time>2022-10-28T15:06:42Z</time>
      </trkpt>
      <trkpt lat="44.41134" lon="3.85597">
        <ele>1552.8</ele>
        <time>2022-10-28T15:06:43Z</time>
      </trkpt>
      <trkpt lat="44.4113" lon="3.85598">
        <ele>1552.6</ele>
        <time>2022-10-28T15:06:44Z</time>
      </trkpt>
      <trkpt lat="44.41126" lon="3.856">
        <ele>1552.6</ele>
        <time>2022-10-28T15:06:45Z</time>
      </trkpt>
      <trkpt lat="44.41121" lon="3.85602">
        <ele>1552.4</ele>
        <time>2022-10-28T15:06:46Z</time>
      </trkpt>
      <trkpt lat="44.41116" lon="3.85603">
        <ele>1552.4</ele>
        <time>2022-10-28T15:06:47Z</time>
      </trkpt>
      <trkpt lat="44.41112" lon="3.85604">
        <ele>1552.2</ele>
        <time>2022-10-28T15:06:48Z</time>
      </trkpt>
      <trkpt lat="44.41107" lon="3.85605">
        <ele>1552</ele>
        <time>2022-10-28T15:06:49Z</time>
      </trkpt>
      <trkpt lat="44.41102" lon="3.85607">
        <ele>1552</ele>
        <time>2022-10-28T15:06:50Z</time>
      </trkpt>
      <trkpt lat="44.41097" lon="3.85608">
        <ele>1551.8</ele>
        <time>2022-10-28T15:06:51Z</time>
      </trkpt>
      <trkpt lat="44.41092" lon="3.85609">
        <ele>1551.8</ele>
        <time>2022-10-28T15:06:52Z</time>
      </trkpt>
      <trkpt lat="44.41087" lon="3.8561">
        <ele>1551.6</ele>
        <time>2022-10-28T15:06:53Z</time>
      </trkpt>
      <trkpt lat="44.41082" lon="3.85611">
        <ele>1551.4</ele>
        <time>2022-10-28T15:06:54Z</time>
      </trkpt>
      <trkpt lat="44.41077" lon="3.85613">
        <ele>1551.2</ele>
        <time>2022-10-28T15:06:55Z</time>
      </trkpt>
      <trkpt lat="44.41072" lon="3.85615">
        <ele>1551</ele>
        <time>2022-10-28T15:06:56Z</time>
      </trkpt>
      <trkpt lat="44.41067" lon="3.85618">
        <ele>1550.8</ele>
        <time>2022-10-28T15:06:57Z</time>
      </trkpt>
      <trkpt lat="44.41062" lon="3.85621">
        <ele>1550.6</ele>
        <time>2022-10-28T15:06:58Z</time>
      </trkpt>
      <trkpt lat="44.41058" lon="3.85625">
        <ele>1550.4</ele>
        <time>2022-10-28T15:06:59Z</time>
      </trkpt>
      <trkpt lat="44.41053" lon="3.85628">
        <ele>1550.2</ele>
        <time>2022-10-28T15:07:00Z</time>
      </trkpt>
      <trkpt lat="44.41048" lon="3.85632">
        <ele>1550</ele>
        <time>2022-10-28T15:07:01Z</time>
      </trkpt>
      <trkpt lat="44.41042" lon="3.85636">
        <ele>1549.8</ele>
        <time>2022-10-28T15:07:02Z</time>
      </trkpt>
      <trkpt lat="44.41038" lon="3.85641">
        <ele>1549.6</ele>
        <time>2022-10-28T15:07:03Z</time>
      </trkpt>
      <trkpt lat="44.41033" lon="3.85647">
        <ele>1549.4</ele>
        <time>2022-10-28T15:07:04Z</time>
      </trkpt>
      <trkpt lat="44.41028" lon="3.85652">
        <ele>1549.2</ele>
        <time>2022-10-28T15:07:05Z</time>
      </trkpt>
      <trkpt lat="44.41024" lon="3.85657">
        <ele>1549</ele>
        <time>2022-10-28T15:07:06Z</time>
      </trkpt>
      <trkpt lat="44.41019" lon="3.85663">
        <ele>1548.8</ele>
        <time>2022-10-28T15:07:07Z</time>
      </trkpt>
      <trkpt lat="44.41015" lon="3.85668">
        <ele>1548.8</ele>
        <time>2022-10-28T15:07:08Z</time>
      </trkpt>
      <trkpt lat="44.4101" lon="3.85674">
        <ele>1548.4</ele>
        <time>2022-10-28T15:07:09Z</time>
      </trkpt>
      <trkpt lat="44.41006" lon="3.85679">
        <ele>1548.4</ele>
        <time>2022-10-28T15:07:10Z</time>
      </trkpt>
      <trkpt lat="44.41002" lon="3.85684">
        <ele>1548</ele>
        <time>2022-10-28T15:07:11Z</time>
      </trkpt>
      <trkpt lat="44.40998" lon="3.85688">
        <ele>1547.8</ele>
        <time>2022-10-28T15:07:12Z</time>
      </trkpt>
      <trkpt lat="44.40994" lon="3.85693">
        <ele>1547.6</ele>
        <time>2022-10-28T15:07:13Z</time>
      </trkpt>
      <trkpt lat="44.4099" lon="3.85698">
        <ele>1547.4</ele>
        <time>2022-10-28T15:07:14Z</time>
      </trkpt>
      <trkpt lat="44.40986" lon="3.85704">
        <ele>1547.2</ele>
        <time>2022-10-28T15:07:15Z</time>
      </trkpt>
      <trkpt lat="44.40982" lon="3.85709">
        <ele>1547</ele>
        <time>2022-10-28T15:07:16Z</time>
      </trkpt>
      <trkpt lat="44.40977" lon="3.85715">
        <ele>1546.8</ele>
        <time>2022-10-28T15:07:17Z</time>
      </trkpt>
      <trkpt lat="44.40973" lon="3.85722">
        <ele>1546.6</ele>
        <time>2022-10-28T15:07:18Z</time>
      </trkpt>
      <trkpt lat="44.40969" lon="3.85729">
        <ele>1546.4</ele>
        <time>2022-10-28T15:07:19Z</time>
      </trkpt>
      <trkpt lat="44.40965" lon="3.85736">
        <ele>1546.2</ele>
        <time>2022-10-28T15:07:20Z</time>
      </trkpt>
      <trkpt lat="44.40961" lon="3.85743">
        <ele>1546</ele>
        <time>2022-10-28T15:07:21Z</time>
      </trkpt>
      <trkpt lat="44.40957" lon="3.8575">
        <ele>1545.8</ele>
        <time>2022-10-28T15:07:22Z</time>
      </trkpt>
      <trkpt lat="44.40953" lon="3.85757">
        <ele>1545.6</ele>
        <time>2022-10-28T15:07:23Z</time>
      </trkpt>
      <trkpt lat="44.40949" lon="3.85763">
        <ele>1545.4</ele>
        <time>2022-10-28T15:07:24Z</time>
      </trkpt>
      <trkpt lat="44.40945" lon="3.8577">
        <ele>1545.2</ele>
        <time>2022-10-28T15:07:25Z</time>
      </trkpt>
      <trkpt lat="44.40941" lon="3.85775">
        <ele>1545.2</ele>
        <time>2022-10-28T15:07:26Z</time>
      </trkpt>
      <trkpt lat="44.40937" lon="3.85781">
        <ele>1545</ele>
        <time>2022-10-28T15:07:27Z</time>
      </trkpt>
      <trkpt lat="44.40932" lon="3.85788">
        <ele>1544.8</ele>
        <time>2022-10-28T15:07:28Z</time>
      </trkpt>
      <trkpt lat="44.40927" lon="3.85794">
        <ele>1544.4</ele>
        <time>2022-10-28T15:07:29Z</time>
      </trkpt>
      <trkpt lat="44.40922" lon="3.85801">
        <ele>1544</ele>
        <time>2022-10-28T15:07:30Z</time>
      </trkpt>
      <trkpt lat="44.40917" lon="3.85807">
        <ele>1543.8</ele>
        <time>2022-10-28T15:07:31Z</time>
      </trkpt>
      <trkpt lat="44.40913" lon="3.85814">
        <ele>1543.6</ele>
        <time>2022-10-28T15:07:32Z</time>
      </trkpt>
      <trkpt lat="44.40908" lon="3.85821">
        <ele>1543.2</ele>
        <time>2022-10-28T15:07:33Z</time>
      </trkpt>
      <trkpt lat="44.40903" lon="3.85828">
        <ele>1543</ele>
        <time>2022-10-28T15:07:34Z</time>
      </trkpt>
      <trkpt lat="44.40898" lon="3.85834">
        <ele>1542.8</ele>
        <time>2022-10-28T15:07:35Z</time>
      </trkpt>
      <trkpt lat="44.40893" lon="3.8584">
        <ele>1542.6</ele>
        <time>2022-10-28T15:07:36Z</time>
      </trkpt>
      <trkpt lat="44.40887" lon="3.85846">
        <ele>1542.4</ele>
        <time>2022-10-28T15:07:37Z</time>
      </trkpt>
      <trkpt lat="44.40881" lon="3.85852">
        <ele>1542</ele>
        <time>2022-10-28T15:07:38Z</time>
      </trkpt>
      <trkpt lat="44.40875" lon="3.85858">
        <ele>1541.6</ele>
        <time>2022-10-28T15:07:39Z</time>
      </trkpt>
      <trkpt lat="44.4087" lon="3.85865">
        <ele>1541.2</ele>
        <time>2022-10-28T15:07:40Z</time>
      </trkpt>
      <trkpt lat="44.40865" lon="3.85872">
        <ele>1541</ele>
        <time>2022-10-28T15:07:41Z</time>
      </trkpt>
      <trkpt lat="44.4086" lon="3.8588">
        <ele>1540.8</ele>
        <time>2022-10-28T15:07:42Z</time>
      </trkpt>
      <trkpt lat="44.40856" lon="3.85889">
        <ele>1540.6</ele>
        <time>2022-10-28T15:07:43Z</time>
      </trkpt>
      <trkpt lat="44.40851" lon="3.85897">
        <ele>1540.2</ele>
        <time>2022-10-28T15:07:44Z</time>
      </trkpt>
      <trkpt lat="44.40846" lon="3.85905">
        <ele>1540</ele>
        <time>2022-10-28T15:07:45Z</time>
      </trkpt>
      <trkpt lat="44.40841" lon="3.85913">
        <ele>1539.6</ele>
        <time>2022-10-28T15:07:46Z</time>
      </trkpt>
      <trkpt lat="44.40836" lon="3.8592">
        <ele>1539.2</ele>
        <time>2022-10-28T15:07:47Z</time>
      </trkpt>
      <trkpt lat="44.40829" lon="3.85926">
        <ele>1539</ele>
        <time>2022-10-28T15:07:48Z</time>
      </trkpt>
      <trkpt lat="44.40823" lon="3.85932">
        <ele>1538.6</ele>
        <time>2022-10-28T15:07:49Z</time>
      </trkpt>
      <trkpt lat="44.40817" lon="3.85936">
        <ele>1538.2</ele>
        <time>2022-10-28T15:07:50Z</time>
      </trkpt>
      <trkpt lat="44.4081" lon="3.8594">
        <ele>1538</ele>
        <time>2022-10-28T15:07:51Z</time>
      </trkpt>
      <trkpt lat="44.40804" lon="3.85942">
        <ele>1537.8</ele>
        <time>2022-10-28T15:07:52Z</time>
      </trkpt>
      <trkpt lat="44.40797" lon="3.85942">
        <ele>1537.6</ele>
        <time>2022-10-28T15:07:53Z</time>
      </trkpt>
      <trkpt lat="44.4079" lon="3.85941">
        <ele>1537.4</ele>
        <time>2022-10-28T15:07:54Z</time>
      </trkpt>
      <trkpt lat="44.40784" lon="3.8594">
        <ele>1537.2</ele>
        <time>2022-10-28T15:07:55Z</time>
      </trkpt>
      <trkpt lat="44.40777" lon="3.8594">
        <ele>1537</ele>
        <time>2022-10-28T15:07:56Z</time>
      </trkpt>
      <trkpt lat="44.4077" lon="3.8594">
        <ele>1536.8</ele>
        <time>2022-10-28T15:07:57Z</time>
      </trkpt>
      <trkpt lat="44.40764" lon="3.85941">
        <ele>1536.6</ele>
        <time>2022-10-28T15:07:58Z</time>
      </trkpt>
      <trkpt lat="44.40758" lon="3.85943">
        <ele>1536.2</ele>
        <time>2022-10-28T15:07:59Z</time>
      </trkpt>
      <trkpt lat="44.40752" lon="3.85944">
        <ele>1535.8</ele>
        <time>2022-10-28T15:08:00Z</time>
      </trkpt>
      <trkpt lat="44.40747" lon="3.85945">
        <ele>1535.4</ele>
        <time>2022-10-28T15:08:01Z</time>
      </trkpt>
      <trkpt lat="44.40743" lon="3.85946">
        <ele>1535</ele>
        <time>2022-10-28T15:08:02Z</time>
      </trkpt>
      <trkpt lat="44.40741" lon="3.85947">
        <ele>1534.4</ele>
        <time>2022-10-28T15:08:03Z</time>
      </trkpt>
      <trkpt lat="44.40739" lon="3.85949">
        <ele>1534.2</ele>
        <time>2022-10-28T15:08:04Z</time>
      </trkpt>
      <trkpt lat="44.40739" lon="3.8595">
        <ele>1533.8</ele>
        <time>2022-10-28T15:08:05Z</time>
      </trkpt>
      <trkpt lat="44.40739" lon="3.85951">
        <ele>1533.6</ele>
        <time>2022-10-28T15:08:06Z</time>
      </trkpt>
      <trkpt lat="44.40739" lon="3.85949">
        <ele>1533.2</ele>
        <time>2022-10-28T15:08:38Z</time>
      </trkpt>
      <trkpt lat="44.40737" lon="3.85948">
        <ele>1533.2</ele>
        <time>2022-10-28T15:08:39Z</time>
      </trkpt>
      <trkpt lat="44.40733" lon="3.85949">
        <ele>1533.2</ele>
        <time>2022-10-28T15:08:40Z</time>
      </trkpt>
      <trkpt lat="44.40729" lon="3.8595">
        <ele>1533</ele>
        <time>2022-10-28T15:08:41Z</time>
      </trkpt>
      <trkpt lat="44.40726" lon="3.85949">
        <ele>1533</ele>
        <time>2022-10-28T15:08:42Z</time>
      </trkpt>
      <trkpt lat="44.40723" lon="3.85948">
        <ele>1533</ele>
        <time>2022-10-28T15:08:43Z</time>
      </trkpt>
      <trkpt lat="44.40719" lon="3.85946">
        <ele>1532.8</ele>
        <time>2022-10-28T15:08:44Z</time>
      </trkpt>
      <trkpt lat="44.40716" lon="3.85943">
        <ele>1532.6</ele>
        <time>2022-10-28T15:08:45Z</time>
      </trkpt>
      <trkpt lat="44.40711" lon="3.8594">
        <ele>1532.4</ele>
        <time>2022-10-28T15:08:46Z</time>
      </trkpt>
      <trkpt lat="44.40707" lon="3.85936">
        <ele>1532.2</ele>
        <time>2022-10-28T15:08:47Z</time>
      </trkpt>
      <trkpt lat="44.40703" lon="3.85932">
        <ele>1532</ele>
        <time>2022-10-28T15:08:48Z</time>
      </trkpt>
      <trkpt lat="44.40698" lon="3.85928">
        <ele>1531.6</ele>
        <time>2022-10-28T15:08:49Z</time>
      </trkpt>
      <trkpt lat="44.40694" lon="3.85925">
        <ele>1531</ele>
        <time>2022-10-28T15:08:50Z</time>
      </trkpt>
      <trkpt lat="44.4069" lon="3.85921">
        <ele>1530.6</ele>
        <time>2022-10-28T15:08:51Z</time>
      </trkpt>
      <trkpt lat="44.40685" lon="3.85917">
        <ele>1530.2</ele>
        <time>2022-10-28T15:08:52Z</time>
      </trkpt>
      <trkpt lat="44.40681" lon="3.85913">
        <ele>1529.8</ele>
        <time>2022-10-28T15:08:53Z</time>
      </trkpt>
      <trkpt lat="44.40676" lon="3.85908">
        <ele>1529.6</ele>
        <time>2022-10-28T15:08:54Z</time>
      </trkpt>
      <trkpt lat="44.40671" lon="3.85904">
        <ele>1529.2</ele>
        <time>2022-10-28T15:08:55Z</time>
      </trkpt>
      <trkpt lat="44.40666" lon="3.85899">
        <ele>1528.8</ele>
        <time>2022-10-28T15:08:56Z</time>
      </trkpt>
      <trkpt lat="44.40661" lon="3.85894">
        <ele>1528.4</ele>
        <time>2022-10-28T15:08:57Z</time>
      </trkpt>
      <trkpt lat="44.40656" lon="3.85888">
        <ele>1528</ele>
        <time>2022-10-28T15:08:58Z</time>
      </trkpt>
      <trkpt lat="44.40651" lon="3.85882">
        <ele>1527.4</ele>
        <time>2022-10-28T15:08:59Z</time>
      </trkpt>
      <trkpt lat="44.40647" lon="3.85875">
        <ele>1527</ele>
        <time>2022-10-28T15:09:00Z</time>
      </trkpt>
      <trkpt lat="44.40643" lon="3.85869">
        <ele>1526.4</ele>
        <time>2022-10-28T15:09:01Z</time>
      </trkpt>
      <trkpt lat="44.40639" lon="3.85863">
        <ele>1526</ele>
        <time>2022-10-28T15:09:02Z</time>
      </trkpt>
      <trkpt lat="44.40635" lon="3.85857">
        <ele>1525.6</ele>
        <time>2022-10-28T15:09:03Z</time>
      </trkpt>
      <trkpt lat="44.40631" lon="3.85852">
        <ele>1525</ele>
        <time>2022-10-28T15:09:04Z</time>
      </trkpt>
      <trkpt lat="44.40627" lon="3.85847">
        <ele>1524.6</ele>
        <time>2022-10-28T15:09:05Z</time>
      </trkpt>
      <trkpt lat="44.40624" lon="3.85842">
        <ele>1524.2</ele>
        <time>2022-10-28T15:09:06Z</time>
      </trkpt>
      <trkpt lat="44.4062" lon="3.85837">
        <ele>1523.8</ele>
        <time>2022-10-28T15:09:07Z</time>
      </trkpt>
      <trkpt lat="44.40616" lon="3.85832">
        <ele>1523.4</ele>
        <time>2022-10-28T15:09:08Z</time>
      </trkpt>
      <trkpt lat="44.40612" lon="3.85827">
        <ele>1522.8</ele>
        <time>2022-10-28T15:09:09Z</time>
      </trkpt>
      <trkpt lat="44.40608" lon="3.85822">
        <ele>1522.4</ele>
        <time>2022-10-28T15:09:10Z</time>
      </trkpt>
      <trkpt lat="44.40604" lon="3.85818">
        <ele>1521.8</ele>
        <time>2022-10-28T15:09:11Z</time>
      </trkpt>
      <trkpt lat="44.40599" lon="3.85814">
        <ele>1521.2</ele>
        <time>2022-10-28T15:09:12Z</time>
      </trkpt>
      <trkpt lat="44.40594" lon="3.85809">
        <ele>1520.8</ele>
        <time>2022-10-28T15:09:13Z</time>
      </trkpt>
      <trkpt lat="44.4059" lon="3.85805">
        <ele>1520.2</ele>
        <time>2022-10-28T15:09:14Z</time>
      </trkpt>
      <trkpt lat="44.40587" lon="3.858">
        <ele>1519.6</ele>
        <time>2022-10-28T15:09:15Z</time>
      </trkpt>
      <trkpt lat="44.40583" lon="3.85795">
        <ele>1518.8</ele>
        <time>2022-10-28T15:09:16Z</time>
      </trkpt>
      <trkpt lat="44.40579" lon="3.85791">
        <ele>1518.4</ele>
        <time>2022-10-28T15:09:17Z</time>
      </trkpt>
      <trkpt lat="44.40576" lon="3.85786">
        <ele>1517.8</ele>
        <time>2022-10-28T15:09:18Z</time>
      </trkpt>
      <trkpt lat="44.40572" lon="3.8578">
        <ele>1517.2</ele>
        <time>2022-10-28T15:09:19Z</time>
      </trkpt>
      <trkpt lat="44.40567" lon="3.85775">
        <ele>1516.8</ele>
        <time>2022-10-28T15:09:20Z</time>
      </trkpt>
      <trkpt lat="44.40562" lon="3.8577">
        <ele>1516.2</ele>
        <time>2022-10-28T15:09:21Z</time>
      </trkpt>
      <trkpt lat="44.40558" lon="3.85765">
        <ele>1515.6</ele>
        <time>2022-10-28T15:09:22Z</time>
      </trkpt>
      <trkpt lat="44.40554" lon="3.8576">
        <ele>1515</ele>
        <time>2022-10-28T15:09:23Z</time>
      </trkpt>
      <trkpt lat="44.40551" lon="3.85755">
        <ele>1514.6</ele>
        <time>2022-10-28T15:09:24Z</time>
      </trkpt>
      <trkpt lat="44.40549" lon="3.85749">
        <ele>1514</ele>
        <time>2022-10-28T15:09:25Z</time>
      </trkpt>
      <trkpt lat="44.40547" lon="3.85743">
        <ele>1513.6</ele>
        <time>2022-10-28T15:09:26Z</time>
      </trkpt>
      <trkpt lat="44.40546" lon="3.85735">
        <ele>1513</ele>
        <time>2022-10-28T15:09:27Z</time>
      </trkpt>
      <trkpt lat="44.40544" lon="3.85728">
        <ele>1512.6</ele>
        <time>2022-10-28T15:09:28Z</time>
      </trkpt>
      <trkpt lat="44.40542" lon="3.85722">
        <ele>1512</ele>
        <time>2022-10-28T15:09:29Z</time>
      </trkpt>
      <trkpt lat="44.40538" lon="3.85717">
        <ele>1511.4</ele>
        <time>2022-10-28T15:09:30Z</time>
      </trkpt>
      <trkpt lat="44.40533" lon="3.85713">
        <ele>1510.8</ele>
        <time>2022-10-28T15:09:31Z</time>
      </trkpt>
      <trkpt lat="44.40528" lon="3.85709">
        <ele>1510.2</ele>
        <time>2022-10-28T15:09:32Z</time>
      </trkpt>
      <trkpt lat="44.40523" lon="3.85706">
        <ele>1509.8</ele>
        <time>2022-10-28T15:09:33Z</time>
      </trkpt>
      <trkpt lat="44.40517" lon="3.85703">
        <ele>1509.2</ele>
        <time>2022-10-28T15:09:34Z</time>
      </trkpt>
      <trkpt lat="44.4051" lon="3.85702">
        <ele>1508.8</ele>
        <time>2022-10-28T15:09:35Z</time>
      </trkpt>
      <trkpt lat="44.40504" lon="3.857">
        <ele>1508.2</ele>
        <time>2022-10-28T15:09:36Z</time>
      </trkpt>
      <trkpt lat="44.40497" lon="3.85699">
        <ele>1507.8</ele>
        <time>2022-10-28T15:09:37Z</time>
      </trkpt>
      <trkpt lat="44.40492" lon="3.85698">
        <ele>1507.2</ele>
        <time>2022-10-28T15:09:38Z</time>
      </trkpt>
      <trkpt lat="44.40488" lon="3.85697">
        <ele>1506.6</ele>
        <time>2022-10-28T15:09:39Z</time>
      </trkpt>
      <trkpt lat="44.40486" lon="3.85697">
        <ele>1506</ele>
        <time>2022-10-28T15:09:40Z</time>
      </trkpt>
      <trkpt lat="44.40485" lon="3.85697">
        <ele>1505.6</ele>
        <time>2022-10-28T15:09:41Z</time>
      </trkpt>
      <trkpt lat="44.40485" lon="3.85697">
        <ele>1505.2</ele>
        <time>2022-10-28T15:09:42Z</time>
      </trkpt>
      <trkpt lat="44.40483" lon="3.85698">
        <ele>1504.2</ele>
        <time>2022-10-28T15:10:07Z</time>
      </trkpt>
      <trkpt lat="44.40482" lon="3.85697">
        <ele>1504.2</ele>
        <time>2022-10-28T15:10:08Z</time>
      </trkpt>
      <trkpt lat="44.40478" lon="3.85694">
        <ele>1504.2</ele>
        <time>2022-10-28T15:10:09Z</time>
      </trkpt>
      <trkpt lat="44.40475" lon="3.85692">
        <ele>1504</ele>
        <time>2022-10-28T15:10:10Z</time>
      </trkpt>
      <trkpt lat="44.40472" lon="3.8569">
        <ele>1504</ele>
        <time>2022-10-28T15:10:11Z</time>
      </trkpt>
      <trkpt lat="44.40468" lon="3.85687">
        <ele>1503.8</ele>
        <time>2022-10-28T15:10:12Z</time>
      </trkpt>
      <trkpt lat="44.40464" lon="3.85684">
        <ele>1503.6</ele>
        <time>2022-10-28T15:10:13Z</time>
      </trkpt>
      <trkpt lat="44.40459" lon="3.8568">
        <ele>1503.2</ele>
        <time>2022-10-28T15:10:14Z</time>
      </trkpt>
      <trkpt lat="44.40455" lon="3.85678">
        <ele>1502.8</ele>
        <time>2022-10-28T15:10:15Z</time>
      </trkpt>
      <trkpt lat="44.4045" lon="3.85676">
        <ele>1502.2</ele>
        <time>2022-10-28T15:10:16Z</time>
      </trkpt>
      <trkpt lat="44.40446" lon="3.85673">
        <ele>1501.8</ele>
        <time>2022-10-28T15:10:17Z</time>
      </trkpt>
      <trkpt lat="44.40442" lon="3.8567">
        <ele>1501.2</ele>
        <time>2022-10-28T15:10:18Z</time>
      </trkpt>
      <trkpt lat="44.40438" lon="3.85668">
        <ele>1500.8</ele>
        <time>2022-10-28T15:10:19Z</time>
      </trkpt>
      <trkpt lat="44.40435" lon="3.85665">
        <ele>1500.2</ele>
        <time>2022-10-28T15:10:20Z</time>
      </trkpt>
      <trkpt lat="44.40431" lon="3.85663">
        <ele>1499.6</ele>
        <time>2022-10-28T15:10:21Z</time>
      </trkpt>
      <trkpt lat="44.40427" lon="3.85661">
        <ele>1499.2</ele>
        <time>2022-10-28T15:10:22Z</time>
      </trkpt>
      <trkpt lat="44.40424" lon="3.85658">
        <ele>1498.6</ele>
        <time>2022-10-28T15:10:23Z</time>
      </trkpt>
      <trkpt lat="44.4042" lon="3.85655">
        <ele>1498.2</ele>
        <time>2022-10-28T15:10:24Z</time>
      </trkpt>
      <trkpt lat="44.40416" lon="3.85652">
        <ele>1497.8</ele>
        <time>2022-10-28T15:10:25Z</time>
      </trkpt>
      <trkpt lat="44.40411" lon="3.85651">
        <ele>1497.4</ele>
        <time>2022-10-28T15:10:26Z</time>
      </trkpt>
      <trkpt lat="44.40407" lon="3.85651">
        <ele>1496.8</ele>
        <time>2022-10-28T15:10:27Z</time>
      </trkpt>
      <trkpt lat="44.40403" lon="3.85651">
        <ele>1496.4</ele>
        <time>2022-10-28T15:10:28Z</time>
      </trkpt>
      <trkpt lat="44.40399" lon="3.85653">
        <ele>1496</ele>
        <time>2022-10-28T15:10:29Z</time>
      </trkpt>
      <trkpt lat="44.40396" lon="3.85655">
        <ele>1495.6</ele>
        <time>2022-10-28T15:10:30Z</time>
      </trkpt>
      <trkpt lat="44.40393" lon="3.85656">
        <ele>1495.2</ele>
        <time>2022-10-28T15:10:31Z</time>
      </trkpt>
      <trkpt lat="44.4039" lon="3.85658">
        <ele>1494.8</ele>
        <time>2022-10-28T15:10:32Z</time>
      </trkpt>
      <trkpt lat="44.40385" lon="3.85658">
        <ele>1494.4</ele>
        <time>2022-10-28T15:10:33Z</time>
      </trkpt>
      <trkpt lat="44.40381" lon="3.85658">
        <ele>1494</ele>
        <time>2022-10-28T15:10:34Z</time>
      </trkpt>
      <trkpt lat="44.40376" lon="3.85658">
        <ele>1493.6</ele>
        <time>2022-10-28T15:10:35Z</time>
      </trkpt>
      <trkpt lat="44.40371" lon="3.85657">
        <ele>1493.4</ele>
        <time>2022-10-28T15:10:36Z</time>
      </trkpt>
      <trkpt lat="44.40366" lon="3.85656">
        <ele>1493</ele>
        <time>2022-10-28T15:10:37Z</time>
      </trkpt>
      <trkpt lat="44.40362" lon="3.85657">
        <ele>1492.4</ele>
        <time>2022-10-28T15:10:38Z</time>
      </trkpt>
      <trkpt lat="44.40357" lon="3.85658">
        <ele>1492</ele>
        <time>2022-10-28T15:10:39Z</time>
      </trkpt>
      <trkpt lat="44.40353" lon="3.85659">
        <ele>1491.6</ele>
        <time>2022-10-28T15:10:40Z</time>
      </trkpt>
      <trkpt lat="44.40348" lon="3.85659">
        <ele>1491.2</ele>
        <time>2022-10-28T15:10:41Z</time>
      </trkpt>
      <trkpt lat="44.40345" lon="3.8566">
        <ele>1490.8</ele>
        <time>2022-10-28T15:10:42Z</time>
      </trkpt>
      <trkpt lat="44.40341" lon="3.8566">
        <ele>1490.4</ele>
        <time>2022-10-28T15:10:43Z</time>
      </trkpt>
      <trkpt lat="44.40337" lon="3.8566">
        <ele>1490</ele>
        <time>2022-10-28T15:10:44Z</time>
      </trkpt>
      <trkpt lat="44.40333" lon="3.85659">
        <ele>1489.8</ele>
        <time>2022-10-28T15:10:45Z</time>
      </trkpt>
      <trkpt lat="44.40329" lon="3.85657">
        <ele>1489.6</ele>
        <time>2022-10-28T15:10:46Z</time>
      </trkpt>
      <trkpt lat="44.40324" lon="3.85654">
        <ele>1489.2</ele>
        <time>2022-10-28T15:10:47Z</time>
      </trkpt>
      <trkpt lat="44.4032" lon="3.85651">
        <ele>1488.8</ele>
        <time>2022-10-28T15:10:48Z</time>
      </trkpt>
      <trkpt lat="44.40315" lon="3.85647">
        <ele>1488.4</ele>
        <time>2022-10-28T15:10:49Z</time>
      </trkpt>
      <trkpt lat="44.40311" lon="3.85645">
        <ele>1488</ele>
        <time>2022-10-28T15:10:50Z</time>
      </trkpt>
      <trkpt lat="44.40306" lon="3.85642">
        <ele>1487.6</ele>
        <time>2022-10-28T15:10:51Z</time>
      </trkpt>
      <trkpt lat="44.40301" lon="3.85638">
        <ele>1487.2</ele>
        <time>2022-10-28T15:10:52Z</time>
      </trkpt>
      <trkpt lat="44.40296" lon="3.85634">
        <ele>1486.8</ele>
        <time>2022-10-28T15:10:53Z</time>
      </trkpt>
      <trkpt lat="44.40292" lon="3.85631">
        <ele>1486.4</ele>
        <time>2022-10-28T15:10:54Z</time>
      </trkpt>
      <trkpt lat="44.40286" lon="3.85628">
        <ele>1486</ele>
        <time>2022-10-28T15:10:55Z</time>
      </trkpt>
      <trkpt lat="44.40281" lon="3.85626">
        <ele>1485.6</ele>
        <time>2022-10-28T15:10:56Z</time>
      </trkpt>
      <trkpt lat="44.40276" lon="3.85625">
        <ele>1485.2</ele>
        <time>2022-10-28T15:10:57Z</time>
      </trkpt>
      <trkpt lat="44.4027" lon="3.85625">
        <ele>1484.8</ele>
        <time>2022-10-28T15:10:58Z</time>
      </trkpt>
      <trkpt lat="44.40266" lon="3.85626">
        <ele>1484.4</ele>
        <time>2022-10-28T15:10:59Z</time>
      </trkpt>
      <trkpt lat="44.40261" lon="3.85627">
        <ele>1484</ele>
        <time>2022-10-28T15:11:00Z</time>
      </trkpt>
      <trkpt lat="44.40256" lon="3.85628">
        <ele>1483.8</ele>
        <time>2022-10-28T15:11:01Z</time>
      </trkpt>
      <trkpt lat="44.40251" lon="3.85631">
        <ele>1483.4</ele>
        <time>2022-10-28T15:11:02Z</time>
      </trkpt>
      <trkpt lat="44.40246" lon="3.85635">
        <ele>1483.2</ele>
        <time>2022-10-28T15:11:03Z</time>
      </trkpt>
      <trkpt lat="44.40241" lon="3.85639">
        <ele>1482.8</ele>
        <time>2022-10-28T15:11:04Z</time>
      </trkpt>
      <trkpt lat="44.40236" lon="3.85643">
        <ele>1482.4</ele>
        <time>2022-10-28T15:11:05Z</time>
      </trkpt>
      <trkpt lat="44.40231" lon="3.85648">
        <ele>1481.8</ele>
        <time>2022-10-28T15:11:06Z</time>
      </trkpt>
      <trkpt lat="44.40226" lon="3.85652">
        <ele>1481.4</ele>
        <time>2022-10-28T15:11:07Z</time>
      </trkpt>
      <trkpt lat="44.40222" lon="3.85656">
        <ele>1480.8</ele>
        <time>2022-10-28T15:11:08Z</time>
      </trkpt>
      <trkpt lat="44.40219" lon="3.8566">
        <ele>1480.2</ele>
        <time>2022-10-28T15:11:09Z</time>
      </trkpt>
      <trkpt lat="44.40216" lon="3.85665">
        <ele>1479.8</ele>
        <time>2022-10-28T15:11:10Z</time>
      </trkpt>
      <trkpt lat="44.40214" lon="3.85671">
        <ele>1479.4</ele>
        <time>2022-10-28T15:11:11Z</time>
      </trkpt>
      <trkpt lat="44.40213" lon="3.85676">
        <ele>1479</ele>
        <time>2022-10-28T15:11:12Z</time>
      </trkpt>
      <trkpt lat="44.40211" lon="3.85682">
        <ele>1478.8</ele>
        <time>2022-10-28T15:11:13Z</time>
      </trkpt>
      <trkpt lat="44.4021" lon="3.85687">
        <ele>1478.4</ele>
        <time>2022-10-28T15:11:14Z</time>
      </trkpt>
      <trkpt lat="44.40207" lon="3.85694">
        <ele>1478</ele>
        <time>2022-10-28T15:11:15Z</time>
      </trkpt>
      <trkpt lat="44.40205" lon="3.85701">
        <ele>1477.8</ele>
        <time>2022-10-28T15:11:16Z</time>
      </trkpt>
      <trkpt lat="44.40203" lon="3.85708">
        <ele>1477.4</ele>
        <time>2022-10-28T15:11:17Z</time>
      </trkpt>
      <trkpt lat="44.402" lon="3.85717">
        <ele>1477</ele>
        <time>2022-10-28T15:11:18Z</time>
      </trkpt>
      <trkpt lat="44.40197" lon="3.85725">
        <ele>1476.6</ele>
        <time>2022-10-28T15:11:19Z</time>
      </trkpt>
      <trkpt lat="44.40195" lon="3.85734">
        <ele>1476.2</ele>
        <time>2022-10-28T15:11:20Z</time>
      </trkpt>
      <trkpt lat="44.40193" lon="3.85742">
        <ele>1475.6</ele>
        <time>2022-10-28T15:11:21Z</time>
      </trkpt>
      <trkpt lat="44.40191" lon="3.8575">
        <ele>1475.2</ele>
        <time>2022-10-28T15:11:22Z</time>
      </trkpt>
      <trkpt lat="44.4019" lon="3.85758">
        <ele>1474.8</ele>
        <time>2022-10-28T15:11:23Z</time>
      </trkpt>
      <trkpt lat="44.4019" lon="3.85766">
        <ele>1474.4</ele>
        <time>2022-10-28T15:11:24Z</time>
      </trkpt>
      <trkpt lat="44.4019" lon="3.85774">
        <ele>1474</ele>
        <time>2022-10-28T15:11:25Z</time>
      </trkpt>
      <trkpt lat="44.40191" lon="3.85781">
        <ele>1473.4</ele>
        <time>2022-10-28T15:11:26Z</time>
      </trkpt>
      <trkpt lat="44.40192" lon="3.85787">
        <ele>1473</ele>
        <time>2022-10-28T15:11:27Z</time>
      </trkpt>
      <trkpt lat="44.40193" lon="3.85793">
        <ele>1472.6</ele>
        <time>2022-10-28T15:11:28Z</time>
      </trkpt>
      <trkpt lat="44.40194" lon="3.85798">
        <ele>1472.4</ele>
        <time>2022-10-28T15:11:29Z</time>
      </trkpt>
      <trkpt lat="44.40195" lon="3.85802">
        <ele>1472</ele>
        <time>2022-10-28T15:11:30Z</time>
      </trkpt>
      <trkpt lat="44.40196" lon="3.85805">
        <ele>1471.6</ele>
        <time>2022-10-28T15:11:31Z</time>
      </trkpt>
      <trkpt lat="44.40198" lon="3.85809">
        <ele>1471.4</ele>
        <time>2022-10-28T15:11:32Z</time>
      </trkpt>
      <trkpt lat="44.40199" lon="3.85812">
        <ele>1471.2</ele>
        <time>2022-10-28T15:11:33Z</time>
      </trkpt>
      <trkpt lat="44.40201" lon="3.85815">
        <ele>1471</ele>
        <time>2022-10-28T15:11:34Z</time>
      </trkpt>
      <trkpt lat="44.40202" lon="3.85817">
        <ele>1470.8</ele>
        <time>2022-10-28T15:11:35Z</time>
      </trkpt>
      <trkpt lat="44.40204" lon="3.85819">
        <ele>1470.6</ele>
        <time>2022-10-28T15:11:36Z</time>
      </trkpt>
      <trkpt lat="44.40205" lon="3.85819">
        <ele>1470.4</ele>
        <time>2022-10-28T15:11:37Z</time>
      </trkpt>
      <trkpt lat="44.40206" lon="3.8582">
        <ele>1470.2</ele>
        <time>2022-10-28T15:11:38Z</time>
      </trkpt>
      <trkpt lat="44.40207" lon="3.85821">
        <ele>1470</ele>
        <time>2022-10-28T15:11:39Z</time>
      </trkpt>
      <trkpt lat="44.40207" lon="3.85822">
        <ele>1469.8</ele>
        <time>2022-10-28T15:11:40Z</time>
      </trkpt>
      <trkpt lat="44.40206" lon="3.85824">
        <ele>1469.6</ele>
        <time>2022-10-28T15:11:43Z</time>
      </trkpt>
      <trkpt lat="44.40206" lon="3.85826">
        <ele>1469.6</ele>
        <time>2022-10-28T15:11:44Z</time>
      </trkpt>
      <trkpt lat="44.40206" lon="3.85826">
        <ele>1469.4</ele>
        <time>2022-10-28T15:11:45Z</time>
      </trkpt>
      <trkpt lat="44.40206" lon="3.85827">
        <ele>1469.4</ele>
        <time>2022-10-28T15:11:46Z</time>
      </trkpt>
      <trkpt lat="44.40206" lon="3.85828">
        <ele>1469.2</ele>
        <time>2022-10-28T15:11:47Z</time>
      </trkpt>
      <trkpt lat="44.40207" lon="3.85828">
        <ele>1469.2</ele>
        <time>2022-10-28T15:11:48Z</time>
      </trkpt>
      <trkpt lat="44.40207" lon="3.85828">
        <ele>1469.2</ele>
        <time>2022-10-28T15:11:49Z</time>
      </trkpt>
      <trkpt lat="44.40207" lon="3.85828">
        <ele>1469.2</ele>
        <time>2022-10-28T15:11:50Z</time>
      </trkpt>
      <trkpt lat="44.40208" lon="3.85827">
        <ele>1469</ele>
        <time>2022-10-28T15:11:51Z</time>
      </trkpt>
      <trkpt lat="44.40208" lon="3.85827">
        <ele>1469</ele>
        <time>2022-10-28T15:11:52Z</time>
      </trkpt>
      <trkpt lat="44.40208" lon="3.85827">
        <ele>1469</ele>
        <time>2022-10-28T15:11:53Z</time>
      </trkpt>
      <trkpt lat="44.40208" lon="3.85827">
        <ele>1469</ele>
        <time>2022-10-28T15:11:54Z</time>
      </trkpt>
      <trkpt lat="44.402" lon="3.85828">
        <ele>1469</ele>
        <time>2022-10-28T15:41:53Z</time>
      </trkpt>
      <trkpt lat="44.40198" lon="3.85827">
        <ele>1469</ele>
        <time>2022-10-28T15:41:54Z</time>
      </trkpt>
      <trkpt lat="44.40197" lon="3.85825">
        <ele>1469</ele>
        <time>2022-10-28T15:41:55Z</time>
      </trkpt>
      <trkpt lat="44.40196" lon="3.85824">
        <ele>1469</ele>
        <time>2022-10-28T15:41:56Z</time>
      </trkpt>
      <trkpt lat="44.40195" lon="3.85822">
        <ele>1469</ele>
        <time>2022-10-28T15:41:57Z</time>
      </trkpt>
      <trkpt lat="44.40194" lon="3.8582">
        <ele>1469</ele>
        <time>2022-10-28T15:41:58Z</time>
      </trkpt>
      <trkpt lat="44.40193" lon="3.85818">
        <ele>1469.2</ele>
        <time>2022-10-28T15:41:59Z</time>
      </trkpt>
      <trkpt lat="44.40193" lon="3.85815">
        <ele>1469.2</ele>
        <time>2022-10-28T15:42:00Z</time>
      </trkpt>
      <trkpt lat="44.40192" lon="3.85811">
        <ele>1469.4</ele>
        <time>2022-10-28T15:42:01Z</time>
      </trkpt>
      <trkpt lat="44.40193" lon="3.85809">
        <ele>1469.4</ele>
        <time>2022-10-28T15:42:02Z</time>
      </trkpt>
      <trkpt lat="44.40194" lon="3.85806">
        <ele>1469.6</ele>
        <time>2022-10-28T15:42:03Z</time>
      </trkpt>
      <trkpt lat="44.40194" lon="3.85803">
        <ele>1469.8</ele>
        <time>2022-10-28T15:42:04Z</time>
      </trkpt>
      <trkpt lat="44.40194" lon="3.858">
        <ele>1470</ele>
        <time>2022-10-28T15:42:05Z</time>
      </trkpt>
      <trkpt lat="44.40194" lon="3.85797">
        <ele>1470</ele>
        <time>2022-10-28T15:42:06Z</time>
      </trkpt>
      <trkpt lat="44.40194" lon="3.85794">
        <ele>1470.2</ele>
        <time>2022-10-28T15:42:07Z</time>
      </trkpt>
      <trkpt lat="44.40194" lon="3.85791">
        <ele>1470.4</ele>
        <time>2022-10-28T15:42:08Z</time>
      </trkpt>
      <trkpt lat="44.40194" lon="3.85788">
        <ele>1470.6</ele>
        <time>2022-10-28T15:42:09Z</time>
      </trkpt>
      <trkpt lat="44.40194" lon="3.85784">
        <ele>1470.8</ele>
        <time>2022-10-28T15:42:10Z</time>
      </trkpt>
      <trkpt lat="44.40194" lon="3.85781">
        <ele>1471</ele>
        <time>2022-10-28T15:42:11Z</time>
      </trkpt>
      <trkpt lat="44.40194" lon="3.85778">
        <ele>1471.2</ele>
        <time>2022-10-28T15:42:12Z</time>
      </trkpt>
      <trkpt lat="44.40194" lon="3.85775">
        <ele>1471.2</ele>
        <time>2022-10-28T15:42:13Z</time>
      </trkpt>
      <trkpt lat="44.40195" lon="3.85771">
        <ele>1471.4</ele>
        <time>2022-10-28T15:42:14Z</time>
      </trkpt>
      <trkpt lat="44.40195" lon="3.85768">
        <ele>1471.6</ele>
        <time>2022-10-28T15:42:15Z</time>
      </trkpt>
      <trkpt lat="44.40196" lon="3.85764">
        <ele>1471.8</ele>
        <time>2022-10-28T15:42:16Z</time>
      </trkpt>
      <trkpt lat="44.40196" lon="3.85761">
        <ele>1471.8</ele>
        <time>2022-10-28T15:42:17Z</time>
      </trkpt>
      <trkpt lat="44.40197" lon="3.85757">
        <ele>1472</ele>
        <time>2022-10-28T15:42:18Z</time>
      </trkpt>
      <trkpt lat="44.40197" lon="3.85754">
        <ele>1472</ele>
        <time>2022-10-28T15:42:19Z</time>
      </trkpt>
      <trkpt lat="44.40198" lon="3.8575">
        <ele>1472.2</ele>
        <time>2022-10-28T15:42:20Z</time>
      </trkpt>
      <trkpt lat="44.40198" lon="3.85747">
        <ele>1472.4</ele>
        <time>2022-10-28T15:42:21Z</time>
      </trkpt>
      <trkpt lat="44.40199" lon="3.85744">
        <ele>1472.6</ele>
        <time>2022-10-28T15:42:22Z</time>
      </trkpt>
      <trkpt lat="44.40199" lon="3.85741">
        <ele>1472.8</ele>
        <time>2022-10-28T15:42:23Z</time>
      </trkpt>
      <trkpt lat="44.402" lon="3.85738">
        <ele>1473</ele>
        <time>2022-10-28T15:42:24Z</time>
      </trkpt>
      <trkpt lat="44.40201" lon="3.85735">
        <ele>1473.2</ele>
        <time>2022-10-28T15:42:25Z</time>
      </trkpt>
      <trkpt lat="44.40202" lon="3.85732">
        <ele>1473.2</ele>
        <time>2022-10-28T15:42:26Z</time>
      </trkpt>
      <trkpt lat="44.40203" lon="3.85729">
        <ele>1473.4</ele>
        <time>2022-10-28T15:42:27Z</time>
      </trkpt>
      <trkpt lat="44.40204" lon="3.85726">
        <ele>1473.6</ele>
        <time>2022-10-28T15:42:28Z</time>
      </trkpt>
      <trkpt lat="44.40205" lon="3.85723">
        <ele>1473.8</ele>
        <time>2022-10-28T15:42:29Z</time>
      </trkpt>
      <trkpt lat="44.40206" lon="3.8572">
        <ele>1474</ele>
        <time>2022-10-28T15:42:30Z</time>
      </trkpt>
      <trkpt lat="44.40207" lon="3.85717">
        <ele>1474.2</ele>
        <time>2022-10-28T15:42:31Z</time>
      </trkpt>
      <trkpt lat="44.40208" lon="3.85715">
        <ele>1474.4</ele>
        <time>2022-10-28T15:42:32Z</time>
      </trkpt>
      <trkpt lat="44.40208" lon="3.85712">
        <ele>1474.6</ele>
        <time>2022-10-28T15:42:33Z</time>
      </trkpt>
      <trkpt lat="44.40209" lon="3.85709">
        <ele>1474.8</ele>
        <time>2022-10-28T15:42:34Z</time>
      </trkpt>
      <trkpt lat="44.4021" lon="3.85706">
        <ele>1475</ele>
        <time>2022-10-28T15:42:35Z</time>
      </trkpt>
      <trkpt lat="44.4021" lon="3.85704">
        <ele>1475</ele>
        <time>2022-10-28T15:42:36Z</time>
      </trkpt>
      <trkpt lat="44.40211" lon="3.85701">
        <ele>1475.2</ele>
        <time>2022-10-28T15:42:37Z</time>
      </trkpt>
      <trkpt lat="44.40211" lon="3.85698">
        <ele>1475.4</ele>
        <time>2022-10-28T15:42:38Z</time>
      </trkpt>
      <trkpt lat="44.40211" lon="3.85695">
        <ele>1475.6</ele>
        <time>2022-10-28T15:42:39Z</time>
      </trkpt>
      <trkpt lat="44.40212" lon="3.85693">
        <ele>1475.8</ele>
        <time>2022-10-28T15:42:40Z</time>
      </trkpt>
      <trkpt lat="44.40212" lon="3.8569">
        <ele>1476</ele>
        <time>2022-10-28T15:42:41Z</time>
      </trkpt>
      <trkpt lat="44.40213" lon="3.85688">
        <ele>1476.2</ele>
        <time>2022-10-28T15:42:42Z</time>
      </trkpt>
      <trkpt lat="44.40213" lon="3.85686">
        <ele>1476.4</ele>
        <time>2022-10-28T15:42:43Z</time>
      </trkpt>
      <trkpt lat="44.40213" lon="3.85683">
        <ele>1476.4</ele>
        <time>2022-10-28T15:42:44Z</time>
      </trkpt>
      <trkpt lat="44.40214" lon="3.8568">
        <ele>1476.6</ele>
        <time>2022-10-28T15:42:45Z</time>
      </trkpt>
      <trkpt lat="44.40215" lon="3.85677">
        <ele>1476.8</ele>
        <time>2022-10-28T15:42:46Z</time>
      </trkpt>
      <trkpt lat="44.40216" lon="3.85674">
        <ele>1476.8</ele>
        <time>2022-10-28T15:42:47Z</time>
      </trkpt>
      <trkpt lat="44.40216" lon="3.85672">
        <ele>1477</ele>
        <time>2022-10-28T15:42:48Z</time>
      </trkpt>
      <trkpt lat="44.40217" lon="3.8567">
        <ele>1477</ele>
        <time>2022-10-28T15:42:49Z</time>
      </trkpt>
      <trkpt lat="44.40217" lon="3.85668">
        <ele>1477.2</ele>
        <time>2022-10-28T15:42:50Z</time>
      </trkpt>
      <trkpt lat="44.40218" lon="3.85666">
        <ele>1477.2</ele>
        <time>2022-10-28T15:42:51Z</time>
      </trkpt>
      <trkpt lat="44.40219" lon="3.85664">
        <ele>1477.4</ele>
        <time>2022-10-28T15:42:52Z</time>
      </trkpt>
      <trkpt lat="44.4022" lon="3.85662">
        <ele>1477.6</ele>
        <time>2022-10-28T15:42:53Z</time>
      </trkpt>
      <trkpt lat="44.40222" lon="3.8566">
        <ele>1477.8</ele>
        <time>2022-10-28T15:42:54Z</time>
      </trkpt>
      <trkpt lat="44.40223" lon="3.85659">
        <ele>1478</ele>
        <time>2022-10-28T15:42:55Z</time>
      </trkpt>
      <trkpt lat="44.40224" lon="3.85657">
        <ele>1478</ele>
        <time>2022-10-28T15:42:56Z</time>
      </trkpt>
      <trkpt lat="44.40226" lon="3.85656">
        <ele>1478.2</ele>
        <time>2022-10-28T15:42:57Z</time>
      </trkpt>
      <trkpt lat="44.40228" lon="3.85655">
        <ele>1478.4</ele>
        <time>2022-10-28T15:42:58Z</time>
      </trkpt>
      <trkpt lat="44.40229" lon="3.85654">
        <ele>1478.6</ele>
        <time>2022-10-28T15:42:59Z</time>
      </trkpt>
      <trkpt lat="44.40231" lon="3.85653">
        <ele>1478.8</ele>
        <time>2022-10-28T15:43:00Z</time>
      </trkpt>
      <trkpt lat="44.40232" lon="3.85652">
        <ele>1479</ele>
        <time>2022-10-28T15:43:01Z</time>
      </trkpt>
      <trkpt lat="44.40234" lon="3.85651">
        <ele>1479.2</ele>
        <time>2022-10-28T15:43:02Z</time>
      </trkpt>
      <trkpt lat="44.40236" lon="3.8565">
        <ele>1479.4</ele>
        <time>2022-10-28T15:43:03Z</time>
      </trkpt>
      <trkpt lat="44.40237" lon="3.85649">
        <ele>1479.6</ele>
        <time>2022-10-28T15:43:04Z</time>
      </trkpt>
      <trkpt lat="44.40239" lon="3.85647">
        <ele>1479.8</ele>
        <time>2022-10-28T15:43:05Z</time>
      </trkpt>
      <trkpt lat="44.40241" lon="3.85646">
        <ele>1480</ele>
        <time>2022-10-28T15:43:06Z</time>
      </trkpt>
      <trkpt lat="44.40243" lon="3.85645">
        <ele>1480.2</ele>
        <time>2022-10-28T15:43:07Z</time>
      </trkpt>
      <trkpt lat="44.40244" lon="3.85644">
        <ele>1480.4</ele>
        <time>2022-10-28T15:43:08Z</time>
      </trkpt>
      <trkpt lat="44.40246" lon="3.85643">
        <ele>1480.6</ele>
        <time>2022-10-28T15:43:09Z</time>
      </trkpt>
      <trkpt lat="44.40248" lon="3.85641">
        <ele>1480.8</ele>
        <time>2022-10-28T15:43:10Z</time>
      </trkpt>
      <trkpt lat="44.40249" lon="3.85641">
        <ele>1481</ele>
        <time>2022-10-28T15:43:11Z</time>
      </trkpt>
      <trkpt lat="44.40251" lon="3.8564">
        <ele>1481.2</ele>
        <time>2022-10-28T15:43:12Z</time>
      </trkpt>
      <trkpt lat="44.40252" lon="3.85639">
        <ele>1481.4</ele>
        <time>2022-10-28T15:43:13Z</time>
      </trkpt>
      <trkpt lat="44.40254" lon="3.85638">
        <ele>1481.4</ele>
        <time>2022-10-28T15:43:14Z</time>
      </trkpt>
      <trkpt lat="44.40256" lon="3.85637">
        <ele>1481.6</ele>
        <time>2022-10-28T15:43:15Z</time>
      </trkpt>
      <trkpt lat="44.40258" lon="3.85636">
        <ele>1481.8</ele>
        <time>2022-10-28T15:43:16Z</time>
      </trkpt>
      <trkpt lat="44.4026" lon="3.85636">
        <ele>1482</ele>
        <time>2022-10-28T15:43:17Z</time>
      </trkpt>
      <trkpt lat="44.40263" lon="3.85635">
        <ele>1482.2</ele>
        <time>2022-10-28T15:43:18Z</time>
      </trkpt>
      <trkpt lat="44.40266" lon="3.85635">
        <ele>1482.4</ele>
        <time>2022-10-28T15:43:19Z</time>
      </trkpt>
      <trkpt lat="44.40268" lon="3.85635">
        <ele>1482.6</ele>
        <time>2022-10-28T15:43:20Z</time>
      </trkpt>
      <trkpt lat="44.4027" lon="3.85635">
        <ele>1482.8</ele>
        <time>2022-10-28T15:43:21Z</time>
      </trkpt>
      <trkpt lat="44.40273" lon="3.85635">
        <ele>1482.8</ele>
        <time>2022-10-28T15:43:22Z</time>
      </trkpt>
      <trkpt lat="44.40275" lon="3.85635">
        <ele>1483</ele>
        <time>2022-10-28T15:43:23Z</time>
      </trkpt>
      <trkpt lat="44.40278" lon="3.85635">
        <ele>1483.2</ele>
        <time>2022-10-28T15:43:24Z</time>
      </trkpt>
      <trkpt lat="44.4028" lon="3.85635">
        <ele>1483.4</ele>
        <time>2022-10-28T15:43:25Z</time>
      </trkpt>
      <trkpt lat="44.40282" lon="3.85636">
        <ele>1483.6</ele>
        <time>2022-10-28T15:43:26Z</time>
      </trkpt>
      <trkpt lat="44.40284" lon="3.85636">
        <ele>1483.6</ele>
        <time>2022-10-28T15:43:27Z</time>
      </trkpt>
      <trkpt lat="44.40286" lon="3.85636">
        <ele>1483.8</ele>
        <time>2022-10-28T15:43:28Z</time>
      </trkpt>
      <trkpt lat="44.40287" lon="3.85637">
        <ele>1484</ele>
        <time>2022-10-28T15:43:29Z</time>
      </trkpt>
      <trkpt lat="44.40289" lon="3.85637">
        <ele>1484.2</ele>
        <time>2022-10-28T15:43:30Z</time>
      </trkpt>
      <trkpt lat="44.40291" lon="3.85637">
        <ele>1484.4</ele>
        <time>2022-10-28T15:43:31Z</time>
      </trkpt>
      <trkpt lat="44.40293" lon="3.85638">
        <ele>1484.6</ele>
        <time>2022-10-28T15:43:32Z</time>
      </trkpt>
      <trkpt lat="44.40294" lon="3.85639">
        <ele>1484.8</ele>
        <time>2022-10-28T15:43:33Z</time>
      </trkpt>
      <trkpt lat="44.40296" lon="3.8564">
        <ele>1485</ele>
        <time>2022-10-28T15:43:34Z</time>
      </trkpt>
      <trkpt lat="44.40298" lon="3.85641">
        <ele>1485.2</ele>
        <time>2022-10-28T15:43:35Z</time>
      </trkpt>
      <trkpt lat="44.40299" lon="3.85642">
        <ele>1485.4</ele>
        <time>2022-10-28T15:43:36Z</time>
      </trkpt>
      <trkpt lat="44.40301" lon="3.85643">
        <ele>1485.4</ele>
        <time>2022-10-28T15:43:37Z</time>
      </trkpt>
      <trkpt lat="44.40302" lon="3.85645">
        <ele>1485.6</ele>
        <time>2022-10-28T15:43:38Z</time>
      </trkpt>
      <trkpt lat="44.40303" lon="3.85646">
        <ele>1485.8</ele>
        <time>2022-10-28T15:43:39Z</time>
      </trkpt>
      <trkpt lat="44.40305" lon="3.85647">
        <ele>1486</ele>
        <time>2022-10-28T15:43:40Z</time>
      </trkpt>
      <trkpt lat="44.40306" lon="3.85648">
        <ele>1486</ele>
        <time>2022-10-28T15:43:41Z</time>
      </trkpt>
      <trkpt lat="44.40307" lon="3.85648">
        <ele>1486.2</ele>
        <time>2022-10-28T15:43:42Z</time>
      </trkpt>
      <trkpt lat="44.40308" lon="3.85648">
        <ele>1486.2</ele>
        <time>2022-10-28T15:43:43Z</time>
      </trkpt>
      <trkpt lat="44.4031" lon="3.85649">
        <ele>1486.4</ele>
        <time>2022-10-28T15:43:44Z</time>
      </trkpt>
      <trkpt lat="44.40312" lon="3.8565">
        <ele>1486.4</ele>
        <time>2022-10-28T15:43:45Z</time>
      </trkpt>
      <trkpt lat="44.40313" lon="3.85651">
        <ele>1486.6</ele>
        <time>2022-10-28T15:43:46Z</time>
      </trkpt>
      <trkpt lat="44.40315" lon="3.85652">
        <ele>1486.8</ele>
        <time>2022-10-28T15:43:47Z</time>
      </trkpt>
      <trkpt lat="44.40317" lon="3.85653">
        <ele>1486.8</ele>
        <time>2022-10-28T15:43:48Z</time>
      </trkpt>
      <trkpt lat="44.40318" lon="3.85655">
        <ele>1487</ele>
        <time>2022-10-28T15:43:49Z</time>
      </trkpt>
      <trkpt lat="44.40319" lon="3.85656">
        <ele>1487</ele>
        <time>2022-10-28T15:43:50Z</time>
      </trkpt>
      <trkpt lat="44.40321" lon="3.85657">
        <ele>1487.2</ele>
        <time>2022-10-28T15:43:51Z</time>
      </trkpt>
      <trkpt lat="44.40323" lon="3.85658">
        <ele>1487.4</ele>
        <time>2022-10-28T15:43:52Z</time>
      </trkpt>
      <trkpt lat="44.40324" lon="3.85659">
        <ele>1487.6</ele>
        <time>2022-10-28T15:43:53Z</time>
      </trkpt>
      <trkpt lat="44.40326" lon="3.8566">
        <ele>1487.6</ele>
        <time>2022-10-28T15:43:54Z</time>
      </trkpt>
      <trkpt lat="44.40327" lon="3.8566">
        <ele>1487.8</ele>
        <time>2022-10-28T15:43:55Z</time>
      </trkpt>
      <trkpt lat="44.40329" lon="3.85661">
        <ele>1488</ele>
        <time>2022-10-28T15:43:56Z</time>
      </trkpt>
      <trkpt lat="44.4033" lon="3.85661">
        <ele>1488</ele>
        <time>2022-10-28T15:43:57Z</time>
      </trkpt>
      <trkpt lat="44.40332" lon="3.85662">
        <ele>1488.2</ele>
        <time>2022-10-28T15:43:58Z</time>
      </trkpt>
      <trkpt lat="44.40335" lon="3.85662">
        <ele>1488.4</ele>
        <time>2022-10-28T15:43:59Z</time>
      </trkpt>
      <trkpt lat="44.40338" lon="3.85662">
        <ele>1488.6</ele>
        <time>2022-10-28T15:44:00Z</time>
      </trkpt>
      <trkpt lat="44.4034" lon="3.85662">
        <ele>1488.8</ele>
        <time>2022-10-28T15:44:01Z</time>
      </trkpt>
      <trkpt lat="44.40342" lon="3.85661">
        <ele>1489</ele>
        <time>2022-10-28T15:44:02Z</time>
      </trkpt>
      <trkpt lat="44.40344" lon="3.85661">
        <ele>1489.2</ele>
        <time>2022-10-28T15:44:03Z</time>
      </trkpt>
      <trkpt lat="44.40346" lon="3.85661">
        <ele>1489.4</ele>
        <time>2022-10-28T15:44:04Z</time>
      </trkpt>
      <trkpt lat="44.40348" lon="3.85661">
        <ele>1489.6</ele>
        <time>2022-10-28T15:44:05Z</time>
      </trkpt>
      <trkpt lat="44.40349" lon="3.85661">
        <ele>1489.8</ele>
        <time>2022-10-28T15:44:06Z</time>
      </trkpt>
      <trkpt lat="44.40351" lon="3.85661">
        <ele>1490</ele>
        <time>2022-10-28T15:44:07Z</time>
      </trkpt>
      <trkpt lat="44.40352" lon="3.85661">
        <ele>1490.2</ele>
        <time>2022-10-28T15:44:08Z</time>
      </trkpt>
      <trkpt lat="44.40354" lon="3.85661">
        <ele>1490.4</ele>
        <time>2022-10-28T15:44:09Z</time>
      </trkpt>
      <trkpt lat="44.40356" lon="3.85661">
        <ele>1490.6</ele>
        <time>2022-10-28T15:44:10Z</time>
      </trkpt>
      <trkpt lat="44.40358" lon="3.85661">
        <ele>1490.8</ele>
        <time>2022-10-28T15:44:11Z</time>
      </trkpt>
      <trkpt lat="44.4036" lon="3.8566">
        <ele>1491</ele>
        <time>2022-10-28T15:44:12Z</time>
      </trkpt>
      <trkpt lat="44.40362" lon="3.8566">
        <ele>1491.2</ele>
        <time>2022-10-28T15:44:13Z</time>
      </trkpt>
      <trkpt lat="44.40364" lon="3.8566">
        <ele>1491.4</ele>
        <time>2022-10-28T15:44:14Z</time>
      </trkpt>
      <trkpt lat="44.40366" lon="3.8566">
        <ele>1491.6</ele>
        <time>2022-10-28T15:44:15Z</time>
      </trkpt>
      <trkpt lat="44.40368" lon="3.8566">
        <ele>1491.8</ele>
        <time>2022-10-28T15:44:16Z</time>
      </trkpt>
      <trkpt lat="44.4037" lon="3.8566">
        <ele>1491.8</ele>
        <time>2022-10-28T15:44:17Z</time>
      </trkpt>
      <trkpt lat="44.40373" lon="3.8566">
        <ele>1492</ele>
        <time>2022-10-28T15:44:18Z</time>
      </trkpt>
      <trkpt lat="44.40375" lon="3.8566">
        <ele>1492.2</ele>
        <time>2022-10-28T15:44:19Z</time>
      </trkpt>
      <trkpt lat="44.40377" lon="3.8566">
        <ele>1492.4</ele>
        <time>2022-10-28T15:44:20Z</time>
      </trkpt>
      <trkpt lat="44.40379" lon="3.8566">
        <ele>1492.6</ele>
        <time>2022-10-28T15:44:21Z</time>
      </trkpt>
      <trkpt lat="44.4038" lon="3.8566">
        <ele>1492.8</ele>
        <time>2022-10-28T15:44:22Z</time>
      </trkpt>
      <trkpt lat="44.40382" lon="3.8566">
        <ele>1493</ele>
        <time>2022-10-28T15:44:23Z</time>
      </trkpt>
      <trkpt lat="44.40383" lon="3.8566">
        <ele>1493.2</ele>
        <time>2022-10-28T15:44:24Z</time>
      </trkpt>
      <trkpt lat="44.40385" lon="3.8566">
        <ele>1493.4</ele>
        <time>2022-10-28T15:44:25Z</time>
      </trkpt>
      <trkpt lat="44.40386" lon="3.85659">
        <ele>1493.6</ele>
        <time>2022-10-28T15:44:26Z</time>
      </trkpt>
      <trkpt lat="44.40388" lon="3.85658">
        <ele>1493.8</ele>
        <time>2022-10-28T15:44:27Z</time>
      </trkpt>
      <trkpt lat="44.4039" lon="3.85658">
        <ele>1494</ele>
        <time>2022-10-28T15:44:28Z</time>
      </trkpt>
      <trkpt lat="44.40392" lon="3.85657">
        <ele>1494.2</ele>
        <time>2022-10-28T15:44:29Z</time>
      </trkpt>
      <trkpt lat="44.40393" lon="3.85657">
        <ele>1494.4</ele>
        <time>2022-10-28T15:44:30Z</time>
      </trkpt>
      <trkpt lat="44.40395" lon="3.85656">
        <ele>1494.4</ele>
        <time>2022-10-28T15:44:31Z</time>
      </trkpt>
      <trkpt lat="44.40397" lon="3.85656">
        <ele>1494.6</ele>
        <time>2022-10-28T15:44:32Z</time>
      </trkpt>
      <trkpt lat="44.40398" lon="3.85656">
        <ele>1494.8</ele>
        <time>2022-10-28T15:44:33Z</time>
      </trkpt>
      <trkpt lat="44.404" lon="3.85655">
        <ele>1495</ele>
        <time>2022-10-28T15:44:34Z</time>
      </trkpt>
      <trkpt lat="44.40402" lon="3.85654">
        <ele>1495</ele>
        <time>2022-10-28T15:44:35Z</time>
      </trkpt>
      <trkpt lat="44.40403" lon="3.85654">
        <ele>1495.4</ele>
        <time>2022-10-28T15:44:36Z</time>
      </trkpt>
      <trkpt lat="44.40405" lon="3.85653">
        <ele>1495.6</ele>
        <time>2022-10-28T15:44:37Z</time>
      </trkpt>
      <trkpt lat="44.40407" lon="3.85653">
        <ele>1495.8</ele>
        <time>2022-10-28T15:44:38Z</time>
      </trkpt>
      <trkpt lat="44.40409" lon="3.85654">
        <ele>1496</ele>
        <time>2022-10-28T15:44:39Z</time>
      </trkpt>
      <trkpt lat="44.4041" lon="3.85655">
        <ele>1496.2</ele>
        <time>2022-10-28T15:44:40Z</time>
      </trkpt>
      <trkpt lat="44.40412" lon="3.85656">
        <ele>1496.4</ele>
        <time>2022-10-28T15:44:41Z</time>
      </trkpt>
      <trkpt lat="44.40414" lon="3.85657">
        <ele>1496.6</ele>
        <time>2022-10-28T15:44:42Z</time>
      </trkpt>
      <trkpt lat="44.40416" lon="3.85658">
        <ele>1496.8</ele>
        <time>2022-10-28T15:44:43Z</time>
      </trkpt>
      <trkpt lat="44.40417" lon="3.8566">
        <ele>1497</ele>
        <time>2022-10-28T15:44:44Z</time>
      </trkpt>
      <trkpt lat="44.40419" lon="3.85661">
        <ele>1497.2</ele>
        <time>2022-10-28T15:44:45Z</time>
      </trkpt>
      <trkpt lat="44.4042" lon="3.85662">
        <ele>1497.4</ele>
        <time>2022-10-28T15:44:46Z</time>
      </trkpt>
      <trkpt lat="44.40421" lon="3.85664">
        <ele>1497.6</ele>
        <time>2022-10-28T15:44:47Z</time>
      </trkpt>
      <trkpt lat="44.40423" lon="3.85664">
        <ele>1497.8</ele>
        <time>2022-10-28T15:44:48Z</time>
      </trkpt>
      <trkpt lat="44.40425" lon="3.85665">
        <ele>1498</ele>
        <time>2022-10-28T15:44:49Z</time>
      </trkpt>
      <trkpt lat="44.40426" lon="3.85666">
        <ele>1498.2</ele>
        <time>2022-10-28T15:44:50Z</time>
      </trkpt>
      <trkpt lat="44.40428" lon="3.85667">
        <ele>1498.4</ele>
        <time>2022-10-28T15:44:51Z</time>
      </trkpt>
      <trkpt lat="44.4043" lon="3.85667">
        <ele>1498.6</ele>
        <time>2022-10-28T15:44:52Z</time>
      </trkpt>
      <trkpt lat="44.40432" lon="3.85668">
        <ele>1498.8</ele>
        <time>2022-10-28T15:44:53Z</time>
      </trkpt>
      <trkpt lat="44.40433" lon="3.85669">
        <ele>1499</ele>
        <time>2022-10-28T15:44:54Z</time>
      </trkpt>
      <trkpt lat="44.40435" lon="3.8567">
        <ele>1499.2</ele>
        <time>2022-10-28T15:44:55Z</time>
      </trkpt>
      <trkpt lat="44.40437" lon="3.85671">
        <ele>1499.4</ele>
        <time>2022-10-28T15:44:56Z</time>
      </trkpt>
      <trkpt lat="44.40439" lon="3.85673">
        <ele>1499.6</ele>
        <time>2022-10-28T15:44:57Z</time>
      </trkpt>
      <trkpt lat="44.4044" lon="3.85674">
        <ele>1499.8</ele>
        <time>2022-10-28T15:44:58Z</time>
      </trkpt>
      <trkpt lat="44.40442" lon="3.85675">
        <ele>1500</ele>
        <time>2022-10-28T15:44:59Z</time>
      </trkpt>
      <trkpt lat="44.40444" lon="3.85676">
        <ele>1500.2</ele>
        <time>2022-10-28T15:45:00Z</time>
      </trkpt>
      <trkpt lat="44.40446" lon="3.85678">
        <ele>1500.4</ele>
        <time>2022-10-28T15:45:01Z</time>
      </trkpt>
      <trkpt lat="44.40448" lon="3.85679">
        <ele>1500.6</ele>
        <time>2022-10-28T15:45:02Z</time>
      </trkpt>
      <trkpt lat="44.4045" lon="3.8568">
        <ele>1500.8</ele>
        <time>2022-10-28T15:45:03Z</time>
      </trkpt>
      <trkpt lat="44.40452" lon="3.85681">
        <ele>1501</ele>
        <time>2022-10-28T15:45:04Z</time>
      </trkpt>
      <trkpt lat="44.40454" lon="3.85682">
        <ele>1501.2</ele>
        <time>2022-10-28T15:45:05Z</time>
      </trkpt>
      <trkpt lat="44.40456" lon="3.85683">
        <ele>1501.4</ele>
        <time>2022-10-28T15:45:06Z</time>
      </trkpt>
      <trkpt lat="44.40458" lon="3.85684">
        <ele>1501.6</ele>
        <time>2022-10-28T15:45:07Z</time>
      </trkpt>
      <trkpt lat="44.4046" lon="3.85686">
        <ele>1501.8</ele>
        <time>2022-10-28T15:45:08Z</time>
      </trkpt>
      <trkpt lat="44.40461" lon="3.85687">
        <ele>1502</ele>
        <time>2022-10-28T15:45:09Z</time>
      </trkpt>
      <trkpt lat="44.40463" lon="3.85688">
        <ele>1502.2</ele>
        <time>2022-10-28T15:45:10Z</time>
      </trkpt>
      <trkpt lat="44.40465" lon="3.85689">
        <ele>1502.4</ele>
        <time>2022-10-28T15:45:11Z</time>
      </trkpt>
      <trkpt lat="44.40466" lon="3.8569">
        <ele>1502.6</ele>
        <time>2022-10-28T15:45:12Z</time>
      </trkpt>
      <trkpt lat="44.40468" lon="3.85691">
        <ele>1503</ele>
        <time>2022-10-28T15:45:13Z</time>
      </trkpt>
      <trkpt lat="44.40469" lon="3.85693">
        <ele>1503.2</ele>
        <time>2022-10-28T15:45:14Z</time>
      </trkpt>
      <trkpt lat="44.40471" lon="3.85694">
        <ele>1503.4</ele>
        <time>2022-10-28T15:45:15Z</time>
      </trkpt>
      <trkpt lat="44.40473" lon="3.85695">
        <ele>1503.6</ele>
        <time>2022-10-28T15:45:16Z</time>
      </trkpt>
      <trkpt lat="44.40475" lon="3.85696">
        <ele>1503.8</ele>
        <time>2022-10-28T15:45:17Z</time>
      </trkpt>
      <trkpt lat="44.40477" lon="3.85696">
        <ele>1504</ele>
        <time>2022-10-28T15:45:18Z</time>
      </trkpt>
      <trkpt lat="44.40479" lon="3.85697">
        <ele>1504.2</ele>
        <time>2022-10-28T15:45:19Z</time>
      </trkpt>
      <trkpt lat="44.40481" lon="3.85697">
        <ele>1504.2</ele>
        <time>2022-10-28T15:45:20Z</time>
      </trkpt>
      <trkpt lat="44.40483" lon="3.85698">
        <ele>1504.4</ele>
        <time>2022-10-28T15:45:21Z</time>
      </trkpt>
      <trkpt lat="44.40484" lon="3.85699">
        <ele>1504.6</ele>
        <time>2022-10-28T15:45:22Z</time>
      </trkpt>
      <trkpt lat="44.40486" lon="3.857">
        <ele>1504.8</ele>
        <time>2022-10-28T15:45:23Z</time>
      </trkpt>
      <trkpt lat="44.40488" lon="3.85701">
        <ele>1505</ele>
        <time>2022-10-28T15:45:24Z</time>
      </trkpt>
      <trkpt lat="44.40489" lon="3.85701">
        <ele>1505.2</ele>
        <time>2022-10-28T15:45:25Z</time>
      </trkpt>
      <trkpt lat="44.40491" lon="3.85702">
        <ele>1505.2</ele>
        <time>2022-10-28T15:45:26Z</time>
      </trkpt>
      <trkpt lat="44.40493" lon="3.85703">
        <ele>1505.4</ele>
        <time>2022-10-28T15:45:27Z</time>
      </trkpt>
      <trkpt lat="44.40495" lon="3.85703">
        <ele>1505.6</ele>
        <time>2022-10-28T15:45:28Z</time>
      </trkpt>
      <trkpt lat="44.40496" lon="3.85703">
        <ele>1505.8</ele>
        <time>2022-10-28T15:45:29Z</time>
      </trkpt>
      <trkpt lat="44.40498" lon="3.85702">
        <ele>1506</ele>
        <time>2022-10-28T15:45:30Z</time>
      </trkpt>
      <trkpt lat="44.405" lon="3.85702">
        <ele>1506</ele>
        <time>2022-10-28T15:45:31Z</time>
      </trkpt>
      <trkpt lat="44.40502" lon="3.85702">
        <ele>1506.2</ele>
        <time>2022-10-28T15:45:32Z</time>
      </trkpt>
      <trkpt lat="44.40504" lon="3.85703">
        <ele>1506.4</ele>
        <time>2022-10-28T15:45:33Z</time>
      </trkpt>
      <trkpt lat="44.40506" lon="3.85703">
        <ele>1506.4</ele>
        <time>2022-10-28T15:45:34Z</time>
      </trkpt>
      <trkpt lat="44.40508" lon="3.85704">
        <ele>1506.6</ele>
        <time>2022-10-28T15:45:35Z</time>
      </trkpt>
      <trkpt lat="44.4051" lon="3.85705">
        <ele>1506.8</ele>
        <time>2022-10-28T15:45:36Z</time>
      </trkpt>
      <trkpt lat="44.40512" lon="3.85705">
        <ele>1507</ele>
        <time>2022-10-28T15:45:37Z</time>
      </trkpt>
      <trkpt lat="44.40514" lon="3.85706">
        <ele>1507.2</ele>
        <time>2022-10-28T15:45:38Z</time>
      </trkpt>
      <trkpt lat="44.40516" lon="3.85706">
        <ele>1507.4</ele>
        <time>2022-10-28T15:45:39Z</time>
      </trkpt>
      <trkpt lat="44.40519" lon="3.85707">
        <ele>1507.6</ele>
        <time>2022-10-28T15:45:40Z</time>
      </trkpt>
      <trkpt lat="44.40521" lon="3.85708">
        <ele>1507.8</ele>
        <time>2022-10-28T15:45:41Z</time>
      </trkpt>
      <trkpt lat="44.40523" lon="3.85709">
        <ele>1508</ele>
        <time>2022-10-28T15:45:42Z</time>
      </trkpt>
      <trkpt lat="44.40525" lon="3.8571">
        <ele>1508</ele>
        <time>2022-10-28T15:45:43Z</time>
      </trkpt>
      <trkpt lat="44.40527" lon="3.85711">
        <ele>1508.2</ele>
        <time>2022-10-28T15:45:44Z</time>
      </trkpt>
      <trkpt lat="44.40528" lon="3.85712">
        <ele>1508.6</ele>
        <time>2022-10-28T15:45:45Z</time>
      </trkpt>
      <trkpt lat="44.4053" lon="3.85713">
        <ele>1508.8</ele>
        <time>2022-10-28T15:45:46Z</time>
      </trkpt>
      <trkpt lat="44.40532" lon="3.85714">
        <ele>1508.8</ele>
        <time>2022-10-28T15:45:47Z</time>
      </trkpt>
      <trkpt lat="44.40533" lon="3.85715">
        <ele>1509</ele>
        <time>2022-10-28T15:45:48Z</time>
      </trkpt>
      <trkpt lat="44.40535" lon="3.85717">
        <ele>1509.2</ele>
        <time>2022-10-28T15:45:49Z</time>
      </trkpt>
      <trkpt lat="44.40537" lon="3.85718">
        <ele>1509.4</ele>
        <time>2022-10-28T15:45:50Z</time>
      </trkpt>
      <trkpt lat="44.40538" lon="3.85719">
        <ele>1509.6</ele>
        <time>2022-10-28T15:45:51Z</time>
      </trkpt>
      <trkpt lat="44.4054" lon="3.8572">
        <ele>1509.8</ele>
        <time>2022-10-28T15:45:52Z</time>
      </trkpt>
      <trkpt lat="44.40542" lon="3.85722">
        <ele>1510</ele>
        <time>2022-10-28T15:45:53Z</time>
      </trkpt>
      <trkpt lat="44.40543" lon="3.85724">
        <ele>1510.2</ele>
        <time>2022-10-28T15:45:54Z</time>
      </trkpt>
      <trkpt lat="44.40543" lon="3.85725">
        <ele>1510.4</ele>
        <time>2022-10-28T15:45:55Z</time>
      </trkpt>
      <trkpt lat="44.40544" lon="3.85726">
        <ele>1510.4</ele>
        <time>2022-10-28T15:45:56Z</time>
      </trkpt>
      <trkpt lat="44.40544" lon="3.85727">
        <ele>1510.6</ele>
        <time>2022-10-28T15:45:57Z</time>
      </trkpt>
      <trkpt lat="44.40545" lon="3.85728">
        <ele>1510.6</ele>
        <time>2022-10-28T15:45:58Z</time>
      </trkpt>
      <trkpt lat="44.40546" lon="3.8573">
        <ele>1511</ele>
        <time>2022-10-28T15:46:06Z</time>
      </trkpt>
      <trkpt lat="44.40546" lon="3.85731">
        <ele>1511.2</ele>
        <time>2022-10-28T15:46:07Z</time>
      </trkpt>
      <trkpt lat="44.40546" lon="3.85733">
        <ele>1511.2</ele>
        <time>2022-10-28T15:46:08Z</time>
      </trkpt>
      <trkpt lat="44.40547" lon="3.85735">
        <ele>1511.4</ele>
        <time>2022-10-28T15:46:09Z</time>
      </trkpt>
      <trkpt lat="44.40548" lon="3.85737">
        <ele>1511.4</ele>
        <time>2022-10-28T15:46:10Z</time>
      </trkpt>
      <trkpt lat="44.40548" lon="3.85739">
        <ele>1511.6</ele>
        <time>2022-10-28T15:46:11Z</time>
      </trkpt>
      <trkpt lat="44.40548" lon="3.85742">
        <ele>1511.8</ele>
        <time>2022-10-28T15:46:12Z</time>
      </trkpt>
      <trkpt lat="44.40549" lon="3.85744">
        <ele>1511.8</ele>
        <time>2022-10-28T15:46:13Z</time>
      </trkpt>
      <trkpt lat="44.40549" lon="3.85748">
        <ele>1512</ele>
        <time>2022-10-28T15:46:14Z</time>
      </trkpt>
      <trkpt lat="44.4055" lon="3.8575">
        <ele>1512.2</ele>
        <time>2022-10-28T15:46:15Z</time>
      </trkpt>
      <trkpt lat="44.4055" lon="3.85753">
        <ele>1512.4</ele>
        <time>2022-10-28T15:46:16Z</time>
      </trkpt>
      <trkpt lat="44.4055" lon="3.85755">
        <ele>1512.6</ele>
        <time>2022-10-28T15:46:17Z</time>
      </trkpt>
      <trkpt lat="44.4055" lon="3.85757">
        <ele>1512.8</ele>
        <time>2022-10-28T15:46:18Z</time>
      </trkpt>
      <trkpt lat="44.40551" lon="3.85759">
        <ele>1512.8</ele>
        <time>2022-10-28T15:46:19Z</time>
      </trkpt>
      <trkpt lat="44.4055" lon="3.8576">
        <ele>1513</ele>
        <time>2022-10-28T15:46:20Z</time>
      </trkpt>
      <trkpt lat="44.4055" lon="3.8576">
        <ele>1513</ele>
        <time>2022-10-28T15:46:21Z</time>
      </trkpt>
      <trkpt lat="44.40549" lon="3.85761">
        <ele>1513.2</ele>
        <time>2022-10-28T15:46:22Z</time>
      </trkpt>
      <trkpt lat="44.40549" lon="3.85761">
        <ele>1513.2</ele>
        <time>2022-10-28T15:46:23Z</time>
      </trkpt>
      <trkpt lat="44.40549" lon="3.85761">
        <ele>1513.2</ele>
        <time>2022-10-28T15:46:24Z</time>
      </trkpt>
      <trkpt lat="44.40548" lon="3.85762">
        <ele>1513.4</ele>
        <time>2022-10-28T15:46:25Z</time>
      </trkpt>
      <trkpt lat="44.4055" lon="3.85761">
        <ele>1513.4</ele>
        <time>2022-10-28T15:47:40Z</time>
      </trkpt>
      <trkpt lat="44.4055" lon="3.8576">
        <ele>1513.4</ele>
        <time>2022-10-28T15:47:41Z</time>
      </trkpt>
      <trkpt lat="44.40551" lon="3.8576">
        <ele>1513.4</ele>
        <time>2022-10-28T15:47:42Z</time>
      </trkpt>
      <trkpt lat="44.40551" lon="3.8576">
        <ele>1513.4</ele>
        <time>2022-10-28T15:47:43Z</time>
      </trkpt>
      <trkpt lat="44.40552" lon="3.85761">
        <ele>1513.4</ele>
        <time>2022-10-28T15:47:44Z</time>
      </trkpt>
      <trkpt lat="44.40553" lon="3.85761">
        <ele>1513.4</ele>
        <time>2022-10-28T15:47:45Z</time>
      </trkpt>
      <trkpt lat="44.40554" lon="3.85762">
        <ele>1513.4</ele>
        <time>2022-10-28T15:47:46Z</time>
      </trkpt>
      <trkpt lat="44.40556" lon="3.85763">
        <ele>1513.6</ele>
        <time>2022-10-28T15:47:47Z</time>
      </trkpt>
      <trkpt lat="44.40557" lon="3.85765">
        <ele>1513.6</ele>
        <time>2022-10-28T15:47:48Z</time>
      </trkpt>
      <trkpt lat="44.40558" lon="3.85766">
        <ele>1513.8</ele>
        <time>2022-10-28T15:47:49Z</time>
      </trkpt>
      <trkpt lat="44.4056" lon="3.85768">
        <ele>1514</ele>
        <time>2022-10-28T15:47:50Z</time>
      </trkpt>
      <trkpt lat="44.40562" lon="3.8577">
        <ele>1514</ele>
        <time>2022-10-28T15:47:51Z</time>
      </trkpt>
      <trkpt lat="44.40564" lon="3.85772">
        <ele>1514.2</ele>
        <time>2022-10-28T15:47:52Z</time>
      </trkpt>
      <trkpt lat="44.40565" lon="3.85773">
        <ele>1514.4</ele>
        <time>2022-10-28T15:47:53Z</time>
      </trkpt>
      <trkpt lat="44.40566" lon="3.85774">
        <ele>1514.6</ele>
        <time>2022-10-28T15:47:54Z</time>
      </trkpt>
      <trkpt lat="44.40567" lon="3.85775">
        <ele>1514.6</ele>
        <time>2022-10-28T15:47:55Z</time>
      </trkpt>
      <trkpt lat="44.40567" lon="3.85776">
        <ele>1514.8</ele>
        <time>2022-10-28T15:47:56Z</time>
      </trkpt>
      <trkpt lat="44.40567" lon="3.85776">
        <ele>1514.8</ele>
        <time>2022-10-28T15:47:57Z</time>
      </trkpt>
      <trkpt lat="44.40567" lon="3.85776">
        <ele>1515</ele>
        <time>2022-10-28T15:47:58Z</time>
      </trkpt>
      <trkpt lat="44.40567" lon="3.85776">
        <ele>1515</ele>
        <time>2022-10-28T15:47:59Z</time>
      </trkpt>
      <trkpt lat="44.40567" lon="3.85776">
        <ele>1515</ele>
        <time>2022-10-28T15:48:00Z</time>
      </trkpt>
      <trkpt lat="44.40556" lon="3.85761">
        <ele>1515</ele>
        <time>2022-10-28T15:59:43Z</time>
      </trkpt>
      <trkpt lat="44.40553" lon="3.85758">
        <ele>1515</ele>
        <time>2022-10-28T15:59:44Z</time>
      </trkpt>
      <trkpt lat="44.40551" lon="3.85754">
        <ele>1514.8</ele>
        <time>2022-10-28T15:59:45Z</time>
      </trkpt>
      <trkpt lat="44.4055" lon="3.8575">
        <ele>1514.6</ele>
        <time>2022-10-28T15:59:46Z</time>
      </trkpt>
      <trkpt lat="44.40549" lon="3.85745">
        <ele>1514.4</ele>
        <time>2022-10-28T15:59:47Z</time>
      </trkpt>
      <trkpt lat="44.40548" lon="3.8574">
        <ele>1514.2</ele>
        <time>2022-10-28T15:59:48Z</time>
      </trkpt>
      <trkpt lat="44.40547" lon="3.85734">
        <ele>1513.8</ele>
        <time>2022-10-28T15:59:49Z</time>
      </trkpt>
      <trkpt lat="44.40546" lon="3.85729">
        <ele>1513.4</ele>
        <time>2022-10-28T15:59:50Z</time>
      </trkpt>
      <trkpt lat="44.40544" lon="3.85723">
        <ele>1513</ele>
        <time>2022-10-28T15:59:51Z</time>
      </trkpt>
      <trkpt lat="44.40541" lon="3.85719">
        <ele>1512.6</ele>
        <time>2022-10-28T15:59:52Z</time>
      </trkpt>
      <trkpt lat="44.40538" lon="3.85715">
        <ele>1512.2</ele>
        <time>2022-10-28T15:59:53Z</time>
      </trkpt>
      <trkpt lat="44.40534" lon="3.85712">
        <ele>1511.8</ele>
        <time>2022-10-28T15:59:54Z</time>
      </trkpt>
      <trkpt lat="44.40529" lon="3.85709">
        <ele>1511.4</ele>
        <time>2022-10-28T15:59:55Z</time>
      </trkpt>
      <trkpt lat="44.40525" lon="3.85706">
        <ele>1511</ele>
        <time>2022-10-28T15:59:56Z</time>
      </trkpt>
      <trkpt lat="44.4052" lon="3.85704">
        <ele>1510.6</ele>
        <time>2022-10-28T15:59:57Z</time>
      </trkpt>
      <trkpt lat="44.40515" lon="3.85702">
        <ele>1510.2</ele>
        <time>2022-10-28T15:59:58Z</time>
      </trkpt>
      <trkpt lat="44.4051" lon="3.85701">
        <ele>1509.8</ele>
        <time>2022-10-28T15:59:59Z</time>
      </trkpt>
      <trkpt lat="44.40505" lon="3.857">
        <ele>1509.4</ele>
        <time>2022-10-28T16:00:00Z</time>
      </trkpt>
      <trkpt lat="44.40499" lon="3.85699">
        <ele>1509</ele>
        <time>2022-10-28T16:00:01Z</time>
      </trkpt>
      <trkpt lat="44.40494" lon="3.85698">
        <ele>1508.4</ele>
        <time>2022-10-28T16:00:02Z</time>
      </trkpt>
      <trkpt lat="44.40489" lon="3.85697">
        <ele>1508</ele>
        <time>2022-10-28T16:00:03Z</time>
      </trkpt>
      <trkpt lat="44.40485" lon="3.85695">
        <ele>1507.6</ele>
        <time>2022-10-28T16:00:04Z</time>
      </trkpt>
      <trkpt lat="44.40481" lon="3.85694">
        <ele>1507.2</ele>
        <time>2022-10-28T16:00:05Z</time>
      </trkpt>
      <trkpt lat="44.40477" lon="3.85692">
        <ele>1507</ele>
        <time>2022-10-28T16:00:06Z</time>
      </trkpt>
      <trkpt lat="44.40473" lon="3.85689">
        <ele>1506.6</ele>
        <time>2022-10-28T16:00:07Z</time>
      </trkpt>
      <trkpt lat="44.40469" lon="3.85686">
        <ele>1506.2</ele>
        <time>2022-10-28T16:00:08Z</time>
      </trkpt>
      <trkpt lat="44.40466" lon="3.85684">
        <ele>1505.8</ele>
        <time>2022-10-28T16:00:09Z</time>
      </trkpt>
      <trkpt lat="44.40461" lon="3.85681">
        <ele>1505.4</ele>
        <time>2022-10-28T16:00:10Z</time>
      </trkpt>
      <trkpt lat="44.40457" lon="3.85678">
        <ele>1504.8</ele>
        <time>2022-10-28T16:00:11Z</time>
      </trkpt>
      <trkpt lat="44.40453" lon="3.85676">
        <ele>1504.2</ele>
        <time>2022-10-28T16:00:12Z</time>
      </trkpt>
      <trkpt lat="44.40448" lon="3.85673">
        <ele>1503.8</ele>
        <time>2022-10-28T16:00:13Z</time>
      </trkpt>
      <trkpt lat="44.40444" lon="3.8567">
        <ele>1503.2</ele>
        <time>2022-10-28T16:00:14Z</time>
      </trkpt>
      <trkpt lat="44.4044" lon="3.85667">
        <ele>1502.8</ele>
        <time>2022-10-28T16:00:15Z</time>
      </trkpt>
      <trkpt lat="44.40436" lon="3.85664">
        <ele>1502.2</ele>
        <time>2022-10-28T16:00:16Z</time>
      </trkpt>
      <trkpt lat="44.40431" lon="3.85661">
        <ele>1501.8</ele>
        <time>2022-10-28T16:00:17Z</time>
      </trkpt>
      <trkpt lat="44.40427" lon="3.85659">
        <ele>1501.2</ele>
        <time>2022-10-28T16:00:18Z</time>
      </trkpt>
      <trkpt lat="44.40424" lon="3.85657">
        <ele>1500.8</ele>
        <time>2022-10-28T16:00:19Z</time>
      </trkpt>
      <trkpt lat="44.4042" lon="3.85655">
        <ele>1500.4</ele>
        <time>2022-10-28T16:00:20Z</time>
      </trkpt>
      <trkpt lat="44.40417" lon="3.85653">
        <ele>1500</ele>
        <time>2022-10-28T16:00:21Z</time>
      </trkpt>
      <trkpt lat="44.40414" lon="3.85651">
        <ele>1499.6</ele>
        <time>2022-10-28T16:00:22Z</time>
      </trkpt>
      <trkpt lat="44.40411" lon="3.85651">
        <ele>1499.2</ele>
        <time>2022-10-28T16:00:23Z</time>
      </trkpt>
      <trkpt lat="44.40408" lon="3.85651">
        <ele>1498.6</ele>
        <time>2022-10-28T16:00:24Z</time>
      </trkpt>
      <trkpt lat="44.40404" lon="3.85651">
        <ele>1498.2</ele>
        <time>2022-10-28T16:00:25Z</time>
      </trkpt>
      <trkpt lat="44.404" lon="3.85652">
        <ele>1497.8</ele>
        <time>2022-10-28T16:00:26Z</time>
      </trkpt>
      <trkpt lat="44.40397" lon="3.85654">
        <ele>1497.6</ele>
        <time>2022-10-28T16:00:27Z</time>
      </trkpt>
      <trkpt lat="44.40393" lon="3.85656">
        <ele>1497.2</ele>
        <time>2022-10-28T16:00:28Z</time>
      </trkpt>
      <trkpt lat="44.40389" lon="3.85657">
        <ele>1496.8</ele>
        <time>2022-10-28T16:00:29Z</time>
      </trkpt>
      <trkpt lat="44.40384" lon="3.85657">
        <ele>1496.4</ele>
        <time>2022-10-28T16:00:30Z</time>
      </trkpt>
      <trkpt lat="44.4038" lon="3.85657">
        <ele>1496</ele>
        <time>2022-10-28T16:00:31Z</time>
      </trkpt>
      <trkpt lat="44.40375" lon="3.85657">
        <ele>1495.4</ele>
        <time>2022-10-28T16:00:32Z</time>
      </trkpt>
      <trkpt lat="44.4037" lon="3.85657">
        <ele>1495</ele>
        <time>2022-10-28T16:00:33Z</time>
      </trkpt>
      <trkpt lat="44.40366" lon="3.85656">
        <ele>1494.6</ele>
        <time>2022-10-28T16:00:34Z</time>
      </trkpt>
      <trkpt lat="44.40362" lon="3.85656">
        <ele>1494.2</ele>
        <time>2022-10-28T16:00:35Z</time>
      </trkpt>
      <trkpt lat="44.40358" lon="3.85657">
        <ele>1493.8</ele>
        <time>2022-10-28T16:00:36Z</time>
      </trkpt>
      <trkpt lat="44.40354" lon="3.85658">
        <ele>1493.4</ele>
        <time>2022-10-28T16:00:37Z</time>
      </trkpt>
      <trkpt lat="44.4035" lon="3.85658">
        <ele>1493</ele>
        <time>2022-10-28T16:00:38Z</time>
      </trkpt>
      <trkpt lat="44.40347" lon="3.85659">
        <ele>1492.6</ele>
        <time>2022-10-28T16:00:39Z</time>
      </trkpt>
      <trkpt lat="44.40344" lon="3.85659">
        <ele>1492.2</ele>
        <time>2022-10-28T16:00:40Z</time>
      </trkpt>
      <trkpt lat="44.4034" lon="3.85658">
        <ele>1492</ele>
        <time>2022-10-28T16:00:41Z</time>
      </trkpt>
      <trkpt lat="44.40337" lon="3.85657">
        <ele>1491.6</ele>
        <time>2022-10-28T16:00:42Z</time>
      </trkpt>
      <trkpt lat="44.40333" lon="3.85656">
        <ele>1491.4</ele>
        <time>2022-10-28T16:00:43Z</time>
      </trkpt>
      <trkpt lat="44.40329" lon="3.85655">
        <ele>1491.2</ele>
        <time>2022-10-28T16:00:44Z</time>
      </trkpt>
      <trkpt lat="44.40325" lon="3.85653">
        <ele>1490.8</ele>
        <time>2022-10-28T16:00:45Z</time>
      </trkpt>
      <trkpt lat="44.40321" lon="3.8565">
        <ele>1490.4</ele>
        <time>2022-10-28T16:00:46Z</time>
      </trkpt>
      <trkpt lat="44.40316" lon="3.85647">
        <ele>1490.2</ele>
        <time>2022-10-28T16:00:47Z</time>
      </trkpt>
      <trkpt lat="44.4031" lon="3.85643">
        <ele>1490</ele>
        <time>2022-10-28T16:00:48Z</time>
      </trkpt>
      <trkpt lat="44.40305" lon="3.8564">
        <ele>1489.6</ele>
        <time>2022-10-28T16:00:49Z</time>
      </trkpt>
      <trkpt lat="44.403" lon="3.85636">
        <ele>1489.2</ele>
        <time>2022-10-28T16:00:50Z</time>
      </trkpt>
      <trkpt lat="44.40294" lon="3.85632">
        <ele>1488.6</ele>
        <time>2022-10-28T16:00:51Z</time>
      </trkpt>
      <trkpt lat="44.40288" lon="3.85629">
        <ele>1488</ele>
        <time>2022-10-28T16:00:52Z</time>
      </trkpt>
      <trkpt lat="44.40283" lon="3.85627">
        <ele>1487.6</ele>
        <time>2022-10-28T16:00:53Z</time>
      </trkpt>
      <trkpt lat="44.40279" lon="3.85625">
        <ele>1487.2</ele>
        <time>2022-10-28T16:00:54Z</time>
      </trkpt>
      <trkpt lat="44.40274" lon="3.85624">
        <ele>1486.8</ele>
        <time>2022-10-28T16:00:55Z</time>
      </trkpt>
      <trkpt lat="44.4027" lon="3.85625">
        <ele>1486.4</ele>
        <time>2022-10-28T16:00:56Z</time>
      </trkpt>
      <trkpt lat="44.40266" lon="3.85626">
        <ele>1486</ele>
        <time>2022-10-28T16:00:57Z</time>
      </trkpt>
      <trkpt lat="44.40262" lon="3.85628">
        <ele>1485.6</ele>
        <time>2022-10-28T16:00:58Z</time>
      </trkpt>
      <trkpt lat="44.40259" lon="3.8563">
        <ele>1485.2</ele>
        <time>2022-10-28T16:00:59Z</time>
      </trkpt>
      <trkpt lat="44.40255" lon="3.85632">
        <ele>1485</ele>
        <time>2022-10-28T16:01:00Z</time>
      </trkpt>
      <trkpt lat="44.40252" lon="3.85634">
        <ele>1484.6</ele>
        <time>2022-10-28T16:01:01Z</time>
      </trkpt>
      <trkpt lat="44.40249" lon="3.85636">
        <ele>1484.2</ele>
        <time>2022-10-28T16:01:02Z</time>
      </trkpt>
      <trkpt lat="44.40245" lon="3.85639">
        <ele>1483.8</ele>
        <time>2022-10-28T16:01:03Z</time>
      </trkpt>
      <trkpt lat="44.4024" lon="3.85642">
        <ele>1483.4</ele>
        <time>2022-10-28T16:01:04Z</time>
      </trkpt>
      <trkpt lat="44.40236" lon="3.85646">
        <ele>1482.8</ele>
        <time>2022-10-28T16:01:05Z</time>
      </trkpt>
      <trkpt lat="44.40231" lon="3.8565">
        <ele>1482.4</ele>
        <time>2022-10-28T16:01:06Z</time>
      </trkpt>
      <trkpt lat="44.40227" lon="3.85654">
        <ele>1482</ele>
        <time>2022-10-28T16:01:07Z</time>
      </trkpt>
      <trkpt lat="44.40223" lon="3.85658">
        <ele>1481.4</ele>
        <time>2022-10-28T16:01:08Z</time>
      </trkpt>
      <trkpt lat="44.4022" lon="3.85662">
        <ele>1481</ele>
        <time>2022-10-28T16:01:09Z</time>
      </trkpt>
      <trkpt lat="44.40217" lon="3.85667">
        <ele>1480.8</ele>
        <time>2022-10-28T16:01:10Z</time>
      </trkpt>
      <trkpt lat="44.40215" lon="3.85672">
        <ele>1480.4</ele>
        <time>2022-10-28T16:01:11Z</time>
      </trkpt>
      <trkpt lat="44.40214" lon="3.85678">
        <ele>1480</ele>
        <time>2022-10-28T16:01:12Z</time>
      </trkpt>
      <trkpt lat="44.40212" lon="3.85684">
        <ele>1479.6</ele>
        <time>2022-10-28T16:01:13Z</time>
      </trkpt>
      <trkpt lat="44.40211" lon="3.85691">
        <ele>1479.2</ele>
        <time>2022-10-28T16:01:14Z</time>
      </trkpt>
      <trkpt lat="44.4021" lon="3.85697">
        <ele>1479</ele>
        <time>2022-10-28T16:01:15Z</time>
      </trkpt>
      <trkpt lat="44.40207" lon="3.85704">
        <ele>1478.6</ele>
        <time>2022-10-28T16:01:16Z</time>
      </trkpt>
      <trkpt lat="44.40205" lon="3.85711">
        <ele>1478.2</ele>
        <time>2022-10-28T16:01:17Z</time>
      </trkpt>
      <trkpt lat="44.40203" lon="3.85719">
        <ele>1477.6</ele>
        <time>2022-10-28T16:01:18Z</time>
      </trkpt>
      <trkpt lat="44.40201" lon="3.85726">
        <ele>1477.2</ele>
        <time>2022-10-28T16:01:19Z</time>
      </trkpt>
      <trkpt lat="44.40199" lon="3.85734">
        <ele>1476.8</ele>
        <time>2022-10-28T16:01:20Z</time>
      </trkpt>
      <trkpt lat="44.40197" lon="3.85742">
        <ele>1476.4</ele>
        <time>2022-10-28T16:01:21Z</time>
      </trkpt>
      <trkpt lat="44.40195" lon="3.85749">
        <ele>1476</ele>
        <time>2022-10-28T16:01:22Z</time>
      </trkpt>
      <trkpt lat="44.40194" lon="3.85757">
        <ele>1475.8</ele>
        <time>2022-10-28T16:01:23Z</time>
      </trkpt>
      <trkpt lat="44.40193" lon="3.85764">
        <ele>1475.4</ele>
        <time>2022-10-28T16:01:24Z</time>
      </trkpt>
      <trkpt lat="44.40193" lon="3.85772">
        <ele>1475</ele>
        <time>2022-10-28T16:01:25Z</time>
      </trkpt>
      <trkpt lat="44.40193" lon="3.85779">
        <ele>1474.8</ele>
        <time>2022-10-28T16:01:26Z</time>
      </trkpt>
      <trkpt lat="44.40193" lon="3.85785">
        <ele>1474.4</ele>
        <time>2022-10-28T16:01:27Z</time>
      </trkpt>
      <trkpt lat="44.40194" lon="3.85791">
        <ele>1474</ele>
        <time>2022-10-28T16:01:28Z</time>
      </trkpt>
      <trkpt lat="44.40196" lon="3.85796">
        <ele>1473.8</ele>
        <time>2022-10-28T16:01:29Z</time>
      </trkpt>
      <trkpt lat="44.40197" lon="3.85801">
        <ele>1473.4</ele>
        <time>2022-10-28T16:01:30Z</time>
      </trkpt>
      <trkpt lat="44.40199" lon="3.85805">
        <ele>1473</ele>
        <time>2022-10-28T16:01:31Z</time>
      </trkpt>
      <trkpt lat="44.402" lon="3.85809">
        <ele>1472.8</ele>
        <time>2022-10-28T16:01:32Z</time>
      </trkpt>
      <trkpt lat="44.40201" lon="3.85813">
        <ele>1472.6</ele>
        <time>2022-10-28T16:01:33Z</time>
      </trkpt>
      <trkpt lat="44.40202" lon="3.85816">
        <ele>1472.4</ele>
        <time>2022-10-28T16:01:34Z</time>
      </trkpt>
      <trkpt lat="44.40203" lon="3.85819">
        <ele>1472.2</ele>
        <time>2022-10-28T16:01:35Z</time>
      </trkpt>
      <trkpt lat="44.40204" lon="3.85822">
        <ele>1472</ele>
        <time>2022-10-28T16:01:36Z</time>
      </trkpt>
      <trkpt lat="44.40204" lon="3.85824">
        <ele>1471.8</ele>
        <time>2022-10-28T16:01:37Z</time>
      </trkpt>
      <trkpt lat="44.40203" lon="3.85825">
        <ele>1471.6</ele>
        <time>2022-10-28T16:01:38Z</time>
      </trkpt>
      <trkpt lat="44.40203" lon="3.85826">
        <ele>1471.6</ele>
        <time>2022-10-28T16:01:39Z</time>
      </trkpt>
      <trkpt lat="44.40204" lon="3.85828">
        <ele>1471.2</ele>
        <time>2022-10-28T16:01:42Z</time>
      </trkpt>
      <trkpt lat="44.40205" lon="3.85828">
        <ele>1471.2</ele>
        <time>2022-10-28T16:01:43Z</time>
      </trkpt>
      <trkpt lat="44.40206" lon="3.85828">
        <ele>1471</ele>
        <time>2022-10-28T16:01:44Z</time>
      </trkpt>
      <trkpt lat="44.40207" lon="3.85828">
        <ele>1471</ele>
        <time>2022-10-28T16:01:45Z</time>
      </trkpt>
      <trkpt lat="44.40208" lon="3.85826">
        <ele>1470.8</ele>
        <time>2022-10-28T16:01:46Z</time>
      </trkpt>
      <trkpt lat="44.40208" lon="3.85825">
        <ele>1470.8</ele>
        <time>2022-10-28T16:01:47Z</time>
      </trkpt>
      <trkpt lat="44.40209" lon="3.85825">
        <ele>1470.8</ele>
        <time>2022-10-28T16:01:48Z</time>
      </trkpt>
      <trkpt lat="44.40209" lon="3.85825">
        <ele>1470.8</ele>
        <time>2022-10-28T16:01:49Z</time>
      </trkpt>
      <trkpt lat="44.40209" lon="3.85825">
        <ele>1470.8</ele>
        <time>2022-10-28T16:01:50Z</time>
      </trkpt>
      <trkpt lat="44.40209" lon="3.85825">
        <ele>1470.8</ele>
        <time>2022-10-28T16:01:51Z</time>
      </trkpt>
      <trkpt lat="44.40209" lon="3.85825">
        <ele>1470.8</ele>
        <time>2022-10-28T16:01:52Z</time>
      </trkpt>
    </trkseg>
  </trk>
</gpx>